<?xml version="1.0" encoding="UTF-8" standalone="no" ?>
<gpx xmlns="http://www.topografix.com/GPX/1/1" creator="MapSource 6.15.11" version="1.1" xmlns:xsi="http://www.w3.org/2001/XMLSchema-instance" xsi:schemaLocation="http://www.topografix.com/GPX/1/1 http://www.topografix.com/GPX/1/1/gpx.xsd">

  <metadata>
    <link href="http://www.garmin.com">
      <text>Garmin International</text>
    </link>
    <time>2010-03-16T13:00:08Z</time>
    <bounds maxlat="43.9531517" maxlon="8.1266136" minlat="43.9126167" minlon="8.0693607"/>
  </metadata>

  <wpt lat="43.9248500" lon="8.0952334">
    <ele>150.0000000</ele>
    <time>2010-03-16T12:55:33Z</time>
    <name>ARRIVO PS3</name>
    <cmt>150 m</cmt>
    <desc>150 m</desc>
    <sym>Diamond, Green</sym>
    <extensions>
      <gpxx:WaypointExtension xmlns:gpxx="http://www.garmin.com/xmlschemas/GpxExtensions/v3">
        <gpxx:DisplayMode>SymbolAndName</gpxx:DisplayMode>
      </gpxx:WaypointExtension>
    </extensions>
  </wpt>

  <wpt lat="43.9281000" lon="8.1153333">
    <ele>150.0000000</ele>
    <time>2010-03-16T12:52:52Z</time>
    <name>FINE PS1</name>
    <cmt>150 m</cmt>
    <desc>150 m</desc>
    <sym>Diamond, Green</sym>
    <extensions>
      <gpxx:WaypointExtension xmlns:gpxx="http://www.garmin.com/xmlschemas/GpxExtensions/v3">
        <gpxx:DisplayMode>SymbolAndName</gpxx:DisplayMode>
      </gpxx:WaypointExtension>
    </extensions>
  </wpt>

  <wpt lat="43.9322167" lon="8.1054500">
    <ele>150.0000000</ele>
    <time>2010-03-16T12:52:18Z</time>
    <name>FINE PS2</name>
    <cmt>150 m</cmt>
    <desc>150 m</desc>
    <sym>Diamond, Green</sym>
    <extensions>
      <gpxx:WaypointExtension xmlns:gpxx="http://www.garmin.com/xmlschemas/GpxExtensions/v3">
        <gpxx:DisplayMode>SymbolAndName</gpxx:DisplayMode>
      </gpxx:WaypointExtension>
    </extensions>
  </wpt>

  <wpt lat="43.9431833" lon="8.1226000">
    <ele>150.0000000</ele>
    <time>2010-03-16T12:51:44Z</time>
    <name>INIZIO PS1/2</name>
    <cmt>150 m</cmt>
    <desc>150 m</desc>
    <sym>Bike Trail</sym>
    <extensions>
      <gpxx:WaypointExtension xmlns:gpxx="http://www.garmin.com/xmlschemas/GpxExtensions/v3">
        <gpxx:DisplayMode>SymbolAndName</gpxx:DisplayMode>
      </gpxx:WaypointExtension>
    </extensions>
  </wpt>

  <wpt lat="43.9497833" lon="8.0770333">
    <ele>150.0000000</ele>
    <time>2010-03-16T12:54:57Z</time>
    <name>PARTENZA PS3</name>
    <cmt>150 m</cmt>
    <desc>150 m</desc>
    <sym>Bike Trail</sym>
    <extensions>
      <gpxx:WaypointExtension xmlns:gpxx="http://www.garmin.com/xmlschemas/GpxExtensions/v3">
        <gpxx:DisplayMode>SymbolAndName</gpxx:DisplayMode>
      </gpxx:WaypointExtension>
    </extensions>
  </wpt>

  <wpt lat="43.9216833" lon="8.1055167">
    <ele>150.0000000</ele>
    <time>2010-03-16T12:53:39Z</time>
    <name>PARTENZA/ARRIVO</name>
    <cmt>150 m</cmt>
    <desc>150 m</desc>
    <sym>Building</sym>
    <extensions>
      <gpxx:WaypointExtension xmlns:gpxx="http://www.garmin.com/xmlschemas/GpxExtensions/v3">
        <gpxx:DisplayMode>SymbolAndName</gpxx:DisplayMode>
      </gpxx:WaypointExtension>
    </extensions>
  </wpt>

  <trk>
    <name>Completo Superenduro SanBartolomeo</name>
    <extensions>
      <gpxx:TrackExtension xmlns:gpxx="http://www.garmin.com/xmlschemas/GpxExtensions/v3">
        <gpxx:DisplayColor>White</gpxx:DisplayColor>
      </gpxx:TrackExtension>
    </extensions>
    <trkseg>
      <trkpt lat="43.9216805" lon="8.1055107">
        <ele>6.5000000</ele>
        <time>2010-03-07T09:24:37Z</time>
      </trkpt>
      <trkpt lat="43.9219246" lon="8.1053476">
        <ele>7.2000000</ele>
        <time>2010-03-07T09:24:45Z</time>
      </trkpt>
      <trkpt lat="43.9221458" lon="8.1052389">
        <ele>7.5000000</ele>
        <time>2010-03-07T09:24:52Z</time>
      </trkpt>
      <trkpt lat="43.9223519" lon="8.1051492">
        <ele>8.4000000</ele>
        <time>2010-03-07T09:24:59Z</time>
      </trkpt>
      <trkpt lat="43.9224090" lon="8.1051435">
        <ele>8.4000000</ele>
        <time>2010-03-07T09:25:01Z</time>
      </trkpt>
      <trkpt lat="43.9225044" lon="8.1052809">
        <ele>9.1000000</ele>
        <time>2010-03-07T09:25:06Z</time>
      </trkpt>
      <trkpt lat="43.9225731" lon="8.1055422">
        <ele>9.6000000</ele>
        <time>2010-03-07T09:25:13Z</time>
      </trkpt>
      <trkpt lat="43.9227028" lon="8.1059408">
        <ele>9.8000000</ele>
        <time>2010-03-07T09:25:24Z</time>
      </trkpt>
      <trkpt lat="43.9228897" lon="8.1065188">
        <ele>9.9000000</ele>
        <time>2010-03-07T09:25:38Z</time>
      </trkpt>
      <trkpt lat="43.9230309" lon="8.1069346">
        <ele>10.1000000</ele>
        <time>2010-03-07T09:25:48Z</time>
      </trkpt>
      <trkpt lat="43.9231414" lon="8.1072569">
        <ele>8.2000000</ele>
        <time>2010-03-07T09:25:55Z</time>
      </trkpt>
      <trkpt lat="43.9230538" lon="8.1072673">
        <ele>7.3000000</ele>
        <time>2010-03-07T09:25:58Z</time>
      </trkpt>
      <trkpt lat="43.9229126" lon="8.1072349">
        <ele>6.3000000</ele>
        <time>2010-03-07T09:26:01Z</time>
      </trkpt>
      <trkpt lat="43.9228096" lon="8.1072836">
        <ele>6.2000000</ele>
        <time>2010-03-07T09:26:03Z</time>
      </trkpt>
      <trkpt lat="43.9225426" lon="8.1074276">
        <ele>6.2000000</ele>
        <time>2010-03-07T09:26:10Z</time>
      </trkpt>
      <trkpt lat="43.9221535" lon="8.1076812">
        <ele>5.4000000</ele>
        <time>2010-03-07T09:26:20Z</time>
      </trkpt>
      <trkpt lat="43.9220733" lon="8.1077328">
        <ele>5.5000000</ele>
        <time>2010-03-07T09:26:22Z</time>
      </trkpt>
      <trkpt lat="43.9219208" lon="8.1078520">
        <ele>5.3000000</ele>
        <time>2010-03-07T09:26:26Z</time>
      </trkpt>
      <trkpt lat="43.9217834" lon="8.1078014">
        <ele>5.1000000</ele>
        <time>2010-03-07T09:26:30Z</time>
      </trkpt>
      <trkpt lat="43.9217262" lon="8.1076450">
        <ele>4.9000000</ele>
        <time>2010-03-07T09:26:33Z</time>
      </trkpt>
      <trkpt lat="43.9216919" lon="8.1073103">
        <ele>4.5000000</ele>
        <time>2010-03-07T09:26:39Z</time>
      </trkpt>
      <trkpt lat="43.9217224" lon="8.1072712">
        <ele>4.6000000</ele>
        <time>2010-03-07T09:26:40Z</time>
      </trkpt>
      <trkpt lat="43.9219704" lon="8.1071176">
        <ele>4.8000000</ele>
        <time>2010-03-07T09:26:47Z</time>
      </trkpt>
      <trkpt lat="43.9222374" lon="8.1069470">
        <ele>4.9000000</ele>
        <time>2010-03-07T09:26:55Z</time>
      </trkpt>
      <trkpt lat="43.9225197" lon="8.1067133">
        <ele>5.8000000</ele>
        <time>2010-03-07T09:27:04Z</time>
      </trkpt>
      <trkpt lat="43.9227447" lon="8.1065779">
        <ele>5.1000000</ele>
        <time>2010-03-07T09:27:11Z</time>
      </trkpt>
      <trkpt lat="43.9228745" lon="8.1064577">
        <ele>5.4000000</ele>
        <time>2010-03-07T09:27:17Z</time>
      </trkpt>
      <trkpt lat="43.9229698" lon="8.1064062">
        <ele>5.4000000</ele>
        <time>2010-03-07T09:27:22Z</time>
      </trkpt>
      <trkpt lat="43.9232368" lon="8.1062956">
        <ele>5.9000000</ele>
        <time>2010-03-07T09:27:31Z</time>
      </trkpt>
      <trkpt lat="43.9234047" lon="8.1062813">
        <ele>6.0000000</ele>
        <time>2010-03-07T09:27:37Z</time>
      </trkpt>
      <trkpt lat="43.9234619" lon="8.1062918">
        <ele>6.0000000</ele>
        <time>2010-03-07T09:27:39Z</time>
      </trkpt>
      <trkpt lat="43.9236183" lon="8.1065378">
        <ele>7.6000000</ele>
        <time>2010-03-07T09:27:48Z</time>
      </trkpt>
      <trkpt lat="43.9237938" lon="8.1068401">
        <ele>7.7000000</ele>
        <time>2010-03-07T09:27:58Z</time>
      </trkpt>
      <trkpt lat="43.9239998" lon="8.1068039">
        <ele>8.3000000</ele>
        <time>2010-03-07T09:28:05Z</time>
      </trkpt>
      <trkpt lat="43.9242249" lon="8.1067229">
        <ele>8.4000000</ele>
        <time>2010-03-07T09:28:12Z</time>
      </trkpt>
      <trkpt lat="43.9243774" lon="8.1066647">
        <ele>8.5000000</ele>
        <time>2010-03-07T09:28:17Z</time>
      </trkpt>
      <trkpt lat="43.9246445" lon="8.1065302">
        <ele>9.0000000</ele>
        <time>2010-03-07T09:28:26Z</time>
      </trkpt>
      <trkpt lat="43.9248238" lon="8.1063633">
        <ele>9.2000000</ele>
        <time>2010-03-07T09:28:33Z</time>
      </trkpt>
      <trkpt lat="43.9250031" lon="8.1062308">
        <ele>9.7000000</ele>
        <time>2010-03-07T09:28:39Z</time>
      </trkpt>
      <trkpt lat="43.9252854" lon="8.1061201">
        <ele>9.4000000</ele>
        <time>2010-03-07T09:28:48Z</time>
      </trkpt>
      <trkpt lat="43.9256782" lon="8.1061888">
        <ele>10.3000000</ele>
        <time>2010-03-07T09:29:01Z</time>
      </trkpt>
      <trkpt lat="43.9259873" lon="8.1062288">
        <ele>11.3000000</ele>
        <time>2010-03-07T09:29:12Z</time>
      </trkpt>
      <trkpt lat="43.9262313" lon="8.1062536">
        <ele>12.6000000</ele>
        <time>2010-03-07T09:29:21Z</time>
      </trkpt>
      <trkpt lat="43.9264335" lon="8.1062822">
        <ele>12.5000000</ele>
        <time>2010-03-07T09:29:28Z</time>
      </trkpt>
      <trkpt lat="43.9266281" lon="8.1062556">
        <ele>13.0000000</ele>
        <time>2010-03-07T09:29:35Z</time>
      </trkpt>
      <trkpt lat="43.9268532" lon="8.1061573">
        <ele>12.6000000</ele>
        <time>2010-03-07T09:29:42Z</time>
      </trkpt>
      <trkpt lat="43.9268913" lon="8.1061401">
        <ele>12.4000000</ele>
        <time>2010-03-07T09:29:43Z</time>
      </trkpt>
      <trkpt lat="43.9272118" lon="8.1060038">
        <ele>13.2000000</ele>
        <time>2010-03-07T09:29:53Z</time>
      </trkpt>
      <trkpt lat="43.9274865" lon="8.1059437">
        <ele>13.8000000</ele>
        <time>2010-03-07T09:30:02Z</time>
      </trkpt>
      <trkpt lat="43.9277687" lon="8.1058903">
        <ele>14.4000000</ele>
        <time>2010-03-07T09:30:11Z</time>
      </trkpt>
      <trkpt lat="43.9280433" lon="8.1058293">
        <ele>15.2000000</ele>
        <time>2010-03-07T09:30:20Z</time>
      </trkpt>
      <trkpt lat="43.9283143" lon="8.1057729">
        <ele>15.5000000</ele>
        <time>2010-03-07T09:30:29Z</time>
      </trkpt>
      <trkpt lat="43.9285851" lon="8.1056871">
        <ele>16.2000000</ele>
        <time>2010-03-07T09:30:38Z</time>
      </trkpt>
      <trkpt lat="43.9287605" lon="8.1056566">
        <ele>16.4000000</ele>
        <time>2010-03-07T09:30:44Z</time>
      </trkpt>
      <trkpt lat="43.9290543" lon="8.1056624">
        <ele>16.7000000</ele>
        <time>2010-03-07T09:30:53Z</time>
      </trkpt>
      <trkpt lat="43.9294129" lon="8.1056242">
        <ele>17.3000000</ele>
        <time>2010-03-07T09:31:04Z</time>
      </trkpt>
      <trkpt lat="43.9296989" lon="8.1055755">
        <ele>18.0000000</ele>
        <time>2010-03-07T09:31:13Z</time>
      </trkpt>
      <trkpt lat="43.9299240" lon="8.1055336">
        <ele>17.5000000</ele>
        <time>2010-03-07T09:31:20Z</time>
      </trkpt>
      <trkpt lat="43.9302216" lon="8.1054954">
        <ele>17.9000000</ele>
        <time>2010-03-07T09:31:29Z</time>
      </trkpt>
      <trkpt lat="43.9304771" lon="8.1054668">
        <ele>18.5000000</ele>
        <time>2010-03-07T09:31:37Z</time>
      </trkpt>
      <trkpt lat="43.9306984" lon="8.1054402">
        <ele>18.8000000</ele>
        <time>2010-03-07T09:31:44Z</time>
      </trkpt>
      <trkpt lat="43.9309197" lon="8.1054773">
        <ele>19.0000000</ele>
        <time>2010-03-07T09:31:51Z</time>
      </trkpt>
      <trkpt lat="43.9311600" lon="8.1055422">
        <ele>19.6000000</ele>
        <time>2010-03-07T09:31:59Z</time>
      </trkpt>
      <trkpt lat="43.9313964" lon="8.1055403">
        <ele>20.7000000</ele>
        <time>2010-03-07T09:32:07Z</time>
      </trkpt>
      <trkpt lat="43.9316216" lon="8.1055040">
        <ele>21.2000000</ele>
        <time>2010-03-07T09:32:15Z</time>
      </trkpt>
      <trkpt lat="43.9318962" lon="8.1054382">
        <ele>21.7000000</ele>
        <time>2010-03-07T09:32:25Z</time>
      </trkpt>
      <trkpt lat="43.9321442" lon="8.1053657">
        <ele>22.2000000</ele>
        <time>2010-03-07T09:32:34Z</time>
      </trkpt>
      <trkpt lat="43.9324188" lon="8.1053610">
        <ele>22.8000000</ele>
        <time>2010-03-07T09:32:44Z</time>
      </trkpt>
      <trkpt lat="43.9327087" lon="8.1053725">
        <ele>23.3000000</ele>
        <time>2010-03-07T09:32:54Z</time>
      </trkpt>
      <trkpt lat="43.9329681" lon="8.1053686">
        <ele>23.7000000</ele>
        <time>2010-03-07T09:33:03Z</time>
      </trkpt>
      <trkpt lat="43.9332237" lon="8.1053553">
        <ele>24.0000000</ele>
        <time>2010-03-07T09:33:12Z</time>
      </trkpt>
      <trkpt lat="43.9334717" lon="8.1052723">
        <ele>24.4000000</ele>
        <time>2010-03-07T09:33:21Z</time>
      </trkpt>
      <trkpt lat="43.9336891" lon="8.1052046">
        <ele>24.8000000</ele>
        <time>2010-03-07T09:33:29Z</time>
      </trkpt>
      <trkpt lat="43.9339103" lon="8.1051321">
        <ele>24.7000000</ele>
        <time>2010-03-07T09:33:37Z</time>
      </trkpt>
      <trkpt lat="43.9341889" lon="8.1050358">
        <ele>24.9000000</ele>
        <time>2010-03-07T09:33:47Z</time>
      </trkpt>
      <trkpt lat="43.9344368" lon="8.1049633">
        <ele>25.5000000</ele>
        <time>2010-03-07T09:33:56Z</time>
      </trkpt>
      <trkpt lat="43.9346275" lon="8.1049290">
        <ele>25.9000000</ele>
        <time>2010-03-07T09:34:04Z</time>
      </trkpt>
      <trkpt lat="43.9348526" lon="8.1048747">
        <ele>27.3000000</ele>
        <time>2010-03-07T09:34:13Z</time>
      </trkpt>
      <trkpt lat="43.9351082" lon="8.1048498">
        <ele>28.4000000</ele>
        <time>2010-03-07T09:34:23Z</time>
      </trkpt>
      <trkpt lat="43.9353524" lon="8.1048393">
        <ele>29.5000000</ele>
        <time>2010-03-07T09:34:33Z</time>
      </trkpt>
      <trkpt lat="43.9355812" lon="8.1048222">
        <ele>30.1000000</ele>
        <time>2010-03-07T09:34:42Z</time>
      </trkpt>
      <trkpt lat="43.9357986" lon="8.1047468">
        <ele>29.9000000</ele>
        <time>2010-03-07T09:34:50Z</time>
      </trkpt>
      <trkpt lat="43.9360123" lon="8.1046791">
        <ele>29.2000000</ele>
        <time>2010-03-07T09:34:57Z</time>
      </trkpt>
      <trkpt lat="43.9362450" lon="8.1046706">
        <ele>28.9000000</ele>
        <time>2010-03-07T09:35:05Z</time>
      </trkpt>
      <trkpt lat="43.9364319" lon="8.1046848">
        <ele>29.0000000</ele>
        <time>2010-03-07T09:35:12Z</time>
      </trkpt>
      <trkpt lat="43.9366226" lon="8.1046619">
        <ele>30.0000000</ele>
        <time>2010-03-07T09:35:20Z</time>
      </trkpt>
      <trkpt lat="43.9368057" lon="8.1046076">
        <ele>30.7000000</ele>
        <time>2010-03-07T09:35:28Z</time>
      </trkpt>
      <trkpt lat="43.9370117" lon="8.1045351">
        <ele>30.5000000</ele>
        <time>2010-03-07T09:35:37Z</time>
      </trkpt>
      <trkpt lat="43.9372253" lon="8.1044483">
        <ele>30.4000000</ele>
        <time>2010-03-07T09:35:46Z</time>
      </trkpt>
      <trkpt lat="43.9374122" lon="8.1043673">
        <ele>30.8000000</ele>
        <time>2010-03-07T09:35:54Z</time>
      </trkpt>
      <trkpt lat="43.9375725" lon="8.1042586">
        <ele>31.4000000</ele>
        <time>2010-03-07T09:36:01Z</time>
      </trkpt>
      <trkpt lat="43.9377632" lon="8.1041269">
        <ele>32.5000000</ele>
        <time>2010-03-07T09:36:10Z</time>
      </trkpt>
      <trkpt lat="43.9378433" lon="8.1040735">
        <ele>34.2000000</ele>
        <time>2010-03-07T09:36:14Z</time>
      </trkpt>
      <trkpt lat="43.9379387" lon="8.1040086">
        <ele>34.6000000</ele>
        <time>2010-03-07T09:36:19Z</time>
      </trkpt>
      <trkpt lat="43.9380912" lon="8.1039114">
        <ele>36.3000000</ele>
        <time>2010-03-07T09:36:27Z</time>
      </trkpt>
      <trkpt lat="43.9382171" lon="8.1038323">
        <ele>37.2000000</ele>
        <time>2010-03-07T09:36:34Z</time>
      </trkpt>
      <trkpt lat="43.9383621" lon="8.1037340">
        <ele>38.7000000</ele>
        <time>2010-03-07T09:36:42Z</time>
      </trkpt>
      <trkpt lat="43.9384957" lon="8.1037140">
        <ele>38.7000000</ele>
        <time>2010-03-07T09:36:48Z</time>
      </trkpt>
      <trkpt lat="43.9385872" lon="8.1039057">
        <ele>39.0000000</ele>
        <time>2010-03-07T09:36:55Z</time>
      </trkpt>
      <trkpt lat="43.9386902" lon="8.1042356">
        <ele>39.0000000</ele>
        <time>2010-03-07T09:37:05Z</time>
      </trkpt>
      <trkpt lat="43.9387283" lon="8.1044531">
        <ele>39.9000000</ele>
        <time>2010-03-07T09:37:12Z</time>
      </trkpt>
      <trkpt lat="43.9386787" lon="8.1045913">
        <ele>40.8000000</ele>
        <time>2010-03-07T09:37:17Z</time>
      </trkpt>
      <trkpt lat="43.9385338" lon="8.1047783">
        <ele>42.5000000</ele>
        <time>2010-03-07T09:37:26Z</time>
      </trkpt>
      <trkpt lat="43.9384041" lon="8.1049786">
        <ele>43.9000000</ele>
        <time>2010-03-07T09:37:35Z</time>
      </trkpt>
      <trkpt lat="43.9383774" lon="8.1051502">
        <ele>44.9000000</ele>
        <time>2010-03-07T09:37:41Z</time>
      </trkpt>
      <trkpt lat="43.9384537" lon="8.1053381">
        <ele>45.8000000</ele>
        <time>2010-03-07T09:37:48Z</time>
      </trkpt>
      <trkpt lat="43.9386253" lon="8.1055030">
        <ele>46.4000000</ele>
        <time>2010-03-07T09:37:57Z</time>
      </trkpt>
      <trkpt lat="43.9388542" lon="8.1055908">
        <ele>47.5000000</ele>
        <time>2010-03-07T09:38:07Z</time>
      </trkpt>
      <trkpt lat="43.9390335" lon="8.1056442">
        <ele>48.2000000</ele>
        <time>2010-03-07T09:38:15Z</time>
      </trkpt>
      <trkpt lat="43.9392547" lon="8.1057167">
        <ele>49.0000000</ele>
        <time>2010-03-07T09:38:25Z</time>
      </trkpt>
      <trkpt lat="43.9394531" lon="8.1057853">
        <ele>50.1000000</ele>
        <time>2010-03-07T09:38:34Z</time>
      </trkpt>
      <trkpt lat="43.9396095" lon="8.1058359">
        <ele>50.7000000</ele>
        <time>2010-03-07T09:38:41Z</time>
      </trkpt>
      <trkpt lat="43.9397392" lon="8.1058988">
        <ele>51.3000000</ele>
        <time>2010-03-07T09:38:47Z</time>
      </trkpt>
      <trkpt lat="43.9399109" lon="8.1060600">
        <ele>53.5000000</ele>
        <time>2010-03-07T09:38:56Z</time>
      </trkpt>
      <trkpt lat="43.9400825" lon="8.1062241">
        <ele>54.5000000</ele>
        <time>2010-03-07T09:39:06Z</time>
      </trkpt>
      <trkpt lat="43.9401932" lon="8.1063604">
        <ele>55.6000000</ele>
        <time>2010-03-07T09:39:13Z</time>
      </trkpt>
      <trkpt lat="43.9403725" lon="8.1065340">
        <ele>57.3000000</ele>
        <time>2010-03-07T09:39:24Z</time>
      </trkpt>
      <trkpt lat="43.9405517" lon="8.1066637">
        <ele>58.8000000</ele>
        <time>2010-03-07T09:39:34Z</time>
      </trkpt>
      <trkpt lat="43.9407463" lon="8.1067887">
        <ele>60.5000000</ele>
        <time>2010-03-07T09:39:45Z</time>
      </trkpt>
      <trkpt lat="43.9409256" lon="8.1068811">
        <ele>62.4000000</ele>
        <time>2010-03-07T09:39:55Z</time>
      </trkpt>
      <trkpt lat="43.9410935" lon="8.1069555">
        <ele>64.2000000</ele>
        <time>2010-03-07T09:40:04Z</time>
      </trkpt>
      <trkpt lat="43.9412651" lon="8.1070632">
        <ele>65.4000000</ele>
        <time>2010-03-07T09:40:14Z</time>
      </trkpt>
      <trkpt lat="43.9414024" lon="8.1071902">
        <ele>67.1000000</ele>
        <time>2010-03-07T09:40:23Z</time>
      </trkpt>
      <trkpt lat="43.9415397" lon="8.1073418">
        <ele>68.1000000</ele>
        <time>2010-03-07T09:40:32Z</time>
      </trkpt>
      <trkpt lat="43.9416809" lon="8.1074819">
        <ele>69.1000000</ele>
        <time>2010-03-07T09:40:41Z</time>
      </trkpt>
      <trkpt lat="43.9418144" lon="8.1076165">
        <ele>70.7000000</ele>
        <time>2010-03-07T09:40:50Z</time>
      </trkpt>
      <trkpt lat="43.9419289" lon="8.1077614">
        <ele>71.6000000</ele>
        <time>2010-03-07T09:40:58Z</time>
      </trkpt>
      <trkpt lat="43.9420395" lon="8.1079187">
        <ele>72.4000000</ele>
        <time>2010-03-07T09:41:06Z</time>
      </trkpt>
      <trkpt lat="43.9421692" lon="8.1080542">
        <ele>73.6000000</ele>
        <time>2010-03-07T09:41:15Z</time>
      </trkpt>
      <trkpt lat="43.9421882" lon="8.1080542">
        <ele>73.8000000</ele>
        <time>2010-03-07T09:41:16Z</time>
      </trkpt>
      <trkpt lat="43.9422570" lon="8.1079273">
        <ele>75.0000000</ele>
        <time>2010-03-07T09:41:22Z</time>
      </trkpt>
      <trkpt lat="43.9422035" lon="8.1078128">
        <ele>75.8000000</ele>
        <time>2010-03-07T09:41:27Z</time>
      </trkpt>
      <trkpt lat="43.9420662" lon="8.1076784">
        <ele>76.0000000</ele>
        <time>2010-03-07T09:41:34Z</time>
      </trkpt>
      <trkpt lat="43.9419708" lon="8.1075830">
        <ele>76.8000000</ele>
        <time>2010-03-07T09:41:40Z</time>
      </trkpt>
      <trkpt lat="43.9418831" lon="8.1074486">
        <ele>77.7000000</ele>
        <time>2010-03-07T09:41:47Z</time>
      </trkpt>
      <trkpt lat="43.9417991" lon="8.1073303">
        <ele>78.2000000</ele>
        <time>2010-03-07T09:41:52Z</time>
      </trkpt>
      <trkpt lat="43.9417076" lon="8.1072178">
        <ele>78.9000000</ele>
        <time>2010-03-07T09:41:58Z</time>
      </trkpt>
      <trkpt lat="43.9416085" lon="8.1071024">
        <ele>79.7000000</ele>
        <time>2010-03-07T09:42:05Z</time>
      </trkpt>
      <trkpt lat="43.9415207" lon="8.1069470">
        <ele>80.6000000</ele>
        <time>2010-03-07T09:42:12Z</time>
      </trkpt>
      <trkpt lat="43.9414063" lon="8.1067190">
        <ele>81.6000000</ele>
        <time>2010-03-07T09:42:20Z</time>
      </trkpt>
      <trkpt lat="43.9412994" lon="8.1065607">
        <ele>83.0000000</ele>
        <time>2010-03-07T09:42:27Z</time>
      </trkpt>
      <trkpt lat="43.9412460" lon="8.1064758">
        <ele>83.5000000</ele>
        <time>2010-03-07T09:42:33Z</time>
      </trkpt>
      <trkpt lat="43.9411697" lon="8.1063232">
        <ele>84.0000000</ele>
        <time>2010-03-07T09:42:38Z</time>
      </trkpt>
      <trkpt lat="43.9410896" lon="8.1062136">
        <ele>85.2000000</ele>
        <time>2010-03-07T09:42:44Z</time>
      </trkpt>
      <trkpt lat="43.9409942" lon="8.1060676">
        <ele>86.3000000</ele>
        <time>2010-03-07T09:42:51Z</time>
      </trkpt>
      <trkpt lat="43.9408646" lon="8.1059513">
        <ele>86.6000000</ele>
        <time>2010-03-07T09:42:58Z</time>
      </trkpt>
      <trkpt lat="43.9406815" lon="8.1058092">
        <ele>87.6000000</ele>
        <time>2010-03-07T09:43:07Z</time>
      </trkpt>
      <trkpt lat="43.9405289" lon="8.1056843">
        <ele>88.6000000</ele>
        <time>2010-03-07T09:43:15Z</time>
      </trkpt>
      <trkpt lat="43.9404297" lon="8.1054926">
        <ele>89.3000000</ele>
        <time>2010-03-07T09:43:23Z</time>
      </trkpt>
      <trkpt lat="43.9404564" lon="8.1052170">
        <ele>90.0000000</ele>
        <time>2010-03-07T09:43:32Z</time>
      </trkpt>
      <trkpt lat="43.9405556" lon="8.1049575">
        <ele>91.4000000</ele>
        <time>2010-03-07T09:43:41Z</time>
      </trkpt>
      <trkpt lat="43.9406624" lon="8.1047564">
        <ele>92.5000000</ele>
        <time>2010-03-07T09:43:49Z</time>
      </trkpt>
      <trkpt lat="43.9408340" lon="8.1045961">
        <ele>93.9000000</ele>
        <time>2010-03-07T09:43:58Z</time>
      </trkpt>
      <trkpt lat="43.9410095" lon="8.1045789">
        <ele>94.2000000</ele>
        <time>2010-03-07T09:44:06Z</time>
      </trkpt>
      <trkpt lat="43.9411697" lon="8.1046048">
        <ele>96.2000000</ele>
        <time>2010-03-07T09:44:14Z</time>
      </trkpt>
      <trkpt lat="43.9412956" lon="8.1046390">
        <ele>97.0000000</ele>
        <time>2010-03-07T09:44:20Z</time>
      </trkpt>
      <trkpt lat="43.9413987" lon="8.1046124">
        <ele>97.6000000</ele>
        <time>2010-03-07T09:44:27Z</time>
      </trkpt>
      <trkpt lat="43.9414520" lon="8.1046162">
        <ele>97.9000000</ele>
        <time>2010-03-07T09:44:31Z</time>
      </trkpt>
      <trkpt lat="43.9416046" lon="8.1046018">
        <ele>98.8000000</ele>
        <time>2010-03-07T09:44:37Z</time>
      </trkpt>
      <trkpt lat="43.9417229" lon="8.1046009">
        <ele>99.6000000</ele>
        <time>2010-03-07T09:44:43Z</time>
      </trkpt>
      <trkpt lat="43.9418678" lon="8.1045523">
        <ele>100.8000000</ele>
        <time>2010-03-07T09:44:50Z</time>
      </trkpt>
      <trkpt lat="43.9419937" lon="8.1045704">
        <ele>101.5000000</ele>
        <time>2010-03-07T09:44:55Z</time>
      </trkpt>
      <trkpt lat="43.9420204" lon="8.1045647">
        <ele>101.6000000</ele>
        <time>2010-03-07T09:44:56Z</time>
      </trkpt>
      <trkpt lat="43.9421692" lon="8.1045122">
        <ele>102.2000000</ele>
        <time>2010-03-07T09:45:03Z</time>
      </trkpt>
      <trkpt lat="43.9423141" lon="8.1044569">
        <ele>103.2000000</ele>
        <time>2010-03-07T09:45:10Z</time>
      </trkpt>
      <trkpt lat="43.9424134" lon="8.1044960">
        <ele>104.0000000</ele>
        <time>2010-03-07T09:45:15Z</time>
      </trkpt>
      <trkpt lat="43.9425659" lon="8.1045799">
        <ele>104.7000000</ele>
        <time>2010-03-07T09:45:22Z</time>
      </trkpt>
      <trkpt lat="43.9426727" lon="8.1046286">
        <ele>105.5000000</ele>
        <time>2010-03-07T09:45:27Z</time>
      </trkpt>
      <trkpt lat="43.9427032" lon="8.1046524">
        <ele>105.9000000</ele>
        <time>2010-03-07T09:45:29Z</time>
      </trkpt>
      <trkpt lat="43.9427986" lon="8.1047201">
        <ele>106.4000000</ele>
        <time>2010-03-07T09:45:35Z</time>
      </trkpt>
      <trkpt lat="43.9429321" lon="8.1048126">
        <ele>107.7000000</ele>
        <time>2010-03-07T09:45:42Z</time>
      </trkpt>
      <trkpt lat="43.9431076" lon="8.1048985">
        <ele>108.7000000</ele>
        <time>2010-03-07T09:45:50Z</time>
      </trkpt>
      <trkpt lat="43.9432983" lon="8.1049166">
        <ele>110.1000000</ele>
        <time>2010-03-07T09:45:58Z</time>
      </trkpt>
      <trkpt lat="43.9434662" lon="8.1049156">
        <ele>111.1000000</ele>
        <time>2010-03-07T09:46:06Z</time>
      </trkpt>
      <trkpt lat="43.9436455" lon="8.1048841">
        <ele>112.0000000</ele>
        <time>2010-03-07T09:46:15Z</time>
      </trkpt>
      <trkpt lat="43.9438057" lon="8.1048717">
        <ele>113.1000000</ele>
        <time>2010-03-07T09:46:23Z</time>
      </trkpt>
      <trkpt lat="43.9439392" lon="8.1048527">
        <ele>114.2000000</ele>
        <time>2010-03-07T09:46:30Z</time>
      </trkpt>
      <trkpt lat="43.9441109" lon="8.1049357">
        <ele>115.7000000</ele>
        <time>2010-03-07T09:46:39Z</time>
      </trkpt>
      <trkpt lat="43.9442788" lon="8.1050244">
        <ele>117.3000000</ele>
        <time>2010-03-07T09:46:48Z</time>
      </trkpt>
      <trkpt lat="43.9444161" lon="8.1050844">
        <ele>117.8000000</ele>
        <time>2010-03-07T09:46:55Z</time>
      </trkpt>
      <trkpt lat="43.9445762" lon="8.1051474">
        <ele>118.6000000</ele>
        <time>2010-03-07T09:47:03Z</time>
      </trkpt>
      <trkpt lat="43.9447289" lon="8.1052026">
        <ele>119.7000000</ele>
        <time>2010-03-07T09:47:11Z</time>
      </trkpt>
      <trkpt lat="43.9448853" lon="8.1052570">
        <ele>120.6000000</ele>
        <time>2010-03-07T09:47:19Z</time>
      </trkpt>
      <trkpt lat="43.9450302" lon="8.1052914">
        <ele>121.9000000</ele>
        <time>2010-03-07T09:47:26Z</time>
      </trkpt>
      <trkpt lat="43.9451523" lon="8.1052895">
        <ele>122.6000000</ele>
        <time>2010-03-07T09:47:32Z</time>
      </trkpt>
      <trkpt lat="43.9453239" lon="8.1052418">
        <ele>123.2000000</ele>
        <time>2010-03-07T09:47:40Z</time>
      </trkpt>
      <trkpt lat="43.9453926" lon="8.1052856">
        <ele>123.9000000</ele>
        <time>2010-03-07T09:47:44Z</time>
      </trkpt>
      <trkpt lat="43.9453545" lon="8.1054067">
        <ele>125.0000000</ele>
        <time>2010-03-07T09:47:50Z</time>
      </trkpt>
      <trkpt lat="43.9453316" lon="8.1054134">
        <ele>125.1000000</ele>
        <time>2010-03-07T09:47:51Z</time>
      </trkpt>
      <trkpt lat="43.9451828" lon="8.1054058">
        <ele>125.9000000</ele>
        <time>2010-03-07T09:47:58Z</time>
      </trkpt>
      <trkpt lat="43.9449577" lon="8.1053877">
        <ele>126.9000000</ele>
        <time>2010-03-07T09:48:08Z</time>
      </trkpt>
      <trkpt lat="43.9447632" lon="8.1054258">
        <ele>128.1000000</ele>
        <time>2010-03-07T09:48:17Z</time>
      </trkpt>
      <trkpt lat="43.9445381" lon="8.1054792">
        <ele>129.6000000</ele>
        <time>2010-03-07T09:48:28Z</time>
      </trkpt>
      <trkpt lat="43.9445152" lon="8.1054849">
        <ele>129.8000000</ele>
        <time>2010-03-07T09:48:29Z</time>
      </trkpt>
      <trkpt lat="43.9442329" lon="8.1055441">
        <ele>132.2000000</ele>
        <time>2010-03-07T09:48:43Z</time>
      </trkpt>
      <trkpt lat="43.9439888" lon="8.1056309">
        <ele>134.1000000</ele>
        <time>2010-03-07T09:48:55Z</time>
      </trkpt>
      <trkpt lat="43.9438362" lon="8.1056986">
        <ele>134.9000000</ele>
        <time>2010-03-07T09:49:03Z</time>
      </trkpt>
      <trkpt lat="43.9436379" lon="8.1057777">
        <ele>136.5000000</ele>
        <time>2010-03-07T09:49:13Z</time>
      </trkpt>
      <trkpt lat="43.9434624" lon="8.1058082">
        <ele>137.4000000</ele>
        <time>2010-03-07T09:49:22Z</time>
      </trkpt>
      <trkpt lat="43.9433251" lon="8.1058273">
        <ele>138.9000000</ele>
        <time>2010-03-07T09:49:29Z</time>
      </trkpt>
      <trkpt lat="43.9431190" lon="8.1058369">
        <ele>140.2000000</ele>
        <time>2010-03-07T09:49:39Z</time>
      </trkpt>
      <trkpt lat="43.9429855" lon="8.1058149">
        <ele>141.0000000</ele>
        <time>2010-03-07T09:49:46Z</time>
      </trkpt>
      <trkpt lat="43.9428330" lon="8.1057835">
        <ele>141.2000000</ele>
        <time>2010-03-07T09:49:52Z</time>
      </trkpt>
      <trkpt lat="43.9427147" lon="8.1057863">
        <ele>141.8000000</ele>
        <time>2010-03-07T09:49:57Z</time>
      </trkpt>
      <trkpt lat="43.9425850" lon="8.1058846">
        <ele>142.9000000</ele>
        <time>2010-03-07T09:50:04Z</time>
      </trkpt>
      <trkpt lat="43.9425392" lon="8.1060438">
        <ele>143.7000000</ele>
        <time>2010-03-07T09:50:10Z</time>
      </trkpt>
      <trkpt lat="43.9425735" lon="8.1062212">
        <ele>144.1000000</ele>
        <time>2010-03-07T09:50:16Z</time>
      </trkpt>
      <trkpt lat="43.9426880" lon="8.1063785">
        <ele>144.8000000</ele>
        <time>2010-03-07T09:50:23Z</time>
      </trkpt>
      <trkpt lat="43.9428711" lon="8.1065359">
        <ele>144.9000000</ele>
        <time>2010-03-07T09:50:32Z</time>
      </trkpt>
      <trkpt lat="43.9430237" lon="8.1065798">
        <ele>145.4000000</ele>
        <time>2010-03-07T09:50:39Z</time>
      </trkpt>
      <trkpt lat="43.9431724" lon="8.1065283">
        <ele>145.4000000</ele>
        <time>2010-03-07T09:50:46Z</time>
      </trkpt>
      <trkpt lat="43.9433365" lon="8.1064453">
        <ele>145.5000000</ele>
        <time>2010-03-07T09:50:53Z</time>
      </trkpt>
      <trkpt lat="43.9435577" lon="8.1063490">
        <ele>146.2000000</ele>
        <time>2010-03-07T09:51:02Z</time>
      </trkpt>
      <trkpt lat="43.9437370" lon="8.1063347">
        <ele>146.4000000</ele>
        <time>2010-03-07T09:51:09Z</time>
      </trkpt>
      <trkpt lat="43.9439048" lon="8.1063556">
        <ele>147.2000000</ele>
        <time>2010-03-07T09:51:16Z</time>
      </trkpt>
      <trkpt lat="43.9440765" lon="8.1063862">
        <ele>148.2000000</ele>
        <time>2010-03-07T09:51:24Z</time>
      </trkpt>
      <trkpt lat="43.9442139" lon="8.1064310">
        <ele>149.3000000</ele>
        <time>2010-03-07T09:51:31Z</time>
      </trkpt>
      <trkpt lat="43.9444161" lon="8.1065083">
        <ele>151.0000000</ele>
        <time>2010-03-07T09:51:42Z</time>
      </trkpt>
      <trkpt lat="43.9445801" lon="8.1065789">
        <ele>152.1000000</ele>
        <time>2010-03-07T09:51:51Z</time>
      </trkpt>
      <trkpt lat="43.9446602" lon="8.1066275">
        <ele>152.5000000</ele>
        <time>2010-03-07T09:51:56Z</time>
      </trkpt>
      <trkpt lat="43.9448090" lon="8.1066961">
        <ele>154.0000000</ele>
        <time>2010-03-07T09:52:05Z</time>
      </trkpt>
      <trkpt lat="43.9449807" lon="8.1067724">
        <ele>154.9000000</ele>
        <time>2010-03-07T09:52:15Z</time>
      </trkpt>
      <trkpt lat="43.9451294" lon="8.1068229">
        <ele>155.8000000</ele>
        <time>2010-03-07T09:52:23Z</time>
      </trkpt>
      <trkpt lat="43.9453087" lon="8.1068830">
        <ele>157.3000000</ele>
        <time>2010-03-07T09:52:33Z</time>
      </trkpt>
      <trkpt lat="43.9454574" lon="8.1069298">
        <ele>158.9000000</ele>
        <time>2010-03-07T09:52:41Z</time>
      </trkpt>
      <trkpt lat="43.9456291" lon="8.1070070">
        <ele>160.1000000</ele>
        <time>2010-03-07T09:52:51Z</time>
      </trkpt>
      <trkpt lat="43.9458084" lon="8.1070671">
        <ele>161.5000000</ele>
        <time>2010-03-07T09:53:01Z</time>
      </trkpt>
      <trkpt lat="43.9459229" lon="8.1070499">
        <ele>162.1000000</ele>
        <time>2010-03-07T09:53:07Z</time>
      </trkpt>
      <trkpt lat="43.9460411" lon="8.1070032">
        <ele>163.6000000</ele>
        <time>2010-03-07T09:53:14Z</time>
      </trkpt>
      <trkpt lat="43.9461479" lon="8.1069260">
        <ele>163.7000000</ele>
        <time>2010-03-07T09:53:20Z</time>
      </trkpt>
      <trkpt lat="43.9462318" lon="8.1068364">
        <ele>165.5000000</ele>
        <time>2010-03-07T09:53:25Z</time>
      </trkpt>
      <trkpt lat="43.9463272" lon="8.1066913">
        <ele>165.4000000</ele>
        <time>2010-03-07T09:53:32Z</time>
      </trkpt>
      <trkpt lat="43.9464187" lon="8.1064778">
        <ele>166.8000000</ele>
        <time>2010-03-07T09:53:41Z</time>
      </trkpt>
      <trkpt lat="43.9465409" lon="8.1062727">
        <ele>168.1000000</ele>
        <time>2010-03-07T09:53:51Z</time>
      </trkpt>
      <trkpt lat="43.9466705" lon="8.1062326">
        <ele>168.8000000</ele>
        <time>2010-03-07T09:53:58Z</time>
      </trkpt>
      <trkpt lat="43.9468383" lon="8.1062412">
        <ele>169.3000000</ele>
        <time>2010-03-07T09:54:07Z</time>
      </trkpt>
      <trkpt lat="43.9470406" lon="8.1062460">
        <ele>171.0000000</ele>
        <time>2010-03-07T09:54:17Z</time>
      </trkpt>
      <trkpt lat="43.9472237" lon="8.1062393">
        <ele>172.2000000</ele>
        <time>2010-03-07T09:54:26Z</time>
      </trkpt>
      <trkpt lat="43.9474144" lon="8.1061744">
        <ele>172.8000000</ele>
        <time>2010-03-07T09:54:35Z</time>
      </trkpt>
      <trkpt lat="43.9474983" lon="8.1061678">
        <ele>172.1000000</ele>
        <time>2010-03-07T09:54:39Z</time>
      </trkpt>
      <trkpt lat="43.9475136" lon="8.1062546">
        <ele>173.0000000</ele>
        <time>2010-03-07T09:54:44Z</time>
      </trkpt>
      <trkpt lat="43.9474868" lon="8.1062708">
        <ele>173.4000000</ele>
        <time>2010-03-07T09:54:46Z</time>
      </trkpt>
      <trkpt lat="43.9473076" lon="8.1063184">
        <ele>174.9000000</ele>
        <time>2010-03-07T09:54:55Z</time>
      </trkpt>
      <trkpt lat="43.9470596" lon="8.1064043">
        <ele>176.2000000</ele>
        <time>2010-03-07T09:55:07Z</time>
      </trkpt>
      <trkpt lat="43.9469108" lon="8.1065407">
        <ele>177.1000000</ele>
        <time>2010-03-07T09:55:16Z</time>
      </trkpt>
      <trkpt lat="43.9468537" lon="8.1067229">
        <ele>178.1000000</ele>
        <time>2010-03-07T09:55:23Z</time>
      </trkpt>
      <trkpt lat="43.9468689" lon="8.1069603">
        <ele>179.1000000</ele>
        <time>2010-03-07T09:55:31Z</time>
      </trkpt>
      <trkpt lat="43.9469337" lon="8.1071863">
        <ele>180.2000000</ele>
        <time>2010-03-07T09:55:39Z</time>
      </trkpt>
      <trkpt lat="43.9470444" lon="8.1074590">
        <ele>181.1000000</ele>
        <time>2010-03-07T09:55:50Z</time>
      </trkpt>
      <trkpt lat="43.9471588" lon="8.1077289">
        <ele>182.7000000</ele>
        <time>2010-03-07T09:56:01Z</time>
      </trkpt>
      <trkpt lat="43.9472389" lon="8.1079206">
        <ele>183.9000000</ele>
        <time>2010-03-07T09:56:09Z</time>
      </trkpt>
      <trkpt lat="43.9473381" lon="8.1081609">
        <ele>184.9000000</ele>
        <time>2010-03-07T09:56:19Z</time>
      </trkpt>
      <trkpt lat="43.9474373" lon="8.1082258">
        <ele>185.1000000</ele>
        <time>2010-03-07T09:56:25Z</time>
      </trkpt>
      <trkpt lat="43.9475136" lon="8.1081495">
        <ele>186.4000000</ele>
        <time>2010-03-07T09:56:30Z</time>
      </trkpt>
      <trkpt lat="43.9475212" lon="8.1081247">
        <ele>186.5000000</ele>
        <time>2010-03-07T09:56:31Z</time>
      </trkpt>
      <trkpt lat="43.9474945" lon="8.1079979">
        <ele>186.8000000</ele>
        <time>2010-03-07T09:56:36Z</time>
      </trkpt>
      <trkpt lat="43.9473877" lon="8.1077995">
        <ele>187.5000000</ele>
        <time>2010-03-07T09:56:44Z</time>
      </trkpt>
      <trkpt lat="43.9473152" lon="8.1075372">
        <ele>188.5000000</ele>
        <time>2010-03-07T09:56:53Z</time>
      </trkpt>
      <trkpt lat="43.9472999" lon="8.1073351">
        <ele>189.5000000</ele>
        <time>2010-03-07T09:57:00Z</time>
      </trkpt>
      <trkpt lat="43.9473572" lon="8.1070919">
        <ele>190.8000000</ele>
        <time>2010-03-07T09:57:09Z</time>
      </trkpt>
      <trkpt lat="43.9474755" lon="8.1069517">
        <ele>191.9000000</ele>
        <time>2010-03-07T09:57:17Z</time>
      </trkpt>
      <trkpt lat="43.9476166" lon="8.1068525">
        <ele>192.9000000</ele>
        <time>2010-03-07T09:57:25Z</time>
      </trkpt>
      <trkpt lat="43.9477692" lon="8.1067839">
        <ele>194.1000000</ele>
        <time>2010-03-07T09:57:33Z</time>
      </trkpt>
      <trkpt lat="43.9479752" lon="8.1067276">
        <ele>195.5000000</ele>
        <time>2010-03-07T09:57:43Z</time>
      </trkpt>
      <trkpt lat="43.9481582" lon="8.1067142">
        <ele>196.4000000</ele>
        <time>2010-03-07T09:57:52Z</time>
      </trkpt>
      <trkpt lat="43.9483680" lon="8.1066618">
        <ele>197.6000000</ele>
        <time>2010-03-07T09:58:02Z</time>
      </trkpt>
      <trkpt lat="43.9485702" lon="8.1065607">
        <ele>198.6000000</ele>
        <time>2010-03-07T09:58:12Z</time>
      </trkpt>
      <trkpt lat="43.9487915" lon="8.1064425">
        <ele>199.8000000</ele>
        <time>2010-03-07T09:58:23Z</time>
      </trkpt>
      <trkpt lat="43.9489746" lon="8.1063709">
        <ele>200.7000000</ele>
        <time>2010-03-07T09:58:32Z</time>
      </trkpt>
      <trkpt lat="43.9491082" lon="8.1063251">
        <ele>201.4000000</ele>
        <time>2010-03-07T09:58:38Z</time>
      </trkpt>
      <trkpt lat="43.9492378" lon="8.1062250">
        <ele>202.2000000</ele>
        <time>2010-03-07T09:58:45Z</time>
      </trkpt>
      <trkpt lat="43.9493751" lon="8.1060324">
        <ele>202.9000000</ele>
        <time>2010-03-07T09:58:54Z</time>
      </trkpt>
      <trkpt lat="43.9494705" lon="8.1060247">
        <ele>203.4000000</ele>
        <time>2010-03-07T09:58:59Z</time>
      </trkpt>
      <trkpt lat="43.9494896" lon="8.1060362">
        <ele>203.6000000</ele>
        <time>2010-03-07T09:59:00Z</time>
      </trkpt>
      <trkpt lat="43.9495354" lon="8.1061916">
        <ele>204.5000000</ele>
        <time>2010-03-07T09:59:06Z</time>
      </trkpt>
      <trkpt lat="43.9494705" lon="8.1064119">
        <ele>205.4000000</ele>
        <time>2010-03-07T09:59:14Z</time>
      </trkpt>
      <trkpt lat="43.9493485" lon="8.1065121">
        <ele>206.3000000</ele>
        <time>2010-03-07T09:59:21Z</time>
      </trkpt>
      <trkpt lat="43.9491463" lon="8.1066227">
        <ele>207.6000000</ele>
        <time>2010-03-07T09:59:31Z</time>
      </trkpt>
      <trkpt lat="43.9490089" lon="8.1066933">
        <ele>208.2000000</ele>
        <time>2010-03-07T09:59:38Z</time>
      </trkpt>
      <trkpt lat="43.9488678" lon="8.1068115">
        <ele>209.3000000</ele>
        <time>2010-03-07T09:59:46Z</time>
      </trkpt>
      <trkpt lat="43.9487305" lon="8.1069698">
        <ele>209.3000000</ele>
        <time>2010-03-07T09:59:54Z</time>
      </trkpt>
      <trkpt lat="43.9486084" lon="8.1071167">
        <ele>210.5000000</ele>
        <time>2010-03-07T10:00:01Z</time>
      </trkpt>
      <trkpt lat="43.9485283" lon="8.1072473">
        <ele>211.7000000</ele>
        <time>2010-03-07T10:00:07Z</time>
      </trkpt>
      <trkpt lat="43.9484978" lon="8.1073999">
        <ele>212.8000000</ele>
        <time>2010-03-07T10:00:12Z</time>
      </trkpt>
      <trkpt lat="43.9485588" lon="8.1075725">
        <ele>214.0000000</ele>
        <time>2010-03-07T10:00:18Z</time>
      </trkpt>
      <trkpt lat="43.9486618" lon="8.1076460">
        <ele>215.2000000</ele>
        <time>2010-03-07T10:00:24Z</time>
      </trkpt>
      <trkpt lat="43.9487572" lon="8.1075830">
        <ele>215.5000000</ele>
        <time>2010-03-07T10:00:29Z</time>
      </trkpt>
      <trkpt lat="43.9488525" lon="8.1073866">
        <ele>216.6000000</ele>
        <time>2010-03-07T10:00:37Z</time>
      </trkpt>
      <trkpt lat="43.9489403" lon="8.1072750">
        <ele>217.6000000</ele>
        <time>2010-03-07T10:00:43Z</time>
      </trkpt>
      <trkpt lat="43.9490967" lon="8.1072359">
        <ele>218.8000000</ele>
        <time>2010-03-07T10:00:51Z</time>
      </trkpt>
      <trkpt lat="43.9492187" lon="8.1072197">
        <ele>220.6000000</ele>
        <time>2010-03-07T10:00:58Z</time>
      </trkpt>
      <trkpt lat="43.9492340" lon="8.1072264">
        <ele>220.8000000</ele>
        <time>2010-03-07T10:00:59Z</time>
      </trkpt>
      <trkpt lat="43.9493103" lon="8.1073828">
        <ele>221.2000000</ele>
        <time>2010-03-07T10:01:06Z</time>
      </trkpt>
      <trkpt lat="43.9493217" lon="8.1074085">
        <ele>221.2000000</ele>
        <time>2010-03-07T10:01:08Z</time>
      </trkpt>
      <trkpt lat="43.9493828" lon="8.1074372">
        <ele>223.6000000</ele>
        <time>2010-03-07T10:01:12Z</time>
      </trkpt>
      <trkpt lat="43.9494019" lon="8.1074514">
        <ele>223.3000000</ele>
        <time>2010-03-07T10:01:13Z</time>
      </trkpt>
      <trkpt lat="43.9494362" lon="8.1074886">
        <ele>222.4000000</ele>
        <time>2010-03-07T10:01:15Z</time>
      </trkpt>
      <trkpt lat="43.9494820" lon="8.1075372">
        <ele>221.8000000</ele>
        <time>2010-03-07T10:01:18Z</time>
      </trkpt>
      <trkpt lat="43.9495125" lon="8.1075516">
        <ele>221.1000000</ele>
        <time>2010-03-07T10:01:20Z</time>
      </trkpt>
      <trkpt lat="43.9495315" lon="8.1075554">
        <ele>221.6000000</ele>
        <time>2010-03-07T10:01:21Z</time>
      </trkpt>
      <trkpt lat="43.9496155" lon="8.1075621">
        <ele>222.7000000</ele>
        <time>2010-03-07T10:01:26Z</time>
      </trkpt>
      <trkpt lat="43.9497032" lon="8.1075372">
        <ele>223.6000000</ele>
        <time>2010-03-07T10:01:30Z</time>
      </trkpt>
      <trkpt lat="43.9498253" lon="8.1074819">
        <ele>224.6000000</ele>
        <time>2010-03-07T10:01:37Z</time>
      </trkpt>
      <trkpt lat="43.9499397" lon="8.1074209">
        <ele>225.8000000</ele>
        <time>2010-03-07T10:01:44Z</time>
      </trkpt>
      <trkpt lat="43.9500465" lon="8.1074677">
        <ele>226.4000000</ele>
        <time>2010-03-07T10:01:50Z</time>
      </trkpt>
      <trkpt lat="43.9501915" lon="8.1075601">
        <ele>227.4000000</ele>
        <time>2010-03-07T10:01:57Z</time>
      </trkpt>
      <trkpt lat="43.9503746" lon="8.1076631">
        <ele>228.3000000</ele>
        <time>2010-03-07T10:02:06Z</time>
      </trkpt>
      <trkpt lat="43.9504662" lon="8.1077023">
        <ele>228.5000000</ele>
        <time>2010-03-07T10:02:11Z</time>
      </trkpt>
      <trkpt lat="43.9505959" lon="8.1077919">
        <ele>228.6000000</ele>
        <time>2010-03-07T10:02:17Z</time>
      </trkpt>
      <trkpt lat="43.9506989" lon="8.1078605">
        <ele>228.7000000</ele>
        <time>2010-03-07T10:02:21Z</time>
      </trkpt>
      <trkpt lat="43.9508514" lon="8.1080380">
        <ele>229.2000000</ele>
        <time>2010-03-07T10:02:27Z</time>
      </trkpt>
      <trkpt lat="43.9509316" lon="8.1082831">
        <ele>228.6000000</ele>
        <time>2010-03-07T10:02:33Z</time>
      </trkpt>
      <trkpt lat="43.9509926" lon="8.1084842">
        <ele>228.3000000</ele>
        <time>2010-03-07T10:02:38Z</time>
      </trkpt>
      <trkpt lat="43.9510422" lon="8.1087284">
        <ele>228.3000000</ele>
        <time>2010-03-07T10:02:43Z</time>
      </trkpt>
      <trkpt lat="43.9512024" lon="8.1090011">
        <ele>228.3000000</ele>
        <time>2010-03-07T10:02:50Z</time>
      </trkpt>
      <trkpt lat="43.9513664" lon="8.1091891">
        <ele>228.7000000</ele>
        <time>2010-03-07T10:02:56Z</time>
      </trkpt>
      <trkpt lat="43.9515381" lon="8.1092968">
        <ele>229.5000000</ele>
        <time>2010-03-07T10:03:03Z</time>
      </trkpt>
      <trkpt lat="43.9516296" lon="8.1093521">
        <ele>230.2000000</ele>
        <time>2010-03-07T10:03:08Z</time>
      </trkpt>
      <trkpt lat="43.9517441" lon="8.1094989">
        <ele>229.6000000</ele>
        <time>2010-03-07T10:03:14Z</time>
      </trkpt>
      <trkpt lat="43.9518853" lon="8.1097736">
        <ele>229.3000000</ele>
        <time>2010-03-07T10:03:22Z</time>
      </trkpt>
      <trkpt lat="43.9519768" lon="8.1100378">
        <ele>229.6000000</ele>
        <time>2010-03-07T10:03:29Z</time>
      </trkpt>
      <trkpt lat="43.9519692" lon="8.1102361">
        <ele>230.9000000</ele>
        <time>2010-03-07T10:03:35Z</time>
      </trkpt>
      <trkpt lat="43.9518967" lon="8.1103134">
        <ele>232.2000000</ele>
        <time>2010-03-07T10:03:40Z</time>
      </trkpt>
      <trkpt lat="43.9517822" lon="8.1104126">
        <ele>233.4000000</ele>
        <time>2010-03-07T10:03:48Z</time>
      </trkpt>
      <trkpt lat="43.9516296" lon="8.1104946">
        <ele>234.3000000</ele>
        <time>2010-03-07T10:03:57Z</time>
      </trkpt>
      <trkpt lat="43.9515037" lon="8.1105690">
        <ele>234.9000000</ele>
        <time>2010-03-07T10:04:04Z</time>
      </trkpt>
      <trkpt lat="43.9513359" lon="8.1106319">
        <ele>237.2000000</ele>
        <time>2010-03-07T10:04:12Z</time>
      </trkpt>
      <trkpt lat="43.9511834" lon="8.1107826">
        <ele>237.9000000</ele>
        <time>2010-03-07T10:04:20Z</time>
      </trkpt>
      <trkpt lat="43.9510917" lon="8.1110048">
        <ele>238.2000000</ele>
        <time>2010-03-07T10:04:27Z</time>
      </trkpt>
      <trkpt lat="43.9510994" lon="8.1111975">
        <ele>238.4000000</ele>
        <time>2010-03-07T10:04:32Z</time>
      </trkpt>
      <trkpt lat="43.9510689" lon="8.1114159">
        <ele>238.8000000</ele>
        <time>2010-03-07T10:04:39Z</time>
      </trkpt>
      <trkpt lat="43.9509430" lon="8.1116772">
        <ele>239.5000000</ele>
        <time>2010-03-07T10:04:48Z</time>
      </trkpt>
      <trkpt lat="43.9508934" lon="8.1119299">
        <ele>239.1000000</ele>
        <time>2010-03-07T10:04:55Z</time>
      </trkpt>
      <trkpt lat="43.9509392" lon="8.1121693">
        <ele>238.1000000</ele>
        <time>2010-03-07T10:05:00Z</time>
      </trkpt>
      <trkpt lat="43.9510765" lon="8.1125106">
        <ele>237.6000000</ele>
        <time>2010-03-07T10:05:08Z</time>
      </trkpt>
      <trkpt lat="43.9511986" lon="8.1127176">
        <ele>238.2000000</ele>
        <time>2010-03-07T10:05:15Z</time>
      </trkpt>
      <trkpt lat="43.9512825" lon="8.1128463">
        <ele>239.6000000</ele>
        <time>2010-03-07T10:05:21Z</time>
      </trkpt>
      <trkpt lat="43.9513893" lon="8.1129217">
        <ele>240.7000000</ele>
        <time>2010-03-07T10:05:27Z</time>
      </trkpt>
      <trkpt lat="43.9514961" lon="8.1129933">
        <ele>242.2000000</ele>
        <time>2010-03-07T10:05:34Z</time>
      </trkpt>
      <trkpt lat="43.9515915" lon="8.1130924">
        <ele>243.1000000</ele>
        <time>2010-03-07T10:05:41Z</time>
      </trkpt>
      <trkpt lat="43.9515801" lon="8.1132288">
        <ele>244.2000000</ele>
        <time>2010-03-07T10:05:47Z</time>
      </trkpt>
      <trkpt lat="43.9515381" lon="8.1133938">
        <ele>245.1000000</ele>
        <time>2010-03-07T10:05:54Z</time>
      </trkpt>
      <trkpt lat="43.9514847" lon="8.1135950">
        <ele>246.0000000</ele>
        <time>2010-03-07T10:06:02Z</time>
      </trkpt>
      <trkpt lat="43.9514771" lon="8.1137523">
        <ele>246.9000000</ele>
        <time>2010-03-07T10:06:09Z</time>
      </trkpt>
      <trkpt lat="43.9515457" lon="8.1139374">
        <ele>248.2000000</ele>
        <time>2010-03-07T10:06:17Z</time>
      </trkpt>
      <trkpt lat="43.9516945" lon="8.1141377">
        <ele>250.0000000</ele>
        <time>2010-03-07T10:06:27Z</time>
      </trkpt>
      <trkpt lat="43.9517899" lon="8.1142769">
        <ele>250.4000000</ele>
        <time>2010-03-07T10:06:34Z</time>
      </trkpt>
      <trkpt lat="43.9518890" lon="8.1144457">
        <ele>251.4000000</ele>
        <time>2010-03-07T10:06:42Z</time>
      </trkpt>
      <trkpt lat="43.9519882" lon="8.1146117">
        <ele>252.2000000</ele>
        <time>2010-03-07T10:06:50Z</time>
      </trkpt>
      <trkpt lat="43.9520912" lon="8.1147651">
        <ele>253.3000000</ele>
        <time>2010-03-07T10:06:58Z</time>
      </trkpt>
      <trkpt lat="43.9521522" lon="8.1148567">
        <ele>253.9000000</ele>
        <time>2010-03-07T10:07:03Z</time>
      </trkpt>
      <trkpt lat="43.9522781" lon="8.1149788">
        <ele>255.0000000</ele>
        <time>2010-03-07T10:07:11Z</time>
      </trkpt>
      <trkpt lat="43.9524650" lon="8.1151485">
        <ele>255.6000000</ele>
        <time>2010-03-07T10:07:21Z</time>
      </trkpt>
      <trkpt lat="43.9525986" lon="8.1153193">
        <ele>256.1000000</ele>
        <time>2010-03-07T10:07:29Z</time>
      </trkpt>
      <trkpt lat="43.9527473" lon="8.1155262">
        <ele>257.2000000</ele>
        <time>2010-03-07T10:07:39Z</time>
      </trkpt>
      <trkpt lat="43.9528427" lon="8.1156798">
        <ele>258.0000000</ele>
        <time>2010-03-07T10:07:46Z</time>
      </trkpt>
      <trkpt lat="43.9528695" lon="8.1159668">
        <ele>258.0000000</ele>
        <time>2010-03-07T10:07:54Z</time>
      </trkpt>
      <trkpt lat="43.9528580" lon="8.1161308">
        <ele>258.1000000</ele>
        <time>2010-03-07T10:07:59Z</time>
      </trkpt>
      <trkpt lat="43.9529457" lon="8.1163301">
        <ele>258.5000000</ele>
        <time>2010-03-07T10:08:06Z</time>
      </trkpt>
      <trkpt lat="43.9530487" lon="8.1165294">
        <ele>258.8000000</ele>
        <time>2010-03-07T10:08:13Z</time>
      </trkpt>
      <trkpt lat="43.9531098" lon="8.1167812">
        <ele>259.0000000</ele>
        <time>2010-03-07T10:08:21Z</time>
      </trkpt>
      <trkpt lat="43.9531440" lon="8.1169729">
        <ele>259.5000000</ele>
        <time>2010-03-07T10:08:28Z</time>
      </trkpt>
      <trkpt lat="43.9531135" lon="8.1171398">
        <ele>259.5000000</ele>
        <time>2010-03-07T10:08:33Z</time>
      </trkpt>
      <trkpt lat="43.9530105" lon="8.1172171">
        <ele>259.6000000</ele>
        <time>2010-03-07T10:08:38Z</time>
      </trkpt>
      <trkpt lat="43.9529305" lon="8.1173048">
        <ele>260.2000000</ele>
        <time>2010-03-07T10:08:43Z</time>
      </trkpt>
      <trkpt lat="43.9528503" lon="8.1174535">
        <ele>260.5000000</ele>
        <time>2010-03-07T10:08:49Z</time>
      </trkpt>
      <trkpt lat="43.9528542" lon="8.1176510">
        <ele>260.6000000</ele>
        <time>2010-03-07T10:08:55Z</time>
      </trkpt>
      <trkpt lat="43.9529381" lon="8.1179991">
        <ele>260.5000000</ele>
        <time>2010-03-07T10:09:05Z</time>
      </trkpt>
      <trkpt lat="43.9529190" lon="8.1182985">
        <ele>260.8000000</ele>
        <time>2010-03-07T10:09:14Z</time>
      </trkpt>
      <trkpt lat="43.9529037" lon="8.1184540">
        <ele>262.7000000</ele>
        <time>2010-03-07T10:09:20Z</time>
      </trkpt>
      <trkpt lat="43.9528503" lon="8.1186037">
        <ele>263.8000000</ele>
        <time>2010-03-07T10:09:26Z</time>
      </trkpt>
      <trkpt lat="43.9527626" lon="8.1187668">
        <ele>264.9000000</ele>
        <time>2010-03-07T10:09:34Z</time>
      </trkpt>
      <trkpt lat="43.9526482" lon="8.1189451">
        <ele>265.1000000</ele>
        <time>2010-03-07T10:09:43Z</time>
      </trkpt>
      <trkpt lat="43.9525566" lon="8.1190672">
        <ele>265.2000000</ele>
        <time>2010-03-07T10:09:50Z</time>
      </trkpt>
      <trkpt lat="43.9524613" lon="8.1190843">
        <ele>264.9000000</ele>
        <time>2010-03-07T10:09:56Z</time>
      </trkpt>
      <trkpt lat="43.9523125" lon="8.1190634">
        <ele>265.3000000</ele>
        <time>2010-03-07T10:10:03Z</time>
      </trkpt>
      <trkpt lat="43.9521675" lon="8.1190681">
        <ele>266.6000000</ele>
        <time>2010-03-07T10:10:10Z</time>
      </trkpt>
      <trkpt lat="43.9520493" lon="8.1190738">
        <ele>267.6000000</ele>
        <time>2010-03-07T10:10:18Z</time>
      </trkpt>
      <trkpt lat="43.9519386" lon="8.1191263">
        <ele>268.8000000</ele>
        <time>2010-03-07T10:10:26Z</time>
      </trkpt>
      <trkpt lat="43.9518661" lon="8.1192350">
        <ele>270.2000000</ele>
        <time>2010-03-07T10:10:33Z</time>
      </trkpt>
      <trkpt lat="43.9517936" lon="8.1193533">
        <ele>271.7000000</ele>
        <time>2010-03-07T10:10:40Z</time>
      </trkpt>
      <trkpt lat="43.9517174" lon="8.1194620">
        <ele>272.8000000</ele>
        <time>2010-03-07T10:10:47Z</time>
      </trkpt>
      <trkpt lat="43.9516182" lon="8.1195574">
        <ele>274.4000000</ele>
        <time>2010-03-07T10:10:55Z</time>
      </trkpt>
      <trkpt lat="43.9514885" lon="8.1196012">
        <ele>275.6000000</ele>
        <time>2010-03-07T10:11:03Z</time>
      </trkpt>
      <trkpt lat="43.9513932" lon="8.1196633">
        <ele>276.2000000</ele>
        <time>2010-03-07T10:11:09Z</time>
      </trkpt>
      <trkpt lat="43.9512901" lon="8.1198215">
        <ele>277.1000000</ele>
        <time>2010-03-07T10:11:18Z</time>
      </trkpt>
      <trkpt lat="43.9512367" lon="8.1199408">
        <ele>278.4000000</ele>
        <time>2010-03-07T10:11:25Z</time>
      </trkpt>
      <trkpt lat="43.9511681" lon="8.1200772">
        <ele>279.6000000</ele>
        <time>2010-03-07T10:11:33Z</time>
      </trkpt>
      <trkpt lat="43.9511299" lon="8.1201391">
        <ele>279.7000000</ele>
        <time>2010-03-07T10:11:37Z</time>
      </trkpt>
      <trkpt lat="43.9510041" lon="8.1202077">
        <ele>280.4000000</ele>
        <time>2010-03-07T10:11:45Z</time>
      </trkpt>
      <trkpt lat="43.9509087" lon="8.1202040">
        <ele>280.9000000</ele>
        <time>2010-03-07T10:11:51Z</time>
      </trkpt>
      <trkpt lat="43.9507866" lon="8.1201801">
        <ele>281.0000000</ele>
        <time>2010-03-07T10:11:57Z</time>
      </trkpt>
      <trkpt lat="43.9507370" lon="8.1201696">
        <ele>281.3000000</ele>
        <time>2010-03-07T10:12:00Z</time>
      </trkpt>
      <trkpt lat="43.9506607" lon="8.1200819">
        <ele>281.6000000</ele>
        <time>2010-03-07T10:12:07Z</time>
      </trkpt>
      <trkpt lat="43.9506416" lon="8.1200667">
        <ele>281.6000000</ele>
        <time>2010-03-07T10:12:08Z</time>
      </trkpt>
      <trkpt lat="43.9505157" lon="8.1199389">
        <ele>282.0000000</ele>
        <time>2010-03-07T10:12:16Z</time>
      </trkpt>
      <trkpt lat="43.9503479" lon="8.1198654">
        <ele>282.3000000</ele>
        <time>2010-03-07T10:12:23Z</time>
      </trkpt>
      <trkpt lat="43.9501724" lon="8.1197348">
        <ele>282.4000000</ele>
        <time>2010-03-07T10:12:30Z</time>
      </trkpt>
      <trkpt lat="43.9500084" lon="8.1196337">
        <ele>283.1000000</ele>
        <time>2010-03-07T10:12:37Z</time>
      </trkpt>
      <trkpt lat="43.9498558" lon="8.1196842">
        <ele>285.2000000</ele>
        <time>2010-03-07T10:12:44Z</time>
      </trkpt>
      <trkpt lat="43.9497566" lon="8.1198511">
        <ele>285.5000000</ele>
        <time>2010-03-07T10:12:51Z</time>
      </trkpt>
      <trkpt lat="43.9496651" lon="8.1200437">
        <ele>285.7000000</ele>
        <time>2010-03-07T10:12:58Z</time>
      </trkpt>
      <trkpt lat="43.9495926" lon="8.1201992">
        <ele>286.5000000</ele>
        <time>2010-03-07T10:13:04Z</time>
      </trkpt>
      <trkpt lat="43.9494820" lon="8.1203680">
        <ele>288.2000000</ele>
        <time>2010-03-07T10:13:12Z</time>
      </trkpt>
      <trkpt lat="43.9493141" lon="8.1205330">
        <ele>288.1000000</ele>
        <time>2010-03-07T10:13:21Z</time>
      </trkpt>
      <trkpt lat="43.9491539" lon="8.1206169">
        <ele>287.9000000</ele>
        <time>2010-03-07T10:13:28Z</time>
      </trkpt>
      <trkpt lat="43.9489670" lon="8.1206436">
        <ele>287.9000000</ele>
        <time>2010-03-07T10:13:35Z</time>
      </trkpt>
      <trkpt lat="43.9486847" lon="8.1206856">
        <ele>286.9000000</ele>
        <time>2010-03-07T10:13:44Z</time>
      </trkpt>
      <trkpt lat="43.9484978" lon="8.1206608">
        <ele>286.7000000</ele>
        <time>2010-03-07T10:13:50Z</time>
      </trkpt>
      <trkpt lat="43.9484291" lon="8.1205511">
        <ele>287.1000000</ele>
        <time>2010-03-07T10:13:55Z</time>
      </trkpt>
      <trkpt lat="43.9483452" lon="8.1204271">
        <ele>287.8000000</ele>
        <time>2010-03-07T10:14:01Z</time>
      </trkpt>
      <trkpt lat="43.9482193" lon="8.1202860">
        <ele>288.3000000</ele>
        <time>2010-03-07T10:14:08Z</time>
      </trkpt>
      <trkpt lat="43.9481201" lon="8.1201325">
        <ele>288.4000000</ele>
        <time>2010-03-07T10:14:14Z</time>
      </trkpt>
      <trkpt lat="43.9480171" lon="8.1199923">
        <ele>288.8000000</ele>
        <time>2010-03-07T10:14:20Z</time>
      </trkpt>
      <trkpt lat="43.9479370" lon="8.1198731">
        <ele>289.5000000</ele>
        <time>2010-03-07T10:14:26Z</time>
      </trkpt>
      <trkpt lat="43.9478607" lon="8.1197834">
        <ele>291.7000000</ele>
        <time>2010-03-07T10:14:33Z</time>
      </trkpt>
      <trkpt lat="43.9477692" lon="8.1197138">
        <ele>293.6000000</ele>
        <time>2010-03-07T10:14:39Z</time>
      </trkpt>
      <trkpt lat="43.9476204" lon="8.1196737">
        <ele>294.9000000</ele>
        <time>2010-03-07T10:14:47Z</time>
      </trkpt>
      <trkpt lat="43.9475060" lon="8.1196337">
        <ele>296.7000000</ele>
        <time>2010-03-07T10:14:54Z</time>
      </trkpt>
      <trkpt lat="43.9473839" lon="8.1196346">
        <ele>297.9000000</ele>
        <time>2010-03-07T10:15:02Z</time>
      </trkpt>
      <trkpt lat="43.9472923" lon="8.1197615">
        <ele>298.5000000</ele>
        <time>2010-03-07T10:15:10Z</time>
      </trkpt>
      <trkpt lat="43.9472008" lon="8.1199866">
        <ele>299.2000000</ele>
        <time>2010-03-07T10:15:19Z</time>
      </trkpt>
      <trkpt lat="43.9471245" lon="8.1201916">
        <ele>300.1000000</ele>
        <time>2010-03-07T10:15:27Z</time>
      </trkpt>
      <trkpt lat="43.9470940" lon="8.1203079">
        <ele>300.7000000</ele>
        <time>2010-03-07T10:15:32Z</time>
      </trkpt>
      <trkpt lat="43.9470100" lon="8.1204310">
        <ele>301.5000000</ele>
        <time>2010-03-07T10:15:39Z</time>
      </trkpt>
      <trkpt lat="43.9469642" lon="8.1205168">
        <ele>302.4000000</ele>
        <time>2010-03-07T10:15:45Z</time>
      </trkpt>
      <trkpt lat="43.9469261" lon="8.1205778">
        <ele>303.1000000</ele>
        <time>2010-03-07T10:15:50Z</time>
      </trkpt>
      <trkpt lat="43.9468537" lon="8.1206980">
        <ele>304.2000000</ele>
        <time>2010-03-07T10:15:57Z</time>
      </trkpt>
      <trkpt lat="43.9467773" lon="8.1208944">
        <ele>305.2000000</ele>
        <time>2010-03-07T10:16:06Z</time>
      </trkpt>
      <trkpt lat="43.9467125" lon="8.1210527">
        <ele>305.3000000</ele>
        <time>2010-03-07T10:16:13Z</time>
      </trkpt>
      <trkpt lat="43.9466553" lon="8.1212359">
        <ele>305.3000000</ele>
        <time>2010-03-07T10:16:20Z</time>
      </trkpt>
      <trkpt lat="43.9466362" lon="8.1213026">
        <ele>305.4000000</ele>
        <time>2010-03-07T10:16:25Z</time>
      </trkpt>
      <trkpt lat="43.9466553" lon="8.1213446">
        <ele>306.5000000</ele>
        <time>2010-03-07T10:16:32Z</time>
      </trkpt>
      <trkpt lat="43.9466591" lon="8.1213484">
        <ele>306.7000000</ele>
        <time>2010-03-07T10:16:34Z</time>
      </trkpt>
      <trkpt lat="43.9466858" lon="8.1213579">
        <ele>307.9000000</ele>
        <time>2010-03-07T10:16:42Z</time>
      </trkpt>
      <trkpt lat="43.9467125" lon="8.1213941">
        <ele>309.3000000</ele>
        <time>2010-03-07T10:16:49Z</time>
      </trkpt>
      <trkpt lat="43.9467468" lon="8.1214466">
        <ele>310.5000000</ele>
        <time>2010-03-07T10:16:55Z</time>
      </trkpt>
      <trkpt lat="43.9467544" lon="8.1215267">
        <ele>310.8000000</ele>
        <time>2010-03-07T10:17:03Z</time>
      </trkpt>
      <trkpt lat="43.9467544" lon="8.1215906">
        <ele>311.3000000</ele>
        <time>2010-03-07T10:17:09Z</time>
      </trkpt>
      <trkpt lat="43.9467544" lon="8.1216622">
        <ele>312.8000000</ele>
        <time>2010-03-07T10:17:17Z</time>
      </trkpt>
      <trkpt lat="43.9467583" lon="8.1216927">
        <ele>313.4000000</ele>
        <time>2010-03-07T10:17:21Z</time>
      </trkpt>
      <trkpt lat="43.9467430" lon="8.1217585">
        <ele>313.9000000</ele>
        <time>2010-03-07T10:17:27Z</time>
      </trkpt>
      <trkpt lat="43.9467583" lon="8.1218156">
        <ele>314.1000000</ele>
        <time>2010-03-07T10:17:31Z</time>
      </trkpt>
      <trkpt lat="43.9467659" lon="8.1218834">
        <ele>314.7000000</ele>
        <time>2010-03-07T10:17:35Z</time>
      </trkpt>
      <trkpt lat="43.9467659" lon="8.1219721">
        <ele>316.0000000</ele>
        <time>2010-03-07T10:17:43Z</time>
      </trkpt>
      <trkpt lat="43.9467621" lon="8.1220484">
        <ele>316.1000000</ele>
        <time>2010-03-07T10:17:47Z</time>
      </trkpt>
      <trkpt lat="43.9467544" lon="8.1221342">
        <ele>316.5000000</ele>
        <time>2010-03-07T10:17:51Z</time>
      </trkpt>
      <trkpt lat="43.9467202" lon="8.1222944">
        <ele>317.3000000</ele>
        <time>2010-03-07T10:17:58Z</time>
      </trkpt>
      <trkpt lat="43.9466591" lon="8.1224327">
        <ele>316.9000000</ele>
        <time>2010-03-07T10:18:04Z</time>
      </trkpt>
      <trkpt lat="43.9466057" lon="8.1225500">
        <ele>316.9000000</ele>
        <time>2010-03-07T10:18:08Z</time>
      </trkpt>
      <trkpt lat="43.9465370" lon="8.1227207">
        <ele>317.4000000</ele>
        <time>2010-03-07T10:18:14Z</time>
      </trkpt>
      <trkpt lat="43.9464684" lon="8.1228791">
        <ele>318.3000000</ele>
        <time>2010-03-07T10:18:20Z</time>
      </trkpt>
      <trkpt lat="43.9463348" lon="8.1230278">
        <ele>318.5000000</ele>
        <time>2010-03-07T10:18:27Z</time>
      </trkpt>
      <trkpt lat="43.9461517" lon="8.1231107">
        <ele>318.2000000</ele>
        <time>2010-03-07T10:18:34Z</time>
      </trkpt>
      <trkpt lat="43.9459572" lon="8.1230917">
        <ele>318.2000000</ele>
        <time>2010-03-07T10:18:41Z</time>
      </trkpt>
      <trkpt lat="43.9457970" lon="8.1230116">
        <ele>317.9000000</ele>
        <time>2010-03-07T10:18:46Z</time>
      </trkpt>
      <trkpt lat="43.9456367" lon="8.1229238">
        <ele>317.7000000</ele>
        <time>2010-03-07T10:18:51Z</time>
      </trkpt>
      <trkpt lat="43.9454498" lon="8.1229334">
        <ele>318.0000000</ele>
        <time>2010-03-07T10:18:56Z</time>
      </trkpt>
      <trkpt lat="43.9452781" lon="8.1229706">
        <ele>318.4000000</ele>
        <time>2010-03-07T10:19:01Z</time>
      </trkpt>
      <trkpt lat="43.9451103" lon="8.1229582">
        <ele>318.3000000</ele>
        <time>2010-03-07T10:19:06Z</time>
      </trkpt>
      <trkpt lat="43.9448967" lon="8.1228113">
        <ele>317.7000000</ele>
        <time>2010-03-07T10:19:13Z</time>
      </trkpt>
      <trkpt lat="43.9447860" lon="8.1226663">
        <ele>317.1000000</ele>
        <time>2010-03-07T10:19:18Z</time>
      </trkpt>
      <trkpt lat="43.9447594" lon="8.1226415">
        <ele>317.2000000</ele>
        <time>2010-03-07T10:19:19Z</time>
      </trkpt>
      <trkpt lat="43.9446106" lon="8.1225767">
        <ele>317.4000000</ele>
        <time>2010-03-07T10:19:25Z</time>
      </trkpt>
      <trkpt lat="43.9444618" lon="8.1224766">
        <ele>318.2000000</ele>
        <time>2010-03-07T10:19:31Z</time>
      </trkpt>
      <trkpt lat="43.9443550" lon="8.1222916">
        <ele>318.8000000</ele>
        <time>2010-03-07T10:19:37Z</time>
      </trkpt>
      <trkpt lat="43.9442749" lon="8.1220722">
        <ele>320.8000000</ele>
        <time>2010-03-07T10:19:45Z</time>
      </trkpt>
      <trkpt lat="43.9442444" lon="8.1219244">
        <ele>322.8000000</ele>
        <time>2010-03-07T10:19:52Z</time>
      </trkpt>
      <trkpt lat="43.9442177" lon="8.1217603">
        <ele>324.1000000</ele>
        <time>2010-03-07T10:19:59Z</time>
      </trkpt>
      <trkpt lat="43.9442100" lon="8.1217337">
        <ele>324.3000000</ele>
        <time>2010-03-07T10:20:00Z</time>
      </trkpt>
      <trkpt lat="43.9440995" lon="8.1216049">
        <ele>325.3000000</ele>
        <time>2010-03-07T10:20:07Z</time>
      </trkpt>
      <trkpt lat="43.9439277" lon="8.1215391">
        <ele>326.0000000</ele>
        <time>2010-03-07T10:20:15Z</time>
      </trkpt>
      <trkpt lat="43.9437637" lon="8.1215611">
        <ele>327.6000000</ele>
        <time>2010-03-07T10:20:23Z</time>
      </trkpt>
      <trkpt lat="43.9436531" lon="8.1216392">
        <ele>328.6000000</ele>
        <time>2010-03-07T10:20:30Z</time>
      </trkpt>
      <trkpt lat="43.9435615" lon="8.1217346">
        <ele>329.3000000</ele>
        <time>2010-03-07T10:20:36Z</time>
      </trkpt>
      <trkpt lat="43.9434738" lon="8.1218090">
        <ele>330.5000000</ele>
        <time>2010-03-07T10:20:42Z</time>
      </trkpt>
      <trkpt lat="43.9433670" lon="8.1218291">
        <ele>332.3000000</ele>
        <time>2010-03-07T10:20:49Z</time>
      </trkpt>
      <trkpt lat="43.9432640" lon="8.1218452">
        <ele>334.2000000</ele>
        <time>2010-03-07T10:20:56Z</time>
      </trkpt>
      <trkpt lat="43.9432526" lon="8.1218615">
        <ele>334.3000000</ele>
        <time>2010-03-07T10:20:57Z</time>
      </trkpt>
      <trkpt lat="43.9432754" lon="8.1219740">
        <ele>335.1000000</ele>
        <time>2010-03-07T10:21:03Z</time>
      </trkpt>
      <trkpt lat="43.9433556" lon="8.1219997">
        <ele>336.2000000</ele>
        <time>2010-03-07T10:21:08Z</time>
      </trkpt>
      <trkpt lat="43.9433899" lon="8.1220083">
        <ele>336.4000000</ele>
        <time>2010-03-07T10:21:10Z</time>
      </trkpt>
      <trkpt lat="43.9435425" lon="8.1220083">
        <ele>336.7000000</ele>
        <time>2010-03-07T10:21:17Z</time>
      </trkpt>
      <trkpt lat="43.9437332" lon="8.1220102">
        <ele>337.1000000</ele>
        <time>2010-03-07T10:21:25Z</time>
      </trkpt>
      <trkpt lat="43.9438209" lon="8.1220570">
        <ele>337.6000000</ele>
        <time>2010-03-07T10:21:29Z</time>
      </trkpt>
      <trkpt lat="43.9438438" lon="8.1221504">
        <ele>338.5000000</ele>
        <time>2010-03-07T10:21:33Z</time>
      </trkpt>
      <trkpt lat="43.9438324" lon="8.1222582">
        <ele>339.7000000</ele>
        <time>2010-03-07T10:21:38Z</time>
      </trkpt>
      <trkpt lat="43.9437256" lon="8.1222992">
        <ele>341.5000000</ele>
        <time>2010-03-07T10:21:46Z</time>
      </trkpt>
      <trkpt lat="43.9436188" lon="8.1222868">
        <ele>343.4000000</ele>
        <time>2010-03-07T10:21:53Z</time>
      </trkpt>
      <trkpt lat="43.9435196" lon="8.1223106">
        <ele>343.9000000</ele>
        <time>2010-03-07T10:22:00Z</time>
      </trkpt>
      <trkpt lat="43.9433746" lon="8.1223678">
        <ele>345.5000000</ele>
        <time>2010-03-07T10:22:10Z</time>
      </trkpt>
      <trkpt lat="43.9432373" lon="8.1224423">
        <ele>347.8000000</ele>
        <time>2010-03-07T10:22:21Z</time>
      </trkpt>
      <trkpt lat="43.9432106" lon="8.1224480">
        <ele>348.1000000</ele>
        <time>2010-03-07T10:22:23Z</time>
      </trkpt>
      <trkpt lat="43.9432106" lon="8.1225271">
        <ele>348.9000000</ele>
        <time>2010-03-07T10:22:29Z</time>
      </trkpt>
      <trkpt lat="43.9432297" lon="8.1225347">
        <ele>348.8000000</ele>
        <time>2010-03-07T10:22:31Z</time>
      </trkpt>
      <trkpt lat="43.9433136" lon="8.1225787">
        <ele>348.4000000</ele>
        <time>2010-03-07T10:22:38Z</time>
      </trkpt>
      <trkpt lat="43.9433174" lon="8.1225853">
        <ele>347.8000000</ele>
        <time>2010-03-07T10:22:58Z</time>
      </trkpt>
      <trkpt lat="43.9433174" lon="8.1225833">
        <ele>347.8000000</ele>
        <time>2010-03-07T10:23:01Z</time>
      </trkpt>
      <trkpt lat="43.9433174" lon="8.1225833">
        <ele>347.9000000</ele>
        <time>2010-03-07T10:23:02Z</time>
      </trkpt>
      <trkpt lat="43.9433212" lon="8.1225787">
        <ele>348.2000000</ele>
        <time>2010-03-07T10:23:15Z</time>
      </trkpt>
      <trkpt lat="43.9433288" lon="8.1225710">
        <ele>347.8000000</ele>
        <time>2010-03-07T10:23:29Z</time>
      </trkpt>
      <trkpt lat="43.9433327" lon="8.1225510">
        <ele>347.5000000</ele>
        <time>2010-03-07T10:24:42Z</time>
      </trkpt>
      <trkpt lat="43.9433288" lon="8.1225548">
        <ele>347.3000000</ele>
        <time>2010-03-07T10:24:54Z</time>
      </trkpt>
      <trkpt lat="43.9433288" lon="8.1225558">
        <ele>347.4000000</ele>
        <time>2010-03-07T10:24:56Z</time>
      </trkpt>
      <trkpt lat="43.9433288" lon="8.1225558">
        <ele>347.3000000</ele>
        <time>2010-03-07T10:24:59Z</time>
      </trkpt>
      <trkpt lat="43.9433288" lon="8.1225567">
        <ele>347.7000000</ele>
        <time>2010-03-07T10:25:15Z</time>
      </trkpt>
      <trkpt lat="43.9433288" lon="8.1225558">
        <ele>347.6000000</ele>
        <time>2010-03-07T10:25:20Z</time>
      </trkpt>
      <trkpt lat="43.9433365" lon="8.1225443">
        <ele>347.5000000</ele>
        <time>2010-03-07T10:25:43Z</time>
      </trkpt>
      <trkpt lat="43.9433365" lon="8.1225367">
        <ele>347.2000000</ele>
        <time>2010-03-07T10:25:52Z</time>
      </trkpt>
      <trkpt lat="43.9433403" lon="8.1225347">
        <ele>347.1000000</ele>
        <time>2010-03-07T10:25:56Z</time>
      </trkpt>
      <trkpt lat="43.9433441" lon="8.1225290">
        <ele>347.4000000</ele>
        <time>2010-03-07T10:26:05Z</time>
      </trkpt>
      <trkpt lat="43.9433441" lon="8.1225281">
        <ele>347.4000000</ele>
        <time>2010-03-07T10:26:06Z</time>
      </trkpt>
      <trkpt lat="43.9433441" lon="8.1225281">
        <ele>347.4000000</ele>
        <time>2010-03-07T10:26:07Z</time>
      </trkpt>
      <trkpt lat="43.9433441" lon="8.1225271">
        <ele>347.2000000</ele>
        <time>2010-03-07T10:26:10Z</time>
      </trkpt>
      <trkpt lat="43.9433441" lon="8.1225243">
        <ele>347.0000000</ele>
        <time>2010-03-07T10:26:17Z</time>
      </trkpt>
      <trkpt lat="43.9433479" lon="8.1225214">
        <ele>347.2000000</ele>
        <time>2010-03-07T10:26:29Z</time>
      </trkpt>
      <trkpt lat="43.9433517" lon="8.1225176">
        <ele>347.5000000</ele>
        <time>2010-03-07T10:26:43Z</time>
      </trkpt>
      <trkpt lat="43.9433517" lon="8.1225205">
        <ele>347.6000000</ele>
        <time>2010-03-07T10:26:45Z</time>
      </trkpt>
      <trkpt lat="43.9433479" lon="8.1225452">
        <ele>347.4000000</ele>
        <time>2010-03-07T10:26:47Z</time>
      </trkpt>
      <trkpt lat="43.9433365" lon="8.1225939">
        <ele>348.2000000</ele>
        <time>2010-03-07T10:26:52Z</time>
      </trkpt>
      <trkpt lat="43.9433251" lon="8.1226005">
        <ele>348.6000000</ele>
        <time>2010-03-07T10:26:56Z</time>
      </trkpt>
      <trkpt lat="43.9433136" lon="8.1226196">
        <ele>348.4000000</ele>
        <time>2010-03-07T10:26:59Z</time>
      </trkpt>
      <trkpt lat="43.9433136" lon="8.1226310">
        <ele>348.8000000</ele>
        <time>2010-03-07T10:27:01Z</time>
      </trkpt>
      <trkpt lat="43.9432907" lon="8.1226606">
        <ele>348.7000000</ele>
        <time>2010-03-07T10:27:07Z</time>
      </trkpt>
      <trkpt lat="43.9432869" lon="8.1226616">
        <ele>348.2000000</ele>
        <time>2010-03-07T10:27:23Z</time>
      </trkpt>
      <trkpt lat="43.9432831" lon="8.1226645">
        <ele>348.7000000</ele>
        <time>2010-03-07T10:27:25Z</time>
      </trkpt>
      <trkpt lat="43.9432793" lon="8.1226654">
        <ele>348.7000000</ele>
        <time>2010-03-07T10:27:26Z</time>
      </trkpt>
      <trkpt lat="43.9432754" lon="8.1226663">
        <ele>348.4000000</ele>
        <time>2010-03-07T10:27:41Z</time>
      </trkpt>
      <trkpt lat="43.9432717" lon="8.1226654">
        <ele>348.4000000</ele>
        <time>2010-03-07T10:27:47Z</time>
      </trkpt>
      <trkpt lat="43.9432678" lon="8.1226645">
        <ele>348.1000000</ele>
        <time>2010-03-07T10:27:56Z</time>
      </trkpt>
      <trkpt lat="43.9432602" lon="8.1226663">
        <ele>348.0000000</ele>
        <time>2010-03-07T10:28:17Z</time>
      </trkpt>
      <trkpt lat="43.9432564" lon="8.1226692">
        <ele>348.1000000</ele>
        <time>2010-03-07T10:28:31Z</time>
      </trkpt>
      <trkpt lat="43.9432678" lon="8.1226626">
        <ele>348.9000000</ele>
        <time>2010-03-07T10:28:54Z</time>
      </trkpt>
      <trkpt lat="43.9432678" lon="8.1226597">
        <ele>348.6000000</ele>
        <time>2010-03-07T10:28:57Z</time>
      </trkpt>
      <trkpt lat="43.9432678" lon="8.1226578">
        <ele>348.5000000</ele>
        <time>2010-03-07T10:28:58Z</time>
      </trkpt>
      <trkpt lat="43.9432678" lon="8.1226569">
        <ele>348.6000000</ele>
        <time>2010-03-07T10:29:03Z</time>
      </trkpt>
      <trkpt lat="43.9432717" lon="8.1226569">
        <ele>348.8000000</ele>
        <time>2010-03-07T10:29:06Z</time>
      </trkpt>
      <trkpt lat="43.9432717" lon="8.1226559">
        <ele>348.8000000</ele>
        <time>2010-03-07T10:29:09Z</time>
      </trkpt>
      <trkpt lat="43.9432717" lon="8.1226492">
        <ele>348.5000000</ele>
        <time>2010-03-07T10:29:20Z</time>
      </trkpt>
      <trkpt lat="43.9432717" lon="8.1226473">
        <ele>348.7000000</ele>
        <time>2010-03-07T10:29:27Z</time>
      </trkpt>
      <trkpt lat="43.9432717" lon="8.1226454">
        <ele>349.1000000</ele>
        <time>2010-03-07T10:29:30Z</time>
      </trkpt>
      <trkpt lat="43.9432717" lon="8.1226473">
        <ele>349.1000000</ele>
        <time>2010-03-07T10:29:32Z</time>
      </trkpt>
      <trkpt lat="43.9432754" lon="8.1226445">
        <ele>348.7000000</ele>
        <time>2010-03-07T10:29:38Z</time>
      </trkpt>
      <trkpt lat="43.9432717" lon="8.1226454">
        <ele>348.5000000</ele>
        <time>2010-03-07T10:29:49Z</time>
      </trkpt>
      <trkpt lat="43.9432717" lon="8.1226454">
        <ele>348.4000000</ele>
        <time>2010-03-07T10:30:07Z</time>
      </trkpt>
      <trkpt lat="43.9432717" lon="8.1226445">
        <ele>348.1000000</ele>
        <time>2010-03-07T10:30:16Z</time>
      </trkpt>
      <trkpt lat="43.9432717" lon="8.1226445">
        <ele>348.1000000</ele>
        <time>2010-03-07T10:30:18Z</time>
      </trkpt>
      <trkpt lat="43.9432717" lon="8.1226434">
        <ele>348.1000000</ele>
        <time>2010-03-07T10:30:19Z</time>
      </trkpt>
      <trkpt lat="43.9432717" lon="8.1226434">
        <ele>348.2000000</ele>
        <time>2010-03-07T10:30:24Z</time>
      </trkpt>
      <trkpt lat="43.9432717" lon="8.1226397">
        <ele>348.4000000</ele>
        <time>2010-03-07T10:30:32Z</time>
      </trkpt>
      <trkpt lat="43.9432564" lon="8.1226387">
        <ele>348.3000000</ele>
        <time>2010-03-07T10:30:42Z</time>
      </trkpt>
      <trkpt lat="43.9432526" lon="8.1226377">
        <ele>348.5000000</ele>
        <time>2010-03-07T10:30:46Z</time>
      </trkpt>
      <trkpt lat="43.9432526" lon="8.1226406">
        <ele>348.1000000</ele>
        <time>2010-03-07T10:30:56Z</time>
      </trkpt>
      <trkpt lat="43.9432526" lon="8.1226406">
        <ele>348.0000000</ele>
        <time>2010-03-07T10:30:58Z</time>
      </trkpt>
      <trkpt lat="43.9432526" lon="8.1226406">
        <ele>348.1000000</ele>
        <time>2010-03-07T10:30:59Z</time>
      </trkpt>
      <trkpt lat="43.9432564" lon="8.1226397">
        <ele>347.9000000</ele>
        <time>2010-03-07T10:31:02Z</time>
      </trkpt>
      <trkpt lat="43.9432602" lon="8.1226377">
        <ele>347.7000000</ele>
        <time>2010-03-07T10:31:06Z</time>
      </trkpt>
      <trkpt lat="43.9432602" lon="8.1226368">
        <ele>347.6000000</ele>
        <time>2010-03-07T10:31:07Z</time>
      </trkpt>
      <trkpt lat="43.9432602" lon="8.1226349">
        <ele>347.8000000</ele>
        <time>2010-03-07T10:31:11Z</time>
      </trkpt>
      <trkpt lat="43.9432602" lon="8.1226339">
        <ele>347.8000000</ele>
        <time>2010-03-07T10:31:14Z</time>
      </trkpt>
      <trkpt lat="43.9432602" lon="8.1226339">
        <ele>347.9000000</ele>
        <time>2010-03-07T10:31:15Z</time>
      </trkpt>
      <trkpt lat="43.9432526" lon="8.1226358">
        <ele>347.6000000</ele>
        <time>2010-03-07T10:31:24Z</time>
      </trkpt>
      <trkpt lat="43.9432449" lon="8.1226339">
        <ele>347.7000000</ele>
        <time>2010-03-07T10:31:46Z</time>
      </trkpt>
      <trkpt lat="43.9432411" lon="8.1226339">
        <ele>347.7000000</ele>
        <time>2010-03-07T10:31:47Z</time>
      </trkpt>
      <trkpt lat="43.9432411" lon="8.1226330">
        <ele>348.0000000</ele>
        <time>2010-03-07T10:31:54Z</time>
      </trkpt>
      <trkpt lat="43.9432411" lon="8.1226310">
        <ele>348.0000000</ele>
        <time>2010-03-07T10:31:56Z</time>
      </trkpt>
      <trkpt lat="43.9432335" lon="8.1226282">
        <ele>348.0000000</ele>
        <time>2010-03-07T10:31:57Z</time>
      </trkpt>
      <trkpt lat="43.9432144" lon="8.1226177">
        <ele>347.6000000</ele>
        <time>2010-03-07T10:32:02Z</time>
      </trkpt>
      <trkpt lat="43.9431992" lon="8.1226053">
        <ele>347.6000000</ele>
        <time>2010-03-07T10:32:07Z</time>
      </trkpt>
      <trkpt lat="43.9432144" lon="8.1226005">
        <ele>347.3000000</ele>
        <time>2010-03-07T10:32:14Z</time>
      </trkpt>
      <trkpt lat="43.9432106" lon="8.1225977">
        <ele>347.3000000</ele>
        <time>2010-03-07T10:32:23Z</time>
      </trkpt>
      <trkpt lat="43.9431953" lon="8.1225939">
        <ele>347.3000000</ele>
        <time>2010-03-07T10:32:27Z</time>
      </trkpt>
      <trkpt lat="43.9431953" lon="8.1225958">
        <ele>347.6000000</ele>
        <time>2010-03-07T10:32:36Z</time>
      </trkpt>
      <trkpt lat="43.9431763" lon="8.1226005">
        <ele>347.0000000</ele>
        <time>2010-03-07T10:32:47Z</time>
      </trkpt>
      <trkpt lat="43.9431763" lon="8.1225987">
        <ele>346.8000000</ele>
        <time>2010-03-07T10:32:52Z</time>
      </trkpt>
      <trkpt lat="43.9431724" lon="8.1225987">
        <ele>346.9000000</ele>
        <time>2010-03-07T10:33:00Z</time>
      </trkpt>
      <trkpt lat="43.9430351" lon="8.1226721">
        <ele>347.3000000</ele>
        <time>2010-03-07T10:33:05Z</time>
      </trkpt>
      <trkpt lat="43.9429589" lon="8.1226940">
        <ele>346.9000000</ele>
        <time>2010-03-07T10:33:06Z</time>
      </trkpt>
      <trkpt lat="43.9426308" lon="8.1227341">
        <ele>344.6000000</ele>
        <time>2010-03-07T10:33:10Z</time>
      </trkpt>
      <trkpt lat="43.9425468" lon="8.1227331">
        <ele>344.7000000</ele>
        <time>2010-03-07T10:33:11Z</time>
      </trkpt>
      <trkpt lat="43.9422798" lon="8.1226874">
        <ele>342.8000000</ele>
        <time>2010-03-07T10:33:14Z</time>
      </trkpt>
      <trkpt lat="43.9420052" lon="8.1226187">
        <ele>339.4000000</ele>
        <time>2010-03-07T10:33:17Z</time>
      </trkpt>
      <trkpt lat="43.9416924" lon="8.1226702">
        <ele>331.2000000</ele>
        <time>2010-03-07T10:33:21Z</time>
      </trkpt>
      <trkpt lat="43.9414063" lon="8.1227188">
        <ele>324.0000000</ele>
        <time>2010-03-07T10:33:25Z</time>
      </trkpt>
      <trkpt lat="43.9410515" lon="8.1228752">
        <ele>318.6000000</ele>
        <time>2010-03-07T10:33:29Z</time>
      </trkpt>
      <trkpt lat="43.9409599" lon="8.1228876">
        <ele>316.6000000</ele>
        <time>2010-03-07T10:33:30Z</time>
      </trkpt>
      <trkpt lat="43.9407844" lon="8.1228600">
        <ele>313.7000000</ele>
        <time>2010-03-07T10:33:32Z</time>
      </trkpt>
      <trkpt lat="43.9404564" lon="8.1230107">
        <ele>311.2000000</ele>
        <time>2010-03-07T10:33:36Z</time>
      </trkpt>
      <trkpt lat="43.9400902" lon="8.1232109">
        <ele>312.1000000</ele>
        <time>2010-03-07T10:33:41Z</time>
      </trkpt>
      <trkpt lat="43.9400291" lon="8.1232510">
        <ele>312.9000000</ele>
        <time>2010-03-07T10:33:42Z</time>
      </trkpt>
      <trkpt lat="43.9397773" lon="8.1233082">
        <ele>316.1000000</ele>
        <time>2010-03-07T10:33:47Z</time>
      </trkpt>
      <trkpt lat="43.9396897" lon="8.1233120">
        <ele>316.3000000</ele>
        <time>2010-03-07T10:33:49Z</time>
      </trkpt>
      <trkpt lat="43.9394875" lon="8.1233301">
        <ele>318.2000000</ele>
        <time>2010-03-07T10:33:54Z</time>
      </trkpt>
      <trkpt lat="43.9394264" lon="8.1232118">
        <ele>317.6000000</ele>
        <time>2010-03-07T10:33:57Z</time>
      </trkpt>
      <trkpt lat="43.9393463" lon="8.1231594">
        <ele>315.7000000</ele>
        <time>2010-03-07T10:34:00Z</time>
      </trkpt>
      <trkpt lat="43.9392852" lon="8.1231671">
        <ele>316.0000000</ele>
        <time>2010-03-07T10:34:02Z</time>
      </trkpt>
      <trkpt lat="43.9391518" lon="8.1231432">
        <ele>315.7000000</ele>
        <time>2010-03-07T10:34:05Z</time>
      </trkpt>
      <trkpt lat="43.9389381" lon="8.1232233">
        <ele>315.0000000</ele>
        <time>2010-03-07T10:34:09Z</time>
      </trkpt>
      <trkpt lat="43.9388962" lon="8.1232625">
        <ele>315.4000000</ele>
        <time>2010-03-07T10:34:10Z</time>
      </trkpt>
      <trkpt lat="43.9387589" lon="8.1233549">
        <ele>316.2000000</ele>
        <time>2010-03-07T10:34:13Z</time>
      </trkpt>
      <trkpt lat="43.9385948" lon="8.1235638">
        <ele>315.4000000</ele>
        <time>2010-03-07T10:34:18Z</time>
      </trkpt>
      <trkpt lat="43.9384652" lon="8.1238241">
        <ele>311.8000000</ele>
        <time>2010-03-07T10:34:23Z</time>
      </trkpt>
      <trkpt lat="43.9384499" lon="8.1237431">
        <ele>309.7000000</ele>
        <time>2010-03-07T10:34:25Z</time>
      </trkpt>
      <trkpt lat="43.9384575" lon="8.1237049">
        <ele>308.8000000</ele>
        <time>2010-03-07T10:34:26Z</time>
      </trkpt>
      <trkpt lat="43.9384766" lon="8.1236200">
        <ele>308.8000000</ele>
        <time>2010-03-07T10:34:28Z</time>
      </trkpt>
      <trkpt lat="43.9384117" lon="8.1234541">
        <ele>306.7000000</ele>
        <time>2010-03-07T10:34:32Z</time>
      </trkpt>
      <trkpt lat="43.9383393" lon="8.1235609">
        <ele>305.1000000</ele>
        <time>2010-03-07T10:34:35Z</time>
      </trkpt>
      <trkpt lat="43.9382248" lon="8.1236906">
        <ele>303.5000000</ele>
        <time>2010-03-07T10:34:38Z</time>
      </trkpt>
      <trkpt lat="43.9380875" lon="8.1238823">
        <ele>300.2000000</ele>
        <time>2010-03-07T10:34:42Z</time>
      </trkpt>
      <trkpt lat="43.9379807" lon="8.1240855">
        <ele>299.0000000</ele>
        <time>2010-03-07T10:34:46Z</time>
      </trkpt>
      <trkpt lat="43.9379158" lon="8.1241970">
        <ele>296.4000000</ele>
        <time>2010-03-07T10:34:48Z</time>
      </trkpt>
      <trkpt lat="43.9379006" lon="8.1244888">
        <ele>293.2000000</ele>
        <time>2010-03-07T10:34:52Z</time>
      </trkpt>
      <trkpt lat="43.9378090" lon="8.1246051">
        <ele>292.3000000</ele>
        <time>2010-03-07T10:34:55Z</time>
      </trkpt>
      <trkpt lat="43.9376259" lon="8.1246434">
        <ele>287.0000000</ele>
        <time>2010-03-07T10:34:59Z</time>
      </trkpt>
      <trkpt lat="43.9375381" lon="8.1248522">
        <ele>283.6000000</ele>
        <time>2010-03-07T10:35:02Z</time>
      </trkpt>
      <trkpt lat="43.9374313" lon="8.1248321">
        <ele>282.2000000</ele>
        <time>2010-03-07T10:35:05Z</time>
      </trkpt>
      <trkpt lat="43.9373893" lon="8.1248417">
        <ele>282.1000000</ele>
        <time>2010-03-07T10:35:06Z</time>
      </trkpt>
      <trkpt lat="43.9371605" lon="8.1250944">
        <ele>279.7000000</ele>
        <time>2010-03-07T10:35:11Z</time>
      </trkpt>
      <trkpt lat="43.9369774" lon="8.1252070">
        <ele>276.9000000</ele>
        <time>2010-03-07T10:35:15Z</time>
      </trkpt>
      <trkpt lat="43.9368896" lon="8.1252375">
        <ele>275.9000000</ele>
        <time>2010-03-07T10:35:17Z</time>
      </trkpt>
      <trkpt lat="43.9368744" lon="8.1252909">
        <ele>275.5000000</ele>
        <time>2010-03-07T10:35:18Z</time>
      </trkpt>
      <trkpt lat="43.9368324" lon="8.1254301">
        <ele>274.9000000</ele>
        <time>2010-03-07T10:35:20Z</time>
      </trkpt>
      <trkpt lat="43.9367905" lon="8.1257209">
        <ele>271.6000000</ele>
        <time>2010-03-07T10:35:24Z</time>
      </trkpt>
      <trkpt lat="43.9366798" lon="8.1258020">
        <ele>266.7000000</ele>
        <time>2010-03-07T10:35:27Z</time>
      </trkpt>
      <trkpt lat="43.9366303" lon="8.1257867">
        <ele>266.4000000</ele>
        <time>2010-03-07T10:35:28Z</time>
      </trkpt>
      <trkpt lat="43.9364662" lon="8.1258821">
        <ele>261.4000000</ele>
        <time>2010-03-07T10:35:32Z</time>
      </trkpt>
      <trkpt lat="43.9362221" lon="8.1260071">
        <ele>249.6000000</ele>
        <time>2010-03-07T10:35:38Z</time>
      </trkpt>
      <trkpt lat="43.9362946" lon="8.1261997">
        <ele>244.6000000</ele>
        <time>2010-03-07T10:35:42Z</time>
      </trkpt>
      <trkpt lat="43.9363175" lon="8.1262512">
        <ele>243.9000000</ele>
        <time>2010-03-07T10:35:43Z</time>
      </trkpt>
      <trkpt lat="43.9362144" lon="8.1262751">
        <ele>240.1000000</ele>
        <time>2010-03-07T10:35:47Z</time>
      </trkpt>
      <trkpt lat="43.9361077" lon="8.1262235">
        <ele>235.2000000</ele>
        <time>2010-03-07T10:35:51Z</time>
      </trkpt>
      <trkpt lat="43.9359627" lon="8.1261206">
        <ele>230.2000000</ele>
        <time>2010-03-07T10:35:54Z</time>
      </trkpt>
      <trkpt lat="43.9358291" lon="8.1260738">
        <ele>228.0000000</ele>
        <time>2010-03-07T10:35:57Z</time>
      </trkpt>
      <trkpt lat="43.9356537" lon="8.1260357">
        <ele>226.7000000</ele>
        <time>2010-03-07T10:36:00Z</time>
      </trkpt>
      <trkpt lat="43.9355163" lon="8.1260281">
        <ele>225.7000000</ele>
        <time>2010-03-07T10:36:02Z</time>
      </trkpt>
      <trkpt lat="43.9352989" lon="8.1260157">
        <ele>224.2000000</ele>
        <time>2010-03-07T10:36:05Z</time>
      </trkpt>
      <trkpt lat="43.9350967" lon="8.1260128">
        <ele>222.8000000</ele>
        <time>2010-03-07T10:36:08Z</time>
      </trkpt>
      <trkpt lat="43.9350319" lon="8.1260214">
        <ele>222.1000000</ele>
        <time>2010-03-07T10:36:09Z</time>
      </trkpt>
      <trkpt lat="43.9347954" lon="8.1260967">
        <ele>220.0000000</ele>
        <time>2010-03-07T10:36:13Z</time>
      </trkpt>
      <trkpt lat="43.9347153" lon="8.1261463">
        <ele>218.6000000</ele>
        <time>2010-03-07T10:36:15Z</time>
      </trkpt>
      <trkpt lat="43.9343834" lon="8.1262674">
        <ele>214.8000000</ele>
        <time>2010-03-07T10:36:20Z</time>
      </trkpt>
      <trkpt lat="43.9340554" lon="8.1266136">
        <ele>211.1000000</ele>
        <time>2010-03-07T10:36:26Z</time>
      </trkpt>
      <trkpt lat="43.9339295" lon="8.1265850">
        <ele>209.6000000</ele>
        <time>2010-03-07T10:36:28Z</time>
      </trkpt>
      <trkpt lat="43.9335633" lon="8.1265840">
        <ele>205.2000000</ele>
        <time>2010-03-07T10:36:33Z</time>
      </trkpt>
      <trkpt lat="43.9332809" lon="8.1265326">
        <ele>201.9000000</ele>
        <time>2010-03-07T10:36:37Z</time>
      </trkpt>
      <trkpt lat="43.9331894" lon="8.1263657">
        <ele>199.7000000</ele>
        <time>2010-03-07T10:36:39Z</time>
      </trkpt>
      <trkpt lat="43.9331054" lon="8.1261845">
        <ele>197.6000000</ele>
        <time>2010-03-07T10:36:41Z</time>
      </trkpt>
      <trkpt lat="43.9329071" lon="8.1258535">
        <ele>193.8000000</ele>
        <time>2010-03-07T10:36:45Z</time>
      </trkpt>
      <trkpt lat="43.9327621" lon="8.1256218">
        <ele>191.6000000</ele>
        <time>2010-03-07T10:36:48Z</time>
      </trkpt>
      <trkpt lat="43.9326477" lon="8.1253109">
        <ele>194.0000000</ele>
        <time>2010-03-07T10:36:53Z</time>
      </trkpt>
      <trkpt lat="43.9326019" lon="8.1251907">
        <ele>195.8000000</ele>
        <time>2010-03-07T10:36:56Z</time>
      </trkpt>
      <trkpt lat="43.9325599" lon="8.1251602">
        <ele>196.5000000</ele>
        <time>2010-03-07T10:36:58Z</time>
      </trkpt>
      <trkpt lat="43.9324264" lon="8.1251107">
        <ele>197.8000000</ele>
        <time>2010-03-07T10:37:03Z</time>
      </trkpt>
      <trkpt lat="43.9322586" lon="8.1252031">
        <ele>196.6000000</ele>
        <time>2010-03-07T10:37:07Z</time>
      </trkpt>
      <trkpt lat="43.9322052" lon="8.1252184">
        <ele>196.0000000</ele>
        <time>2010-03-07T10:37:08Z</time>
      </trkpt>
      <trkpt lat="43.9317932" lon="8.1253433">
        <ele>194.3000000</ele>
        <time>2010-03-07T10:37:15Z</time>
      </trkpt>
      <trkpt lat="43.9316597" lon="8.1252441">
        <ele>194.5000000</ele>
        <time>2010-03-07T10:37:18Z</time>
      </trkpt>
      <trkpt lat="43.9316254" lon="8.1252194">
        <ele>195.0000000</ele>
        <time>2010-03-07T10:37:19Z</time>
      </trkpt>
      <trkpt lat="43.9313622" lon="8.1250410">
        <ele>194.3000000</ele>
        <time>2010-03-07T10:37:26Z</time>
      </trkpt>
      <trkpt lat="43.9313240" lon="8.1250076">
        <ele>194.1000000</ele>
        <time>2010-03-07T10:37:27Z</time>
      </trkpt>
      <trkpt lat="43.9311409" lon="8.1249009">
        <ele>193.9000000</ele>
        <time>2010-03-07T10:37:31Z</time>
      </trkpt>
      <trkpt lat="43.9309158" lon="8.1249103">
        <ele>193.5000000</ele>
        <time>2010-03-07T10:37:36Z</time>
      </trkpt>
      <trkpt lat="43.9308014" lon="8.1250238">
        <ele>193.2000000</ele>
        <time>2010-03-07T10:37:40Z</time>
      </trkpt>
      <trkpt lat="43.9306908" lon="8.1252127">
        <ele>192.9000000</ele>
        <time>2010-03-07T10:37:44Z</time>
      </trkpt>
      <trkpt lat="43.9305649" lon="8.1252508">
        <ele>191.2000000</ele>
        <time>2010-03-07T10:37:47Z</time>
      </trkpt>
      <trkpt lat="43.9305420" lon="8.1252318">
        <ele>190.5000000</ele>
        <time>2010-03-07T10:37:48Z</time>
      </trkpt>
      <trkpt lat="43.9304733" lon="8.1251268">
        <ele>188.5000000</ele>
        <time>2010-03-07T10:37:51Z</time>
      </trkpt>
      <trkpt lat="43.9303322" lon="8.1249714">
        <ele>184.6000000</ele>
        <time>2010-03-07T10:37:55Z</time>
      </trkpt>
      <trkpt lat="43.9302902" lon="8.1249218">
        <ele>183.6000000</ele>
        <time>2010-03-07T10:37:56Z</time>
      </trkpt>
      <trkpt lat="43.9301414" lon="8.1248188">
        <ele>180.5000000</ele>
        <time>2010-03-07T10:37:59Z</time>
      </trkpt>
      <trkpt lat="43.9299698" lon="8.1246157">
        <ele>176.6000000</ele>
        <time>2010-03-07T10:38:04Z</time>
      </trkpt>
      <trkpt lat="43.9299087" lon="8.1245632">
        <ele>175.2000000</ele>
        <time>2010-03-07T10:38:06Z</time>
      </trkpt>
      <trkpt lat="43.9297828" lon="8.1244669">
        <ele>175.6000000</ele>
        <time>2010-03-07T10:38:11Z</time>
      </trkpt>
      <trkpt lat="43.9297600" lon="8.1243372">
        <ele>172.5000000</ele>
        <time>2010-03-07T10:38:15Z</time>
      </trkpt>
      <trkpt lat="43.9296913" lon="8.1241980">
        <ele>170.2000000</ele>
        <time>2010-03-07T10:38:18Z</time>
      </trkpt>
      <trkpt lat="43.9296188" lon="8.1238509">
        <ele>162.3000000</ele>
        <time>2010-03-07T10:38:23Z</time>
      </trkpt>
      <trkpt lat="43.9295235" lon="8.1236915">
        <ele>159.4000000</ele>
        <time>2010-03-07T10:38:26Z</time>
      </trkpt>
      <trkpt lat="43.9294281" lon="8.1235266">
        <ele>157.5000000</ele>
        <time>2010-03-07T10:38:30Z</time>
      </trkpt>
      <trkpt lat="43.9293671" lon="8.1234159">
        <ele>156.3000000</ele>
        <time>2010-03-07T10:38:32Z</time>
      </trkpt>
      <trkpt lat="43.9292907" lon="8.1232930">
        <ele>155.8000000</ele>
        <time>2010-03-07T10:38:34Z</time>
      </trkpt>
      <trkpt lat="43.9291763" lon="8.1230678">
        <ele>154.9000000</ele>
        <time>2010-03-07T10:38:39Z</time>
      </trkpt>
      <trkpt lat="43.9292031" lon="8.1228552">
        <ele>152.2000000</ele>
        <time>2010-03-07T10:38:43Z</time>
      </trkpt>
      <trkpt lat="43.9291763" lon="8.1226750">
        <ele>149.1000000</ele>
        <time>2010-03-07T10:38:47Z</time>
      </trkpt>
      <trkpt lat="43.9291306" lon="8.1224746">
        <ele>146.7000000</ele>
        <time>2010-03-07T10:38:51Z</time>
      </trkpt>
      <trkpt lat="43.9291687" lon="8.1223994">
        <ele>144.6000000</ele>
        <time>2010-03-07T10:38:54Z</time>
      </trkpt>
      <trkpt lat="43.9291611" lon="8.1223688">
        <ele>144.3000000</ele>
        <time>2010-03-07T10:38:55Z</time>
      </trkpt>
      <trkpt lat="43.9291267" lon="8.1222506">
        <ele>143.4000000</ele>
        <time>2010-03-07T10:38:57Z</time>
      </trkpt>
      <trkpt lat="43.9290047" lon="8.1220999">
        <ele>142.3000000</ele>
        <time>2010-03-07T10:39:01Z</time>
      </trkpt>
      <trkpt lat="43.9289665" lon="8.1219177">
        <ele>140.6000000</ele>
        <time>2010-03-07T10:39:04Z</time>
      </trkpt>
      <trkpt lat="43.9288826" lon="8.1217909">
        <ele>138.5000000</ele>
        <time>2010-03-07T10:39:07Z</time>
      </trkpt>
      <trkpt lat="43.9287605" lon="8.1216297">
        <ele>136.9000000</ele>
        <time>2010-03-07T10:39:11Z</time>
      </trkpt>
      <trkpt lat="43.9287262" lon="8.1213904">
        <ele>133.1000000</ele>
        <time>2010-03-07T10:39:15Z</time>
      </trkpt>
      <trkpt lat="43.9286461" lon="8.1212416">
        <ele>131.2000000</ele>
        <time>2010-03-07T10:39:18Z</time>
      </trkpt>
      <trkpt lat="43.9285431" lon="8.1211843">
        <ele>130.5000000</ele>
        <time>2010-03-07T10:39:21Z</time>
      </trkpt>
      <trkpt lat="43.9283943" lon="8.1211386">
        <ele>128.2000000</ele>
        <time>2010-03-07T10:39:24Z</time>
      </trkpt>
      <trkpt lat="43.9282379" lon="8.1211100">
        <ele>123.5000000</ele>
        <time>2010-03-07T10:39:28Z</time>
      </trkpt>
      <trkpt lat="43.9281311" lon="8.1210318">
        <ele>119.0000000</ele>
        <time>2010-03-07T10:39:32Z</time>
      </trkpt>
      <trkpt lat="43.9281196" lon="8.1208983">
        <ele>116.4000000</ele>
        <time>2010-03-07T10:39:34Z</time>
      </trkpt>
      <trkpt lat="43.9280891" lon="8.1203413">
        <ele>113.4000000</ele>
        <time>2010-03-07T10:39:40Z</time>
      </trkpt>
      <trkpt lat="43.9280701" lon="8.1202354">
        <ele>113.0000000</ele>
        <time>2010-03-07T10:39:41Z</time>
      </trkpt>
      <trkpt lat="43.9280319" lon="8.1198149">
        <ele>111.3000000</ele>
        <time>2010-03-07T10:39:45Z</time>
      </trkpt>
      <trkpt lat="43.9279137" lon="8.1196794">
        <ele>108.7000000</ele>
        <time>2010-03-07T10:39:49Z</time>
      </trkpt>
      <trkpt lat="43.9277802" lon="8.1197681">
        <ele>105.0000000</ele>
        <time>2010-03-07T10:39:54Z</time>
      </trkpt>
      <trkpt lat="43.9277077" lon="8.1197519">
        <ele>101.6000000</ele>
        <time>2010-03-07T10:39:57Z</time>
      </trkpt>
      <trkpt lat="43.9276963" lon="8.1195879">
        <ele>100.3000000</ele>
        <time>2010-03-07T10:40:00Z</time>
      </trkpt>
      <trkpt lat="43.9276886" lon="8.1193447">
        <ele>99.8000000</ele>
        <time>2010-03-07T10:40:05Z</time>
      </trkpt>
      <trkpt lat="43.9276046" lon="8.1192513">
        <ele>96.4000000</ele>
        <time>2010-03-07T10:40:09Z</time>
      </trkpt>
      <trkpt lat="43.9276123" lon="8.1191492">
        <ele>94.2000000</ele>
        <time>2010-03-07T10:40:12Z</time>
      </trkpt>
      <trkpt lat="43.9276543" lon="8.1190348">
        <ele>94.0000000</ele>
        <time>2010-03-07T10:40:16Z</time>
      </trkpt>
      <trkpt lat="43.9276466" lon="8.1190148">
        <ele>93.5000000</ele>
        <time>2010-03-07T10:40:19Z</time>
      </trkpt>
      <trkpt lat="43.9276314" lon="8.1190109">
        <ele>93.4000000</ele>
        <time>2010-03-07T10:40:29Z</time>
      </trkpt>
      <trkpt lat="43.9275932" lon="8.1189013">
        <ele>92.2000000</ele>
        <time>2010-03-07T10:40:33Z</time>
      </trkpt>
      <trkpt lat="43.9276810" lon="8.1187486">
        <ele>90.3000000</ele>
        <time>2010-03-07T10:40:36Z</time>
      </trkpt>
      <trkpt lat="43.9277191" lon="8.1186886">
        <ele>89.5000000</ele>
        <time>2010-03-07T10:40:37Z</time>
      </trkpt>
      <trkpt lat="43.9279442" lon="8.1184606">
        <ele>86.8000000</ele>
        <time>2010-03-07T10:40:42Z</time>
      </trkpt>
      <trkpt lat="43.9280433" lon="8.1184092">
        <ele>86.1000000</ele>
        <time>2010-03-07T10:40:44Z</time>
      </trkpt>
      <trkpt lat="43.9281464" lon="8.1183414">
        <ele>85.2000000</ele>
        <time>2010-03-07T10:40:46Z</time>
      </trkpt>
      <trkpt lat="43.9284973" lon="8.1181765">
        <ele>80.2000000</ele>
        <time>2010-03-07T10:40:51Z</time>
      </trkpt>
      <trkpt lat="43.9285774" lon="8.1181440">
        <ele>78.9000000</ele>
        <time>2010-03-07T10:40:52Z</time>
      </trkpt>
      <trkpt lat="43.9288903" lon="8.1181269">
        <ele>74.1000000</ele>
        <time>2010-03-07T10:40:56Z</time>
      </trkpt>
      <trkpt lat="43.9290199" lon="8.1181889">
        <ele>69.3000000</ele>
        <time>2010-03-07T10:40:58Z</time>
      </trkpt>
      <trkpt lat="43.9291115" lon="8.1182480">
        <ele>65.4000000</ele>
        <time>2010-03-07T10:41:00Z</time>
      </trkpt>
      <trkpt lat="43.9290772" lon="8.1181602">
        <ele>62.9000000</ele>
        <time>2010-03-07T10:41:04Z</time>
      </trkpt>
      <trkpt lat="43.9290428" lon="8.1181059">
        <ele>62.3000000</ele>
        <time>2010-03-07T10:41:05Z</time>
      </trkpt>
      <trkpt lat="43.9289779" lon="8.1179791">
        <ele>61.0000000</ele>
        <time>2010-03-07T10:41:07Z</time>
      </trkpt>
      <trkpt lat="43.9289169" lon="8.1178083">
        <ele>57.5000000</ele>
        <time>2010-03-07T10:41:11Z</time>
      </trkpt>
      <trkpt lat="43.9290504" lon="8.1178598">
        <ele>55.2000000</ele>
        <time>2010-03-07T10:41:14Z</time>
      </trkpt>
      <trkpt lat="43.9292602" lon="8.1178532">
        <ele>49.3000000</ele>
        <time>2010-03-07T10:41:19Z</time>
      </trkpt>
      <trkpt lat="43.9293709" lon="8.1177587">
        <ele>46.6000000</ele>
        <time>2010-03-07T10:41:23Z</time>
      </trkpt>
      <trkpt lat="43.9294090" lon="8.1177807">
        <ele>46.5000000</ele>
        <time>2010-03-07T10:41:24Z</time>
      </trkpt>
      <trkpt lat="43.9295235" lon="8.1178704">
        <ele>45.5000000</ele>
        <time>2010-03-07T10:41:27Z</time>
      </trkpt>
      <trkpt lat="43.9296074" lon="8.1178369">
        <ele>44.5000000</ele>
        <time>2010-03-07T10:41:30Z</time>
      </trkpt>
      <trkpt lat="43.9296761" lon="8.1176672">
        <ele>42.5000000</ele>
        <time>2010-03-07T10:41:34Z</time>
      </trkpt>
      <trkpt lat="43.9296952" lon="8.1175480">
        <ele>44.1000000</ele>
        <time>2010-03-07T10:41:38Z</time>
      </trkpt>
      <trkpt lat="43.9297066" lon="8.1175003">
        <ele>46.0000000</ele>
        <time>2010-03-07T10:41:42Z</time>
      </trkpt>
      <trkpt lat="43.9297028" lon="8.1174354">
        <ele>47.3000000</ele>
        <time>2010-03-07T10:41:48Z</time>
      </trkpt>
      <trkpt lat="43.9296952" lon="8.1173162">
        <ele>49.8000000</ele>
        <time>2010-03-07T10:41:57Z</time>
      </trkpt>
      <trkpt lat="43.9296913" lon="8.1172466">
        <ele>51.5000000</ele>
        <time>2010-03-07T10:42:03Z</time>
      </trkpt>
      <trkpt lat="43.9296569" lon="8.1171246">
        <ele>52.7000000</ele>
        <time>2010-03-07T10:42:12Z</time>
      </trkpt>
      <trkpt lat="43.9295845" lon="8.1170034">
        <ele>54.5000000</ele>
        <time>2010-03-07T10:42:22Z</time>
      </trkpt>
      <trkpt lat="43.9294968" lon="8.1169176">
        <ele>56.2000000</ele>
        <time>2010-03-07T10:42:31Z</time>
      </trkpt>
      <trkpt lat="43.9294434" lon="8.1168775">
        <ele>56.9000000</ele>
        <time>2010-03-07T10:42:37Z</time>
      </trkpt>
      <trkpt lat="43.9293861" lon="8.1168422">
        <ele>57.1000000</ele>
        <time>2010-03-07T10:42:42Z</time>
      </trkpt>
      <trkpt lat="43.9292450" lon="8.1166744">
        <ele>58.0000000</ele>
        <time>2010-03-07T10:42:51Z</time>
      </trkpt>
      <trkpt lat="43.9290581" lon="8.1165514">
        <ele>58.5000000</ele>
        <time>2010-03-07T10:43:00Z</time>
      </trkpt>
      <trkpt lat="43.9289208" lon="8.1164035">
        <ele>59.5000000</ele>
        <time>2010-03-07T10:43:08Z</time>
      </trkpt>
      <trkpt lat="43.9288292" lon="8.1162529">
        <ele>61.5000000</ele>
        <time>2010-03-07T10:43:17Z</time>
      </trkpt>
      <trkpt lat="43.9287300" lon="8.1161232">
        <ele>63.0000000</ele>
        <time>2010-03-07T10:43:26Z</time>
      </trkpt>
      <trkpt lat="43.9285927" lon="8.1159792">
        <ele>64.1000000</ele>
        <time>2010-03-07T10:43:36Z</time>
      </trkpt>
      <trkpt lat="43.9285241" lon="8.1158896">
        <ele>65.0000000</ele>
        <time>2010-03-07T10:43:43Z</time>
      </trkpt>
      <trkpt lat="43.9284858" lon="8.1158571">
        <ele>65.8000000</ele>
        <time>2010-03-07T10:43:49Z</time>
      </trkpt>
      <trkpt lat="43.9284668" lon="8.1158238">
        <ele>66.9000000</ele>
        <time>2010-03-07T10:43:52Z</time>
      </trkpt>
      <trkpt lat="43.9284324" lon="8.1157513">
        <ele>68.5000000</ele>
        <time>2010-03-07T10:43:59Z</time>
      </trkpt>
      <trkpt lat="43.9283485" lon="8.1156569">
        <ele>70.1000000</ele>
        <time>2010-03-07T10:44:10Z</time>
      </trkpt>
      <trkpt lat="43.9282455" lon="8.1155824">
        <ele>71.4000000</ele>
        <time>2010-03-07T10:44:20Z</time>
      </trkpt>
      <trkpt lat="43.9281655" lon="8.1154900">
        <ele>74.2000000</ele>
        <time>2010-03-07T10:44:31Z</time>
      </trkpt>
      <trkpt lat="43.9281273" lon="8.1153631">
        <ele>75.8000000</ele>
        <time>2010-03-07T10:44:40Z</time>
      </trkpt>
      <trkpt lat="43.9281196" lon="8.1153364">
        <ele>76.1000000</ele>
        <time>2010-03-07T10:44:42Z</time>
      </trkpt>
      <trkpt lat="43.9280967" lon="8.1153412">
        <ele>76.5000000</ele>
        <time>2010-03-07T10:44:49Z</time>
      </trkpt>
      <trkpt lat="43.9280967" lon="8.1153441">
        <ele>76.9000000</ele>
        <time>2010-03-07T10:45:02Z</time>
      </trkpt>
      <trkpt lat="43.9280357" lon="8.1153212">
        <ele>76.5000000</ele>
        <time>2010-03-07T10:45:13Z</time>
      </trkpt>
      <trkpt lat="43.9279098" lon="8.1153078">
        <ele>76.0000000</ele>
        <time>2010-03-07T10:45:19Z</time>
      </trkpt>
      <trkpt lat="43.9277687" lon="8.1153097">
        <ele>75.2000000</ele>
        <time>2010-03-07T10:45:24Z</time>
      </trkpt>
      <trkpt lat="43.9275894" lon="8.1153021">
        <ele>75.0000000</ele>
        <time>2010-03-07T10:45:29Z</time>
      </trkpt>
      <trkpt lat="43.9274025" lon="8.1152744">
        <ele>73.9000000</ele>
        <time>2010-03-07T10:45:33Z</time>
      </trkpt>
      <trkpt lat="43.9272957" lon="8.1152325">
        <ele>72.9000000</ele>
        <time>2010-03-07T10:45:35Z</time>
      </trkpt>
      <trkpt lat="43.9272118" lon="8.1150513">
        <ele>69.5000000</ele>
        <time>2010-03-07T10:45:39Z</time>
      </trkpt>
      <trkpt lat="43.9273109" lon="8.1148605">
        <ele>70.0000000</ele>
        <time>2010-03-07T10:45:43Z</time>
      </trkpt>
      <trkpt lat="43.9273834" lon="8.1147833">
        <ele>69.4000000</ele>
        <time>2010-03-07T10:45:45Z</time>
      </trkpt>
      <trkpt lat="43.9275207" lon="8.1146727">
        <ele>68.4000000</ele>
        <time>2010-03-07T10:45:48Z</time>
      </trkpt>
      <trkpt lat="43.9278488" lon="8.1145925">
        <ele>66.4000000</ele>
        <time>2010-03-07T10:45:54Z</time>
      </trkpt>
      <trkpt lat="43.9280815" lon="8.1145573">
        <ele>65.2000000</ele>
        <time>2010-03-07T10:45:58Z</time>
      </trkpt>
      <trkpt lat="43.9283867" lon="8.1142931">
        <ele>63.1000000</ele>
        <time>2010-03-07T10:46:04Z</time>
      </trkpt>
      <trkpt lat="43.9286690" lon="8.1140776">
        <ele>61.1000000</ele>
        <time>2010-03-07T10:46:09Z</time>
      </trkpt>
      <trkpt lat="43.9288903" lon="8.1139355">
        <ele>60.8000000</ele>
        <time>2010-03-07T10:46:13Z</time>
      </trkpt>
      <trkpt lat="43.9292679" lon="8.1138325">
        <ele>59.4000000</ele>
        <time>2010-03-07T10:46:19Z</time>
      </trkpt>
      <trkpt lat="43.9296455" lon="8.1137781">
        <ele>58.3000000</ele>
        <time>2010-03-07T10:46:25Z</time>
      </trkpt>
      <trkpt lat="43.9298134" lon="8.1135817">
        <ele>57.4000000</ele>
        <time>2010-03-07T10:46:29Z</time>
      </trkpt>
      <trkpt lat="43.9298057" lon="8.1134301">
        <ele>57.2000000</ele>
        <time>2010-03-07T10:46:31Z</time>
      </trkpt>
      <trkpt lat="43.9297562" lon="8.1131907">
        <ele>56.4000000</ele>
        <time>2010-03-07T10:46:34Z</time>
      </trkpt>
      <trkpt lat="43.9298172" lon="8.1128578">
        <ele>54.7000000</ele>
        <time>2010-03-07T10:46:38Z</time>
      </trkpt>
      <trkpt lat="43.9300690" lon="8.1125259">
        <ele>52.3000000</ele>
        <time>2010-03-07T10:46:43Z</time>
      </trkpt>
      <trkpt lat="43.9301377" lon="8.1124916">
        <ele>51.9000000</ele>
        <time>2010-03-07T10:46:44Z</time>
      </trkpt>
      <trkpt lat="43.9306603" lon="8.1123514">
        <ele>48.7000000</ele>
        <time>2010-03-07T10:46:51Z</time>
      </trkpt>
      <trkpt lat="43.9308204" lon="8.1122303">
        <ele>47.5000000</ele>
        <time>2010-03-07T10:46:54Z</time>
      </trkpt>
      <trkpt lat="43.9307785" lon="8.1120873">
        <ele>46.6000000</ele>
        <time>2010-03-07T10:46:56Z</time>
      </trkpt>
      <trkpt lat="43.9306145" lon="8.1119699">
        <ele>45.8000000</ele>
        <time>2010-03-07T10:46:59Z</time>
      </trkpt>
      <trkpt lat="43.9305535" lon="8.1119499">
        <ele>45.4000000</ele>
        <time>2010-03-07T10:47:00Z</time>
      </trkpt>
      <trkpt lat="43.9300728" lon="8.1119080">
        <ele>42.6000000</ele>
        <time>2010-03-07T10:47:07Z</time>
      </trkpt>
      <trkpt lat="43.9297600" lon="8.1119671">
        <ele>40.3000000</ele>
        <time>2010-03-07T10:47:11Z</time>
      </trkpt>
      <trkpt lat="43.9294739" lon="8.1121950">
        <ele>37.5000000</ele>
        <time>2010-03-07T10:47:15Z</time>
      </trkpt>
      <trkpt lat="43.9294052" lon="8.1122732">
        <ele>36.7000000</ele>
        <time>2010-03-07T10:47:16Z</time>
      </trkpt>
      <trkpt lat="43.9289856" lon="8.1124821">
        <ele>33.1000000</ele>
        <time>2010-03-07T10:47:21Z</time>
      </trkpt>
      <trkpt lat="43.9286080" lon="8.1125136">
        <ele>29.5000000</ele>
        <time>2010-03-07T10:47:25Z</time>
      </trkpt>
      <trkpt lat="43.9282150" lon="8.1126023">
        <ele>26.4000000</ele>
        <time>2010-03-07T10:47:29Z</time>
      </trkpt>
      <trkpt lat="43.9276390" lon="8.1127644">
        <ele>21.5000000</ele>
        <time>2010-03-07T10:47:35Z</time>
      </trkpt>
      <trkpt lat="43.9269410" lon="8.1129151">
        <ele>16.2000000</ele>
        <time>2010-03-07T10:47:42Z</time>
      </trkpt>
      <trkpt lat="43.9265365" lon="8.1128855">
        <ele>14.0000000</ele>
        <time>2010-03-07T10:47:46Z</time>
      </trkpt>
      <trkpt lat="43.9260864" lon="8.1128197">
        <ele>11.2000000</ele>
        <time>2010-03-07T10:47:51Z</time>
      </trkpt>
      <trkpt lat="43.9258537" lon="8.1128530">
        <ele>9.6000000</ele>
        <time>2010-03-07T10:47:54Z</time>
      </trkpt>
      <trkpt lat="43.9254150" lon="8.1131678">
        <ele>5.6000000</ele>
        <time>2010-03-07T10:48:00Z</time>
      </trkpt>
      <trkpt lat="43.9250031" lon="8.1131068">
        <ele>2.1000000</ele>
        <time>2010-03-07T10:48:05Z</time>
      </trkpt>
      <trkpt lat="43.9247970" lon="8.1129722">
        <ele>0.0000000</ele>
        <time>2010-03-07T10:48:08Z</time>
      </trkpt>
      <trkpt lat="43.9244613" lon="8.1127282">
        <ele>-2.3000000</ele>
        <time>2010-03-07T10:48:13Z</time>
      </trkpt>
      <trkpt lat="43.9243889" lon="8.1124077">
        <ele>-3.7000000</ele>
        <time>2010-03-07T10:48:17Z</time>
      </trkpt>
      <trkpt lat="43.9243546" lon="8.1116600">
        <ele>-5.1000000</ele>
        <time>2010-03-07T10:48:25Z</time>
      </trkpt>
      <trkpt lat="43.9242973" lon="8.1107912">
        <ele>-7.0000000</ele>
        <time>2010-03-07T10:48:34Z</time>
      </trkpt>
      <trkpt lat="43.9242325" lon="8.1098623">
        <ele>-8.7000000</ele>
        <time>2010-03-07T10:48:44Z</time>
      </trkpt>
      <trkpt lat="43.9241562" lon="8.1093083">
        <ele>-9.1000000</ele>
        <time>2010-03-07T10:48:51Z</time>
      </trkpt>
      <trkpt lat="43.9240837" lon="8.1091290">
        <ele>-9.4000000</ele>
        <time>2010-03-07T10:48:54Z</time>
      </trkpt>
      <trkpt lat="43.9239158" lon="8.1088934">
        <ele>-10.4000000</ele>
        <time>2010-03-07T10:48:58Z</time>
      </trkpt>
      <trkpt lat="43.9238663" lon="8.1088410">
        <ele>-10.5000000</ele>
        <time>2010-03-07T10:48:59Z</time>
      </trkpt>
      <trkpt lat="43.9236374" lon="8.1085711">
        <ele>-10.5000000</ele>
        <time>2010-03-07T10:49:03Z</time>
      </trkpt>
      <trkpt lat="43.9233666" lon="8.1083097">
        <ele>-10.4000000</ele>
        <time>2010-03-07T10:49:09Z</time>
      </trkpt>
      <trkpt lat="43.9233207" lon="8.1081810">
        <ele>-10.0000000</ele>
        <time>2010-03-07T10:49:11Z</time>
      </trkpt>
      <trkpt lat="43.9232292" lon="8.1076631">
        <ele>-9.2000000</ele>
        <time>2010-03-07T10:49:19Z</time>
      </trkpt>
      <trkpt lat="43.9231262" lon="8.1071119">
        <ele>-8.3000000</ele>
        <time>2010-03-07T10:49:28Z</time>
      </trkpt>
      <trkpt lat="43.9229698" lon="8.1066408">
        <ele>-5.8000000</ele>
        <time>2010-03-07T10:49:37Z</time>
      </trkpt>
      <trkpt lat="43.9228020" lon="8.1061144">
        <ele>-6.0000000</ele>
        <time>2010-03-07T10:49:47Z</time>
      </trkpt>
      <trkpt lat="43.9225998" lon="8.1054993">
        <ele>-6.3000000</ele>
        <time>2010-03-07T10:49:58Z</time>
      </trkpt>
      <trkpt lat="43.9224892" lon="8.1052523">
        <ele>-7.0000000</ele>
        <time>2010-03-07T10:50:04Z</time>
      </trkpt>
      <trkpt lat="43.9224281" lon="8.1051817">
        <ele>-7.4000000</ele>
        <time>2010-03-07T10:50:06Z</time>
      </trkpt>
      <trkpt lat="43.9222412" lon="8.1051597">
        <ele>-7.9000000</ele>
        <time>2010-03-07T10:50:10Z</time>
      </trkpt>
      <trkpt lat="43.9221535" lon="8.1052542">
        <ele>-7.9000000</ele>
        <time>2010-03-07T10:50:12Z</time>
      </trkpt>
      <trkpt lat="43.9218598" lon="8.1052570">
        <ele>-8.8000000</ele>
        <time>2010-03-07T10:50:18Z</time>
      </trkpt>
      <trkpt lat="43.9217873" lon="8.1053009">
        <ele>-8.5000000</ele>
        <time>2010-03-07T10:50:22Z</time>
      </trkpt>
      <trkpt lat="43.9216270" lon="8.1054459">
        <ele>-9.4000000</ele>
        <time>2010-03-07T10:50:28Z</time>
      </trkpt>
      <trkpt lat="43.9214897" lon="8.1054611">
        <ele>-9.9000000</ele>
        <time>2010-03-07T10:50:32Z</time>
      </trkpt>
      <trkpt lat="43.9213943" lon="8.1052904">
        <ele>-9.6000000</ele>
        <time>2010-03-07T10:50:37Z</time>
      </trkpt>
      <trkpt lat="43.9213753" lon="8.1051674">
        <ele>-9.5000000</ele>
        <time>2010-03-07T10:50:39Z</time>
      </trkpt>
      <trkpt lat="43.9211731" lon="8.1045752">
        <ele>-10.2000000</ele>
        <time>2010-03-07T10:50:50Z</time>
      </trkpt>
      <trkpt lat="43.9211655" lon="8.1044026">
        <ele>-9.9000000</ele>
        <time>2010-03-07T10:50:53Z</time>
      </trkpt>
      <trkpt lat="43.9210854" lon="8.1040011">
        <ele>-9.3000000</ele>
        <time>2010-03-07T10:51:00Z</time>
      </trkpt>
      <trkpt lat="43.9210320" lon="8.1036920">
        <ele>-9.2000000</ele>
        <time>2010-03-07T10:51:06Z</time>
      </trkpt>
      <trkpt lat="43.9208870" lon="8.1032543">
        <ele>-9.2000000</ele>
        <time>2010-03-07T10:51:14Z</time>
      </trkpt>
      <trkpt lat="43.9208069" lon="8.1029854">
        <ele>-9.2000000</ele>
        <time>2010-03-07T10:51:20Z</time>
      </trkpt>
      <trkpt lat="43.9207802" lon="8.1029472">
        <ele>-9.3000000</ele>
        <time>2010-03-07T10:51:22Z</time>
      </trkpt>
      <trkpt lat="43.9207612" lon="8.1029644">
        <ele>-9.5000000</ele>
        <time>2010-03-07T10:51:24Z</time>
      </trkpt>
      <trkpt lat="43.9207268" lon="8.1030426">
        <ele>-9.4000000</ele>
        <time>2010-03-07T10:51:29Z</time>
      </trkpt>
      <trkpt lat="43.9207344" lon="8.1029997">
        <ele>-9.3000000</ele>
        <time>2010-03-07T10:51:32Z</time>
      </trkpt>
      <trkpt lat="43.9207420" lon="8.1029453">
        <ele>-9.7000000</ele>
        <time>2010-03-07T10:51:35Z</time>
      </trkpt>
      <trkpt lat="43.9206200" lon="8.1029596">
        <ele>-9.9000000</ele>
        <time>2010-03-07T10:51:39Z</time>
      </trkpt>
      <trkpt lat="43.9205818" lon="8.1029768">
        <ele>-9.8000000</ele>
        <time>2010-03-07T10:51:40Z</time>
      </trkpt>
      <trkpt lat="43.9205246" lon="8.1029901">
        <ele>-9.4000000</ele>
        <time>2010-03-07T10:51:42Z</time>
      </trkpt>
      <trkpt lat="43.9204826" lon="8.1028786">
        <ele>-9.0000000</ele>
        <time>2010-03-07T10:51:47Z</time>
      </trkpt>
      <trkpt lat="43.9204521" lon="8.1028146">
        <ele>-9.0000000</ele>
        <time>2010-03-07T10:51:52Z</time>
      </trkpt>
      <trkpt lat="43.9204445" lon="8.1028080">
        <ele>-9.3000000</ele>
        <time>2010-03-07T10:51:58Z</time>
      </trkpt>
      <trkpt lat="43.9204025" lon="8.1028080">
        <ele>-8.7000000</ele>
        <time>2010-03-07T10:52:06Z</time>
      </trkpt>
      <trkpt lat="43.9204063" lon="8.1028023">
        <ele>-9.2000000</ele>
        <time>2010-03-07T10:52:15Z</time>
      </trkpt>
      <trkpt lat="43.9204063" lon="8.1028004">
        <ele>-9.3000000</ele>
        <time>2010-03-07T10:52:20Z</time>
      </trkpt>
      <trkpt lat="43.9203835" lon="8.1028004">
        <ele>-9.4000000</ele>
        <time>2010-03-07T10:52:28Z</time>
      </trkpt>
      <trkpt lat="43.9203796" lon="8.1027727">
        <ele>-9.0000000</ele>
        <time>2010-03-07T10:52:49Z</time>
      </trkpt>
      <trkpt lat="43.9203758" lon="8.1027718">
        <ele>-9.1000000</ele>
        <time>2010-03-07T10:53:01Z</time>
      </trkpt>
      <trkpt lat="43.9203758" lon="8.1027718">
        <ele>-9.0000000</ele>
        <time>2010-03-07T10:53:04Z</time>
      </trkpt>
      <trkpt lat="43.9203758" lon="8.1027718">
        <ele>-8.9000000</ele>
        <time>2010-03-07T10:53:05Z</time>
      </trkpt>
      <trkpt lat="43.9203758" lon="8.1027727">
        <ele>-9.1000000</ele>
        <time>2010-03-07T10:53:11Z</time>
      </trkpt>
      <trkpt lat="43.9203682" lon="8.1027708">
        <ele>-8.8000000</ele>
        <time>2010-03-07T10:53:42Z</time>
      </trkpt>
      <trkpt lat="43.9203567" lon="8.1027488">
        <ele>-8.9000000</ele>
        <time>2010-03-07T10:53:57Z</time>
      </trkpt>
      <trkpt lat="43.9203491" lon="8.1027622">
        <ele>-8.6000000</ele>
        <time>2010-03-07T10:54:15Z</time>
      </trkpt>
      <trkpt lat="43.9203491" lon="8.1027575">
        <ele>-8.6000000</ele>
        <time>2010-03-07T10:54:23Z</time>
      </trkpt>
      <trkpt lat="43.9203491" lon="8.1027603">
        <ele>-8.3000000</ele>
        <time>2010-03-07T10:54:27Z</time>
      </trkpt>
      <trkpt lat="43.9203949" lon="8.1028070">
        <ele>-8.1000000</ele>
        <time>2010-03-07T10:54:33Z</time>
      </trkpt>
      <trkpt lat="43.9204025" lon="8.1028089">
        <ele>-7.9000000</ele>
        <time>2010-03-07T10:54:34Z</time>
      </trkpt>
      <trkpt lat="43.9204636" lon="8.1028146">
        <ele>-8.1000000</ele>
        <time>2010-03-07T10:54:40Z</time>
      </trkpt>
      <trkpt lat="43.9205131" lon="8.1029043">
        <ele>-8.2000000</ele>
        <time>2010-03-07T10:54:46Z</time>
      </trkpt>
      <trkpt lat="43.9205933" lon="8.1029387">
        <ele>-8.0000000</ele>
        <time>2010-03-07T10:54:50Z</time>
      </trkpt>
      <trkpt lat="43.9207382" lon="8.1028834">
        <ele>-8.2000000</ele>
        <time>2010-03-07T10:54:56Z</time>
      </trkpt>
      <trkpt lat="43.9208069" lon="8.1028986">
        <ele>-8.1000000</ele>
        <time>2010-03-07T10:55:00Z</time>
      </trkpt>
      <trkpt lat="43.9209595" lon="8.1028318">
        <ele>-7.7000000</ele>
        <time>2010-03-07T10:55:08Z</time>
      </trkpt>
      <trkpt lat="43.9209557" lon="8.1028690">
        <ele>-7.7000000</ele>
        <time>2010-03-07T10:55:12Z</time>
      </trkpt>
      <trkpt lat="43.9208832" lon="8.1029015">
        <ele>-7.8000000</ele>
        <time>2010-03-07T10:55:18Z</time>
      </trkpt>
      <trkpt lat="43.9208756" lon="8.1029224">
        <ele>-7.7000000</ele>
        <time>2010-03-07T10:55:31Z</time>
      </trkpt>
      <trkpt lat="43.9208793" lon="8.1029311">
        <ele>-7.6000000</ele>
        <time>2010-03-07T10:55:52Z</time>
      </trkpt>
      <trkpt lat="43.9207497" lon="8.1029558">
        <ele>-7.7000000</ele>
        <time>2010-03-07T10:55:59Z</time>
      </trkpt>
      <trkpt lat="43.9206772" lon="8.1029596">
        <ele>-7.8000000</ele>
        <time>2010-03-07T10:56:02Z</time>
      </trkpt>
      <trkpt lat="43.9205856" lon="8.1029921">
        <ele>-8.0000000</ele>
        <time>2010-03-07T10:56:08Z</time>
      </trkpt>
      <trkpt lat="43.9205665" lon="8.1029997">
        <ele>-8.0000000</ele>
        <time>2010-03-07T10:56:09Z</time>
      </trkpt>
      <trkpt lat="43.9205246" lon="8.1029387">
        <ele>-7.8000000</ele>
        <time>2010-03-07T10:56:13Z</time>
      </trkpt>
      <trkpt lat="43.9204445" lon="8.1028757">
        <ele>-7.9000000</ele>
        <time>2010-03-07T10:56:18Z</time>
      </trkpt>
      <trkpt lat="43.9204063" lon="8.1029034">
        <ele>-7.9000000</ele>
        <time>2010-03-07T10:56:20Z</time>
      </trkpt>
      <trkpt lat="43.9203262" lon="8.1030140">
        <ele>-8.2000000</ele>
        <time>2010-03-07T10:56:27Z</time>
      </trkpt>
      <trkpt lat="43.9203186" lon="8.1030302">
        <ele>-8.3000000</ele>
        <time>2010-03-07T10:56:28Z</time>
      </trkpt>
      <trkpt lat="43.9203262" lon="8.1030769">
        <ele>-8.2000000</ele>
        <time>2010-03-07T10:56:32Z</time>
      </trkpt>
      <trkpt lat="43.9203262" lon="8.1030751">
        <ele>-8.3000000</ele>
        <time>2010-03-07T10:56:33Z</time>
      </trkpt>
      <trkpt lat="43.9203415" lon="8.1030502">
        <ele>-8.1000000</ele>
        <time>2010-03-07T10:56:41Z</time>
      </trkpt>
      <trkpt lat="43.9203415" lon="8.1030464">
        <ele>-8.0000000</ele>
        <time>2010-03-07T10:57:02Z</time>
      </trkpt>
      <trkpt lat="43.9203377" lon="8.1030350">
        <ele>-8.0000000</ele>
        <time>2010-03-07T10:57:12Z</time>
      </trkpt>
      <trkpt lat="43.9203415" lon="8.1030350">
        <ele>-8.1000000</ele>
        <time>2010-03-07T10:57:18Z</time>
      </trkpt>
      <trkpt lat="43.9203415" lon="8.1030340">
        <ele>-8.1000000</ele>
        <time>2010-03-07T10:57:21Z</time>
      </trkpt>
      <trkpt lat="43.9203415" lon="8.1030311">
        <ele>-7.9000000</ele>
        <time>2010-03-07T10:57:32Z</time>
      </trkpt>
      <trkpt lat="43.9203415" lon="8.1030302">
        <ele>-7.9000000</ele>
        <time>2010-03-07T10:57:34Z</time>
      </trkpt>
      <trkpt lat="43.9203377" lon="8.1030254">
        <ele>-7.9000000</ele>
        <time>2010-03-07T10:57:50Z</time>
      </trkpt>
      <trkpt lat="43.9203453" lon="8.1030207">
        <ele>-7.1000000</ele>
        <time>2010-03-07T11:00:04Z</time>
      </trkpt>
      <trkpt lat="43.9203453" lon="8.1030178">
        <ele>-7.1000000</ele>
        <time>2010-03-07T11:00:18Z</time>
      </trkpt>
      <trkpt lat="43.9203491" lon="8.1030169">
        <ele>-6.9000000</ele>
        <time>2010-03-07T11:00:36Z</time>
      </trkpt>
      <trkpt lat="43.9203491" lon="8.1030178">
        <ele>-7.0000000</ele>
        <time>2010-03-07T11:00:45Z</time>
      </trkpt>
      <trkpt lat="43.9203491" lon="8.1030178">
        <ele>-7.0000000</ele>
        <time>2010-03-07T11:00:57Z</time>
      </trkpt>
      <trkpt lat="43.9203491" lon="8.1030169">
        <ele>-6.5000000</ele>
        <time>2010-03-07T11:01:10Z</time>
      </trkpt>
      <trkpt lat="43.9203491" lon="8.1030178">
        <ele>-6.6000000</ele>
        <time>2010-03-07T11:01:13Z</time>
      </trkpt>
      <trkpt lat="43.9203758" lon="8.1030216">
        <ele>-6.5000000</ele>
        <time>2010-03-07T11:01:16Z</time>
      </trkpt>
      <trkpt lat="43.9204063" lon="8.1030274">
        <ele>-6.5000000</ele>
        <time>2010-03-07T11:01:21Z</time>
      </trkpt>
      <trkpt lat="43.9204292" lon="8.1030197">
        <ele>-6.7000000</ele>
        <time>2010-03-07T11:01:39Z</time>
      </trkpt>
      <trkpt lat="43.9204407" lon="8.1030187">
        <ele>-6.8000000</ele>
        <time>2010-03-07T11:01:52Z</time>
      </trkpt>
      <trkpt lat="43.9204407" lon="8.1030264">
        <ele>-6.7000000</ele>
        <time>2010-03-07T11:01:56Z</time>
      </trkpt>
      <trkpt lat="43.9204483" lon="8.1030398">
        <ele>-7.3000000</ele>
        <time>2010-03-07T11:02:09Z</time>
      </trkpt>
      <trkpt lat="43.9205017" lon="8.1030140">
        <ele>-6.4000000</ele>
        <time>2010-03-07T11:02:15Z</time>
      </trkpt>
      <trkpt lat="43.9205017" lon="8.1030130">
        <ele>-6.1000000</ele>
        <time>2010-03-07T11:02:18Z</time>
      </trkpt>
      <trkpt lat="43.9205017" lon="8.1030130">
        <ele>-6.0000000</ele>
        <time>2010-03-07T11:02:19Z</time>
      </trkpt>
      <trkpt lat="43.9205055" lon="8.1030226">
        <ele>-5.4000000</ele>
        <time>2010-03-07T11:02:34Z</time>
      </trkpt>
      <trkpt lat="43.9205017" lon="8.1030359">
        <ele>-5.7000000</ele>
        <time>2010-03-07T11:02:54Z</time>
      </trkpt>
      <trkpt lat="43.9205475" lon="8.1030159">
        <ele>-6.2000000</ele>
        <time>2010-03-07T11:03:06Z</time>
      </trkpt>
      <trkpt lat="43.9206238" lon="8.1029882">
        <ele>-6.5000000</ele>
        <time>2010-03-07T11:03:09Z</time>
      </trkpt>
      <trkpt lat="43.9207534" lon="8.1029511">
        <ele>-6.4000000</ele>
        <time>2010-03-07T11:03:14Z</time>
      </trkpt>
      <trkpt lat="43.9208145" lon="8.1030731">
        <ele>-6.3000000</ele>
        <time>2010-03-07T11:03:19Z</time>
      </trkpt>
      <trkpt lat="43.9208717" lon="8.1032867">
        <ele>-6.3000000</ele>
        <time>2010-03-07T11:03:26Z</time>
      </trkpt>
      <trkpt lat="43.9209518" lon="8.1035662">
        <ele>-6.1000000</ele>
        <time>2010-03-07T11:03:33Z</time>
      </trkpt>
      <trkpt lat="43.9210586" lon="8.1039458">
        <ele>-6.0000000</ele>
        <time>2010-03-07T11:03:42Z</time>
      </trkpt>
      <trkpt lat="43.9211616" lon="8.1043033">
        <ele>-6.5000000</ele>
        <time>2010-03-07T11:03:50Z</time>
      </trkpt>
      <trkpt lat="43.9212494" lon="8.1046381">
        <ele>-7.0000000</ele>
        <time>2010-03-07T11:03:57Z</time>
      </trkpt>
      <trkpt lat="43.9213180" lon="8.1049080">
        <ele>-6.6000000</ele>
        <time>2010-03-07T11:04:03Z</time>
      </trkpt>
      <trkpt lat="43.9214134" lon="8.1052590">
        <ele>-6.7000000</ele>
        <time>2010-03-07T11:04:11Z</time>
      </trkpt>
      <trkpt lat="43.9214936" lon="8.1055441">
        <ele>-6.6000000</ele>
        <time>2010-03-07T11:04:18Z</time>
      </trkpt>
      <trkpt lat="43.9216003" lon="8.1055527">
        <ele>-6.6000000</ele>
        <time>2010-03-07T11:04:22Z</time>
      </trkpt>
      <trkpt lat="43.9220009" lon="8.1052980">
        <ele>-5.4000000</ele>
        <time>2010-03-07T11:04:35Z</time>
      </trkpt>
      <trkpt lat="43.9222145" lon="8.1051893">
        <ele>-4.9000000</ele>
        <time>2010-03-07T11:04:42Z</time>
      </trkpt>
      <trkpt lat="43.9223328" lon="8.1051274">
        <ele>-4.6000000</ele>
        <time>2010-03-07T11:04:47Z</time>
      </trkpt>
      <trkpt lat="43.9223556" lon="8.1051159">
        <ele>-4.5000000</ele>
        <time>2010-03-07T11:04:48Z</time>
      </trkpt>
      <trkpt lat="43.9224167" lon="8.1051845">
        <ele>-4.3000000</ele>
        <time>2010-03-07T11:04:52Z</time>
      </trkpt>
      <trkpt lat="43.9225846" lon="8.1056061">
        <ele>-2.6000000</ele>
        <time>2010-03-07T11:05:04Z</time>
      </trkpt>
      <trkpt lat="43.9226532" lon="8.1058045">
        <ele>-2.4000000</ele>
        <time>2010-03-07T11:05:10Z</time>
      </trkpt>
      <trkpt lat="43.9227752" lon="8.1062127">
        <ele>-3.0000000</ele>
        <time>2010-03-07T11:05:21Z</time>
      </trkpt>
      <trkpt lat="43.9229088" lon="8.1066312">
        <ele>-2.4000000</ele>
        <time>2010-03-07T11:05:32Z</time>
      </trkpt>
      <trkpt lat="43.9229622" lon="8.1067905">
        <ele>-2.5000000</ele>
        <time>2010-03-07T11:05:36Z</time>
      </trkpt>
      <trkpt lat="43.9231033" lon="8.1072264">
        <ele>-4.3000000</ele>
        <time>2010-03-07T11:05:46Z</time>
      </trkpt>
      <trkpt lat="43.9230538" lon="8.1072549">
        <ele>-5.2000000</ele>
        <time>2010-03-07T11:05:49Z</time>
      </trkpt>
      <trkpt lat="43.9229355" lon="8.1071911">
        <ele>-6.1000000</ele>
        <time>2010-03-07T11:05:52Z</time>
      </trkpt>
      <trkpt lat="43.9227981" lon="8.1072016">
        <ele>-6.6000000</ele>
        <time>2010-03-07T11:05:55Z</time>
      </trkpt>
      <trkpt lat="43.9223633" lon="8.1074819">
        <ele>-6.7000000</ele>
        <time>2010-03-07T11:06:06Z</time>
      </trkpt>
      <trkpt lat="43.9220123" lon="8.1077242">
        <ele>-7.2000000</ele>
        <time>2010-03-07T11:06:15Z</time>
      </trkpt>
      <trkpt lat="43.9219780" lon="8.1077547">
        <ele>-7.3000000</ele>
        <time>2010-03-07T11:06:16Z</time>
      </trkpt>
      <trkpt lat="43.9217987" lon="8.1078034">
        <ele>-7.5000000</ele>
        <time>2010-03-07T11:06:21Z</time>
      </trkpt>
      <trkpt lat="43.9217224" lon="8.1076059">
        <ele>-7.8000000</ele>
        <time>2010-03-07T11:06:25Z</time>
      </trkpt>
      <trkpt lat="43.9216652" lon="8.1073389">
        <ele>-8.0000000</ele>
        <time>2010-03-07T11:06:30Z</time>
      </trkpt>
      <trkpt lat="43.9217605" lon="8.1071902">
        <ele>-8.1000000</ele>
        <time>2010-03-07T11:06:34Z</time>
      </trkpt>
      <trkpt lat="43.9219322" lon="8.1071072">
        <ele>-8.0000000</ele>
        <time>2010-03-07T11:06:39Z</time>
      </trkpt>
      <trkpt lat="43.9222603" lon="8.1068887">
        <ele>-7.2000000</ele>
        <time>2010-03-07T11:06:49Z</time>
      </trkpt>
      <trkpt lat="43.9224739" lon="8.1067085">
        <ele>-7.3000000</ele>
        <time>2010-03-07T11:06:56Z</time>
      </trkpt>
      <trkpt lat="43.9226341" lon="8.1066046">
        <ele>-7.1000000</ele>
        <time>2010-03-07T11:07:01Z</time>
      </trkpt>
      <trkpt lat="43.9228554" lon="8.1064406">
        <ele>-7.2000000</ele>
        <time>2010-03-07T11:07:09Z</time>
      </trkpt>
      <trkpt lat="43.9229279" lon="8.1064282">
        <ele>-7.2000000</ele>
        <time>2010-03-07T11:07:13Z</time>
      </trkpt>
      <trkpt lat="43.9230957" lon="8.1063585">
        <ele>-6.7000000</ele>
        <time>2010-03-07T11:07:19Z</time>
      </trkpt>
      <trkpt lat="43.9233055" lon="8.1062717">
        <ele>-6.0000000</ele>
        <time>2010-03-07T11:07:26Z</time>
      </trkpt>
      <trkpt lat="43.9234237" lon="8.1062622">
        <ele>-5.9000000</ele>
        <time>2010-03-07T11:07:30Z</time>
      </trkpt>
      <trkpt lat="43.9235039" lon="8.1063232">
        <ele>-5.6000000</ele>
        <time>2010-03-07T11:07:34Z</time>
      </trkpt>
      <trkpt lat="43.9235878" lon="8.1064939">
        <ele>-5.1000000</ele>
        <time>2010-03-07T11:07:40Z</time>
      </trkpt>
      <trkpt lat="43.9236946" lon="8.1067142">
        <ele>-4.7000000</ele>
        <time>2010-03-07T11:07:47Z</time>
      </trkpt>
      <trkpt lat="43.9237823" lon="8.1068182">
        <ele>-4.5000000</ele>
        <time>2010-03-07T11:07:51Z</time>
      </trkpt>
      <trkpt lat="43.9239540" lon="8.1067724">
        <ele>-4.4000000</ele>
        <time>2010-03-07T11:07:57Z</time>
      </trkpt>
      <trkpt lat="43.9242401" lon="8.1066513">
        <ele>-3.5000000</ele>
        <time>2010-03-07T11:08:07Z</time>
      </trkpt>
      <trkpt lat="43.9245186" lon="8.1065359">
        <ele>-3.2000000</ele>
        <time>2010-03-07T11:08:17Z</time>
      </trkpt>
      <trkpt lat="43.9246826" lon="8.1064672">
        <ele>-2.3000000</ele>
        <time>2010-03-07T11:08:23Z</time>
      </trkpt>
      <trkpt lat="43.9248504" lon="8.1063013">
        <ele>-2.2000000</ele>
        <time>2010-03-07T11:08:30Z</time>
      </trkpt>
      <trkpt lat="43.9251099" lon="8.1061439">
        <ele>-2.6000000</ele>
        <time>2010-03-07T11:08:39Z</time>
      </trkpt>
      <trkpt lat="43.9252854" lon="8.1060972">
        <ele>-2.1000000</ele>
        <time>2010-03-07T11:08:45Z</time>
      </trkpt>
      <trkpt lat="43.9255257" lon="8.1061334">
        <ele>-1.2000000</ele>
        <time>2010-03-07T11:08:53Z</time>
      </trkpt>
      <trkpt lat="43.9258041" lon="8.1061716">
        <ele>-1.1000000</ele>
        <time>2010-03-07T11:09:03Z</time>
      </trkpt>
      <trkpt lat="43.9260826" lon="8.1062184">
        <ele>-0.2000000</ele>
        <time>2010-03-07T11:09:13Z</time>
      </trkpt>
      <trkpt lat="43.9263267" lon="8.1062526">
        <ele>0.2000000</ele>
        <time>2010-03-07T11:09:22Z</time>
      </trkpt>
      <trkpt lat="43.9265404" lon="8.1062432">
        <ele>0.9000000</ele>
        <time>2010-03-07T11:09:30Z</time>
      </trkpt>
      <trkpt lat="43.9267693" lon="8.1061487">
        <ele>1.4000000</ele>
        <time>2010-03-07T11:09:38Z</time>
      </trkpt>
      <trkpt lat="43.9270668" lon="8.1060181">
        <ele>0.9000000</ele>
        <time>2010-03-07T11:09:47Z</time>
      </trkpt>
      <trkpt lat="43.9273338" lon="8.1059446">
        <ele>1.4000000</ele>
        <time>2010-03-07T11:09:56Z</time>
      </trkpt>
      <trkpt lat="43.9275665" lon="8.1058960">
        <ele>2.1000000</ele>
        <time>2010-03-07T11:10:04Z</time>
      </trkpt>
      <trkpt lat="43.9278259" lon="8.1058340">
        <ele>2.9000000</ele>
        <time>2010-03-07T11:10:13Z</time>
      </trkpt>
      <trkpt lat="43.9280891" lon="8.1057806">
        <ele>3.1000000</ele>
        <time>2010-03-07T11:10:22Z</time>
      </trkpt>
      <trkpt lat="43.9284058" lon="8.1057100">
        <ele>4.2000000</ele>
        <time>2010-03-07T11:10:33Z</time>
      </trkpt>
      <trkpt lat="43.9286728" lon="8.1056461">
        <ele>4.4000000</ele>
        <time>2010-03-07T11:10:42Z</time>
      </trkpt>
      <trkpt lat="43.9289093" lon="8.1056309">
        <ele>5.1000000</ele>
        <time>2010-03-07T11:10:50Z</time>
      </trkpt>
      <trkpt lat="43.9291840" lon="8.1056280">
        <ele>4.9000000</ele>
        <time>2010-03-07T11:10:59Z</time>
      </trkpt>
      <trkpt lat="43.9294663" lon="8.1055851">
        <ele>5.4000000</ele>
        <time>2010-03-07T11:11:08Z</time>
      </trkpt>
      <trkpt lat="43.9296952" lon="8.1055498">
        <ele>6.4000000</ele>
        <time>2010-03-07T11:11:16Z</time>
      </trkpt>
      <trkpt lat="43.9297867" lon="8.1055250">
        <ele>6.2000000</ele>
        <time>2010-03-07T11:11:21Z</time>
      </trkpt>
      <trkpt lat="43.9297828" lon="8.1055307">
        <ele>6.0000000</ele>
        <time>2010-03-07T11:11:38Z</time>
      </trkpt>
      <trkpt lat="43.9297828" lon="8.1055317">
        <ele>6.1000000</ele>
        <time>2010-03-07T11:11:40Z</time>
      </trkpt>
      <trkpt lat="43.9297828" lon="8.1055326">
        <ele>6.5000000</ele>
        <time>2010-03-07T11:11:47Z</time>
      </trkpt>
      <trkpt lat="43.9297828" lon="8.1055336">
        <ele>6.3000000</ele>
        <time>2010-03-07T11:11:55Z</time>
      </trkpt>
      <trkpt lat="43.9297828" lon="8.1055326">
        <ele>6.2000000</ele>
        <time>2010-03-07T11:12:15Z</time>
      </trkpt>
      <trkpt lat="43.9297828" lon="8.1055336">
        <ele>6.4000000</ele>
        <time>2010-03-07T11:12:34Z</time>
      </trkpt>
      <trkpt lat="43.9297828" lon="8.1055336">
        <ele>6.2000000</ele>
        <time>2010-03-07T11:12:45Z</time>
      </trkpt>
      <trkpt lat="43.9297828" lon="8.1055336">
        <ele>6.5000000</ele>
        <time>2010-03-07T11:12:50Z</time>
      </trkpt>
      <trkpt lat="43.9297828" lon="8.1055346">
        <ele>6.5000000</ele>
        <time>2010-03-07T11:13:01Z</time>
      </trkpt>
      <trkpt lat="43.9297867" lon="8.1055307">
        <ele>6.8000000</ele>
        <time>2010-03-07T11:13:21Z</time>
      </trkpt>
      <trkpt lat="43.9299279" lon="8.1055002">
        <ele>6.4000000</ele>
        <time>2010-03-07T11:13:26Z</time>
      </trkpt>
      <trkpt lat="43.9300804" lon="8.1054888">
        <ele>6.3000000</ele>
        <time>2010-03-07T11:13:30Z</time>
      </trkpt>
      <trkpt lat="43.9302292" lon="8.1054773">
        <ele>6.6000000</ele>
        <time>2010-03-07T11:13:34Z</time>
      </trkpt>
      <trkpt lat="43.9304886" lon="8.1054420">
        <ele>6.9000000</ele>
        <time>2010-03-07T11:13:41Z</time>
      </trkpt>
      <trkpt lat="43.9307709" lon="8.1053982">
        <ele>7.4000000</ele>
        <time>2010-03-07T11:13:49Z</time>
      </trkpt>
      <trkpt lat="43.9309845" lon="8.1054602">
        <ele>7.8000000</ele>
        <time>2010-03-07T11:13:56Z</time>
      </trkpt>
      <trkpt lat="43.9312591" lon="8.1055060">
        <ele>8.6000000</ele>
        <time>2010-03-07T11:14:05Z</time>
      </trkpt>
      <trkpt lat="43.9315300" lon="8.1054487">
        <ele>9.6000000</ele>
        <time>2010-03-07T11:14:14Z</time>
      </trkpt>
      <trkpt lat="43.9317780" lon="8.1054010">
        <ele>10.0000000</ele>
        <time>2010-03-07T11:14:22Z</time>
      </trkpt>
      <trkpt lat="43.9321594" lon="8.1052942">
        <ele>10.9000000</ele>
        <time>2010-03-07T11:14:34Z</time>
      </trkpt>
      <trkpt lat="43.9324112" lon="8.1052818">
        <ele>11.1000000</ele>
        <time>2010-03-07T11:14:42Z</time>
      </trkpt>
      <trkpt lat="43.9326592" lon="8.1052904">
        <ele>11.2000000</ele>
        <time>2010-03-07T11:14:50Z</time>
      </trkpt>
      <trkpt lat="43.9330101" lon="8.1052866">
        <ele>12.1000000</ele>
        <time>2010-03-07T11:15:01Z</time>
      </trkpt>
      <trkpt lat="43.9332618" lon="8.1052599">
        <ele>12.5000000</ele>
        <time>2010-03-07T11:15:09Z</time>
      </trkpt>
      <trkpt lat="43.9335747" lon="8.1051540">
        <ele>12.9000000</ele>
        <time>2010-03-07T11:15:19Z</time>
      </trkpt>
      <trkpt lat="43.9337692" lon="8.1050949">
        <ele>13.1000000</ele>
        <time>2010-03-07T11:15:25Z</time>
      </trkpt>
      <trkpt lat="43.9340210" lon="8.1050129">
        <ele>13.4000000</ele>
        <time>2010-03-07T11:15:33Z</time>
      </trkpt>
      <trkpt lat="43.9342155" lon="8.1049652">
        <ele>13.7000000</ele>
        <time>2010-03-07T11:15:39Z</time>
      </trkpt>
      <trkpt lat="43.9344368" lon="8.1048946">
        <ele>14.0000000</ele>
        <time>2010-03-07T11:15:46Z</time>
      </trkpt>
      <trkpt lat="43.9347229" lon="8.1048203">
        <ele>15.6000000</ele>
        <time>2010-03-07T11:15:56Z</time>
      </trkpt>
      <trkpt lat="43.9348679" lon="8.1047745">
        <ele>15.3000000</ele>
        <time>2010-03-07T11:16:02Z</time>
      </trkpt>
      <trkpt lat="43.9350510" lon="8.1047678">
        <ele>16.6000000</ele>
        <time>2010-03-07T11:16:10Z</time>
      </trkpt>
      <trkpt lat="43.9352760" lon="8.1047545">
        <ele>17.6000000</ele>
        <time>2010-03-07T11:16:18Z</time>
      </trkpt>
      <trkpt lat="43.9355087" lon="8.1047582">
        <ele>18.9000000</ele>
        <time>2010-03-07T11:16:27Z</time>
      </trkpt>
      <trkpt lat="43.9357415" lon="8.1046906">
        <ele>19.6000000</ele>
        <time>2010-03-07T11:16:35Z</time>
      </trkpt>
      <trkpt lat="43.9360199" lon="8.1046009">
        <ele>18.3000000</ele>
        <time>2010-03-07T11:16:43Z</time>
      </trkpt>
      <trkpt lat="43.9362564" lon="8.1045904">
        <ele>18.2000000</ele>
        <time>2010-03-07T11:16:50Z</time>
      </trkpt>
      <trkpt lat="43.9365158" lon="8.1045980">
        <ele>19.2000000</ele>
        <time>2010-03-07T11:16:59Z</time>
      </trkpt>
      <trkpt lat="43.9366493" lon="8.1045809">
        <ele>19.5000000</ele>
        <time>2010-03-07T11:17:04Z</time>
      </trkpt>
      <trkpt lat="43.9368706" lon="8.1045189">
        <ele>19.7000000</ele>
        <time>2010-03-07T11:17:12Z</time>
      </trkpt>
      <trkpt lat="43.9371300" lon="8.1044273">
        <ele>19.7000000</ele>
        <time>2010-03-07T11:17:21Z</time>
      </trkpt>
      <trkpt lat="43.9373703" lon="8.1042957">
        <ele>20.1000000</ele>
        <time>2010-03-07T11:17:30Z</time>
      </trkpt>
      <trkpt lat="43.9375992" lon="8.1041288">
        <ele>20.7000000</ele>
        <time>2010-03-07T11:17:39Z</time>
      </trkpt>
      <trkpt lat="43.9377747" lon="8.1040106">
        <ele>21.7000000</ele>
        <time>2010-03-07T11:17:47Z</time>
      </trkpt>
      <trkpt lat="43.9379387" lon="8.1039009">
        <ele>23.3000000</ele>
        <time>2010-03-07T11:17:55Z</time>
      </trkpt>
      <trkpt lat="43.9381066" lon="8.1037894">
        <ele>25.4000000</ele>
        <time>2010-03-07T11:18:04Z</time>
      </trkpt>
      <trkpt lat="43.9382362" lon="8.1037140">
        <ele>26.7000000</ele>
        <time>2010-03-07T11:18:11Z</time>
      </trkpt>
      <trkpt lat="43.9383735" lon="8.1036348">
        <ele>27.7000000</ele>
        <time>2010-03-07T11:18:18Z</time>
      </trkpt>
      <trkpt lat="43.9384422" lon="8.1036186">
        <ele>28.3000000</ele>
        <time>2010-03-07T11:18:21Z</time>
      </trkpt>
      <trkpt lat="43.9385223" lon="8.1037273">
        <ele>28.9000000</ele>
        <time>2010-03-07T11:18:26Z</time>
      </trkpt>
      <trkpt lat="43.9386062" lon="8.1039400">
        <ele>29.2000000</ele>
        <time>2010-03-07T11:18:33Z</time>
      </trkpt>
      <trkpt lat="43.9386978" lon="8.1042586">
        <ele>30.0000000</ele>
        <time>2010-03-07T11:18:42Z</time>
      </trkpt>
      <trkpt lat="43.9386978" lon="8.1044617">
        <ele>30.8000000</ele>
        <time>2010-03-07T11:18:48Z</time>
      </trkpt>
      <trkpt lat="43.9386177" lon="8.1046048">
        <ele>31.9000000</ele>
        <time>2010-03-07T11:18:54Z</time>
      </trkpt>
      <trkpt lat="43.9384575" lon="8.1048307">
        <ele>33.5000000</ele>
        <time>2010-03-07T11:19:04Z</time>
      </trkpt>
      <trkpt lat="43.9383735" lon="8.1049862">
        <ele>34.3000000</ele>
        <time>2010-03-07T11:19:10Z</time>
      </trkpt>
      <trkpt lat="43.9383545" lon="8.1051827">
        <ele>35.4000000</ele>
        <time>2010-03-07T11:19:17Z</time>
      </trkpt>
      <trkpt lat="43.9384346" lon="8.1053228">
        <ele>35.9000000</ele>
        <time>2010-03-07T11:19:23Z</time>
      </trkpt>
      <trkpt lat="43.9385986" lon="8.1054631">
        <ele>36.9000000</ele>
        <time>2010-03-07T11:19:31Z</time>
      </trkpt>
      <trkpt lat="43.9387931" lon="8.1055317">
        <ele>37.4000000</ele>
        <time>2010-03-07T11:19:39Z</time>
      </trkpt>
      <trkpt lat="43.9390297" lon="8.1056004">
        <ele>38.6000000</ele>
        <time>2010-03-07T11:19:49Z</time>
      </trkpt>
      <trkpt lat="43.9392776" lon="8.1056738">
        <ele>39.5000000</ele>
        <time>2010-03-07T11:19:59Z</time>
      </trkpt>
      <trkpt lat="43.9395447" lon="8.1057558">
        <ele>40.7000000</ele>
        <time>2010-03-07T11:20:10Z</time>
      </trkpt>
      <trkpt lat="43.9397697" lon="8.1058884">
        <ele>41.6000000</ele>
        <time>2010-03-07T11:20:20Z</time>
      </trkpt>
      <trkpt lat="43.9399223" lon="8.1060219">
        <ele>43.6000000</ele>
        <time>2010-03-07T11:20:28Z</time>
      </trkpt>
      <trkpt lat="43.9400864" lon="8.1062012">
        <ele>45.3000000</ele>
        <time>2010-03-07T11:20:38Z</time>
      </trkpt>
      <trkpt lat="43.9402275" lon="8.1063624">
        <ele>46.6000000</ele>
        <time>2010-03-07T11:20:47Z</time>
      </trkpt>
      <trkpt lat="43.9403419" lon="8.1064758">
        <ele>47.8000000</ele>
        <time>2010-03-07T11:20:54Z</time>
      </trkpt>
      <trkpt lat="43.9404907" lon="8.1065750">
        <ele>49.0000000</ele>
        <time>2010-03-07T11:21:02Z</time>
      </trkpt>
      <trkpt lat="43.9406509" lon="8.1066846">
        <ele>49.9000000</ele>
        <time>2010-03-07T11:21:11Z</time>
      </trkpt>
      <trkpt lat="43.9408378" lon="8.1067752">
        <ele>52.0000000</ele>
        <time>2010-03-07T11:21:21Z</time>
      </trkpt>
      <trkpt lat="43.9410057" lon="8.1068649">
        <ele>53.5000000</ele>
        <time>2010-03-07T11:21:30Z</time>
      </trkpt>
      <trkpt lat="43.9411506" lon="8.1069498">
        <ele>54.7000000</ele>
        <time>2010-03-07T11:21:38Z</time>
      </trkpt>
      <trkpt lat="43.9412765" lon="8.1070538">
        <ele>56.0000000</ele>
        <time>2010-03-07T11:21:46Z</time>
      </trkpt>
      <trkpt lat="43.9414139" lon="8.1071921">
        <ele>57.9000000</ele>
        <time>2010-03-07T11:21:55Z</time>
      </trkpt>
      <trkpt lat="43.9415703" lon="8.1073322">
        <ele>58.7000000</ele>
        <time>2010-03-07T11:22:04Z</time>
      </trkpt>
      <trkpt lat="43.9417038" lon="8.1074714">
        <ele>60.2000000</ele>
        <time>2010-03-07T11:22:13Z</time>
      </trkpt>
      <trkpt lat="43.9418449" lon="8.1076269">
        <ele>61.6000000</ele>
        <time>2010-03-07T11:22:22Z</time>
      </trkpt>
      <trkpt lat="43.9419479" lon="8.1077642">
        <ele>62.4000000</ele>
        <time>2010-03-07T11:22:29Z</time>
      </trkpt>
      <trkpt lat="43.9420433" lon="8.1078968">
        <ele>63.6000000</ele>
        <time>2010-03-07T11:22:36Z</time>
      </trkpt>
      <trkpt lat="43.9421692" lon="8.1080103">
        <ele>65.5000000</ele>
        <time>2010-03-07T11:22:44Z</time>
      </trkpt>
      <trkpt lat="43.9422341" lon="8.1079407">
        <ele>66.0000000</ele>
        <time>2010-03-07T11:22:49Z</time>
      </trkpt>
      <trkpt lat="43.9421997" lon="8.1078252">
        <ele>66.6000000</ele>
        <time>2010-03-07T11:22:54Z</time>
      </trkpt>
      <trkpt lat="43.9421806" lon="8.1078052">
        <ele>66.8000000</ele>
        <time>2010-03-07T11:22:55Z</time>
      </trkpt>
      <trkpt lat="43.9420471" lon="8.1076584">
        <ele>67.4000000</ele>
        <time>2010-03-07T11:23:03Z</time>
      </trkpt>
      <trkpt lat="43.9419289" lon="8.1075277">
        <ele>68.3000000</ele>
        <time>2010-03-07T11:23:10Z</time>
      </trkpt>
      <trkpt lat="43.9418564" lon="8.1074171">
        <ele>68.8000000</ele>
        <time>2010-03-07T11:23:15Z</time>
      </trkpt>
      <trkpt lat="43.9417267" lon="8.1072359">
        <ele>70.0000000</ele>
        <time>2010-03-07T11:23:23Z</time>
      </trkpt>
      <trkpt lat="43.9416427" lon="8.1070948">
        <ele>70.5000000</ele>
        <time>2010-03-07T11:23:29Z</time>
      </trkpt>
      <trkpt lat="43.9415322" lon="8.1069364">
        <ele>71.4000000</ele>
        <time>2010-03-07T11:23:36Z</time>
      </trkpt>
      <trkpt lat="43.9414634" lon="8.1068287">
        <ele>72.1000000</ele>
        <time>2010-03-07T11:23:41Z</time>
      </trkpt>
      <trkpt lat="43.9413872" lon="8.1066837">
        <ele>72.9000000</ele>
        <time>2010-03-07T11:23:47Z</time>
      </trkpt>
      <trkpt lat="43.9413185" lon="8.1065464">
        <ele>73.9000000</ele>
        <time>2010-03-07T11:23:53Z</time>
      </trkpt>
      <trkpt lat="43.9412536" lon="8.1064339">
        <ele>74.5000000</ele>
        <time>2010-03-07T11:23:58Z</time>
      </trkpt>
      <trkpt lat="43.9411278" lon="8.1062336">
        <ele>76.1000000</ele>
        <time>2010-03-07T11:24:07Z</time>
      </trkpt>
      <trkpt lat="43.9410057" lon="8.1060276">
        <ele>77.3000000</ele>
        <time>2010-03-07T11:24:16Z</time>
      </trkpt>
      <trkpt lat="43.9408454" lon="8.1058960">
        <ele>78.0000000</ele>
        <time>2010-03-07T11:24:24Z</time>
      </trkpt>
      <trkpt lat="43.9406776" lon="8.1057577">
        <ele>78.5000000</ele>
        <time>2010-03-07T11:24:32Z</time>
      </trkpt>
      <trkpt lat="43.9404716" lon="8.1055718">
        <ele>80.1000000</ele>
        <time>2010-03-07T11:24:42Z</time>
      </trkpt>
      <trkpt lat="43.9404145" lon="8.1053810">
        <ele>80.8000000</ele>
        <time>2010-03-07T11:24:48Z</time>
      </trkpt>
      <trkpt lat="43.9404640" lon="8.1051187">
        <ele>81.8000000</ele>
        <time>2010-03-07T11:24:56Z</time>
      </trkpt>
      <trkpt lat="43.9405327" lon="8.1049233">
        <ele>82.2000000</ele>
        <time>2010-03-07T11:25:03Z</time>
      </trkpt>
      <trkpt lat="43.9406395" lon="8.1047172">
        <ele>83.7000000</ele>
        <time>2010-03-07T11:25:11Z</time>
      </trkpt>
      <trkpt lat="43.9408073" lon="8.1045427">
        <ele>84.6000000</ele>
        <time>2010-03-07T11:25:20Z</time>
      </trkpt>
      <trkpt lat="43.9409866" lon="8.1045027">
        <ele>85.5000000</ele>
        <time>2010-03-07T11:25:28Z</time>
      </trkpt>
      <trkpt lat="43.9411240" lon="8.1045208">
        <ele>86.9000000</ele>
        <time>2010-03-07T11:25:35Z</time>
      </trkpt>
      <trkpt lat="43.9412842" lon="8.1045379">
        <ele>88.2000000</ele>
        <time>2010-03-07T11:25:43Z</time>
      </trkpt>
      <trkpt lat="43.9414063" lon="8.1045665">
        <ele>89.2000000</ele>
        <time>2010-03-07T11:25:49Z</time>
      </trkpt>
      <trkpt lat="43.9415397" lon="8.1045913">
        <ele>90.2000000</ele>
        <time>2010-03-07T11:25:56Z</time>
      </trkpt>
      <trkpt lat="43.9417000" lon="8.1046000">
        <ele>91.0000000</ele>
        <time>2010-03-07T11:26:03Z</time>
      </trkpt>
      <trkpt lat="43.9418259" lon="8.1045752">
        <ele>91.8000000</ele>
        <time>2010-03-07T11:26:09Z</time>
      </trkpt>
      <trkpt lat="43.9419403" lon="8.1045332">
        <ele>92.7000000</ele>
        <time>2010-03-07T11:26:15Z</time>
      </trkpt>
      <trkpt lat="43.9420624" lon="8.1045037">
        <ele>93.4000000</ele>
        <time>2010-03-07T11:26:21Z</time>
      </trkpt>
      <trkpt lat="43.9422531" lon="8.1044225">
        <ele>94.8000000</ele>
        <time>2010-03-07T11:26:30Z</time>
      </trkpt>
      <trkpt lat="43.9423866" lon="8.1044131">
        <ele>95.7000000</ele>
        <time>2010-03-07T11:26:37Z</time>
      </trkpt>
      <trkpt lat="43.9425239" lon="8.1044779">
        <ele>97.1000000</ele>
        <time>2010-03-07T11:26:45Z</time>
      </trkpt>
      <trkpt lat="43.9426384" lon="8.1045379">
        <ele>97.9000000</ele>
        <time>2010-03-07T11:26:52Z</time>
      </trkpt>
      <trkpt lat="43.9427414" lon="8.1046057">
        <ele>98.7000000</ele>
        <time>2010-03-07T11:26:58Z</time>
      </trkpt>
      <trkpt lat="43.9428444" lon="8.1046610">
        <ele>99.4000000</ele>
        <time>2010-03-07T11:27:04Z</time>
      </trkpt>
      <trkpt lat="43.9429703" lon="8.1047335">
        <ele>100.0000000</ele>
        <time>2010-03-07T11:27:11Z</time>
      </trkpt>
      <trkpt lat="43.9431153" lon="8.1048021">
        <ele>100.9000000</ele>
        <time>2010-03-07T11:27:18Z</time>
      </trkpt>
      <trkpt lat="43.9433288" lon="8.1048393">
        <ele>102.1000000</ele>
        <time>2010-03-07T11:27:28Z</time>
      </trkpt>
      <trkpt lat="43.9435196" lon="8.1048241">
        <ele>103.2000000</ele>
        <time>2010-03-07T11:27:37Z</time>
      </trkpt>
      <trkpt lat="43.9436760" lon="8.1048031">
        <ele>104.3000000</ele>
        <time>2010-03-07T11:27:45Z</time>
      </trkpt>
      <trkpt lat="43.9438743" lon="8.1047764">
        <ele>105.7000000</ele>
        <time>2010-03-07T11:27:55Z</time>
      </trkpt>
      <trkpt lat="43.9440422" lon="8.1048298">
        <ele>107.0000000</ele>
        <time>2010-03-07T11:28:04Z</time>
      </trkpt>
      <trkpt lat="43.9441986" lon="8.1049099">
        <ele>108.3000000</ele>
        <time>2010-03-07T11:28:12Z</time>
      </trkpt>
      <trkpt lat="43.9443817" lon="8.1049919">
        <ele>109.2000000</ele>
        <time>2010-03-07T11:28:21Z</time>
      </trkpt>
      <trkpt lat="43.9445610" lon="8.1050577">
        <ele>110.5000000</ele>
        <time>2010-03-07T11:28:30Z</time>
      </trkpt>
      <trkpt lat="43.9446984" lon="8.1050958">
        <ele>111.3000000</ele>
        <time>2010-03-07T11:28:37Z</time>
      </trkpt>
      <trkpt lat="43.9448319" lon="8.1051464">
        <ele>112.2000000</ele>
        <time>2010-03-07T11:28:45Z</time>
      </trkpt>
      <trkpt lat="43.9449959" lon="8.1051922">
        <ele>113.3000000</ele>
        <time>2010-03-07T11:28:53Z</time>
      </trkpt>
      <trkpt lat="43.9451408" lon="8.1052026">
        <ele>115.4000000</ele>
        <time>2010-03-07T11:29:00Z</time>
      </trkpt>
      <trkpt lat="43.9453239" lon="8.1051751">
        <ele>116.9000000</ele>
        <time>2010-03-07T11:29:08Z</time>
      </trkpt>
      <trkpt lat="43.9453697" lon="8.1052237">
        <ele>117.3000000</ele>
        <time>2010-03-07T11:29:11Z</time>
      </trkpt>
      <trkpt lat="43.9453430" lon="8.1053391">
        <ele>117.7000000</ele>
        <time>2010-03-07T11:29:16Z</time>
      </trkpt>
      <trkpt lat="43.9452171" lon="8.1053629">
        <ele>118.4000000</ele>
        <time>2010-03-07T11:29:22Z</time>
      </trkpt>
      <trkpt lat="43.9450417" lon="8.1053438">
        <ele>119.2000000</ele>
        <time>2010-03-07T11:29:30Z</time>
      </trkpt>
      <trkpt lat="43.9448014" lon="8.1053572">
        <ele>120.9000000</ele>
        <time>2010-03-07T11:29:41Z</time>
      </trkpt>
      <trkpt lat="43.9445915" lon="8.1054058">
        <ele>122.1000000</ele>
        <time>2010-03-07T11:29:51Z</time>
      </trkpt>
      <trkpt lat="43.9443932" lon="8.1054478">
        <ele>123.8000000</ele>
        <time>2010-03-07T11:30:01Z</time>
      </trkpt>
      <trkpt lat="43.9441681" lon="8.1055021">
        <ele>125.4000000</ele>
        <time>2010-03-07T11:30:12Z</time>
      </trkpt>
      <trkpt lat="43.9439850" lon="8.1055708">
        <ele>126.8000000</ele>
        <time>2010-03-07T11:30:21Z</time>
      </trkpt>
      <trkpt lat="43.9437904" lon="8.1056671">
        <ele>128.3000000</ele>
        <time>2010-03-07T11:30:31Z</time>
      </trkpt>
      <trkpt lat="43.9436074" lon="8.1057387">
        <ele>129.6000000</ele>
        <time>2010-03-07T11:30:40Z</time>
      </trkpt>
      <trkpt lat="43.9434242" lon="8.1057739">
        <ele>130.6000000</ele>
        <time>2010-03-07T11:30:49Z</time>
      </trkpt>
      <trkpt lat="43.9433251" lon="8.1057892">
        <ele>131.8000000</ele>
        <time>2010-03-07T11:30:54Z</time>
      </trkpt>
      <trkpt lat="43.9431724" lon="8.1057940">
        <ele>132.4000000</ele>
        <time>2010-03-07T11:31:01Z</time>
      </trkpt>
      <trkpt lat="43.9429779" lon="8.1057863">
        <ele>133.6000000</ele>
        <time>2010-03-07T11:31:10Z</time>
      </trkpt>
      <trkpt lat="43.9428139" lon="8.1057663">
        <ele>134.2000000</ele>
        <time>2010-03-07T11:31:17Z</time>
      </trkpt>
      <trkpt lat="43.9426117" lon="8.1058149">
        <ele>135.3000000</ele>
        <time>2010-03-07T11:31:26Z</time>
      </trkpt>
      <trkpt lat="43.9425354" lon="8.1059561">
        <ele>136.3000000</ele>
        <time>2010-03-07T11:31:32Z</time>
      </trkpt>
      <trkpt lat="43.9425354" lon="8.1061020">
        <ele>136.9000000</ele>
        <time>2010-03-07T11:31:37Z</time>
      </trkpt>
      <trkpt lat="43.9426346" lon="8.1063090">
        <ele>137.9000000</ele>
        <time>2010-03-07T11:31:45Z</time>
      </trkpt>
      <trkpt lat="43.9428062" lon="8.1064510">
        <ele>138.4000000</ele>
        <time>2010-03-07T11:31:52Z</time>
      </trkpt>
      <trkpt lat="43.9429817" lon="8.1065378">
        <ele>139.0000000</ele>
        <time>2010-03-07T11:31:58Z</time>
      </trkpt>
      <trkpt lat="43.9431915" lon="8.1064796">
        <ele>138.7000000</ele>
        <time>2010-03-07T11:32:05Z</time>
      </trkpt>
      <trkpt lat="43.9433251" lon="8.1064177">
        <ele>138.8000000</ele>
        <time>2010-03-07T11:32:10Z</time>
      </trkpt>
      <trkpt lat="43.9434967" lon="8.1063280">
        <ele>139.4000000</ele>
        <time>2010-03-07T11:32:16Z</time>
      </trkpt>
      <trkpt lat="43.9437408" lon="8.1062727">
        <ele>140.2000000</ele>
        <time>2010-03-07T11:32:24Z</time>
      </trkpt>
      <trkpt lat="43.9439773" lon="8.1063147">
        <ele>141.5000000</ele>
        <time>2010-03-07T11:32:33Z</time>
      </trkpt>
      <trkpt lat="43.9441605" lon="8.1063556">
        <ele>142.6000000</ele>
        <time>2010-03-07T11:32:42Z</time>
      </trkpt>
      <trkpt lat="43.9443283" lon="8.1064053">
        <ele>143.9000000</ele>
        <time>2010-03-07T11:32:51Z</time>
      </trkpt>
      <trkpt lat="43.9444923" lon="8.1064691">
        <ele>145.0000000</ele>
        <time>2010-03-07T11:33:00Z</time>
      </trkpt>
      <trkpt lat="43.9446602" lon="8.1065378">
        <ele>146.5000000</ele>
        <time>2010-03-07T11:33:09Z</time>
      </trkpt>
      <trkpt lat="43.9448014" lon="8.1066094">
        <ele>148.1000000</ele>
        <time>2010-03-07T11:33:17Z</time>
      </trkpt>
      <trkpt lat="43.9449463" lon="8.1066837">
        <ele>149.1000000</ele>
        <time>2010-03-07T11:33:25Z</time>
      </trkpt>
      <trkpt lat="43.9451332" lon="8.1067514">
        <ele>150.4000000</ele>
        <time>2010-03-07T11:33:35Z</time>
      </trkpt>
      <trkpt lat="43.9453163" lon="8.1068192">
        <ele>152.8000000</ele>
        <time>2010-03-07T11:33:45Z</time>
      </trkpt>
      <trkpt lat="43.9454765" lon="8.1068850">
        <ele>152.9000000</ele>
        <time>2010-03-07T11:33:54Z</time>
      </trkpt>
      <trkpt lat="43.9456177" lon="8.1069422">
        <ele>154.6000000</ele>
        <time>2010-03-07T11:34:02Z</time>
      </trkpt>
      <trkpt lat="43.9458427" lon="8.1070061">
        <ele>156.7000000</ele>
        <time>2010-03-07T11:34:14Z</time>
      </trkpt>
      <trkpt lat="43.9460220" lon="8.1069784">
        <ele>157.5000000</ele>
        <time>2010-03-07T11:34:23Z</time>
      </trkpt>
      <trkpt lat="43.9461899" lon="8.1068344">
        <ele>158.8000000</ele>
        <time>2010-03-07T11:34:32Z</time>
      </trkpt>
      <trkpt lat="43.9463272" lon="8.1066360">
        <ele>160.4000000</ele>
        <time>2010-03-07T11:34:41Z</time>
      </trkpt>
      <trkpt lat="43.9464264" lon="8.1063728">
        <ele>161.5000000</ele>
        <time>2010-03-07T11:34:51Z</time>
      </trkpt>
      <trkpt lat="43.9465638" lon="8.1061868">
        <ele>162.5000000</ele>
        <time>2010-03-07T11:35:00Z</time>
      </trkpt>
      <trkpt lat="43.9466858" lon="8.1061744">
        <ele>163.2000000</ele>
        <time>2010-03-07T11:35:06Z</time>
      </trkpt>
      <trkpt lat="43.9468842" lon="8.1061821">
        <ele>164.3000000</ele>
        <time>2010-03-07T11:35:15Z</time>
      </trkpt>
      <trkpt lat="43.9470825" lon="8.1061802">
        <ele>165.2000000</ele>
        <time>2010-03-07T11:35:24Z</time>
      </trkpt>
      <trkpt lat="43.9473267" lon="8.1061334">
        <ele>166.7000000</ele>
        <time>2010-03-07T11:35:35Z</time>
      </trkpt>
      <trkpt lat="43.9474563" lon="8.1060772">
        <ele>166.6000000</ele>
        <time>2010-03-07T11:35:41Z</time>
      </trkpt>
      <trkpt lat="43.9474792" lon="8.1060753">
        <ele>166.6000000</ele>
        <time>2010-03-07T11:35:42Z</time>
      </trkpt>
      <trkpt lat="43.9475288" lon="8.1061526">
        <ele>166.8000000</ele>
        <time>2010-03-07T11:35:47Z</time>
      </trkpt>
      <trkpt lat="43.9474678" lon="8.1061983">
        <ele>167.9000000</ele>
        <time>2010-03-07T11:35:51Z</time>
      </trkpt>
      <trkpt lat="43.9474449" lon="8.1062002">
        <ele>168.0000000</ele>
        <time>2010-03-07T11:35:52Z</time>
      </trkpt>
      <trkpt lat="43.9472618" lon="8.1062469">
        <ele>169.2000000</ele>
        <time>2010-03-07T11:36:00Z</time>
      </trkpt>
      <trkpt lat="43.9470100" lon="8.1063499">
        <ele>171.4000000</ele>
        <time>2010-03-07T11:36:11Z</time>
      </trkpt>
      <trkpt lat="43.9468956" lon="8.1064977">
        <ele>172.7000000</ele>
        <time>2010-03-07T11:36:18Z</time>
      </trkpt>
      <trkpt lat="43.9468383" lon="8.1067495">
        <ele>174.0000000</ele>
        <time>2010-03-07T11:36:26Z</time>
      </trkpt>
      <trkpt lat="43.9468766" lon="8.1070070">
        <ele>174.5000000</ele>
        <time>2010-03-07T11:36:34Z</time>
      </trkpt>
      <trkpt lat="43.9469833" lon="8.1073046">
        <ele>175.5000000</ele>
        <time>2010-03-07T11:36:45Z</time>
      </trkpt>
      <trkpt lat="43.9470825" lon="8.1075306">
        <ele>176.7000000</ele>
        <time>2010-03-07T11:36:54Z</time>
      </trkpt>
      <trkpt lat="43.9471664" lon="8.1077337">
        <ele>177.9000000</ele>
        <time>2010-03-07T11:37:02Z</time>
      </trkpt>
      <trkpt lat="43.9472694" lon="8.1079884">
        <ele>179.3000000</ele>
        <time>2010-03-07T11:37:12Z</time>
      </trkpt>
      <trkpt lat="43.9473724" lon="8.1081619">
        <ele>180.3000000</ele>
        <time>2010-03-07T11:37:20Z</time>
      </trkpt>
      <trkpt lat="43.9474716" lon="8.1081333">
        <ele>180.9000000</ele>
        <time>2010-03-07T11:37:25Z</time>
      </trkpt>
      <trkpt lat="43.9475097" lon="8.1080341">
        <ele>181.8000000</ele>
        <time>2010-03-07T11:37:29Z</time>
      </trkpt>
      <trkpt lat="43.9474602" lon="8.1079273">
        <ele>181.8000000</ele>
        <time>2010-03-07T11:37:33Z</time>
      </trkpt>
      <trkpt lat="43.9473457" lon="8.1076860">
        <ele>181.9000000</ele>
        <time>2010-03-07T11:37:42Z</time>
      </trkpt>
      <trkpt lat="43.9473076" lon="8.1074753">
        <ele>182.2000000</ele>
        <time>2010-03-07T11:37:49Z</time>
      </trkpt>
      <trkpt lat="43.9473038" lon="8.1072368">
        <ele>183.2000000</ele>
        <time>2010-03-07T11:37:57Z</time>
      </trkpt>
      <trkpt lat="43.9473304" lon="8.1070852">
        <ele>185.0000000</ele>
        <time>2010-03-07T11:38:02Z</time>
      </trkpt>
      <trkpt lat="43.9474335" lon="8.1069002">
        <ele>186.0000000</ele>
        <time>2010-03-07T11:38:10Z</time>
      </trkpt>
      <trkpt lat="43.9475822" lon="8.1067934">
        <ele>187.0000000</ele>
        <time>2010-03-07T11:38:18Z</time>
      </trkpt>
      <trkpt lat="43.9477768" lon="8.1067066">
        <ele>187.9000000</ele>
        <time>2010-03-07T11:38:27Z</time>
      </trkpt>
      <trkpt lat="43.9479713" lon="8.1066542">
        <ele>189.2000000</ele>
        <time>2010-03-07T11:38:36Z</time>
      </trkpt>
      <trkpt lat="43.9481506" lon="8.1066342">
        <ele>191.1000000</ele>
        <time>2010-03-07T11:38:44Z</time>
      </trkpt>
      <trkpt lat="43.9483795" lon="8.1065760">
        <ele>192.6000000</ele>
        <time>2010-03-07T11:38:54Z</time>
      </trkpt>
      <trkpt lat="43.9485779" lon="8.1064711">
        <ele>193.7000000</ele>
        <time>2010-03-07T11:39:02Z</time>
      </trkpt>
      <trkpt lat="43.9487648" lon="8.1063757">
        <ele>194.7000000</ele>
        <time>2010-03-07T11:39:10Z</time>
      </trkpt>
      <trkpt lat="43.9489326" lon="8.1063184">
        <ele>195.1000000</ele>
        <time>2010-03-07T11:39:17Z</time>
      </trkpt>
      <trkpt lat="43.9491539" lon="8.1062479">
        <ele>195.3000000</ele>
        <time>2010-03-07T11:39:26Z</time>
      </trkpt>
      <trkpt lat="43.9492951" lon="8.1061096">
        <ele>196.8000000</ele>
        <time>2010-03-07T11:39:33Z</time>
      </trkpt>
      <trkpt lat="43.9494171" lon="8.1059618">
        <ele>197.0000000</ele>
        <time>2010-03-07T11:39:40Z</time>
      </trkpt>
      <trkpt lat="43.9495163" lon="8.1059809">
        <ele>198.0000000</ele>
        <time>2010-03-07T11:39:45Z</time>
      </trkpt>
      <trkpt lat="43.9495620" lon="8.1061401">
        <ele>199.0000000</ele>
        <time>2010-03-07T11:39:51Z</time>
      </trkpt>
      <trkpt lat="43.9494972" lon="8.1063280">
        <ele>200.0000000</ele>
        <time>2010-03-07T11:39:57Z</time>
      </trkpt>
      <trkpt lat="43.9493790" lon="8.1064310">
        <ele>200.9000000</ele>
        <time>2010-03-07T11:40:03Z</time>
      </trkpt>
      <trkpt lat="43.9491958" lon="8.1065388">
        <ele>202.1000000</ele>
        <time>2010-03-07T11:40:12Z</time>
      </trkpt>
      <trkpt lat="43.9490280" lon="8.1066303">
        <ele>203.1000000</ele>
        <time>2010-03-07T11:40:20Z</time>
      </trkpt>
      <trkpt lat="43.9488564" lon="8.1067743">
        <ele>204.5000000</ele>
        <time>2010-03-07T11:40:29Z</time>
      </trkpt>
      <trkpt lat="43.9487000" lon="8.1069603">
        <ele>205.7000000</ele>
        <time>2010-03-07T11:40:38Z</time>
      </trkpt>
      <trkpt lat="43.9485512" lon="8.1071739">
        <ele>206.4000000</ele>
        <time>2010-03-07T11:40:47Z</time>
      </trkpt>
      <trkpt lat="43.9484787" lon="8.1073694">
        <ele>207.9000000</ele>
        <time>2010-03-07T11:40:54Z</time>
      </trkpt>
      <trkpt lat="43.9485244" lon="8.1075383">
        <ele>209.2000000</ele>
        <time>2010-03-07T11:41:00Z</time>
      </trkpt>
      <trkpt lat="43.9486351" lon="8.1076040">
        <ele>210.0000000</ele>
        <time>2010-03-07T11:41:06Z</time>
      </trkpt>
      <trkpt lat="43.9487495" lon="8.1075487">
        <ele>211.1000000</ele>
        <time>2010-03-07T11:41:12Z</time>
      </trkpt>
      <trkpt lat="43.9488030" lon="8.1074438">
        <ele>212.3000000</ele>
        <time>2010-03-07T11:41:17Z</time>
      </trkpt>
      <trkpt lat="43.9488945" lon="8.1072502">
        <ele>213.5000000</ele>
        <time>2010-03-07T11:41:25Z</time>
      </trkpt>
      <trkpt lat="43.9490280" lon="8.1071959">
        <ele>214.2000000</ele>
        <time>2010-03-07T11:41:32Z</time>
      </trkpt>
      <trkpt lat="43.9491577" lon="8.1071644">
        <ele>215.5000000</ele>
        <time>2010-03-07T11:41:39Z</time>
      </trkpt>
      <trkpt lat="43.9492226" lon="8.1071377">
        <ele>216.4000000</ele>
        <time>2010-03-07T11:41:43Z</time>
      </trkpt>
      <trkpt lat="43.9492798" lon="8.1072197">
        <ele>217.2000000</ele>
        <time>2010-03-07T11:41:48Z</time>
      </trkpt>
      <trkpt lat="43.9492912" lon="8.1072712">
        <ele>217.5000000</ele>
        <time>2010-03-07T11:41:50Z</time>
      </trkpt>
      <trkpt lat="43.9493294" lon="8.1073208">
        <ele>217.2000000</ele>
        <time>2010-03-07T11:41:53Z</time>
      </trkpt>
      <trkpt lat="43.9493904" lon="8.1073751">
        <ele>217.4000000</ele>
        <time>2010-03-07T11:41:57Z</time>
      </trkpt>
      <trkpt lat="43.9494934" lon="8.1074791">
        <ele>217.8000000</ele>
        <time>2010-03-07T11:42:03Z</time>
      </trkpt>
      <trkpt lat="43.9495430" lon="8.1074762">
        <ele>217.7000000</ele>
        <time>2010-03-07T11:42:05Z</time>
      </trkpt>
      <trkpt lat="43.9497604" lon="8.1074285">
        <ele>219.2000000</ele>
        <time>2010-03-07T11:42:15Z</time>
      </trkpt>
      <trkpt lat="43.9499397" lon="8.1073351">
        <ele>221.1000000</ele>
        <time>2010-03-07T11:42:24Z</time>
      </trkpt>
      <trkpt lat="43.9500733" lon="8.1073647">
        <ele>222.0000000</ele>
        <time>2010-03-07T11:42:30Z</time>
      </trkpt>
      <trkpt lat="43.9502449" lon="8.1074791">
        <ele>222.4000000</ele>
        <time>2010-03-07T11:42:38Z</time>
      </trkpt>
      <trkpt lat="43.9504356" lon="8.1075697">
        <ele>223.7000000</ele>
        <time>2010-03-07T11:42:46Z</time>
      </trkpt>
      <trkpt lat="43.9506187" lon="8.1076660">
        <ele>225.0000000</ele>
        <time>2010-03-07T11:42:52Z</time>
      </trkpt>
      <trkpt lat="43.9507408" lon="8.1077481">
        <ele>224.8000000</ele>
        <time>2010-03-07T11:42:56Z</time>
      </trkpt>
      <trkpt lat="43.9508514" lon="8.1079387">
        <ele>224.0000000</ele>
        <time>2010-03-07T11:43:02Z</time>
      </trkpt>
      <trkpt lat="43.9509201" lon="8.1081371">
        <ele>223.8000000</ele>
        <time>2010-03-07T11:43:07Z</time>
      </trkpt>
      <trkpt lat="43.9509353" lon="8.1081905">
        <ele>223.7000000</ele>
        <time>2010-03-07T11:43:08Z</time>
      </trkpt>
      <trkpt lat="43.9509964" lon="8.1085911">
        <ele>223.8000000</ele>
        <time>2010-03-07T11:43:15Z</time>
      </trkpt>
      <trkpt lat="43.9510841" lon="8.1087876">
        <ele>223.4000000</ele>
        <time>2010-03-07T11:43:19Z</time>
      </trkpt>
      <trkpt lat="43.9513244" lon="8.1091261">
        <ele>223.2000000</ele>
        <time>2010-03-07T11:43:28Z</time>
      </trkpt>
      <trkpt lat="43.9515190" lon="8.1092310">
        <ele>224.2000000</ele>
        <time>2010-03-07T11:43:35Z</time>
      </trkpt>
      <trkpt lat="43.9516831" lon="8.1093502">
        <ele>225.0000000</ele>
        <time>2010-03-07T11:43:42Z</time>
      </trkpt>
      <trkpt lat="43.9518509" lon="8.1095734">
        <ele>225.2000000</ele>
        <time>2010-03-07T11:43:50Z</time>
      </trkpt>
      <trkpt lat="43.9520035" lon="8.1099710">
        <ele>225.9000000</ele>
        <time>2010-03-07T11:44:00Z</time>
      </trkpt>
      <trkpt lat="43.9520111" lon="8.1101561">
        <ele>226.8000000</ele>
        <time>2010-03-07T11:44:05Z</time>
      </trkpt>
      <trkpt lat="43.9519272" lon="8.1102638">
        <ele>227.8000000</ele>
        <time>2010-03-07T11:44:10Z</time>
      </trkpt>
      <trkpt lat="43.9517479" lon="8.1103659">
        <ele>229.5000000</ele>
        <time>2010-03-07T11:44:19Z</time>
      </trkpt>
      <trkpt lat="43.9515838" lon="8.1104288">
        <ele>230.8000000</ele>
        <time>2010-03-07T11:44:27Z</time>
      </trkpt>
      <trkpt lat="43.9513779" lon="8.1105432">
        <ele>232.7000000</ele>
        <time>2010-03-07T11:44:38Z</time>
      </trkpt>
      <trkpt lat="43.9512176" lon="8.1106567">
        <ele>233.6000000</ele>
        <time>2010-03-07T11:44:46Z</time>
      </trkpt>
      <trkpt lat="43.9511337" lon="8.1108160">
        <ele>233.8000000</ele>
        <time>2010-03-07T11:44:52Z</time>
      </trkpt>
      <trkpt lat="43.9510994" lon="8.1110668">
        <ele>234.0000000</ele>
        <time>2010-03-07T11:44:59Z</time>
      </trkpt>
      <trkpt lat="43.9510956" lon="8.1113186">
        <ele>234.8000000</ele>
        <time>2010-03-07T11:45:06Z</time>
      </trkpt>
      <trkpt lat="43.9509812" lon="8.1115799">
        <ele>235.1000000</ele>
        <time>2010-03-07T11:45:14Z</time>
      </trkpt>
      <trkpt lat="43.9509163" lon="8.1117954">
        <ele>235.3000000</ele>
        <time>2010-03-07T11:45:20Z</time>
      </trkpt>
      <trkpt lat="43.9509316" lon="8.1120701">
        <ele>234.6000000</ele>
        <time>2010-03-07T11:45:26Z</time>
      </trkpt>
      <trkpt lat="43.9510269" lon="8.1123600">
        <ele>233.5000000</ele>
        <time>2010-03-07T11:45:32Z</time>
      </trkpt>
      <trkpt lat="43.9511528" lon="8.1125917">
        <ele>234.1000000</ele>
        <time>2010-03-07T11:45:38Z</time>
      </trkpt>
      <trkpt lat="43.9512596" lon="8.1127729">
        <ele>235.3000000</ele>
        <time>2010-03-07T11:45:45Z</time>
      </trkpt>
      <trkpt lat="43.9513588" lon="8.1128493">
        <ele>236.5000000</ele>
        <time>2010-03-07T11:45:51Z</time>
      </trkpt>
      <trkpt lat="43.9514809" lon="8.1129456">
        <ele>238.2000000</ele>
        <time>2010-03-07T11:45:59Z</time>
      </trkpt>
      <trkpt lat="43.9515572" lon="8.1130266">
        <ele>239.1000000</ele>
        <time>2010-03-07T11:46:05Z</time>
      </trkpt>
      <trkpt lat="43.9516067" lon="8.1131678">
        <ele>240.4000000</ele>
        <time>2010-03-07T11:46:12Z</time>
      </trkpt>
      <trkpt lat="43.9515533" lon="8.1133547">
        <ele>241.4000000</ele>
        <time>2010-03-07T11:46:20Z</time>
      </trkpt>
      <trkpt lat="43.9514694" lon="8.1136188">
        <ele>242.9000000</ele>
        <time>2010-03-07T11:46:31Z</time>
      </trkpt>
      <trkpt lat="43.9514694" lon="8.1137800">
        <ele>244.0000000</ele>
        <time>2010-03-07T11:46:38Z</time>
      </trkpt>
      <trkpt lat="43.9515496" lon="8.1139222">
        <ele>244.8000000</ele>
        <time>2010-03-07T11:46:45Z</time>
      </trkpt>
      <trkpt lat="43.9516602" lon="8.1140776">
        <ele>245.6000000</ele>
        <time>2010-03-07T11:46:53Z</time>
      </trkpt>
      <trkpt lat="43.9517402" lon="8.1141978">
        <ele>245.9000000</ele>
        <time>2010-03-07T11:46:59Z</time>
      </trkpt>
      <trkpt lat="43.9518356" lon="8.1143379">
        <ele>246.7000000</ele>
        <time>2010-03-07T11:47:06Z</time>
      </trkpt>
      <trkpt lat="43.9519424" lon="8.1145019">
        <ele>247.7000000</ele>
        <time>2010-03-07T11:47:14Z</time>
      </trkpt>
      <trkpt lat="43.9520874" lon="8.1147184">
        <ele>249.1000000</ele>
        <time>2010-03-07T11:47:25Z</time>
      </trkpt>
      <trkpt lat="43.9521866" lon="8.1148443">
        <ele>250.1000000</ele>
        <time>2010-03-07T11:47:32Z</time>
      </trkpt>
      <trkpt lat="43.9522476" lon="8.1149091">
        <ele>250.9000000</ele>
        <time>2010-03-07T11:47:36Z</time>
      </trkpt>
      <trkpt lat="43.9524384" lon="8.1150779">
        <ele>251.7000000</ele>
        <time>2010-03-07T11:47:47Z</time>
      </trkpt>
      <trkpt lat="43.9525909" lon="8.1152649">
        <ele>252.2000000</ele>
        <time>2010-03-07T11:47:56Z</time>
      </trkpt>
      <trkpt lat="43.9527168" lon="8.1154518">
        <ele>252.4000000</ele>
        <time>2010-03-07T11:48:04Z</time>
      </trkpt>
      <trkpt lat="43.9528236" lon="8.1156197">
        <ele>253.7000000</ele>
        <time>2010-03-07T11:48:12Z</time>
      </trkpt>
      <trkpt lat="43.9528656" lon="8.1158523">
        <ele>254.0000000</ele>
        <time>2010-03-07T11:48:19Z</time>
      </trkpt>
      <trkpt lat="43.9528695" lon="8.1161642">
        <ele>254.1000000</ele>
        <time>2010-03-07T11:48:28Z</time>
      </trkpt>
      <trkpt lat="43.9529686" lon="8.1163292">
        <ele>254.4000000</ele>
        <time>2010-03-07T11:48:34Z</time>
      </trkpt>
      <trkpt lat="43.9530716" lon="8.1165915">
        <ele>254.7000000</ele>
        <time>2010-03-07T11:48:42Z</time>
      </trkpt>
      <trkpt lat="43.9531326" lon="8.1168766">
        <ele>256.1000000</ele>
        <time>2010-03-07T11:48:50Z</time>
      </trkpt>
      <trkpt lat="43.9531517" lon="8.1170893">
        <ele>256.0000000</ele>
        <time>2010-03-07T11:48:56Z</time>
      </trkpt>
      <trkpt lat="43.9530601" lon="8.1171694">
        <ele>256.3000000</ele>
        <time>2010-03-07T11:49:00Z</time>
      </trkpt>
      <trkpt lat="43.9528961" lon="8.1172781">
        <ele>256.1000000</ele>
        <time>2010-03-07T11:49:07Z</time>
      </trkpt>
      <trkpt lat="43.9528503" lon="8.1173639">
        <ele>256.6000000</ele>
        <time>2010-03-07T11:49:11Z</time>
      </trkpt>
      <trkpt lat="43.9528542" lon="8.1175804">
        <ele>256.7000000</ele>
        <time>2010-03-07T11:49:17Z</time>
      </trkpt>
      <trkpt lat="43.9529114" lon="8.1178122">
        <ele>257.1000000</ele>
        <time>2010-03-07T11:49:23Z</time>
      </trkpt>
      <trkpt lat="43.9529571" lon="8.1180954">
        <ele>256.7000000</ele>
        <time>2010-03-07T11:49:30Z</time>
      </trkpt>
      <trkpt lat="43.9529610" lon="8.1183300">
        <ele>257.2000000</ele>
        <time>2010-03-07T11:49:37Z</time>
      </trkpt>
      <trkpt lat="43.9529457" lon="8.1185427">
        <ele>259.7000000</ele>
        <time>2010-03-07T11:49:45Z</time>
      </trkpt>
      <trkpt lat="43.9528770" lon="8.1187563">
        <ele>260.9000000</ele>
        <time>2010-03-07T11:49:53Z</time>
      </trkpt>
      <trkpt lat="43.9527931" lon="8.1188640">
        <ele>260.8000000</ele>
        <time>2010-03-07T11:49:58Z</time>
      </trkpt>
      <trkpt lat="43.9526787" lon="8.1190109">
        <ele>261.1000000</ele>
        <time>2010-03-07T11:50:05Z</time>
      </trkpt>
      <trkpt lat="43.9525604" lon="8.1190796">
        <ele>261.4000000</ele>
        <time>2010-03-07T11:50:11Z</time>
      </trkpt>
      <trkpt lat="43.9523735" lon="8.1190386">
        <ele>261.4000000</ele>
        <time>2010-03-07T11:50:19Z</time>
      </trkpt>
      <trkpt lat="43.9521828" lon="8.1190272">
        <ele>262.6000000</ele>
        <time>2010-03-07T11:50:28Z</time>
      </trkpt>
      <trkpt lat="43.9520493" lon="8.1190224">
        <ele>263.4000000</ele>
        <time>2010-03-07T11:50:35Z</time>
      </trkpt>
      <trkpt lat="43.9519539" lon="8.1190224">
        <ele>264.8000000</ele>
        <time>2010-03-07T11:50:41Z</time>
      </trkpt>
      <trkpt lat="43.9518547" lon="8.1191483">
        <ele>265.8000000</ele>
        <time>2010-03-07T11:50:49Z</time>
      </trkpt>
      <trkpt lat="43.9517708" lon="8.1193113">
        <ele>267.3000000</ele>
        <time>2010-03-07T11:50:57Z</time>
      </trkpt>
      <trkpt lat="43.9516869" lon="8.1194267">
        <ele>269.0000000</ele>
        <time>2010-03-07T11:51:04Z</time>
      </trkpt>
      <trkpt lat="43.9515838" lon="8.1195078">
        <ele>270.1000000</ele>
        <time>2010-03-07T11:51:11Z</time>
      </trkpt>
      <trkpt lat="43.9514579" lon="8.1195488">
        <ele>271.8000000</ele>
        <time>2010-03-07T11:51:18Z</time>
      </trkpt>
      <trkpt lat="43.9513398" lon="8.1196699">
        <ele>272.8000000</ele>
        <time>2010-03-07T11:51:26Z</time>
      </trkpt>
      <trkpt lat="43.9512673" lon="8.1198826">
        <ele>274.0000000</ele>
        <time>2010-03-07T11:51:35Z</time>
      </trkpt>
      <trkpt lat="43.9511871" lon="8.1200304">
        <ele>275.2000000</ele>
        <time>2010-03-07T11:51:42Z</time>
      </trkpt>
      <trkpt lat="43.9510383" lon="8.1201668">
        <ele>275.7000000</ele>
        <time>2010-03-07T11:51:50Z</time>
      </trkpt>
      <trkpt lat="43.9509277" lon="8.1201830">
        <ele>276.7000000</ele>
        <time>2010-03-07T11:51:56Z</time>
      </trkpt>
      <trkpt lat="43.9507904" lon="8.1201401">
        <ele>277.4000000</ele>
        <time>2010-03-07T11:52:03Z</time>
      </trkpt>
      <trkpt lat="43.9506302" lon="8.1200685">
        <ele>277.7000000</ele>
        <time>2010-03-07T11:52:11Z</time>
      </trkpt>
      <trkpt lat="43.9504586" lon="8.1199350">
        <ele>278.5000000</ele>
        <time>2010-03-07T11:52:20Z</time>
      </trkpt>
      <trkpt lat="43.9502945" lon="8.1197949">
        <ele>279.1000000</ele>
        <time>2010-03-07T11:52:28Z</time>
      </trkpt>
      <trkpt lat="43.9501648" lon="8.1196804">
        <ele>279.2000000</ele>
        <time>2010-03-07T11:52:34Z</time>
      </trkpt>
      <trkpt lat="43.9500007" lon="8.1195593">
        <ele>280.1000000</ele>
        <time>2010-03-07T11:52:42Z</time>
      </trkpt>
      <trkpt lat="43.9498558" lon="8.1196184">
        <ele>281.2000000</ele>
        <time>2010-03-07T11:52:49Z</time>
      </trkpt>
      <trkpt lat="43.9497261" lon="8.1198273">
        <ele>282.0000000</ele>
        <time>2010-03-07T11:52:58Z</time>
      </trkpt>
      <trkpt lat="43.9496345" lon="8.1200428">
        <ele>282.1000000</ele>
        <time>2010-03-07T11:53:05Z</time>
      </trkpt>
      <trkpt lat="43.9495544" lon="8.1202259">
        <ele>283.0000000</ele>
        <time>2010-03-07T11:53:12Z</time>
      </trkpt>
      <trkpt lat="43.9494362" lon="8.1203870">
        <ele>284.1000000</ele>
        <time>2010-03-07T11:53:20Z</time>
      </trkpt>
      <trkpt lat="43.9492760" lon="8.1205168">
        <ele>284.1000000</ele>
        <time>2010-03-07T11:53:28Z</time>
      </trkpt>
      <trkpt lat="43.9491387" lon="8.1205817">
        <ele>284.4000000</ele>
        <time>2010-03-07T11:53:34Z</time>
      </trkpt>
      <trkpt lat="43.9489250" lon="8.1206055">
        <ele>283.8000000</ele>
        <time>2010-03-07T11:53:42Z</time>
      </trkpt>
      <trkpt lat="43.9486695" lon="8.1206608">
        <ele>283.1000000</ele>
        <time>2010-03-07T11:53:50Z</time>
      </trkpt>
      <trkpt lat="43.9484558" lon="8.1206369">
        <ele>283.2000000</ele>
        <time>2010-03-07T11:53:57Z</time>
      </trkpt>
      <trkpt lat="43.9483414" lon="8.1205196">
        <ele>283.8000000</ele>
        <time>2010-03-07T11:54:03Z</time>
      </trkpt>
      <trkpt lat="43.9482155" lon="8.1203870">
        <ele>285.4000000</ele>
        <time>2010-03-07T11:54:10Z</time>
      </trkpt>
      <trkpt lat="43.9481163" lon="8.1202526">
        <ele>285.2000000</ele>
        <time>2010-03-07T11:54:16Z</time>
      </trkpt>
      <trkpt lat="43.9480171" lon="8.1200628">
        <ele>285.9000000</ele>
        <time>2010-03-07T11:54:23Z</time>
      </trkpt>
      <trkpt lat="43.9478836" lon="8.1198931">
        <ele>287.2000000</ele>
        <time>2010-03-07T11:54:31Z</time>
      </trkpt>
      <trkpt lat="43.9477768" lon="8.1197738">
        <ele>289.2000000</ele>
        <time>2010-03-07T11:54:38Z</time>
      </trkpt>
      <trkpt lat="43.9476929" lon="8.1196766">
        <ele>290.7000000</ele>
        <time>2010-03-07T11:54:44Z</time>
      </trkpt>
      <trkpt lat="43.9476166" lon="8.1196156">
        <ele>292.1000000</ele>
        <time>2010-03-07T11:54:49Z</time>
      </trkpt>
      <trkpt lat="43.9475288" lon="8.1195717">
        <ele>293.0000000</ele>
        <time>2010-03-07T11:54:54Z</time>
      </trkpt>
      <trkpt lat="43.9473648" lon="8.1195774">
        <ele>295.2000000</ele>
        <time>2010-03-07T11:55:03Z</time>
      </trkpt>
      <trkpt lat="43.9472733" lon="8.1197214">
        <ele>295.9000000</ele>
        <time>2010-03-07T11:55:10Z</time>
      </trkpt>
      <trkpt lat="43.9471779" lon="8.1199598">
        <ele>296.1000000</ele>
        <time>2010-03-07T11:55:19Z</time>
      </trkpt>
      <trkpt lat="43.9471016" lon="8.1202068">
        <ele>297.8000000</ele>
        <time>2010-03-07T11:55:28Z</time>
      </trkpt>
      <trkpt lat="43.9470291" lon="8.1203909">
        <ele>298.5000000</ele>
        <time>2010-03-07T11:55:36Z</time>
      </trkpt>
      <trkpt lat="43.9469947" lon="8.1204414">
        <ele>298.4000000</ele>
        <time>2010-03-07T11:55:39Z</time>
      </trkpt>
      <trkpt lat="43.9469528" lon="8.1205234">
        <ele>299.6000000</ele>
        <time>2010-03-07T11:55:44Z</time>
      </trkpt>
      <trkpt lat="43.9468689" lon="8.1206856">
        <ele>301.0000000</ele>
        <time>2010-03-07T11:55:53Z</time>
      </trkpt>
      <trkpt lat="43.9468078" lon="8.1208172">
        <ele>301.6000000</ele>
        <time>2010-03-07T11:55:59Z</time>
      </trkpt>
      <trkpt lat="43.9467392" lon="8.1209802">
        <ele>302.3000000</ele>
        <time>2010-03-07T11:56:06Z</time>
      </trkpt>
      <trkpt lat="43.9466477" lon="8.1212130">
        <ele>302.5000000</ele>
        <time>2010-03-07T11:56:15Z</time>
      </trkpt>
      <trkpt lat="43.9466285" lon="8.1212759">
        <ele>302.4000000</ele>
        <time>2010-03-07T11:56:19Z</time>
      </trkpt>
      <trkpt lat="43.9466285" lon="8.1212816">
        <ele>302.3000000</ele>
        <time>2010-03-07T11:56:20Z</time>
      </trkpt>
      <trkpt lat="43.9466591" lon="8.1213274">
        <ele>305.6000000</ele>
        <time>2010-03-07T11:56:28Z</time>
      </trkpt>
      <trkpt lat="43.9466629" lon="8.1213283">
        <ele>305.9000000</ele>
        <time>2010-03-07T11:56:29Z</time>
      </trkpt>
      <trkpt lat="43.9466973" lon="8.1213407">
        <ele>306.7000000</ele>
        <time>2010-03-07T11:56:37Z</time>
      </trkpt>
      <trkpt lat="43.9467239" lon="8.1213779">
        <ele>307.4000000</ele>
        <time>2010-03-07T11:56:45Z</time>
      </trkpt>
      <trkpt lat="43.9467278" lon="8.1213856">
        <ele>307.4000000</ele>
        <time>2010-03-07T11:56:46Z</time>
      </trkpt>
      <trkpt lat="43.9467316" lon="8.1214829">
        <ele>307.7000000</ele>
        <time>2010-03-07T11:56:52Z</time>
      </trkpt>
      <trkpt lat="43.9467354" lon="8.1215296">
        <ele>307.9000000</ele>
        <time>2010-03-07T11:56:55Z</time>
      </trkpt>
      <trkpt lat="43.9467507" lon="8.1216145">
        <ele>310.4000000</ele>
        <time>2010-03-07T11:57:02Z</time>
      </trkpt>
      <trkpt lat="43.9467544" lon="8.1217127">
        <ele>311.6000000</ele>
        <time>2010-03-07T11:57:11Z</time>
      </trkpt>
      <trkpt lat="43.9467621" lon="8.1218291">
        <ele>312.1000000</ele>
        <time>2010-03-07T11:57:17Z</time>
      </trkpt>
      <trkpt lat="43.9467583" lon="8.1218509">
        <ele>312.2000000</ele>
        <time>2010-03-07T11:57:18Z</time>
      </trkpt>
      <trkpt lat="43.9467430" lon="8.1220322">
        <ele>313.1000000</ele>
        <time>2010-03-07T11:57:26Z</time>
      </trkpt>
      <trkpt lat="43.9467163" lon="8.1221380">
        <ele>313.1000000</ele>
        <time>2010-03-07T11:57:31Z</time>
      </trkpt>
      <trkpt lat="43.9466896" lon="8.1223001">
        <ele>313.7000000</ele>
        <time>2010-03-07T11:57:38Z</time>
      </trkpt>
      <trkpt lat="43.9466629" lon="8.1223850">
        <ele>313.7000000</ele>
        <time>2010-03-07T11:57:42Z</time>
      </trkpt>
      <trkpt lat="43.9466324" lon="8.1224661">
        <ele>313.8000000</ele>
        <time>2010-03-07T11:57:46Z</time>
      </trkpt>
      <trkpt lat="43.9465599" lon="8.1226702">
        <ele>314.2000000</ele>
        <time>2010-03-07T11:57:53Z</time>
      </trkpt>
      <trkpt lat="43.9465141" lon="8.1227980">
        <ele>315.0000000</ele>
        <time>2010-03-07T11:57:57Z</time>
      </trkpt>
      <trkpt lat="43.9464302" lon="8.1229229">
        <ele>315.8000000</ele>
        <time>2010-03-07T11:58:02Z</time>
      </trkpt>
      <trkpt lat="43.9463310" lon="8.1230125">
        <ele>315.8000000</ele>
        <time>2010-03-07T11:58:07Z</time>
      </trkpt>
      <trkpt lat="43.9462547" lon="8.1230383">
        <ele>315.6000000</ele>
        <time>2010-03-07T11:58:10Z</time>
      </trkpt>
      <trkpt lat="43.9460716" lon="8.1230936">
        <ele>315.4000000</ele>
        <time>2010-03-07T11:58:17Z</time>
      </trkpt>
      <trkpt lat="43.9458504" lon="8.1230383">
        <ele>315.4000000</ele>
        <time>2010-03-07T11:58:25Z</time>
      </trkpt>
      <trkpt lat="43.9456597" lon="8.1229257">
        <ele>314.5000000</ele>
        <time>2010-03-07T11:58:31Z</time>
      </trkpt>
      <trkpt lat="43.9454918" lon="8.1228876">
        <ele>314.6000000</ele>
        <time>2010-03-07T11:58:36Z</time>
      </trkpt>
      <trkpt lat="43.9453201" lon="8.1229229">
        <ele>315.2000000</ele>
        <time>2010-03-07T11:58:43Z</time>
      </trkpt>
      <trkpt lat="43.9451676" lon="8.1229257">
        <ele>315.1000000</ele>
        <time>2010-03-07T11:58:49Z</time>
      </trkpt>
      <trkpt lat="43.9449921" lon="8.1228475">
        <ele>315.3000000</ele>
        <time>2010-03-07T11:58:55Z</time>
      </trkpt>
      <trkpt lat="43.9448243" lon="8.1226950">
        <ele>314.8000000</ele>
        <time>2010-03-07T11:59:02Z</time>
      </trkpt>
      <trkpt lat="43.9446984" lon="8.1225911">
        <ele>314.5000000</ele>
        <time>2010-03-07T11:59:07Z</time>
      </trkpt>
      <trkpt lat="43.9445191" lon="8.1225528">
        <ele>315.2000000</ele>
        <time>2010-03-07T11:59:14Z</time>
      </trkpt>
      <trkpt lat="43.9444771" lon="8.1225424">
        <ele>315.2000000</ele>
        <time>2010-03-07T11:59:16Z</time>
      </trkpt>
      <trkpt lat="43.9443664" lon="8.1223879">
        <ele>316.0000000</ele>
        <time>2010-03-07T11:59:23Z</time>
      </trkpt>
      <trkpt lat="43.9443016" lon="8.1222524">
        <ele>316.1000000</ele>
        <time>2010-03-07T11:59:28Z</time>
      </trkpt>
      <trkpt lat="43.9442368" lon="8.1220627">
        <ele>317.2000000</ele>
        <time>2010-03-07T11:59:35Z</time>
      </trkpt>
      <trkpt lat="43.9442177" lon="8.1219320">
        <ele>319.5000000</ele>
        <time>2010-03-07T11:59:42Z</time>
      </trkpt>
      <trkpt lat="43.9441719" lon="8.1217833">
        <ele>320.5000000</ele>
        <time>2010-03-07T11:59:50Z</time>
      </trkpt>
      <trkpt lat="43.9441376" lon="8.1216173">
        <ele>322.1000000</ele>
        <time>2010-03-07T11:59:57Z</time>
      </trkpt>
      <trkpt lat="43.9440384" lon="8.1215058">
        <ele>323.5000000</ele>
        <time>2010-03-07T12:00:04Z</time>
      </trkpt>
      <trkpt lat="43.9439277" lon="8.1214790">
        <ele>323.8000000</ele>
        <time>2010-03-07T12:00:10Z</time>
      </trkpt>
      <trkpt lat="43.9437523" lon="8.1215200">
        <ele>325.4000000</ele>
        <time>2010-03-07T12:00:19Z</time>
      </trkpt>
      <trkpt lat="43.9436531" lon="8.1216126">
        <ele>326.1000000</ele>
        <time>2010-03-07T12:00:25Z</time>
      </trkpt>
      <trkpt lat="43.9435234" lon="8.1217308">
        <ele>327.6000000</ele>
        <time>2010-03-07T12:00:33Z</time>
      </trkpt>
      <trkpt lat="43.9434051" lon="8.1218062">
        <ele>328.9000000</ele>
        <time>2010-03-07T12:00:41Z</time>
      </trkpt>
      <trkpt lat="43.9432869" lon="8.1218252">
        <ele>330.9000000</ele>
        <time>2010-03-07T12:00:50Z</time>
      </trkpt>
      <trkpt lat="43.9432106" lon="8.1218529">
        <ele>332.1000000</ele>
        <time>2010-03-07T12:00:57Z</time>
      </trkpt>
      <trkpt lat="43.9431877" lon="8.1218624">
        <ele>332.4000000</ele>
        <time>2010-03-07T12:01:03Z</time>
      </trkpt>
      <trkpt lat="43.9432029" lon="8.1218844">
        <ele>332.5000000</ele>
        <time>2010-03-07T12:01:15Z</time>
      </trkpt>
      <trkpt lat="43.9432564" lon="8.1219855">
        <ele>332.6000000</ele>
        <time>2010-03-07T12:01:22Z</time>
      </trkpt>
      <trkpt lat="43.9433441" lon="8.1220026">
        <ele>332.7000000</ele>
        <time>2010-03-07T12:01:28Z</time>
      </trkpt>
      <trkpt lat="43.9434852" lon="8.1220055">
        <ele>333.7000000</ele>
        <time>2010-03-07T12:01:37Z</time>
      </trkpt>
      <trkpt lat="43.9436150" lon="8.1219825">
        <ele>334.2000000</ele>
        <time>2010-03-07T12:01:45Z</time>
      </trkpt>
      <trkpt lat="43.9437599" lon="8.1219921">
        <ele>334.5000000</ele>
        <time>2010-03-07T12:01:54Z</time>
      </trkpt>
      <trkpt lat="43.9438401" lon="8.1220684">
        <ele>335.7000000</ele>
        <time>2010-03-07T12:02:01Z</time>
      </trkpt>
      <trkpt lat="43.9438515" lon="8.1221953">
        <ele>337.6000000</ele>
        <time>2010-03-07T12:02:08Z</time>
      </trkpt>
      <trkpt lat="43.9438019" lon="8.1222906">
        <ele>337.8000000</ele>
        <time>2010-03-07T12:02:15Z</time>
      </trkpt>
      <trkpt lat="43.9437790" lon="8.1222944">
        <ele>338.0000000</ele>
        <time>2010-03-07T12:02:17Z</time>
      </trkpt>
      <trkpt lat="43.9436989" lon="8.1222877">
        <ele>338.7000000</ele>
        <time>2010-03-07T12:02:23Z</time>
      </trkpt>
      <trkpt lat="43.9436264" lon="8.1222763">
        <ele>339.9000000</ele>
        <time>2010-03-07T12:02:28Z</time>
      </trkpt>
      <trkpt lat="43.9435654" lon="8.1222801">
        <ele>340.9000000</ele>
        <time>2010-03-07T12:02:32Z</time>
      </trkpt>
      <trkpt lat="43.9434051" lon="8.1223507">
        <ele>342.2000000</ele>
        <time>2010-03-07T12:02:43Z</time>
      </trkpt>
      <trkpt lat="43.9432793" lon="8.1224060">
        <ele>344.5000000</ele>
        <time>2010-03-07T12:02:52Z</time>
      </trkpt>
      <trkpt lat="43.9431992" lon="8.1224441">
        <ele>345.6000000</ele>
        <time>2010-03-07T12:02:58Z</time>
      </trkpt>
      <trkpt lat="43.9432068" lon="8.1225186">
        <ele>346.9000000</ele>
        <time>2010-03-07T12:03:03Z</time>
      </trkpt>
      <trkpt lat="43.9432869" lon="8.1225443">
        <ele>346.3000000</ele>
        <time>2010-03-07T12:03:08Z</time>
      </trkpt>
      <trkpt lat="43.9433441" lon="8.1226177">
        <ele>347.0000000</ele>
        <time>2010-03-07T12:03:14Z</time>
      </trkpt>
      <trkpt lat="43.9433861" lon="8.1226196">
        <ele>346.4000000</ele>
        <time>2010-03-07T12:04:21Z</time>
      </trkpt>
      <trkpt lat="43.9433861" lon="8.1226206">
        <ele>346.5000000</ele>
        <time>2010-03-07T12:04:24Z</time>
      </trkpt>
      <trkpt lat="43.9433899" lon="8.1226206">
        <ele>346.1000000</ele>
        <time>2010-03-07T12:04:27Z</time>
      </trkpt>
      <trkpt lat="43.9433861" lon="8.1226234">
        <ele>346.5000000</ele>
        <time>2010-03-07T12:04:41Z</time>
      </trkpt>
      <trkpt lat="43.9433861" lon="8.1226253">
        <ele>346.4000000</ele>
        <time>2010-03-07T12:04:57Z</time>
      </trkpt>
      <trkpt lat="43.9433822" lon="8.1226263">
        <ele>346.0000000</ele>
        <time>2010-03-07T12:05:00Z</time>
      </trkpt>
      <trkpt lat="43.9433822" lon="8.1226263">
        <ele>346.0000000</ele>
        <time>2010-03-07T12:05:02Z</time>
      </trkpt>
      <trkpt lat="43.9433822" lon="8.1226282">
        <ele>346.8000000</ele>
        <time>2010-03-07T12:05:07Z</time>
      </trkpt>
      <trkpt lat="43.9433822" lon="8.1226301">
        <ele>346.1000000</ele>
        <time>2010-03-07T12:05:23Z</time>
      </trkpt>
      <trkpt lat="43.9433822" lon="8.1226310">
        <ele>345.9000000</ele>
        <time>2010-03-07T12:05:28Z</time>
      </trkpt>
      <trkpt lat="43.9433822" lon="8.1226310">
        <ele>346.2000000</ele>
        <time>2010-03-07T12:05:31Z</time>
      </trkpt>
      <trkpt lat="43.9433785" lon="8.1226320">
        <ele>346.0000000</ele>
        <time>2010-03-07T12:05:43Z</time>
      </trkpt>
      <trkpt lat="43.9433746" lon="8.1226330">
        <ele>346.5000000</ele>
        <time>2010-03-07T12:05:55Z</time>
      </trkpt>
      <trkpt lat="43.9433746" lon="8.1226339">
        <ele>346.5000000</ele>
        <time>2010-03-07T12:05:59Z</time>
      </trkpt>
      <trkpt lat="43.9433746" lon="8.1226349">
        <ele>346.2000000</ele>
        <time>2010-03-07T12:06:05Z</time>
      </trkpt>
      <trkpt lat="43.9433708" lon="8.1226339">
        <ele>346.0000000</ele>
        <time>2010-03-07T12:06:19Z</time>
      </trkpt>
      <trkpt lat="43.9433708" lon="8.1226320">
        <ele>346.2000000</ele>
        <time>2010-03-07T12:06:31Z</time>
      </trkpt>
      <trkpt lat="43.9433746" lon="8.1226282">
        <ele>346.0000000</ele>
        <time>2010-03-07T12:06:37Z</time>
      </trkpt>
      <trkpt lat="43.9433708" lon="8.1226168">
        <ele>346.7000000</ele>
        <time>2010-03-07T12:06:43Z</time>
      </trkpt>
      <trkpt lat="43.9433593" lon="8.1226206">
        <ele>346.4000000</ele>
        <time>2010-03-07T12:06:52Z</time>
      </trkpt>
      <trkpt lat="43.9433556" lon="8.1226216">
        <ele>346.5000000</ele>
        <time>2010-03-07T12:06:57Z</time>
      </trkpt>
      <trkpt lat="43.9433556" lon="8.1226234">
        <ele>346.4000000</ele>
        <time>2010-03-07T12:07:00Z</time>
      </trkpt>
      <trkpt lat="43.9433556" lon="8.1226234">
        <ele>346.5000000</ele>
        <time>2010-03-07T12:07:01Z</time>
      </trkpt>
      <trkpt lat="43.9433517" lon="8.1226234">
        <ele>346.9000000</ele>
        <time>2010-03-07T12:07:06Z</time>
      </trkpt>
      <trkpt lat="43.9433517" lon="8.1226234">
        <ele>346.7000000</ele>
        <time>2010-03-07T12:07:09Z</time>
      </trkpt>
      <trkpt lat="43.9433556" lon="8.1226244">
        <ele>346.4000000</ele>
        <time>2010-03-07T12:07:20Z</time>
      </trkpt>
      <trkpt lat="43.9433556" lon="8.1226158">
        <ele>346.7000000</ele>
        <time>2010-03-07T12:07:37Z</time>
      </trkpt>
      <trkpt lat="43.9433556" lon="8.1226149">
        <ele>346.5000000</ele>
        <time>2010-03-07T12:07:40Z</time>
      </trkpt>
      <trkpt lat="43.9433251" lon="8.1226092">
        <ele>346.5000000</ele>
        <time>2010-03-07T12:07:45Z</time>
      </trkpt>
      <trkpt lat="43.9432983" lon="8.1226339">
        <ele>346.6000000</ele>
        <time>2010-03-07T12:07:50Z</time>
      </trkpt>
      <trkpt lat="43.9432946" lon="8.1226406">
        <ele>346.8000000</ele>
        <time>2010-03-07T12:07:56Z</time>
      </trkpt>
      <trkpt lat="43.9432946" lon="8.1226406">
        <ele>346.5000000</ele>
        <time>2010-03-07T12:07:59Z</time>
      </trkpt>
      <trkpt lat="43.9432793" lon="8.1226387">
        <ele>346.3000000</ele>
        <time>2010-03-07T12:08:06Z</time>
      </trkpt>
      <trkpt lat="43.9432258" lon="8.1226092">
        <ele>346.2000000</ele>
        <time>2010-03-07T12:08:14Z</time>
      </trkpt>
      <trkpt lat="43.9432106" lon="8.1225911">
        <ele>346.4000000</ele>
        <time>2010-03-07T12:08:33Z</time>
      </trkpt>
      <trkpt lat="43.9432144" lon="8.1225700">
        <ele>346.7000000</ele>
        <time>2010-03-07T12:09:04Z</time>
      </trkpt>
      <trkpt lat="43.9432144" lon="8.1225700">
        <ele>346.6000000</ele>
        <time>2010-03-07T12:09:13Z</time>
      </trkpt>
      <trkpt lat="43.9432144" lon="8.1225691">
        <ele>346.9000000</ele>
        <time>2010-03-07T12:09:16Z</time>
      </trkpt>
      <trkpt lat="43.9432144" lon="8.1225681">
        <ele>346.8000000</ele>
        <time>2010-03-07T12:09:17Z</time>
      </trkpt>
      <trkpt lat="43.9432144" lon="8.1225691">
        <ele>347.0000000</ele>
        <time>2010-03-07T12:09:27Z</time>
      </trkpt>
      <trkpt lat="43.9431801" lon="8.1225776">
        <ele>346.4000000</ele>
        <time>2010-03-07T12:10:00Z</time>
      </trkpt>
      <trkpt lat="43.9431801" lon="8.1225767">
        <ele>346.2000000</ele>
        <time>2010-03-07T12:10:02Z</time>
      </trkpt>
      <trkpt lat="43.9431610" lon="8.1225901">
        <ele>346.5000000</ele>
        <time>2010-03-07T12:10:09Z</time>
      </trkpt>
      <trkpt lat="43.9431648" lon="8.1225948">
        <ele>346.2000000</ele>
        <time>2010-03-07T12:10:12Z</time>
      </trkpt>
      <trkpt lat="43.9431687" lon="8.1226044">
        <ele>346.5000000</ele>
        <time>2010-03-07T12:10:22Z</time>
      </trkpt>
      <trkpt lat="43.9431687" lon="8.1226092">
        <ele>346.0000000</ele>
        <time>2010-03-07T12:10:29Z</time>
      </trkpt>
      <trkpt lat="43.9431687" lon="8.1226110">
        <ele>346.3000000</ele>
        <time>2010-03-07T12:10:33Z</time>
      </trkpt>
      <trkpt lat="43.9431687" lon="8.1226187">
        <ele>346.7000000</ele>
        <time>2010-03-07T12:10:45Z</time>
      </trkpt>
      <trkpt lat="43.9431687" lon="8.1226187">
        <ele>346.8000000</ele>
        <time>2010-03-07T12:10:47Z</time>
      </trkpt>
      <trkpt lat="43.9431687" lon="8.1226187">
        <ele>346.2000000</ele>
        <time>2010-03-07T12:10:54Z</time>
      </trkpt>
      <trkpt lat="43.9431724" lon="8.1226206">
        <ele>345.7000000</ele>
        <time>2010-03-07T12:11:22Z</time>
      </trkpt>
      <trkpt lat="43.9431687" lon="8.1226234">
        <ele>346.3000000</ele>
        <time>2010-03-07T12:11:34Z</time>
      </trkpt>
      <trkpt lat="43.9431648" lon="8.1226110">
        <ele>346.1000000</ele>
        <time>2010-03-07T12:11:47Z</time>
      </trkpt>
      <trkpt lat="43.9431648" lon="8.1226092">
        <ele>346.1000000</ele>
        <time>2010-03-07T12:11:51Z</time>
      </trkpt>
      <trkpt lat="43.9431648" lon="8.1226092">
        <ele>346.2000000</ele>
        <time>2010-03-07T12:11:57Z</time>
      </trkpt>
      <trkpt lat="43.9431648" lon="8.1226053">
        <ele>345.9000000</ele>
        <time>2010-03-07T12:12:04Z</time>
      </trkpt>
      <trkpt lat="43.9431572" lon="8.1225929">
        <ele>345.8000000</ele>
        <time>2010-03-07T12:12:23Z</time>
      </trkpt>
      <trkpt lat="43.9431572" lon="8.1225968">
        <ele>345.8000000</ele>
        <time>2010-03-07T12:12:30Z</time>
      </trkpt>
      <trkpt lat="43.9431572" lon="8.1226005">
        <ele>346.1000000</ele>
        <time>2010-03-07T12:12:37Z</time>
      </trkpt>
      <trkpt lat="43.9431572" lon="8.1225987">
        <ele>346.3000000</ele>
        <time>2010-03-07T12:12:39Z</time>
      </trkpt>
      <trkpt lat="43.9431572" lon="8.1225977">
        <ele>346.2000000</ele>
        <time>2010-03-07T12:12:40Z</time>
      </trkpt>
      <trkpt lat="43.9431534" lon="8.1225920">
        <ele>346.2000000</ele>
        <time>2010-03-07T12:12:49Z</time>
      </trkpt>
      <trkpt lat="43.9431458" lon="8.1225891">
        <ele>345.5000000</ele>
        <time>2010-03-07T12:13:01Z</time>
      </trkpt>
      <trkpt lat="43.9430656" lon="8.1224499">
        <ele>345.9000000</ele>
        <time>2010-03-07T12:13:05Z</time>
      </trkpt>
      <trkpt lat="43.9429436" lon="8.1220684">
        <ele>340.8000000</ele>
        <time>2010-03-07T12:13:09Z</time>
      </trkpt>
      <trkpt lat="43.9429169" lon="8.1218748">
        <ele>337.9000000</ele>
        <time>2010-03-07T12:13:11Z</time>
      </trkpt>
      <trkpt lat="43.9429016" lon="8.1216193">
        <ele>332.0000000</ele>
        <time>2010-03-07T12:13:14Z</time>
      </trkpt>
      <trkpt lat="43.9428978" lon="8.1213980">
        <ele>325.0000000</ele>
        <time>2010-03-07T12:13:18Z</time>
      </trkpt>
      <trkpt lat="43.9428864" lon="8.1210937">
        <ele>318.7000000</ele>
        <time>2010-03-07T12:13:22Z</time>
      </trkpt>
      <trkpt lat="43.9428444" lon="8.1207227">
        <ele>310.7000000</ele>
        <time>2010-03-07T12:13:26Z</time>
      </trkpt>
      <trkpt lat="43.9427414" lon="8.1204863">
        <ele>306.6000000</ele>
        <time>2010-03-07T12:13:30Z</time>
      </trkpt>
      <trkpt lat="43.9426956" lon="8.1203423">
        <ele>303.4000000</ele>
        <time>2010-03-07T12:13:33Z</time>
      </trkpt>
      <trkpt lat="43.9425735" lon="8.1201114">
        <ele>297.5000000</ele>
        <time>2010-03-07T12:13:37Z</time>
      </trkpt>
      <trkpt lat="43.9425202" lon="8.1198702">
        <ele>292.5000000</ele>
        <time>2010-03-07T12:13:40Z</time>
      </trkpt>
      <trkpt lat="43.9424019" lon="8.1195955">
        <ele>286.1000000</ele>
        <time>2010-03-07T12:13:44Z</time>
      </trkpt>
      <trkpt lat="43.9423599" lon="8.1194696">
        <ele>283.6000000</ele>
        <time>2010-03-07T12:13:46Z</time>
      </trkpt>
      <trkpt lat="43.9423027" lon="8.1193676">
        <ele>280.3000000</ele>
        <time>2010-03-07T12:13:48Z</time>
      </trkpt>
      <trkpt lat="43.9422073" lon="8.1191178">
        <ele>275.7000000</ele>
        <time>2010-03-07T12:13:53Z</time>
      </trkpt>
      <trkpt lat="43.9421768" lon="8.1189499">
        <ele>272.8000000</ele>
        <time>2010-03-07T12:13:56Z</time>
      </trkpt>
      <trkpt lat="43.9421501" lon="8.1187372">
        <ele>267.5000000</ele>
        <time>2010-03-07T12:14:00Z</time>
      </trkpt>
      <trkpt lat="43.9420967" lon="8.1185723">
        <ele>263.8000000</ele>
        <time>2010-03-07T12:14:03Z</time>
      </trkpt>
      <trkpt lat="43.9419975" lon="8.1183748">
        <ele>260.0000000</ele>
        <time>2010-03-07T12:14:07Z</time>
      </trkpt>
      <trkpt lat="43.9418678" lon="8.1182403">
        <ele>256.6000000</ele>
        <time>2010-03-07T12:14:11Z</time>
      </trkpt>
      <trkpt lat="43.9417649" lon="8.1179972">
        <ele>253.7000000</ele>
        <time>2010-03-07T12:14:15Z</time>
      </trkpt>
      <trkpt lat="43.9417915" lon="8.1178770">
        <ele>250.8000000</ele>
        <time>2010-03-07T12:14:18Z</time>
      </trkpt>
      <trkpt lat="43.9417496" lon="8.1177835">
        <ele>248.8000000</ele>
        <time>2010-03-07T12:14:20Z</time>
      </trkpt>
      <trkpt lat="43.9416313" lon="8.1175194">
        <ele>246.6000000</ele>
        <time>2010-03-07T12:14:25Z</time>
      </trkpt>
      <trkpt lat="43.9415703" lon="8.1173391">
        <ele>244.4000000</ele>
        <time>2010-03-07T12:14:28Z</time>
      </trkpt>
      <trkpt lat="43.9415359" lon="8.1172047">
        <ele>243.7000000</ele>
        <time>2010-03-07T12:14:30Z</time>
      </trkpt>
      <trkpt lat="43.9415054" lon="8.1169662">
        <ele>239.9000000</ele>
        <time>2010-03-07T12:14:34Z</time>
      </trkpt>
      <trkpt lat="43.9414863" lon="8.1168051">
        <ele>238.1000000</ele>
        <time>2010-03-07T12:14:36Z</time>
      </trkpt>
      <trkpt lat="43.9413528" lon="8.1164856">
        <ele>234.7000000</ele>
        <time>2010-03-07T12:14:41Z</time>
      </trkpt>
      <trkpt lat="43.9412575" lon="8.1162396">
        <ele>232.9000000</ele>
        <time>2010-03-07T12:14:45Z</time>
      </trkpt>
      <trkpt lat="43.9411926" lon="8.1160383">
        <ele>230.5000000</ele>
        <time>2010-03-07T12:14:48Z</time>
      </trkpt>
      <trkpt lat="43.9411659" lon="8.1158972">
        <ele>227.9000000</ele>
        <time>2010-03-07T12:14:50Z</time>
      </trkpt>
      <trkpt lat="43.9410858" lon="8.1157456">
        <ele>226.3000000</ele>
        <time>2010-03-07T12:14:53Z</time>
      </trkpt>
      <trkpt lat="43.9410171" lon="8.1156330">
        <ele>225.0000000</ele>
        <time>2010-03-07T12:14:55Z</time>
      </trkpt>
      <trkpt lat="43.9409408" lon="8.1155253">
        <ele>224.1000000</ele>
        <time>2010-03-07T12:14:57Z</time>
      </trkpt>
      <trkpt lat="43.9408493" lon="8.1153641">
        <ele>223.8000000</ele>
        <time>2010-03-07T12:15:01Z</time>
      </trkpt>
      <trkpt lat="43.9408188" lon="8.1152411">
        <ele>223.1000000</ele>
        <time>2010-03-07T12:15:03Z</time>
      </trkpt>
      <trkpt lat="43.9407921" lon="8.1148901">
        <ele>221.0000000</ele>
        <time>2010-03-07T12:15:09Z</time>
      </trkpt>
      <trkpt lat="43.9407768" lon="8.1147013">
        <ele>221.0000000</ele>
        <time>2010-03-07T12:15:13Z</time>
      </trkpt>
      <trkpt lat="43.9407615" lon="8.1146536">
        <ele>221.1000000</ele>
        <time>2010-03-07T12:15:14Z</time>
      </trkpt>
      <trkpt lat="43.9407005" lon="8.1144924">
        <ele>222.4000000</ele>
        <time>2010-03-07T12:15:19Z</time>
      </trkpt>
      <trkpt lat="43.9406853" lon="8.1143237">
        <ele>223.2000000</ele>
        <time>2010-03-07T12:15:23Z</time>
      </trkpt>
      <trkpt lat="43.9406700" lon="8.1142826">
        <ele>223.4000000</ele>
        <time>2010-03-07T12:15:24Z</time>
      </trkpt>
      <trkpt lat="43.9406051" lon="8.1141061">
        <ele>225.0000000</ele>
        <time>2010-03-07T12:15:29Z</time>
      </trkpt>
      <trkpt lat="43.9405060" lon="8.1140662">
        <ele>226.4000000</ele>
        <time>2010-03-07T12:15:34Z</time>
      </trkpt>
      <trkpt lat="43.9404411" lon="8.1139212">
        <ele>225.5000000</ele>
        <time>2010-03-07T12:15:39Z</time>
      </trkpt>
      <trkpt lat="43.9403611" lon="8.1137724">
        <ele>226.3000000</ele>
        <time>2010-03-07T12:15:43Z</time>
      </trkpt>
      <trkpt lat="43.9402428" lon="8.1136399">
        <ele>224.9000000</ele>
        <time>2010-03-07T12:15:47Z</time>
      </trkpt>
      <trkpt lat="43.9402047" lon="8.1134968">
        <ele>222.2000000</ele>
        <time>2010-03-07T12:15:50Z</time>
      </trkpt>
      <trkpt lat="43.9402542" lon="8.1132374">
        <ele>219.2000000</ele>
        <time>2010-03-07T12:15:55Z</time>
      </trkpt>
      <trkpt lat="43.9402313" lon="8.1130276">
        <ele>214.1000000</ele>
        <time>2010-03-07T12:15:59Z</time>
      </trkpt>
      <trkpt lat="43.9401512" lon="8.1130457">
        <ele>213.6000000</ele>
        <time>2010-03-07T12:16:02Z</time>
      </trkpt>
      <trkpt lat="43.9401169" lon="8.1130628">
        <ele>213.8000000</ele>
        <time>2010-03-07T12:16:03Z</time>
      </trkpt>
      <trkpt lat="43.9399032" lon="8.1131973">
        <ele>213.9000000</ele>
        <time>2010-03-07T12:16:09Z</time>
      </trkpt>
      <trkpt lat="43.9397697" lon="8.1132565">
        <ele>212.1000000</ele>
        <time>2010-03-07T12:16:12Z</time>
      </trkpt>
      <trkpt lat="43.9396172" lon="8.1132498">
        <ele>208.4000000</ele>
        <time>2010-03-07T12:16:16Z</time>
      </trkpt>
      <trkpt lat="43.9395333" lon="8.1131096">
        <ele>205.0000000</ele>
        <time>2010-03-07T12:16:19Z</time>
      </trkpt>
      <trkpt lat="43.9393769" lon="8.1130829">
        <ele>202.1000000</ele>
        <time>2010-03-07T12:16:22Z</time>
      </trkpt>
      <trkpt lat="43.9393272" lon="8.1131020">
        <ele>201.6000000</ele>
        <time>2010-03-07T12:16:23Z</time>
      </trkpt>
      <trkpt lat="43.9392242" lon="8.1131334">
        <ele>200.9000000</ele>
        <time>2010-03-07T12:16:25Z</time>
      </trkpt>
      <trkpt lat="43.9390907" lon="8.1130286">
        <ele>197.5000000</ele>
        <time>2010-03-07T12:16:29Z</time>
      </trkpt>
      <trkpt lat="43.9390946" lon="8.1129408">
        <ele>196.2000000</ele>
        <time>2010-03-07T12:16:31Z</time>
      </trkpt>
      <trkpt lat="43.9391213" lon="8.1129093">
        <ele>196.1000000</ele>
        <time>2010-03-07T12:16:32Z</time>
      </trkpt>
      <trkpt lat="43.9391899" lon="8.1128034">
        <ele>195.6000000</ele>
        <time>2010-03-07T12:16:35Z</time>
      </trkpt>
      <trkpt lat="43.9391594" lon="8.1127215">
        <ele>193.3000000</ele>
        <time>2010-03-07T12:16:37Z</time>
      </trkpt>
      <trkpt lat="43.9390869" lon="8.1127300">
        <ele>192.5000000</ele>
        <time>2010-03-07T12:16:39Z</time>
      </trkpt>
      <trkpt lat="43.9389839" lon="8.1127043">
        <ele>192.2000000</ele>
        <time>2010-03-07T12:16:42Z</time>
      </trkpt>
      <trkpt lat="43.9389495" lon="8.1125755">
        <ele>191.4000000</ele>
        <time>2010-03-07T12:16:46Z</time>
      </trkpt>
      <trkpt lat="43.9389878" lon="8.1124448">
        <ele>189.2000000</ele>
        <time>2010-03-07T12:16:49Z</time>
      </trkpt>
      <trkpt lat="43.9389648" lon="8.1124106">
        <ele>188.3000000</ele>
        <time>2010-03-07T12:16:50Z</time>
      </trkpt>
      <trkpt lat="43.9387550" lon="8.1121769">
        <ele>183.2000000</ele>
        <time>2010-03-07T12:16:55Z</time>
      </trkpt>
      <trkpt lat="43.9386864" lon="8.1119871">
        <ele>179.0000000</ele>
        <time>2010-03-07T12:17:00Z</time>
      </trkpt>
      <trkpt lat="43.9386750" lon="8.1119232">
        <ele>177.4000000</ele>
        <time>2010-03-07T12:17:02Z</time>
      </trkpt>
      <trkpt lat="43.9387169" lon="8.1118288">
        <ele>175.3000000</ele>
        <time>2010-03-07T12:17:05Z</time>
      </trkpt>
      <trkpt lat="43.9386978" lon="8.1117440">
        <ele>173.5000000</ele>
        <time>2010-03-07T12:17:07Z</time>
      </trkpt>
      <trkpt lat="43.9386101" lon="8.1115828">
        <ele>171.1000000</ele>
        <time>2010-03-07T12:17:10Z</time>
      </trkpt>
      <trkpt lat="43.9385643" lon="8.1114530">
        <ele>168.8000000</ele>
        <time>2010-03-07T12:17:12Z</time>
      </trkpt>
      <trkpt lat="43.9385491" lon="8.1113234">
        <ele>166.3000000</ele>
        <time>2010-03-07T12:17:14Z</time>
      </trkpt>
      <trkpt lat="43.9384537" lon="8.1111545">
        <ele>163.7000000</ele>
        <time>2010-03-07T12:17:17Z</time>
      </trkpt>
      <trkpt lat="43.9383698" lon="8.1109829">
        <ele>162.1000000</ele>
        <time>2010-03-07T12:17:20Z</time>
      </trkpt>
      <trkpt lat="43.9383240" lon="8.1109380">
        <ele>161.9000000</ele>
        <time>2010-03-07T12:17:21Z</time>
      </trkpt>
      <trkpt lat="43.9382362" lon="8.1108427">
        <ele>161.4000000</ele>
        <time>2010-03-07T12:17:23Z</time>
      </trkpt>
      <trkpt lat="43.9381485" lon="8.1105375">
        <ele>160.0000000</ele>
        <time>2010-03-07T12:17:27Z</time>
      </trkpt>
      <trkpt lat="43.9380912" lon="8.1103478">
        <ele>159.0000000</ele>
        <time>2010-03-07T12:17:30Z</time>
      </trkpt>
      <trkpt lat="43.9380493" lon="8.1101398">
        <ele>157.9000000</ele>
        <time>2010-03-07T12:17:33Z</time>
      </trkpt>
      <trkpt lat="43.9379768" lon="8.1100321">
        <ele>156.5000000</ele>
        <time>2010-03-07T12:17:35Z</time>
      </trkpt>
      <trkpt lat="43.9378319" lon="8.1096573">
        <ele>154.1000000</ele>
        <time>2010-03-07T12:17:40Z</time>
      </trkpt>
      <trkpt lat="43.9376526" lon="8.1093778">
        <ele>150.4000000</ele>
        <time>2010-03-07T12:17:44Z</time>
      </trkpt>
      <trkpt lat="43.9375954" lon="8.1093340">
        <ele>150.3000000</ele>
        <time>2010-03-07T12:17:45Z</time>
      </trkpt>
      <trkpt lat="43.9374313" lon="8.1091109">
        <ele>149.7000000</ele>
        <time>2010-03-07T12:17:49Z</time>
      </trkpt>
      <trkpt lat="43.9372788" lon="8.1088676">
        <ele>146.9000000</ele>
        <time>2010-03-07T12:17:53Z</time>
      </trkpt>
      <trkpt lat="43.9371681" lon="8.1087370">
        <ele>145.2000000</ele>
        <time>2010-03-07T12:17:56Z</time>
      </trkpt>
      <trkpt lat="43.9371033" lon="8.1086826">
        <ele>144.2000000</ele>
        <time>2010-03-07T12:17:58Z</time>
      </trkpt>
      <trkpt lat="43.9369660" lon="8.1084957">
        <ele>139.1000000</ele>
        <time>2010-03-07T12:18:02Z</time>
      </trkpt>
      <trkpt lat="43.9369278" lon="8.1085214">
        <ele>137.1000000</ele>
        <time>2010-03-07T12:18:05Z</time>
      </trkpt>
      <trkpt lat="43.9369126" lon="8.1085386">
        <ele>136.9000000</ele>
        <time>2010-03-07T12:18:06Z</time>
      </trkpt>
      <trkpt lat="43.9367562" lon="8.1086092">
        <ele>132.3000000</ele>
        <time>2010-03-07T12:18:12Z</time>
      </trkpt>
      <trkpt lat="43.9367523" lon="8.1084471">
        <ele>128.4000000</ele>
        <time>2010-03-07T12:18:16Z</time>
      </trkpt>
      <trkpt lat="43.9368438" lon="8.1082153">
        <ele>127.7000000</ele>
        <time>2010-03-07T12:18:20Z</time>
      </trkpt>
      <trkpt lat="43.9368401" lon="8.1081286">
        <ele>126.4000000</ele>
        <time>2010-03-07T12:18:22Z</time>
      </trkpt>
      <trkpt lat="43.9367791" lon="8.1081791">
        <ele>125.2000000</ele>
        <time>2010-03-07T12:18:25Z</time>
      </trkpt>
      <trkpt lat="43.9367027" lon="8.1083164">
        <ele>125.7000000</ele>
        <time>2010-03-07T12:18:29Z</time>
      </trkpt>
      <trkpt lat="43.9366340" lon="8.1082897">
        <ele>123.8000000</ele>
        <time>2010-03-07T12:18:31Z</time>
      </trkpt>
      <trkpt lat="43.9365081" lon="8.1084023">
        <ele>119.3000000</ele>
        <time>2010-03-07T12:18:35Z</time>
      </trkpt>
      <trkpt lat="43.9364319" lon="8.1084824">
        <ele>117.5000000</ele>
        <time>2010-03-07T12:18:38Z</time>
      </trkpt>
      <trkpt lat="43.9364357" lon="8.1084060">
        <ele>116.6000000</ele>
        <time>2010-03-07T12:18:40Z</time>
      </trkpt>
      <trkpt lat="43.9364700" lon="8.1083269">
        <ele>116.4000000</ele>
        <time>2010-03-07T12:18:42Z</time>
      </trkpt>
      <trkpt lat="43.9364052" lon="8.1082620">
        <ele>112.3000000</ele>
        <time>2010-03-07T12:18:46Z</time>
      </trkpt>
      <trkpt lat="43.9363098" lon="8.1083546">
        <ele>110.2000000</ele>
        <time>2010-03-07T12:18:49Z</time>
      </trkpt>
      <trkpt lat="43.9362831" lon="8.1084480">
        <ele>109.5000000</ele>
        <time>2010-03-07T12:18:51Z</time>
      </trkpt>
      <trkpt lat="43.9362907" lon="8.1085558">
        <ele>109.7000000</ele>
        <time>2010-03-07T12:18:53Z</time>
      </trkpt>
      <trkpt lat="43.9362907" lon="8.1086979">
        <ele>110.3000000</ele>
        <time>2010-03-07T12:18:56Z</time>
      </trkpt>
      <trkpt lat="43.9363480" lon="8.1089630">
        <ele>108.8000000</ele>
        <time>2010-03-07T12:19:01Z</time>
      </trkpt>
      <trkpt lat="43.9363441" lon="8.1091356">
        <ele>107.9000000</ele>
        <time>2010-03-07T12:19:04Z</time>
      </trkpt>
      <trkpt lat="43.9362907" lon="8.1092052">
        <ele>106.0000000</ele>
        <time>2010-03-07T12:19:07Z</time>
      </trkpt>
      <trkpt lat="43.9362373" lon="8.1093054">
        <ele>102.5000000</ele>
        <time>2010-03-07T12:19:09Z</time>
      </trkpt>
      <trkpt lat="43.9361611" lon="8.1094294">
        <ele>99.8000000</ele>
        <time>2010-03-07T12:19:12Z</time>
      </trkpt>
      <trkpt lat="43.9361267" lon="8.1094456">
        <ele>99.5000000</ele>
        <time>2010-03-07T12:19:13Z</time>
      </trkpt>
      <trkpt lat="43.9360046" lon="8.1094570">
        <ele>99.7000000</ele>
        <time>2010-03-07T12:19:16Z</time>
      </trkpt>
      <trkpt lat="43.9357872" lon="8.1094113">
        <ele>99.5000000</ele>
        <time>2010-03-07T12:19:21Z</time>
      </trkpt>
      <trkpt lat="43.9356003" lon="8.1094189">
        <ele>98.5000000</ele>
        <time>2010-03-07T12:19:26Z</time>
      </trkpt>
      <trkpt lat="43.9355163" lon="8.1093684">
        <ele>97.2000000</ele>
        <time>2010-03-07T12:19:29Z</time>
      </trkpt>
      <trkpt lat="43.9352875" lon="8.1091776">
        <ele>95.7000000</ele>
        <time>2010-03-07T12:19:34Z</time>
      </trkpt>
      <trkpt lat="43.9351463" lon="8.1091194">
        <ele>95.1000000</ele>
        <time>2010-03-07T12:19:37Z</time>
      </trkpt>
      <trkpt lat="43.9350128" lon="8.1089478">
        <ele>92.2000000</ele>
        <time>2010-03-07T12:19:41Z</time>
      </trkpt>
      <trkpt lat="43.9349747" lon="8.1089296">
        <ele>91.9000000</ele>
        <time>2010-03-07T12:19:42Z</time>
      </trkpt>
      <trkpt lat="43.9347839" lon="8.1088428">
        <ele>91.7000000</ele>
        <time>2010-03-07T12:19:47Z</time>
      </trkpt>
      <trkpt lat="43.9346924" lon="8.1087255">
        <ele>88.5000000</ele>
        <time>2010-03-07T12:19:51Z</time>
      </trkpt>
      <trkpt lat="43.9345741" lon="8.1086225">
        <ele>86.8000000</ele>
        <time>2010-03-07T12:19:54Z</time>
      </trkpt>
      <trkpt lat="43.9344139" lon="8.1084690">
        <ele>86.3000000</ele>
        <time>2010-03-07T12:19:59Z</time>
      </trkpt>
      <trkpt lat="43.9342384" lon="8.1083097">
        <ele>86.6000000</ele>
        <time>2010-03-07T12:20:04Z</time>
      </trkpt>
      <trkpt lat="43.9340820" lon="8.1081066">
        <ele>84.4000000</ele>
        <time>2010-03-07T12:20:10Z</time>
      </trkpt>
      <trkpt lat="43.9340782" lon="8.1080398">
        <ele>83.0000000</ele>
        <time>2010-03-07T12:20:13Z</time>
      </trkpt>
      <trkpt lat="43.9340744" lon="8.1079283">
        <ele>78.7000000</ele>
        <time>2010-03-07T12:20:17Z</time>
      </trkpt>
      <trkpt lat="43.9340668" lon="8.1078167">
        <ele>73.8000000</ele>
        <time>2010-03-07T12:20:21Z</time>
      </trkpt>
      <trkpt lat="43.9341125" lon="8.1077662">
        <ele>70.2000000</ele>
        <time>2010-03-07T12:20:25Z</time>
      </trkpt>
      <trkpt lat="43.9340820" lon="8.1076679">
        <ele>66.8000000</ele>
        <time>2010-03-07T12:20:28Z</time>
      </trkpt>
      <trkpt lat="43.9340896" lon="8.1075745">
        <ele>64.8000000</ele>
        <time>2010-03-07T12:20:31Z</time>
      </trkpt>
      <trkpt lat="43.9341584" lon="8.1075649">
        <ele>61.2000000</ele>
        <time>2010-03-07T12:20:34Z</time>
      </trkpt>
      <trkpt lat="43.9341889" lon="8.1075354">
        <ele>59.9000000</ele>
        <time>2010-03-07T12:20:36Z</time>
      </trkpt>
      <trkpt lat="43.9341774" lon="8.1075124">
        <ele>59.7000000</ele>
        <time>2010-03-07T12:20:37Z</time>
      </trkpt>
      <trkpt lat="43.9340782" lon="8.1074161">
        <ele>59.1000000</ele>
        <time>2010-03-07T12:20:41Z</time>
      </trkpt>
      <trkpt lat="43.9340973" lon="8.1073389">
        <ele>57.0000000</ele>
        <time>2010-03-07T12:20:44Z</time>
      </trkpt>
      <trkpt lat="43.9341164" lon="8.1073456">
        <ele>56.1000000</ele>
        <time>2010-03-07T12:20:45Z</time>
      </trkpt>
      <trkpt lat="43.9341736" lon="8.1073866">
        <ele>55.4000000</ele>
        <time>2010-03-07T12:20:47Z</time>
      </trkpt>
      <trkpt lat="43.9342194" lon="8.1073237">
        <ele>54.2000000</ele>
        <time>2010-03-07T12:20:51Z</time>
      </trkpt>
      <trkpt lat="43.9342079" lon="8.1072244">
        <ele>51.0000000</ele>
        <time>2010-03-07T12:20:53Z</time>
      </trkpt>
      <trkpt lat="43.9341393" lon="8.1071625">
        <ele>50.1000000</ele>
        <time>2010-03-07T12:20:58Z</time>
      </trkpt>
      <trkpt lat="43.9340554" lon="8.1070327">
        <ele>48.9000000</ele>
        <time>2010-03-07T12:21:01Z</time>
      </trkpt>
      <trkpt lat="43.9340020" lon="8.1069298">
        <ele>46.8000000</ele>
        <time>2010-03-07T12:21:03Z</time>
      </trkpt>
      <trkpt lat="43.9338951" lon="8.1066141">
        <ele>40.2000000</ele>
        <time>2010-03-07T12:21:08Z</time>
      </trkpt>
      <trkpt lat="43.9339295" lon="8.1065188">
        <ele>38.0000000</ele>
        <time>2010-03-07T12:21:11Z</time>
      </trkpt>
      <trkpt lat="43.9339447" lon="8.1064262">
        <ele>34.6000000</ele>
        <time>2010-03-07T12:21:14Z</time>
      </trkpt>
      <trkpt lat="43.9338798" lon="8.1063395">
        <ele>31.4000000</ele>
        <time>2010-03-07T12:21:17Z</time>
      </trkpt>
      <trkpt lat="43.9336891" lon="8.1063308">
        <ele>29.4000000</ele>
        <time>2010-03-07T12:21:21Z</time>
      </trkpt>
      <trkpt lat="43.9336395" lon="8.1063519">
        <ele>29.5000000</ele>
        <time>2010-03-07T12:21:22Z</time>
      </trkpt>
      <trkpt lat="43.9334679" lon="8.1063728">
        <ele>31.4000000</ele>
        <time>2010-03-07T12:21:27Z</time>
      </trkpt>
      <trkpt lat="43.9332352" lon="8.1063785">
        <ele>29.6000000</ele>
        <time>2010-03-07T12:21:32Z</time>
      </trkpt>
      <trkpt lat="43.9331779" lon="8.1062670">
        <ele>25.9000000</ele>
        <time>2010-03-07T12:21:35Z</time>
      </trkpt>
      <trkpt lat="43.9329949" lon="8.1062622">
        <ele>22.6000000</ele>
        <time>2010-03-07T12:21:38Z</time>
      </trkpt>
      <trkpt lat="43.9327812" lon="8.1062785">
        <ele>21.9000000</ele>
        <time>2010-03-07T12:21:41Z</time>
      </trkpt>
      <trkpt lat="43.9326516" lon="8.1061602">
        <ele>20.1000000</ele>
        <time>2010-03-07T12:21:44Z</time>
      </trkpt>
      <trkpt lat="43.9325714" lon="8.1060619">
        <ele>18.8000000</ele>
        <time>2010-03-07T12:21:46Z</time>
      </trkpt>
      <trkpt lat="43.9324646" lon="8.1059580">
        <ele>17.3000000</ele>
        <time>2010-03-07T12:21:49Z</time>
      </trkpt>
      <trkpt lat="43.9322967" lon="8.1057568">
        <ele>14.9000000</ele>
        <time>2010-03-07T12:21:53Z</time>
      </trkpt>
      <trkpt lat="43.9322166" lon="8.1054583">
        <ele>11.0000000</ele>
        <time>2010-03-07T12:21:58Z</time>
      </trkpt>
      <trkpt lat="43.9321442" lon="8.1053734">
        <ele>10.1000000</ele>
        <time>2010-03-07T12:22:00Z</time>
      </trkpt>
      <trkpt lat="43.9320907" lon="8.1053610">
        <ele>9.3000000</ele>
        <time>2010-03-07T12:22:01Z</time>
      </trkpt>
      <trkpt lat="43.9319611" lon="8.1053438">
        <ele>8.0000000</ele>
        <time>2010-03-07T12:22:03Z</time>
      </trkpt>
      <trkpt lat="43.9316025" lon="8.1054058">
        <ele>6.3000000</ele>
        <time>2010-03-07T12:22:09Z</time>
      </trkpt>
      <trkpt lat="43.9311561" lon="8.1054496">
        <ele>5.6000000</ele>
        <time>2010-03-07T12:22:17Z</time>
      </trkpt>
      <trkpt lat="43.9307709" lon="8.1053543">
        <ele>5.1000000</ele>
        <time>2010-03-07T12:22:24Z</time>
      </trkpt>
      <trkpt lat="43.9304733" lon="8.1053457">
        <ele>4.2000000</ele>
        <time>2010-03-07T12:22:30Z</time>
      </trkpt>
      <trkpt lat="43.9302292" lon="8.1053791">
        <ele>3.6000000</ele>
        <time>2010-03-07T12:22:36Z</time>
      </trkpt>
      <trkpt lat="43.9300384" lon="8.1053991">
        <ele>3.3000000</ele>
        <time>2010-03-07T12:22:42Z</time>
      </trkpt>
      <trkpt lat="43.9300194" lon="8.1053973">
        <ele>3.3000000</ele>
        <time>2010-03-07T12:22:45Z</time>
      </trkpt>
      <trkpt lat="43.9300232" lon="8.1053906">
        <ele>4.1000000</ele>
        <time>2010-03-07T12:22:54Z</time>
      </trkpt>
      <trkpt lat="43.9300232" lon="8.1053896">
        <ele>3.6000000</ele>
        <time>2010-03-07T12:22:56Z</time>
      </trkpt>
      <trkpt lat="43.9300346" lon="8.1053867">
        <ele>3.6000000</ele>
        <time>2010-03-07T12:23:20Z</time>
      </trkpt>
      <trkpt lat="43.9300041" lon="8.1054115">
        <ele>3.8000000</ele>
        <time>2010-03-07T12:23:24Z</time>
      </trkpt>
      <trkpt lat="43.9298821" lon="8.1054287">
        <ele>3.0000000</ele>
        <time>2010-03-07T12:23:29Z</time>
      </trkpt>
      <trkpt lat="43.9296608" lon="8.1054602">
        <ele>3.9000000</ele>
        <time>2010-03-07T12:23:36Z</time>
      </trkpt>
      <trkpt lat="43.9294358" lon="8.1055060">
        <ele>3.2000000</ele>
        <time>2010-03-07T12:23:42Z</time>
      </trkpt>
      <trkpt lat="43.9290848" lon="8.1055584">
        <ele>2.9000000</ele>
        <time>2010-03-07T12:23:50Z</time>
      </trkpt>
      <trkpt lat="43.9287224" lon="8.1055803">
        <ele>2.6000000</ele>
        <time>2010-03-07T12:23:58Z</time>
      </trkpt>
      <trkpt lat="43.9283600" lon="8.1056729">
        <ele>1.6000000</ele>
        <time>2010-03-07T12:24:06Z</time>
      </trkpt>
      <trkpt lat="43.9278984" lon="8.1057511">
        <ele>0.4000000</ele>
        <time>2010-03-07T12:24:16Z</time>
      </trkpt>
      <trkpt lat="43.9275246" lon="8.1058340">
        <ele>-0.2000000</ele>
        <time>2010-03-07T12:24:24Z</time>
      </trkpt>
      <trkpt lat="43.9270401" lon="8.1059628">
        <ele>-1.1000000</ele>
        <time>2010-03-07T12:24:34Z</time>
      </trkpt>
      <trkpt lat="43.9266663" lon="8.1061268">
        <ele>-2.1000000</ele>
        <time>2010-03-07T12:24:42Z</time>
      </trkpt>
      <trkpt lat="43.9265060" lon="8.1062002">
        <ele>-1.4000000</ele>
        <time>2010-03-07T12:24:46Z</time>
      </trkpt>
      <trkpt lat="43.9262696" lon="8.1062031">
        <ele>-2.4000000</ele>
        <time>2010-03-07T12:24:51Z</time>
      </trkpt>
      <trkpt lat="43.9258156" lon="8.1061297">
        <ele>-2.9000000</ele>
        <time>2010-03-07T12:25:00Z</time>
      </trkpt>
      <trkpt lat="43.9252625" lon="8.1060438">
        <ele>-4.6000000</ele>
        <time>2010-03-07T12:25:10Z</time>
      </trkpt>
      <trkpt lat="43.9252090" lon="8.1060438">
        <ele>-4.7000000</ele>
        <time>2010-03-07T12:25:11Z</time>
      </trkpt>
      <trkpt lat="43.9249115" lon="8.1061744">
        <ele>-4.9000000</ele>
        <time>2010-03-07T12:25:17Z</time>
      </trkpt>
      <trkpt lat="43.9246711" lon="8.1064024">
        <ele>-5.3000000</ele>
        <time>2010-03-07T12:25:23Z</time>
      </trkpt>
      <trkpt lat="43.9245911" lon="8.1064748">
        <ele>-5.5000000</ele>
        <time>2010-03-07T12:25:25Z</time>
      </trkpt>
      <trkpt lat="43.9242287" lon="8.1066465">
        <ele>-6.2000000</ele>
        <time>2010-03-07T12:25:33Z</time>
      </trkpt>
      <trkpt lat="43.9239655" lon="8.1067495">
        <ele>-7.0000000</ele>
        <time>2010-03-07T12:25:40Z</time>
      </trkpt>
      <trkpt lat="43.9238357" lon="8.1068115">
        <ele>-7.3000000</ele>
        <time>2010-03-07T12:25:44Z</time>
      </trkpt>
      <trkpt lat="43.9238357" lon="8.1069260">
        <ele>-7.1000000</ele>
        <time>2010-03-07T12:25:48Z</time>
      </trkpt>
      <trkpt lat="43.9238663" lon="8.1070280">
        <ele>-7.0000000</ele>
        <time>2010-03-07T12:25:53Z</time>
      </trkpt>
      <trkpt lat="43.9238739" lon="8.1070614">
        <ele>-7.0000000</ele>
        <time>2010-03-07T12:25:58Z</time>
      </trkpt>
      <trkpt lat="43.9238625" lon="8.1070632">
        <ele>-6.7000000</ele>
        <time>2010-03-07T12:26:27Z</time>
      </trkpt>
      <trkpt lat="43.9238625" lon="8.1070643">
        <ele>-6.5000000</ele>
        <time>2010-03-07T12:26:28Z</time>
      </trkpt>
      <trkpt lat="43.9238816" lon="8.1070604">
        <ele>-6.8000000</ele>
        <time>2010-03-07T12:26:47Z</time>
      </trkpt>
      <trkpt lat="43.9239311" lon="8.1071062">
        <ele>-6.3000000</ele>
        <time>2010-03-07T12:26:51Z</time>
      </trkpt>
      <trkpt lat="43.9240609" lon="8.1073570">
        <ele>-7.5000000</ele>
        <time>2010-03-07T12:26:58Z</time>
      </trkpt>
      <trkpt lat="43.9241753" lon="8.1076651">
        <ele>-7.1000000</ele>
        <time>2010-03-07T12:27:05Z</time>
      </trkpt>
      <trkpt lat="43.9242668" lon="8.1081419">
        <ele>-7.5000000</ele>
        <time>2010-03-07T12:27:15Z</time>
      </trkpt>
      <trkpt lat="43.9243317" lon="8.1086206">
        <ele>-7.9000000</ele>
        <time>2010-03-07T12:27:25Z</time>
      </trkpt>
      <trkpt lat="43.9243469" lon="8.1091299">
        <ele>-8.8000000</ele>
        <time>2010-03-07T12:27:35Z</time>
      </trkpt>
      <trkpt lat="43.9243088" lon="8.1095142">
        <ele>-8.4000000</ele>
        <time>2010-03-07T12:27:42Z</time>
      </trkpt>
      <trkpt lat="43.9242210" lon="8.1095590">
        <ele>-8.8000000</ele>
        <time>2010-03-07T12:27:45Z</time>
      </trkpt>
      <trkpt lat="43.9241868" lon="8.1094637">
        <ele>-8.8000000</ele>
        <time>2010-03-07T12:27:47Z</time>
      </trkpt>
      <trkpt lat="43.9241562" lon="8.1092930">
        <ele>-8.9000000</ele>
        <time>2010-03-07T12:27:50Z</time>
      </trkpt>
      <trkpt lat="43.9240951" lon="8.1091233">
        <ele>-9.4000000</ele>
        <time>2010-03-07T12:27:53Z</time>
      </trkpt>
      <trkpt lat="43.9239044" lon="8.1088581">
        <ele>-10.1000000</ele>
        <time>2010-03-07T12:27:59Z</time>
      </trkpt>
      <trkpt lat="43.9238548" lon="8.1087647">
        <ele>-10.1000000</ele>
        <time>2010-03-07T12:28:01Z</time>
      </trkpt>
      <trkpt lat="43.9237518" lon="8.1084852">
        <ele>-10.3000000</ele>
        <time>2010-03-07T12:28:05Z</time>
      </trkpt>
      <trkpt lat="43.9236793" lon="8.1084805">
        <ele>-10.4000000</ele>
        <time>2010-03-07T12:28:06Z</time>
      </trkpt>
      <trkpt lat="43.9234200" lon="8.1082516">
        <ele>-9.8000000</ele>
        <time>2010-03-07T12:28:13Z</time>
      </trkpt>
      <trkpt lat="43.9233093" lon="8.1078339">
        <ele>-8.9000000</ele>
        <time>2010-03-07T12:28:22Z</time>
      </trkpt>
      <trkpt lat="43.9232063" lon="8.1073246">
        <ele>-8.1000000</ele>
        <time>2010-03-07T12:28:33Z</time>
      </trkpt>
      <trkpt lat="43.9230767" lon="8.1069135">
        <ele>-6.7000000</ele>
        <time>2010-03-07T12:28:43Z</time>
      </trkpt>
      <trkpt lat="43.9230118" lon="8.1067162">
        <ele>-5.0000000</ele>
        <time>2010-03-07T12:28:48Z</time>
      </trkpt>
      <trkpt lat="43.9228859" lon="8.1063547">
        <ele>-5.1000000</ele>
        <time>2010-03-07T12:28:57Z</time>
      </trkpt>
      <trkpt lat="43.9226723" lon="8.1057110">
        <ele>-4.9000000</ele>
        <time>2010-03-07T12:29:12Z</time>
      </trkpt>
      <trkpt lat="43.9225693" lon="8.1054430">
        <ele>-5.2000000</ele>
        <time>2010-03-07T12:29:18Z</time>
      </trkpt>
      <trkpt lat="43.9224739" lon="8.1051817">
        <ele>-6.1000000</ele>
        <time>2010-03-07T12:29:23Z</time>
      </trkpt>
      <trkpt lat="43.9223442" lon="8.1050692">
        <ele>-6.8000000</ele>
        <time>2010-03-07T12:29:27Z</time>
      </trkpt>
      <trkpt lat="43.9222565" lon="8.1051015">
        <ele>-6.8000000</ele>
        <time>2010-03-07T12:29:29Z</time>
      </trkpt>
      <trkpt lat="43.9221573" lon="8.1051636">
        <ele>-6.5000000</ele>
        <time>2010-03-07T12:29:31Z</time>
      </trkpt>
      <trkpt lat="43.9220543" lon="8.1052179">
        <ele>-7.0000000</ele>
        <time>2010-03-07T12:29:33Z</time>
      </trkpt>
      <trkpt lat="43.9218674" lon="8.1053209">
        <ele>-7.0000000</ele>
        <time>2010-03-07T12:29:37Z</time>
      </trkpt>
      <trkpt lat="43.9217796" lon="8.1053801">
        <ele>-7.4000000</ele>
        <time>2010-03-07T12:29:39Z</time>
      </trkpt>
      <trkpt lat="43.9216041" lon="8.1054897">
        <ele>-8.2000000</ele>
        <time>2010-03-07T12:29:43Z</time>
      </trkpt>
      <trkpt lat="43.9214707" lon="8.1054678">
        <ele>-8.4000000</ele>
        <time>2010-03-07T12:29:47Z</time>
      </trkpt>
      <trkpt lat="43.9214401" lon="8.1053744">
        <ele>-8.4000000</ele>
        <time>2010-03-07T12:29:49Z</time>
      </trkpt>
      <trkpt lat="43.9213409" lon="8.1049824">
        <ele>-8.0000000</ele>
        <time>2010-03-07T12:29:57Z</time>
      </trkpt>
      <trkpt lat="43.9212227" lon="8.1046057">
        <ele>-8.8000000</ele>
        <time>2010-03-07T12:30:05Z</time>
      </trkpt>
      <trkpt lat="43.9211464" lon="8.1043157">
        <ele>-8.8000000</ele>
        <time>2010-03-07T12:30:11Z</time>
      </trkpt>
      <trkpt lat="43.9210739" lon="8.1040068">
        <ele>-8.5000000</ele>
        <time>2010-03-07T12:30:18Z</time>
      </trkpt>
      <trkpt lat="43.9209747" lon="8.1036644">
        <ele>-8.8000000</ele>
        <time>2010-03-07T12:30:25Z</time>
      </trkpt>
      <trkpt lat="43.9208565" lon="8.1033526">
        <ele>-9.0000000</ele>
        <time>2010-03-07T12:30:32Z</time>
      </trkpt>
      <trkpt lat="43.9207993" lon="8.1031180">
        <ele>-8.5000000</ele>
        <time>2010-03-07T12:30:37Z</time>
      </trkpt>
      <trkpt lat="43.9207878" lon="8.1029463">
        <ele>-8.4000000</ele>
        <time>2010-03-07T12:30:41Z</time>
      </trkpt>
      <trkpt lat="43.9206886" lon="8.1029291">
        <ele>-8.5000000</ele>
        <time>2010-03-07T12:30:45Z</time>
      </trkpt>
      <trkpt lat="43.9205513" lon="8.1029844">
        <ele>-8.6000000</ele>
        <time>2010-03-07T12:30:50Z</time>
      </trkpt>
      <trkpt lat="43.9204826" lon="8.1028881">
        <ele>-8.6000000</ele>
        <time>2010-03-07T12:30:55Z</time>
      </trkpt>
      <trkpt lat="43.9204025" lon="8.1028729">
        <ele>-8.6000000</ele>
        <time>2010-03-07T12:30:59Z</time>
      </trkpt>
      <trkpt lat="43.9203453" lon="8.1029901">
        <ele>-8.6000000</ele>
        <time>2010-03-07T12:31:04Z</time>
      </trkpt>
      <trkpt lat="43.9203567" lon="8.1030388">
        <ele>-8.4000000</ele>
        <time>2010-03-07T12:31:08Z</time>
      </trkpt>
      <trkpt lat="43.9203644" lon="8.1030426">
        <ele>-8.4000000</ele>
        <time>2010-03-07T12:31:19Z</time>
      </trkpt>
      <trkpt lat="43.9203682" lon="8.1030416">
        <ele>-8.4000000</ele>
        <time>2010-03-07T12:31:29Z</time>
      </trkpt>
      <trkpt lat="43.9203682" lon="8.1030388">
        <ele>-8.6000000</ele>
        <time>2010-03-07T12:31:58Z</time>
      </trkpt>
      <trkpt lat="43.9203682" lon="8.1030388">
        <ele>-8.3000000</ele>
        <time>2010-03-07T12:32:08Z</time>
      </trkpt>
      <trkpt lat="43.9203758" lon="8.1030350">
        <ele>-8.0000000</ele>
        <time>2010-03-07T12:33:05Z</time>
      </trkpt>
      <trkpt lat="43.9203758" lon="8.1030350">
        <ele>-8.0000000</ele>
        <time>2010-03-07T12:33:06Z</time>
      </trkpt>
      <trkpt lat="43.9203720" lon="8.1030359">
        <ele>-7.8000000</ele>
        <time>2010-03-07T12:33:48Z</time>
      </trkpt>
      <trkpt lat="43.9203720" lon="8.1030359">
        <ele>-7.8000000</ele>
        <time>2010-03-07T12:33:52Z</time>
      </trkpt>
      <trkpt lat="43.9203720" lon="8.1030359">
        <ele>-7.7000000</ele>
        <time>2010-03-07T12:33:53Z</time>
      </trkpt>
      <trkpt lat="43.9203796" lon="8.1030331">
        <ele>-7.2000000</ele>
        <time>2010-03-07T12:34:49Z</time>
      </trkpt>
      <trkpt lat="43.9203796" lon="8.1030331">
        <ele>-7.3000000</ele>
        <time>2010-03-07T12:34:52Z</time>
      </trkpt>
      <trkpt lat="43.9203796" lon="8.1030331">
        <ele>-7.2000000</ele>
        <time>2010-03-07T12:34:58Z</time>
      </trkpt>
      <trkpt lat="43.9203796" lon="8.1030331">
        <ele>-7.4000000</ele>
        <time>2010-03-07T12:35:00Z</time>
      </trkpt>
      <trkpt lat="43.9203872" lon="8.1030321">
        <ele>-7.6000000</ele>
        <time>2010-03-07T12:35:37Z</time>
      </trkpt>
      <trkpt lat="43.9203872" lon="8.1030321">
        <ele>-7.5000000</ele>
        <time>2010-03-07T12:35:38Z</time>
      </trkpt>
      <trkpt lat="43.9203949" lon="8.1030331">
        <ele>-6.7000000</ele>
        <time>2010-03-07T12:36:00Z</time>
      </trkpt>
      <trkpt lat="43.9203758" lon="8.1030311">
        <ele>-7.1000000</ele>
        <time>2010-03-07T12:36:59Z</time>
      </trkpt>
      <trkpt lat="43.9203644" lon="8.1030140">
        <ele>-7.2000000</ele>
        <time>2010-03-07T12:37:05Z</time>
      </trkpt>
      <trkpt lat="43.9203567" lon="8.1030073">
        <ele>-7.1000000</ele>
        <time>2010-03-07T12:37:09Z</time>
      </trkpt>
      <trkpt lat="43.9203453" lon="8.1029987">
        <ele>-6.8000000</ele>
        <time>2010-03-07T12:37:14Z</time>
      </trkpt>
      <trkpt lat="43.9203530" lon="8.1030216">
        <ele>-6.5000000</ele>
        <time>2010-03-07T12:37:59Z</time>
      </trkpt>
      <trkpt lat="43.9203530" lon="8.1030226">
        <ele>-6.6000000</ele>
        <time>2010-03-07T12:38:00Z</time>
      </trkpt>
      <trkpt lat="43.9203606" lon="8.1030369">
        <ele>-6.9000000</ele>
        <time>2010-03-07T12:38:19Z</time>
      </trkpt>
      <trkpt lat="43.9203606" lon="8.1030416">
        <ele>-6.8000000</ele>
        <time>2010-03-07T12:38:27Z</time>
      </trkpt>
      <trkpt lat="43.9203682" lon="8.1030540">
        <ele>-6.3000000</ele>
        <time>2010-03-07T12:38:54Z</time>
      </trkpt>
      <trkpt lat="43.9203682" lon="8.1030426">
        <ele>-6.9000000</ele>
        <time>2010-03-07T12:39:06Z</time>
      </trkpt>
      <trkpt lat="43.9203377" lon="8.1030369">
        <ele>-6.8000000</ele>
        <time>2010-03-07T12:39:10Z</time>
      </trkpt>
      <trkpt lat="43.9203453" lon="8.1030779">
        <ele>-6.5000000</ele>
        <time>2010-03-07T12:39:16Z</time>
      </trkpt>
      <trkpt lat="43.9203644" lon="8.1030960">
        <ele>-6.4000000</ele>
        <time>2010-03-07T12:39:23Z</time>
      </trkpt>
      <trkpt lat="43.9203835" lon="8.1030836">
        <ele>-6.3000000</ele>
        <time>2010-03-07T12:40:01Z</time>
      </trkpt>
      <trkpt lat="43.9203987" lon="8.1030760">
        <ele>-5.9000000</ele>
        <time>2010-03-07T12:40:35Z</time>
      </trkpt>
      <trkpt lat="43.9204063" lon="8.1030722">
        <ele>-5.9000000</ele>
        <time>2010-03-07T12:40:39Z</time>
      </trkpt>
      <trkpt lat="43.9204102" lon="8.1030731">
        <ele>-5.6000000</ele>
        <time>2010-03-07T12:40:46Z</time>
      </trkpt>
      <trkpt lat="43.9204292" lon="8.1030636">
        <ele>-5.8000000</ele>
        <time>2010-03-07T12:41:04Z</time>
      </trkpt>
      <trkpt lat="43.9204216" lon="8.1030579">
        <ele>-5.5000000</ele>
        <time>2010-03-07T12:41:15Z</time>
      </trkpt>
      <trkpt lat="43.9204216" lon="8.1030570">
        <ele>-5.5000000</ele>
        <time>2010-03-07T12:41:18Z</time>
      </trkpt>
      <trkpt lat="43.9204407" lon="8.1030607">
        <ele>-6.0000000</ele>
        <time>2010-03-07T12:41:30Z</time>
      </trkpt>
      <trkpt lat="43.9204445" lon="8.1030579">
        <ele>-6.2000000</ele>
        <time>2010-03-07T12:41:39Z</time>
      </trkpt>
      <trkpt lat="43.9204483" lon="8.1030559">
        <ele>-5.7000000</ele>
        <time>2010-03-07T12:41:47Z</time>
      </trkpt>
      <trkpt lat="43.9204636" lon="8.1030646">
        <ele>-5.5000000</ele>
        <time>2010-03-07T12:42:09Z</time>
      </trkpt>
      <trkpt lat="43.9205094" lon="8.1030474">
        <ele>-5.1000000</ele>
        <time>2010-03-07T12:42:16Z</time>
      </trkpt>
      <trkpt lat="43.9205170" lon="8.1030464">
        <ele>-4.7000000</ele>
        <time>2010-03-07T12:42:19Z</time>
      </trkpt>
      <trkpt lat="43.9205246" lon="8.1030455">
        <ele>-4.8000000</ele>
        <time>2010-03-07T12:42:40Z</time>
      </trkpt>
      <trkpt lat="43.9205284" lon="8.1030416">
        <ele>-4.4000000</ele>
        <time>2010-03-07T12:42:52Z</time>
      </trkpt>
      <trkpt lat="43.9206047" lon="8.1030169">
        <ele>-5.3000000</ele>
        <time>2010-03-07T12:43:05Z</time>
      </trkpt>
      <trkpt lat="43.9207573" lon="8.1029492">
        <ele>-5.1000000</ele>
        <time>2010-03-07T12:43:12Z</time>
      </trkpt>
      <trkpt lat="43.9209557" lon="8.1028729">
        <ele>-5.0000000</ele>
        <time>2010-03-07T12:43:21Z</time>
      </trkpt>
      <trkpt lat="43.9211616" lon="8.1027928">
        <ele>-4.8000000</ele>
        <time>2010-03-07T12:43:29Z</time>
      </trkpt>
      <trkpt lat="43.9214019" lon="8.1026764">
        <ele>-4.3000000</ele>
        <time>2010-03-07T12:43:39Z</time>
      </trkpt>
      <trkpt lat="43.9215546" lon="8.1026363">
        <ele>-4.0000000</ele>
        <time>2010-03-07T12:43:46Z</time>
      </trkpt>
      <trkpt lat="43.9216690" lon="8.1025677">
        <ele>-3.8000000</ele>
        <time>2010-03-07T12:43:52Z</time>
      </trkpt>
      <trkpt lat="43.9216537" lon="8.1024113">
        <ele>-4.0000000</ele>
        <time>2010-03-07T12:43:57Z</time>
      </trkpt>
      <trkpt lat="43.9215470" lon="8.1021109">
        <ele>-3.9000000</ele>
        <time>2010-03-07T12:44:06Z</time>
      </trkpt>
      <trkpt lat="43.9214325" lon="8.1017618">
        <ele>-4.1000000</ele>
        <time>2010-03-07T12:44:15Z</time>
      </trkpt>
      <trkpt lat="43.9213104" lon="8.1014071">
        <ele>-3.9000000</ele>
        <time>2010-03-07T12:44:24Z</time>
      </trkpt>
      <trkpt lat="43.9212150" lon="8.1011324">
        <ele>-3.0000000</ele>
        <time>2010-03-07T12:44:31Z</time>
      </trkpt>
      <trkpt lat="43.9210663" lon="8.1007318">
        <ele>-3.3000000</ele>
        <time>2010-03-07T12:44:41Z</time>
      </trkpt>
      <trkpt lat="43.9209098" lon="8.1003313">
        <ele>-3.3000000</ele>
        <time>2010-03-07T12:44:51Z</time>
      </trkpt>
      <trkpt lat="43.9207917" lon="8.0999613">
        <ele>-3.2000000</ele>
        <time>2010-03-07T12:45:00Z</time>
      </trkpt>
      <trkpt lat="43.9207039" lon="8.0996599">
        <ele>-3.3000000</ele>
        <time>2010-03-07T12:45:07Z</time>
      </trkpt>
      <trkpt lat="43.9206047" lon="8.0993223">
        <ele>-3.2000000</ele>
        <time>2010-03-07T12:45:15Z</time>
      </trkpt>
      <trkpt lat="43.9204445" lon="8.0988016">
        <ele>-3.3000000</ele>
        <time>2010-03-07T12:45:27Z</time>
      </trkpt>
      <trkpt lat="43.9203186" lon="8.0983886">
        <ele>-3.3000000</ele>
        <time>2010-03-07T12:45:36Z</time>
      </trkpt>
      <trkpt lat="43.9201927" lon="8.0979929">
        <ele>-3.3000000</ele>
        <time>2010-03-07T12:45:45Z</time>
      </trkpt>
      <trkpt lat="43.9200707" lon="8.0975961">
        <ele>-3.3000000</ele>
        <time>2010-03-07T12:45:54Z</time>
      </trkpt>
      <trkpt lat="43.9199219" lon="8.0971822">
        <ele>-1.1000000</ele>
        <time>2010-03-07T12:46:04Z</time>
      </trkpt>
      <trkpt lat="43.9197998" lon="8.0967750">
        <ele>-2.8000000</ele>
        <time>2010-03-07T12:46:14Z</time>
      </trkpt>
      <trkpt lat="43.9198761" lon="8.0966892">
        <ele>-2.1000000</ele>
        <time>2010-03-07T12:46:18Z</time>
      </trkpt>
      <trkpt lat="43.9199448" lon="8.0966587">
        <ele>-1.8000000</ele>
        <time>2010-03-07T12:46:21Z</time>
      </trkpt>
      <trkpt lat="43.9200630" lon="8.0965757">
        <ele>-0.7000000</ele>
        <time>2010-03-07T12:46:27Z</time>
      </trkpt>
      <trkpt lat="43.9202576" lon="8.0964813">
        <ele>1.5000000</ele>
        <time>2010-03-07T12:46:37Z</time>
      </trkpt>
      <trkpt lat="43.9203949" lon="8.0964241">
        <ele>3.1000000</ele>
        <time>2010-03-07T12:46:45Z</time>
      </trkpt>
      <trkpt lat="43.9205513" lon="8.0963583">
        <ele>5.2000000</ele>
        <time>2010-03-07T12:46:55Z</time>
      </trkpt>
      <trkpt lat="43.9206695" lon="8.0963115">
        <ele>4.5000000</ele>
        <time>2010-03-07T12:46:59Z</time>
      </trkpt>
      <trkpt lat="43.9209137" lon="8.0961962">
        <ele>4.5000000</ele>
        <time>2010-03-07T12:47:07Z</time>
      </trkpt>
      <trkpt lat="43.9210129" lon="8.0961228">
        <ele>4.7000000</ele>
        <time>2010-03-07T12:47:11Z</time>
      </trkpt>
      <trkpt lat="43.9209823" lon="8.0959473">
        <ele>5.0000000</ele>
        <time>2010-03-07T12:47:16Z</time>
      </trkpt>
      <trkpt lat="43.9209633" lon="8.0959139">
        <ele>4.9000000</ele>
        <time>2010-03-07T12:47:17Z</time>
      </trkpt>
      <trkpt lat="43.9208107" lon="8.0956126">
        <ele>4.5000000</ele>
        <time>2010-03-07T12:47:25Z</time>
      </trkpt>
      <trkpt lat="43.9206581" lon="8.0954246">
        <ele>4.1000000</ele>
        <time>2010-03-07T12:47:31Z</time>
      </trkpt>
      <trkpt lat="43.9205170" lon="8.0954743">
        <ele>3.3000000</ele>
        <time>2010-03-07T12:47:35Z</time>
      </trkpt>
      <trkpt lat="43.9203949" lon="8.0954656">
        <ele>2.1000000</ele>
        <time>2010-03-07T12:47:38Z</time>
      </trkpt>
      <trkpt lat="43.9203491" lon="8.0953798">
        <ele>2.1000000</ele>
        <time>2010-03-07T12:47:40Z</time>
      </trkpt>
      <trkpt lat="43.9202461" lon="8.0951147">
        <ele>2.2000000</ele>
        <time>2010-03-07T12:47:47Z</time>
      </trkpt>
      <trkpt lat="43.9201432" lon="8.0948419">
        <ele>2.2000000</ele>
        <time>2010-03-07T12:47:54Z</time>
      </trkpt>
      <trkpt lat="43.9200173" lon="8.0944977">
        <ele>1.3000000</ele>
        <time>2010-03-07T12:48:02Z</time>
      </trkpt>
      <trkpt lat="43.9199219" lon="8.0942116">
        <ele>0.6000000</ele>
        <time>2010-03-07T12:48:09Z</time>
      </trkpt>
      <trkpt lat="43.9198341" lon="8.0939570">
        <ele>0.7000000</ele>
        <time>2010-03-07T12:48:15Z</time>
      </trkpt>
      <trkpt lat="43.9196853" lon="8.0935030">
        <ele>1.0000000</ele>
        <time>2010-03-07T12:48:25Z</time>
      </trkpt>
      <trkpt lat="43.9195442" lon="8.0930967">
        <ele>1.2000000</ele>
        <time>2010-03-07T12:48:34Z</time>
      </trkpt>
      <trkpt lat="43.9194145" lon="8.0927315">
        <ele>0.9000000</ele>
        <time>2010-03-07T12:48:42Z</time>
      </trkpt>
      <trkpt lat="43.9193496" lon="8.0926056">
        <ele>0.7000000</ele>
        <time>2010-03-07T12:48:45Z</time>
      </trkpt>
      <trkpt lat="43.9191666" lon="8.0926009">
        <ele>0.5000000</ele>
        <time>2010-03-07T12:48:50Z</time>
      </trkpt>
      <trkpt lat="43.9189720" lon="8.0926428">
        <ele>-0.0000000</ele>
        <time>2010-03-07T12:48:55Z</time>
      </trkpt>
      <trkpt lat="43.9188385" lon="8.0925112">
        <ele>-0.9000000</ele>
        <time>2010-03-07T12:48:59Z</time>
      </trkpt>
      <trkpt lat="43.9186287" lon="8.0920410">
        <ele>-1.8000000</ele>
        <time>2010-03-07T12:49:07Z</time>
      </trkpt>
      <trkpt lat="43.9184189" lon="8.0915699">
        <ele>-2.5000000</ele>
        <time>2010-03-07T12:49:15Z</time>
      </trkpt>
      <trkpt lat="43.9182015" lon="8.0911274">
        <ele>-2.7000000</ele>
        <time>2010-03-07T12:49:23Z</time>
      </trkpt>
      <trkpt lat="43.9180451" lon="8.0908174">
        <ele>-1.6000000</ele>
        <time>2010-03-07T12:49:30Z</time>
      </trkpt>
      <trkpt lat="43.9178085" lon="8.0904112">
        <ele>-2.0000000</ele>
        <time>2010-03-07T12:49:39Z</time>
      </trkpt>
      <trkpt lat="43.9175644" lon="8.0900364">
        <ele>-1.8000000</ele>
        <time>2010-03-07T12:49:48Z</time>
      </trkpt>
      <trkpt lat="43.9173202" lon="8.0896644">
        <ele>-1.9000000</ele>
        <time>2010-03-07T12:49:57Z</time>
      </trkpt>
      <trkpt lat="43.9170609" lon="8.0892658">
        <ele>-2.7000000</ele>
        <time>2010-03-07T12:50:06Z</time>
      </trkpt>
      <trkpt lat="43.9167862" lon="8.0888424">
        <ele>-3.4000000</ele>
        <time>2010-03-07T12:50:15Z</time>
      </trkpt>
      <trkpt lat="43.9167176" lon="8.0887547">
        <ele>-3.5000000</ele>
        <time>2010-03-07T12:50:17Z</time>
      </trkpt>
      <trkpt lat="43.9164238" lon="8.0883436">
        <ele>-3.8000000</ele>
        <time>2010-03-07T12:50:26Z</time>
      </trkpt>
      <trkpt lat="43.9161873" lon="8.0879793">
        <ele>-3.4000000</ele>
        <time>2010-03-07T12:50:34Z</time>
      </trkpt>
      <trkpt lat="43.9160042" lon="8.0877266">
        <ele>-2.7000000</ele>
        <time>2010-03-07T12:50:41Z</time>
      </trkpt>
      <trkpt lat="43.9158173" lon="8.0875263">
        <ele>-2.6000000</ele>
        <time>2010-03-07T12:50:48Z</time>
      </trkpt>
      <trkpt lat="43.9154816" lon="8.0871029">
        <ele>-3.2000000</ele>
        <time>2010-03-07T12:50:59Z</time>
      </trkpt>
      <trkpt lat="43.9151916" lon="8.0867119">
        <ele>-2.9000000</ele>
        <time>2010-03-07T12:51:09Z</time>
      </trkpt>
      <trkpt lat="43.9149132" lon="8.0863571">
        <ele>-2.4000000</ele>
        <time>2010-03-07T12:51:19Z</time>
      </trkpt>
      <trkpt lat="43.9147034" lon="8.0860424">
        <ele>-2.4000000</ele>
        <time>2010-03-07T12:51:27Z</time>
      </trkpt>
      <trkpt lat="43.9144783" lon="8.0857181">
        <ele>-2.5000000</ele>
        <time>2010-03-07T12:51:35Z</time>
      </trkpt>
      <trkpt lat="43.9143867" lon="8.0855979">
        <ele>-2.6000000</ele>
        <time>2010-03-07T12:51:38Z</time>
      </trkpt>
      <trkpt lat="43.9140701" lon="8.0851412">
        <ele>-2.7000000</ele>
        <time>2010-03-07T12:51:49Z</time>
      </trkpt>
      <trkpt lat="43.9140129" lon="8.0850611">
        <ele>-2.6000000</ele>
        <time>2010-03-07T12:51:51Z</time>
      </trkpt>
      <trkpt lat="43.9137993" lon="8.0847749">
        <ele>-2.6000000</ele>
        <time>2010-03-07T12:51:58Z</time>
      </trkpt>
      <trkpt lat="43.9135094" lon="8.0843858">
        <ele>-2.5000000</ele>
        <time>2010-03-07T12:52:08Z</time>
      </trkpt>
      <trkpt lat="43.9131927" lon="8.0839386">
        <ele>-2.4000000</ele>
        <time>2010-03-07T12:52:19Z</time>
      </trkpt>
      <trkpt lat="43.9129829" lon="8.0835876">
        <ele>-2.1000000</ele>
        <time>2010-03-07T12:52:27Z</time>
      </trkpt>
      <trkpt lat="43.9127006" lon="8.0830412">
        <ele>-2.0000000</ele>
        <time>2010-03-07T12:52:39Z</time>
      </trkpt>
      <trkpt lat="43.9126167" lon="8.0828600">
        <ele>-2.0000000</ele>
        <time>2010-03-07T12:52:43Z</time>
      </trkpt>
      <trkpt lat="43.9126892" lon="8.0826997">
        <ele>-2.1000000</ele>
        <time>2010-03-07T12:52:47Z</time>
      </trkpt>
      <trkpt lat="43.9129219" lon="8.0824614">
        <ele>-1.6000000</ele>
        <time>2010-03-07T12:52:55Z</time>
      </trkpt>
      <trkpt lat="43.9131127" lon="8.0823564">
        <ele>-1.2000000</ele>
        <time>2010-03-07T12:53:01Z</time>
      </trkpt>
      <trkpt lat="43.9133415" lon="8.0822697">
        <ele>0.0000000</ele>
        <time>2010-03-07T12:53:09Z</time>
      </trkpt>
      <trkpt lat="43.9136276" lon="8.0821609">
        <ele>1.1000000</ele>
        <time>2010-03-07T12:53:19Z</time>
      </trkpt>
      <trkpt lat="43.9139481" lon="8.0820102">
        <ele>1.6000000</ele>
        <time>2010-03-07T12:53:30Z</time>
      </trkpt>
      <trkpt lat="43.9142189" lon="8.0818329">
        <ele>1.6000000</ele>
        <time>2010-03-07T12:53:39Z</time>
      </trkpt>
      <trkpt lat="43.9144821" lon="8.0816584">
        <ele>2.3000000</ele>
        <time>2010-03-07T12:53:48Z</time>
      </trkpt>
      <trkpt lat="43.9147683" lon="8.0814533">
        <ele>2.6000000</ele>
        <time>2010-03-07T12:53:58Z</time>
      </trkpt>
      <trkpt lat="43.9150962" lon="8.0812340">
        <ele>2.6000000</ele>
        <time>2010-03-07T12:54:09Z</time>
      </trkpt>
      <trkpt lat="43.9153633" lon="8.0810490">
        <ele>2.9000000</ele>
        <time>2010-03-07T12:54:18Z</time>
      </trkpt>
      <trkpt lat="43.9156189" lon="8.0808763">
        <ele>3.5000000</ele>
        <time>2010-03-07T12:54:27Z</time>
      </trkpt>
      <trkpt lat="43.9158401" lon="8.0807266">
        <ele>3.9000000</ele>
        <time>2010-03-07T12:54:35Z</time>
      </trkpt>
      <trkpt lat="43.9161186" lon="8.0805426">
        <ele>4.8000000</ele>
        <time>2010-03-07T12:54:45Z</time>
      </trkpt>
      <trkpt lat="43.9163246" lon="8.0803652">
        <ele>5.2000000</ele>
        <time>2010-03-07T12:54:53Z</time>
      </trkpt>
      <trkpt lat="43.9165420" lon="8.0801125">
        <ele>5.6000000</ele>
        <time>2010-03-07T12:55:02Z</time>
      </trkpt>
      <trkpt lat="43.9167252" lon="8.0799189">
        <ele>6.0000000</ele>
        <time>2010-03-07T12:55:09Z</time>
      </trkpt>
      <trkpt lat="43.9169311" lon="8.0797501">
        <ele>6.5000000</ele>
        <time>2010-03-07T12:55:17Z</time>
      </trkpt>
      <trkpt lat="43.9172020" lon="8.0795603">
        <ele>7.2000000</ele>
        <time>2010-03-07T12:55:27Z</time>
      </trkpt>
      <trkpt lat="43.9173927" lon="8.0793505">
        <ele>7.0000000</ele>
        <time>2010-03-07T12:55:34Z</time>
      </trkpt>
      <trkpt lat="43.9176178" lon="8.0790682">
        <ele>7.3000000</ele>
        <time>2010-03-07T12:55:43Z</time>
      </trkpt>
      <trkpt lat="43.9178428" lon="8.0788011">
        <ele>7.7000000</ele>
        <time>2010-03-07T12:55:52Z</time>
      </trkpt>
      <trkpt lat="43.9181519" lon="8.0784912">
        <ele>8.4000000</ele>
        <time>2010-03-07T12:56:04Z</time>
      </trkpt>
      <trkpt lat="43.9184037" lon="8.0783005">
        <ele>8.6000000</ele>
        <time>2010-03-07T12:56:13Z</time>
      </trkpt>
      <trkpt lat="43.9186249" lon="8.0781727">
        <ele>9.5000000</ele>
        <time>2010-03-07T12:56:21Z</time>
      </trkpt>
      <trkpt lat="43.9189339" lon="8.0780296">
        <ele>10.4000000</ele>
        <time>2010-03-07T12:56:31Z</time>
      </trkpt>
      <trkpt lat="43.9192314" lon="8.0779056">
        <ele>11.2000000</ele>
        <time>2010-03-07T12:56:41Z</time>
      </trkpt>
      <trkpt lat="43.9194718" lon="8.0777454">
        <ele>11.7000000</ele>
        <time>2010-03-07T12:56:50Z</time>
      </trkpt>
      <trkpt lat="43.9197082" lon="8.0775871">
        <ele>12.1000000</ele>
        <time>2010-03-07T12:56:59Z</time>
      </trkpt>
      <trkpt lat="43.9199028" lon="8.0774383">
        <ele>12.3000000</ele>
        <time>2010-03-07T12:57:06Z</time>
      </trkpt>
      <trkpt lat="43.9201012" lon="8.0773067">
        <ele>12.9000000</ele>
        <time>2010-03-07T12:57:13Z</time>
      </trkpt>
      <trkpt lat="43.9203453" lon="8.0771456">
        <ele>13.5000000</ele>
        <time>2010-03-07T12:57:22Z</time>
      </trkpt>
      <trkpt lat="43.9205589" lon="8.0769939">
        <ele>13.7000000</ele>
        <time>2010-03-07T12:57:30Z</time>
      </trkpt>
      <trkpt lat="43.9206963" lon="8.0769272">
        <ele>13.9000000</ele>
        <time>2010-03-07T12:57:35Z</time>
      </trkpt>
      <trkpt lat="43.9208832" lon="8.0768013">
        <ele>14.4000000</ele>
        <time>2010-03-07T12:57:42Z</time>
      </trkpt>
      <trkpt lat="43.9211311" lon="8.0766392">
        <ele>15.1000000</ele>
        <time>2010-03-07T12:57:51Z</time>
      </trkpt>
      <trkpt lat="43.9213714" lon="8.0764761">
        <ele>15.7000000</ele>
        <time>2010-03-07T12:58:00Z</time>
      </trkpt>
      <trkpt lat="43.9215927" lon="8.0763397">
        <ele>16.5000000</ele>
        <time>2010-03-07T12:58:08Z</time>
      </trkpt>
      <trkpt lat="43.9218750" lon="8.0762033">
        <ele>17.2000000</ele>
        <time>2010-03-07T12:58:18Z</time>
      </trkpt>
      <trkpt lat="43.9221306" lon="8.0760803">
        <ele>17.9000000</ele>
        <time>2010-03-07T12:58:27Z</time>
      </trkpt>
      <trkpt lat="43.9223328" lon="8.0759315">
        <ele>18.1000000</ele>
        <time>2010-03-07T12:58:34Z</time>
      </trkpt>
      <trkpt lat="43.9225388" lon="8.0757646">
        <ele>18.0000000</ele>
        <time>2010-03-07T12:58:41Z</time>
      </trkpt>
      <trkpt lat="43.9228249" lon="8.0756245">
        <ele>18.4000000</ele>
        <time>2010-03-07T12:58:50Z</time>
      </trkpt>
      <trkpt lat="43.9231377" lon="8.0755024">
        <ele>19.0000000</ele>
        <time>2010-03-07T12:59:00Z</time>
      </trkpt>
      <trkpt lat="43.9233475" lon="8.0754271">
        <ele>19.7000000</ele>
        <time>2010-03-07T12:59:07Z</time>
      </trkpt>
      <trkpt lat="43.9236603" lon="8.0752182">
        <ele>20.4000000</ele>
        <time>2010-03-07T12:59:18Z</time>
      </trkpt>
      <trkpt lat="43.9239311" lon="8.0750093">
        <ele>20.9000000</ele>
        <time>2010-03-07T12:59:28Z</time>
      </trkpt>
      <trkpt lat="43.9241448" lon="8.0747481">
        <ele>21.5000000</ele>
        <time>2010-03-07T12:59:37Z</time>
      </trkpt>
      <trkpt lat="43.9242897" lon="8.0744200">
        <ele>22.3000000</ele>
        <time>2010-03-07T12:59:46Z</time>
      </trkpt>
      <trkpt lat="43.9244308" lon="8.0739861">
        <ele>23.1000000</ele>
        <time>2010-03-07T12:59:57Z</time>
      </trkpt>
      <trkpt lat="43.9245377" lon="8.0735569">
        <ele>23.3000000</ele>
        <time>2010-03-07T13:00:07Z</time>
      </trkpt>
      <trkpt lat="43.9246521" lon="8.0731383">
        <ele>22.9000000</ele>
        <time>2010-03-07T13:00:16Z</time>
      </trkpt>
      <trkpt lat="43.9248504" lon="8.0727196">
        <ele>21.8000000</ele>
        <time>2010-03-07T13:00:25Z</time>
      </trkpt>
      <trkpt lat="43.9249954" lon="8.0725117">
        <ele>22.5000000</ele>
        <time>2010-03-07T13:00:31Z</time>
      </trkpt>
      <trkpt lat="43.9250793" lon="8.0724106">
        <ele>23.0000000</ele>
        <time>2010-03-07T13:00:35Z</time>
      </trkpt>
      <trkpt lat="43.9252625" lon="8.0722351">
        <ele>24.6000000</ele>
        <time>2010-03-07T13:00:44Z</time>
      </trkpt>
      <trkpt lat="43.9253349" lon="8.0721732">
        <ele>25.3000000</ele>
        <time>2010-03-07T13:00:48Z</time>
      </trkpt>
      <trkpt lat="43.9255333" lon="8.0720434">
        <ele>27.0000000</ele>
        <time>2010-03-07T13:00:58Z</time>
      </trkpt>
      <trkpt lat="43.9257087" lon="8.0719414">
        <ele>28.3000000</ele>
        <time>2010-03-07T13:01:06Z</time>
      </trkpt>
      <trkpt lat="43.9259376" lon="8.0718632">
        <ele>29.2000000</ele>
        <time>2010-03-07T13:01:16Z</time>
      </trkpt>
      <trkpt lat="43.9261017" lon="8.0718469">
        <ele>29.5000000</ele>
        <time>2010-03-07T13:01:22Z</time>
      </trkpt>
      <trkpt lat="43.9263764" lon="8.0718622">
        <ele>29.6000000</ele>
        <time>2010-03-07T13:01:32Z</time>
      </trkpt>
      <trkpt lat="43.9266090" lon="8.0718613">
        <ele>29.7000000</ele>
        <time>2010-03-07T13:01:40Z</time>
      </trkpt>
      <trkpt lat="43.9268265" lon="8.0717659">
        <ele>30.6000000</ele>
        <time>2010-03-07T13:01:48Z</time>
      </trkpt>
      <trkpt lat="43.9270401" lon="8.0716676">
        <ele>31.1000000</ele>
        <time>2010-03-07T13:01:56Z</time>
      </trkpt>
      <trkpt lat="43.9272881" lon="8.0716162">
        <ele>31.2000000</ele>
        <time>2010-03-07T13:02:04Z</time>
      </trkpt>
      <trkpt lat="43.9275665" lon="8.0715341">
        <ele>31.9000000</ele>
        <time>2010-03-07T13:02:13Z</time>
      </trkpt>
      <trkpt lat="43.9277305" lon="8.0713988">
        <ele>33.1000000</ele>
        <time>2010-03-07T13:02:20Z</time>
      </trkpt>
      <trkpt lat="43.9278908" lon="8.0711908">
        <ele>33.6000000</ele>
        <time>2010-03-07T13:02:28Z</time>
      </trkpt>
      <trkpt lat="43.9280205" lon="8.0709877">
        <ele>33.9000000</ele>
        <time>2010-03-07T13:02:35Z</time>
      </trkpt>
      <trkpt lat="43.9282341" lon="8.0707321">
        <ele>34.3000000</ele>
        <time>2010-03-07T13:02:45Z</time>
      </trkpt>
      <trkpt lat="43.9284477" lon="8.0705690">
        <ele>35.0000000</ele>
        <time>2010-03-07T13:02:54Z</time>
      </trkpt>
      <trkpt lat="43.9286346" lon="8.0704803">
        <ele>35.8000000</ele>
        <time>2010-03-07T13:03:02Z</time>
      </trkpt>
      <trkpt lat="43.9287986" lon="8.0704098">
        <ele>36.7000000</ele>
        <time>2010-03-07T13:03:09Z</time>
      </trkpt>
      <trkpt lat="43.9289513" lon="8.0703411">
        <ele>37.4000000</ele>
        <time>2010-03-07T13:03:16Z</time>
      </trkpt>
      <trkpt lat="43.9291611" lon="8.0702390">
        <ele>38.2000000</ele>
        <time>2010-03-07T13:03:24Z</time>
      </trkpt>
      <trkpt lat="43.9293556" lon="8.0701265">
        <ele>39.1000000</ele>
        <time>2010-03-07T13:03:32Z</time>
      </trkpt>
      <trkpt lat="43.9295578" lon="8.0699797">
        <ele>39.9000000</ele>
        <time>2010-03-07T13:03:41Z</time>
      </trkpt>
      <trkpt lat="43.9297142" lon="8.0698576">
        <ele>40.8000000</ele>
        <time>2010-03-07T13:03:48Z</time>
      </trkpt>
      <trkpt lat="43.9299087" lon="8.0696907">
        <ele>41.6000000</ele>
        <time>2010-03-07T13:03:57Z</time>
      </trkpt>
      <trkpt lat="43.9300843" lon="8.0695286">
        <ele>42.6000000</ele>
        <time>2010-03-07T13:04:06Z</time>
      </trkpt>
      <trkpt lat="43.9302254" lon="8.0694227">
        <ele>43.8000000</ele>
        <time>2010-03-07T13:04:14Z</time>
      </trkpt>
      <trkpt lat="43.9303932" lon="8.0693607">
        <ele>45.3000000</ele>
        <time>2010-03-07T13:04:23Z</time>
      </trkpt>
      <trkpt lat="43.9304085" lon="8.0694428">
        <ele>45.8000000</ele>
        <time>2010-03-07T13:04:27Z</time>
      </trkpt>
      <trkpt lat="43.9303475" lon="8.0697479">
        <ele>46.2000000</ele>
        <time>2010-03-07T13:04:37Z</time>
      </trkpt>
      <trkpt lat="43.9302635" lon="8.0699854">
        <ele>46.7000000</ele>
        <time>2010-03-07T13:04:45Z</time>
      </trkpt>
      <trkpt lat="43.9301300" lon="8.0701255">
        <ele>47.6000000</ele>
        <time>2010-03-07T13:04:52Z</time>
      </trkpt>
      <trkpt lat="43.9300118" lon="8.0702143">
        <ele>48.5000000</ele>
        <time>2010-03-07T13:04:58Z</time>
      </trkpt>
      <trkpt lat="43.9298897" lon="8.0703068">
        <ele>49.6000000</ele>
        <time>2010-03-07T13:05:05Z</time>
      </trkpt>
      <trkpt lat="43.9297828" lon="8.0703764">
        <ele>50.6000000</ele>
        <time>2010-03-07T13:05:11Z</time>
      </trkpt>
      <trkpt lat="43.9296493" lon="8.0704860">
        <ele>51.6000000</ele>
        <time>2010-03-07T13:05:19Z</time>
      </trkpt>
      <trkpt lat="43.9295807" lon="8.0705938">
        <ele>52.4000000</ele>
        <time>2010-03-07T13:05:24Z</time>
      </trkpt>
      <trkpt lat="43.9295311" lon="8.0708246">
        <ele>53.3000000</ele>
        <time>2010-03-07T13:05:32Z</time>
      </trkpt>
      <trkpt lat="43.9294739" lon="8.0711108">
        <ele>54.6000000</ele>
        <time>2010-03-07T13:05:42Z</time>
      </trkpt>
      <trkpt lat="43.9294243" lon="8.0713959">
        <ele>55.8000000</ele>
        <time>2010-03-07T13:05:52Z</time>
      </trkpt>
      <trkpt lat="43.9294205" lon="8.0716353">
        <ele>56.8000000</ele>
        <time>2010-03-07T13:06:00Z</time>
      </trkpt>
      <trkpt lat="43.9294243" lon="8.0718384">
        <ele>57.6000000</ele>
        <time>2010-03-07T13:06:07Z</time>
      </trkpt>
      <trkpt lat="43.9294052" lon="8.0720720">
        <ele>58.3000000</ele>
        <time>2010-03-07T13:06:15Z</time>
      </trkpt>
      <trkpt lat="43.9293251" lon="8.0722379">
        <ele>59.3000000</ele>
        <time>2010-03-07T13:06:22Z</time>
      </trkpt>
      <trkpt lat="43.9293556" lon="8.0723619">
        <ele>60.2000000</ele>
        <time>2010-03-07T13:06:27Z</time>
      </trkpt>
      <trkpt lat="43.9294663" lon="8.0723658">
        <ele>61.1000000</ele>
        <time>2010-03-07T13:06:33Z</time>
      </trkpt>
      <trkpt lat="43.9295693" lon="8.0722179">
        <ele>61.9000000</ele>
        <time>2010-03-07T13:06:40Z</time>
      </trkpt>
      <trkpt lat="43.9296036" lon="8.0720530">
        <ele>62.8000000</ele>
        <time>2010-03-07T13:06:46Z</time>
      </trkpt>
      <trkpt lat="43.9296532" lon="8.0718231">
        <ele>64.0000000</ele>
        <time>2010-03-07T13:06:54Z</time>
      </trkpt>
      <trkpt lat="43.9296989" lon="8.0716486">
        <ele>64.8000000</ele>
        <time>2010-03-07T13:07:00Z</time>
      </trkpt>
      <trkpt lat="43.9297828" lon="8.0713787">
        <ele>65.9000000</ele>
        <time>2010-03-07T13:07:10Z</time>
      </trkpt>
      <trkpt lat="43.9298706" lon="8.0712223">
        <ele>66.8000000</ele>
        <time>2010-03-07T13:07:17Z</time>
      </trkpt>
      <trkpt lat="43.9299279" lon="8.0712948">
        <ele>68.0000000</ele>
        <time>2010-03-07T13:07:22Z</time>
      </trkpt>
      <trkpt lat="43.9299279" lon="8.0713177">
        <ele>68.1000000</ele>
        <time>2010-03-07T13:07:23Z</time>
      </trkpt>
      <trkpt lat="43.9298859" lon="8.0715112">
        <ele>69.3000000</ele>
        <time>2010-03-07T13:07:31Z</time>
      </trkpt>
      <trkpt lat="43.9298362" lon="8.0717430">
        <ele>70.4000000</ele>
        <time>2010-03-07T13:07:40Z</time>
      </trkpt>
      <trkpt lat="43.9298515" lon="8.0719633">
        <ele>71.5000000</ele>
        <time>2010-03-07T13:07:48Z</time>
      </trkpt>
      <trkpt lat="43.9298973" lon="8.0721950">
        <ele>72.6000000</ele>
        <time>2010-03-07T13:07:57Z</time>
      </trkpt>
      <trkpt lat="43.9299507" lon="8.0724583">
        <ele>73.7000000</ele>
        <time>2010-03-07T13:08:07Z</time>
      </trkpt>
      <trkpt lat="43.9299698" lon="8.0727129">
        <ele>75.1000000</ele>
        <time>2010-03-07T13:08:17Z</time>
      </trkpt>
      <trkpt lat="43.9299240" lon="8.0728416">
        <ele>76.0000000</ele>
        <time>2010-03-07T13:08:23Z</time>
      </trkpt>
      <trkpt lat="43.9298401" lon="8.0729122">
        <ele>77.2000000</ele>
        <time>2010-03-07T13:08:30Z</time>
      </trkpt>
      <trkpt lat="43.9297943" lon="8.0729570">
        <ele>77.6000000</ele>
        <time>2010-03-07T13:08:33Z</time>
      </trkpt>
      <trkpt lat="43.9298172" lon="8.0731049">
        <ele>78.3000000</ele>
        <time>2010-03-07T13:08:39Z</time>
      </trkpt>
      <trkpt lat="43.9298706" lon="8.0731211">
        <ele>78.6000000</ele>
        <time>2010-03-07T13:08:42Z</time>
      </trkpt>
      <trkpt lat="43.9300804" lon="8.0730982">
        <ele>80.0000000</ele>
        <time>2010-03-07T13:08:53Z</time>
      </trkpt>
      <trkpt lat="43.9302139" lon="8.0730772">
        <ele>81.0000000</ele>
        <time>2010-03-07T13:09:00Z</time>
      </trkpt>
      <trkpt lat="43.9303436" lon="8.0730152">
        <ele>82.0000000</ele>
        <time>2010-03-07T13:09:07Z</time>
      </trkpt>
      <trkpt lat="43.9303971" lon="8.0728836">
        <ele>83.1000000</ele>
        <time>2010-03-07T13:09:13Z</time>
      </trkpt>
      <trkpt lat="43.9304085" lon="8.0726928">
        <ele>84.0000000</ele>
        <time>2010-03-07T13:09:20Z</time>
      </trkpt>
      <trkpt lat="43.9304314" lon="8.0724640">
        <ele>85.3000000</ele>
        <time>2010-03-07T13:09:29Z</time>
      </trkpt>
      <trkpt lat="43.9304581" lon="8.0722379">
        <ele>86.6000000</ele>
        <time>2010-03-07T13:09:38Z</time>
      </trkpt>
      <trkpt lat="43.9305229" lon="8.0720520">
        <ele>87.8000000</ele>
        <time>2010-03-07T13:09:46Z</time>
      </trkpt>
      <trkpt lat="43.9306259" lon="8.0719509">
        <ele>88.8000000</ele>
        <time>2010-03-07T13:09:53Z</time>
      </trkpt>
      <trkpt lat="43.9307442" lon="8.0719194">
        <ele>89.9000000</ele>
        <time>2010-03-07T13:10:00Z</time>
      </trkpt>
      <trkpt lat="43.9309387" lon="8.0719767">
        <ele>91.2000000</ele>
        <time>2010-03-07T13:10:10Z</time>
      </trkpt>
      <trkpt lat="43.9311371" lon="8.0720120">
        <ele>92.2000000</ele>
        <time>2010-03-07T13:10:20Z</time>
      </trkpt>
      <trkpt lat="43.9313317" lon="8.0720539">
        <ele>93.7000000</ele>
        <time>2010-03-07T13:10:30Z</time>
      </trkpt>
      <trkpt lat="43.9315452" lon="8.0720968">
        <ele>94.7000000</ele>
        <time>2010-03-07T13:10:41Z</time>
      </trkpt>
      <trkpt lat="43.9316864" lon="8.0721331">
        <ele>95.8000000</ele>
        <time>2010-03-07T13:10:48Z</time>
      </trkpt>
      <trkpt lat="43.9318848" lon="8.0722084">
        <ele>96.9000000</ele>
        <time>2010-03-07T13:10:58Z</time>
      </trkpt>
      <trkpt lat="43.9320030" lon="8.0723314">
        <ele>97.0000000</ele>
        <time>2010-03-07T13:11:05Z</time>
      </trkpt>
      <trkpt lat="43.9320183" lon="8.0724030">
        <ele>97.5000000</ele>
        <time>2010-03-07T13:11:08Z</time>
      </trkpt>
      <trkpt lat="43.9319458" lon="8.0724554">
        <ele>98.5000000</ele>
        <time>2010-03-07T13:11:13Z</time>
      </trkpt>
      <trkpt lat="43.9319305" lon="8.0724430">
        <ele>98.5000000</ele>
        <time>2010-03-07T13:11:14Z</time>
      </trkpt>
      <trkpt lat="43.9317894" lon="8.0722971">
        <ele>99.8000000</ele>
        <time>2010-03-07T13:11:23Z</time>
      </trkpt>
      <trkpt lat="43.9316445" lon="8.0722294">
        <ele>100.7000000</ele>
        <time>2010-03-07T13:11:30Z</time>
      </trkpt>
      <trkpt lat="43.9315147" lon="8.0722904">
        <ele>101.2000000</ele>
        <time>2010-03-07T13:11:36Z</time>
      </trkpt>
      <trkpt lat="43.9313698" lon="8.0724497">
        <ele>102.3000000</ele>
        <time>2010-03-07T13:11:45Z</time>
      </trkpt>
      <trkpt lat="43.9312783" lon="8.0725965">
        <ele>103.1000000</ele>
        <time>2010-03-07T13:11:52Z</time>
      </trkpt>
      <trkpt lat="43.9311561" lon="8.0727758">
        <ele>104.0000000</ele>
        <time>2010-03-07T13:12:01Z</time>
      </trkpt>
      <trkpt lat="43.9310722" lon="8.0729599">
        <ele>105.1000000</ele>
        <time>2010-03-07T13:12:09Z</time>
      </trkpt>
      <trkpt lat="43.9310875" lon="8.0731249">
        <ele>105.8000000</ele>
        <time>2010-03-07T13:12:15Z</time>
      </trkpt>
      <trkpt lat="43.9311600" lon="8.0732984">
        <ele>106.2000000</ele>
        <time>2010-03-07T13:12:22Z</time>
      </trkpt>
      <trkpt lat="43.9312630" lon="8.0735407">
        <ele>107.6000000</ele>
        <time>2010-03-07T13:12:32Z</time>
      </trkpt>
      <trkpt lat="43.9312973" lon="8.0737247">
        <ele>108.3000000</ele>
        <time>2010-03-07T13:12:39Z</time>
      </trkpt>
      <trkpt lat="43.9312820" lon="8.0739145">
        <ele>109.2000000</ele>
        <time>2010-03-07T13:12:46Z</time>
      </trkpt>
      <trkpt lat="43.9312019" lon="8.0740251">
        <ele>109.7000000</ele>
        <time>2010-03-07T13:12:52Z</time>
      </trkpt>
      <trkpt lat="43.9310494" lon="8.0741320">
        <ele>110.7000000</ele>
        <time>2010-03-07T13:13:01Z</time>
      </trkpt>
      <trkpt lat="43.9308891" lon="8.0742292">
        <ele>112.1000000</ele>
        <time>2010-03-07T13:13:10Z</time>
      </trkpt>
      <trkpt lat="43.9307137" lon="8.0743484">
        <ele>113.4000000</ele>
        <time>2010-03-07T13:13:20Z</time>
      </trkpt>
      <trkpt lat="43.9305916" lon="8.0744343">
        <ele>114.0000000</ele>
        <time>2010-03-07T13:13:27Z</time>
      </trkpt>
      <trkpt lat="43.9305267" lon="8.0745602">
        <ele>114.7000000</ele>
        <time>2010-03-07T13:13:33Z</time>
      </trkpt>
      <trkpt lat="43.9305764" lon="8.0746708">
        <ele>115.3000000</ele>
        <time>2010-03-07T13:13:38Z</time>
      </trkpt>
      <trkpt lat="43.9306183" lon="8.0746841">
        <ele>115.5000000</ele>
        <time>2010-03-07T13:13:40Z</time>
      </trkpt>
      <trkpt lat="43.9307251" lon="8.0746002">
        <ele>116.0000000</ele>
        <time>2010-03-07T13:13:46Z</time>
      </trkpt>
      <trkpt lat="43.9309006" lon="8.0745039">
        <ele>116.8000000</ele>
        <time>2010-03-07T13:13:55Z</time>
      </trkpt>
      <trkpt lat="43.9310722" lon="8.0744772">
        <ele>117.8000000</ele>
        <time>2010-03-07T13:14:04Z</time>
      </trkpt>
      <trkpt lat="43.9312478" lon="8.0744467">
        <ele>118.9000000</ele>
        <time>2010-03-07T13:14:13Z</time>
      </trkpt>
      <trkpt lat="43.9314041" lon="8.0744323">
        <ele>119.5000000</ele>
        <time>2010-03-07T13:14:21Z</time>
      </trkpt>
      <trkpt lat="43.9315300" lon="8.0743589">
        <ele>120.2000000</ele>
        <time>2010-03-07T13:14:28Z</time>
      </trkpt>
      <trkpt lat="43.9316216" lon="8.0742102">
        <ele>121.2000000</ele>
        <time>2010-03-07T13:14:35Z</time>
      </trkpt>
      <trkpt lat="43.9317016" lon="8.0740452">
        <ele>121.9000000</ele>
        <time>2010-03-07T13:14:42Z</time>
      </trkpt>
      <trkpt lat="43.9317818" lon="8.0738840">
        <ele>122.9000000</ele>
        <time>2010-03-07T13:14:49Z</time>
      </trkpt>
      <trkpt lat="43.9318771" lon="8.0737114">
        <ele>123.7000000</ele>
        <time>2010-03-07T13:14:57Z</time>
      </trkpt>
      <trkpt lat="43.9319687" lon="8.0736723">
        <ele>124.2000000</ele>
        <time>2010-03-07T13:15:02Z</time>
      </trkpt>
      <trkpt lat="43.9320755" lon="8.0737267">
        <ele>124.9000000</ele>
        <time>2010-03-07T13:15:08Z</time>
      </trkpt>
      <trkpt lat="43.9321976" lon="8.0738411">
        <ele>125.9000000</ele>
        <time>2010-03-07T13:15:16Z</time>
      </trkpt>
      <trkpt lat="43.9322967" lon="8.0739498">
        <ele>126.7000000</ele>
        <time>2010-03-07T13:15:23Z</time>
      </trkpt>
      <trkpt lat="43.9324379" lon="8.0740633">
        <ele>128.1000000</ele>
        <time>2010-03-07T13:15:32Z</time>
      </trkpt>
      <trkpt lat="43.9325714" lon="8.0741406">
        <ele>129.3000000</ele>
        <time>2010-03-07T13:15:40Z</time>
      </trkpt>
      <trkpt lat="43.9327583" lon="8.0741920">
        <ele>130.6000000</ele>
        <time>2010-03-07T13:15:50Z</time>
      </trkpt>
      <trkpt lat="43.9328956" lon="8.0741472">
        <ele>131.0000000</ele>
        <time>2010-03-07T13:15:57Z</time>
      </trkpt>
      <trkpt lat="43.9330635" lon="8.0740070">
        <ele>132.3000000</ele>
        <time>2010-03-07T13:16:07Z</time>
      </trkpt>
      <trkpt lat="43.9331856" lon="8.0738402">
        <ele>133.3000000</ele>
        <time>2010-03-07T13:16:16Z</time>
      </trkpt>
      <trkpt lat="43.9332847" lon="8.0736275">
        <ele>134.2000000</ele>
        <time>2010-03-07T13:16:25Z</time>
      </trkpt>
      <trkpt lat="43.9333725" lon="8.0735464">
        <ele>135.0000000</ele>
        <time>2010-03-07T13:16:31Z</time>
      </trkpt>
      <trkpt lat="43.9334145" lon="8.0736552">
        <ele>135.8000000</ele>
        <time>2010-03-07T13:16:37Z</time>
      </trkpt>
      <trkpt lat="43.9334068" lon="8.0736770">
        <ele>135.9000000</ele>
        <time>2010-03-07T13:16:38Z</time>
      </trkpt>
      <trkpt lat="43.9333229" lon="8.0738754">
        <ele>137.2000000</ele>
        <time>2010-03-07T13:16:46Z</time>
      </trkpt>
      <trkpt lat="43.9332313" lon="8.0740528">
        <ele>137.7000000</ele>
        <time>2010-03-07T13:16:53Z</time>
      </trkpt>
      <trkpt lat="43.9330711" lon="8.0742741">
        <ele>138.3000000</ele>
        <time>2010-03-07T13:17:03Z</time>
      </trkpt>
      <trkpt lat="43.9328842" lon="8.0743818">
        <ele>138.6000000</ele>
        <time>2010-03-07T13:17:11Z</time>
      </trkpt>
      <trkpt lat="43.9327011" lon="8.0744734">
        <ele>139.6000000</ele>
        <time>2010-03-07T13:17:20Z</time>
      </trkpt>
      <trkpt lat="43.9325180" lon="8.0745678">
        <ele>140.8000000</ele>
        <time>2010-03-07T13:17:30Z</time>
      </trkpt>
      <trkpt lat="43.9323692" lon="8.0747032">
        <ele>141.6000000</ele>
        <time>2010-03-07T13:17:39Z</time>
      </trkpt>
      <trkpt lat="43.9322739" lon="8.0748653">
        <ele>142.7000000</ele>
        <time>2010-03-07T13:17:46Z</time>
      </trkpt>
      <trkpt lat="43.9321671" lon="8.0750780">
        <ele>144.0000000</ele>
        <time>2010-03-07T13:17:55Z</time>
      </trkpt>
      <trkpt lat="43.9320450" lon="8.0753298">
        <ele>144.9000000</ele>
        <time>2010-03-07T13:18:06Z</time>
      </trkpt>
      <trkpt lat="43.9319611" lon="8.0755100">
        <ele>146.0000000</ele>
        <time>2010-03-07T13:18:14Z</time>
      </trkpt>
      <trkpt lat="43.9318275" lon="8.0756598">
        <ele>146.9000000</ele>
        <time>2010-03-07T13:18:23Z</time>
      </trkpt>
      <trkpt lat="43.9317016" lon="8.0757742">
        <ele>147.9000000</ele>
        <time>2010-03-07T13:18:31Z</time>
      </trkpt>
      <trkpt lat="43.9315491" lon="8.0759001">
        <ele>148.8000000</ele>
        <time>2010-03-07T13:18:40Z</time>
      </trkpt>
      <trkpt lat="43.9313888" lon="8.0759373">
        <ele>149.7000000</ele>
        <time>2010-03-07T13:18:48Z</time>
      </trkpt>
      <trkpt lat="43.9312668" lon="8.0759916">
        <ele>150.6000000</ele>
        <time>2010-03-07T13:18:55Z</time>
      </trkpt>
      <trkpt lat="43.9312554" lon="8.0760136">
        <ele>150.7000000</ele>
        <time>2010-03-07T13:18:56Z</time>
      </trkpt>
      <trkpt lat="43.9313240" lon="8.0761261">
        <ele>151.4000000</ele>
        <time>2010-03-07T13:19:02Z</time>
      </trkpt>
      <trkpt lat="43.9313431" lon="8.0761290">
        <ele>151.5000000</ele>
        <time>2010-03-07T13:19:03Z</time>
      </trkpt>
      <trkpt lat="43.9315033" lon="8.0760813">
        <ele>151.8000000</ele>
        <time>2010-03-07T13:19:11Z</time>
      </trkpt>
      <trkpt lat="43.9316826" lon="8.0759973">
        <ele>152.6000000</ele>
        <time>2010-03-07T13:19:20Z</time>
      </trkpt>
      <trkpt lat="43.9318314" lon="8.0759439">
        <ele>153.8000000</ele>
        <time>2010-03-07T13:19:28Z</time>
      </trkpt>
      <trkpt lat="43.9319839" lon="8.0759354">
        <ele>155.0000000</ele>
        <time>2010-03-07T13:19:36Z</time>
      </trkpt>
      <trkpt lat="43.9321213" lon="8.0758925">
        <ele>155.6000000</ele>
        <time>2010-03-07T13:19:43Z</time>
      </trkpt>
      <trkpt lat="43.9322815" lon="8.0757609">
        <ele>156.8000000</ele>
        <time>2010-03-07T13:19:52Z</time>
      </trkpt>
      <trkpt lat="43.9324264" lon="8.0756102">
        <ele>158.2000000</ele>
        <time>2010-03-07T13:20:01Z</time>
      </trkpt>
      <trkpt lat="43.9325523" lon="8.0754833">
        <ele>159.1000000</ele>
        <time>2010-03-07T13:20:09Z</time>
      </trkpt>
      <trkpt lat="43.9326821" lon="8.0753708">
        <ele>160.0000000</ele>
        <time>2010-03-07T13:20:17Z</time>
      </trkpt>
      <trkpt lat="43.9328614" lon="8.0752906">
        <ele>161.1000000</ele>
        <time>2010-03-07T13:20:27Z</time>
      </trkpt>
      <trkpt lat="43.9330597" lon="8.0752487">
        <ele>162.0000000</ele>
        <time>2010-03-07T13:20:37Z</time>
      </trkpt>
      <trkpt lat="43.9332161" lon="8.0751849">
        <ele>162.9000000</ele>
        <time>2010-03-07T13:20:45Z</time>
      </trkpt>
      <trkpt lat="43.9333496" lon="8.0750485">
        <ele>163.8000000</ele>
        <time>2010-03-07T13:20:53Z</time>
      </trkpt>
      <trkpt lat="43.9334488" lon="8.0748959">
        <ele>164.4000000</ele>
        <time>2010-03-07T13:21:00Z</time>
      </trkpt>
      <trkpt lat="43.9335289" lon="8.0747538">
        <ele>164.9000000</ele>
        <time>2010-03-07T13:21:06Z</time>
      </trkpt>
      <trkpt lat="43.9336586" lon="8.0745582">
        <ele>165.6000000</ele>
        <time>2010-03-07T13:21:15Z</time>
      </trkpt>
      <trkpt lat="43.9337311" lon="8.0745277">
        <ele>166.0000000</ele>
        <time>2010-03-07T13:21:19Z</time>
      </trkpt>
      <trkpt lat="43.9337654" lon="8.0746240">
        <ele>166.7000000</ele>
        <time>2010-03-07T13:21:24Z</time>
      </trkpt>
      <trkpt lat="43.9337463" lon="8.0746918">
        <ele>167.0000000</ele>
        <time>2010-03-07T13:21:27Z</time>
      </trkpt>
      <trkpt lat="43.9336891" lon="8.0748739">
        <ele>168.1000000</ele>
        <time>2010-03-07T13:21:36Z</time>
      </trkpt>
      <trkpt lat="43.9336319" lon="8.0750303">
        <ele>169.2000000</ele>
        <time>2010-03-07T13:21:44Z</time>
      </trkpt>
      <trkpt lat="43.9335975" lon="8.0751695">
        <ele>169.9000000</ele>
        <time>2010-03-07T13:21:50Z</time>
      </trkpt>
      <trkpt lat="43.9335441" lon="8.0754108">
        <ele>171.1000000</ele>
        <time>2010-03-07T13:21:59Z</time>
      </trkpt>
      <trkpt lat="43.9336090" lon="8.0754633">
        <ele>171.4000000</ele>
        <time>2010-03-07T13:22:04Z</time>
      </trkpt>
      <trkpt lat="43.9337387" lon="8.0754452">
        <ele>172.3000000</ele>
        <time>2010-03-07T13:22:12Z</time>
      </trkpt>
      <trkpt lat="43.9339256" lon="8.0754051">
        <ele>172.4000000</ele>
        <time>2010-03-07T13:22:21Z</time>
      </trkpt>
      <trkpt lat="43.9341011" lon="8.0753688">
        <ele>172.8000000</ele>
        <time>2010-03-07T13:22:29Z</time>
      </trkpt>
      <trkpt lat="43.9342575" lon="8.0753460">
        <ele>173.6000000</ele>
        <time>2010-03-07T13:22:36Z</time>
      </trkpt>
      <trkpt lat="43.9344482" lon="8.0752830">
        <ele>174.4000000</ele>
        <time>2010-03-07T13:22:45Z</time>
      </trkpt>
      <trkpt lat="43.9346085" lon="8.0752335">
        <ele>176.0000000</ele>
        <time>2010-03-07T13:22:54Z</time>
      </trkpt>
      <trkpt lat="43.9347344" lon="8.0751886">
        <ele>177.5000000</ele>
        <time>2010-03-07T13:23:02Z</time>
      </trkpt>
      <trkpt lat="43.9348831" lon="8.0751209">
        <ele>179.0000000</ele>
        <time>2010-03-07T13:23:12Z</time>
      </trkpt>
      <trkpt lat="43.9350013" lon="8.0750580">
        <ele>180.9000000</ele>
        <time>2010-03-07T13:23:21Z</time>
      </trkpt>
      <trkpt lat="43.9350891" lon="8.0749998">
        <ele>181.8000000</ele>
        <time>2010-03-07T13:23:27Z</time>
      </trkpt>
      <trkpt lat="43.9352188" lon="8.0749283">
        <ele>182.4000000</ele>
        <time>2010-03-07T13:23:34Z</time>
      </trkpt>
      <trkpt lat="43.9353561" lon="8.0748749">
        <ele>182.8000000</ele>
        <time>2010-03-07T13:23:41Z</time>
      </trkpt>
      <trkpt lat="43.9355354" lon="8.0748510">
        <ele>183.1000000</ele>
        <time>2010-03-07T13:23:49Z</time>
      </trkpt>
      <trkpt lat="43.9357415" lon="8.0748902">
        <ele>183.2000000</ele>
        <time>2010-03-07T13:23:58Z</time>
      </trkpt>
      <trkpt lat="43.9359436" lon="8.0749321">
        <ele>184.1000000</ele>
        <time>2010-03-07T13:24:07Z</time>
      </trkpt>
      <trkpt lat="43.9361038" lon="8.0749703">
        <ele>185.9000000</ele>
        <time>2010-03-07T13:24:16Z</time>
      </trkpt>
      <trkpt lat="43.9362678" lon="8.0750093">
        <ele>187.6000000</ele>
        <time>2010-03-07T13:24:26Z</time>
      </trkpt>
      <trkpt lat="43.9363861" lon="8.0750294">
        <ele>188.4000000</ele>
        <time>2010-03-07T13:24:34Z</time>
      </trkpt>
      <trkpt lat="43.9364853" lon="8.0750303">
        <ele>189.8000000</ele>
        <time>2010-03-07T13:24:41Z</time>
      </trkpt>
      <trkpt lat="43.9365959" lon="8.0750446">
        <ele>191.5000000</ele>
        <time>2010-03-07T13:24:50Z</time>
      </trkpt>
      <trkpt lat="43.9366989" lon="8.0750618">
        <ele>193.1000000</ele>
        <time>2010-03-07T13:24:59Z</time>
      </trkpt>
      <trkpt lat="43.9368057" lon="8.0750285">
        <ele>194.5000000</ele>
        <time>2010-03-07T13:25:07Z</time>
      </trkpt>
      <trkpt lat="43.9368477" lon="8.0749111">
        <ele>195.5000000</ele>
        <time>2010-03-07T13:25:14Z</time>
      </trkpt>
      <trkpt lat="43.9368667" lon="8.0747118">
        <ele>196.2000000</ele>
        <time>2010-03-07T13:25:22Z</time>
      </trkpt>
      <trkpt lat="43.9369355" lon="8.0744896">
        <ele>196.4000000</ele>
        <time>2010-03-07T13:25:30Z</time>
      </trkpt>
      <trkpt lat="43.9370422" lon="8.0741539">
        <ele>197.3000000</ele>
        <time>2010-03-07T13:25:42Z</time>
      </trkpt>
      <trkpt lat="43.9371109" lon="8.0739136">
        <ele>198.8000000</ele>
        <time>2010-03-07T13:25:52Z</time>
      </trkpt>
      <trkpt lat="43.9372024" lon="8.0737972">
        <ele>200.6000000</ele>
        <time>2010-03-07T13:26:01Z</time>
      </trkpt>
      <trkpt lat="43.9373017" lon="8.0737334">
        <ele>201.6000000</ele>
        <time>2010-03-07T13:26:08Z</time>
      </trkpt>
      <trkpt lat="43.9374198" lon="8.0737057">
        <ele>203.7000000</ele>
        <time>2010-03-07T13:26:17Z</time>
      </trkpt>
      <trkpt lat="43.9375267" lon="8.0736752">
        <ele>204.8000000</ele>
        <time>2010-03-07T13:26:25Z</time>
      </trkpt>
      <trkpt lat="43.9376679" lon="8.0736456">
        <ele>205.8000000</ele>
        <time>2010-03-07T13:26:35Z</time>
      </trkpt>
      <trkpt lat="43.9377670" lon="8.0736446">
        <ele>207.0000000</ele>
        <time>2010-03-07T13:26:42Z</time>
      </trkpt>
      <trkpt lat="43.9379082" lon="8.0736847">
        <ele>207.8000000</ele>
        <time>2010-03-07T13:26:50Z</time>
      </trkpt>
      <trkpt lat="43.9380570" lon="8.0737687">
        <ele>208.5000000</ele>
        <time>2010-03-07T13:26:58Z</time>
      </trkpt>
      <trkpt lat="43.9381866" lon="8.0739193">
        <ele>209.5000000</ele>
        <time>2010-03-07T13:27:07Z</time>
      </trkpt>
      <trkpt lat="43.9383049" lon="8.0740862">
        <ele>210.3000000</ele>
        <time>2010-03-07T13:27:16Z</time>
      </trkpt>
      <trkpt lat="43.9384117" lon="8.0742216">
        <ele>211.2000000</ele>
        <time>2010-03-07T13:27:24Z</time>
      </trkpt>
      <trkpt lat="43.9385033" lon="8.0742741">
        <ele>211.9000000</ele>
        <time>2010-03-07T13:27:30Z</time>
      </trkpt>
      <trkpt lat="43.9386177" lon="8.0743189">
        <ele>212.9000000</ele>
        <time>2010-03-07T13:27:38Z</time>
      </trkpt>
      <trkpt lat="43.9387436" lon="8.0743312">
        <ele>214.5000000</ele>
        <time>2010-03-07T13:27:46Z</time>
      </trkpt>
      <trkpt lat="43.9388504" lon="8.0743332">
        <ele>216.2000000</ele>
        <time>2010-03-07T13:27:53Z</time>
      </trkpt>
      <trkpt lat="43.9389572" lon="8.0743055">
        <ele>217.7000000</ele>
        <time>2010-03-07T13:28:00Z</time>
      </trkpt>
      <trkpt lat="43.9389801" lon="8.0742960">
        <ele>218.3000000</ele>
        <time>2010-03-07T13:28:03Z</time>
      </trkpt>
      <trkpt lat="43.9390907" lon="8.0742665">
        <ele>220.0000000</ele>
        <time>2010-03-07T13:28:13Z</time>
      </trkpt>
      <trkpt lat="43.9391937" lon="8.0742483">
        <ele>221.4000000</ele>
        <time>2010-03-07T13:28:22Z</time>
      </trkpt>
      <trkpt lat="43.9393006" lon="8.0742483">
        <ele>223.3000000</ele>
        <time>2010-03-07T13:28:32Z</time>
      </trkpt>
      <trkpt lat="43.9393959" lon="8.0742750">
        <ele>224.5000000</ele>
        <time>2010-03-07T13:28:41Z</time>
      </trkpt>
      <trkpt lat="43.9395065" lon="8.0743227">
        <ele>226.6000000</ele>
        <time>2010-03-07T13:28:53Z</time>
      </trkpt>
      <trkpt lat="43.9395638" lon="8.0743799">
        <ele>228.1000000</ele>
        <time>2010-03-07T13:29:01Z</time>
      </trkpt>
      <trkpt lat="43.9395867" lon="8.0744934">
        <ele>229.8000000</ele>
        <time>2010-03-07T13:29:10Z</time>
      </trkpt>
      <trkpt lat="43.9395294" lon="8.0745669">
        <ele>231.4000000</ele>
        <time>2010-03-07T13:29:19Z</time>
      </trkpt>
      <trkpt lat="43.9394416" lon="8.0745449">
        <ele>232.4000000</ele>
        <time>2010-03-07T13:29:27Z</time>
      </trkpt>
      <trkpt lat="43.9393463" lon="8.0745754">
        <ele>233.4000000</ele>
        <time>2010-03-07T13:29:35Z</time>
      </trkpt>
      <trkpt lat="43.9392395" lon="8.0746880">
        <ele>234.8000000</ele>
        <time>2010-03-07T13:29:46Z</time>
      </trkpt>
      <trkpt lat="43.9391823" lon="8.0748472">
        <ele>235.7000000</ele>
        <time>2010-03-07T13:29:56Z</time>
      </trkpt>
      <trkpt lat="43.9391747" lon="8.0748987">
        <ele>235.9000000</ele>
        <time>2010-03-07T13:30:01Z</time>
      </trkpt>
      <trkpt lat="43.9391289" lon="8.0750742">
        <ele>236.5000000</ele>
        <time>2010-03-07T13:30:09Z</time>
      </trkpt>
      <trkpt lat="43.9390564" lon="8.0753403">
        <ele>237.2000000</ele>
        <time>2010-03-07T13:30:19Z</time>
      </trkpt>
      <trkpt lat="43.9389801" lon="8.0755463">
        <ele>237.9000000</ele>
        <time>2010-03-07T13:30:27Z</time>
      </trkpt>
      <trkpt lat="43.9388619" lon="8.0757837">
        <ele>238.1000000</ele>
        <time>2010-03-07T13:30:36Z</time>
      </trkpt>
      <trkpt lat="43.9387550" lon="8.0759935">
        <ele>238.3000000</ele>
        <time>2010-03-07T13:30:44Z</time>
      </trkpt>
      <trkpt lat="43.9386368" lon="8.0761938">
        <ele>239.4000000</ele>
        <time>2010-03-07T13:30:53Z</time>
      </trkpt>
      <trkpt lat="43.9385528" lon="8.0763178">
        <ele>240.5000000</ele>
        <time>2010-03-07T13:31:01Z</time>
      </trkpt>
      <trkpt lat="43.9384575" lon="8.0764589">
        <ele>242.0000000</ele>
        <time>2010-03-07T13:31:10Z</time>
      </trkpt>
      <trkpt lat="43.9383850" lon="8.0765887">
        <ele>242.8000000</ele>
        <time>2010-03-07T13:31:18Z</time>
      </trkpt>
      <trkpt lat="43.9383698" lon="8.0767431">
        <ele>243.9000000</ele>
        <time>2010-03-07T13:31:25Z</time>
      </trkpt>
      <trkpt lat="43.9383850" lon="8.0767689">
        <ele>244.3000000</ele>
        <time>2010-03-07T13:31:32Z</time>
      </trkpt>
      <trkpt lat="43.9383735" lon="8.0767689">
        <ele>244.2000000</ele>
        <time>2010-03-07T13:31:56Z</time>
      </trkpt>
      <trkpt lat="43.9383659" lon="8.0767679">
        <ele>244.7000000</ele>
        <time>2010-03-07T13:32:08Z</time>
      </trkpt>
      <trkpt lat="43.9383698" lon="8.0767660">
        <ele>244.4000000</ele>
        <time>2010-03-07T13:32:25Z</time>
      </trkpt>
      <trkpt lat="43.9383735" lon="8.0767669">
        <ele>244.4000000</ele>
        <time>2010-03-07T13:32:27Z</time>
      </trkpt>
      <trkpt lat="43.9384460" lon="8.0767832">
        <ele>245.3000000</ele>
        <time>2010-03-07T13:32:33Z</time>
      </trkpt>
      <trkpt lat="43.9385643" lon="8.0767793">
        <ele>246.6000000</ele>
        <time>2010-03-07T13:32:41Z</time>
      </trkpt>
      <trkpt lat="43.9386864" lon="8.0767736">
        <ele>247.9000000</ele>
        <time>2010-03-07T13:32:49Z</time>
      </trkpt>
      <trkpt lat="43.9388123" lon="8.0767298">
        <ele>249.2000000</ele>
        <time>2010-03-07T13:32:58Z</time>
      </trkpt>
      <trkpt lat="43.9389076" lon="8.0766649">
        <ele>250.7000000</ele>
        <time>2010-03-07T13:33:05Z</time>
      </trkpt>
      <trkpt lat="43.9390220" lon="8.0765981">
        <ele>252.6000000</ele>
        <time>2010-03-07T13:33:14Z</time>
      </trkpt>
      <trkpt lat="43.9391289" lon="8.0765447">
        <ele>254.1000000</ele>
        <time>2010-03-07T13:33:22Z</time>
      </trkpt>
      <trkpt lat="43.9392433" lon="8.0764970">
        <ele>255.4000000</ele>
        <time>2010-03-07T13:33:30Z</time>
      </trkpt>
      <trkpt lat="43.9393311" lon="8.0764685">
        <ele>256.5000000</ele>
        <time>2010-03-07T13:33:37Z</time>
      </trkpt>
      <trkpt lat="43.9394340" lon="8.0764504">
        <ele>258.2000000</ele>
        <time>2010-03-07T13:33:45Z</time>
      </trkpt>
      <trkpt lat="43.9395294" lon="8.0764122">
        <ele>260.0000000</ele>
        <time>2010-03-07T13:33:53Z</time>
      </trkpt>
      <trkpt lat="43.9396248" lon="8.0763512">
        <ele>261.6000000</ele>
        <time>2010-03-07T13:34:01Z</time>
      </trkpt>
      <trkpt lat="43.9397163" lon="8.0762558">
        <ele>263.2000000</ele>
        <time>2010-03-07T13:34:10Z</time>
      </trkpt>
      <trkpt lat="43.9398117" lon="8.0761509">
        <ele>264.3000000</ele>
        <time>2010-03-07T13:34:19Z</time>
      </trkpt>
      <trkpt lat="43.9399605" lon="8.0760250">
        <ele>264.6000000</ele>
        <time>2010-03-07T13:34:28Z</time>
      </trkpt>
      <trkpt lat="43.9401474" lon="8.0759077">
        <ele>264.3000000</ele>
        <time>2010-03-07T13:34:37Z</time>
      </trkpt>
      <trkpt lat="43.9403152" lon="8.0758676">
        <ele>264.8000000</ele>
        <time>2010-03-07T13:34:45Z</time>
      </trkpt>
      <trkpt lat="43.9404259" lon="8.0759153">
        <ele>266.0000000</ele>
        <time>2010-03-07T13:34:52Z</time>
      </trkpt>
      <trkpt lat="43.9405709" lon="8.0759611">
        <ele>267.7000000</ele>
        <time>2010-03-07T13:35:02Z</time>
      </trkpt>
      <trkpt lat="43.9406395" lon="8.0759630">
        <ele>269.1000000</ele>
        <time>2010-03-07T13:35:07Z</time>
      </trkpt>
      <trkpt lat="43.9407539" lon="8.0759707">
        <ele>270.9000000</ele>
        <time>2010-03-07T13:35:16Z</time>
      </trkpt>
      <trkpt lat="43.9408874" lon="8.0759897">
        <ele>272.8000000</ele>
        <time>2010-03-07T13:35:27Z</time>
      </trkpt>
      <trkpt lat="43.9409942" lon="8.0760365">
        <ele>273.8000000</ele>
        <time>2010-03-07T13:35:35Z</time>
      </trkpt>
      <trkpt lat="43.9411011" lon="8.0760498">
        <ele>274.9000000</ele>
        <time>2010-03-07T13:35:43Z</time>
      </trkpt>
      <trkpt lat="43.9412155" lon="8.0760441">
        <ele>276.1000000</ele>
        <time>2010-03-07T13:35:51Z</time>
      </trkpt>
      <trkpt lat="43.9413185" lon="8.0760574">
        <ele>277.0000000</ele>
        <time>2010-03-07T13:35:58Z</time>
      </trkpt>
      <trkpt lat="43.9414482" lon="8.0760755">
        <ele>277.7000000</ele>
        <time>2010-03-07T13:36:06Z</time>
      </trkpt>
      <trkpt lat="43.9416466" lon="8.0761080">
        <ele>278.7000000</ele>
        <time>2010-03-07T13:36:18Z</time>
      </trkpt>
      <trkpt lat="43.9417991" lon="8.0761547">
        <ele>279.8000000</ele>
        <time>2010-03-07T13:36:28Z</time>
      </trkpt>
      <trkpt lat="43.9419022" lon="8.0762167">
        <ele>281.1000000</ele>
        <time>2010-03-07T13:36:36Z</time>
      </trkpt>
      <trkpt lat="43.9420052" lon="8.0762940">
        <ele>282.2000000</ele>
        <time>2010-03-07T13:36:44Z</time>
      </trkpt>
      <trkpt lat="43.9421043" lon="8.0763578">
        <ele>283.6000000</ele>
        <time>2010-03-07T13:36:52Z</time>
      </trkpt>
      <trkpt lat="43.9422035" lon="8.0763550">
        <ele>285.3000000</ele>
        <time>2010-03-07T13:36:59Z</time>
      </trkpt>
      <trkpt lat="43.9423218" lon="8.0762987">
        <ele>286.0000000</ele>
        <time>2010-03-07T13:37:07Z</time>
      </trkpt>
      <trkpt lat="43.9424439" lon="8.0762634">
        <ele>286.5000000</ele>
        <time>2010-03-07T13:37:15Z</time>
      </trkpt>
      <trkpt lat="43.9425697" lon="8.0762482">
        <ele>288.0000000</ele>
        <time>2010-03-07T13:37:23Z</time>
      </trkpt>
      <trkpt lat="43.9427032" lon="8.0762148">
        <ele>289.6000000</ele>
        <time>2010-03-07T13:37:32Z</time>
      </trkpt>
      <trkpt lat="43.9427986" lon="8.0761537">
        <ele>291.0000000</ele>
        <time>2010-03-07T13:37:39Z</time>
      </trkpt>
      <trkpt lat="43.9429321" lon="8.0760250">
        <ele>293.3000000</ele>
        <time>2010-03-07T13:37:50Z</time>
      </trkpt>
      <trkpt lat="43.9430084" lon="8.0759210">
        <ele>294.1000000</ele>
        <time>2010-03-07T13:37:57Z</time>
      </trkpt>
      <trkpt lat="43.9431419" lon="8.0758190">
        <ele>294.3000000</ele>
        <time>2010-03-07T13:38:06Z</time>
      </trkpt>
      <trkpt lat="43.9433212" lon="8.0757923">
        <ele>295.2000000</ele>
        <time>2010-03-07T13:38:16Z</time>
      </trkpt>
      <trkpt lat="43.9434815" lon="8.0757990">
        <ele>296.3000000</ele>
        <time>2010-03-07T13:38:25Z</time>
      </trkpt>
      <trkpt lat="43.9435691" lon="8.0758056">
        <ele>297.6000000</ele>
        <time>2010-03-07T13:38:32Z</time>
      </trkpt>
      <trkpt lat="43.9436150" lon="8.0757980">
        <ele>298.1000000</ele>
        <time>2010-03-07T13:38:37Z</time>
      </trkpt>
      <trkpt lat="43.9437065" lon="8.0757723">
        <ele>299.4000000</ele>
        <time>2010-03-07T13:38:45Z</time>
      </trkpt>
      <trkpt lat="43.9438133" lon="8.0757380">
        <ele>301.6000000</ele>
        <time>2010-03-07T13:38:55Z</time>
      </trkpt>
      <trkpt lat="43.9438667" lon="8.0757780">
        <ele>303.0000000</ele>
        <time>2010-03-07T13:39:02Z</time>
      </trkpt>
      <trkpt lat="43.9438706" lon="8.0757990">
        <ele>303.4000000</ele>
        <time>2010-03-07T13:39:04Z</time>
      </trkpt>
      <trkpt lat="43.9438095" lon="8.0758905">
        <ele>305.2000000</ele>
        <time>2010-03-07T13:39:13Z</time>
      </trkpt>
      <trkpt lat="43.9437294" lon="8.0759744">
        <ele>306.4000000</ele>
        <time>2010-03-07T13:39:22Z</time>
      </trkpt>
      <trkpt lat="43.9436798" lon="8.0760012">
        <ele>306.9000000</ele>
        <time>2010-03-07T13:39:29Z</time>
      </trkpt>
      <trkpt lat="43.9435730" lon="8.0760317">
        <ele>307.3000000</ele>
        <time>2010-03-07T13:39:36Z</time>
      </trkpt>
      <trkpt lat="43.9434662" lon="8.0761318">
        <ele>307.8000000</ele>
        <time>2010-03-07T13:39:43Z</time>
      </trkpt>
      <trkpt lat="43.9434319" lon="8.0763054">
        <ele>308.4000000</ele>
        <time>2010-03-07T13:39:50Z</time>
      </trkpt>
      <trkpt lat="43.9434891" lon="8.0764876">
        <ele>309.3000000</ele>
        <time>2010-03-07T13:39:58Z</time>
      </trkpt>
      <trkpt lat="43.9435615" lon="8.0766316">
        <ele>310.3000000</ele>
        <time>2010-03-07T13:40:05Z</time>
      </trkpt>
      <trkpt lat="43.9436798" lon="8.0768127">
        <ele>310.3000000</ele>
        <time>2010-03-07T13:40:13Z</time>
      </trkpt>
      <trkpt lat="43.9438133" lon="8.0770492">
        <ele>310.9000000</ele>
        <time>2010-03-07T13:40:22Z</time>
      </trkpt>
      <trkpt lat="43.9439354" lon="8.0773134">
        <ele>311.2000000</ele>
        <time>2010-03-07T13:40:31Z</time>
      </trkpt>
      <trkpt lat="43.9440651" lon="8.0775900">
        <ele>311.3000000</ele>
        <time>2010-03-07T13:40:41Z</time>
      </trkpt>
      <trkpt lat="43.9441605" lon="8.0776749">
        <ele>312.0000000</ele>
        <time>2010-03-07T13:40:46Z</time>
      </trkpt>
      <trkpt lat="43.9442710" lon="8.0776786">
        <ele>312.6000000</ele>
        <time>2010-03-07T13:40:52Z</time>
      </trkpt>
      <trkpt lat="43.9444275" lon="8.0777340">
        <ele>314.0000000</ele>
        <time>2010-03-07T13:41:01Z</time>
      </trkpt>
      <trkpt lat="43.9445648" lon="8.0778246">
        <ele>314.7000000</ele>
        <time>2010-03-07T13:41:09Z</time>
      </trkpt>
      <trkpt lat="43.9447136" lon="8.0779724">
        <ele>315.3000000</ele>
        <time>2010-03-07T13:41:18Z</time>
      </trkpt>
      <trkpt lat="43.9448319" lon="8.0781422">
        <ele>316.6000000</ele>
        <time>2010-03-07T13:41:27Z</time>
      </trkpt>
      <trkpt lat="43.9449082" lon="8.0782748">
        <ele>318.1000000</ele>
        <time>2010-03-07T13:41:35Z</time>
      </trkpt>
      <trkpt lat="43.9449692" lon="8.0783977">
        <ele>319.6000000</ele>
        <time>2010-03-07T13:41:43Z</time>
      </trkpt>
      <trkpt lat="43.9450188" lon="8.0785151">
        <ele>321.2000000</ele>
        <time>2010-03-07T13:41:50Z</time>
      </trkpt>
      <trkpt lat="43.9450760" lon="8.0786314">
        <ele>322.5000000</ele>
        <time>2010-03-07T13:41:57Z</time>
      </trkpt>
      <trkpt lat="43.9451561" lon="8.0787334">
        <ele>323.3000000</ele>
        <time>2010-03-07T13:42:04Z</time>
      </trkpt>
      <trkpt lat="43.9452705" lon="8.0788689">
        <ele>324.5000000</ele>
        <time>2010-03-07T13:42:13Z</time>
      </trkpt>
      <trkpt lat="43.9453811" lon="8.0790377">
        <ele>325.5000000</ele>
        <time>2010-03-07T13:42:22Z</time>
      </trkpt>
      <trkpt lat="43.9453850" lon="8.0791998">
        <ele>325.7000000</ele>
        <time>2010-03-07T13:42:28Z</time>
      </trkpt>
      <trkpt lat="43.9452858" lon="8.0793743">
        <ele>326.1000000</ele>
        <time>2010-03-07T13:42:36Z</time>
      </trkpt>
      <trkpt lat="43.9452286" lon="8.0794897">
        <ele>327.3000000</ele>
        <time>2010-03-07T13:42:43Z</time>
      </trkpt>
      <trkpt lat="43.9451408" lon="8.0796575">
        <ele>328.6000000</ele>
        <time>2010-03-07T13:42:53Z</time>
      </trkpt>
      <trkpt lat="43.9450951" lon="8.0797215">
        <ele>329.5000000</ele>
        <time>2010-03-07T13:42:58Z</time>
      </trkpt>
      <trkpt lat="43.9450683" lon="8.0797568">
        <ele>330.0000000</ele>
        <time>2010-03-07T13:43:01Z</time>
      </trkpt>
      <trkpt lat="43.9449921" lon="8.0798244">
        <ele>331.8000000</ele>
        <time>2010-03-07T13:43:09Z</time>
      </trkpt>
      <trkpt lat="43.9449082" lon="8.0798912">
        <ele>333.3000000</ele>
        <time>2010-03-07T13:43:16Z</time>
      </trkpt>
      <trkpt lat="43.9448051" lon="8.0799427">
        <ele>334.4000000</ele>
        <time>2010-03-07T13:43:23Z</time>
      </trkpt>
      <trkpt lat="43.9447441" lon="8.0800324">
        <ele>335.3000000</ele>
        <time>2010-03-07T13:43:29Z</time>
      </trkpt>
      <trkpt lat="43.9447670" lon="8.0801506">
        <ele>336.7000000</ele>
        <time>2010-03-07T13:43:37Z</time>
      </trkpt>
      <trkpt lat="43.9448319" lon="8.0801411">
        <ele>338.3000000</ele>
        <time>2010-03-07T13:43:45Z</time>
      </trkpt>
      <trkpt lat="43.9448929" lon="8.0801278">
        <ele>339.0000000</ele>
        <time>2010-03-07T13:43:50Z</time>
      </trkpt>
      <trkpt lat="43.9449196" lon="8.0801258">
        <ele>339.2000000</ele>
        <time>2010-03-07T13:43:52Z</time>
      </trkpt>
      <trkpt lat="43.9449653" lon="8.0801249">
        <ele>340.0000000</ele>
        <time>2010-03-07T13:43:56Z</time>
      </trkpt>
      <trkpt lat="43.9450569" lon="8.0801372">
        <ele>341.0000000</ele>
        <time>2010-03-07T13:44:02Z</time>
      </trkpt>
      <trkpt lat="43.9451828" lon="8.0801563">
        <ele>342.2000000</ele>
        <time>2010-03-07T13:44:11Z</time>
      </trkpt>
      <trkpt lat="43.9452705" lon="8.0801506">
        <ele>343.2000000</ele>
        <time>2010-03-07T13:44:18Z</time>
      </trkpt>
      <trkpt lat="43.9453583" lon="8.0801354">
        <ele>344.1000000</ele>
        <time>2010-03-07T13:44:25Z</time>
      </trkpt>
      <trkpt lat="43.9454345" lon="8.0801153">
        <ele>345.0000000</ele>
        <time>2010-03-07T13:44:31Z</time>
      </trkpt>
      <trkpt lat="43.9455376" lon="8.0800609">
        <ele>346.2000000</ele>
        <time>2010-03-07T13:44:39Z</time>
      </trkpt>
      <trkpt lat="43.9456521" lon="8.0800037">
        <ele>347.7000000</ele>
        <time>2010-03-07T13:44:47Z</time>
      </trkpt>
      <trkpt lat="43.9457588" lon="8.0799627">
        <ele>349.4000000</ele>
        <time>2010-03-07T13:44:55Z</time>
      </trkpt>
      <trkpt lat="43.9458504" lon="8.0799485">
        <ele>351.1000000</ele>
        <time>2010-03-07T13:45:03Z</time>
      </trkpt>
      <trkpt lat="43.9459305" lon="8.0799408">
        <ele>352.5000000</ele>
        <time>2010-03-07T13:45:09Z</time>
      </trkpt>
      <trkpt lat="43.9460144" lon="8.0799455">
        <ele>353.8000000</ele>
        <time>2010-03-07T13:45:15Z</time>
      </trkpt>
      <trkpt lat="43.9461174" lon="8.0799351">
        <ele>354.8000000</ele>
        <time>2010-03-07T13:45:22Z</time>
      </trkpt>
      <trkpt lat="43.9462128" lon="8.0799189">
        <ele>355.3000000</ele>
        <time>2010-03-07T13:45:28Z</time>
      </trkpt>
      <trkpt lat="43.9463081" lon="8.0798550">
        <ele>355.5000000</ele>
        <time>2010-03-07T13:45:34Z</time>
      </trkpt>
      <trkpt lat="43.9464111" lon="8.0797682">
        <ele>355.9000000</ele>
        <time>2010-03-07T13:45:41Z</time>
      </trkpt>
      <trkpt lat="43.9465294" lon="8.0796118">
        <ele>356.9000000</ele>
        <time>2010-03-07T13:45:50Z</time>
      </trkpt>
      <trkpt lat="43.9466171" lon="8.0794344">
        <ele>357.6000000</ele>
        <time>2010-03-07T13:45:58Z</time>
      </trkpt>
      <trkpt lat="43.9466362" lon="8.0792427">
        <ele>357.9000000</ele>
        <time>2010-03-07T13:46:05Z</time>
      </trkpt>
      <trkpt lat="43.9465828" lon="8.0790338">
        <ele>358.3000000</ele>
        <time>2010-03-07T13:46:13Z</time>
      </trkpt>
      <trkpt lat="43.9465065" lon="8.0788421">
        <ele>358.8000000</ele>
        <time>2010-03-07T13:46:21Z</time>
      </trkpt>
      <trkpt lat="43.9464150" lon="8.0786400">
        <ele>359.4000000</ele>
        <time>2010-03-07T13:46:30Z</time>
      </trkpt>
      <trkpt lat="43.9463234" lon="8.0784330">
        <ele>359.8000000</ele>
        <time>2010-03-07T13:46:39Z</time>
      </trkpt>
      <trkpt lat="43.9462395" lon="8.0782547">
        <ele>360.4000000</ele>
        <time>2010-03-07T13:46:47Z</time>
      </trkpt>
      <trkpt lat="43.9461174" lon="8.0781002">
        <ele>362.0000000</ele>
        <time>2010-03-07T13:46:56Z</time>
      </trkpt>
      <trkpt lat="43.9460640" lon="8.0780106">
        <ele>362.9000000</ele>
        <time>2010-03-07T13:47:01Z</time>
      </trkpt>
      <trkpt lat="43.9459495" lon="8.0778932">
        <ele>364.9000000</ele>
        <time>2010-03-07T13:47:10Z</time>
      </trkpt>
      <trkpt lat="43.9458618" lon="8.0777540">
        <ele>366.0000000</ele>
        <time>2010-03-07T13:47:19Z</time>
      </trkpt>
      <trkpt lat="43.9458007" lon="8.0776176">
        <ele>367.4000000</ele>
        <time>2010-03-07T13:47:27Z</time>
      </trkpt>
      <trkpt lat="43.9457207" lon="8.0774631">
        <ele>369.4000000</ele>
        <time>2010-03-07T13:47:36Z</time>
      </trkpt>
      <trkpt lat="43.9456749" lon="8.0772858">
        <ele>370.9000000</ele>
        <time>2010-03-07T13:47:45Z</time>
      </trkpt>
      <trkpt lat="43.9457245" lon="8.0771303">
        <ele>372.0000000</ele>
        <time>2010-03-07T13:47:53Z</time>
      </trkpt>
      <trkpt lat="43.9458275" lon="8.0770388">
        <ele>373.2000000</ele>
        <time>2010-03-07T13:48:01Z</time>
      </trkpt>
      <trkpt lat="43.9459495" lon="8.0770006">
        <ele>374.4000000</ele>
        <time>2010-03-07T13:48:09Z</time>
      </trkpt>
      <trkpt lat="43.9460869" lon="8.0770254">
        <ele>375.7000000</ele>
        <time>2010-03-07T13:48:18Z</time>
      </trkpt>
      <trkpt lat="43.9462509" lon="8.0770684">
        <ele>376.5000000</ele>
        <time>2010-03-07T13:48:28Z</time>
      </trkpt>
      <trkpt lat="43.9464150" lon="8.0770626">
        <ele>376.9000000</ele>
        <time>2010-03-07T13:48:36Z</time>
      </trkpt>
      <trkpt lat="43.9465675" lon="8.0770226">
        <ele>378.3000000</ele>
        <time>2010-03-07T13:48:43Z</time>
      </trkpt>
      <trkpt lat="43.9466934" lon="8.0769682">
        <ele>379.1000000</ele>
        <time>2010-03-07T13:48:49Z</time>
      </trkpt>
      <trkpt lat="43.9468651" lon="8.0769091">
        <ele>380.5000000</ele>
        <time>2010-03-07T13:48:57Z</time>
      </trkpt>
      <trkpt lat="43.9470139" lon="8.0768891">
        <ele>381.1000000</ele>
        <time>2010-03-07T13:49:04Z</time>
      </trkpt>
      <trkpt lat="43.9471245" lon="8.0769911">
        <ele>382.1000000</ele>
        <time>2010-03-07T13:49:10Z</time>
      </trkpt>
      <trkpt lat="43.9472465" lon="8.0771083">
        <ele>382.8000000</ele>
        <time>2010-03-07T13:49:16Z</time>
      </trkpt>
      <trkpt lat="43.9474411" lon="8.0771942">
        <ele>382.9000000</ele>
        <time>2010-03-07T13:49:23Z</time>
      </trkpt>
      <trkpt lat="43.9475670" lon="8.0771771">
        <ele>383.5000000</ele>
        <time>2010-03-07T13:49:28Z</time>
      </trkpt>
      <trkpt lat="43.9477005" lon="8.0771237">
        <ele>384.9000000</ele>
        <time>2010-03-07T13:49:34Z</time>
      </trkpt>
      <trkpt lat="43.9478340" lon="8.0770750">
        <ele>386.4000000</ele>
        <time>2010-03-07T13:49:41Z</time>
      </trkpt>
      <trkpt lat="43.9479523" lon="8.0770597">
        <ele>387.7000000</ele>
        <time>2010-03-07T13:49:48Z</time>
      </trkpt>
      <trkpt lat="43.9480706" lon="8.0770731">
        <ele>388.7000000</ele>
        <time>2010-03-07T13:49:56Z</time>
      </trkpt>
      <trkpt lat="43.9481735" lon="8.0770950">
        <ele>389.4000000</ele>
        <time>2010-03-07T13:50:03Z</time>
      </trkpt>
      <trkpt lat="43.9482994" lon="8.0770969">
        <ele>391.2000000</ele>
        <time>2010-03-07T13:50:11Z</time>
      </trkpt>
      <trkpt lat="43.9484368" lon="8.0770902">
        <ele>392.4000000</ele>
        <time>2010-03-07T13:50:20Z</time>
      </trkpt>
      <trkpt lat="43.9485626" lon="8.0770455">
        <ele>393.7000000</ele>
        <time>2010-03-07T13:50:29Z</time>
      </trkpt>
      <trkpt lat="43.9487000" lon="8.0769691">
        <ele>395.6000000</ele>
        <time>2010-03-07T13:50:38Z</time>
      </trkpt>
      <trkpt lat="43.9487953" lon="8.0769253">
        <ele>396.1000000</ele>
        <time>2010-03-07T13:50:44Z</time>
      </trkpt>
      <trkpt lat="43.9489326" lon="8.0769167">
        <ele>397.3000000</ele>
        <time>2010-03-07T13:50:52Z</time>
      </trkpt>
      <trkpt lat="43.9490433" lon="8.0769138">
        <ele>398.1000000</ele>
        <time>2010-03-07T13:51:00Z</time>
      </trkpt>
      <trkpt lat="43.9491653" lon="8.0768700">
        <ele>399.3000000</ele>
        <time>2010-03-07T13:51:08Z</time>
      </trkpt>
      <trkpt lat="43.9492912" lon="8.0768233">
        <ele>400.2000000</ele>
        <time>2010-03-07T13:51:15Z</time>
      </trkpt>
      <trkpt lat="43.9494286" lon="8.0767736">
        <ele>400.5000000</ele>
        <time>2010-03-07T13:51:22Z</time>
      </trkpt>
      <trkpt lat="43.9495278" lon="8.0767956">
        <ele>401.0000000</ele>
        <time>2010-03-07T13:51:27Z</time>
      </trkpt>
      <trkpt lat="43.9496918" lon="8.0768547">
        <ele>403.7000000</ele>
        <time>2010-03-07T13:51:36Z</time>
      </trkpt>
      <trkpt lat="43.9498101" lon="8.0768938">
        <ele>405.0000000</ele>
        <time>2010-03-07T13:51:45Z</time>
      </trkpt>
      <trkpt lat="43.9498291" lon="8.0769653">
        <ele>405.4000000</ele>
        <time>2010-03-07T13:51:50Z</time>
      </trkpt>
      <trkpt lat="43.9497604" lon="8.0770331">
        <ele>405.3000000</ele>
        <time>2010-03-07T13:51:56Z</time>
      </trkpt>
      <trkpt lat="43.9497376" lon="8.0770549">
        <ele>405.5000000</ele>
        <time>2010-03-07T13:52:01Z</time>
      </trkpt>
      <trkpt lat="43.9497833" lon="8.0770512">
        <ele>404.7000000</ele>
        <time>2010-03-07T13:52:33Z</time>
      </trkpt>
      <trkpt lat="43.9497872" lon="8.0770512">
        <ele>404.7000000</ele>
        <time>2010-03-07T13:52:34Z</time>
      </trkpt>
      <trkpt lat="43.9497948" lon="8.0770521">
        <ele>403.7000000</ele>
        <time>2010-03-07T13:53:07Z</time>
      </trkpt>
      <trkpt lat="43.9497948" lon="8.0770521">
        <ele>403.7000000</ele>
        <time>2010-03-07T13:53:10Z</time>
      </trkpt>
      <trkpt lat="43.9497948" lon="8.0770521">
        <ele>403.7000000</ele>
        <time>2010-03-07T13:53:11Z</time>
      </trkpt>
      <trkpt lat="43.9497948" lon="8.0770503">
        <ele>403.5000000</ele>
        <time>2010-03-07T13:53:32Z</time>
      </trkpt>
      <trkpt lat="43.9497910" lon="8.0770521">
        <ele>403.4000000</ele>
        <time>2010-03-07T13:53:51Z</time>
      </trkpt>
      <trkpt lat="43.9497910" lon="8.0770521">
        <ele>403.3000000</ele>
        <time>2010-03-07T13:54:15Z</time>
      </trkpt>
      <trkpt lat="43.9497872" lon="8.0770521">
        <ele>403.2000000</ele>
        <time>2010-03-07T13:54:22Z</time>
      </trkpt>
      <trkpt lat="43.9497796" lon="8.0770416">
        <ele>403.9000000</ele>
        <time>2010-03-07T13:54:31Z</time>
      </trkpt>
      <trkpt lat="43.9497223" lon="8.0770560">
        <ele>404.5000000</ele>
        <time>2010-03-07T13:54:39Z</time>
      </trkpt>
      <trkpt lat="43.9496574" lon="8.0771017">
        <ele>406.6000000</ele>
        <time>2010-03-07T13:54:46Z</time>
      </trkpt>
      <trkpt lat="43.9496345" lon="8.0771083">
        <ele>406.9000000</ele>
        <time>2010-03-07T13:54:51Z</time>
      </trkpt>
      <trkpt lat="43.9496345" lon="8.0771113">
        <ele>406.7000000</ele>
        <time>2010-03-07T13:55:02Z</time>
      </trkpt>
      <trkpt lat="43.9496308" lon="8.0771103">
        <ele>406.7000000</ele>
        <time>2010-03-07T13:55:04Z</time>
      </trkpt>
      <trkpt lat="43.9496308" lon="8.0771113">
        <ele>406.8000000</ele>
        <time>2010-03-07T13:55:05Z</time>
      </trkpt>
      <trkpt lat="43.9496308" lon="8.0771150">
        <ele>406.6000000</ele>
        <time>2010-03-07T13:55:28Z</time>
      </trkpt>
      <trkpt lat="43.9496308" lon="8.0771150">
        <ele>406.3000000</ele>
        <time>2010-03-07T13:55:35Z</time>
      </trkpt>
      <trkpt lat="43.9496002" lon="8.0771179">
        <ele>406.4000000</ele>
        <time>2010-03-07T13:55:42Z</time>
      </trkpt>
      <trkpt lat="43.9495964" lon="8.0771198">
        <ele>406.8000000</ele>
        <time>2010-03-07T13:55:52Z</time>
      </trkpt>
      <trkpt lat="43.9496002" lon="8.0771150">
        <ele>406.4000000</ele>
        <time>2010-03-07T13:56:15Z</time>
      </trkpt>
      <trkpt lat="43.9496002" lon="8.0771131">
        <ele>405.5000000</ele>
        <time>2010-03-07T13:56:27Z</time>
      </trkpt>
      <trkpt lat="43.9496002" lon="8.0771131">
        <ele>405.6000000</ele>
        <time>2010-03-07T13:56:28Z</time>
      </trkpt>
      <trkpt lat="43.9496002" lon="8.0771160">
        <ele>406.0000000</ele>
        <time>2010-03-07T13:56:35Z</time>
      </trkpt>
      <trkpt lat="43.9496002" lon="8.0771170">
        <ele>406.5000000</ele>
        <time>2010-03-07T13:56:37Z</time>
      </trkpt>
      <trkpt lat="43.9496002" lon="8.0771170">
        <ele>406.7000000</ele>
        <time>2010-03-07T13:56:38Z</time>
      </trkpt>
      <trkpt lat="43.9495964" lon="8.0771170">
        <ele>405.8000000</ele>
        <time>2010-03-07T13:56:50Z</time>
      </trkpt>
      <trkpt lat="43.9495849" lon="8.0771255">
        <ele>406.1000000</ele>
        <time>2010-03-07T13:57:03Z</time>
      </trkpt>
      <trkpt lat="43.9495620" lon="8.0771551">
        <ele>406.8000000</ele>
        <time>2010-03-07T13:57:25Z</time>
      </trkpt>
      <trkpt lat="43.9495583" lon="8.0771551">
        <ele>407.1000000</ele>
        <time>2010-03-07T13:57:27Z</time>
      </trkpt>
      <trkpt lat="43.9495583" lon="8.0771551">
        <ele>407.2000000</ele>
        <time>2010-03-07T13:57:28Z</time>
      </trkpt>
      <trkpt lat="43.9495544" lon="8.0771627">
        <ele>406.6000000</ele>
        <time>2010-03-07T13:57:39Z</time>
      </trkpt>
      <trkpt lat="43.9495392" lon="8.0771656">
        <ele>406.2000000</ele>
        <time>2010-03-07T13:57:48Z</time>
      </trkpt>
      <trkpt lat="43.9495392" lon="8.0771666">
        <ele>406.5000000</ele>
        <time>2010-03-07T13:57:56Z</time>
      </trkpt>
      <trkpt lat="43.9495430" lon="8.0771656">
        <ele>406.2000000</ele>
        <time>2010-03-07T13:58:00Z</time>
      </trkpt>
      <trkpt lat="43.9494591" lon="8.0772305">
        <ele>406.5000000</ele>
        <time>2010-03-07T13:58:04Z</time>
      </trkpt>
      <trkpt lat="43.9493828" lon="8.0773144">
        <ele>407.5000000</ele>
        <time>2010-03-07T13:58:07Z</time>
      </trkpt>
      <trkpt lat="43.9493332" lon="8.0774050">
        <ele>409.0000000</ele>
        <time>2010-03-07T13:58:10Z</time>
      </trkpt>
      <trkpt lat="43.9493103" lon="8.0774688">
        <ele>409.8000000</ele>
        <time>2010-03-07T13:58:12Z</time>
      </trkpt>
      <trkpt lat="43.9492683" lon="8.0775318">
        <ele>410.0000000</ele>
        <time>2010-03-07T13:58:14Z</time>
      </trkpt>
      <trkpt lat="43.9492378" lon="8.0775518">
        <ele>410.1000000</ele>
        <time>2010-03-07T13:58:15Z</time>
      </trkpt>
      <trkpt lat="43.9492111" lon="8.0775633">
        <ele>410.4000000</ele>
        <time>2010-03-07T13:58:16Z</time>
      </trkpt>
      <trkpt lat="43.9491463" lon="8.0775995">
        <ele>411.4000000</ele>
        <time>2010-03-07T13:58:19Z</time>
      </trkpt>
      <trkpt lat="43.9490623" lon="8.0777082">
        <ele>410.5000000</ele>
        <time>2010-03-07T13:58:22Z</time>
      </trkpt>
      <trkpt lat="43.9487877" lon="8.0778951">
        <ele>405.7000000</ele>
        <time>2010-03-07T13:58:27Z</time>
      </trkpt>
      <trkpt lat="43.9485130" lon="8.0779562">
        <ele>402.9000000</ele>
        <time>2010-03-07T13:58:31Z</time>
      </trkpt>
      <trkpt lat="43.9483757" lon="8.0780296">
        <ele>401.7000000</ele>
        <time>2010-03-07T13:58:33Z</time>
      </trkpt>
      <trkpt lat="43.9482384" lon="8.0781164">
        <ele>401.1000000</ele>
        <time>2010-03-07T13:58:35Z</time>
      </trkpt>
      <trkpt lat="43.9479218" lon="8.0782833">
        <ele>397.1000000</ele>
        <time>2010-03-07T13:58:40Z</time>
      </trkpt>
      <trkpt lat="43.9478760" lon="8.0783234">
        <ele>396.3000000</ele>
        <time>2010-03-07T13:58:41Z</time>
      </trkpt>
      <trkpt lat="43.9477959" lon="8.0783730">
        <ele>394.4000000</ele>
        <time>2010-03-07T13:58:43Z</time>
      </trkpt>
      <trkpt lat="43.9476433" lon="8.0785551">
        <ele>389.9000000</ele>
        <time>2010-03-07T13:58:47Z</time>
      </trkpt>
      <trkpt lat="43.9475517" lon="8.0789109">
        <ele>386.3000000</ele>
        <time>2010-03-07T13:58:51Z</time>
      </trkpt>
      <trkpt lat="43.9475365" lon="8.0791130">
        <ele>384.1000000</ele>
        <time>2010-03-07T13:58:53Z</time>
      </trkpt>
      <trkpt lat="43.9474335" lon="8.0795736">
        <ele>380.1000000</ele>
        <time>2010-03-07T13:58:58Z</time>
      </trkpt>
      <trkpt lat="43.9472657" lon="8.0799008">
        <ele>375.6000000</ele>
        <time>2010-03-07T13:59:02Z</time>
      </trkpt>
      <trkpt lat="43.9470291" lon="8.0803528">
        <ele>371.9000000</ele>
        <time>2010-03-07T13:59:07Z</time>
      </trkpt>
      <trkpt lat="43.9468956" lon="8.0805311">
        <ele>372.7000000</ele>
        <time>2010-03-07T13:59:10Z</time>
      </trkpt>
      <trkpt lat="43.9467964" lon="8.0806999">
        <ele>375.1000000</ele>
        <time>2010-03-07T13:59:15Z</time>
      </trkpt>
      <trkpt lat="43.9467659" lon="8.0807486">
        <ele>375.8000000</ele>
        <time>2010-03-07T13:59:17Z</time>
      </trkpt>
      <trkpt lat="43.9466248" lon="8.0809240">
        <ele>376.6000000</ele>
        <time>2010-03-07T13:59:22Z</time>
      </trkpt>
      <trkpt lat="43.9464187" lon="8.0810338">
        <ele>377.5000000</ele>
        <time>2010-03-07T13:59:28Z</time>
      </trkpt>
      <trkpt lat="43.9461556" lon="8.0810871">
        <ele>376.0000000</ele>
        <time>2010-03-07T13:59:34Z</time>
      </trkpt>
      <trkpt lat="43.9459763" lon="8.0811730">
        <ele>373.3000000</ele>
        <time>2010-03-07T13:59:37Z</time>
      </trkpt>
      <trkpt lat="43.9457092" lon="8.0813580">
        <ele>368.3000000</ele>
        <time>2010-03-07T13:59:41Z</time>
      </trkpt>
      <trkpt lat="43.9456558" lon="8.0814199">
        <ele>367.9000000</ele>
        <time>2010-03-07T13:59:42Z</time>
      </trkpt>
      <trkpt lat="43.9454537" lon="8.0816756">
        <ele>364.8000000</ele>
        <time>2010-03-07T13:59:46Z</time>
      </trkpt>
      <trkpt lat="43.9453354" lon="8.0818396">
        <ele>361.0000000</ele>
        <time>2010-03-07T13:59:50Z</time>
      </trkpt>
      <trkpt lat="43.9452439" lon="8.0818978">
        <ele>358.4000000</ele>
        <time>2010-03-07T13:59:52Z</time>
      </trkpt>
      <trkpt lat="43.9450035" lon="8.0820475">
        <ele>353.2000000</ele>
        <time>2010-03-07T13:59:56Z</time>
      </trkpt>
      <trkpt lat="43.9448051" lon="8.0822954">
        <ele>346.8000000</ele>
        <time>2010-03-07T14:00:00Z</time>
      </trkpt>
      <trkpt lat="43.9446106" lon="8.0825834">
        <ele>340.1000000</ele>
        <time>2010-03-07T14:00:04Z</time>
      </trkpt>
      <trkpt lat="43.9444084" lon="8.0827923">
        <ele>336.6000000</ele>
        <time>2010-03-07T14:00:07Z</time>
      </trkpt>
      <trkpt lat="43.9441795" lon="8.0828371">
        <ele>335.1000000</ele>
        <time>2010-03-07T14:00:10Z</time>
      </trkpt>
      <trkpt lat="43.9440575" lon="8.0828180">
        <ele>335.7000000</ele>
        <time>2010-03-07T14:00:12Z</time>
      </trkpt>
      <trkpt lat="43.9438248" lon="8.0827503">
        <ele>336.2000000</ele>
        <time>2010-03-07T14:00:17Z</time>
      </trkpt>
      <trkpt lat="43.9437408" lon="8.0827284">
        <ele>336.1000000</ele>
        <time>2010-03-07T14:00:19Z</time>
      </trkpt>
      <trkpt lat="43.9435349" lon="8.0825825">
        <ele>335.0000000</ele>
        <time>2010-03-07T14:00:24Z</time>
      </trkpt>
      <trkpt lat="43.9434547" lon="8.0825272">
        <ele>334.5000000</ele>
        <time>2010-03-07T14:00:26Z</time>
      </trkpt>
      <trkpt lat="43.9433022" lon="8.0824452">
        <ele>334.1000000</ele>
        <time>2010-03-07T14:00:30Z</time>
      </trkpt>
      <trkpt lat="43.9432411" lon="8.0823860">
        <ele>333.8000000</ele>
        <time>2010-03-07T14:00:32Z</time>
      </trkpt>
      <trkpt lat="43.9430618" lon="8.0823317">
        <ele>332.2000000</ele>
        <time>2010-03-07T14:00:37Z</time>
      </trkpt>
      <trkpt lat="43.9429779" lon="8.0823851">
        <ele>331.2000000</ele>
        <time>2010-03-07T14:00:39Z</time>
      </trkpt>
      <trkpt lat="43.9427796" lon="8.0825091">
        <ele>327.3000000</ele>
        <time>2010-03-07T14:00:44Z</time>
      </trkpt>
      <trkpt lat="43.9426003" lon="8.0825567">
        <ele>325.3000000</ele>
        <time>2010-03-07T14:00:48Z</time>
      </trkpt>
      <trkpt lat="43.9425010" lon="8.0825252">
        <ele>323.8000000</ele>
        <time>2010-03-07T14:00:51Z</time>
      </trkpt>
      <trkpt lat="43.9424095" lon="8.0825367">
        <ele>322.7000000</ele>
        <time>2010-03-07T14:00:53Z</time>
      </trkpt>
      <trkpt lat="43.9422493" lon="8.0825539">
        <ele>320.2000000</ele>
        <time>2010-03-07T14:00:56Z</time>
      </trkpt>
      <trkpt lat="43.9420777" lon="8.0824833">
        <ele>316.6000000</ele>
        <time>2010-03-07T14:01:00Z</time>
      </trkpt>
      <trkpt lat="43.9419937" lon="8.0824547">
        <ele>314.8000000</ele>
        <time>2010-03-07T14:01:03Z</time>
      </trkpt>
      <trkpt lat="43.9419136" lon="8.0824470">
        <ele>313.0000000</ele>
        <time>2010-03-07T14:01:05Z</time>
      </trkpt>
      <trkpt lat="43.9417686" lon="8.0823793">
        <ele>309.0000000</ele>
        <time>2010-03-07T14:01:09Z</time>
      </trkpt>
      <trkpt lat="43.9416885" lon="8.0823135">
        <ele>306.3000000</ele>
        <time>2010-03-07T14:01:11Z</time>
      </trkpt>
      <trkpt lat="43.9414826" lon="8.0822868">
        <ele>302.2000000</ele>
        <time>2010-03-07T14:01:15Z</time>
      </trkpt>
      <trkpt lat="43.9413834" lon="8.0822773">
        <ele>300.6000000</ele>
        <time>2010-03-07T14:01:17Z</time>
      </trkpt>
      <trkpt lat="43.9411659" lon="8.0823908">
        <ele>296.3000000</ele>
        <time>2010-03-07T14:01:22Z</time>
      </trkpt>
      <trkpt lat="43.9409905" lon="8.0824204">
        <ele>294.6000000</ele>
        <time>2010-03-07T14:01:25Z</time>
      </trkpt>
      <trkpt lat="43.9409332" lon="8.0824346">
        <ele>294.3000000</ele>
        <time>2010-03-07T14:01:26Z</time>
      </trkpt>
      <trkpt lat="43.9407044" lon="8.0825062">
        <ele>293.7000000</ele>
        <time>2010-03-07T14:01:30Z</time>
      </trkpt>
      <trkpt lat="43.9405441" lon="8.0826521">
        <ele>292.8000000</ele>
        <time>2010-03-07T14:01:34Z</time>
      </trkpt>
      <trkpt lat="43.9403534" lon="8.0827256">
        <ele>291.0000000</ele>
        <time>2010-03-07T14:01:38Z</time>
      </trkpt>
      <trkpt lat="43.9402504" lon="8.0827665">
        <ele>290.4000000</ele>
        <time>2010-03-07T14:01:40Z</time>
      </trkpt>
      <trkpt lat="43.9399376" lon="8.0828380">
        <ele>284.8000000</ele>
        <time>2010-03-07T14:01:45Z</time>
      </trkpt>
      <trkpt lat="43.9397087" lon="8.0829602">
        <ele>282.2000000</ele>
        <time>2010-03-07T14:01:48Z</time>
      </trkpt>
      <trkpt lat="43.9393158" lon="8.0831184">
        <ele>276.8000000</ele>
        <time>2010-03-07T14:01:53Z</time>
      </trkpt>
      <trkpt lat="43.9392510" lon="8.0830669">
        <ele>275.6000000</ele>
        <time>2010-03-07T14:01:54Z</time>
      </trkpt>
      <trkpt lat="43.9390220" lon="8.0828142">
        <ele>272.0000000</ele>
        <time>2010-03-07T14:01:58Z</time>
      </trkpt>
      <trkpt lat="43.9388161" lon="8.0826311">
        <ele>268.1000000</ele>
        <time>2010-03-07T14:02:02Z</time>
      </trkpt>
      <trkpt lat="43.9387474" lon="8.0824957">
        <ele>267.1000000</ele>
        <time>2010-03-07T14:02:04Z</time>
      </trkpt>
      <trkpt lat="43.9386521" lon="8.0824718">
        <ele>265.9000000</ele>
        <time>2010-03-07T14:02:06Z</time>
      </trkpt>
      <trkpt lat="43.9385452" lon="8.0824651">
        <ele>264.6000000</ele>
        <time>2010-03-07T14:02:08Z</time>
      </trkpt>
      <trkpt lat="43.9382476" lon="8.0824127">
        <ele>260.2000000</ele>
        <time>2010-03-07T14:02:13Z</time>
      </trkpt>
      <trkpt lat="43.9381790" lon="8.0823536">
        <ele>258.9000000</ele>
        <time>2010-03-07T14:02:15Z</time>
      </trkpt>
      <trkpt lat="43.9381447" lon="8.0823278">
        <ele>258.5000000</ele>
        <time>2010-03-07T14:02:16Z</time>
      </trkpt>
      <trkpt lat="43.9378509" lon="8.0822754">
        <ele>253.1000000</ele>
        <time>2010-03-07T14:02:21Z</time>
      </trkpt>
      <trkpt lat="43.9376182" lon="8.0824041">
        <ele>250.2000000</ele>
        <time>2010-03-07T14:02:25Z</time>
      </trkpt>
      <trkpt lat="43.9374962" lon="8.0825805">
        <ele>248.4000000</ele>
        <time>2010-03-07T14:02:28Z</time>
      </trkpt>
      <trkpt lat="43.9374504" lon="8.0826321">
        <ele>247.5000000</ele>
        <time>2010-03-07T14:02:29Z</time>
      </trkpt>
      <trkpt lat="43.9372902" lon="8.0828047">
        <ele>245.2000000</ele>
        <time>2010-03-07T14:02:32Z</time>
      </trkpt>
      <trkpt lat="43.9370766" lon="8.0830230">
        <ele>241.7000000</ele>
        <time>2010-03-07T14:02:37Z</time>
      </trkpt>
      <trkpt lat="43.9369392" lon="8.0831528">
        <ele>239.9000000</ele>
        <time>2010-03-07T14:02:40Z</time>
      </trkpt>
      <trkpt lat="43.9367752" lon="8.0831890">
        <ele>238.2000000</ele>
        <time>2010-03-07T14:02:43Z</time>
      </trkpt>
      <trkpt lat="43.9367065" lon="8.0831814">
        <ele>237.8000000</ele>
        <time>2010-03-07T14:02:44Z</time>
      </trkpt>
      <trkpt lat="43.9364548" lon="8.0832892">
        <ele>233.9000000</ele>
        <time>2010-03-07T14:02:48Z</time>
      </trkpt>
      <trkpt lat="43.9361077" lon="8.0833340">
        <ele>230.0000000</ele>
        <time>2010-03-07T14:02:53Z</time>
      </trkpt>
      <trkpt lat="43.9359703" lon="8.0833158">
        <ele>227.7000000</ele>
        <time>2010-03-07T14:02:55Z</time>
      </trkpt>
      <trkpt lat="43.9357147" lon="8.0834436">
        <ele>224.6000000</ele>
        <time>2010-03-07T14:02:59Z</time>
      </trkpt>
      <trkpt lat="43.9356346" lon="8.0835886">
        <ele>222.5000000</ele>
        <time>2010-03-07T14:03:02Z</time>
      </trkpt>
      <trkpt lat="43.9355469" lon="8.0839033">
        <ele>219.2000000</ele>
        <time>2010-03-07T14:03:07Z</time>
      </trkpt>
      <trkpt lat="43.9355393" lon="8.0841093">
        <ele>217.2000000</ele>
        <time>2010-03-07T14:03:10Z</time>
      </trkpt>
      <trkpt lat="43.9355163" lon="8.0841646">
        <ele>216.4000000</ele>
        <time>2010-03-07T14:03:11Z</time>
      </trkpt>
      <trkpt lat="43.9353638" lon="8.0844117">
        <ele>212.7000000</ele>
        <time>2010-03-07T14:03:15Z</time>
      </trkpt>
      <trkpt lat="43.9351806" lon="8.0846949">
        <ele>209.6000000</ele>
        <time>2010-03-07T14:03:19Z</time>
      </trkpt>
      <trkpt lat="43.9351082" lon="8.0849219">
        <ele>208.5000000</ele>
        <time>2010-03-07T14:03:22Z</time>
      </trkpt>
      <trkpt lat="43.9350815" lon="8.0851650">
        <ele>205.9000000</ele>
        <time>2010-03-07T14:03:25Z</time>
      </trkpt>
      <trkpt lat="43.9349442" lon="8.0855798">
        <ele>203.0000000</ele>
        <time>2010-03-07T14:03:30Z</time>
      </trkpt>
      <trkpt lat="43.9348755" lon="8.0857391">
        <ele>203.0000000</ele>
        <time>2010-03-07T14:03:32Z</time>
      </trkpt>
      <trkpt lat="43.9347687" lon="8.0860796">
        <ele>201.2000000</ele>
        <time>2010-03-07T14:03:36Z</time>
      </trkpt>
      <trkpt lat="43.9346428" lon="8.0864325">
        <ele>198.3000000</ele>
        <time>2010-03-07T14:03:40Z</time>
      </trkpt>
      <trkpt lat="43.9345894" lon="8.0867233">
        <ele>195.3000000</ele>
        <time>2010-03-07T14:03:44Z</time>
      </trkpt>
      <trkpt lat="43.9345665" lon="8.0869608">
        <ele>191.9000000</ele>
        <time>2010-03-07T14:03:48Z</time>
      </trkpt>
      <trkpt lat="43.9345665" lon="8.0871982">
        <ele>188.4000000</ele>
        <time>2010-03-07T14:03:51Z</time>
      </trkpt>
      <trkpt lat="43.9345017" lon="8.0875130">
        <ele>183.9000000</ele>
        <time>2010-03-07T14:03:55Z</time>
      </trkpt>
      <trkpt lat="43.9344558" lon="8.0876694">
        <ele>181.2000000</ele>
        <time>2010-03-07T14:03:57Z</time>
      </trkpt>
      <trkpt lat="43.9342918" lon="8.0879297">
        <ele>177.8000000</ele>
        <time>2010-03-07T14:04:01Z</time>
      </trkpt>
      <trkpt lat="43.9341545" lon="8.0881214">
        <ele>173.8000000</ele>
        <time>2010-03-07T14:04:04Z</time>
      </trkpt>
      <trkpt lat="43.9340172" lon="8.0882988">
        <ele>170.4000000</ele>
        <time>2010-03-07T14:04:07Z</time>
      </trkpt>
      <trkpt lat="43.9340096" lon="8.0885830">
        <ele>167.1000000</ele>
        <time>2010-03-07T14:04:10Z</time>
      </trkpt>
      <trkpt lat="43.9339866" lon="8.0891971">
        <ele>159.8000000</ele>
        <time>2010-03-07T14:04:16Z</time>
      </trkpt>
      <trkpt lat="43.9338684" lon="8.0895882">
        <ele>155.6000000</ele>
        <time>2010-03-07T14:04:20Z</time>
      </trkpt>
      <trkpt lat="43.9337349" lon="8.0898266">
        <ele>151.1000000</ele>
        <time>2010-03-07T14:04:23Z</time>
      </trkpt>
      <trkpt lat="43.9336280" lon="8.0901699">
        <ele>145.3000000</ele>
        <time>2010-03-07T14:04:27Z</time>
      </trkpt>
      <trkpt lat="43.9335213" lon="8.0904503">
        <ele>140.8000000</ele>
        <time>2010-03-07T14:04:31Z</time>
      </trkpt>
      <trkpt lat="43.9334640" lon="8.0908251">
        <ele>137.2000000</ele>
        <time>2010-03-07T14:04:35Z</time>
      </trkpt>
      <trkpt lat="43.9334374" lon="8.0909061">
        <ele>136.3000000</ele>
        <time>2010-03-07T14:04:36Z</time>
      </trkpt>
      <trkpt lat="43.9332047" lon="8.0912819">
        <ele>136.6000000</ele>
        <time>2010-03-07T14:04:42Z</time>
      </trkpt>
      <trkpt lat="43.9330864" lon="8.0914869">
        <ele>139.0000000</ele>
        <time>2010-03-07T14:04:47Z</time>
      </trkpt>
      <trkpt lat="43.9330788" lon="8.0915222">
        <ele>139.2000000</ele>
        <time>2010-03-07T14:04:48Z</time>
      </trkpt>
      <trkpt lat="43.9330444" lon="8.0917301">
        <ele>141.2000000</ele>
        <time>2010-03-07T14:04:54Z</time>
      </trkpt>
      <trkpt lat="43.9329834" lon="8.0918398">
        <ele>141.7000000</ele>
        <time>2010-03-07T14:04:58Z</time>
      </trkpt>
      <trkpt lat="43.9328499" lon="8.0920219">
        <ele>142.3000000</ele>
        <time>2010-03-07T14:05:05Z</time>
      </trkpt>
      <trkpt lat="43.9327126" lon="8.0920534">
        <ele>141.7000000</ele>
        <time>2010-03-07T14:05:09Z</time>
      </trkpt>
      <trkpt lat="43.9325485" lon="8.0921030">
        <ele>140.5000000</ele>
        <time>2010-03-07T14:05:13Z</time>
      </trkpt>
      <trkpt lat="43.9324494" lon="8.0921021">
        <ele>140.3000000</ele>
        <time>2010-03-07T14:05:16Z</time>
      </trkpt>
      <trkpt lat="43.9323540" lon="8.0921068">
        <ele>139.6000000</ele>
        <time>2010-03-07T14:05:18Z</time>
      </trkpt>
      <trkpt lat="43.9321251" lon="8.0921717">
        <ele>138.6000000</ele>
        <time>2010-03-07T14:05:23Z</time>
      </trkpt>
      <trkpt lat="43.9319687" lon="8.0923071">
        <ele>137.9000000</ele>
        <time>2010-03-07T14:05:27Z</time>
      </trkpt>
      <trkpt lat="43.9318009" lon="8.0924321">
        <ele>137.6000000</ele>
        <time>2010-03-07T14:05:31Z</time>
      </trkpt>
      <trkpt lat="43.9317093" lon="8.0924521">
        <ele>137.7000000</ele>
        <time>2010-03-07T14:05:33Z</time>
      </trkpt>
      <trkpt lat="43.9314003" lon="8.0925656">
        <ele>138.9000000</ele>
        <time>2010-03-07T14:05:41Z</time>
      </trkpt>
      <trkpt lat="43.9311714" lon="8.0925979">
        <ele>139.3000000</ele>
        <time>2010-03-07T14:05:47Z</time>
      </trkpt>
      <trkpt lat="43.9309235" lon="8.0926399">
        <ele>140.1000000</ele>
        <time>2010-03-07T14:05:53Z</time>
      </trkpt>
      <trkpt lat="43.9308586" lon="8.0926752">
        <ele>140.3000000</ele>
        <time>2010-03-07T14:05:55Z</time>
      </trkpt>
      <trkpt lat="43.9307251" lon="8.0927048">
        <ele>140.4000000</ele>
        <time>2010-03-07T14:06:01Z</time>
      </trkpt>
      <trkpt lat="43.9306984" lon="8.0927229">
        <ele>140.5000000</ele>
        <time>2010-03-07T14:06:02Z</time>
      </trkpt>
      <trkpt lat="43.9305572" lon="8.0927439">
        <ele>141.1000000</ele>
        <time>2010-03-07T14:06:08Z</time>
      </trkpt>
      <trkpt lat="43.9304200" lon="8.0927687">
        <ele>141.4000000</ele>
        <time>2010-03-07T14:06:13Z</time>
      </trkpt>
      <trkpt lat="43.9302292" lon="8.0927839">
        <ele>141.0000000</ele>
        <time>2010-03-07T14:06:18Z</time>
      </trkpt>
      <trkpt lat="43.9300766" lon="8.0929155">
        <ele>141.2000000</ele>
        <time>2010-03-07T14:06:23Z</time>
      </trkpt>
      <trkpt lat="43.9300118" lon="8.0929565">
        <ele>141.1000000</ele>
        <time>2010-03-07T14:06:25Z</time>
      </trkpt>
      <trkpt lat="43.9299355" lon="8.0930138">
        <ele>140.6000000</ele>
        <time>2010-03-07T14:06:27Z</time>
      </trkpt>
      <trkpt lat="43.9296074" lon="8.0931578">
        <ele>137.1000000</ele>
        <time>2010-03-07T14:06:33Z</time>
      </trkpt>
      <trkpt lat="43.9294205" lon="8.0933323">
        <ele>134.4000000</ele>
        <time>2010-03-07T14:06:37Z</time>
      </trkpt>
      <trkpt lat="43.9293938" lon="8.0934067">
        <ele>134.0000000</ele>
        <time>2010-03-07T14:06:38Z</time>
      </trkpt>
      <trkpt lat="43.9291954" lon="8.0937529">
        <ele>131.0000000</ele>
        <time>2010-03-07T14:06:43Z</time>
      </trkpt>
      <trkpt lat="43.9291115" lon="8.0939178">
        <ele>130.1000000</ele>
        <time>2010-03-07T14:06:46Z</time>
      </trkpt>
      <trkpt lat="43.9289818" lon="8.0940771">
        <ele>127.9000000</ele>
        <time>2010-03-07T14:06:50Z</time>
      </trkpt>
      <trkpt lat="43.9287834" lon="8.0941210">
        <ele>124.0000000</ele>
        <time>2010-03-07T14:06:55Z</time>
      </trkpt>
      <trkpt lat="43.9286270" lon="8.0941267">
        <ele>121.7000000</ele>
        <time>2010-03-07T14:06:59Z</time>
      </trkpt>
      <trkpt lat="43.9283943" lon="8.0941629">
        <ele>118.7000000</ele>
        <time>2010-03-07T14:07:03Z</time>
      </trkpt>
      <trkpt lat="43.9282303" lon="8.0942803">
        <ele>116.6000000</ele>
        <time>2010-03-07T14:07:06Z</time>
      </trkpt>
      <trkpt lat="43.9279709" lon="8.0945310">
        <ele>112.9000000</ele>
        <time>2010-03-07T14:07:10Z</time>
      </trkpt>
      <trkpt lat="43.9277382" lon="8.0946779">
        <ele>110.4000000</ele>
        <time>2010-03-07T14:07:13Z</time>
      </trkpt>
      <trkpt lat="43.9274254" lon="8.0949373">
        <ele>104.8000000</ele>
        <time>2010-03-07T14:07:17Z</time>
      </trkpt>
      <trkpt lat="43.9270935" lon="8.0951023">
        <ele>99.8000000</ele>
        <time>2010-03-07T14:07:21Z</time>
      </trkpt>
      <trkpt lat="43.9266319" lon="8.0952769">
        <ele>92.1000000</ele>
        <time>2010-03-07T14:07:26Z</time>
      </trkpt>
      <trkpt lat="43.9264526" lon="8.0951843">
        <ele>88.0000000</ele>
        <time>2010-03-07T14:07:29Z</time>
      </trkpt>
      <trkpt lat="43.9263267" lon="8.0950957">
        <ele>84.8000000</ele>
        <time>2010-03-07T14:07:32Z</time>
      </trkpt>
      <trkpt lat="43.9261360" lon="8.0949841">
        <ele>80.7000000</ele>
        <time>2010-03-07T14:07:36Z</time>
      </trkpt>
      <trkpt lat="43.9260483" lon="8.0948763">
        <ele>77.4000000</ele>
        <time>2010-03-07T14:07:39Z</time>
      </trkpt>
      <trkpt lat="43.9258156" lon="8.0947609">
        <ele>72.2000000</ele>
        <time>2010-03-07T14:07:44Z</time>
      </trkpt>
      <trkpt lat="43.9256973" lon="8.0948277">
        <ele>70.1000000</ele>
        <time>2010-03-07T14:07:47Z</time>
      </trkpt>
      <trkpt lat="43.9256134" lon="8.0947351">
        <ele>66.0000000</ele>
        <time>2010-03-07T14:07:51Z</time>
      </trkpt>
      <trkpt lat="43.9255714" lon="8.0946378">
        <ele>62.7000000</ele>
        <time>2010-03-07T14:07:54Z</time>
      </trkpt>
      <trkpt lat="43.9254875" lon="8.0946131">
        <ele>61.1000000</ele>
        <time>2010-03-07T14:07:56Z</time>
      </trkpt>
      <trkpt lat="43.9252891" lon="8.0945044">
        <ele>52.3000000</ele>
        <time>2010-03-07T14:08:02Z</time>
      </trkpt>
      <trkpt lat="43.9252510" lon="8.0945034">
        <ele>51.6000000</ele>
        <time>2010-03-07T14:08:03Z</time>
      </trkpt>
      <trkpt lat="43.9252090" lon="8.0945683">
        <ele>50.8000000</ele>
        <time>2010-03-07T14:08:05Z</time>
      </trkpt>
      <trkpt lat="43.9251480" lon="8.0947066">
        <ele>51.1000000</ele>
        <time>2010-03-07T14:08:08Z</time>
      </trkpt>
      <trkpt lat="43.9249687" lon="8.0948086">
        <ele>49.3000000</ele>
        <time>2010-03-07T14:08:12Z</time>
      </trkpt>
      <trkpt lat="43.9249268" lon="8.0949259">
        <ele>48.3000000</ele>
        <time>2010-03-07T14:08:14Z</time>
      </trkpt>
      <trkpt lat="43.9249153" lon="8.0950022">
        <ele>47.6000000</ele>
        <time>2010-03-07T14:08:15Z</time>
      </trkpt>
      <trkpt lat="43.9248504" lon="8.0952397">
        <ele>48.5000000</ele>
        <time>2010-03-07T14:08:19Z</time>
      </trkpt>
      <trkpt lat="43.9248009" lon="8.0953131">
        <ele>49.4000000</ele>
        <time>2010-03-07T14:08:21Z</time>
      </trkpt>
      <trkpt lat="43.9247513" lon="8.0953760">
        <ele>50.7000000</ele>
        <time>2010-03-07T14:08:23Z</time>
      </trkpt>
      <trkpt lat="43.9246979" lon="8.0956106">
        <ele>51.1000000</ele>
        <time>2010-03-07T14:08:29Z</time>
      </trkpt>
      <trkpt lat="43.9247131" lon="8.0957976">
        <ele>50.9000000</ele>
        <time>2010-03-07T14:08:34Z</time>
      </trkpt>
      <trkpt lat="43.9247246" lon="8.0958242">
        <ele>51.7000000</ele>
        <time>2010-03-07T14:08:38Z</time>
      </trkpt>
      <trkpt lat="43.9247360" lon="8.0958385">
        <ele>51.9000000</ele>
        <time>2010-03-07T14:08:40Z</time>
      </trkpt>
      <trkpt lat="43.9247742" lon="8.0958462">
        <ele>52.6000000</ele>
        <time>2010-03-07T14:08:48Z</time>
      </trkpt>
      <trkpt lat="43.9248047" lon="8.0958328">
        <ele>53.6000000</ele>
        <time>2010-03-07T14:08:56Z</time>
      </trkpt>
      <trkpt lat="43.9248390" lon="8.0958300">
        <ele>54.8000000</ele>
        <time>2010-03-07T14:09:04Z</time>
      </trkpt>
      <trkpt lat="43.9248581" lon="8.0958405">
        <ele>55.6000000</ele>
        <time>2010-03-07T14:09:10Z</time>
      </trkpt>
      <trkpt lat="43.9248733" lon="8.0958671">
        <ele>56.1000000</ele>
        <time>2010-03-07T14:09:16Z</time>
      </trkpt>
      <trkpt lat="43.9248963" lon="8.0958976">
        <ele>57.7000000</ele>
        <time>2010-03-07T14:09:24Z</time>
      </trkpt>
      <trkpt lat="43.9249153" lon="8.0959272">
        <ele>57.4000000</ele>
        <time>2010-03-07T14:09:42Z</time>
      </trkpt>
      <trkpt lat="43.9249458" lon="8.0959616">
        <ele>57.1000000</ele>
        <time>2010-03-07T14:09:50Z</time>
      </trkpt>
      <trkpt lat="43.9250068" lon="8.0961256">
        <ele>56.2000000</ele>
        <time>2010-03-07T14:09:55Z</time>
      </trkpt>
      <trkpt lat="43.9250641" lon="8.0962143">
        <ele>55.5000000</ele>
        <time>2010-03-07T14:09:57Z</time>
      </trkpt>
      <trkpt lat="43.9253540" lon="8.0965166">
        <ele>51.6000000</ele>
        <time>2010-03-07T14:10:03Z</time>
      </trkpt>
      <trkpt lat="43.9256363" lon="8.0967378">
        <ele>47.1000000</ele>
        <time>2010-03-07T14:10:07Z</time>
      </trkpt>
      <trkpt lat="43.9262047" lon="8.0969324">
        <ele>38.8000000</ele>
        <time>2010-03-07T14:10:14Z</time>
      </trkpt>
      <trkpt lat="43.9263725" lon="8.0969744">
        <ele>37.4000000</ele>
        <time>2010-03-07T14:10:16Z</time>
      </trkpt>
      <trkpt lat="43.9266663" lon="8.0971641">
        <ele>34.6000000</ele>
        <time>2010-03-07T14:10:20Z</time>
      </trkpt>
      <trkpt lat="43.9267158" lon="8.0973415">
        <ele>33.5000000</ele>
        <time>2010-03-07T14:10:22Z</time>
      </trkpt>
      <trkpt lat="43.9267235" lon="8.0974407">
        <ele>33.0000000</ele>
        <time>2010-03-07T14:10:23Z</time>
      </trkpt>
      <trkpt lat="43.9267387" lon="8.0976438">
        <ele>31.4000000</ele>
        <time>2010-03-07T14:10:25Z</time>
      </trkpt>
      <trkpt lat="43.9266739" lon="8.0978270">
        <ele>29.1000000</ele>
        <time>2010-03-07T14:10:28Z</time>
      </trkpt>
      <trkpt lat="43.9266167" lon="8.0978489">
        <ele>27.8000000</ele>
        <time>2010-03-07T14:10:29Z</time>
      </trkpt>
      <trkpt lat="43.9261742" lon="8.0980110">
        <ele>20.7000000</ele>
        <time>2010-03-07T14:10:34Z</time>
      </trkpt>
      <trkpt lat="43.9258995" lon="8.0981627">
        <ele>17.4000000</ele>
        <time>2010-03-07T14:10:37Z</time>
      </trkpt>
      <trkpt lat="43.9257087" lon="8.0984249">
        <ele>14.3000000</ele>
        <time>2010-03-07T14:10:41Z</time>
      </trkpt>
      <trkpt lat="43.9255982" lon="8.0985947">
        <ele>13.3000000</ele>
        <time>2010-03-07T14:10:44Z</time>
      </trkpt>
      <trkpt lat="43.9252014" lon="8.0987797">
        <ele>10.2000000</ele>
        <time>2010-03-07T14:10:51Z</time>
      </trkpt>
      <trkpt lat="43.9251366" lon="8.0988121">
        <ele>9.8000000</ele>
        <time>2010-03-07T14:10:52Z</time>
      </trkpt>
      <trkpt lat="43.9249458" lon="8.0988254">
        <ele>8.6000000</ele>
        <time>2010-03-07T14:10:55Z</time>
      </trkpt>
      <trkpt lat="43.9246864" lon="8.0988894">
        <ele>7.1000000</ele>
        <time>2010-03-07T14:10:59Z</time>
      </trkpt>
      <trkpt lat="43.9245338" lon="8.0990581">
        <ele>6.1000000</ele>
        <time>2010-03-07T14:11:03Z</time>
      </trkpt>
      <trkpt lat="43.9245147" lon="8.0991812">
        <ele>5.5000000</ele>
        <time>2010-03-07T14:11:05Z</time>
      </trkpt>
      <trkpt lat="43.9245262" lon="8.0995007">
        <ele>5.6000000</ele>
        <time>2010-03-07T14:11:11Z</time>
      </trkpt>
      <trkpt lat="43.9245911" lon="8.0998249">
        <ele>5.7000000</ele>
        <time>2010-03-07T14:11:18Z</time>
      </trkpt>
      <trkpt lat="43.9246864" lon="8.1001568">
        <ele>5.5000000</ele>
        <time>2010-03-07T14:11:25Z</time>
      </trkpt>
      <trkpt lat="43.9248085" lon="8.1005049">
        <ele>4.7000000</ele>
        <time>2010-03-07T14:11:33Z</time>
      </trkpt>
      <trkpt lat="43.9249229" lon="8.1007938">
        <ele>5.5000000</ele>
        <time>2010-03-07T14:11:40Z</time>
      </trkpt>
      <trkpt lat="43.9250565" lon="8.1010227">
        <ele>4.2000000</ele>
        <time>2010-03-07T14:11:46Z</time>
      </trkpt>
      <trkpt lat="43.9252205" lon="8.1013346">
        <ele>3.3000000</ele>
        <time>2010-03-07T14:11:54Z</time>
      </trkpt>
      <trkpt lat="43.9253502" lon="8.1016178">
        <ele>1.8000000</ele>
        <time>2010-03-07T14:12:01Z</time>
      </trkpt>
      <trkpt lat="43.9253616" lon="8.1016989">
        <ele>1.6000000</ele>
        <time>2010-03-07T14:12:03Z</time>
      </trkpt>
      <trkpt lat="43.9252777" lon="8.1017485">
        <ele>1.8000000</ele>
        <time>2010-03-07T14:12:07Z</time>
      </trkpt>
      <trkpt lat="43.9252434" lon="8.1017513">
        <ele>1.7000000</ele>
        <time>2010-03-07T14:12:08Z</time>
      </trkpt>
      <trkpt lat="43.9249878" lon="8.1018038">
        <ele>1.0000000</ele>
        <time>2010-03-07T14:12:15Z</time>
      </trkpt>
      <trkpt lat="43.9247322" lon="8.1019163">
        <ele>0.4000000</ele>
        <time>2010-03-07T14:12:22Z</time>
      </trkpt>
      <trkpt lat="43.9244347" lon="8.1020918">
        <ele>-1.7000000</ele>
        <time>2010-03-07T14:12:31Z</time>
      </trkpt>
      <trkpt lat="43.9240799" lon="8.1022787">
        <ele>-2.4000000</ele>
        <time>2010-03-07T14:12:41Z</time>
      </trkpt>
      <trkpt lat="43.9236908" lon="8.1024714">
        <ele>-3.3000000</ele>
        <time>2010-03-07T14:12:51Z</time>
      </trkpt>
      <trkpt lat="43.9232865" lon="8.1026793">
        <ele>-4.3000000</ele>
        <time>2010-03-07T14:13:01Z</time>
      </trkpt>
      <trkpt lat="43.9229355" lon="8.1028529">
        <ele>-5.6000000</ele>
        <time>2010-03-07T14:13:10Z</time>
      </trkpt>
      <trkpt lat="43.9225731" lon="8.1030731">
        <ele>-6.4000000</ele>
        <time>2010-03-07T14:13:18Z</time>
      </trkpt>
      <trkpt lat="43.9225388" lon="8.1030798">
        <ele>-6.6000000</ele>
        <time>2010-03-07T14:13:19Z</time>
      </trkpt>
      <trkpt lat="43.9223290" lon="8.1031523">
        <ele>-7.0000000</ele>
        <time>2010-03-07T14:13:24Z</time>
      </trkpt>
      <trkpt lat="43.9220848" lon="8.1032801">
        <ele>-7.0000000</ele>
        <time>2010-03-07T14:13:31Z</time>
      </trkpt>
      <trkpt lat="43.9219818" lon="8.1032906">
        <ele>-7.2000000</ele>
        <time>2010-03-07T14:13:36Z</time>
      </trkpt>
      <trkpt lat="43.9218750" lon="8.1031980">
        <ele>-6.7000000</ele>
        <time>2010-03-07T14:13:41Z</time>
      </trkpt>
      <trkpt lat="43.9217796" lon="8.1029377">
        <ele>-6.2000000</ele>
        <time>2010-03-07T14:13:47Z</time>
      </trkpt>
      <trkpt lat="43.9216232" lon="8.1026878">
        <ele>-5.5000000</ele>
        <time>2010-03-07T14:13:54Z</time>
      </trkpt>
      <trkpt lat="43.9214936" lon="8.1027041">
        <ele>-6.1000000</ele>
        <time>2010-03-07T14:13:58Z</time>
      </trkpt>
      <trkpt lat="43.9212532" lon="8.1027679">
        <ele>-5.8000000</ele>
        <time>2010-03-07T14:14:05Z</time>
      </trkpt>
      <trkpt lat="43.9209098" lon="8.1029082">
        <ele>-6.7000000</ele>
        <time>2010-03-07T14:14:15Z</time>
      </trkpt>
      <trkpt lat="43.9206848" lon="8.1029816">
        <ele>-7.4000000</ele>
        <time>2010-03-07T14:14:23Z</time>
      </trkpt>
      <trkpt lat="43.9205818" lon="8.1030502">
        <ele>-6.8000000</ele>
        <time>2010-03-07T14:14:29Z</time>
      </trkpt>
      <trkpt lat="43.9205170" lon="8.1030865">
        <ele>-5.9000000</ele>
        <time>2010-03-07T14:14:35Z</time>
      </trkpt>
      <trkpt lat="43.9204865" lon="8.1030989">
        <ele>-6.3000000</ele>
        <time>2010-03-07T14:14:40Z</time>
      </trkpt>
      <trkpt lat="43.9204483" lon="8.1031132">
        <ele>-6.8000000</ele>
        <time>2010-03-07T14:14:45Z</time>
      </trkpt>
      <trkpt lat="43.9204063" lon="8.1031370">
        <ele>-6.8000000</ele>
        <time>2010-03-07T14:14:52Z</time>
      </trkpt>
      <trkpt lat="43.9204140" lon="8.1031542">
        <ele>-6.4000000</ele>
        <time>2010-03-07T14:15:19Z</time>
      </trkpt>
      <trkpt lat="43.9204140" lon="8.1031513">
        <ele>-6.4000000</ele>
        <time>2010-03-07T14:15:23Z</time>
      </trkpt>
      <trkpt lat="43.9204216" lon="8.1031466">
        <ele>-6.5000000</ele>
        <time>2010-03-07T14:15:42Z</time>
      </trkpt>
      <trkpt lat="43.9204178" lon="8.1031456">
        <ele>-6.5000000</ele>
        <time>2010-03-07T14:15:49Z</time>
      </trkpt>
      <trkpt lat="43.9203872" lon="8.1031580">
        <ele>-6.7000000</ele>
        <time>2010-03-07T14:15:54Z</time>
      </trkpt>
      <trkpt lat="43.9203530" lon="8.1030941">
        <ele>-7.0000000</ele>
        <time>2010-03-07T14:16:01Z</time>
      </trkpt>
      <trkpt lat="43.9203567" lon="8.1030836">
        <ele>-6.9000000</ele>
        <time>2010-03-07T14:16:02Z</time>
      </trkpt>
      <trkpt lat="43.9204025" lon="8.1030416">
        <ele>-6.6000000</ele>
        <time>2010-03-07T14:16:08Z</time>
      </trkpt>
      <trkpt lat="43.9204521" lon="8.1030063">
        <ele>-6.8000000</ele>
        <time>2010-03-07T14:16:14Z</time>
      </trkpt>
      <trkpt lat="43.9204597" lon="8.1029834">
        <ele>-6.1000000</ele>
        <time>2010-03-07T14:16:19Z</time>
      </trkpt>
      <trkpt lat="43.9204597" lon="8.1029834">
        <ele>-6.0000000</ele>
        <time>2010-03-07T14:16:21Z</time>
      </trkpt>
    </trkseg>
  </trk>

  <trk>
    <name>PS_1</name>
    <extensions>
      <gpxx:TrackExtension xmlns:gpxx="http://www.garmin.com/xmlschemas/GpxExtensions/v3">
        <gpxx:DisplayColor>Red</gpxx:DisplayColor>
      </gpxx:TrackExtension>
    </extensions>
    <trkseg>
      <trkpt lat="43.9431763" lon="8.1225987">
        <ele>346.8000000</ele>
        <time>2010-03-07T10:32:52Z</time>
      </trkpt>
      <trkpt lat="43.9431724" lon="8.1225987">
        <ele>346.9000000</ele>
        <time>2010-03-07T10:33:00Z</time>
      </trkpt>
      <trkpt lat="43.9430351" lon="8.1226721">
        <ele>347.3000000</ele>
        <time>2010-03-07T10:33:05Z</time>
      </trkpt>
      <trkpt lat="43.9429589" lon="8.1226940">
        <ele>346.9000000</ele>
        <time>2010-03-07T10:33:06Z</time>
      </trkpt>
      <trkpt lat="43.9426308" lon="8.1227341">
        <ele>344.6000000</ele>
        <time>2010-03-07T10:33:10Z</time>
      </trkpt>
      <trkpt lat="43.9425468" lon="8.1227331">
        <ele>344.7000000</ele>
        <time>2010-03-07T10:33:11Z</time>
      </trkpt>
      <trkpt lat="43.9422798" lon="8.1226874">
        <ele>342.8000000</ele>
        <time>2010-03-07T10:33:14Z</time>
      </trkpt>
      <trkpt lat="43.9420052" lon="8.1226187">
        <ele>339.4000000</ele>
        <time>2010-03-07T10:33:17Z</time>
      </trkpt>
      <trkpt lat="43.9416924" lon="8.1226702">
        <ele>331.2000000</ele>
        <time>2010-03-07T10:33:21Z</time>
      </trkpt>
      <trkpt lat="43.9414063" lon="8.1227188">
        <ele>324.0000000</ele>
        <time>2010-03-07T10:33:25Z</time>
      </trkpt>
      <trkpt lat="43.9410515" lon="8.1228752">
        <ele>318.6000000</ele>
        <time>2010-03-07T10:33:29Z</time>
      </trkpt>
      <trkpt lat="43.9409599" lon="8.1228876">
        <ele>316.6000000</ele>
        <time>2010-03-07T10:33:30Z</time>
      </trkpt>
      <trkpt lat="43.9407844" lon="8.1228600">
        <ele>313.7000000</ele>
        <time>2010-03-07T10:33:32Z</time>
      </trkpt>
      <trkpt lat="43.9404564" lon="8.1230107">
        <ele>311.2000000</ele>
        <time>2010-03-07T10:33:36Z</time>
      </trkpt>
      <trkpt lat="43.9400902" lon="8.1232109">
        <ele>312.1000000</ele>
        <time>2010-03-07T10:33:41Z</time>
      </trkpt>
      <trkpt lat="43.9400291" lon="8.1232510">
        <ele>312.9000000</ele>
        <time>2010-03-07T10:33:42Z</time>
      </trkpt>
      <trkpt lat="43.9397773" lon="8.1233082">
        <ele>316.1000000</ele>
        <time>2010-03-07T10:33:47Z</time>
      </trkpt>
      <trkpt lat="43.9396897" lon="8.1233120">
        <ele>316.3000000</ele>
        <time>2010-03-07T10:33:49Z</time>
      </trkpt>
      <trkpt lat="43.9394875" lon="8.1233301">
        <ele>318.2000000</ele>
        <time>2010-03-07T10:33:54Z</time>
      </trkpt>
      <trkpt lat="43.9394264" lon="8.1232118">
        <ele>317.6000000</ele>
        <time>2010-03-07T10:33:57Z</time>
      </trkpt>
      <trkpt lat="43.9393463" lon="8.1231594">
        <ele>315.7000000</ele>
        <time>2010-03-07T10:34:00Z</time>
      </trkpt>
      <trkpt lat="43.9392852" lon="8.1231671">
        <ele>316.0000000</ele>
        <time>2010-03-07T10:34:02Z</time>
      </trkpt>
      <trkpt lat="43.9391518" lon="8.1231432">
        <ele>315.7000000</ele>
        <time>2010-03-07T10:34:05Z</time>
      </trkpt>
      <trkpt lat="43.9389381" lon="8.1232233">
        <ele>315.0000000</ele>
        <time>2010-03-07T10:34:09Z</time>
      </trkpt>
      <trkpt lat="43.9388962" lon="8.1232625">
        <ele>315.4000000</ele>
        <time>2010-03-07T10:34:10Z</time>
      </trkpt>
      <trkpt lat="43.9387589" lon="8.1233549">
        <ele>316.2000000</ele>
        <time>2010-03-07T10:34:13Z</time>
      </trkpt>
      <trkpt lat="43.9385948" lon="8.1235638">
        <ele>315.4000000</ele>
        <time>2010-03-07T10:34:18Z</time>
      </trkpt>
      <trkpt lat="43.9384652" lon="8.1238241">
        <ele>311.8000000</ele>
        <time>2010-03-07T10:34:23Z</time>
      </trkpt>
      <trkpt lat="43.9384499" lon="8.1237431">
        <ele>309.7000000</ele>
        <time>2010-03-07T10:34:25Z</time>
      </trkpt>
      <trkpt lat="43.9384575" lon="8.1237049">
        <ele>308.8000000</ele>
        <time>2010-03-07T10:34:26Z</time>
      </trkpt>
      <trkpt lat="43.9384766" lon="8.1236200">
        <ele>308.8000000</ele>
        <time>2010-03-07T10:34:28Z</time>
      </trkpt>
      <trkpt lat="43.9384117" lon="8.1234541">
        <ele>306.7000000</ele>
        <time>2010-03-07T10:34:32Z</time>
      </trkpt>
      <trkpt lat="43.9383393" lon="8.1235609">
        <ele>305.1000000</ele>
        <time>2010-03-07T10:34:35Z</time>
      </trkpt>
      <trkpt lat="43.9382248" lon="8.1236906">
        <ele>303.5000000</ele>
        <time>2010-03-07T10:34:38Z</time>
      </trkpt>
      <trkpt lat="43.9380875" lon="8.1238823">
        <ele>300.2000000</ele>
        <time>2010-03-07T10:34:42Z</time>
      </trkpt>
      <trkpt lat="43.9379807" lon="8.1240855">
        <ele>299.0000000</ele>
        <time>2010-03-07T10:34:46Z</time>
      </trkpt>
      <trkpt lat="43.9379158" lon="8.1241970">
        <ele>296.4000000</ele>
        <time>2010-03-07T10:34:48Z</time>
      </trkpt>
      <trkpt lat="43.9379006" lon="8.1244888">
        <ele>293.2000000</ele>
        <time>2010-03-07T10:34:52Z</time>
      </trkpt>
      <trkpt lat="43.9378090" lon="8.1246051">
        <ele>292.3000000</ele>
        <time>2010-03-07T10:34:55Z</time>
      </trkpt>
      <trkpt lat="43.9376259" lon="8.1246434">
        <ele>287.0000000</ele>
        <time>2010-03-07T10:34:59Z</time>
      </trkpt>
      <trkpt lat="43.9375381" lon="8.1248522">
        <ele>283.6000000</ele>
        <time>2010-03-07T10:35:02Z</time>
      </trkpt>
      <trkpt lat="43.9374313" lon="8.1248321">
        <ele>282.2000000</ele>
        <time>2010-03-07T10:35:05Z</time>
      </trkpt>
      <trkpt lat="43.9373893" lon="8.1248417">
        <ele>282.1000000</ele>
        <time>2010-03-07T10:35:06Z</time>
      </trkpt>
      <trkpt lat="43.9371605" lon="8.1250944">
        <ele>279.7000000</ele>
        <time>2010-03-07T10:35:11Z</time>
      </trkpt>
      <trkpt lat="43.9369774" lon="8.1252070">
        <ele>276.9000000</ele>
        <time>2010-03-07T10:35:15Z</time>
      </trkpt>
      <trkpt lat="43.9368896" lon="8.1252375">
        <ele>275.9000000</ele>
        <time>2010-03-07T10:35:17Z</time>
      </trkpt>
      <trkpt lat="43.9368744" lon="8.1252909">
        <ele>275.5000000</ele>
        <time>2010-03-07T10:35:18Z</time>
      </trkpt>
      <trkpt lat="43.9368324" lon="8.1254301">
        <ele>274.9000000</ele>
        <time>2010-03-07T10:35:20Z</time>
      </trkpt>
      <trkpt lat="43.9367905" lon="8.1257209">
        <ele>271.6000000</ele>
        <time>2010-03-07T10:35:24Z</time>
      </trkpt>
      <trkpt lat="43.9366798" lon="8.1258020">
        <ele>266.7000000</ele>
        <time>2010-03-07T10:35:27Z</time>
      </trkpt>
      <trkpt lat="43.9366303" lon="8.1257867">
        <ele>266.4000000</ele>
        <time>2010-03-07T10:35:28Z</time>
      </trkpt>
      <trkpt lat="43.9364662" lon="8.1258821">
        <ele>261.4000000</ele>
        <time>2010-03-07T10:35:32Z</time>
      </trkpt>
      <trkpt lat="43.9362221" lon="8.1260071">
        <ele>249.6000000</ele>
        <time>2010-03-07T10:35:38Z</time>
      </trkpt>
      <trkpt lat="43.9362946" lon="8.1261997">
        <ele>244.6000000</ele>
        <time>2010-03-07T10:35:42Z</time>
      </trkpt>
      <trkpt lat="43.9363175" lon="8.1262512">
        <ele>243.9000000</ele>
        <time>2010-03-07T10:35:43Z</time>
      </trkpt>
      <trkpt lat="43.9362144" lon="8.1262751">
        <ele>240.1000000</ele>
        <time>2010-03-07T10:35:47Z</time>
      </trkpt>
      <trkpt lat="43.9361077" lon="8.1262235">
        <ele>235.2000000</ele>
        <time>2010-03-07T10:35:51Z</time>
      </trkpt>
      <trkpt lat="43.9359627" lon="8.1261206">
        <ele>230.2000000</ele>
        <time>2010-03-07T10:35:54Z</time>
      </trkpt>
      <trkpt lat="43.9358291" lon="8.1260738">
        <ele>228.0000000</ele>
        <time>2010-03-07T10:35:57Z</time>
      </trkpt>
      <trkpt lat="43.9356537" lon="8.1260357">
        <ele>226.7000000</ele>
        <time>2010-03-07T10:36:00Z</time>
      </trkpt>
      <trkpt lat="43.9355163" lon="8.1260281">
        <ele>225.7000000</ele>
        <time>2010-03-07T10:36:02Z</time>
      </trkpt>
      <trkpt lat="43.9352989" lon="8.1260157">
        <ele>224.2000000</ele>
        <time>2010-03-07T10:36:05Z</time>
      </trkpt>
      <trkpt lat="43.9350967" lon="8.1260128">
        <ele>222.8000000</ele>
        <time>2010-03-07T10:36:08Z</time>
      </trkpt>
      <trkpt lat="43.9350319" lon="8.1260214">
        <ele>222.1000000</ele>
        <time>2010-03-07T10:36:09Z</time>
      </trkpt>
      <trkpt lat="43.9347954" lon="8.1260967">
        <ele>220.0000000</ele>
        <time>2010-03-07T10:36:13Z</time>
      </trkpt>
      <trkpt lat="43.9347153" lon="8.1261463">
        <ele>218.6000000</ele>
        <time>2010-03-07T10:36:15Z</time>
      </trkpt>
      <trkpt lat="43.9343834" lon="8.1262674">
        <ele>214.8000000</ele>
        <time>2010-03-07T10:36:20Z</time>
      </trkpt>
      <trkpt lat="43.9340554" lon="8.1266136">
        <ele>211.1000000</ele>
        <time>2010-03-07T10:36:26Z</time>
      </trkpt>
      <trkpt lat="43.9339295" lon="8.1265850">
        <ele>209.6000000</ele>
        <time>2010-03-07T10:36:28Z</time>
      </trkpt>
      <trkpt lat="43.9335633" lon="8.1265840">
        <ele>205.2000000</ele>
        <time>2010-03-07T10:36:33Z</time>
      </trkpt>
      <trkpt lat="43.9332809" lon="8.1265326">
        <ele>201.9000000</ele>
        <time>2010-03-07T10:36:37Z</time>
      </trkpt>
      <trkpt lat="43.9331894" lon="8.1263657">
        <ele>199.7000000</ele>
        <time>2010-03-07T10:36:39Z</time>
      </trkpt>
      <trkpt lat="43.9331054" lon="8.1261845">
        <ele>197.6000000</ele>
        <time>2010-03-07T10:36:41Z</time>
      </trkpt>
      <trkpt lat="43.9329071" lon="8.1258535">
        <ele>193.8000000</ele>
        <time>2010-03-07T10:36:45Z</time>
      </trkpt>
      <trkpt lat="43.9327621" lon="8.1256218">
        <ele>191.6000000</ele>
        <time>2010-03-07T10:36:48Z</time>
      </trkpt>
      <trkpt lat="43.9326477" lon="8.1253109">
        <ele>194.0000000</ele>
        <time>2010-03-07T10:36:53Z</time>
      </trkpt>
      <trkpt lat="43.9326019" lon="8.1251907">
        <ele>195.8000000</ele>
        <time>2010-03-07T10:36:56Z</time>
      </trkpt>
      <trkpt lat="43.9325599" lon="8.1251602">
        <ele>196.5000000</ele>
        <time>2010-03-07T10:36:58Z</time>
      </trkpt>
      <trkpt lat="43.9324264" lon="8.1251107">
        <ele>197.8000000</ele>
        <time>2010-03-07T10:37:03Z</time>
      </trkpt>
      <trkpt lat="43.9322586" lon="8.1252031">
        <ele>196.6000000</ele>
        <time>2010-03-07T10:37:07Z</time>
      </trkpt>
      <trkpt lat="43.9322052" lon="8.1252184">
        <ele>196.0000000</ele>
        <time>2010-03-07T10:37:08Z</time>
      </trkpt>
      <trkpt lat="43.9317932" lon="8.1253433">
        <ele>194.3000000</ele>
        <time>2010-03-07T10:37:15Z</time>
      </trkpt>
      <trkpt lat="43.9316597" lon="8.1252441">
        <ele>194.5000000</ele>
        <time>2010-03-07T10:37:18Z</time>
      </trkpt>
      <trkpt lat="43.9316254" lon="8.1252194">
        <ele>195.0000000</ele>
        <time>2010-03-07T10:37:19Z</time>
      </trkpt>
      <trkpt lat="43.9313622" lon="8.1250410">
        <ele>194.3000000</ele>
        <time>2010-03-07T10:37:26Z</time>
      </trkpt>
      <trkpt lat="43.9313240" lon="8.1250076">
        <ele>194.1000000</ele>
        <time>2010-03-07T10:37:27Z</time>
      </trkpt>
      <trkpt lat="43.9311409" lon="8.1249009">
        <ele>193.9000000</ele>
        <time>2010-03-07T10:37:31Z</time>
      </trkpt>
      <trkpt lat="43.9309158" lon="8.1249103">
        <ele>193.5000000</ele>
        <time>2010-03-07T10:37:36Z</time>
      </trkpt>
      <trkpt lat="43.9308014" lon="8.1250238">
        <ele>193.2000000</ele>
        <time>2010-03-07T10:37:40Z</time>
      </trkpt>
      <trkpt lat="43.9306908" lon="8.1252127">
        <ele>192.9000000</ele>
        <time>2010-03-07T10:37:44Z</time>
      </trkpt>
      <trkpt lat="43.9305649" lon="8.1252508">
        <ele>191.2000000</ele>
        <time>2010-03-07T10:37:47Z</time>
      </trkpt>
      <trkpt lat="43.9305420" lon="8.1252318">
        <ele>190.5000000</ele>
        <time>2010-03-07T10:37:48Z</time>
      </trkpt>
      <trkpt lat="43.9304733" lon="8.1251268">
        <ele>188.5000000</ele>
        <time>2010-03-07T10:37:51Z</time>
      </trkpt>
      <trkpt lat="43.9303322" lon="8.1249714">
        <ele>184.6000000</ele>
        <time>2010-03-07T10:37:55Z</time>
      </trkpt>
      <trkpt lat="43.9302902" lon="8.1249218">
        <ele>183.6000000</ele>
        <time>2010-03-07T10:37:56Z</time>
      </trkpt>
      <trkpt lat="43.9301414" lon="8.1248188">
        <ele>180.5000000</ele>
        <time>2010-03-07T10:37:59Z</time>
      </trkpt>
      <trkpt lat="43.9299698" lon="8.1246157">
        <ele>176.6000000</ele>
        <time>2010-03-07T10:38:04Z</time>
      </trkpt>
      <trkpt lat="43.9299087" lon="8.1245632">
        <ele>175.2000000</ele>
        <time>2010-03-07T10:38:06Z</time>
      </trkpt>
      <trkpt lat="43.9297828" lon="8.1244669">
        <ele>175.6000000</ele>
        <time>2010-03-07T10:38:11Z</time>
      </trkpt>
      <trkpt lat="43.9297600" lon="8.1243372">
        <ele>172.5000000</ele>
        <time>2010-03-07T10:38:15Z</time>
      </trkpt>
      <trkpt lat="43.9296913" lon="8.1241980">
        <ele>170.2000000</ele>
        <time>2010-03-07T10:38:18Z</time>
      </trkpt>
      <trkpt lat="43.9296188" lon="8.1238509">
        <ele>162.3000000</ele>
        <time>2010-03-07T10:38:23Z</time>
      </trkpt>
      <trkpt lat="43.9295235" lon="8.1236915">
        <ele>159.4000000</ele>
        <time>2010-03-07T10:38:26Z</time>
      </trkpt>
      <trkpt lat="43.9294281" lon="8.1235266">
        <ele>157.5000000</ele>
        <time>2010-03-07T10:38:30Z</time>
      </trkpt>
      <trkpt lat="43.9293671" lon="8.1234159">
        <ele>156.3000000</ele>
        <time>2010-03-07T10:38:32Z</time>
      </trkpt>
      <trkpt lat="43.9292907" lon="8.1232930">
        <ele>155.8000000</ele>
        <time>2010-03-07T10:38:34Z</time>
      </trkpt>
      <trkpt lat="43.9291763" lon="8.1230678">
        <ele>154.9000000</ele>
        <time>2010-03-07T10:38:39Z</time>
      </trkpt>
      <trkpt lat="43.9292031" lon="8.1228552">
        <ele>152.2000000</ele>
        <time>2010-03-07T10:38:43Z</time>
      </trkpt>
      <trkpt lat="43.9291763" lon="8.1226750">
        <ele>149.1000000</ele>
        <time>2010-03-07T10:38:47Z</time>
      </trkpt>
      <trkpt lat="43.9291306" lon="8.1224746">
        <ele>146.7000000</ele>
        <time>2010-03-07T10:38:51Z</time>
      </trkpt>
      <trkpt lat="43.9291687" lon="8.1223994">
        <ele>144.6000000</ele>
        <time>2010-03-07T10:38:54Z</time>
      </trkpt>
      <trkpt lat="43.9291611" lon="8.1223688">
        <ele>144.3000000</ele>
        <time>2010-03-07T10:38:55Z</time>
      </trkpt>
      <trkpt lat="43.9291267" lon="8.1222506">
        <ele>143.4000000</ele>
        <time>2010-03-07T10:38:57Z</time>
      </trkpt>
      <trkpt lat="43.9290047" lon="8.1220999">
        <ele>142.3000000</ele>
        <time>2010-03-07T10:39:01Z</time>
      </trkpt>
      <trkpt lat="43.9289665" lon="8.1219177">
        <ele>140.6000000</ele>
        <time>2010-03-07T10:39:04Z</time>
      </trkpt>
      <trkpt lat="43.9288826" lon="8.1217909">
        <ele>138.5000000</ele>
        <time>2010-03-07T10:39:07Z</time>
      </trkpt>
      <trkpt lat="43.9287605" lon="8.1216297">
        <ele>136.9000000</ele>
        <time>2010-03-07T10:39:11Z</time>
      </trkpt>
      <trkpt lat="43.9287262" lon="8.1213904">
        <ele>133.1000000</ele>
        <time>2010-03-07T10:39:15Z</time>
      </trkpt>
      <trkpt lat="43.9286461" lon="8.1212416">
        <ele>131.2000000</ele>
        <time>2010-03-07T10:39:18Z</time>
      </trkpt>
      <trkpt lat="43.9285431" lon="8.1211843">
        <ele>130.5000000</ele>
        <time>2010-03-07T10:39:21Z</time>
      </trkpt>
      <trkpt lat="43.9283943" lon="8.1211386">
        <ele>128.2000000</ele>
        <time>2010-03-07T10:39:24Z</time>
      </trkpt>
      <trkpt lat="43.9282379" lon="8.1211100">
        <ele>123.5000000</ele>
        <time>2010-03-07T10:39:28Z</time>
      </trkpt>
      <trkpt lat="43.9281311" lon="8.1210318">
        <ele>119.0000000</ele>
        <time>2010-03-07T10:39:32Z</time>
      </trkpt>
      <trkpt lat="43.9281196" lon="8.1208983">
        <ele>116.4000000</ele>
        <time>2010-03-07T10:39:34Z</time>
      </trkpt>
      <trkpt lat="43.9280891" lon="8.1203413">
        <ele>113.4000000</ele>
        <time>2010-03-07T10:39:40Z</time>
      </trkpt>
      <trkpt lat="43.9280701" lon="8.1202354">
        <ele>113.0000000</ele>
        <time>2010-03-07T10:39:41Z</time>
      </trkpt>
      <trkpt lat="43.9280319" lon="8.1198149">
        <ele>111.3000000</ele>
        <time>2010-03-07T10:39:45Z</time>
      </trkpt>
      <trkpt lat="43.9279137" lon="8.1196794">
        <ele>108.7000000</ele>
        <time>2010-03-07T10:39:49Z</time>
      </trkpt>
      <trkpt lat="43.9277802" lon="8.1197681">
        <ele>105.0000000</ele>
        <time>2010-03-07T10:39:54Z</time>
      </trkpt>
      <trkpt lat="43.9277077" lon="8.1197519">
        <ele>101.6000000</ele>
        <time>2010-03-07T10:39:57Z</time>
      </trkpt>
      <trkpt lat="43.9276963" lon="8.1195879">
        <ele>100.3000000</ele>
        <time>2010-03-07T10:40:00Z</time>
      </trkpt>
      <trkpt lat="43.9276886" lon="8.1193447">
        <ele>99.8000000</ele>
        <time>2010-03-07T10:40:05Z</time>
      </trkpt>
      <trkpt lat="43.9276046" lon="8.1192513">
        <ele>96.4000000</ele>
        <time>2010-03-07T10:40:09Z</time>
      </trkpt>
      <trkpt lat="43.9276123" lon="8.1191492">
        <ele>94.2000000</ele>
        <time>2010-03-07T10:40:12Z</time>
      </trkpt>
      <trkpt lat="43.9276543" lon="8.1190348">
        <ele>94.0000000</ele>
        <time>2010-03-07T10:40:16Z</time>
      </trkpt>
      <trkpt lat="43.9276466" lon="8.1190148">
        <ele>93.5000000</ele>
        <time>2010-03-07T10:40:19Z</time>
      </trkpt>
      <trkpt lat="43.9276314" lon="8.1190109">
        <ele>93.4000000</ele>
        <time>2010-03-07T10:40:29Z</time>
      </trkpt>
      <trkpt lat="43.9275932" lon="8.1189013">
        <ele>92.2000000</ele>
        <time>2010-03-07T10:40:33Z</time>
      </trkpt>
      <trkpt lat="43.9276810" lon="8.1187486">
        <ele>90.3000000</ele>
        <time>2010-03-07T10:40:36Z</time>
      </trkpt>
      <trkpt lat="43.9277191" lon="8.1186886">
        <ele>89.5000000</ele>
        <time>2010-03-07T10:40:37Z</time>
      </trkpt>
      <trkpt lat="43.9279442" lon="8.1184606">
        <ele>86.8000000</ele>
        <time>2010-03-07T10:40:42Z</time>
      </trkpt>
      <trkpt lat="43.9280433" lon="8.1184092">
        <ele>86.1000000</ele>
        <time>2010-03-07T10:40:44Z</time>
      </trkpt>
      <trkpt lat="43.9281464" lon="8.1183414">
        <ele>85.2000000</ele>
        <time>2010-03-07T10:40:46Z</time>
      </trkpt>
      <trkpt lat="43.9284973" lon="8.1181765">
        <ele>80.2000000</ele>
        <time>2010-03-07T10:40:51Z</time>
      </trkpt>
      <trkpt lat="43.9285774" lon="8.1181440">
        <ele>78.9000000</ele>
        <time>2010-03-07T10:40:52Z</time>
      </trkpt>
      <trkpt lat="43.9288903" lon="8.1181269">
        <ele>74.1000000</ele>
        <time>2010-03-07T10:40:56Z</time>
      </trkpt>
      <trkpt lat="43.9290199" lon="8.1181889">
        <ele>69.3000000</ele>
        <time>2010-03-07T10:40:58Z</time>
      </trkpt>
      <trkpt lat="43.9291115" lon="8.1182480">
        <ele>65.4000000</ele>
        <time>2010-03-07T10:41:00Z</time>
      </trkpt>
      <trkpt lat="43.9290772" lon="8.1181602">
        <ele>62.9000000</ele>
        <time>2010-03-07T10:41:04Z</time>
      </trkpt>
      <trkpt lat="43.9290428" lon="8.1181059">
        <ele>62.3000000</ele>
        <time>2010-03-07T10:41:05Z</time>
      </trkpt>
      <trkpt lat="43.9289779" lon="8.1179791">
        <ele>61.0000000</ele>
        <time>2010-03-07T10:41:07Z</time>
      </trkpt>
      <trkpt lat="43.9289169" lon="8.1178083">
        <ele>57.5000000</ele>
        <time>2010-03-07T10:41:11Z</time>
      </trkpt>
      <trkpt lat="43.9290504" lon="8.1178598">
        <ele>55.2000000</ele>
        <time>2010-03-07T10:41:14Z</time>
      </trkpt>
      <trkpt lat="43.9292602" lon="8.1178532">
        <ele>49.3000000</ele>
        <time>2010-03-07T10:41:19Z</time>
      </trkpt>
      <trkpt lat="43.9293709" lon="8.1177587">
        <ele>46.6000000</ele>
        <time>2010-03-07T10:41:23Z</time>
      </trkpt>
      <trkpt lat="43.9294090" lon="8.1177807">
        <ele>46.5000000</ele>
        <time>2010-03-07T10:41:24Z</time>
      </trkpt>
      <trkpt lat="43.9295235" lon="8.1178704">
        <ele>45.5000000</ele>
        <time>2010-03-07T10:41:27Z</time>
      </trkpt>
      <trkpt lat="43.9296074" lon="8.1178369">
        <ele>44.5000000</ele>
        <time>2010-03-07T10:41:30Z</time>
      </trkpt>
      <trkpt lat="43.9296761" lon="8.1176672">
        <ele>42.5000000</ele>
        <time>2010-03-07T10:41:34Z</time>
      </trkpt>
      <trkpt lat="43.9296952" lon="8.1175480">
        <ele>44.1000000</ele>
        <time>2010-03-07T10:41:38Z</time>
      </trkpt>
      <trkpt lat="43.9297066" lon="8.1175003">
        <ele>46.0000000</ele>
        <time>2010-03-07T10:41:42Z</time>
      </trkpt>
      <trkpt lat="43.9297028" lon="8.1174354">
        <ele>47.3000000</ele>
        <time>2010-03-07T10:41:48Z</time>
      </trkpt>
      <trkpt lat="43.9296952" lon="8.1173162">
        <ele>49.8000000</ele>
        <time>2010-03-07T10:41:57Z</time>
      </trkpt>
      <trkpt lat="43.9296913" lon="8.1172466">
        <ele>51.5000000</ele>
        <time>2010-03-07T10:42:03Z</time>
      </trkpt>
      <trkpt lat="43.9296569" lon="8.1171246">
        <ele>52.7000000</ele>
        <time>2010-03-07T10:42:12Z</time>
      </trkpt>
      <trkpt lat="43.9295845" lon="8.1170034">
        <ele>54.5000000</ele>
        <time>2010-03-07T10:42:22Z</time>
      </trkpt>
      <trkpt lat="43.9294968" lon="8.1169176">
        <ele>56.2000000</ele>
        <time>2010-03-07T10:42:31Z</time>
      </trkpt>
      <trkpt lat="43.9294434" lon="8.1168775">
        <ele>56.9000000</ele>
        <time>2010-03-07T10:42:37Z</time>
      </trkpt>
      <trkpt lat="43.9293861" lon="8.1168422">
        <ele>57.1000000</ele>
        <time>2010-03-07T10:42:42Z</time>
      </trkpt>
      <trkpt lat="43.9292450" lon="8.1166744">
        <ele>58.0000000</ele>
        <time>2010-03-07T10:42:51Z</time>
      </trkpt>
      <trkpt lat="43.9290581" lon="8.1165514">
        <ele>58.5000000</ele>
        <time>2010-03-07T10:43:00Z</time>
      </trkpt>
      <trkpt lat="43.9289208" lon="8.1164035">
        <ele>59.5000000</ele>
        <time>2010-03-07T10:43:08Z</time>
      </trkpt>
      <trkpt lat="43.9288292" lon="8.1162529">
        <ele>61.5000000</ele>
        <time>2010-03-07T10:43:17Z</time>
      </trkpt>
      <trkpt lat="43.9287300" lon="8.1161232">
        <ele>63.0000000</ele>
        <time>2010-03-07T10:43:26Z</time>
      </trkpt>
      <trkpt lat="43.9285927" lon="8.1159792">
        <ele>64.1000000</ele>
        <time>2010-03-07T10:43:36Z</time>
      </trkpt>
      <trkpt lat="43.9285241" lon="8.1158896">
        <ele>65.0000000</ele>
        <time>2010-03-07T10:43:43Z</time>
      </trkpt>
      <trkpt lat="43.9284858" lon="8.1158571">
        <ele>65.8000000</ele>
        <time>2010-03-07T10:43:49Z</time>
      </trkpt>
      <trkpt lat="43.9284668" lon="8.1158238">
        <ele>66.9000000</ele>
        <time>2010-03-07T10:43:52Z</time>
      </trkpt>
      <trkpt lat="43.9284324" lon="8.1157513">
        <ele>68.5000000</ele>
        <time>2010-03-07T10:43:59Z</time>
      </trkpt>
      <trkpt lat="43.9283485" lon="8.1156569">
        <ele>70.1000000</ele>
        <time>2010-03-07T10:44:10Z</time>
      </trkpt>
      <trkpt lat="43.9282455" lon="8.1155824">
        <ele>71.4000000</ele>
        <time>2010-03-07T10:44:20Z</time>
      </trkpt>
      <trkpt lat="43.9281655" lon="8.1154900">
        <ele>74.2000000</ele>
        <time>2010-03-07T10:44:31Z</time>
      </trkpt>
      <trkpt lat="43.9281273" lon="8.1153631">
        <ele>75.8000000</ele>
        <time>2010-03-07T10:44:40Z</time>
      </trkpt>
      <trkpt lat="43.9281196" lon="8.1153364">
        <ele>76.1000000</ele>
        <time>2010-03-07T10:44:42Z</time>
      </trkpt>
      <trkpt lat="43.9280967" lon="8.1153412">
        <ele>76.5000000</ele>
        <time>2010-03-07T10:44:49Z</time>
      </trkpt>
    </trkseg>
  </trk>

  <trk>
    <name>PS_2</name>
    <extensions>
      <gpxx:TrackExtension xmlns:gpxx="http://www.garmin.com/xmlschemas/GpxExtensions/v3">
        <gpxx:DisplayColor>Red</gpxx:DisplayColor>
      </gpxx:TrackExtension>
    </extensions>
    <trkseg>
      <trkpt lat="43.9431648" lon="8.1226110">
        <ele>346.1000000</ele>
        <time>2010-03-07T12:11:47Z</time>
      </trkpt>
      <trkpt lat="43.9431648" lon="8.1226092">
        <ele>346.1000000</ele>
        <time>2010-03-07T12:11:51Z</time>
      </trkpt>
      <trkpt lat="43.9431648" lon="8.1226092">
        <ele>346.2000000</ele>
        <time>2010-03-07T12:11:57Z</time>
      </trkpt>
      <trkpt lat="43.9431648" lon="8.1226053">
        <ele>345.9000000</ele>
        <time>2010-03-07T12:12:04Z</time>
      </trkpt>
      <trkpt lat="43.9431572" lon="8.1225929">
        <ele>345.8000000</ele>
        <time>2010-03-07T12:12:23Z</time>
      </trkpt>
      <trkpt lat="43.9431572" lon="8.1225968">
        <ele>345.8000000</ele>
        <time>2010-03-07T12:12:30Z</time>
      </trkpt>
      <trkpt lat="43.9431572" lon="8.1226005">
        <ele>346.1000000</ele>
        <time>2010-03-07T12:12:37Z</time>
      </trkpt>
      <trkpt lat="43.9431572" lon="8.1225987">
        <ele>346.3000000</ele>
        <time>2010-03-07T12:12:39Z</time>
      </trkpt>
      <trkpt lat="43.9431572" lon="8.1225977">
        <ele>346.2000000</ele>
        <time>2010-03-07T12:12:40Z</time>
      </trkpt>
      <trkpt lat="43.9431534" lon="8.1225920">
        <ele>346.2000000</ele>
        <time>2010-03-07T12:12:49Z</time>
      </trkpt>
      <trkpt lat="43.9431458" lon="8.1225891">
        <ele>345.5000000</ele>
        <time>2010-03-07T12:13:01Z</time>
      </trkpt>
      <trkpt lat="43.9430656" lon="8.1224499">
        <ele>345.9000000</ele>
        <time>2010-03-07T12:13:05Z</time>
      </trkpt>
      <trkpt lat="43.9429436" lon="8.1220684">
        <ele>340.8000000</ele>
        <time>2010-03-07T12:13:09Z</time>
      </trkpt>
      <trkpt lat="43.9429169" lon="8.1218748">
        <ele>337.9000000</ele>
        <time>2010-03-07T12:13:11Z</time>
      </trkpt>
      <trkpt lat="43.9429016" lon="8.1216193">
        <ele>332.0000000</ele>
        <time>2010-03-07T12:13:14Z</time>
      </trkpt>
      <trkpt lat="43.9428978" lon="8.1213980">
        <ele>325.0000000</ele>
        <time>2010-03-07T12:13:18Z</time>
      </trkpt>
      <trkpt lat="43.9428864" lon="8.1210937">
        <ele>318.7000000</ele>
        <time>2010-03-07T12:13:22Z</time>
      </trkpt>
      <trkpt lat="43.9428444" lon="8.1207227">
        <ele>310.7000000</ele>
        <time>2010-03-07T12:13:26Z</time>
      </trkpt>
      <trkpt lat="43.9427414" lon="8.1204863">
        <ele>306.6000000</ele>
        <time>2010-03-07T12:13:30Z</time>
      </trkpt>
      <trkpt lat="43.9426956" lon="8.1203423">
        <ele>303.4000000</ele>
        <time>2010-03-07T12:13:33Z</time>
      </trkpt>
      <trkpt lat="43.9425735" lon="8.1201114">
        <ele>297.5000000</ele>
        <time>2010-03-07T12:13:37Z</time>
      </trkpt>
      <trkpt lat="43.9425202" lon="8.1198702">
        <ele>292.5000000</ele>
        <time>2010-03-07T12:13:40Z</time>
      </trkpt>
      <trkpt lat="43.9424019" lon="8.1195955">
        <ele>286.1000000</ele>
        <time>2010-03-07T12:13:44Z</time>
      </trkpt>
      <trkpt lat="43.9423599" lon="8.1194696">
        <ele>283.6000000</ele>
        <time>2010-03-07T12:13:46Z</time>
      </trkpt>
      <trkpt lat="43.9423027" lon="8.1193676">
        <ele>280.3000000</ele>
        <time>2010-03-07T12:13:48Z</time>
      </trkpt>
      <trkpt lat="43.9422073" lon="8.1191178">
        <ele>275.7000000</ele>
        <time>2010-03-07T12:13:53Z</time>
      </trkpt>
      <trkpt lat="43.9421768" lon="8.1189499">
        <ele>272.8000000</ele>
        <time>2010-03-07T12:13:56Z</time>
      </trkpt>
      <trkpt lat="43.9421501" lon="8.1187372">
        <ele>267.5000000</ele>
        <time>2010-03-07T12:14:00Z</time>
      </trkpt>
      <trkpt lat="43.9420967" lon="8.1185723">
        <ele>263.8000000</ele>
        <time>2010-03-07T12:14:03Z</time>
      </trkpt>
      <trkpt lat="43.9419975" lon="8.1183748">
        <ele>260.0000000</ele>
        <time>2010-03-07T12:14:07Z</time>
      </trkpt>
      <trkpt lat="43.9418678" lon="8.1182403">
        <ele>256.6000000</ele>
        <time>2010-03-07T12:14:11Z</time>
      </trkpt>
      <trkpt lat="43.9417649" lon="8.1179972">
        <ele>253.7000000</ele>
        <time>2010-03-07T12:14:15Z</time>
      </trkpt>
      <trkpt lat="43.9417915" lon="8.1178770">
        <ele>250.8000000</ele>
        <time>2010-03-07T12:14:18Z</time>
      </trkpt>
      <trkpt lat="43.9417496" lon="8.1177835">
        <ele>248.8000000</ele>
        <time>2010-03-07T12:14:20Z</time>
      </trkpt>
      <trkpt lat="43.9416313" lon="8.1175194">
        <ele>246.6000000</ele>
        <time>2010-03-07T12:14:25Z</time>
      </trkpt>
      <trkpt lat="43.9415703" lon="8.1173391">
        <ele>244.4000000</ele>
        <time>2010-03-07T12:14:28Z</time>
      </trkpt>
      <trkpt lat="43.9415359" lon="8.1172047">
        <ele>243.7000000</ele>
        <time>2010-03-07T12:14:30Z</time>
      </trkpt>
      <trkpt lat="43.9415054" lon="8.1169662">
        <ele>239.9000000</ele>
        <time>2010-03-07T12:14:34Z</time>
      </trkpt>
      <trkpt lat="43.9414863" lon="8.1168051">
        <ele>238.1000000</ele>
        <time>2010-03-07T12:14:36Z</time>
      </trkpt>
      <trkpt lat="43.9413528" lon="8.1164856">
        <ele>234.7000000</ele>
        <time>2010-03-07T12:14:41Z</time>
      </trkpt>
      <trkpt lat="43.9412575" lon="8.1162396">
        <ele>232.9000000</ele>
        <time>2010-03-07T12:14:45Z</time>
      </trkpt>
      <trkpt lat="43.9411926" lon="8.1160383">
        <ele>230.5000000</ele>
        <time>2010-03-07T12:14:48Z</time>
      </trkpt>
      <trkpt lat="43.9411659" lon="8.1158972">
        <ele>227.9000000</ele>
        <time>2010-03-07T12:14:50Z</time>
      </trkpt>
      <trkpt lat="43.9410858" lon="8.1157456">
        <ele>226.3000000</ele>
        <time>2010-03-07T12:14:53Z</time>
      </trkpt>
      <trkpt lat="43.9410171" lon="8.1156330">
        <ele>225.0000000</ele>
        <time>2010-03-07T12:14:55Z</time>
      </trkpt>
      <trkpt lat="43.9409408" lon="8.1155253">
        <ele>224.1000000</ele>
        <time>2010-03-07T12:14:57Z</time>
      </trkpt>
      <trkpt lat="43.9408493" lon="8.1153641">
        <ele>223.8000000</ele>
        <time>2010-03-07T12:15:01Z</time>
      </trkpt>
      <trkpt lat="43.9408188" lon="8.1152411">
        <ele>223.1000000</ele>
        <time>2010-03-07T12:15:03Z</time>
      </trkpt>
      <trkpt lat="43.9407921" lon="8.1148901">
        <ele>221.0000000</ele>
        <time>2010-03-07T12:15:09Z</time>
      </trkpt>
      <trkpt lat="43.9407768" lon="8.1147013">
        <ele>221.0000000</ele>
        <time>2010-03-07T12:15:13Z</time>
      </trkpt>
      <trkpt lat="43.9407615" lon="8.1146536">
        <ele>221.1000000</ele>
        <time>2010-03-07T12:15:14Z</time>
      </trkpt>
      <trkpt lat="43.9407005" lon="8.1144924">
        <ele>222.4000000</ele>
        <time>2010-03-07T12:15:19Z</time>
      </trkpt>
      <trkpt lat="43.9406853" lon="8.1143237">
        <ele>223.2000000</ele>
        <time>2010-03-07T12:15:23Z</time>
      </trkpt>
      <trkpt lat="43.9406700" lon="8.1142826">
        <ele>223.4000000</ele>
        <time>2010-03-07T12:15:24Z</time>
      </trkpt>
      <trkpt lat="43.9406051" lon="8.1141061">
        <ele>225.0000000</ele>
        <time>2010-03-07T12:15:29Z</time>
      </trkpt>
      <trkpt lat="43.9405060" lon="8.1140662">
        <ele>226.4000000</ele>
        <time>2010-03-07T12:15:34Z</time>
      </trkpt>
      <trkpt lat="43.9404411" lon="8.1139212">
        <ele>225.5000000</ele>
        <time>2010-03-07T12:15:39Z</time>
      </trkpt>
      <trkpt lat="43.9403611" lon="8.1137724">
        <ele>226.3000000</ele>
        <time>2010-03-07T12:15:43Z</time>
      </trkpt>
      <trkpt lat="43.9402428" lon="8.1136399">
        <ele>224.9000000</ele>
        <time>2010-03-07T12:15:47Z</time>
      </trkpt>
      <trkpt lat="43.9402047" lon="8.1134968">
        <ele>222.2000000</ele>
        <time>2010-03-07T12:15:50Z</time>
      </trkpt>
      <trkpt lat="43.9402542" lon="8.1132374">
        <ele>219.2000000</ele>
        <time>2010-03-07T12:15:55Z</time>
      </trkpt>
      <trkpt lat="43.9402313" lon="8.1130276">
        <ele>214.1000000</ele>
        <time>2010-03-07T12:15:59Z</time>
      </trkpt>
      <trkpt lat="43.9401512" lon="8.1130457">
        <ele>213.6000000</ele>
        <time>2010-03-07T12:16:02Z</time>
      </trkpt>
      <trkpt lat="43.9401169" lon="8.1130628">
        <ele>213.8000000</ele>
        <time>2010-03-07T12:16:03Z</time>
      </trkpt>
      <trkpt lat="43.9399032" lon="8.1131973">
        <ele>213.9000000</ele>
        <time>2010-03-07T12:16:09Z</time>
      </trkpt>
      <trkpt lat="43.9397697" lon="8.1132565">
        <ele>212.1000000</ele>
        <time>2010-03-07T12:16:12Z</time>
      </trkpt>
      <trkpt lat="43.9396172" lon="8.1132498">
        <ele>208.4000000</ele>
        <time>2010-03-07T12:16:16Z</time>
      </trkpt>
      <trkpt lat="43.9395333" lon="8.1131096">
        <ele>205.0000000</ele>
        <time>2010-03-07T12:16:19Z</time>
      </trkpt>
      <trkpt lat="43.9393769" lon="8.1130829">
        <ele>202.1000000</ele>
        <time>2010-03-07T12:16:22Z</time>
      </trkpt>
      <trkpt lat="43.9393272" lon="8.1131020">
        <ele>201.6000000</ele>
        <time>2010-03-07T12:16:23Z</time>
      </trkpt>
      <trkpt lat="43.9392242" lon="8.1131334">
        <ele>200.9000000</ele>
        <time>2010-03-07T12:16:25Z</time>
      </trkpt>
      <trkpt lat="43.9390907" lon="8.1130286">
        <ele>197.5000000</ele>
        <time>2010-03-07T12:16:29Z</time>
      </trkpt>
      <trkpt lat="43.9390946" lon="8.1129408">
        <ele>196.2000000</ele>
        <time>2010-03-07T12:16:31Z</time>
      </trkpt>
      <trkpt lat="43.9391213" lon="8.1129093">
        <ele>196.1000000</ele>
        <time>2010-03-07T12:16:32Z</time>
      </trkpt>
      <trkpt lat="43.9391899" lon="8.1128034">
        <ele>195.6000000</ele>
        <time>2010-03-07T12:16:35Z</time>
      </trkpt>
      <trkpt lat="43.9391594" lon="8.1127215">
        <ele>193.3000000</ele>
        <time>2010-03-07T12:16:37Z</time>
      </trkpt>
      <trkpt lat="43.9390869" lon="8.1127300">
        <ele>192.5000000</ele>
        <time>2010-03-07T12:16:39Z</time>
      </trkpt>
      <trkpt lat="43.9389839" lon="8.1127043">
        <ele>192.2000000</ele>
        <time>2010-03-07T12:16:42Z</time>
      </trkpt>
      <trkpt lat="43.9389495" lon="8.1125755">
        <ele>191.4000000</ele>
        <time>2010-03-07T12:16:46Z</time>
      </trkpt>
      <trkpt lat="43.9389878" lon="8.1124448">
        <ele>189.2000000</ele>
        <time>2010-03-07T12:16:49Z</time>
      </trkpt>
      <trkpt lat="43.9389648" lon="8.1124106">
        <ele>188.3000000</ele>
        <time>2010-03-07T12:16:50Z</time>
      </trkpt>
      <trkpt lat="43.9387550" lon="8.1121769">
        <ele>183.2000000</ele>
        <time>2010-03-07T12:16:55Z</time>
      </trkpt>
      <trkpt lat="43.9386864" lon="8.1119871">
        <ele>179.0000000</ele>
        <time>2010-03-07T12:17:00Z</time>
      </trkpt>
      <trkpt lat="43.9386750" lon="8.1119232">
        <ele>177.4000000</ele>
        <time>2010-03-07T12:17:02Z</time>
      </trkpt>
      <trkpt lat="43.9387169" lon="8.1118288">
        <ele>175.3000000</ele>
        <time>2010-03-07T12:17:05Z</time>
      </trkpt>
      <trkpt lat="43.9386978" lon="8.1117440">
        <ele>173.5000000</ele>
        <time>2010-03-07T12:17:07Z</time>
      </trkpt>
      <trkpt lat="43.9386101" lon="8.1115828">
        <ele>171.1000000</ele>
        <time>2010-03-07T12:17:10Z</time>
      </trkpt>
      <trkpt lat="43.9385643" lon="8.1114530">
        <ele>168.8000000</ele>
        <time>2010-03-07T12:17:12Z</time>
      </trkpt>
      <trkpt lat="43.9385491" lon="8.1113234">
        <ele>166.3000000</ele>
        <time>2010-03-07T12:17:14Z</time>
      </trkpt>
      <trkpt lat="43.9384537" lon="8.1111545">
        <ele>163.7000000</ele>
        <time>2010-03-07T12:17:17Z</time>
      </trkpt>
      <trkpt lat="43.9383698" lon="8.1109829">
        <ele>162.1000000</ele>
        <time>2010-03-07T12:17:20Z</time>
      </trkpt>
      <trkpt lat="43.9383240" lon="8.1109380">
        <ele>161.9000000</ele>
        <time>2010-03-07T12:17:21Z</time>
      </trkpt>
      <trkpt lat="43.9382362" lon="8.1108427">
        <ele>161.4000000</ele>
        <time>2010-03-07T12:17:23Z</time>
      </trkpt>
      <trkpt lat="43.9381485" lon="8.1105375">
        <ele>160.0000000</ele>
        <time>2010-03-07T12:17:27Z</time>
      </trkpt>
      <trkpt lat="43.9380912" lon="8.1103478">
        <ele>159.0000000</ele>
        <time>2010-03-07T12:17:30Z</time>
      </trkpt>
      <trkpt lat="43.9380493" lon="8.1101398">
        <ele>157.9000000</ele>
        <time>2010-03-07T12:17:33Z</time>
      </trkpt>
      <trkpt lat="43.9379768" lon="8.1100321">
        <ele>156.5000000</ele>
        <time>2010-03-07T12:17:35Z</time>
      </trkpt>
      <trkpt lat="43.9378319" lon="8.1096573">
        <ele>154.1000000</ele>
        <time>2010-03-07T12:17:40Z</time>
      </trkpt>
      <trkpt lat="43.9376526" lon="8.1093778">
        <ele>150.4000000</ele>
        <time>2010-03-07T12:17:44Z</time>
      </trkpt>
      <trkpt lat="43.9375954" lon="8.1093340">
        <ele>150.3000000</ele>
        <time>2010-03-07T12:17:45Z</time>
      </trkpt>
      <trkpt lat="43.9374313" lon="8.1091109">
        <ele>149.7000000</ele>
        <time>2010-03-07T12:17:49Z</time>
      </trkpt>
      <trkpt lat="43.9372788" lon="8.1088676">
        <ele>146.9000000</ele>
        <time>2010-03-07T12:17:53Z</time>
      </trkpt>
      <trkpt lat="43.9371681" lon="8.1087370">
        <ele>145.2000000</ele>
        <time>2010-03-07T12:17:56Z</time>
      </trkpt>
      <trkpt lat="43.9371033" lon="8.1086826">
        <ele>144.2000000</ele>
        <time>2010-03-07T12:17:58Z</time>
      </trkpt>
      <trkpt lat="43.9369660" lon="8.1084957">
        <ele>139.1000000</ele>
        <time>2010-03-07T12:18:02Z</time>
      </trkpt>
      <trkpt lat="43.9369278" lon="8.1085214">
        <ele>137.1000000</ele>
        <time>2010-03-07T12:18:05Z</time>
      </trkpt>
      <trkpt lat="43.9369126" lon="8.1085386">
        <ele>136.9000000</ele>
        <time>2010-03-07T12:18:06Z</time>
      </trkpt>
      <trkpt lat="43.9367562" lon="8.1086092">
        <ele>132.3000000</ele>
        <time>2010-03-07T12:18:12Z</time>
      </trkpt>
      <trkpt lat="43.9367523" lon="8.1084471">
        <ele>128.4000000</ele>
        <time>2010-03-07T12:18:16Z</time>
      </trkpt>
      <trkpt lat="43.9368438" lon="8.1082153">
        <ele>127.7000000</ele>
        <time>2010-03-07T12:18:20Z</time>
      </trkpt>
      <trkpt lat="43.9368401" lon="8.1081286">
        <ele>126.4000000</ele>
        <time>2010-03-07T12:18:22Z</time>
      </trkpt>
      <trkpt lat="43.9367791" lon="8.1081791">
        <ele>125.2000000</ele>
        <time>2010-03-07T12:18:25Z</time>
      </trkpt>
      <trkpt lat="43.9367027" lon="8.1083164">
        <ele>125.7000000</ele>
        <time>2010-03-07T12:18:29Z</time>
      </trkpt>
      <trkpt lat="43.9366340" lon="8.1082897">
        <ele>123.8000000</ele>
        <time>2010-03-07T12:18:31Z</time>
      </trkpt>
      <trkpt lat="43.9365081" lon="8.1084023">
        <ele>119.3000000</ele>
        <time>2010-03-07T12:18:35Z</time>
      </trkpt>
      <trkpt lat="43.9364319" lon="8.1084824">
        <ele>117.5000000</ele>
        <time>2010-03-07T12:18:38Z</time>
      </trkpt>
      <trkpt lat="43.9364357" lon="8.1084060">
        <ele>116.6000000</ele>
        <time>2010-03-07T12:18:40Z</time>
      </trkpt>
      <trkpt lat="43.9364700" lon="8.1083269">
        <ele>116.4000000</ele>
        <time>2010-03-07T12:18:42Z</time>
      </trkpt>
      <trkpt lat="43.9364052" lon="8.1082620">
        <ele>112.3000000</ele>
        <time>2010-03-07T12:18:46Z</time>
      </trkpt>
      <trkpt lat="43.9363098" lon="8.1083546">
        <ele>110.2000000</ele>
        <time>2010-03-07T12:18:49Z</time>
      </trkpt>
      <trkpt lat="43.9362831" lon="8.1084480">
        <ele>109.5000000</ele>
        <time>2010-03-07T12:18:51Z</time>
      </trkpt>
      <trkpt lat="43.9362907" lon="8.1085558">
        <ele>109.7000000</ele>
        <time>2010-03-07T12:18:53Z</time>
      </trkpt>
      <trkpt lat="43.9362907" lon="8.1086979">
        <ele>110.3000000</ele>
        <time>2010-03-07T12:18:56Z</time>
      </trkpt>
      <trkpt lat="43.9363480" lon="8.1089630">
        <ele>108.8000000</ele>
        <time>2010-03-07T12:19:01Z</time>
      </trkpt>
      <trkpt lat="43.9363441" lon="8.1091356">
        <ele>107.9000000</ele>
        <time>2010-03-07T12:19:04Z</time>
      </trkpt>
      <trkpt lat="43.9362907" lon="8.1092052">
        <ele>106.0000000</ele>
        <time>2010-03-07T12:19:07Z</time>
      </trkpt>
      <trkpt lat="43.9362373" lon="8.1093054">
        <ele>102.5000000</ele>
        <time>2010-03-07T12:19:09Z</time>
      </trkpt>
      <trkpt lat="43.9361611" lon="8.1094294">
        <ele>99.8000000</ele>
        <time>2010-03-07T12:19:12Z</time>
      </trkpt>
      <trkpt lat="43.9361267" lon="8.1094456">
        <ele>99.5000000</ele>
        <time>2010-03-07T12:19:13Z</time>
      </trkpt>
      <trkpt lat="43.9360046" lon="8.1094570">
        <ele>99.7000000</ele>
        <time>2010-03-07T12:19:16Z</time>
      </trkpt>
      <trkpt lat="43.9357872" lon="8.1094113">
        <ele>99.5000000</ele>
        <time>2010-03-07T12:19:21Z</time>
      </trkpt>
      <trkpt lat="43.9356003" lon="8.1094189">
        <ele>98.5000000</ele>
        <time>2010-03-07T12:19:26Z</time>
      </trkpt>
      <trkpt lat="43.9355163" lon="8.1093684">
        <ele>97.2000000</ele>
        <time>2010-03-07T12:19:29Z</time>
      </trkpt>
      <trkpt lat="43.9352875" lon="8.1091776">
        <ele>95.7000000</ele>
        <time>2010-03-07T12:19:34Z</time>
      </trkpt>
      <trkpt lat="43.9351463" lon="8.1091194">
        <ele>95.1000000</ele>
        <time>2010-03-07T12:19:37Z</time>
      </trkpt>
      <trkpt lat="43.9350128" lon="8.1089478">
        <ele>92.2000000</ele>
        <time>2010-03-07T12:19:41Z</time>
      </trkpt>
      <trkpt lat="43.9349747" lon="8.1089296">
        <ele>91.9000000</ele>
        <time>2010-03-07T12:19:42Z</time>
      </trkpt>
      <trkpt lat="43.9347839" lon="8.1088428">
        <ele>91.7000000</ele>
        <time>2010-03-07T12:19:47Z</time>
      </trkpt>
      <trkpt lat="43.9346924" lon="8.1087255">
        <ele>88.5000000</ele>
        <time>2010-03-07T12:19:51Z</time>
      </trkpt>
      <trkpt lat="43.9345741" lon="8.1086225">
        <ele>86.8000000</ele>
        <time>2010-03-07T12:19:54Z</time>
      </trkpt>
      <trkpt lat="43.9344139" lon="8.1084690">
        <ele>86.3000000</ele>
        <time>2010-03-07T12:19:59Z</time>
      </trkpt>
      <trkpt lat="43.9342384" lon="8.1083097">
        <ele>86.6000000</ele>
        <time>2010-03-07T12:20:04Z</time>
      </trkpt>
      <trkpt lat="43.9340820" lon="8.1081066">
        <ele>84.4000000</ele>
        <time>2010-03-07T12:20:10Z</time>
      </trkpt>
      <trkpt lat="43.9340782" lon="8.1080398">
        <ele>83.0000000</ele>
        <time>2010-03-07T12:20:13Z</time>
      </trkpt>
      <trkpt lat="43.9340744" lon="8.1079283">
        <ele>78.7000000</ele>
        <time>2010-03-07T12:20:17Z</time>
      </trkpt>
      <trkpt lat="43.9340668" lon="8.1078167">
        <ele>73.8000000</ele>
        <time>2010-03-07T12:20:21Z</time>
      </trkpt>
      <trkpt lat="43.9341125" lon="8.1077662">
        <ele>70.2000000</ele>
        <time>2010-03-07T12:20:25Z</time>
      </trkpt>
      <trkpt lat="43.9340820" lon="8.1076679">
        <ele>66.8000000</ele>
        <time>2010-03-07T12:20:28Z</time>
      </trkpt>
      <trkpt lat="43.9340896" lon="8.1075745">
        <ele>64.8000000</ele>
        <time>2010-03-07T12:20:31Z</time>
      </trkpt>
      <trkpt lat="43.9341584" lon="8.1075649">
        <ele>61.2000000</ele>
        <time>2010-03-07T12:20:34Z</time>
      </trkpt>
      <trkpt lat="43.9341889" lon="8.1075354">
        <ele>59.9000000</ele>
        <time>2010-03-07T12:20:36Z</time>
      </trkpt>
      <trkpt lat="43.9341774" lon="8.1075124">
        <ele>59.7000000</ele>
        <time>2010-03-07T12:20:37Z</time>
      </trkpt>
      <trkpt lat="43.9340782" lon="8.1074161">
        <ele>59.1000000</ele>
        <time>2010-03-07T12:20:41Z</time>
      </trkpt>
      <trkpt lat="43.9340973" lon="8.1073389">
        <ele>57.0000000</ele>
        <time>2010-03-07T12:20:44Z</time>
      </trkpt>
      <trkpt lat="43.9341164" lon="8.1073456">
        <ele>56.1000000</ele>
        <time>2010-03-07T12:20:45Z</time>
      </trkpt>
      <trkpt lat="43.9341736" lon="8.1073866">
        <ele>55.4000000</ele>
        <time>2010-03-07T12:20:47Z</time>
      </trkpt>
      <trkpt lat="43.9342194" lon="8.1073237">
        <ele>54.2000000</ele>
        <time>2010-03-07T12:20:51Z</time>
      </trkpt>
      <trkpt lat="43.9342079" lon="8.1072244">
        <ele>51.0000000</ele>
        <time>2010-03-07T12:20:53Z</time>
      </trkpt>
      <trkpt lat="43.9341393" lon="8.1071625">
        <ele>50.1000000</ele>
        <time>2010-03-07T12:20:58Z</time>
      </trkpt>
      <trkpt lat="43.9340554" lon="8.1070327">
        <ele>48.9000000</ele>
        <time>2010-03-07T12:21:01Z</time>
      </trkpt>
      <trkpt lat="43.9340020" lon="8.1069298">
        <ele>46.8000000</ele>
        <time>2010-03-07T12:21:03Z</time>
      </trkpt>
      <trkpt lat="43.9338951" lon="8.1066141">
        <ele>40.2000000</ele>
        <time>2010-03-07T12:21:08Z</time>
      </trkpt>
      <trkpt lat="43.9339295" lon="8.1065188">
        <ele>38.0000000</ele>
        <time>2010-03-07T12:21:11Z</time>
      </trkpt>
      <trkpt lat="43.9339447" lon="8.1064262">
        <ele>34.6000000</ele>
        <time>2010-03-07T12:21:14Z</time>
      </trkpt>
      <trkpt lat="43.9338798" lon="8.1063395">
        <ele>31.4000000</ele>
        <time>2010-03-07T12:21:17Z</time>
      </trkpt>
      <trkpt lat="43.9336891" lon="8.1063308">
        <ele>29.4000000</ele>
        <time>2010-03-07T12:21:21Z</time>
      </trkpt>
      <trkpt lat="43.9336395" lon="8.1063519">
        <ele>29.5000000</ele>
        <time>2010-03-07T12:21:22Z</time>
      </trkpt>
      <trkpt lat="43.9334679" lon="8.1063728">
        <ele>31.4000000</ele>
        <time>2010-03-07T12:21:27Z</time>
      </trkpt>
      <trkpt lat="43.9332352" lon="8.1063785">
        <ele>29.6000000</ele>
        <time>2010-03-07T12:21:32Z</time>
      </trkpt>
      <trkpt lat="43.9331779" lon="8.1062670">
        <ele>25.9000000</ele>
        <time>2010-03-07T12:21:35Z</time>
      </trkpt>
      <trkpt lat="43.9329949" lon="8.1062622">
        <ele>22.6000000</ele>
        <time>2010-03-07T12:21:38Z</time>
      </trkpt>
      <trkpt lat="43.9327812" lon="8.1062785">
        <ele>21.9000000</ele>
        <time>2010-03-07T12:21:41Z</time>
      </trkpt>
      <trkpt lat="43.9326516" lon="8.1061602">
        <ele>20.1000000</ele>
        <time>2010-03-07T12:21:44Z</time>
      </trkpt>
      <trkpt lat="43.9325714" lon="8.1060619">
        <ele>18.8000000</ele>
        <time>2010-03-07T12:21:46Z</time>
      </trkpt>
      <trkpt lat="43.9324646" lon="8.1059580">
        <ele>17.3000000</ele>
        <time>2010-03-07T12:21:49Z</time>
      </trkpt>
      <trkpt lat="43.9322967" lon="8.1057568">
        <ele>14.9000000</ele>
        <time>2010-03-07T12:21:53Z</time>
      </trkpt>
      <trkpt lat="43.9322166" lon="8.1054583">
        <ele>11.0000000</ele>
        <time>2010-03-07T12:21:58Z</time>
      </trkpt>
    </trkseg>
  </trk>

  <trk>
    <name>PS_3</name>
    <extensions>
      <gpxx:TrackExtension xmlns:gpxx="http://www.garmin.com/xmlschemas/GpxExtensions/v3">
        <gpxx:DisplayColor>Red</gpxx:DisplayColor>
      </gpxx:TrackExtension>
    </extensions>
    <trkseg>
      <trkpt lat="43.9497796" lon="8.0770416">
        <ele>403.9000000</ele>
        <time>2010-03-07T13:54:31Z</time>
      </trkpt>
      <trkpt lat="43.9497223" lon="8.0770560">
        <ele>404.5000000</ele>
        <time>2010-03-07T13:54:39Z</time>
      </trkpt>
      <trkpt lat="43.9496574" lon="8.0771017">
        <ele>406.6000000</ele>
        <time>2010-03-07T13:54:46Z</time>
      </trkpt>
      <trkpt lat="43.9496345" lon="8.0771083">
        <ele>406.9000000</ele>
        <time>2010-03-07T13:54:51Z</time>
      </trkpt>
      <trkpt lat="43.9496345" lon="8.0771113">
        <ele>406.7000000</ele>
        <time>2010-03-07T13:55:02Z</time>
      </trkpt>
      <trkpt lat="43.9496308" lon="8.0771103">
        <ele>406.7000000</ele>
        <time>2010-03-07T13:55:04Z</time>
      </trkpt>
      <trkpt lat="43.9496308" lon="8.0771113">
        <ele>406.8000000</ele>
        <time>2010-03-07T13:55:05Z</time>
      </trkpt>
      <trkpt lat="43.9496308" lon="8.0771150">
        <ele>406.6000000</ele>
        <time>2010-03-07T13:55:28Z</time>
      </trkpt>
      <trkpt lat="43.9496308" lon="8.0771150">
        <ele>406.3000000</ele>
        <time>2010-03-07T13:55:35Z</time>
      </trkpt>
      <trkpt lat="43.9496002" lon="8.0771179">
        <ele>406.4000000</ele>
        <time>2010-03-07T13:55:42Z</time>
      </trkpt>
      <trkpt lat="43.9495964" lon="8.0771198">
        <ele>406.8000000</ele>
        <time>2010-03-07T13:55:52Z</time>
      </trkpt>
      <trkpt lat="43.9496002" lon="8.0771150">
        <ele>406.4000000</ele>
        <time>2010-03-07T13:56:15Z</time>
      </trkpt>
      <trkpt lat="43.9496002" lon="8.0771131">
        <ele>405.5000000</ele>
        <time>2010-03-07T13:56:27Z</time>
      </trkpt>
      <trkpt lat="43.9496002" lon="8.0771131">
        <ele>405.6000000</ele>
        <time>2010-03-07T13:56:28Z</time>
      </trkpt>
      <trkpt lat="43.9496002" lon="8.0771160">
        <ele>406.0000000</ele>
        <time>2010-03-07T13:56:35Z</time>
      </trkpt>
      <trkpt lat="43.9496002" lon="8.0771170">
        <ele>406.5000000</ele>
        <time>2010-03-07T13:56:37Z</time>
      </trkpt>
      <trkpt lat="43.9496002" lon="8.0771170">
        <ele>406.7000000</ele>
        <time>2010-03-07T13:56:38Z</time>
      </trkpt>
      <trkpt lat="43.9495964" lon="8.0771170">
        <ele>405.8000000</ele>
        <time>2010-03-07T13:56:50Z</time>
      </trkpt>
      <trkpt lat="43.9495849" lon="8.0771255">
        <ele>406.1000000</ele>
        <time>2010-03-07T13:57:03Z</time>
      </trkpt>
      <trkpt lat="43.9495620" lon="8.0771551">
        <ele>406.8000000</ele>
        <time>2010-03-07T13:57:25Z</time>
      </trkpt>
      <trkpt lat="43.9495583" lon="8.0771551">
        <ele>407.1000000</ele>
        <time>2010-03-07T13:57:27Z</time>
      </trkpt>
      <trkpt lat="43.9495583" lon="8.0771551">
        <ele>407.2000000</ele>
        <time>2010-03-07T13:57:28Z</time>
      </trkpt>
      <trkpt lat="43.9495544" lon="8.0771627">
        <ele>406.6000000</ele>
        <time>2010-03-07T13:57:39Z</time>
      </trkpt>
      <trkpt lat="43.9495392" lon="8.0771656">
        <ele>406.2000000</ele>
        <time>2010-03-07T13:57:48Z</time>
      </trkpt>
      <trkpt lat="43.9495392" lon="8.0771666">
        <ele>406.5000000</ele>
        <time>2010-03-07T13:57:56Z</time>
      </trkpt>
      <trkpt lat="43.9495430" lon="8.0771656">
        <ele>406.2000000</ele>
        <time>2010-03-07T13:58:00Z</time>
      </trkpt>
      <trkpt lat="43.9494591" lon="8.0772305">
        <ele>406.5000000</ele>
        <time>2010-03-07T13:58:04Z</time>
      </trkpt>
      <trkpt lat="43.9493828" lon="8.0773144">
        <ele>407.5000000</ele>
        <time>2010-03-07T13:58:07Z</time>
      </trkpt>
      <trkpt lat="43.9493332" lon="8.0774050">
        <ele>409.0000000</ele>
        <time>2010-03-07T13:58:10Z</time>
      </trkpt>
      <trkpt lat="43.9493103" lon="8.0774688">
        <ele>409.8000000</ele>
        <time>2010-03-07T13:58:12Z</time>
      </trkpt>
      <trkpt lat="43.9492683" lon="8.0775318">
        <ele>410.0000000</ele>
        <time>2010-03-07T13:58:14Z</time>
      </trkpt>
      <trkpt lat="43.9492378" lon="8.0775518">
        <ele>410.1000000</ele>
        <time>2010-03-07T13:58:15Z</time>
      </trkpt>
      <trkpt lat="43.9492111" lon="8.0775633">
        <ele>410.4000000</ele>
        <time>2010-03-07T13:58:16Z</time>
      </trkpt>
      <trkpt lat="43.9491463" lon="8.0775995">
        <ele>411.4000000</ele>
        <time>2010-03-07T13:58:19Z</time>
      </trkpt>
      <trkpt lat="43.9490623" lon="8.0777082">
        <ele>410.5000000</ele>
        <time>2010-03-07T13:58:22Z</time>
      </trkpt>
      <trkpt lat="43.9487877" lon="8.0778951">
        <ele>405.7000000</ele>
        <time>2010-03-07T13:58:27Z</time>
      </trkpt>
      <trkpt lat="43.9485130" lon="8.0779562">
        <ele>402.9000000</ele>
        <time>2010-03-07T13:58:31Z</time>
      </trkpt>
      <trkpt lat="43.9483757" lon="8.0780296">
        <ele>401.7000000</ele>
        <time>2010-03-07T13:58:33Z</time>
      </trkpt>
      <trkpt lat="43.9482384" lon="8.0781164">
        <ele>401.1000000</ele>
        <time>2010-03-07T13:58:35Z</time>
      </trkpt>
      <trkpt lat="43.9479218" lon="8.0782833">
        <ele>397.1000000</ele>
        <time>2010-03-07T13:58:40Z</time>
      </trkpt>
      <trkpt lat="43.9478760" lon="8.0783234">
        <ele>396.3000000</ele>
        <time>2010-03-07T13:58:41Z</time>
      </trkpt>
      <trkpt lat="43.9477959" lon="8.0783730">
        <ele>394.4000000</ele>
        <time>2010-03-07T13:58:43Z</time>
      </trkpt>
      <trkpt lat="43.9476433" lon="8.0785551">
        <ele>389.9000000</ele>
        <time>2010-03-07T13:58:47Z</time>
      </trkpt>
      <trkpt lat="43.9475517" lon="8.0789109">
        <ele>386.3000000</ele>
        <time>2010-03-07T13:58:51Z</time>
      </trkpt>
      <trkpt lat="43.9475365" lon="8.0791130">
        <ele>384.1000000</ele>
        <time>2010-03-07T13:58:53Z</time>
      </trkpt>
      <trkpt lat="43.9474335" lon="8.0795736">
        <ele>380.1000000</ele>
        <time>2010-03-07T13:58:58Z</time>
      </trkpt>
      <trkpt lat="43.9472657" lon="8.0799008">
        <ele>375.6000000</ele>
        <time>2010-03-07T13:59:02Z</time>
      </trkpt>
      <trkpt lat="43.9470291" lon="8.0803528">
        <ele>371.9000000</ele>
        <time>2010-03-07T13:59:07Z</time>
      </trkpt>
      <trkpt lat="43.9468956" lon="8.0805311">
        <ele>372.7000000</ele>
        <time>2010-03-07T13:59:10Z</time>
      </trkpt>
      <trkpt lat="43.9467964" lon="8.0806999">
        <ele>375.1000000</ele>
        <time>2010-03-07T13:59:15Z</time>
      </trkpt>
      <trkpt lat="43.9467659" lon="8.0807486">
        <ele>375.8000000</ele>
        <time>2010-03-07T13:59:17Z</time>
      </trkpt>
      <trkpt lat="43.9466248" lon="8.0809240">
        <ele>376.6000000</ele>
        <time>2010-03-07T13:59:22Z</time>
      </trkpt>
      <trkpt lat="43.9464187" lon="8.0810338">
        <ele>377.5000000</ele>
        <time>2010-03-07T13:59:28Z</time>
      </trkpt>
      <trkpt lat="43.9461556" lon="8.0810871">
        <ele>376.0000000</ele>
        <time>2010-03-07T13:59:34Z</time>
      </trkpt>
      <trkpt lat="43.9459763" lon="8.0811730">
        <ele>373.3000000</ele>
        <time>2010-03-07T13:59:37Z</time>
      </trkpt>
      <trkpt lat="43.9457092" lon="8.0813580">
        <ele>368.3000000</ele>
        <time>2010-03-07T13:59:41Z</time>
      </trkpt>
      <trkpt lat="43.9456558" lon="8.0814199">
        <ele>367.9000000</ele>
        <time>2010-03-07T13:59:42Z</time>
      </trkpt>
      <trkpt lat="43.9454537" lon="8.0816756">
        <ele>364.8000000</ele>
        <time>2010-03-07T13:59:46Z</time>
      </trkpt>
      <trkpt lat="43.9453354" lon="8.0818396">
        <ele>361.0000000</ele>
        <time>2010-03-07T13:59:50Z</time>
      </trkpt>
      <trkpt lat="43.9452439" lon="8.0818978">
        <ele>358.4000000</ele>
        <time>2010-03-07T13:59:52Z</time>
      </trkpt>
      <trkpt lat="43.9450035" lon="8.0820475">
        <ele>353.2000000</ele>
        <time>2010-03-07T13:59:56Z</time>
      </trkpt>
      <trkpt lat="43.9448051" lon="8.0822954">
        <ele>346.8000000</ele>
        <time>2010-03-07T14:00:00Z</time>
      </trkpt>
      <trkpt lat="43.9446106" lon="8.0825834">
        <ele>340.1000000</ele>
        <time>2010-03-07T14:00:04Z</time>
      </trkpt>
      <trkpt lat="43.9444084" lon="8.0827923">
        <ele>336.6000000</ele>
        <time>2010-03-07T14:00:07Z</time>
      </trkpt>
      <trkpt lat="43.9441795" lon="8.0828371">
        <ele>335.1000000</ele>
        <time>2010-03-07T14:00:10Z</time>
      </trkpt>
      <trkpt lat="43.9440575" lon="8.0828180">
        <ele>335.7000000</ele>
        <time>2010-03-07T14:00:12Z</time>
      </trkpt>
      <trkpt lat="43.9438248" lon="8.0827503">
        <ele>336.2000000</ele>
        <time>2010-03-07T14:00:17Z</time>
      </trkpt>
      <trkpt lat="43.9437408" lon="8.0827284">
        <ele>336.1000000</ele>
        <time>2010-03-07T14:00:19Z</time>
      </trkpt>
      <trkpt lat="43.9435349" lon="8.0825825">
        <ele>335.0000000</ele>
        <time>2010-03-07T14:00:24Z</time>
      </trkpt>
      <trkpt lat="43.9434547" lon="8.0825272">
        <ele>334.5000000</ele>
        <time>2010-03-07T14:00:26Z</time>
      </trkpt>
      <trkpt lat="43.9433022" lon="8.0824452">
        <ele>334.1000000</ele>
        <time>2010-03-07T14:00:30Z</time>
      </trkpt>
      <trkpt lat="43.9432411" lon="8.0823860">
        <ele>333.8000000</ele>
        <time>2010-03-07T14:00:32Z</time>
      </trkpt>
      <trkpt lat="43.9430618" lon="8.0823317">
        <ele>332.2000000</ele>
        <time>2010-03-07T14:00:37Z</time>
      </trkpt>
      <trkpt lat="43.9429779" lon="8.0823851">
        <ele>331.2000000</ele>
        <time>2010-03-07T14:00:39Z</time>
      </trkpt>
      <trkpt lat="43.9427796" lon="8.0825091">
        <ele>327.3000000</ele>
        <time>2010-03-07T14:00:44Z</time>
      </trkpt>
      <trkpt lat="43.9426003" lon="8.0825567">
        <ele>325.3000000</ele>
        <time>2010-03-07T14:00:48Z</time>
      </trkpt>
      <trkpt lat="43.9425010" lon="8.0825252">
        <ele>323.8000000</ele>
        <time>2010-03-07T14:00:51Z</time>
      </trkpt>
      <trkpt lat="43.9424095" lon="8.0825367">
        <ele>322.7000000</ele>
        <time>2010-03-07T14:00:53Z</time>
      </trkpt>
      <trkpt lat="43.9422493" lon="8.0825539">
        <ele>320.2000000</ele>
        <time>2010-03-07T14:00:56Z</time>
      </trkpt>
      <trkpt lat="43.9420777" lon="8.0824833">
        <ele>316.6000000</ele>
        <time>2010-03-07T14:01:00Z</time>
      </trkpt>
      <trkpt lat="43.9419937" lon="8.0824547">
        <ele>314.8000000</ele>
        <time>2010-03-07T14:01:03Z</time>
      </trkpt>
      <trkpt lat="43.9419136" lon="8.0824470">
        <ele>313.0000000</ele>
        <time>2010-03-07T14:01:05Z</time>
      </trkpt>
      <trkpt lat="43.9417686" lon="8.0823793">
        <ele>309.0000000</ele>
        <time>2010-03-07T14:01:09Z</time>
      </trkpt>
      <trkpt lat="43.9416885" lon="8.0823135">
        <ele>306.3000000</ele>
        <time>2010-03-07T14:01:11Z</time>
      </trkpt>
      <trkpt lat="43.9414826" lon="8.0822868">
        <ele>302.2000000</ele>
        <time>2010-03-07T14:01:15Z</time>
      </trkpt>
      <trkpt lat="43.9413834" lon="8.0822773">
        <ele>300.6000000</ele>
        <time>2010-03-07T14:01:17Z</time>
      </trkpt>
      <trkpt lat="43.9411659" lon="8.0823908">
        <ele>296.3000000</ele>
        <time>2010-03-07T14:01:22Z</time>
      </trkpt>
      <trkpt lat="43.9409905" lon="8.0824204">
        <ele>294.6000000</ele>
        <time>2010-03-07T14:01:25Z</time>
      </trkpt>
      <trkpt lat="43.9409332" lon="8.0824346">
        <ele>294.3000000</ele>
        <time>2010-03-07T14:01:26Z</time>
      </trkpt>
      <trkpt lat="43.9407044" lon="8.0825062">
        <ele>293.7000000</ele>
        <time>2010-03-07T14:01:30Z</time>
      </trkpt>
      <trkpt lat="43.9405441" lon="8.0826521">
        <ele>292.8000000</ele>
        <time>2010-03-07T14:01:34Z</time>
      </trkpt>
      <trkpt lat="43.9403534" lon="8.0827256">
        <ele>291.0000000</ele>
        <time>2010-03-07T14:01:38Z</time>
      </trkpt>
      <trkpt lat="43.9402504" lon="8.0827665">
        <ele>290.4000000</ele>
        <time>2010-03-07T14:01:40Z</time>
      </trkpt>
      <trkpt lat="43.9399376" lon="8.0828380">
        <ele>284.8000000</ele>
        <time>2010-03-07T14:01:45Z</time>
      </trkpt>
      <trkpt lat="43.9397087" lon="8.0829602">
        <ele>282.2000000</ele>
        <time>2010-03-07T14:01:48Z</time>
      </trkpt>
      <trkpt lat="43.9393158" lon="8.0831184">
        <ele>276.8000000</ele>
        <time>2010-03-07T14:01:53Z</time>
      </trkpt>
      <trkpt lat="43.9392510" lon="8.0830669">
        <ele>275.6000000</ele>
        <time>2010-03-07T14:01:54Z</time>
      </trkpt>
      <trkpt lat="43.9390220" lon="8.0828142">
        <ele>272.0000000</ele>
        <time>2010-03-07T14:01:58Z</time>
      </trkpt>
      <trkpt lat="43.9388161" lon="8.0826311">
        <ele>268.1000000</ele>
        <time>2010-03-07T14:02:02Z</time>
      </trkpt>
      <trkpt lat="43.9387474" lon="8.0824957">
        <ele>267.1000000</ele>
        <time>2010-03-07T14:02:04Z</time>
      </trkpt>
      <trkpt lat="43.9386521" lon="8.0824718">
        <ele>265.9000000</ele>
        <time>2010-03-07T14:02:06Z</time>
      </trkpt>
      <trkpt lat="43.9385452" lon="8.0824651">
        <ele>264.6000000</ele>
        <time>2010-03-07T14:02:08Z</time>
      </trkpt>
      <trkpt lat="43.9382476" lon="8.0824127">
        <ele>260.2000000</ele>
        <time>2010-03-07T14:02:13Z</time>
      </trkpt>
      <trkpt lat="43.9381790" lon="8.0823536">
        <ele>258.9000000</ele>
        <time>2010-03-07T14:02:15Z</time>
      </trkpt>
      <trkpt lat="43.9381447" lon="8.0823278">
        <ele>258.5000000</ele>
        <time>2010-03-07T14:02:16Z</time>
      </trkpt>
      <trkpt lat="43.9378509" lon="8.0822754">
        <ele>253.1000000</ele>
        <time>2010-03-07T14:02:21Z</time>
      </trkpt>
      <trkpt lat="43.9376182" lon="8.0824041">
        <ele>250.2000000</ele>
        <time>2010-03-07T14:02:25Z</time>
      </trkpt>
      <trkpt lat="43.9374962" lon="8.0825805">
        <ele>248.4000000</ele>
        <time>2010-03-07T14:02:28Z</time>
      </trkpt>
      <trkpt lat="43.9374504" lon="8.0826321">
        <ele>247.5000000</ele>
        <time>2010-03-07T14:02:29Z</time>
      </trkpt>
      <trkpt lat="43.9372902" lon="8.0828047">
        <ele>245.2000000</ele>
        <time>2010-03-07T14:02:32Z</time>
      </trkpt>
      <trkpt lat="43.9370766" lon="8.0830230">
        <ele>241.7000000</ele>
        <time>2010-03-07T14:02:37Z</time>
      </trkpt>
      <trkpt lat="43.9369392" lon="8.0831528">
        <ele>239.9000000</ele>
        <time>2010-03-07T14:02:40Z</time>
      </trkpt>
      <trkpt lat="43.9367752" lon="8.0831890">
        <ele>238.2000000</ele>
        <time>2010-03-07T14:02:43Z</time>
      </trkpt>
      <trkpt lat="43.9367065" lon="8.0831814">
        <ele>237.8000000</ele>
        <time>2010-03-07T14:02:44Z</time>
      </trkpt>
      <trkpt lat="43.9364548" lon="8.0832892">
        <ele>233.9000000</ele>
        <time>2010-03-07T14:02:48Z</time>
      </trkpt>
      <trkpt lat="43.9361077" lon="8.0833340">
        <ele>230.0000000</ele>
        <time>2010-03-07T14:02:53Z</time>
      </trkpt>
      <trkpt lat="43.9359703" lon="8.0833158">
        <ele>227.7000000</ele>
        <time>2010-03-07T14:02:55Z</time>
      </trkpt>
      <trkpt lat="43.9357147" lon="8.0834436">
        <ele>224.6000000</ele>
        <time>2010-03-07T14:02:59Z</time>
      </trkpt>
      <trkpt lat="43.9356346" lon="8.0835886">
        <ele>222.5000000</ele>
        <time>2010-03-07T14:03:02Z</time>
      </trkpt>
      <trkpt lat="43.9355469" lon="8.0839033">
        <ele>219.2000000</ele>
        <time>2010-03-07T14:03:07Z</time>
      </trkpt>
      <trkpt lat="43.9355393" lon="8.0841093">
        <ele>217.2000000</ele>
        <time>2010-03-07T14:03:10Z</time>
      </trkpt>
      <trkpt lat="43.9355163" lon="8.0841646">
        <ele>216.4000000</ele>
        <time>2010-03-07T14:03:11Z</time>
      </trkpt>
      <trkpt lat="43.9353638" lon="8.0844117">
        <ele>212.7000000</ele>
        <time>2010-03-07T14:03:15Z</time>
      </trkpt>
      <trkpt lat="43.9351806" lon="8.0846949">
        <ele>209.6000000</ele>
        <time>2010-03-07T14:03:19Z</time>
      </trkpt>
      <trkpt lat="43.9351082" lon="8.0849219">
        <ele>208.5000000</ele>
        <time>2010-03-07T14:03:22Z</time>
      </trkpt>
      <trkpt lat="43.9350815" lon="8.0851650">
        <ele>205.9000000</ele>
        <time>2010-03-07T14:03:25Z</time>
      </trkpt>
      <trkpt lat="43.9349442" lon="8.0855798">
        <ele>203.0000000</ele>
        <time>2010-03-07T14:03:30Z</time>
      </trkpt>
      <trkpt lat="43.9348755" lon="8.0857391">
        <ele>203.0000000</ele>
        <time>2010-03-07T14:03:32Z</time>
      </trkpt>
      <trkpt lat="43.9347687" lon="8.0860796">
        <ele>201.2000000</ele>
        <time>2010-03-07T14:03:36Z</time>
      </trkpt>
      <trkpt lat="43.9346428" lon="8.0864325">
        <ele>198.3000000</ele>
        <time>2010-03-07T14:03:40Z</time>
      </trkpt>
      <trkpt lat="43.9345894" lon="8.0867233">
        <ele>195.3000000</ele>
        <time>2010-03-07T14:03:44Z</time>
      </trkpt>
      <trkpt lat="43.9345665" lon="8.0869608">
        <ele>191.9000000</ele>
        <time>2010-03-07T14:03:48Z</time>
      </trkpt>
      <trkpt lat="43.9345665" lon="8.0871982">
        <ele>188.4000000</ele>
        <time>2010-03-07T14:03:51Z</time>
      </trkpt>
      <trkpt lat="43.9345017" lon="8.0875130">
        <ele>183.9000000</ele>
        <time>2010-03-07T14:03:55Z</time>
      </trkpt>
      <trkpt lat="43.9344558" lon="8.0876694">
        <ele>181.2000000</ele>
        <time>2010-03-07T14:03:57Z</time>
      </trkpt>
      <trkpt lat="43.9342918" lon="8.0879297">
        <ele>177.8000000</ele>
        <time>2010-03-07T14:04:01Z</time>
      </trkpt>
      <trkpt lat="43.9341545" lon="8.0881214">
        <ele>173.8000000</ele>
        <time>2010-03-07T14:04:04Z</time>
      </trkpt>
      <trkpt lat="43.9340172" lon="8.0882988">
        <ele>170.4000000</ele>
        <time>2010-03-07T14:04:07Z</time>
      </trkpt>
      <trkpt lat="43.9340096" lon="8.0885830">
        <ele>167.1000000</ele>
        <time>2010-03-07T14:04:10Z</time>
      </trkpt>
      <trkpt lat="43.9339866" lon="8.0891971">
        <ele>159.8000000</ele>
        <time>2010-03-07T14:04:16Z</time>
      </trkpt>
      <trkpt lat="43.9338684" lon="8.0895882">
        <ele>155.6000000</ele>
        <time>2010-03-07T14:04:20Z</time>
      </trkpt>
      <trkpt lat="43.9337349" lon="8.0898266">
        <ele>151.1000000</ele>
        <time>2010-03-07T14:04:23Z</time>
      </trkpt>
      <trkpt lat="43.9336280" lon="8.0901699">
        <ele>145.3000000</ele>
        <time>2010-03-07T14:04:27Z</time>
      </trkpt>
      <trkpt lat="43.9335213" lon="8.0904503">
        <ele>140.8000000</ele>
        <time>2010-03-07T14:04:31Z</time>
      </trkpt>
      <trkpt lat="43.9334640" lon="8.0908251">
        <ele>137.2000000</ele>
        <time>2010-03-07T14:04:35Z</time>
      </trkpt>
      <trkpt lat="43.9334374" lon="8.0909061">
        <ele>136.3000000</ele>
        <time>2010-03-07T14:04:36Z</time>
      </trkpt>
      <trkpt lat="43.9332047" lon="8.0912819">
        <ele>136.6000000</ele>
        <time>2010-03-07T14:04:42Z</time>
      </trkpt>
      <trkpt lat="43.9330864" lon="8.0914869">
        <ele>139.0000000</ele>
        <time>2010-03-07T14:04:47Z</time>
      </trkpt>
      <trkpt lat="43.9330788" lon="8.0915222">
        <ele>139.2000000</ele>
        <time>2010-03-07T14:04:48Z</time>
      </trkpt>
      <trkpt lat="43.9330444" lon="8.0917301">
        <ele>141.2000000</ele>
        <time>2010-03-07T14:04:54Z</time>
      </trkpt>
      <trkpt lat="43.9329834" lon="8.0918398">
        <ele>141.7000000</ele>
        <time>2010-03-07T14:04:58Z</time>
      </trkpt>
      <trkpt lat="43.9328499" lon="8.0920219">
        <ele>142.3000000</ele>
        <time>2010-03-07T14:05:05Z</time>
      </trkpt>
      <trkpt lat="43.9327126" lon="8.0920534">
        <ele>141.7000000</ele>
        <time>2010-03-07T14:05:09Z</time>
      </trkpt>
      <trkpt lat="43.9325485" lon="8.0921030">
        <ele>140.5000000</ele>
        <time>2010-03-07T14:05:13Z</time>
      </trkpt>
      <trkpt lat="43.9324494" lon="8.0921021">
        <ele>140.3000000</ele>
        <time>2010-03-07T14:05:16Z</time>
      </trkpt>
      <trkpt lat="43.9323540" lon="8.0921068">
        <ele>139.6000000</ele>
        <time>2010-03-07T14:05:18Z</time>
      </trkpt>
      <trkpt lat="43.9321251" lon="8.0921717">
        <ele>138.6000000</ele>
        <time>2010-03-07T14:05:23Z</time>
      </trkpt>
      <trkpt lat="43.9319687" lon="8.0923071">
        <ele>137.9000000</ele>
        <time>2010-03-07T14:05:27Z</time>
      </trkpt>
      <trkpt lat="43.9318009" lon="8.0924321">
        <ele>137.6000000</ele>
        <time>2010-03-07T14:05:31Z</time>
      </trkpt>
      <trkpt lat="43.9317093" lon="8.0924521">
        <ele>137.7000000</ele>
        <time>2010-03-07T14:05:33Z</time>
      </trkpt>
      <trkpt lat="43.9314003" lon="8.0925656">
        <ele>138.9000000</ele>
        <time>2010-03-07T14:05:41Z</time>
      </trkpt>
      <trkpt lat="43.9311714" lon="8.0925979">
        <ele>139.3000000</ele>
        <time>2010-03-07T14:05:47Z</time>
      </trkpt>
      <trkpt lat="43.9309235" lon="8.0926399">
        <ele>140.1000000</ele>
        <time>2010-03-07T14:05:53Z</time>
      </trkpt>
      <trkpt lat="43.9308586" lon="8.0926752">
        <ele>140.3000000</ele>
        <time>2010-03-07T14:05:55Z</time>
      </trkpt>
      <trkpt lat="43.9307251" lon="8.0927048">
        <ele>140.4000000</ele>
        <time>2010-03-07T14:06:01Z</time>
      </trkpt>
      <trkpt lat="43.9306984" lon="8.0927229">
        <ele>140.5000000</ele>
        <time>2010-03-07T14:06:02Z</time>
      </trkpt>
      <trkpt lat="43.9305572" lon="8.0927439">
        <ele>141.1000000</ele>
        <time>2010-03-07T14:06:08Z</time>
      </trkpt>
      <trkpt lat="43.9304200" lon="8.0927687">
        <ele>141.4000000</ele>
        <time>2010-03-07T14:06:13Z</time>
      </trkpt>
      <trkpt lat="43.9302292" lon="8.0927839">
        <ele>141.0000000</ele>
        <time>2010-03-07T14:06:18Z</time>
      </trkpt>
      <trkpt lat="43.9300766" lon="8.0929155">
        <ele>141.2000000</ele>
        <time>2010-03-07T14:06:23Z</time>
      </trkpt>
      <trkpt lat="43.9300118" lon="8.0929565">
        <ele>141.1000000</ele>
        <time>2010-03-07T14:06:25Z</time>
      </trkpt>
      <trkpt lat="43.9299355" lon="8.0930138">
        <ele>140.6000000</ele>
        <time>2010-03-07T14:06:27Z</time>
      </trkpt>
      <trkpt lat="43.9296074" lon="8.0931578">
        <ele>137.1000000</ele>
        <time>2010-03-07T14:06:33Z</time>
      </trkpt>
      <trkpt lat="43.9294205" lon="8.0933323">
        <ele>134.4000000</ele>
        <time>2010-03-07T14:06:37Z</time>
      </trkpt>
      <trkpt lat="43.9293938" lon="8.0934067">
        <ele>134.0000000</ele>
        <time>2010-03-07T14:06:38Z</time>
      </trkpt>
      <trkpt lat="43.9291954" lon="8.0937529">
        <ele>131.0000000</ele>
        <time>2010-03-07T14:06:43Z</time>
      </trkpt>
      <trkpt lat="43.9291115" lon="8.0939178">
        <ele>130.1000000</ele>
        <time>2010-03-07T14:06:46Z</time>
      </trkpt>
      <trkpt lat="43.9289818" lon="8.0940771">
        <ele>127.9000000</ele>
        <time>2010-03-07T14:06:50Z</time>
      </trkpt>
      <trkpt lat="43.9287834" lon="8.0941210">
        <ele>124.0000000</ele>
        <time>2010-03-07T14:06:55Z</time>
      </trkpt>
      <trkpt lat="43.9286270" lon="8.0941267">
        <ele>121.7000000</ele>
        <time>2010-03-07T14:06:59Z</time>
      </trkpt>
      <trkpt lat="43.9283943" lon="8.0941629">
        <ele>118.7000000</ele>
        <time>2010-03-07T14:07:03Z</time>
      </trkpt>
      <trkpt lat="43.9282303" lon="8.0942803">
        <ele>116.6000000</ele>
        <time>2010-03-07T14:07:06Z</time>
      </trkpt>
      <trkpt lat="43.9279709" lon="8.0945310">
        <ele>112.9000000</ele>
        <time>2010-03-07T14:07:10Z</time>
      </trkpt>
      <trkpt lat="43.9277382" lon="8.0946779">
        <ele>110.4000000</ele>
        <time>2010-03-07T14:07:13Z</time>
      </trkpt>
      <trkpt lat="43.9274254" lon="8.0949373">
        <ele>104.8000000</ele>
        <time>2010-03-07T14:07:17Z</time>
      </trkpt>
      <trkpt lat="43.9270935" lon="8.0951023">
        <ele>99.8000000</ele>
        <time>2010-03-07T14:07:21Z</time>
      </trkpt>
      <trkpt lat="43.9266319" lon="8.0952769">
        <ele>92.1000000</ele>
        <time>2010-03-07T14:07:26Z</time>
      </trkpt>
      <trkpt lat="43.9264526" lon="8.0951843">
        <ele>88.0000000</ele>
        <time>2010-03-07T14:07:29Z</time>
      </trkpt>
      <trkpt lat="43.9263267" lon="8.0950957">
        <ele>84.8000000</ele>
        <time>2010-03-07T14:07:32Z</time>
      </trkpt>
      <trkpt lat="43.9261360" lon="8.0949841">
        <ele>80.7000000</ele>
        <time>2010-03-07T14:07:36Z</time>
      </trkpt>
      <trkpt lat="43.9260483" lon="8.0948763">
        <ele>77.4000000</ele>
        <time>2010-03-07T14:07:39Z</time>
      </trkpt>
      <trkpt lat="43.9258156" lon="8.0947609">
        <ele>72.2000000</ele>
        <time>2010-03-07T14:07:44Z</time>
      </trkpt>
      <trkpt lat="43.9256973" lon="8.0948277">
        <ele>70.1000000</ele>
        <time>2010-03-07T14:07:47Z</time>
      </trkpt>
      <trkpt lat="43.9256134" lon="8.0947351">
        <ele>66.0000000</ele>
        <time>2010-03-07T14:07:51Z</time>
      </trkpt>
      <trkpt lat="43.9255714" lon="8.0946378">
        <ele>62.7000000</ele>
        <time>2010-03-07T14:07:54Z</time>
      </trkpt>
      <trkpt lat="43.9254875" lon="8.0946131">
        <ele>61.1000000</ele>
        <time>2010-03-07T14:07:56Z</time>
      </trkpt>
      <trkpt lat="43.9252891" lon="8.0945044">
        <ele>52.3000000</ele>
        <time>2010-03-07T14:08:02Z</time>
      </trkpt>
      <trkpt lat="43.9252510" lon="8.0945034">
        <ele>51.6000000</ele>
        <time>2010-03-07T14:08:03Z</time>
      </trkpt>
      <trkpt lat="43.9252090" lon="8.0945683">
        <ele>50.8000000</ele>
        <time>2010-03-07T14:08:05Z</time>
      </trkpt>
      <trkpt lat="43.9251480" lon="8.0947066">
        <ele>51.1000000</ele>
        <time>2010-03-07T14:08:08Z</time>
      </trkpt>
      <trkpt lat="43.9249687" lon="8.0948086">
        <ele>49.3000000</ele>
        <time>2010-03-07T14:08:12Z</time>
      </trkpt>
      <trkpt lat="43.9249268" lon="8.0949259">
        <ele>48.3000000</ele>
        <time>2010-03-07T14:08:14Z</time>
      </trkpt>
      <trkpt lat="43.9249153" lon="8.0950022">
        <ele>47.6000000</ele>
        <time>2010-03-07T14:08:15Z</time>
      </trkpt>
      <trkpt lat="43.9248504" lon="8.0952397">
        <ele>48.5000000</ele>
        <time>2010-03-07T14:08:19Z</time>
      </trkpt>
    </trkseg>
  </trk>

  <trk>
    <name>Trasfer_1</name>
    <extensions>
      <gpxx:TrackExtension xmlns:gpxx="http://www.garmin.com/xmlschemas/GpxExtensions/v3">
        <gpxx:DisplayColor>Blue</gpxx:DisplayColor>
      </gpxx:TrackExtension>
    </extensions>
    <trkseg>
      <trkpt lat="43.9216805" lon="8.1055107">
        <ele>6.5000000</ele>
        <time>2010-03-07T09:24:37Z</time>
      </trkpt>
      <trkpt lat="43.9219246" lon="8.1053476">
        <ele>7.2000000</ele>
        <time>2010-03-07T09:24:45Z</time>
      </trkpt>
      <trkpt lat="43.9221458" lon="8.1052389">
        <ele>7.5000000</ele>
        <time>2010-03-07T09:24:52Z</time>
      </trkpt>
      <trkpt lat="43.9223519" lon="8.1051492">
        <ele>8.4000000</ele>
        <time>2010-03-07T09:24:59Z</time>
      </trkpt>
      <trkpt lat="43.9224090" lon="8.1051435">
        <ele>8.4000000</ele>
        <time>2010-03-07T09:25:01Z</time>
      </trkpt>
      <trkpt lat="43.9225044" lon="8.1052809">
        <ele>9.1000000</ele>
        <time>2010-03-07T09:25:06Z</time>
      </trkpt>
      <trkpt lat="43.9225731" lon="8.1055422">
        <ele>9.6000000</ele>
        <time>2010-03-07T09:25:13Z</time>
      </trkpt>
      <trkpt lat="43.9227028" lon="8.1059408">
        <ele>9.8000000</ele>
        <time>2010-03-07T09:25:24Z</time>
      </trkpt>
      <trkpt lat="43.9228897" lon="8.1065188">
        <ele>9.9000000</ele>
        <time>2010-03-07T09:25:38Z</time>
      </trkpt>
      <trkpt lat="43.9230309" lon="8.1069346">
        <ele>10.1000000</ele>
        <time>2010-03-07T09:25:48Z</time>
      </trkpt>
      <trkpt lat="43.9231414" lon="8.1072569">
        <ele>8.2000000</ele>
        <time>2010-03-07T09:25:55Z</time>
      </trkpt>
      <trkpt lat="43.9230538" lon="8.1072673">
        <ele>7.3000000</ele>
        <time>2010-03-07T09:25:58Z</time>
      </trkpt>
      <trkpt lat="43.9229126" lon="8.1072349">
        <ele>6.3000000</ele>
        <time>2010-03-07T09:26:01Z</time>
      </trkpt>
      <trkpt lat="43.9228096" lon="8.1072836">
        <ele>6.2000000</ele>
        <time>2010-03-07T09:26:03Z</time>
      </trkpt>
      <trkpt lat="43.9225426" lon="8.1074276">
        <ele>6.2000000</ele>
        <time>2010-03-07T09:26:10Z</time>
      </trkpt>
      <trkpt lat="43.9221535" lon="8.1076812">
        <ele>5.4000000</ele>
        <time>2010-03-07T09:26:20Z</time>
      </trkpt>
      <trkpt lat="43.9220733" lon="8.1077328">
        <ele>5.5000000</ele>
        <time>2010-03-07T09:26:22Z</time>
      </trkpt>
      <trkpt lat="43.9219208" lon="8.1078520">
        <ele>5.3000000</ele>
        <time>2010-03-07T09:26:26Z</time>
      </trkpt>
      <trkpt lat="43.9217834" lon="8.1078014">
        <ele>5.1000000</ele>
        <time>2010-03-07T09:26:30Z</time>
      </trkpt>
      <trkpt lat="43.9217262" lon="8.1076450">
        <ele>4.9000000</ele>
        <time>2010-03-07T09:26:33Z</time>
      </trkpt>
      <trkpt lat="43.9216919" lon="8.1073103">
        <ele>4.5000000</ele>
        <time>2010-03-07T09:26:39Z</time>
      </trkpt>
      <trkpt lat="43.9217224" lon="8.1072712">
        <ele>4.6000000</ele>
        <time>2010-03-07T09:26:40Z</time>
      </trkpt>
      <trkpt lat="43.9219704" lon="8.1071176">
        <ele>4.8000000</ele>
        <time>2010-03-07T09:26:47Z</time>
      </trkpt>
      <trkpt lat="43.9222374" lon="8.1069470">
        <ele>4.9000000</ele>
        <time>2010-03-07T09:26:55Z</time>
      </trkpt>
      <trkpt lat="43.9225197" lon="8.1067133">
        <ele>5.8000000</ele>
        <time>2010-03-07T09:27:04Z</time>
      </trkpt>
      <trkpt lat="43.9227447" lon="8.1065779">
        <ele>5.1000000</ele>
        <time>2010-03-07T09:27:11Z</time>
      </trkpt>
      <trkpt lat="43.9228745" lon="8.1064577">
        <ele>5.4000000</ele>
        <time>2010-03-07T09:27:17Z</time>
      </trkpt>
      <trkpt lat="43.9229698" lon="8.1064062">
        <ele>5.4000000</ele>
        <time>2010-03-07T09:27:22Z</time>
      </trkpt>
      <trkpt lat="43.9232368" lon="8.1062956">
        <ele>5.9000000</ele>
        <time>2010-03-07T09:27:31Z</time>
      </trkpt>
      <trkpt lat="43.9234047" lon="8.1062813">
        <ele>6.0000000</ele>
        <time>2010-03-07T09:27:37Z</time>
      </trkpt>
      <trkpt lat="43.9234619" lon="8.1062918">
        <ele>6.0000000</ele>
        <time>2010-03-07T09:27:39Z</time>
      </trkpt>
      <trkpt lat="43.9236183" lon="8.1065378">
        <ele>7.6000000</ele>
        <time>2010-03-07T09:27:48Z</time>
      </trkpt>
      <trkpt lat="43.9237938" lon="8.1068401">
        <ele>7.7000000</ele>
        <time>2010-03-07T09:27:58Z</time>
      </trkpt>
      <trkpt lat="43.9239998" lon="8.1068039">
        <ele>8.3000000</ele>
        <time>2010-03-07T09:28:05Z</time>
      </trkpt>
      <trkpt lat="43.9242249" lon="8.1067229">
        <ele>8.4000000</ele>
        <time>2010-03-07T09:28:12Z</time>
      </trkpt>
      <trkpt lat="43.9243774" lon="8.1066647">
        <ele>8.5000000</ele>
        <time>2010-03-07T09:28:17Z</time>
      </trkpt>
      <trkpt lat="43.9246445" lon="8.1065302">
        <ele>9.0000000</ele>
        <time>2010-03-07T09:28:26Z</time>
      </trkpt>
      <trkpt lat="43.9248238" lon="8.1063633">
        <ele>9.2000000</ele>
        <time>2010-03-07T09:28:33Z</time>
      </trkpt>
      <trkpt lat="43.9250031" lon="8.1062308">
        <ele>9.7000000</ele>
        <time>2010-03-07T09:28:39Z</time>
      </trkpt>
      <trkpt lat="43.9252854" lon="8.1061201">
        <ele>9.4000000</ele>
        <time>2010-03-07T09:28:48Z</time>
      </trkpt>
      <trkpt lat="43.9256782" lon="8.1061888">
        <ele>10.3000000</ele>
        <time>2010-03-07T09:29:01Z</time>
      </trkpt>
      <trkpt lat="43.9259873" lon="8.1062288">
        <ele>11.3000000</ele>
        <time>2010-03-07T09:29:12Z</time>
      </trkpt>
      <trkpt lat="43.9262313" lon="8.1062536">
        <ele>12.6000000</ele>
        <time>2010-03-07T09:29:21Z</time>
      </trkpt>
      <trkpt lat="43.9264335" lon="8.1062822">
        <ele>12.5000000</ele>
        <time>2010-03-07T09:29:28Z</time>
      </trkpt>
      <trkpt lat="43.9266281" lon="8.1062556">
        <ele>13.0000000</ele>
        <time>2010-03-07T09:29:35Z</time>
      </trkpt>
      <trkpt lat="43.9268532" lon="8.1061573">
        <ele>12.6000000</ele>
        <time>2010-03-07T09:29:42Z</time>
      </trkpt>
      <trkpt lat="43.9268913" lon="8.1061401">
        <ele>12.4000000</ele>
        <time>2010-03-07T09:29:43Z</time>
      </trkpt>
      <trkpt lat="43.9272118" lon="8.1060038">
        <ele>13.2000000</ele>
        <time>2010-03-07T09:29:53Z</time>
      </trkpt>
      <trkpt lat="43.9274865" lon="8.1059437">
        <ele>13.8000000</ele>
        <time>2010-03-07T09:30:02Z</time>
      </trkpt>
      <trkpt lat="43.9277687" lon="8.1058903">
        <ele>14.4000000</ele>
        <time>2010-03-07T09:30:11Z</time>
      </trkpt>
      <trkpt lat="43.9280433" lon="8.1058293">
        <ele>15.2000000</ele>
        <time>2010-03-07T09:30:20Z</time>
      </trkpt>
      <trkpt lat="43.9283143" lon="8.1057729">
        <ele>15.5000000</ele>
        <time>2010-03-07T09:30:29Z</time>
      </trkpt>
      <trkpt lat="43.9285851" lon="8.1056871">
        <ele>16.2000000</ele>
        <time>2010-03-07T09:30:38Z</time>
      </trkpt>
      <trkpt lat="43.9287605" lon="8.1056566">
        <ele>16.4000000</ele>
        <time>2010-03-07T09:30:44Z</time>
      </trkpt>
      <trkpt lat="43.9290543" lon="8.1056624">
        <ele>16.7000000</ele>
        <time>2010-03-07T09:30:53Z</time>
      </trkpt>
      <trkpt lat="43.9294129" lon="8.1056242">
        <ele>17.3000000</ele>
        <time>2010-03-07T09:31:04Z</time>
      </trkpt>
      <trkpt lat="43.9296989" lon="8.1055755">
        <ele>18.0000000</ele>
        <time>2010-03-07T09:31:13Z</time>
      </trkpt>
      <trkpt lat="43.9299240" lon="8.1055336">
        <ele>17.5000000</ele>
        <time>2010-03-07T09:31:20Z</time>
      </trkpt>
      <trkpt lat="43.9302216" lon="8.1054954">
        <ele>17.9000000</ele>
        <time>2010-03-07T09:31:29Z</time>
      </trkpt>
      <trkpt lat="43.9304771" lon="8.1054668">
        <ele>18.5000000</ele>
        <time>2010-03-07T09:31:37Z</time>
      </trkpt>
      <trkpt lat="43.9306984" lon="8.1054402">
        <ele>18.8000000</ele>
        <time>2010-03-07T09:31:44Z</time>
      </trkpt>
      <trkpt lat="43.9309197" lon="8.1054773">
        <ele>19.0000000</ele>
        <time>2010-03-07T09:31:51Z</time>
      </trkpt>
      <trkpt lat="43.9311600" lon="8.1055422">
        <ele>19.6000000</ele>
        <time>2010-03-07T09:31:59Z</time>
      </trkpt>
      <trkpt lat="43.9313964" lon="8.1055403">
        <ele>20.7000000</ele>
        <time>2010-03-07T09:32:07Z</time>
      </trkpt>
      <trkpt lat="43.9316216" lon="8.1055040">
        <ele>21.2000000</ele>
        <time>2010-03-07T09:32:15Z</time>
      </trkpt>
      <trkpt lat="43.9318962" lon="8.1054382">
        <ele>21.7000000</ele>
        <time>2010-03-07T09:32:25Z</time>
      </trkpt>
      <trkpt lat="43.9321442" lon="8.1053657">
        <ele>22.2000000</ele>
        <time>2010-03-07T09:32:34Z</time>
      </trkpt>
      <trkpt lat="43.9324188" lon="8.1053610">
        <ele>22.8000000</ele>
        <time>2010-03-07T09:32:44Z</time>
      </trkpt>
      <trkpt lat="43.9327087" lon="8.1053725">
        <ele>23.3000000</ele>
        <time>2010-03-07T09:32:54Z</time>
      </trkpt>
      <trkpt lat="43.9329681" lon="8.1053686">
        <ele>23.7000000</ele>
        <time>2010-03-07T09:33:03Z</time>
      </trkpt>
      <trkpt lat="43.9332237" lon="8.1053553">
        <ele>24.0000000</ele>
        <time>2010-03-07T09:33:12Z</time>
      </trkpt>
      <trkpt lat="43.9334717" lon="8.1052723">
        <ele>24.4000000</ele>
        <time>2010-03-07T09:33:21Z</time>
      </trkpt>
      <trkpt lat="43.9336891" lon="8.1052046">
        <ele>24.8000000</ele>
        <time>2010-03-07T09:33:29Z</time>
      </trkpt>
      <trkpt lat="43.9339103" lon="8.1051321">
        <ele>24.7000000</ele>
        <time>2010-03-07T09:33:37Z</time>
      </trkpt>
      <trkpt lat="43.9341889" lon="8.1050358">
        <ele>24.9000000</ele>
        <time>2010-03-07T09:33:47Z</time>
      </trkpt>
      <trkpt lat="43.9344368" lon="8.1049633">
        <ele>25.5000000</ele>
        <time>2010-03-07T09:33:56Z</time>
      </trkpt>
      <trkpt lat="43.9346275" lon="8.1049290">
        <ele>25.9000000</ele>
        <time>2010-03-07T09:34:04Z</time>
      </trkpt>
      <trkpt lat="43.9348526" lon="8.1048747">
        <ele>27.3000000</ele>
        <time>2010-03-07T09:34:13Z</time>
      </trkpt>
      <trkpt lat="43.9351082" lon="8.1048498">
        <ele>28.4000000</ele>
        <time>2010-03-07T09:34:23Z</time>
      </trkpt>
      <trkpt lat="43.9353524" lon="8.1048393">
        <ele>29.5000000</ele>
        <time>2010-03-07T09:34:33Z</time>
      </trkpt>
      <trkpt lat="43.9355812" lon="8.1048222">
        <ele>30.1000000</ele>
        <time>2010-03-07T09:34:42Z</time>
      </trkpt>
      <trkpt lat="43.9357986" lon="8.1047468">
        <ele>29.9000000</ele>
        <time>2010-03-07T09:34:50Z</time>
      </trkpt>
      <trkpt lat="43.9360123" lon="8.1046791">
        <ele>29.2000000</ele>
        <time>2010-03-07T09:34:57Z</time>
      </trkpt>
      <trkpt lat="43.9362450" lon="8.1046706">
        <ele>28.9000000</ele>
        <time>2010-03-07T09:35:05Z</time>
      </trkpt>
      <trkpt lat="43.9364319" lon="8.1046848">
        <ele>29.0000000</ele>
        <time>2010-03-07T09:35:12Z</time>
      </trkpt>
      <trkpt lat="43.9366226" lon="8.1046619">
        <ele>30.0000000</ele>
        <time>2010-03-07T09:35:20Z</time>
      </trkpt>
      <trkpt lat="43.9368057" lon="8.1046076">
        <ele>30.7000000</ele>
        <time>2010-03-07T09:35:28Z</time>
      </trkpt>
      <trkpt lat="43.9370117" lon="8.1045351">
        <ele>30.5000000</ele>
        <time>2010-03-07T09:35:37Z</time>
      </trkpt>
      <trkpt lat="43.9372253" lon="8.1044483">
        <ele>30.4000000</ele>
        <time>2010-03-07T09:35:46Z</time>
      </trkpt>
      <trkpt lat="43.9374122" lon="8.1043673">
        <ele>30.8000000</ele>
        <time>2010-03-07T09:35:54Z</time>
      </trkpt>
      <trkpt lat="43.9375725" lon="8.1042586">
        <ele>31.4000000</ele>
        <time>2010-03-07T09:36:01Z</time>
      </trkpt>
      <trkpt lat="43.9377632" lon="8.1041269">
        <ele>32.5000000</ele>
        <time>2010-03-07T09:36:10Z</time>
      </trkpt>
      <trkpt lat="43.9378433" lon="8.1040735">
        <ele>34.2000000</ele>
        <time>2010-03-07T09:36:14Z</time>
      </trkpt>
      <trkpt lat="43.9379387" lon="8.1040086">
        <ele>34.6000000</ele>
        <time>2010-03-07T09:36:19Z</time>
      </trkpt>
      <trkpt lat="43.9380912" lon="8.1039114">
        <ele>36.3000000</ele>
        <time>2010-03-07T09:36:27Z</time>
      </trkpt>
      <trkpt lat="43.9382171" lon="8.1038323">
        <ele>37.2000000</ele>
        <time>2010-03-07T09:36:34Z</time>
      </trkpt>
      <trkpt lat="43.9383621" lon="8.1037340">
        <ele>38.7000000</ele>
        <time>2010-03-07T09:36:42Z</time>
      </trkpt>
      <trkpt lat="43.9384957" lon="8.1037140">
        <ele>38.7000000</ele>
        <time>2010-03-07T09:36:48Z</time>
      </trkpt>
      <trkpt lat="43.9385872" lon="8.1039057">
        <ele>39.0000000</ele>
        <time>2010-03-07T09:36:55Z</time>
      </trkpt>
      <trkpt lat="43.9386902" lon="8.1042356">
        <ele>39.0000000</ele>
        <time>2010-03-07T09:37:05Z</time>
      </trkpt>
      <trkpt lat="43.9387283" lon="8.1044531">
        <ele>39.9000000</ele>
        <time>2010-03-07T09:37:12Z</time>
      </trkpt>
      <trkpt lat="43.9386787" lon="8.1045913">
        <ele>40.8000000</ele>
        <time>2010-03-07T09:37:17Z</time>
      </trkpt>
      <trkpt lat="43.9385338" lon="8.1047783">
        <ele>42.5000000</ele>
        <time>2010-03-07T09:37:26Z</time>
      </trkpt>
      <trkpt lat="43.9384041" lon="8.1049786">
        <ele>43.9000000</ele>
        <time>2010-03-07T09:37:35Z</time>
      </trkpt>
      <trkpt lat="43.9383774" lon="8.1051502">
        <ele>44.9000000</ele>
        <time>2010-03-07T09:37:41Z</time>
      </trkpt>
      <trkpt lat="43.9384537" lon="8.1053381">
        <ele>45.8000000</ele>
        <time>2010-03-07T09:37:48Z</time>
      </trkpt>
      <trkpt lat="43.9386253" lon="8.1055030">
        <ele>46.4000000</ele>
        <time>2010-03-07T09:37:57Z</time>
      </trkpt>
      <trkpt lat="43.9388542" lon="8.1055908">
        <ele>47.5000000</ele>
        <time>2010-03-07T09:38:07Z</time>
      </trkpt>
      <trkpt lat="43.9390335" lon="8.1056442">
        <ele>48.2000000</ele>
        <time>2010-03-07T09:38:15Z</time>
      </trkpt>
      <trkpt lat="43.9392547" lon="8.1057167">
        <ele>49.0000000</ele>
        <time>2010-03-07T09:38:25Z</time>
      </trkpt>
      <trkpt lat="43.9394531" lon="8.1057853">
        <ele>50.1000000</ele>
        <time>2010-03-07T09:38:34Z</time>
      </trkpt>
      <trkpt lat="43.9396095" lon="8.1058359">
        <ele>50.7000000</ele>
        <time>2010-03-07T09:38:41Z</time>
      </trkpt>
      <trkpt lat="43.9397392" lon="8.1058988">
        <ele>51.3000000</ele>
        <time>2010-03-07T09:38:47Z</time>
      </trkpt>
      <trkpt lat="43.9399109" lon="8.1060600">
        <ele>53.5000000</ele>
        <time>2010-03-07T09:38:56Z</time>
      </trkpt>
      <trkpt lat="43.9400825" lon="8.1062241">
        <ele>54.5000000</ele>
        <time>2010-03-07T09:39:06Z</time>
      </trkpt>
      <trkpt lat="43.9401932" lon="8.1063604">
        <ele>55.6000000</ele>
        <time>2010-03-07T09:39:13Z</time>
      </trkpt>
      <trkpt lat="43.9403725" lon="8.1065340">
        <ele>57.3000000</ele>
        <time>2010-03-07T09:39:24Z</time>
      </trkpt>
      <trkpt lat="43.9405517" lon="8.1066637">
        <ele>58.8000000</ele>
        <time>2010-03-07T09:39:34Z</time>
      </trkpt>
      <trkpt lat="43.9407463" lon="8.1067887">
        <ele>60.5000000</ele>
        <time>2010-03-07T09:39:45Z</time>
      </trkpt>
      <trkpt lat="43.9409256" lon="8.1068811">
        <ele>62.4000000</ele>
        <time>2010-03-07T09:39:55Z</time>
      </trkpt>
      <trkpt lat="43.9410935" lon="8.1069555">
        <ele>64.2000000</ele>
        <time>2010-03-07T09:40:04Z</time>
      </trkpt>
      <trkpt lat="43.9412651" lon="8.1070632">
        <ele>65.4000000</ele>
        <time>2010-03-07T09:40:14Z</time>
      </trkpt>
      <trkpt lat="43.9414024" lon="8.1071902">
        <ele>67.1000000</ele>
        <time>2010-03-07T09:40:23Z</time>
      </trkpt>
      <trkpt lat="43.9415397" lon="8.1073418">
        <ele>68.1000000</ele>
        <time>2010-03-07T09:40:32Z</time>
      </trkpt>
      <trkpt lat="43.9416809" lon="8.1074819">
        <ele>69.1000000</ele>
        <time>2010-03-07T09:40:41Z</time>
      </trkpt>
      <trkpt lat="43.9418144" lon="8.1076165">
        <ele>70.7000000</ele>
        <time>2010-03-07T09:40:50Z</time>
      </trkpt>
      <trkpt lat="43.9419289" lon="8.1077614">
        <ele>71.6000000</ele>
        <time>2010-03-07T09:40:58Z</time>
      </trkpt>
      <trkpt lat="43.9420395" lon="8.1079187">
        <ele>72.4000000</ele>
        <time>2010-03-07T09:41:06Z</time>
      </trkpt>
      <trkpt lat="43.9421692" lon="8.1080542">
        <ele>73.6000000</ele>
        <time>2010-03-07T09:41:15Z</time>
      </trkpt>
      <trkpt lat="43.9421882" lon="8.1080542">
        <ele>73.8000000</ele>
        <time>2010-03-07T09:41:16Z</time>
      </trkpt>
      <trkpt lat="43.9422570" lon="8.1079273">
        <ele>75.0000000</ele>
        <time>2010-03-07T09:41:22Z</time>
      </trkpt>
      <trkpt lat="43.9422035" lon="8.1078128">
        <ele>75.8000000</ele>
        <time>2010-03-07T09:41:27Z</time>
      </trkpt>
      <trkpt lat="43.9420662" lon="8.1076784">
        <ele>76.0000000</ele>
        <time>2010-03-07T09:41:34Z</time>
      </trkpt>
      <trkpt lat="43.9419708" lon="8.1075830">
        <ele>76.8000000</ele>
        <time>2010-03-07T09:41:40Z</time>
      </trkpt>
      <trkpt lat="43.9418831" lon="8.1074486">
        <ele>77.7000000</ele>
        <time>2010-03-07T09:41:47Z</time>
      </trkpt>
      <trkpt lat="43.9417991" lon="8.1073303">
        <ele>78.2000000</ele>
        <time>2010-03-07T09:41:52Z</time>
      </trkpt>
      <trkpt lat="43.9417076" lon="8.1072178">
        <ele>78.9000000</ele>
        <time>2010-03-07T09:41:58Z</time>
      </trkpt>
      <trkpt lat="43.9416085" lon="8.1071024">
        <ele>79.7000000</ele>
        <time>2010-03-07T09:42:05Z</time>
      </trkpt>
      <trkpt lat="43.9415207" lon="8.1069470">
        <ele>80.6000000</ele>
        <time>2010-03-07T09:42:12Z</time>
      </trkpt>
      <trkpt lat="43.9414063" lon="8.1067190">
        <ele>81.6000000</ele>
        <time>2010-03-07T09:42:20Z</time>
      </trkpt>
      <trkpt lat="43.9412994" lon="8.1065607">
        <ele>83.0000000</ele>
        <time>2010-03-07T09:42:27Z</time>
      </trkpt>
      <trkpt lat="43.9412460" lon="8.1064758">
        <ele>83.5000000</ele>
        <time>2010-03-07T09:42:33Z</time>
      </trkpt>
      <trkpt lat="43.9411697" lon="8.1063232">
        <ele>84.0000000</ele>
        <time>2010-03-07T09:42:38Z</time>
      </trkpt>
      <trkpt lat="43.9410896" lon="8.1062136">
        <ele>85.2000000</ele>
        <time>2010-03-07T09:42:44Z</time>
      </trkpt>
      <trkpt lat="43.9409942" lon="8.1060676">
        <ele>86.3000000</ele>
        <time>2010-03-07T09:42:51Z</time>
      </trkpt>
      <trkpt lat="43.9408646" lon="8.1059513">
        <ele>86.6000000</ele>
        <time>2010-03-07T09:42:58Z</time>
      </trkpt>
      <trkpt lat="43.9406815" lon="8.1058092">
        <ele>87.6000000</ele>
        <time>2010-03-07T09:43:07Z</time>
      </trkpt>
      <trkpt lat="43.9405289" lon="8.1056843">
        <ele>88.6000000</ele>
        <time>2010-03-07T09:43:15Z</time>
      </trkpt>
      <trkpt lat="43.9404297" lon="8.1054926">
        <ele>89.3000000</ele>
        <time>2010-03-07T09:43:23Z</time>
      </trkpt>
      <trkpt lat="43.9404564" lon="8.1052170">
        <ele>90.0000000</ele>
        <time>2010-03-07T09:43:32Z</time>
      </trkpt>
      <trkpt lat="43.9405556" lon="8.1049575">
        <ele>91.4000000</ele>
        <time>2010-03-07T09:43:41Z</time>
      </trkpt>
      <trkpt lat="43.9406624" lon="8.1047564">
        <ele>92.5000000</ele>
        <time>2010-03-07T09:43:49Z</time>
      </trkpt>
      <trkpt lat="43.9408340" lon="8.1045961">
        <ele>93.9000000</ele>
        <time>2010-03-07T09:43:58Z</time>
      </trkpt>
      <trkpt lat="43.9410095" lon="8.1045789">
        <ele>94.2000000</ele>
        <time>2010-03-07T09:44:06Z</time>
      </trkpt>
      <trkpt lat="43.9411697" lon="8.1046048">
        <ele>96.2000000</ele>
        <time>2010-03-07T09:44:14Z</time>
      </trkpt>
      <trkpt lat="43.9412956" lon="8.1046390">
        <ele>97.0000000</ele>
        <time>2010-03-07T09:44:20Z</time>
      </trkpt>
      <trkpt lat="43.9413987" lon="8.1046124">
        <ele>97.6000000</ele>
        <time>2010-03-07T09:44:27Z</time>
      </trkpt>
      <trkpt lat="43.9414520" lon="8.1046162">
        <ele>97.9000000</ele>
        <time>2010-03-07T09:44:31Z</time>
      </trkpt>
      <trkpt lat="43.9416046" lon="8.1046018">
        <ele>98.8000000</ele>
        <time>2010-03-07T09:44:37Z</time>
      </trkpt>
      <trkpt lat="43.9417229" lon="8.1046009">
        <ele>99.6000000</ele>
        <time>2010-03-07T09:44:43Z</time>
      </trkpt>
      <trkpt lat="43.9418678" lon="8.1045523">
        <ele>100.8000000</ele>
        <time>2010-03-07T09:44:50Z</time>
      </trkpt>
      <trkpt lat="43.9419937" lon="8.1045704">
        <ele>101.5000000</ele>
        <time>2010-03-07T09:44:55Z</time>
      </trkpt>
      <trkpt lat="43.9420204" lon="8.1045647">
        <ele>101.6000000</ele>
        <time>2010-03-07T09:44:56Z</time>
      </trkpt>
      <trkpt lat="43.9421692" lon="8.1045122">
        <ele>102.2000000</ele>
        <time>2010-03-07T09:45:03Z</time>
      </trkpt>
      <trkpt lat="43.9423141" lon="8.1044569">
        <ele>103.2000000</ele>
        <time>2010-03-07T09:45:10Z</time>
      </trkpt>
      <trkpt lat="43.9424134" lon="8.1044960">
        <ele>104.0000000</ele>
        <time>2010-03-07T09:45:15Z</time>
      </trkpt>
      <trkpt lat="43.9425659" lon="8.1045799">
        <ele>104.7000000</ele>
        <time>2010-03-07T09:45:22Z</time>
      </trkpt>
      <trkpt lat="43.9426727" lon="8.1046286">
        <ele>105.5000000</ele>
        <time>2010-03-07T09:45:27Z</time>
      </trkpt>
      <trkpt lat="43.9427032" lon="8.1046524">
        <ele>105.9000000</ele>
        <time>2010-03-07T09:45:29Z</time>
      </trkpt>
      <trkpt lat="43.9427986" lon="8.1047201">
        <ele>106.4000000</ele>
        <time>2010-03-07T09:45:35Z</time>
      </trkpt>
      <trkpt lat="43.9429321" lon="8.1048126">
        <ele>107.7000000</ele>
        <time>2010-03-07T09:45:42Z</time>
      </trkpt>
      <trkpt lat="43.9431076" lon="8.1048985">
        <ele>108.7000000</ele>
        <time>2010-03-07T09:45:50Z</time>
      </trkpt>
      <trkpt lat="43.9432983" lon="8.1049166">
        <ele>110.1000000</ele>
        <time>2010-03-07T09:45:58Z</time>
      </trkpt>
      <trkpt lat="43.9434662" lon="8.1049156">
        <ele>111.1000000</ele>
        <time>2010-03-07T09:46:06Z</time>
      </trkpt>
      <trkpt lat="43.9436455" lon="8.1048841">
        <ele>112.0000000</ele>
        <time>2010-03-07T09:46:15Z</time>
      </trkpt>
      <trkpt lat="43.9438057" lon="8.1048717">
        <ele>113.1000000</ele>
        <time>2010-03-07T09:46:23Z</time>
      </trkpt>
      <trkpt lat="43.9439392" lon="8.1048527">
        <ele>114.2000000</ele>
        <time>2010-03-07T09:46:30Z</time>
      </trkpt>
      <trkpt lat="43.9441109" lon="8.1049357">
        <ele>115.7000000</ele>
        <time>2010-03-07T09:46:39Z</time>
      </trkpt>
      <trkpt lat="43.9442788" lon="8.1050244">
        <ele>117.3000000</ele>
        <time>2010-03-07T09:46:48Z</time>
      </trkpt>
      <trkpt lat="43.9444161" lon="8.1050844">
        <ele>117.8000000</ele>
        <time>2010-03-07T09:46:55Z</time>
      </trkpt>
      <trkpt lat="43.9445762" lon="8.1051474">
        <ele>118.6000000</ele>
        <time>2010-03-07T09:47:03Z</time>
      </trkpt>
      <trkpt lat="43.9447289" lon="8.1052026">
        <ele>119.7000000</ele>
        <time>2010-03-07T09:47:11Z</time>
      </trkpt>
      <trkpt lat="43.9448853" lon="8.1052570">
        <ele>120.6000000</ele>
        <time>2010-03-07T09:47:19Z</time>
      </trkpt>
      <trkpt lat="43.9450302" lon="8.1052914">
        <ele>121.9000000</ele>
        <time>2010-03-07T09:47:26Z</time>
      </trkpt>
      <trkpt lat="43.9451523" lon="8.1052895">
        <ele>122.6000000</ele>
        <time>2010-03-07T09:47:32Z</time>
      </trkpt>
      <trkpt lat="43.9453239" lon="8.1052418">
        <ele>123.2000000</ele>
        <time>2010-03-07T09:47:40Z</time>
      </trkpt>
      <trkpt lat="43.9453926" lon="8.1052856">
        <ele>123.9000000</ele>
        <time>2010-03-07T09:47:44Z</time>
      </trkpt>
      <trkpt lat="43.9453545" lon="8.1054067">
        <ele>125.0000000</ele>
        <time>2010-03-07T09:47:50Z</time>
      </trkpt>
      <trkpt lat="43.9453316" lon="8.1054134">
        <ele>125.1000000</ele>
        <time>2010-03-07T09:47:51Z</time>
      </trkpt>
      <trkpt lat="43.9451828" lon="8.1054058">
        <ele>125.9000000</ele>
        <time>2010-03-07T09:47:58Z</time>
      </trkpt>
      <trkpt lat="43.9449577" lon="8.1053877">
        <ele>126.9000000</ele>
        <time>2010-03-07T09:48:08Z</time>
      </trkpt>
      <trkpt lat="43.9447632" lon="8.1054258">
        <ele>128.1000000</ele>
        <time>2010-03-07T09:48:17Z</time>
      </trkpt>
      <trkpt lat="43.9445381" lon="8.1054792">
        <ele>129.6000000</ele>
        <time>2010-03-07T09:48:28Z</time>
      </trkpt>
      <trkpt lat="43.9445152" lon="8.1054849">
        <ele>129.8000000</ele>
        <time>2010-03-07T09:48:29Z</time>
      </trkpt>
      <trkpt lat="43.9442329" lon="8.1055441">
        <ele>132.2000000</ele>
        <time>2010-03-07T09:48:43Z</time>
      </trkpt>
      <trkpt lat="43.9439888" lon="8.1056309">
        <ele>134.1000000</ele>
        <time>2010-03-07T09:48:55Z</time>
      </trkpt>
      <trkpt lat="43.9438362" lon="8.1056986">
        <ele>134.9000000</ele>
        <time>2010-03-07T09:49:03Z</time>
      </trkpt>
      <trkpt lat="43.9436379" lon="8.1057777">
        <ele>136.5000000</ele>
        <time>2010-03-07T09:49:13Z</time>
      </trkpt>
      <trkpt lat="43.9434624" lon="8.1058082">
        <ele>137.4000000</ele>
        <time>2010-03-07T09:49:22Z</time>
      </trkpt>
      <trkpt lat="43.9433251" lon="8.1058273">
        <ele>138.9000000</ele>
        <time>2010-03-07T09:49:29Z</time>
      </trkpt>
      <trkpt lat="43.9431190" lon="8.1058369">
        <ele>140.2000000</ele>
        <time>2010-03-07T09:49:39Z</time>
      </trkpt>
      <trkpt lat="43.9429855" lon="8.1058149">
        <ele>141.0000000</ele>
        <time>2010-03-07T09:49:46Z</time>
      </trkpt>
      <trkpt lat="43.9428330" lon="8.1057835">
        <ele>141.2000000</ele>
        <time>2010-03-07T09:49:52Z</time>
      </trkpt>
      <trkpt lat="43.9427147" lon="8.1057863">
        <ele>141.8000000</ele>
        <time>2010-03-07T09:49:57Z</time>
      </trkpt>
      <trkpt lat="43.9425850" lon="8.1058846">
        <ele>142.9000000</ele>
        <time>2010-03-07T09:50:04Z</time>
      </trkpt>
      <trkpt lat="43.9425392" lon="8.1060438">
        <ele>143.7000000</ele>
        <time>2010-03-07T09:50:10Z</time>
      </trkpt>
      <trkpt lat="43.9425735" lon="8.1062212">
        <ele>144.1000000</ele>
        <time>2010-03-07T09:50:16Z</time>
      </trkpt>
      <trkpt lat="43.9426880" lon="8.1063785">
        <ele>144.8000000</ele>
        <time>2010-03-07T09:50:23Z</time>
      </trkpt>
      <trkpt lat="43.9428711" lon="8.1065359">
        <ele>144.9000000</ele>
        <time>2010-03-07T09:50:32Z</time>
      </trkpt>
      <trkpt lat="43.9430237" lon="8.1065798">
        <ele>145.4000000</ele>
        <time>2010-03-07T09:50:39Z</time>
      </trkpt>
      <trkpt lat="43.9431724" lon="8.1065283">
        <ele>145.4000000</ele>
        <time>2010-03-07T09:50:46Z</time>
      </trkpt>
      <trkpt lat="43.9433365" lon="8.1064453">
        <ele>145.5000000</ele>
        <time>2010-03-07T09:50:53Z</time>
      </trkpt>
      <trkpt lat="43.9435577" lon="8.1063490">
        <ele>146.2000000</ele>
        <time>2010-03-07T09:51:02Z</time>
      </trkpt>
      <trkpt lat="43.9437370" lon="8.1063347">
        <ele>146.4000000</ele>
        <time>2010-03-07T09:51:09Z</time>
      </trkpt>
      <trkpt lat="43.9439048" lon="8.1063556">
        <ele>147.2000000</ele>
        <time>2010-03-07T09:51:16Z</time>
      </trkpt>
      <trkpt lat="43.9440765" lon="8.1063862">
        <ele>148.2000000</ele>
        <time>2010-03-07T09:51:24Z</time>
      </trkpt>
      <trkpt lat="43.9442139" lon="8.1064310">
        <ele>149.3000000</ele>
        <time>2010-03-07T09:51:31Z</time>
      </trkpt>
      <trkpt lat="43.9444161" lon="8.1065083">
        <ele>151.0000000</ele>
        <time>2010-03-07T09:51:42Z</time>
      </trkpt>
      <trkpt lat="43.9445801" lon="8.1065789">
        <ele>152.1000000</ele>
        <time>2010-03-07T09:51:51Z</time>
      </trkpt>
      <trkpt lat="43.9446602" lon="8.1066275">
        <ele>152.5000000</ele>
        <time>2010-03-07T09:51:56Z</time>
      </trkpt>
      <trkpt lat="43.9448090" lon="8.1066961">
        <ele>154.0000000</ele>
        <time>2010-03-07T09:52:05Z</time>
      </trkpt>
      <trkpt lat="43.9449807" lon="8.1067724">
        <ele>154.9000000</ele>
        <time>2010-03-07T09:52:15Z</time>
      </trkpt>
      <trkpt lat="43.9451294" lon="8.1068229">
        <ele>155.8000000</ele>
        <time>2010-03-07T09:52:23Z</time>
      </trkpt>
      <trkpt lat="43.9453087" lon="8.1068830">
        <ele>157.3000000</ele>
        <time>2010-03-07T09:52:33Z</time>
      </trkpt>
      <trkpt lat="43.9454574" lon="8.1069298">
        <ele>158.9000000</ele>
        <time>2010-03-07T09:52:41Z</time>
      </trkpt>
      <trkpt lat="43.9456291" lon="8.1070070">
        <ele>160.1000000</ele>
        <time>2010-03-07T09:52:51Z</time>
      </trkpt>
      <trkpt lat="43.9458084" lon="8.1070671">
        <ele>161.5000000</ele>
        <time>2010-03-07T09:53:01Z</time>
      </trkpt>
      <trkpt lat="43.9459229" lon="8.1070499">
        <ele>162.1000000</ele>
        <time>2010-03-07T09:53:07Z</time>
      </trkpt>
      <trkpt lat="43.9460411" lon="8.1070032">
        <ele>163.6000000</ele>
        <time>2010-03-07T09:53:14Z</time>
      </trkpt>
      <trkpt lat="43.9461479" lon="8.1069260">
        <ele>163.7000000</ele>
        <time>2010-03-07T09:53:20Z</time>
      </trkpt>
      <trkpt lat="43.9462318" lon="8.1068364">
        <ele>165.5000000</ele>
        <time>2010-03-07T09:53:25Z</time>
      </trkpt>
      <trkpt lat="43.9463272" lon="8.1066913">
        <ele>165.4000000</ele>
        <time>2010-03-07T09:53:32Z</time>
      </trkpt>
      <trkpt lat="43.9464187" lon="8.1064778">
        <ele>166.8000000</ele>
        <time>2010-03-07T09:53:41Z</time>
      </trkpt>
      <trkpt lat="43.9465409" lon="8.1062727">
        <ele>168.1000000</ele>
        <time>2010-03-07T09:53:51Z</time>
      </trkpt>
      <trkpt lat="43.9466705" lon="8.1062326">
        <ele>168.8000000</ele>
        <time>2010-03-07T09:53:58Z</time>
      </trkpt>
      <trkpt lat="43.9468383" lon="8.1062412">
        <ele>169.3000000</ele>
        <time>2010-03-07T09:54:07Z</time>
      </trkpt>
      <trkpt lat="43.9470406" lon="8.1062460">
        <ele>171.0000000</ele>
        <time>2010-03-07T09:54:17Z</time>
      </trkpt>
      <trkpt lat="43.9472237" lon="8.1062393">
        <ele>172.2000000</ele>
        <time>2010-03-07T09:54:26Z</time>
      </trkpt>
      <trkpt lat="43.9474144" lon="8.1061744">
        <ele>172.8000000</ele>
        <time>2010-03-07T09:54:35Z</time>
      </trkpt>
      <trkpt lat="43.9474983" lon="8.1061678">
        <ele>172.1000000</ele>
        <time>2010-03-07T09:54:39Z</time>
      </trkpt>
      <trkpt lat="43.9475136" lon="8.1062546">
        <ele>173.0000000</ele>
        <time>2010-03-07T09:54:44Z</time>
      </trkpt>
      <trkpt lat="43.9474868" lon="8.1062708">
        <ele>173.4000000</ele>
        <time>2010-03-07T09:54:46Z</time>
      </trkpt>
      <trkpt lat="43.9473076" lon="8.1063184">
        <ele>174.9000000</ele>
        <time>2010-03-07T09:54:55Z</time>
      </trkpt>
      <trkpt lat="43.9470596" lon="8.1064043">
        <ele>176.2000000</ele>
        <time>2010-03-07T09:55:07Z</time>
      </trkpt>
      <trkpt lat="43.9469108" lon="8.1065407">
        <ele>177.1000000</ele>
        <time>2010-03-07T09:55:16Z</time>
      </trkpt>
      <trkpt lat="43.9468537" lon="8.1067229">
        <ele>178.1000000</ele>
        <time>2010-03-07T09:55:23Z</time>
      </trkpt>
      <trkpt lat="43.9468689" lon="8.1069603">
        <ele>179.1000000</ele>
        <time>2010-03-07T09:55:31Z</time>
      </trkpt>
      <trkpt lat="43.9469337" lon="8.1071863">
        <ele>180.2000000</ele>
        <time>2010-03-07T09:55:39Z</time>
      </trkpt>
      <trkpt lat="43.9470444" lon="8.1074590">
        <ele>181.1000000</ele>
        <time>2010-03-07T09:55:50Z</time>
      </trkpt>
      <trkpt lat="43.9471588" lon="8.1077289">
        <ele>182.7000000</ele>
        <time>2010-03-07T09:56:01Z</time>
      </trkpt>
      <trkpt lat="43.9472389" lon="8.1079206">
        <ele>183.9000000</ele>
        <time>2010-03-07T09:56:09Z</time>
      </trkpt>
      <trkpt lat="43.9473381" lon="8.1081609">
        <ele>184.9000000</ele>
        <time>2010-03-07T09:56:19Z</time>
      </trkpt>
      <trkpt lat="43.9474373" lon="8.1082258">
        <ele>185.1000000</ele>
        <time>2010-03-07T09:56:25Z</time>
      </trkpt>
      <trkpt lat="43.9475136" lon="8.1081495">
        <ele>186.4000000</ele>
        <time>2010-03-07T09:56:30Z</time>
      </trkpt>
      <trkpt lat="43.9475212" lon="8.1081247">
        <ele>186.5000000</ele>
        <time>2010-03-07T09:56:31Z</time>
      </trkpt>
      <trkpt lat="43.9474945" lon="8.1079979">
        <ele>186.8000000</ele>
        <time>2010-03-07T09:56:36Z</time>
      </trkpt>
      <trkpt lat="43.9473877" lon="8.1077995">
        <ele>187.5000000</ele>
        <time>2010-03-07T09:56:44Z</time>
      </trkpt>
      <trkpt lat="43.9473152" lon="8.1075372">
        <ele>188.5000000</ele>
        <time>2010-03-07T09:56:53Z</time>
      </trkpt>
      <trkpt lat="43.9472999" lon="8.1073351">
        <ele>189.5000000</ele>
        <time>2010-03-07T09:57:00Z</time>
      </trkpt>
      <trkpt lat="43.9473572" lon="8.1070919">
        <ele>190.8000000</ele>
        <time>2010-03-07T09:57:09Z</time>
      </trkpt>
      <trkpt lat="43.9474755" lon="8.1069517">
        <ele>191.9000000</ele>
        <time>2010-03-07T09:57:17Z</time>
      </trkpt>
      <trkpt lat="43.9476166" lon="8.1068525">
        <ele>192.9000000</ele>
        <time>2010-03-07T09:57:25Z</time>
      </trkpt>
      <trkpt lat="43.9477692" lon="8.1067839">
        <ele>194.1000000</ele>
        <time>2010-03-07T09:57:33Z</time>
      </trkpt>
      <trkpt lat="43.9479752" lon="8.1067276">
        <ele>195.5000000</ele>
        <time>2010-03-07T09:57:43Z</time>
      </trkpt>
      <trkpt lat="43.9481582" lon="8.1067142">
        <ele>196.4000000</ele>
        <time>2010-03-07T09:57:52Z</time>
      </trkpt>
      <trkpt lat="43.9483680" lon="8.1066618">
        <ele>197.6000000</ele>
        <time>2010-03-07T09:58:02Z</time>
      </trkpt>
      <trkpt lat="43.9485702" lon="8.1065607">
        <ele>198.6000000</ele>
        <time>2010-03-07T09:58:12Z</time>
      </trkpt>
      <trkpt lat="43.9487915" lon="8.1064425">
        <ele>199.8000000</ele>
        <time>2010-03-07T09:58:23Z</time>
      </trkpt>
      <trkpt lat="43.9489746" lon="8.1063709">
        <ele>200.7000000</ele>
        <time>2010-03-07T09:58:32Z</time>
      </trkpt>
      <trkpt lat="43.9491082" lon="8.1063251">
        <ele>201.4000000</ele>
        <time>2010-03-07T09:58:38Z</time>
      </trkpt>
      <trkpt lat="43.9492378" lon="8.1062250">
        <ele>202.2000000</ele>
        <time>2010-03-07T09:58:45Z</time>
      </trkpt>
      <trkpt lat="43.9493751" lon="8.1060324">
        <ele>202.9000000</ele>
        <time>2010-03-07T09:58:54Z</time>
      </trkpt>
      <trkpt lat="43.9494705" lon="8.1060247">
        <ele>203.4000000</ele>
        <time>2010-03-07T09:58:59Z</time>
      </trkpt>
      <trkpt lat="43.9494896" lon="8.1060362">
        <ele>203.6000000</ele>
        <time>2010-03-07T09:59:00Z</time>
      </trkpt>
      <trkpt lat="43.9495354" lon="8.1061916">
        <ele>204.5000000</ele>
        <time>2010-03-07T09:59:06Z</time>
      </trkpt>
      <trkpt lat="43.9494705" lon="8.1064119">
        <ele>205.4000000</ele>
        <time>2010-03-07T09:59:14Z</time>
      </trkpt>
      <trkpt lat="43.9493485" lon="8.1065121">
        <ele>206.3000000</ele>
        <time>2010-03-07T09:59:21Z</time>
      </trkpt>
      <trkpt lat="43.9491463" lon="8.1066227">
        <ele>207.6000000</ele>
        <time>2010-03-07T09:59:31Z</time>
      </trkpt>
      <trkpt lat="43.9490089" lon="8.1066933">
        <ele>208.2000000</ele>
        <time>2010-03-07T09:59:38Z</time>
      </trkpt>
      <trkpt lat="43.9488678" lon="8.1068115">
        <ele>209.3000000</ele>
        <time>2010-03-07T09:59:46Z</time>
      </trkpt>
      <trkpt lat="43.9487305" lon="8.1069698">
        <ele>209.3000000</ele>
        <time>2010-03-07T09:59:54Z</time>
      </trkpt>
      <trkpt lat="43.9486084" lon="8.1071167">
        <ele>210.5000000</ele>
        <time>2010-03-07T10:00:01Z</time>
      </trkpt>
      <trkpt lat="43.9485283" lon="8.1072473">
        <ele>211.7000000</ele>
        <time>2010-03-07T10:00:07Z</time>
      </trkpt>
      <trkpt lat="43.9484978" lon="8.1073999">
        <ele>212.8000000</ele>
        <time>2010-03-07T10:00:12Z</time>
      </trkpt>
      <trkpt lat="43.9485588" lon="8.1075725">
        <ele>214.0000000</ele>
        <time>2010-03-07T10:00:18Z</time>
      </trkpt>
      <trkpt lat="43.9486618" lon="8.1076460">
        <ele>215.2000000</ele>
        <time>2010-03-07T10:00:24Z</time>
      </trkpt>
      <trkpt lat="43.9487572" lon="8.1075830">
        <ele>215.5000000</ele>
        <time>2010-03-07T10:00:29Z</time>
      </trkpt>
      <trkpt lat="43.9488525" lon="8.1073866">
        <ele>216.6000000</ele>
        <time>2010-03-07T10:00:37Z</time>
      </trkpt>
      <trkpt lat="43.9489403" lon="8.1072750">
        <ele>217.6000000</ele>
        <time>2010-03-07T10:00:43Z</time>
      </trkpt>
      <trkpt lat="43.9490967" lon="8.1072359">
        <ele>218.8000000</ele>
        <time>2010-03-07T10:00:51Z</time>
      </trkpt>
      <trkpt lat="43.9492187" lon="8.1072197">
        <ele>220.6000000</ele>
        <time>2010-03-07T10:00:58Z</time>
      </trkpt>
      <trkpt lat="43.9492340" lon="8.1072264">
        <ele>220.8000000</ele>
        <time>2010-03-07T10:00:59Z</time>
      </trkpt>
      <trkpt lat="43.9493103" lon="8.1073828">
        <ele>221.2000000</ele>
        <time>2010-03-07T10:01:06Z</time>
      </trkpt>
      <trkpt lat="43.9493217" lon="8.1074085">
        <ele>221.2000000</ele>
        <time>2010-03-07T10:01:08Z</time>
      </trkpt>
      <trkpt lat="43.9493828" lon="8.1074372">
        <ele>223.6000000</ele>
        <time>2010-03-07T10:01:12Z</time>
      </trkpt>
      <trkpt lat="43.9494019" lon="8.1074514">
        <ele>223.3000000</ele>
        <time>2010-03-07T10:01:13Z</time>
      </trkpt>
      <trkpt lat="43.9494362" lon="8.1074886">
        <ele>222.4000000</ele>
        <time>2010-03-07T10:01:15Z</time>
      </trkpt>
      <trkpt lat="43.9494820" lon="8.1075372">
        <ele>221.8000000</ele>
        <time>2010-03-07T10:01:18Z</time>
      </trkpt>
      <trkpt lat="43.9495125" lon="8.1075516">
        <ele>221.1000000</ele>
        <time>2010-03-07T10:01:20Z</time>
      </trkpt>
      <trkpt lat="43.9495315" lon="8.1075554">
        <ele>221.6000000</ele>
        <time>2010-03-07T10:01:21Z</time>
      </trkpt>
      <trkpt lat="43.9496155" lon="8.1075621">
        <ele>222.7000000</ele>
        <time>2010-03-07T10:01:26Z</time>
      </trkpt>
      <trkpt lat="43.9497032" lon="8.1075372">
        <ele>223.6000000</ele>
        <time>2010-03-07T10:01:30Z</time>
      </trkpt>
      <trkpt lat="43.9498253" lon="8.1074819">
        <ele>224.6000000</ele>
        <time>2010-03-07T10:01:37Z</time>
      </trkpt>
      <trkpt lat="43.9499397" lon="8.1074209">
        <ele>225.8000000</ele>
        <time>2010-03-07T10:01:44Z</time>
      </trkpt>
      <trkpt lat="43.9500465" lon="8.1074677">
        <ele>226.4000000</ele>
        <time>2010-03-07T10:01:50Z</time>
      </trkpt>
      <trkpt lat="43.9501915" lon="8.1075601">
        <ele>227.4000000</ele>
        <time>2010-03-07T10:01:57Z</time>
      </trkpt>
      <trkpt lat="43.9503746" lon="8.1076631">
        <ele>228.3000000</ele>
        <time>2010-03-07T10:02:06Z</time>
      </trkpt>
      <trkpt lat="43.9504662" lon="8.1077023">
        <ele>228.5000000</ele>
        <time>2010-03-07T10:02:11Z</time>
      </trkpt>
      <trkpt lat="43.9505959" lon="8.1077919">
        <ele>228.6000000</ele>
        <time>2010-03-07T10:02:17Z</time>
      </trkpt>
      <trkpt lat="43.9506989" lon="8.1078605">
        <ele>228.7000000</ele>
        <time>2010-03-07T10:02:21Z</time>
      </trkpt>
      <trkpt lat="43.9508514" lon="8.1080380">
        <ele>229.2000000</ele>
        <time>2010-03-07T10:02:27Z</time>
      </trkpt>
      <trkpt lat="43.9509316" lon="8.1082831">
        <ele>228.6000000</ele>
        <time>2010-03-07T10:02:33Z</time>
      </trkpt>
      <trkpt lat="43.9509926" lon="8.1084842">
        <ele>228.3000000</ele>
        <time>2010-03-07T10:02:38Z</time>
      </trkpt>
      <trkpt lat="43.9510422" lon="8.1087284">
        <ele>228.3000000</ele>
        <time>2010-03-07T10:02:43Z</time>
      </trkpt>
      <trkpt lat="43.9512024" lon="8.1090011">
        <ele>228.3000000</ele>
        <time>2010-03-07T10:02:50Z</time>
      </trkpt>
      <trkpt lat="43.9513664" lon="8.1091891">
        <ele>228.7000000</ele>
        <time>2010-03-07T10:02:56Z</time>
      </trkpt>
      <trkpt lat="43.9515381" lon="8.1092968">
        <ele>229.5000000</ele>
        <time>2010-03-07T10:03:03Z</time>
      </trkpt>
      <trkpt lat="43.9516296" lon="8.1093521">
        <ele>230.2000000</ele>
        <time>2010-03-07T10:03:08Z</time>
      </trkpt>
      <trkpt lat="43.9517441" lon="8.1094989">
        <ele>229.6000000</ele>
        <time>2010-03-07T10:03:14Z</time>
      </trkpt>
      <trkpt lat="43.9518853" lon="8.1097736">
        <ele>229.3000000</ele>
        <time>2010-03-07T10:03:22Z</time>
      </trkpt>
      <trkpt lat="43.9519768" lon="8.1100378">
        <ele>229.6000000</ele>
        <time>2010-03-07T10:03:29Z</time>
      </trkpt>
      <trkpt lat="43.9519692" lon="8.1102361">
        <ele>230.9000000</ele>
        <time>2010-03-07T10:03:35Z</time>
      </trkpt>
      <trkpt lat="43.9518967" lon="8.1103134">
        <ele>232.2000000</ele>
        <time>2010-03-07T10:03:40Z</time>
      </trkpt>
      <trkpt lat="43.9517822" lon="8.1104126">
        <ele>233.4000000</ele>
        <time>2010-03-07T10:03:48Z</time>
      </trkpt>
      <trkpt lat="43.9516296" lon="8.1104946">
        <ele>234.3000000</ele>
        <time>2010-03-07T10:03:57Z</time>
      </trkpt>
      <trkpt lat="43.9515037" lon="8.1105690">
        <ele>234.9000000</ele>
        <time>2010-03-07T10:04:04Z</time>
      </trkpt>
      <trkpt lat="43.9513359" lon="8.1106319">
        <ele>237.2000000</ele>
        <time>2010-03-07T10:04:12Z</time>
      </trkpt>
      <trkpt lat="43.9511834" lon="8.1107826">
        <ele>237.9000000</ele>
        <time>2010-03-07T10:04:20Z</time>
      </trkpt>
      <trkpt lat="43.9510917" lon="8.1110048">
        <ele>238.2000000</ele>
        <time>2010-03-07T10:04:27Z</time>
      </trkpt>
      <trkpt lat="43.9510994" lon="8.1111975">
        <ele>238.4000000</ele>
        <time>2010-03-07T10:04:32Z</time>
      </trkpt>
      <trkpt lat="43.9510689" lon="8.1114159">
        <ele>238.8000000</ele>
        <time>2010-03-07T10:04:39Z</time>
      </trkpt>
      <trkpt lat="43.9509430" lon="8.1116772">
        <ele>239.5000000</ele>
        <time>2010-03-07T10:04:48Z</time>
      </trkpt>
      <trkpt lat="43.9508934" lon="8.1119299">
        <ele>239.1000000</ele>
        <time>2010-03-07T10:04:55Z</time>
      </trkpt>
      <trkpt lat="43.9509392" lon="8.1121693">
        <ele>238.1000000</ele>
        <time>2010-03-07T10:05:00Z</time>
      </trkpt>
      <trkpt lat="43.9510765" lon="8.1125106">
        <ele>237.6000000</ele>
        <time>2010-03-07T10:05:08Z</time>
      </trkpt>
      <trkpt lat="43.9511986" lon="8.1127176">
        <ele>238.2000000</ele>
        <time>2010-03-07T10:05:15Z</time>
      </trkpt>
      <trkpt lat="43.9512825" lon="8.1128463">
        <ele>239.6000000</ele>
        <time>2010-03-07T10:05:21Z</time>
      </trkpt>
      <trkpt lat="43.9513893" lon="8.1129217">
        <ele>240.7000000</ele>
        <time>2010-03-07T10:05:27Z</time>
      </trkpt>
      <trkpt lat="43.9514961" lon="8.1129933">
        <ele>242.2000000</ele>
        <time>2010-03-07T10:05:34Z</time>
      </trkpt>
      <trkpt lat="43.9515915" lon="8.1130924">
        <ele>243.1000000</ele>
        <time>2010-03-07T10:05:41Z</time>
      </trkpt>
      <trkpt lat="43.9515801" lon="8.1132288">
        <ele>244.2000000</ele>
        <time>2010-03-07T10:05:47Z</time>
      </trkpt>
      <trkpt lat="43.9515381" lon="8.1133938">
        <ele>245.1000000</ele>
        <time>2010-03-07T10:05:54Z</time>
      </trkpt>
      <trkpt lat="43.9514847" lon="8.1135950">
        <ele>246.0000000</ele>
        <time>2010-03-07T10:06:02Z</time>
      </trkpt>
      <trkpt lat="43.9514771" lon="8.1137523">
        <ele>246.9000000</ele>
        <time>2010-03-07T10:06:09Z</time>
      </trkpt>
      <trkpt lat="43.9515457" lon="8.1139374">
        <ele>248.2000000</ele>
        <time>2010-03-07T10:06:17Z</time>
      </trkpt>
      <trkpt lat="43.9516945" lon="8.1141377">
        <ele>250.0000000</ele>
        <time>2010-03-07T10:06:27Z</time>
      </trkpt>
      <trkpt lat="43.9517899" lon="8.1142769">
        <ele>250.4000000</ele>
        <time>2010-03-07T10:06:34Z</time>
      </trkpt>
      <trkpt lat="43.9518890" lon="8.1144457">
        <ele>251.4000000</ele>
        <time>2010-03-07T10:06:42Z</time>
      </trkpt>
      <trkpt lat="43.9519882" lon="8.1146117">
        <ele>252.2000000</ele>
        <time>2010-03-07T10:06:50Z</time>
      </trkpt>
      <trkpt lat="43.9520912" lon="8.1147651">
        <ele>253.3000000</ele>
        <time>2010-03-07T10:06:58Z</time>
      </trkpt>
      <trkpt lat="43.9521522" lon="8.1148567">
        <ele>253.9000000</ele>
        <time>2010-03-07T10:07:03Z</time>
      </trkpt>
      <trkpt lat="43.9522781" lon="8.1149788">
        <ele>255.0000000</ele>
        <time>2010-03-07T10:07:11Z</time>
      </trkpt>
      <trkpt lat="43.9524650" lon="8.1151485">
        <ele>255.6000000</ele>
        <time>2010-03-07T10:07:21Z</time>
      </trkpt>
      <trkpt lat="43.9525986" lon="8.1153193">
        <ele>256.1000000</ele>
        <time>2010-03-07T10:07:29Z</time>
      </trkpt>
      <trkpt lat="43.9527473" lon="8.1155262">
        <ele>257.2000000</ele>
        <time>2010-03-07T10:07:39Z</time>
      </trkpt>
      <trkpt lat="43.9528427" lon="8.1156798">
        <ele>258.0000000</ele>
        <time>2010-03-07T10:07:46Z</time>
      </trkpt>
      <trkpt lat="43.9528695" lon="8.1159668">
        <ele>258.0000000</ele>
        <time>2010-03-07T10:07:54Z</time>
      </trkpt>
      <trkpt lat="43.9528580" lon="8.1161308">
        <ele>258.1000000</ele>
        <time>2010-03-07T10:07:59Z</time>
      </trkpt>
      <trkpt lat="43.9529457" lon="8.1163301">
        <ele>258.5000000</ele>
        <time>2010-03-07T10:08:06Z</time>
      </trkpt>
      <trkpt lat="43.9530487" lon="8.1165294">
        <ele>258.8000000</ele>
        <time>2010-03-07T10:08:13Z</time>
      </trkpt>
      <trkpt lat="43.9531098" lon="8.1167812">
        <ele>259.0000000</ele>
        <time>2010-03-07T10:08:21Z</time>
      </trkpt>
      <trkpt lat="43.9531440" lon="8.1169729">
        <ele>259.5000000</ele>
        <time>2010-03-07T10:08:28Z</time>
      </trkpt>
      <trkpt lat="43.9531135" lon="8.1171398">
        <ele>259.5000000</ele>
        <time>2010-03-07T10:08:33Z</time>
      </trkpt>
      <trkpt lat="43.9530105" lon="8.1172171">
        <ele>259.6000000</ele>
        <time>2010-03-07T10:08:38Z</time>
      </trkpt>
      <trkpt lat="43.9529305" lon="8.1173048">
        <ele>260.2000000</ele>
        <time>2010-03-07T10:08:43Z</time>
      </trkpt>
      <trkpt lat="43.9528503" lon="8.1174535">
        <ele>260.5000000</ele>
        <time>2010-03-07T10:08:49Z</time>
      </trkpt>
      <trkpt lat="43.9528542" lon="8.1176510">
        <ele>260.6000000</ele>
        <time>2010-03-07T10:08:55Z</time>
      </trkpt>
      <trkpt lat="43.9529381" lon="8.1179991">
        <ele>260.5000000</ele>
        <time>2010-03-07T10:09:05Z</time>
      </trkpt>
      <trkpt lat="43.9529190" lon="8.1182985">
        <ele>260.8000000</ele>
        <time>2010-03-07T10:09:14Z</time>
      </trkpt>
      <trkpt lat="43.9529037" lon="8.1184540">
        <ele>262.7000000</ele>
        <time>2010-03-07T10:09:20Z</time>
      </trkpt>
      <trkpt lat="43.9528503" lon="8.1186037">
        <ele>263.8000000</ele>
        <time>2010-03-07T10:09:26Z</time>
      </trkpt>
      <trkpt lat="43.9527626" lon="8.1187668">
        <ele>264.9000000</ele>
        <time>2010-03-07T10:09:34Z</time>
      </trkpt>
      <trkpt lat="43.9526482" lon="8.1189451">
        <ele>265.1000000</ele>
        <time>2010-03-07T10:09:43Z</time>
      </trkpt>
      <trkpt lat="43.9525566" lon="8.1190672">
        <ele>265.2000000</ele>
        <time>2010-03-07T10:09:50Z</time>
      </trkpt>
      <trkpt lat="43.9524613" lon="8.1190843">
        <ele>264.9000000</ele>
        <time>2010-03-07T10:09:56Z</time>
      </trkpt>
      <trkpt lat="43.9523125" lon="8.1190634">
        <ele>265.3000000</ele>
        <time>2010-03-07T10:10:03Z</time>
      </trkpt>
      <trkpt lat="43.9521675" lon="8.1190681">
        <ele>266.6000000</ele>
        <time>2010-03-07T10:10:10Z</time>
      </trkpt>
      <trkpt lat="43.9520493" lon="8.1190738">
        <ele>267.6000000</ele>
        <time>2010-03-07T10:10:18Z</time>
      </trkpt>
      <trkpt lat="43.9519386" lon="8.1191263">
        <ele>268.8000000</ele>
        <time>2010-03-07T10:10:26Z</time>
      </trkpt>
      <trkpt lat="43.9518661" lon="8.1192350">
        <ele>270.2000000</ele>
        <time>2010-03-07T10:10:33Z</time>
      </trkpt>
      <trkpt lat="43.9517936" lon="8.1193533">
        <ele>271.7000000</ele>
        <time>2010-03-07T10:10:40Z</time>
      </trkpt>
      <trkpt lat="43.9517174" lon="8.1194620">
        <ele>272.8000000</ele>
        <time>2010-03-07T10:10:47Z</time>
      </trkpt>
      <trkpt lat="43.9516182" lon="8.1195574">
        <ele>274.4000000</ele>
        <time>2010-03-07T10:10:55Z</time>
      </trkpt>
      <trkpt lat="43.9514885" lon="8.1196012">
        <ele>275.6000000</ele>
        <time>2010-03-07T10:11:03Z</time>
      </trkpt>
      <trkpt lat="43.9513932" lon="8.1196633">
        <ele>276.2000000</ele>
        <time>2010-03-07T10:11:09Z</time>
      </trkpt>
      <trkpt lat="43.9512901" lon="8.1198215">
        <ele>277.1000000</ele>
        <time>2010-03-07T10:11:18Z</time>
      </trkpt>
      <trkpt lat="43.9512367" lon="8.1199408">
        <ele>278.4000000</ele>
        <time>2010-03-07T10:11:25Z</time>
      </trkpt>
      <trkpt lat="43.9511681" lon="8.1200772">
        <ele>279.6000000</ele>
        <time>2010-03-07T10:11:33Z</time>
      </trkpt>
      <trkpt lat="43.9511299" lon="8.1201391">
        <ele>279.7000000</ele>
        <time>2010-03-07T10:11:37Z</time>
      </trkpt>
      <trkpt lat="43.9510041" lon="8.1202077">
        <ele>280.4000000</ele>
        <time>2010-03-07T10:11:45Z</time>
      </trkpt>
      <trkpt lat="43.9509087" lon="8.1202040">
        <ele>280.9000000</ele>
        <time>2010-03-07T10:11:51Z</time>
      </trkpt>
      <trkpt lat="43.9507866" lon="8.1201801">
        <ele>281.0000000</ele>
        <time>2010-03-07T10:11:57Z</time>
      </trkpt>
      <trkpt lat="43.9507370" lon="8.1201696">
        <ele>281.3000000</ele>
        <time>2010-03-07T10:12:00Z</time>
      </trkpt>
      <trkpt lat="43.9506607" lon="8.1200819">
        <ele>281.6000000</ele>
        <time>2010-03-07T10:12:07Z</time>
      </trkpt>
      <trkpt lat="43.9506416" lon="8.1200667">
        <ele>281.6000000</ele>
        <time>2010-03-07T10:12:08Z</time>
      </trkpt>
      <trkpt lat="43.9505157" lon="8.1199389">
        <ele>282.0000000</ele>
        <time>2010-03-07T10:12:16Z</time>
      </trkpt>
      <trkpt lat="43.9503479" lon="8.1198654">
        <ele>282.3000000</ele>
        <time>2010-03-07T10:12:23Z</time>
      </trkpt>
      <trkpt lat="43.9501724" lon="8.1197348">
        <ele>282.4000000</ele>
        <time>2010-03-07T10:12:30Z</time>
      </trkpt>
      <trkpt lat="43.9500084" lon="8.1196337">
        <ele>283.1000000</ele>
        <time>2010-03-07T10:12:37Z</time>
      </trkpt>
      <trkpt lat="43.9498558" lon="8.1196842">
        <ele>285.2000000</ele>
        <time>2010-03-07T10:12:44Z</time>
      </trkpt>
      <trkpt lat="43.9497566" lon="8.1198511">
        <ele>285.5000000</ele>
        <time>2010-03-07T10:12:51Z</time>
      </trkpt>
      <trkpt lat="43.9496651" lon="8.1200437">
        <ele>285.7000000</ele>
        <time>2010-03-07T10:12:58Z</time>
      </trkpt>
      <trkpt lat="43.9495926" lon="8.1201992">
        <ele>286.5000000</ele>
        <time>2010-03-07T10:13:04Z</time>
      </trkpt>
      <trkpt lat="43.9494820" lon="8.1203680">
        <ele>288.2000000</ele>
        <time>2010-03-07T10:13:12Z</time>
      </trkpt>
      <trkpt lat="43.9493141" lon="8.1205330">
        <ele>288.1000000</ele>
        <time>2010-03-07T10:13:21Z</time>
      </trkpt>
      <trkpt lat="43.9491539" lon="8.1206169">
        <ele>287.9000000</ele>
        <time>2010-03-07T10:13:28Z</time>
      </trkpt>
      <trkpt lat="43.9489670" lon="8.1206436">
        <ele>287.9000000</ele>
        <time>2010-03-07T10:13:35Z</time>
      </trkpt>
      <trkpt lat="43.9486847" lon="8.1206856">
        <ele>286.9000000</ele>
        <time>2010-03-07T10:13:44Z</time>
      </trkpt>
      <trkpt lat="43.9484978" lon="8.1206608">
        <ele>286.7000000</ele>
        <time>2010-03-07T10:13:50Z</time>
      </trkpt>
      <trkpt lat="43.9484291" lon="8.1205511">
        <ele>287.1000000</ele>
        <time>2010-03-07T10:13:55Z</time>
      </trkpt>
      <trkpt lat="43.9483452" lon="8.1204271">
        <ele>287.8000000</ele>
        <time>2010-03-07T10:14:01Z</time>
      </trkpt>
      <trkpt lat="43.9482193" lon="8.1202860">
        <ele>288.3000000</ele>
        <time>2010-03-07T10:14:08Z</time>
      </trkpt>
      <trkpt lat="43.9481201" lon="8.1201325">
        <ele>288.4000000</ele>
        <time>2010-03-07T10:14:14Z</time>
      </trkpt>
      <trkpt lat="43.9480171" lon="8.1199923">
        <ele>288.8000000</ele>
        <time>2010-03-07T10:14:20Z</time>
      </trkpt>
      <trkpt lat="43.9479370" lon="8.1198731">
        <ele>289.5000000</ele>
        <time>2010-03-07T10:14:26Z</time>
      </trkpt>
      <trkpt lat="43.9478607" lon="8.1197834">
        <ele>291.7000000</ele>
        <time>2010-03-07T10:14:33Z</time>
      </trkpt>
      <trkpt lat="43.9477692" lon="8.1197138">
        <ele>293.6000000</ele>
        <time>2010-03-07T10:14:39Z</time>
      </trkpt>
      <trkpt lat="43.9476204" lon="8.1196737">
        <ele>294.9000000</ele>
        <time>2010-03-07T10:14:47Z</time>
      </trkpt>
      <trkpt lat="43.9475060" lon="8.1196337">
        <ele>296.7000000</ele>
        <time>2010-03-07T10:14:54Z</time>
      </trkpt>
      <trkpt lat="43.9473839" lon="8.1196346">
        <ele>297.9000000</ele>
        <time>2010-03-07T10:15:02Z</time>
      </trkpt>
      <trkpt lat="43.9472923" lon="8.1197615">
        <ele>298.5000000</ele>
        <time>2010-03-07T10:15:10Z</time>
      </trkpt>
      <trkpt lat="43.9472008" lon="8.1199866">
        <ele>299.2000000</ele>
        <time>2010-03-07T10:15:19Z</time>
      </trkpt>
      <trkpt lat="43.9471245" lon="8.1201916">
        <ele>300.1000000</ele>
        <time>2010-03-07T10:15:27Z</time>
      </trkpt>
      <trkpt lat="43.9470940" lon="8.1203079">
        <ele>300.7000000</ele>
        <time>2010-03-07T10:15:32Z</time>
      </trkpt>
      <trkpt lat="43.9470100" lon="8.1204310">
        <ele>301.5000000</ele>
        <time>2010-03-07T10:15:39Z</time>
      </trkpt>
      <trkpt lat="43.9469642" lon="8.1205168">
        <ele>302.4000000</ele>
        <time>2010-03-07T10:15:45Z</time>
      </trkpt>
      <trkpt lat="43.9469261" lon="8.1205778">
        <ele>303.1000000</ele>
        <time>2010-03-07T10:15:50Z</time>
      </trkpt>
      <trkpt lat="43.9468537" lon="8.1206980">
        <ele>304.2000000</ele>
        <time>2010-03-07T10:15:57Z</time>
      </trkpt>
      <trkpt lat="43.9467773" lon="8.1208944">
        <ele>305.2000000</ele>
        <time>2010-03-07T10:16:06Z</time>
      </trkpt>
      <trkpt lat="43.9467125" lon="8.1210527">
        <ele>305.3000000</ele>
        <time>2010-03-07T10:16:13Z</time>
      </trkpt>
      <trkpt lat="43.9466553" lon="8.1212359">
        <ele>305.3000000</ele>
        <time>2010-03-07T10:16:20Z</time>
      </trkpt>
      <trkpt lat="43.9466362" lon="8.1213026">
        <ele>305.4000000</ele>
        <time>2010-03-07T10:16:25Z</time>
      </trkpt>
      <trkpt lat="43.9466553" lon="8.1213446">
        <ele>306.5000000</ele>
        <time>2010-03-07T10:16:32Z</time>
      </trkpt>
      <trkpt lat="43.9466591" lon="8.1213484">
        <ele>306.7000000</ele>
        <time>2010-03-07T10:16:34Z</time>
      </trkpt>
      <trkpt lat="43.9466858" lon="8.1213579">
        <ele>307.9000000</ele>
        <time>2010-03-07T10:16:42Z</time>
      </trkpt>
      <trkpt lat="43.9467125" lon="8.1213941">
        <ele>309.3000000</ele>
        <time>2010-03-07T10:16:49Z</time>
      </trkpt>
      <trkpt lat="43.9467468" lon="8.1214466">
        <ele>310.5000000</ele>
        <time>2010-03-07T10:16:55Z</time>
      </trkpt>
      <trkpt lat="43.9467544" lon="8.1215267">
        <ele>310.8000000</ele>
        <time>2010-03-07T10:17:03Z</time>
      </trkpt>
      <trkpt lat="43.9467544" lon="8.1215906">
        <ele>311.3000000</ele>
        <time>2010-03-07T10:17:09Z</time>
      </trkpt>
      <trkpt lat="43.9467544" lon="8.1216622">
        <ele>312.8000000</ele>
        <time>2010-03-07T10:17:17Z</time>
      </trkpt>
      <trkpt lat="43.9467583" lon="8.1216927">
        <ele>313.4000000</ele>
        <time>2010-03-07T10:17:21Z</time>
      </trkpt>
      <trkpt lat="43.9467430" lon="8.1217585">
        <ele>313.9000000</ele>
        <time>2010-03-07T10:17:27Z</time>
      </trkpt>
      <trkpt lat="43.9467583" lon="8.1218156">
        <ele>314.1000000</ele>
        <time>2010-03-07T10:17:31Z</time>
      </trkpt>
      <trkpt lat="43.9467659" lon="8.1218834">
        <ele>314.7000000</ele>
        <time>2010-03-07T10:17:35Z</time>
      </trkpt>
      <trkpt lat="43.9467659" lon="8.1219721">
        <ele>316.0000000</ele>
        <time>2010-03-07T10:17:43Z</time>
      </trkpt>
      <trkpt lat="43.9467621" lon="8.1220484">
        <ele>316.1000000</ele>
        <time>2010-03-07T10:17:47Z</time>
      </trkpt>
      <trkpt lat="43.9467544" lon="8.1221342">
        <ele>316.5000000</ele>
        <time>2010-03-07T10:17:51Z</time>
      </trkpt>
      <trkpt lat="43.9467202" lon="8.1222944">
        <ele>317.3000000</ele>
        <time>2010-03-07T10:17:58Z</time>
      </trkpt>
      <trkpt lat="43.9466591" lon="8.1224327">
        <ele>316.9000000</ele>
        <time>2010-03-07T10:18:04Z</time>
      </trkpt>
      <trkpt lat="43.9466057" lon="8.1225500">
        <ele>316.9000000</ele>
        <time>2010-03-07T10:18:08Z</time>
      </trkpt>
      <trkpt lat="43.9465370" lon="8.1227207">
        <ele>317.4000000</ele>
        <time>2010-03-07T10:18:14Z</time>
      </trkpt>
      <trkpt lat="43.9464684" lon="8.1228791">
        <ele>318.3000000</ele>
        <time>2010-03-07T10:18:20Z</time>
      </trkpt>
      <trkpt lat="43.9463348" lon="8.1230278">
        <ele>318.5000000</ele>
        <time>2010-03-07T10:18:27Z</time>
      </trkpt>
      <trkpt lat="43.9461517" lon="8.1231107">
        <ele>318.2000000</ele>
        <time>2010-03-07T10:18:34Z</time>
      </trkpt>
      <trkpt lat="43.9459572" lon="8.1230917">
        <ele>318.2000000</ele>
        <time>2010-03-07T10:18:41Z</time>
      </trkpt>
      <trkpt lat="43.9457970" lon="8.1230116">
        <ele>317.9000000</ele>
        <time>2010-03-07T10:18:46Z</time>
      </trkpt>
      <trkpt lat="43.9456367" lon="8.1229238">
        <ele>317.7000000</ele>
        <time>2010-03-07T10:18:51Z</time>
      </trkpt>
      <trkpt lat="43.9454498" lon="8.1229334">
        <ele>318.0000000</ele>
        <time>2010-03-07T10:18:56Z</time>
      </trkpt>
      <trkpt lat="43.9452781" lon="8.1229706">
        <ele>318.4000000</ele>
        <time>2010-03-07T10:19:01Z</time>
      </trkpt>
      <trkpt lat="43.9451103" lon="8.1229582">
        <ele>318.3000000</ele>
        <time>2010-03-07T10:19:06Z</time>
      </trkpt>
      <trkpt lat="43.9448967" lon="8.1228113">
        <ele>317.7000000</ele>
        <time>2010-03-07T10:19:13Z</time>
      </trkpt>
      <trkpt lat="43.9447860" lon="8.1226663">
        <ele>317.1000000</ele>
        <time>2010-03-07T10:19:18Z</time>
      </trkpt>
      <trkpt lat="43.9447594" lon="8.1226415">
        <ele>317.2000000</ele>
        <time>2010-03-07T10:19:19Z</time>
      </trkpt>
      <trkpt lat="43.9446106" lon="8.1225767">
        <ele>317.4000000</ele>
        <time>2010-03-07T10:19:25Z</time>
      </trkpt>
      <trkpt lat="43.9444618" lon="8.1224766">
        <ele>318.2000000</ele>
        <time>2010-03-07T10:19:31Z</time>
      </trkpt>
      <trkpt lat="43.9443550" lon="8.1222916">
        <ele>318.8000000</ele>
        <time>2010-03-07T10:19:37Z</time>
      </trkpt>
      <trkpt lat="43.9442749" lon="8.1220722">
        <ele>320.8000000</ele>
        <time>2010-03-07T10:19:45Z</time>
      </trkpt>
      <trkpt lat="43.9442444" lon="8.1219244">
        <ele>322.8000000</ele>
        <time>2010-03-07T10:19:52Z</time>
      </trkpt>
      <trkpt lat="43.9442177" lon="8.1217603">
        <ele>324.1000000</ele>
        <time>2010-03-07T10:19:59Z</time>
      </trkpt>
      <trkpt lat="43.9442100" lon="8.1217337">
        <ele>324.3000000</ele>
        <time>2010-03-07T10:20:00Z</time>
      </trkpt>
      <trkpt lat="43.9440995" lon="8.1216049">
        <ele>325.3000000</ele>
        <time>2010-03-07T10:20:07Z</time>
      </trkpt>
      <trkpt lat="43.9439277" lon="8.1215391">
        <ele>326.0000000</ele>
        <time>2010-03-07T10:20:15Z</time>
      </trkpt>
      <trkpt lat="43.9437637" lon="8.1215611">
        <ele>327.6000000</ele>
        <time>2010-03-07T10:20:23Z</time>
      </trkpt>
      <trkpt lat="43.9436531" lon="8.1216392">
        <ele>328.6000000</ele>
        <time>2010-03-07T10:20:30Z</time>
      </trkpt>
      <trkpt lat="43.9435615" lon="8.1217346">
        <ele>329.3000000</ele>
        <time>2010-03-07T10:20:36Z</time>
      </trkpt>
      <trkpt lat="43.9434738" lon="8.1218090">
        <ele>330.5000000</ele>
        <time>2010-03-07T10:20:42Z</time>
      </trkpt>
      <trkpt lat="43.9433670" lon="8.1218291">
        <ele>332.3000000</ele>
        <time>2010-03-07T10:20:49Z</time>
      </trkpt>
      <trkpt lat="43.9432640" lon="8.1218452">
        <ele>334.2000000</ele>
        <time>2010-03-07T10:20:56Z</time>
      </trkpt>
      <trkpt lat="43.9432526" lon="8.1218615">
        <ele>334.3000000</ele>
        <time>2010-03-07T10:20:57Z</time>
      </trkpt>
      <trkpt lat="43.9432754" lon="8.1219740">
        <ele>335.1000000</ele>
        <time>2010-03-07T10:21:03Z</time>
      </trkpt>
      <trkpt lat="43.9433556" lon="8.1219997">
        <ele>336.2000000</ele>
        <time>2010-03-07T10:21:08Z</time>
      </trkpt>
      <trkpt lat="43.9433899" lon="8.1220083">
        <ele>336.4000000</ele>
        <time>2010-03-07T10:21:10Z</time>
      </trkpt>
      <trkpt lat="43.9435425" lon="8.1220083">
        <ele>336.7000000</ele>
        <time>2010-03-07T10:21:17Z</time>
      </trkpt>
      <trkpt lat="43.9437332" lon="8.1220102">
        <ele>337.1000000</ele>
        <time>2010-03-07T10:21:25Z</time>
      </trkpt>
      <trkpt lat="43.9438209" lon="8.1220570">
        <ele>337.6000000</ele>
        <time>2010-03-07T10:21:29Z</time>
      </trkpt>
      <trkpt lat="43.9438438" lon="8.1221504">
        <ele>338.5000000</ele>
        <time>2010-03-07T10:21:33Z</time>
      </trkpt>
      <trkpt lat="43.9438324" lon="8.1222582">
        <ele>339.7000000</ele>
        <time>2010-03-07T10:21:38Z</time>
      </trkpt>
      <trkpt lat="43.9437256" lon="8.1222992">
        <ele>341.5000000</ele>
        <time>2010-03-07T10:21:46Z</time>
      </trkpt>
      <trkpt lat="43.9436188" lon="8.1222868">
        <ele>343.4000000</ele>
        <time>2010-03-07T10:21:53Z</time>
      </trkpt>
      <trkpt lat="43.9435196" lon="8.1223106">
        <ele>343.9000000</ele>
        <time>2010-03-07T10:22:00Z</time>
      </trkpt>
      <trkpt lat="43.9433746" lon="8.1223678">
        <ele>345.5000000</ele>
        <time>2010-03-07T10:22:10Z</time>
      </trkpt>
      <trkpt lat="43.9432373" lon="8.1224423">
        <ele>347.8000000</ele>
        <time>2010-03-07T10:22:21Z</time>
      </trkpt>
      <trkpt lat="43.9432106" lon="8.1224480">
        <ele>348.1000000</ele>
        <time>2010-03-07T10:22:23Z</time>
      </trkpt>
      <trkpt lat="43.9432106" lon="8.1225271">
        <ele>348.9000000</ele>
        <time>2010-03-07T10:22:29Z</time>
      </trkpt>
      <trkpt lat="43.9432297" lon="8.1225347">
        <ele>348.8000000</ele>
        <time>2010-03-07T10:22:31Z</time>
      </trkpt>
      <trkpt lat="43.9433136" lon="8.1225787">
        <ele>348.4000000</ele>
        <time>2010-03-07T10:22:38Z</time>
      </trkpt>
      <trkpt lat="43.9433174" lon="8.1225853">
        <ele>347.8000000</ele>
        <time>2010-03-07T10:22:58Z</time>
      </trkpt>
      <trkpt lat="43.9433174" lon="8.1225833">
        <ele>347.8000000</ele>
        <time>2010-03-07T10:23:01Z</time>
      </trkpt>
      <trkpt lat="43.9433174" lon="8.1225833">
        <ele>347.9000000</ele>
        <time>2010-03-07T10:23:02Z</time>
      </trkpt>
      <trkpt lat="43.9433212" lon="8.1225787">
        <ele>348.2000000</ele>
        <time>2010-03-07T10:23:15Z</time>
      </trkpt>
      <trkpt lat="43.9433288" lon="8.1225710">
        <ele>347.8000000</ele>
        <time>2010-03-07T10:23:29Z</time>
      </trkpt>
      <trkpt lat="43.9433327" lon="8.1225510">
        <ele>347.5000000</ele>
        <time>2010-03-07T10:24:42Z</time>
      </trkpt>
      <trkpt lat="43.9433288" lon="8.1225548">
        <ele>347.3000000</ele>
        <time>2010-03-07T10:24:54Z</time>
      </trkpt>
      <trkpt lat="43.9433288" lon="8.1225558">
        <ele>347.4000000</ele>
        <time>2010-03-07T10:24:56Z</time>
      </trkpt>
      <trkpt lat="43.9433288" lon="8.1225558">
        <ele>347.3000000</ele>
        <time>2010-03-07T10:24:59Z</time>
      </trkpt>
      <trkpt lat="43.9433288" lon="8.1225567">
        <ele>347.7000000</ele>
        <time>2010-03-07T10:25:15Z</time>
      </trkpt>
      <trkpt lat="43.9433288" lon="8.1225558">
        <ele>347.6000000</ele>
        <time>2010-03-07T10:25:20Z</time>
      </trkpt>
      <trkpt lat="43.9433365" lon="8.1225443">
        <ele>347.5000000</ele>
        <time>2010-03-07T10:25:43Z</time>
      </trkpt>
      <trkpt lat="43.9433365" lon="8.1225367">
        <ele>347.2000000</ele>
        <time>2010-03-07T10:25:52Z</time>
      </trkpt>
      <trkpt lat="43.9433403" lon="8.1225347">
        <ele>347.1000000</ele>
        <time>2010-03-07T10:25:56Z</time>
      </trkpt>
      <trkpt lat="43.9433441" lon="8.1225290">
        <ele>347.4000000</ele>
        <time>2010-03-07T10:26:05Z</time>
      </trkpt>
      <trkpt lat="43.9433441" lon="8.1225281">
        <ele>347.4000000</ele>
        <time>2010-03-07T10:26:06Z</time>
      </trkpt>
      <trkpt lat="43.9433441" lon="8.1225281">
        <ele>347.4000000</ele>
        <time>2010-03-07T10:26:07Z</time>
      </trkpt>
      <trkpt lat="43.9433441" lon="8.1225271">
        <ele>347.2000000</ele>
        <time>2010-03-07T10:26:10Z</time>
      </trkpt>
      <trkpt lat="43.9433441" lon="8.1225243">
        <ele>347.0000000</ele>
        <time>2010-03-07T10:26:17Z</time>
      </trkpt>
      <trkpt lat="43.9433479" lon="8.1225214">
        <ele>347.2000000</ele>
        <time>2010-03-07T10:26:29Z</time>
      </trkpt>
      <trkpt lat="43.9433517" lon="8.1225176">
        <ele>347.5000000</ele>
        <time>2010-03-07T10:26:43Z</time>
      </trkpt>
      <trkpt lat="43.9433517" lon="8.1225205">
        <ele>347.6000000</ele>
        <time>2010-03-07T10:26:45Z</time>
      </trkpt>
      <trkpt lat="43.9433479" lon="8.1225452">
        <ele>347.4000000</ele>
        <time>2010-03-07T10:26:47Z</time>
      </trkpt>
      <trkpt lat="43.9433365" lon="8.1225939">
        <ele>348.2000000</ele>
        <time>2010-03-07T10:26:52Z</time>
      </trkpt>
      <trkpt lat="43.9433251" lon="8.1226005">
        <ele>348.6000000</ele>
        <time>2010-03-07T10:26:56Z</time>
      </trkpt>
      <trkpt lat="43.9433136" lon="8.1226196">
        <ele>348.4000000</ele>
        <time>2010-03-07T10:26:59Z</time>
      </trkpt>
      <trkpt lat="43.9433136" lon="8.1226310">
        <ele>348.8000000</ele>
        <time>2010-03-07T10:27:01Z</time>
      </trkpt>
      <trkpt lat="43.9432907" lon="8.1226606">
        <ele>348.7000000</ele>
        <time>2010-03-07T10:27:07Z</time>
      </trkpt>
      <trkpt lat="43.9432869" lon="8.1226616">
        <ele>348.2000000</ele>
        <time>2010-03-07T10:27:23Z</time>
      </trkpt>
      <trkpt lat="43.9432831" lon="8.1226645">
        <ele>348.7000000</ele>
        <time>2010-03-07T10:27:25Z</time>
      </trkpt>
      <trkpt lat="43.9432793" lon="8.1226654">
        <ele>348.7000000</ele>
        <time>2010-03-07T10:27:26Z</time>
      </trkpt>
      <trkpt lat="43.9432754" lon="8.1226663">
        <ele>348.4000000</ele>
        <time>2010-03-07T10:27:41Z</time>
      </trkpt>
      <trkpt lat="43.9432717" lon="8.1226654">
        <ele>348.4000000</ele>
        <time>2010-03-07T10:27:47Z</time>
      </trkpt>
      <trkpt lat="43.9432678" lon="8.1226645">
        <ele>348.1000000</ele>
        <time>2010-03-07T10:27:56Z</time>
      </trkpt>
      <trkpt lat="43.9432602" lon="8.1226663">
        <ele>348.0000000</ele>
        <time>2010-03-07T10:28:17Z</time>
      </trkpt>
      <trkpt lat="43.9432564" lon="8.1226692">
        <ele>348.1000000</ele>
        <time>2010-03-07T10:28:31Z</time>
      </trkpt>
      <trkpt lat="43.9432678" lon="8.1226626">
        <ele>348.9000000</ele>
        <time>2010-03-07T10:28:54Z</time>
      </trkpt>
      <trkpt lat="43.9432678" lon="8.1226597">
        <ele>348.6000000</ele>
        <time>2010-03-07T10:28:57Z</time>
      </trkpt>
      <trkpt lat="43.9432678" lon="8.1226578">
        <ele>348.5000000</ele>
        <time>2010-03-07T10:28:58Z</time>
      </trkpt>
      <trkpt lat="43.9432678" lon="8.1226569">
        <ele>348.6000000</ele>
        <time>2010-03-07T10:29:03Z</time>
      </trkpt>
      <trkpt lat="43.9432717" lon="8.1226569">
        <ele>348.8000000</ele>
        <time>2010-03-07T10:29:06Z</time>
      </trkpt>
      <trkpt lat="43.9432717" lon="8.1226559">
        <ele>348.8000000</ele>
        <time>2010-03-07T10:29:09Z</time>
      </trkpt>
      <trkpt lat="43.9432717" lon="8.1226492">
        <ele>348.5000000</ele>
        <time>2010-03-07T10:29:20Z</time>
      </trkpt>
      <trkpt lat="43.9432717" lon="8.1226473">
        <ele>348.7000000</ele>
        <time>2010-03-07T10:29:27Z</time>
      </trkpt>
      <trkpt lat="43.9432717" lon="8.1226454">
        <ele>349.1000000</ele>
        <time>2010-03-07T10:29:30Z</time>
      </trkpt>
      <trkpt lat="43.9432717" lon="8.1226473">
        <ele>349.1000000</ele>
        <time>2010-03-07T10:29:32Z</time>
      </trkpt>
      <trkpt lat="43.9432754" lon="8.1226445">
        <ele>348.7000000</ele>
        <time>2010-03-07T10:29:38Z</time>
      </trkpt>
      <trkpt lat="43.9432717" lon="8.1226454">
        <ele>348.5000000</ele>
        <time>2010-03-07T10:29:49Z</time>
      </trkpt>
      <trkpt lat="43.9432717" lon="8.1226454">
        <ele>348.4000000</ele>
        <time>2010-03-07T10:30:07Z</time>
      </trkpt>
      <trkpt lat="43.9432717" lon="8.1226445">
        <ele>348.1000000</ele>
        <time>2010-03-07T10:30:16Z</time>
      </trkpt>
      <trkpt lat="43.9432717" lon="8.1226445">
        <ele>348.1000000</ele>
        <time>2010-03-07T10:30:18Z</time>
      </trkpt>
      <trkpt lat="43.9432717" lon="8.1226434">
        <ele>348.1000000</ele>
        <time>2010-03-07T10:30:19Z</time>
      </trkpt>
      <trkpt lat="43.9432717" lon="8.1226434">
        <ele>348.2000000</ele>
        <time>2010-03-07T10:30:24Z</time>
      </trkpt>
      <trkpt lat="43.9432717" lon="8.1226397">
        <ele>348.4000000</ele>
        <time>2010-03-07T10:30:32Z</time>
      </trkpt>
      <trkpt lat="43.9432564" lon="8.1226387">
        <ele>348.3000000</ele>
        <time>2010-03-07T10:30:42Z</time>
      </trkpt>
      <trkpt lat="43.9432526" lon="8.1226377">
        <ele>348.5000000</ele>
        <time>2010-03-07T10:30:46Z</time>
      </trkpt>
      <trkpt lat="43.9432526" lon="8.1226406">
        <ele>348.1000000</ele>
        <time>2010-03-07T10:30:56Z</time>
      </trkpt>
      <trkpt lat="43.9432526" lon="8.1226406">
        <ele>348.0000000</ele>
        <time>2010-03-07T10:30:58Z</time>
      </trkpt>
      <trkpt lat="43.9432526" lon="8.1226406">
        <ele>348.1000000</ele>
        <time>2010-03-07T10:30:59Z</time>
      </trkpt>
      <trkpt lat="43.9432564" lon="8.1226397">
        <ele>347.9000000</ele>
        <time>2010-03-07T10:31:02Z</time>
      </trkpt>
      <trkpt lat="43.9432602" lon="8.1226377">
        <ele>347.7000000</ele>
        <time>2010-03-07T10:31:06Z</time>
      </trkpt>
      <trkpt lat="43.9432602" lon="8.1226368">
        <ele>347.6000000</ele>
        <time>2010-03-07T10:31:07Z</time>
      </trkpt>
      <trkpt lat="43.9432602" lon="8.1226349">
        <ele>347.8000000</ele>
        <time>2010-03-07T10:31:11Z</time>
      </trkpt>
      <trkpt lat="43.9432602" lon="8.1226339">
        <ele>347.8000000</ele>
        <time>2010-03-07T10:31:14Z</time>
      </trkpt>
      <trkpt lat="43.9432602" lon="8.1226339">
        <ele>347.9000000</ele>
        <time>2010-03-07T10:31:15Z</time>
      </trkpt>
      <trkpt lat="43.9432526" lon="8.1226358">
        <ele>347.6000000</ele>
        <time>2010-03-07T10:31:24Z</time>
      </trkpt>
      <trkpt lat="43.9432449" lon="8.1226339">
        <ele>347.7000000</ele>
        <time>2010-03-07T10:31:46Z</time>
      </trkpt>
      <trkpt lat="43.9432411" lon="8.1226339">
        <ele>347.7000000</ele>
        <time>2010-03-07T10:31:47Z</time>
      </trkpt>
      <trkpt lat="43.9432411" lon="8.1226330">
        <ele>348.0000000</ele>
        <time>2010-03-07T10:31:54Z</time>
      </trkpt>
      <trkpt lat="43.9432411" lon="8.1226310">
        <ele>348.0000000</ele>
        <time>2010-03-07T10:31:56Z</time>
      </trkpt>
      <trkpt lat="43.9432335" lon="8.1226282">
        <ele>348.0000000</ele>
        <time>2010-03-07T10:31:57Z</time>
      </trkpt>
      <trkpt lat="43.9432144" lon="8.1226177">
        <ele>347.6000000</ele>
        <time>2010-03-07T10:32:02Z</time>
      </trkpt>
      <trkpt lat="43.9431992" lon="8.1226053">
        <ele>347.6000000</ele>
        <time>2010-03-07T10:32:07Z</time>
      </trkpt>
      <trkpt lat="43.9432144" lon="8.1226005">
        <ele>347.3000000</ele>
        <time>2010-03-07T10:32:14Z</time>
      </trkpt>
      <trkpt lat="43.9432106" lon="8.1225977">
        <ele>347.3000000</ele>
        <time>2010-03-07T10:32:23Z</time>
      </trkpt>
      <trkpt lat="43.9431953" lon="8.1225939">
        <ele>347.3000000</ele>
        <time>2010-03-07T10:32:27Z</time>
      </trkpt>
      <trkpt lat="43.9431953" lon="8.1225958">
        <ele>347.6000000</ele>
        <time>2010-03-07T10:32:36Z</time>
      </trkpt>
      <trkpt lat="43.9431763" lon="8.1226005">
        <ele>347.0000000</ele>
        <time>2010-03-07T10:32:47Z</time>
      </trkpt>
    </trkseg>
  </trk>

  <trk>
    <name>Trasfer_2</name>
    <extensions>
      <gpxx:TrackExtension xmlns:gpxx="http://www.garmin.com/xmlschemas/GpxExtensions/v3">
        <gpxx:DisplayColor>Blue</gpxx:DisplayColor>
      </gpxx:TrackExtension>
    </extensions>
    <trkseg>
      <trkpt lat="43.9207534" lon="8.1029511">
        <ele>-6.4000000</ele>
        <time>2010-03-07T11:03:14Z</time>
      </trkpt>
      <trkpt lat="43.9208145" lon="8.1030731">
        <ele>-6.3000000</ele>
        <time>2010-03-07T11:03:19Z</time>
      </trkpt>
      <trkpt lat="43.9208717" lon="8.1032867">
        <ele>-6.3000000</ele>
        <time>2010-03-07T11:03:26Z</time>
      </trkpt>
      <trkpt lat="43.9209518" lon="8.1035662">
        <ele>-6.1000000</ele>
        <time>2010-03-07T11:03:33Z</time>
      </trkpt>
      <trkpt lat="43.9210586" lon="8.1039458">
        <ele>-6.0000000</ele>
        <time>2010-03-07T11:03:42Z</time>
      </trkpt>
      <trkpt lat="43.9211616" lon="8.1043033">
        <ele>-6.5000000</ele>
        <time>2010-03-07T11:03:50Z</time>
      </trkpt>
      <trkpt lat="43.9212494" lon="8.1046381">
        <ele>-7.0000000</ele>
        <time>2010-03-07T11:03:57Z</time>
      </trkpt>
      <trkpt lat="43.9213180" lon="8.1049080">
        <ele>-6.6000000</ele>
        <time>2010-03-07T11:04:03Z</time>
      </trkpt>
      <trkpt lat="43.9214134" lon="8.1052590">
        <ele>-6.7000000</ele>
        <time>2010-03-07T11:04:11Z</time>
      </trkpt>
      <trkpt lat="43.9214936" lon="8.1055441">
        <ele>-6.6000000</ele>
        <time>2010-03-07T11:04:18Z</time>
      </trkpt>
      <trkpt lat="43.9216003" lon="8.1055527">
        <ele>-6.6000000</ele>
        <time>2010-03-07T11:04:22Z</time>
      </trkpt>
      <trkpt lat="43.9220009" lon="8.1052980">
        <ele>-5.4000000</ele>
        <time>2010-03-07T11:04:35Z</time>
      </trkpt>
      <trkpt lat="43.9222145" lon="8.1051893">
        <ele>-4.9000000</ele>
        <time>2010-03-07T11:04:42Z</time>
      </trkpt>
      <trkpt lat="43.9223328" lon="8.1051274">
        <ele>-4.6000000</ele>
        <time>2010-03-07T11:04:47Z</time>
      </trkpt>
      <trkpt lat="43.9223556" lon="8.1051159">
        <ele>-4.5000000</ele>
        <time>2010-03-07T11:04:48Z</time>
      </trkpt>
      <trkpt lat="43.9224167" lon="8.1051845">
        <ele>-4.3000000</ele>
        <time>2010-03-07T11:04:52Z</time>
      </trkpt>
      <trkpt lat="43.9225846" lon="8.1056061">
        <ele>-2.6000000</ele>
        <time>2010-03-07T11:05:04Z</time>
      </trkpt>
      <trkpt lat="43.9226532" lon="8.1058045">
        <ele>-2.4000000</ele>
        <time>2010-03-07T11:05:10Z</time>
      </trkpt>
      <trkpt lat="43.9227752" lon="8.1062127">
        <ele>-3.0000000</ele>
        <time>2010-03-07T11:05:21Z</time>
      </trkpt>
      <trkpt lat="43.9229088" lon="8.1066312">
        <ele>-2.4000000</ele>
        <time>2010-03-07T11:05:32Z</time>
      </trkpt>
      <trkpt lat="43.9229622" lon="8.1067905">
        <ele>-2.5000000</ele>
        <time>2010-03-07T11:05:36Z</time>
      </trkpt>
      <trkpt lat="43.9231033" lon="8.1072264">
        <ele>-4.3000000</ele>
        <time>2010-03-07T11:05:46Z</time>
      </trkpt>
      <trkpt lat="43.9230538" lon="8.1072549">
        <ele>-5.2000000</ele>
        <time>2010-03-07T11:05:49Z</time>
      </trkpt>
      <trkpt lat="43.9229355" lon="8.1071911">
        <ele>-6.1000000</ele>
        <time>2010-03-07T11:05:52Z</time>
      </trkpt>
      <trkpt lat="43.9227981" lon="8.1072016">
        <ele>-6.6000000</ele>
        <time>2010-03-07T11:05:55Z</time>
      </trkpt>
      <trkpt lat="43.9223633" lon="8.1074819">
        <ele>-6.7000000</ele>
        <time>2010-03-07T11:06:06Z</time>
      </trkpt>
      <trkpt lat="43.9220123" lon="8.1077242">
        <ele>-7.2000000</ele>
        <time>2010-03-07T11:06:15Z</time>
      </trkpt>
      <trkpt lat="43.9219780" lon="8.1077547">
        <ele>-7.3000000</ele>
        <time>2010-03-07T11:06:16Z</time>
      </trkpt>
      <trkpt lat="43.9217987" lon="8.1078034">
        <ele>-7.5000000</ele>
        <time>2010-03-07T11:06:21Z</time>
      </trkpt>
      <trkpt lat="43.9217224" lon="8.1076059">
        <ele>-7.8000000</ele>
        <time>2010-03-07T11:06:25Z</time>
      </trkpt>
      <trkpt lat="43.9216652" lon="8.1073389">
        <ele>-8.0000000</ele>
        <time>2010-03-07T11:06:30Z</time>
      </trkpt>
      <trkpt lat="43.9217605" lon="8.1071902">
        <ele>-8.1000000</ele>
        <time>2010-03-07T11:06:34Z</time>
      </trkpt>
      <trkpt lat="43.9219322" lon="8.1071072">
        <ele>-8.0000000</ele>
        <time>2010-03-07T11:06:39Z</time>
      </trkpt>
      <trkpt lat="43.9222603" lon="8.1068887">
        <ele>-7.2000000</ele>
        <time>2010-03-07T11:06:49Z</time>
      </trkpt>
      <trkpt lat="43.9224739" lon="8.1067085">
        <ele>-7.3000000</ele>
        <time>2010-03-07T11:06:56Z</time>
      </trkpt>
      <trkpt lat="43.9226341" lon="8.1066046">
        <ele>-7.1000000</ele>
        <time>2010-03-07T11:07:01Z</time>
      </trkpt>
      <trkpt lat="43.9228554" lon="8.1064406">
        <ele>-7.2000000</ele>
        <time>2010-03-07T11:07:09Z</time>
      </trkpt>
      <trkpt lat="43.9229279" lon="8.1064282">
        <ele>-7.2000000</ele>
        <time>2010-03-07T11:07:13Z</time>
      </trkpt>
      <trkpt lat="43.9230957" lon="8.1063585">
        <ele>-6.7000000</ele>
        <time>2010-03-07T11:07:19Z</time>
      </trkpt>
      <trkpt lat="43.9233055" lon="8.1062717">
        <ele>-6.0000000</ele>
        <time>2010-03-07T11:07:26Z</time>
      </trkpt>
      <trkpt lat="43.9234237" lon="8.1062622">
        <ele>-5.9000000</ele>
        <time>2010-03-07T11:07:30Z</time>
      </trkpt>
      <trkpt lat="43.9235039" lon="8.1063232">
        <ele>-5.6000000</ele>
        <time>2010-03-07T11:07:34Z</time>
      </trkpt>
      <trkpt lat="43.9235878" lon="8.1064939">
        <ele>-5.1000000</ele>
        <time>2010-03-07T11:07:40Z</time>
      </trkpt>
      <trkpt lat="43.9236946" lon="8.1067142">
        <ele>-4.7000000</ele>
        <time>2010-03-07T11:07:47Z</time>
      </trkpt>
      <trkpt lat="43.9237823" lon="8.1068182">
        <ele>-4.5000000</ele>
        <time>2010-03-07T11:07:51Z</time>
      </trkpt>
      <trkpt lat="43.9239540" lon="8.1067724">
        <ele>-4.4000000</ele>
        <time>2010-03-07T11:07:57Z</time>
      </trkpt>
      <trkpt lat="43.9242401" lon="8.1066513">
        <ele>-3.5000000</ele>
        <time>2010-03-07T11:08:07Z</time>
      </trkpt>
      <trkpt lat="43.9245186" lon="8.1065359">
        <ele>-3.2000000</ele>
        <time>2010-03-07T11:08:17Z</time>
      </trkpt>
      <trkpt lat="43.9246826" lon="8.1064672">
        <ele>-2.3000000</ele>
        <time>2010-03-07T11:08:23Z</time>
      </trkpt>
      <trkpt lat="43.9248504" lon="8.1063013">
        <ele>-2.2000000</ele>
        <time>2010-03-07T11:08:30Z</time>
      </trkpt>
      <trkpt lat="43.9251099" lon="8.1061439">
        <ele>-2.6000000</ele>
        <time>2010-03-07T11:08:39Z</time>
      </trkpt>
      <trkpt lat="43.9252854" lon="8.1060972">
        <ele>-2.1000000</ele>
        <time>2010-03-07T11:08:45Z</time>
      </trkpt>
      <trkpt lat="43.9255257" lon="8.1061334">
        <ele>-1.2000000</ele>
        <time>2010-03-07T11:08:53Z</time>
      </trkpt>
      <trkpt lat="43.9258041" lon="8.1061716">
        <ele>-1.1000000</ele>
        <time>2010-03-07T11:09:03Z</time>
      </trkpt>
      <trkpt lat="43.9260826" lon="8.1062184">
        <ele>-0.2000000</ele>
        <time>2010-03-07T11:09:13Z</time>
      </trkpt>
      <trkpt lat="43.9263267" lon="8.1062526">
        <ele>0.2000000</ele>
        <time>2010-03-07T11:09:22Z</time>
      </trkpt>
      <trkpt lat="43.9265404" lon="8.1062432">
        <ele>0.9000000</ele>
        <time>2010-03-07T11:09:30Z</time>
      </trkpt>
      <trkpt lat="43.9267693" lon="8.1061487">
        <ele>1.4000000</ele>
        <time>2010-03-07T11:09:38Z</time>
      </trkpt>
      <trkpt lat="43.9270668" lon="8.1060181">
        <ele>0.9000000</ele>
        <time>2010-03-07T11:09:47Z</time>
      </trkpt>
      <trkpt lat="43.9273338" lon="8.1059446">
        <ele>1.4000000</ele>
        <time>2010-03-07T11:09:56Z</time>
      </trkpt>
      <trkpt lat="43.9275665" lon="8.1058960">
        <ele>2.1000000</ele>
        <time>2010-03-07T11:10:04Z</time>
      </trkpt>
      <trkpt lat="43.9278259" lon="8.1058340">
        <ele>2.9000000</ele>
        <time>2010-03-07T11:10:13Z</time>
      </trkpt>
      <trkpt lat="43.9280891" lon="8.1057806">
        <ele>3.1000000</ele>
        <time>2010-03-07T11:10:22Z</time>
      </trkpt>
      <trkpt lat="43.9284058" lon="8.1057100">
        <ele>4.2000000</ele>
        <time>2010-03-07T11:10:33Z</time>
      </trkpt>
      <trkpt lat="43.9286728" lon="8.1056461">
        <ele>4.4000000</ele>
        <time>2010-03-07T11:10:42Z</time>
      </trkpt>
      <trkpt lat="43.9289093" lon="8.1056309">
        <ele>5.1000000</ele>
        <time>2010-03-07T11:10:50Z</time>
      </trkpt>
      <trkpt lat="43.9291840" lon="8.1056280">
        <ele>4.9000000</ele>
        <time>2010-03-07T11:10:59Z</time>
      </trkpt>
      <trkpt lat="43.9294663" lon="8.1055851">
        <ele>5.4000000</ele>
        <time>2010-03-07T11:11:08Z</time>
      </trkpt>
      <trkpt lat="43.9296952" lon="8.1055498">
        <ele>6.4000000</ele>
        <time>2010-03-07T11:11:16Z</time>
      </trkpt>
      <trkpt lat="43.9297867" lon="8.1055250">
        <ele>6.2000000</ele>
        <time>2010-03-07T11:11:21Z</time>
      </trkpt>
      <trkpt lat="43.9297828" lon="8.1055307">
        <ele>6.0000000</ele>
        <time>2010-03-07T11:11:38Z</time>
      </trkpt>
      <trkpt lat="43.9297828" lon="8.1055317">
        <ele>6.1000000</ele>
        <time>2010-03-07T11:11:40Z</time>
      </trkpt>
      <trkpt lat="43.9297828" lon="8.1055326">
        <ele>6.5000000</ele>
        <time>2010-03-07T11:11:47Z</time>
      </trkpt>
      <trkpt lat="43.9297828" lon="8.1055336">
        <ele>6.3000000</ele>
        <time>2010-03-07T11:11:55Z</time>
      </trkpt>
      <trkpt lat="43.9297828" lon="8.1055326">
        <ele>6.2000000</ele>
        <time>2010-03-07T11:12:15Z</time>
      </trkpt>
      <trkpt lat="43.9297828" lon="8.1055336">
        <ele>6.4000000</ele>
        <time>2010-03-07T11:12:34Z</time>
      </trkpt>
      <trkpt lat="43.9297828" lon="8.1055336">
        <ele>6.2000000</ele>
        <time>2010-03-07T11:12:45Z</time>
      </trkpt>
      <trkpt lat="43.9297828" lon="8.1055336">
        <ele>6.5000000</ele>
        <time>2010-03-07T11:12:50Z</time>
      </trkpt>
      <trkpt lat="43.9297828" lon="8.1055346">
        <ele>6.5000000</ele>
        <time>2010-03-07T11:13:01Z</time>
      </trkpt>
      <trkpt lat="43.9297867" lon="8.1055307">
        <ele>6.8000000</ele>
        <time>2010-03-07T11:13:21Z</time>
      </trkpt>
      <trkpt lat="43.9299279" lon="8.1055002">
        <ele>6.4000000</ele>
        <time>2010-03-07T11:13:26Z</time>
      </trkpt>
      <trkpt lat="43.9300804" lon="8.1054888">
        <ele>6.3000000</ele>
        <time>2010-03-07T11:13:30Z</time>
      </trkpt>
      <trkpt lat="43.9302292" lon="8.1054773">
        <ele>6.6000000</ele>
        <time>2010-03-07T11:13:34Z</time>
      </trkpt>
      <trkpt lat="43.9304886" lon="8.1054420">
        <ele>6.9000000</ele>
        <time>2010-03-07T11:13:41Z</time>
      </trkpt>
      <trkpt lat="43.9307709" lon="8.1053982">
        <ele>7.4000000</ele>
        <time>2010-03-07T11:13:49Z</time>
      </trkpt>
      <trkpt lat="43.9309845" lon="8.1054602">
        <ele>7.8000000</ele>
        <time>2010-03-07T11:13:56Z</time>
      </trkpt>
      <trkpt lat="43.9312591" lon="8.1055060">
        <ele>8.6000000</ele>
        <time>2010-03-07T11:14:05Z</time>
      </trkpt>
      <trkpt lat="43.9315300" lon="8.1054487">
        <ele>9.6000000</ele>
        <time>2010-03-07T11:14:14Z</time>
      </trkpt>
      <trkpt lat="43.9317780" lon="8.1054010">
        <ele>10.0000000</ele>
        <time>2010-03-07T11:14:22Z</time>
      </trkpt>
      <trkpt lat="43.9321594" lon="8.1052942">
        <ele>10.9000000</ele>
        <time>2010-03-07T11:14:34Z</time>
      </trkpt>
      <trkpt lat="43.9324112" lon="8.1052818">
        <ele>11.1000000</ele>
        <time>2010-03-07T11:14:42Z</time>
      </trkpt>
      <trkpt lat="43.9326592" lon="8.1052904">
        <ele>11.2000000</ele>
        <time>2010-03-07T11:14:50Z</time>
      </trkpt>
      <trkpt lat="43.9330101" lon="8.1052866">
        <ele>12.1000000</ele>
        <time>2010-03-07T11:15:01Z</time>
      </trkpt>
      <trkpt lat="43.9332618" lon="8.1052599">
        <ele>12.5000000</ele>
        <time>2010-03-07T11:15:09Z</time>
      </trkpt>
      <trkpt lat="43.9335747" lon="8.1051540">
        <ele>12.9000000</ele>
        <time>2010-03-07T11:15:19Z</time>
      </trkpt>
      <trkpt lat="43.9337692" lon="8.1050949">
        <ele>13.1000000</ele>
        <time>2010-03-07T11:15:25Z</time>
      </trkpt>
      <trkpt lat="43.9340210" lon="8.1050129">
        <ele>13.4000000</ele>
        <time>2010-03-07T11:15:33Z</time>
      </trkpt>
      <trkpt lat="43.9342155" lon="8.1049652">
        <ele>13.7000000</ele>
        <time>2010-03-07T11:15:39Z</time>
      </trkpt>
      <trkpt lat="43.9344368" lon="8.1048946">
        <ele>14.0000000</ele>
        <time>2010-03-07T11:15:46Z</time>
      </trkpt>
      <trkpt lat="43.9347229" lon="8.1048203">
        <ele>15.6000000</ele>
        <time>2010-03-07T11:15:56Z</time>
      </trkpt>
      <trkpt lat="43.9348679" lon="8.1047745">
        <ele>15.3000000</ele>
        <time>2010-03-07T11:16:02Z</time>
      </trkpt>
      <trkpt lat="43.9350510" lon="8.1047678">
        <ele>16.6000000</ele>
        <time>2010-03-07T11:16:10Z</time>
      </trkpt>
      <trkpt lat="43.9352760" lon="8.1047545">
        <ele>17.6000000</ele>
        <time>2010-03-07T11:16:18Z</time>
      </trkpt>
      <trkpt lat="43.9355087" lon="8.1047582">
        <ele>18.9000000</ele>
        <time>2010-03-07T11:16:27Z</time>
      </trkpt>
      <trkpt lat="43.9357415" lon="8.1046906">
        <ele>19.6000000</ele>
        <time>2010-03-07T11:16:35Z</time>
      </trkpt>
      <trkpt lat="43.9360199" lon="8.1046009">
        <ele>18.3000000</ele>
        <time>2010-03-07T11:16:43Z</time>
      </trkpt>
      <trkpt lat="43.9362564" lon="8.1045904">
        <ele>18.2000000</ele>
        <time>2010-03-07T11:16:50Z</time>
      </trkpt>
      <trkpt lat="43.9365158" lon="8.1045980">
        <ele>19.2000000</ele>
        <time>2010-03-07T11:16:59Z</time>
      </trkpt>
      <trkpt lat="43.9366493" lon="8.1045809">
        <ele>19.5000000</ele>
        <time>2010-03-07T11:17:04Z</time>
      </trkpt>
      <trkpt lat="43.9368706" lon="8.1045189">
        <ele>19.7000000</ele>
        <time>2010-03-07T11:17:12Z</time>
      </trkpt>
      <trkpt lat="43.9371300" lon="8.1044273">
        <ele>19.7000000</ele>
        <time>2010-03-07T11:17:21Z</time>
      </trkpt>
      <trkpt lat="43.9373703" lon="8.1042957">
        <ele>20.1000000</ele>
        <time>2010-03-07T11:17:30Z</time>
      </trkpt>
      <trkpt lat="43.9375992" lon="8.1041288">
        <ele>20.7000000</ele>
        <time>2010-03-07T11:17:39Z</time>
      </trkpt>
      <trkpt lat="43.9377747" lon="8.1040106">
        <ele>21.7000000</ele>
        <time>2010-03-07T11:17:47Z</time>
      </trkpt>
      <trkpt lat="43.9379387" lon="8.1039009">
        <ele>23.3000000</ele>
        <time>2010-03-07T11:17:55Z</time>
      </trkpt>
      <trkpt lat="43.9381066" lon="8.1037894">
        <ele>25.4000000</ele>
        <time>2010-03-07T11:18:04Z</time>
      </trkpt>
      <trkpt lat="43.9382362" lon="8.1037140">
        <ele>26.7000000</ele>
        <time>2010-03-07T11:18:11Z</time>
      </trkpt>
      <trkpt lat="43.9383735" lon="8.1036348">
        <ele>27.7000000</ele>
        <time>2010-03-07T11:18:18Z</time>
      </trkpt>
      <trkpt lat="43.9384422" lon="8.1036186">
        <ele>28.3000000</ele>
        <time>2010-03-07T11:18:21Z</time>
      </trkpt>
      <trkpt lat="43.9385223" lon="8.1037273">
        <ele>28.9000000</ele>
        <time>2010-03-07T11:18:26Z</time>
      </trkpt>
      <trkpt lat="43.9386062" lon="8.1039400">
        <ele>29.2000000</ele>
        <time>2010-03-07T11:18:33Z</time>
      </trkpt>
      <trkpt lat="43.9386978" lon="8.1042586">
        <ele>30.0000000</ele>
        <time>2010-03-07T11:18:42Z</time>
      </trkpt>
      <trkpt lat="43.9386978" lon="8.1044617">
        <ele>30.8000000</ele>
        <time>2010-03-07T11:18:48Z</time>
      </trkpt>
      <trkpt lat="43.9386177" lon="8.1046048">
        <ele>31.9000000</ele>
        <time>2010-03-07T11:18:54Z</time>
      </trkpt>
      <trkpt lat="43.9384575" lon="8.1048307">
        <ele>33.5000000</ele>
        <time>2010-03-07T11:19:04Z</time>
      </trkpt>
      <trkpt lat="43.9383735" lon="8.1049862">
        <ele>34.3000000</ele>
        <time>2010-03-07T11:19:10Z</time>
      </trkpt>
      <trkpt lat="43.9383545" lon="8.1051827">
        <ele>35.4000000</ele>
        <time>2010-03-07T11:19:17Z</time>
      </trkpt>
      <trkpt lat="43.9384346" lon="8.1053228">
        <ele>35.9000000</ele>
        <time>2010-03-07T11:19:23Z</time>
      </trkpt>
      <trkpt lat="43.9385986" lon="8.1054631">
        <ele>36.9000000</ele>
        <time>2010-03-07T11:19:31Z</time>
      </trkpt>
      <trkpt lat="43.9387931" lon="8.1055317">
        <ele>37.4000000</ele>
        <time>2010-03-07T11:19:39Z</time>
      </trkpt>
      <trkpt lat="43.9390297" lon="8.1056004">
        <ele>38.6000000</ele>
        <time>2010-03-07T11:19:49Z</time>
      </trkpt>
      <trkpt lat="43.9392776" lon="8.1056738">
        <ele>39.5000000</ele>
        <time>2010-03-07T11:19:59Z</time>
      </trkpt>
      <trkpt lat="43.9395447" lon="8.1057558">
        <ele>40.7000000</ele>
        <time>2010-03-07T11:20:10Z</time>
      </trkpt>
      <trkpt lat="43.9397697" lon="8.1058884">
        <ele>41.6000000</ele>
        <time>2010-03-07T11:20:20Z</time>
      </trkpt>
      <trkpt lat="43.9399223" lon="8.1060219">
        <ele>43.6000000</ele>
        <time>2010-03-07T11:20:28Z</time>
      </trkpt>
      <trkpt lat="43.9400864" lon="8.1062012">
        <ele>45.3000000</ele>
        <time>2010-03-07T11:20:38Z</time>
      </trkpt>
      <trkpt lat="43.9402275" lon="8.1063624">
        <ele>46.6000000</ele>
        <time>2010-03-07T11:20:47Z</time>
      </trkpt>
      <trkpt lat="43.9403419" lon="8.1064758">
        <ele>47.8000000</ele>
        <time>2010-03-07T11:20:54Z</time>
      </trkpt>
      <trkpt lat="43.9404907" lon="8.1065750">
        <ele>49.0000000</ele>
        <time>2010-03-07T11:21:02Z</time>
      </trkpt>
      <trkpt lat="43.9406509" lon="8.1066846">
        <ele>49.9000000</ele>
        <time>2010-03-07T11:21:11Z</time>
      </trkpt>
      <trkpt lat="43.9408378" lon="8.1067752">
        <ele>52.0000000</ele>
        <time>2010-03-07T11:21:21Z</time>
      </trkpt>
      <trkpt lat="43.9410057" lon="8.1068649">
        <ele>53.5000000</ele>
        <time>2010-03-07T11:21:30Z</time>
      </trkpt>
      <trkpt lat="43.9411506" lon="8.1069498">
        <ele>54.7000000</ele>
        <time>2010-03-07T11:21:38Z</time>
      </trkpt>
      <trkpt lat="43.9412765" lon="8.1070538">
        <ele>56.0000000</ele>
        <time>2010-03-07T11:21:46Z</time>
      </trkpt>
      <trkpt lat="43.9414139" lon="8.1071921">
        <ele>57.9000000</ele>
        <time>2010-03-07T11:21:55Z</time>
      </trkpt>
      <trkpt lat="43.9415703" lon="8.1073322">
        <ele>58.7000000</ele>
        <time>2010-03-07T11:22:04Z</time>
      </trkpt>
      <trkpt lat="43.9417038" lon="8.1074714">
        <ele>60.2000000</ele>
        <time>2010-03-07T11:22:13Z</time>
      </trkpt>
      <trkpt lat="43.9418449" lon="8.1076269">
        <ele>61.6000000</ele>
        <time>2010-03-07T11:22:22Z</time>
      </trkpt>
      <trkpt lat="43.9419479" lon="8.1077642">
        <ele>62.4000000</ele>
        <time>2010-03-07T11:22:29Z</time>
      </trkpt>
      <trkpt lat="43.9420433" lon="8.1078968">
        <ele>63.6000000</ele>
        <time>2010-03-07T11:22:36Z</time>
      </trkpt>
      <trkpt lat="43.9421692" lon="8.1080103">
        <ele>65.5000000</ele>
        <time>2010-03-07T11:22:44Z</time>
      </trkpt>
      <trkpt lat="43.9422341" lon="8.1079407">
        <ele>66.0000000</ele>
        <time>2010-03-07T11:22:49Z</time>
      </trkpt>
      <trkpt lat="43.9421997" lon="8.1078252">
        <ele>66.6000000</ele>
        <time>2010-03-07T11:22:54Z</time>
      </trkpt>
      <trkpt lat="43.9421806" lon="8.1078052">
        <ele>66.8000000</ele>
        <time>2010-03-07T11:22:55Z</time>
      </trkpt>
      <trkpt lat="43.9420471" lon="8.1076584">
        <ele>67.4000000</ele>
        <time>2010-03-07T11:23:03Z</time>
      </trkpt>
      <trkpt lat="43.9419289" lon="8.1075277">
        <ele>68.3000000</ele>
        <time>2010-03-07T11:23:10Z</time>
      </trkpt>
      <trkpt lat="43.9418564" lon="8.1074171">
        <ele>68.8000000</ele>
        <time>2010-03-07T11:23:15Z</time>
      </trkpt>
      <trkpt lat="43.9417267" lon="8.1072359">
        <ele>70.0000000</ele>
        <time>2010-03-07T11:23:23Z</time>
      </trkpt>
      <trkpt lat="43.9416427" lon="8.1070948">
        <ele>70.5000000</ele>
        <time>2010-03-07T11:23:29Z</time>
      </trkpt>
      <trkpt lat="43.9415322" lon="8.1069364">
        <ele>71.4000000</ele>
        <time>2010-03-07T11:23:36Z</time>
      </trkpt>
      <trkpt lat="43.9414634" lon="8.1068287">
        <ele>72.1000000</ele>
        <time>2010-03-07T11:23:41Z</time>
      </trkpt>
      <trkpt lat="43.9413872" lon="8.1066837">
        <ele>72.9000000</ele>
        <time>2010-03-07T11:23:47Z</time>
      </trkpt>
      <trkpt lat="43.9413185" lon="8.1065464">
        <ele>73.9000000</ele>
        <time>2010-03-07T11:23:53Z</time>
      </trkpt>
      <trkpt lat="43.9412536" lon="8.1064339">
        <ele>74.5000000</ele>
        <time>2010-03-07T11:23:58Z</time>
      </trkpt>
      <trkpt lat="43.9411278" lon="8.1062336">
        <ele>76.1000000</ele>
        <time>2010-03-07T11:24:07Z</time>
      </trkpt>
      <trkpt lat="43.9410057" lon="8.1060276">
        <ele>77.3000000</ele>
        <time>2010-03-07T11:24:16Z</time>
      </trkpt>
      <trkpt lat="43.9408454" lon="8.1058960">
        <ele>78.0000000</ele>
        <time>2010-03-07T11:24:24Z</time>
      </trkpt>
      <trkpt lat="43.9406776" lon="8.1057577">
        <ele>78.5000000</ele>
        <time>2010-03-07T11:24:32Z</time>
      </trkpt>
      <trkpt lat="43.9404716" lon="8.1055718">
        <ele>80.1000000</ele>
        <time>2010-03-07T11:24:42Z</time>
      </trkpt>
      <trkpt lat="43.9404145" lon="8.1053810">
        <ele>80.8000000</ele>
        <time>2010-03-07T11:24:48Z</time>
      </trkpt>
      <trkpt lat="43.9404640" lon="8.1051187">
        <ele>81.8000000</ele>
        <time>2010-03-07T11:24:56Z</time>
      </trkpt>
      <trkpt lat="43.9405327" lon="8.1049233">
        <ele>82.2000000</ele>
        <time>2010-03-07T11:25:03Z</time>
      </trkpt>
      <trkpt lat="43.9406395" lon="8.1047172">
        <ele>83.7000000</ele>
        <time>2010-03-07T11:25:11Z</time>
      </trkpt>
      <trkpt lat="43.9408073" lon="8.1045427">
        <ele>84.6000000</ele>
        <time>2010-03-07T11:25:20Z</time>
      </trkpt>
      <trkpt lat="43.9409866" lon="8.1045027">
        <ele>85.5000000</ele>
        <time>2010-03-07T11:25:28Z</time>
      </trkpt>
      <trkpt lat="43.9411240" lon="8.1045208">
        <ele>86.9000000</ele>
        <time>2010-03-07T11:25:35Z</time>
      </trkpt>
      <trkpt lat="43.9412842" lon="8.1045379">
        <ele>88.2000000</ele>
        <time>2010-03-07T11:25:43Z</time>
      </trkpt>
      <trkpt lat="43.9414063" lon="8.1045665">
        <ele>89.2000000</ele>
        <time>2010-03-07T11:25:49Z</time>
      </trkpt>
      <trkpt lat="43.9415397" lon="8.1045913">
        <ele>90.2000000</ele>
        <time>2010-03-07T11:25:56Z</time>
      </trkpt>
      <trkpt lat="43.9417000" lon="8.1046000">
        <ele>91.0000000</ele>
        <time>2010-03-07T11:26:03Z</time>
      </trkpt>
      <trkpt lat="43.9418259" lon="8.1045752">
        <ele>91.8000000</ele>
        <time>2010-03-07T11:26:09Z</time>
      </trkpt>
      <trkpt lat="43.9419403" lon="8.1045332">
        <ele>92.7000000</ele>
        <time>2010-03-07T11:26:15Z</time>
      </trkpt>
      <trkpt lat="43.9420624" lon="8.1045037">
        <ele>93.4000000</ele>
        <time>2010-03-07T11:26:21Z</time>
      </trkpt>
      <trkpt lat="43.9422531" lon="8.1044225">
        <ele>94.8000000</ele>
        <time>2010-03-07T11:26:30Z</time>
      </trkpt>
      <trkpt lat="43.9423866" lon="8.1044131">
        <ele>95.7000000</ele>
        <time>2010-03-07T11:26:37Z</time>
      </trkpt>
      <trkpt lat="43.9425239" lon="8.1044779">
        <ele>97.1000000</ele>
        <time>2010-03-07T11:26:45Z</time>
      </trkpt>
      <trkpt lat="43.9426384" lon="8.1045379">
        <ele>97.9000000</ele>
        <time>2010-03-07T11:26:52Z</time>
      </trkpt>
      <trkpt lat="43.9427414" lon="8.1046057">
        <ele>98.7000000</ele>
        <time>2010-03-07T11:26:58Z</time>
      </trkpt>
      <trkpt lat="43.9428444" lon="8.1046610">
        <ele>99.4000000</ele>
        <time>2010-03-07T11:27:04Z</time>
      </trkpt>
      <trkpt lat="43.9429703" lon="8.1047335">
        <ele>100.0000000</ele>
        <time>2010-03-07T11:27:11Z</time>
      </trkpt>
      <trkpt lat="43.9431153" lon="8.1048021">
        <ele>100.9000000</ele>
        <time>2010-03-07T11:27:18Z</time>
      </trkpt>
      <trkpt lat="43.9433288" lon="8.1048393">
        <ele>102.1000000</ele>
        <time>2010-03-07T11:27:28Z</time>
      </trkpt>
      <trkpt lat="43.9435196" lon="8.1048241">
        <ele>103.2000000</ele>
        <time>2010-03-07T11:27:37Z</time>
      </trkpt>
      <trkpt lat="43.9436760" lon="8.1048031">
        <ele>104.3000000</ele>
        <time>2010-03-07T11:27:45Z</time>
      </trkpt>
      <trkpt lat="43.9438743" lon="8.1047764">
        <ele>105.7000000</ele>
        <time>2010-03-07T11:27:55Z</time>
      </trkpt>
      <trkpt lat="43.9440422" lon="8.1048298">
        <ele>107.0000000</ele>
        <time>2010-03-07T11:28:04Z</time>
      </trkpt>
      <trkpt lat="43.9441986" lon="8.1049099">
        <ele>108.3000000</ele>
        <time>2010-03-07T11:28:12Z</time>
      </trkpt>
      <trkpt lat="43.9443817" lon="8.1049919">
        <ele>109.2000000</ele>
        <time>2010-03-07T11:28:21Z</time>
      </trkpt>
      <trkpt lat="43.9445610" lon="8.1050577">
        <ele>110.5000000</ele>
        <time>2010-03-07T11:28:30Z</time>
      </trkpt>
      <trkpt lat="43.9446984" lon="8.1050958">
        <ele>111.3000000</ele>
        <time>2010-03-07T11:28:37Z</time>
      </trkpt>
      <trkpt lat="43.9448319" lon="8.1051464">
        <ele>112.2000000</ele>
        <time>2010-03-07T11:28:45Z</time>
      </trkpt>
      <trkpt lat="43.9449959" lon="8.1051922">
        <ele>113.3000000</ele>
        <time>2010-03-07T11:28:53Z</time>
      </trkpt>
      <trkpt lat="43.9451408" lon="8.1052026">
        <ele>115.4000000</ele>
        <time>2010-03-07T11:29:00Z</time>
      </trkpt>
      <trkpt lat="43.9453239" lon="8.1051751">
        <ele>116.9000000</ele>
        <time>2010-03-07T11:29:08Z</time>
      </trkpt>
      <trkpt lat="43.9453697" lon="8.1052237">
        <ele>117.3000000</ele>
        <time>2010-03-07T11:29:11Z</time>
      </trkpt>
      <trkpt lat="43.9453430" lon="8.1053391">
        <ele>117.7000000</ele>
        <time>2010-03-07T11:29:16Z</time>
      </trkpt>
      <trkpt lat="43.9452171" lon="8.1053629">
        <ele>118.4000000</ele>
        <time>2010-03-07T11:29:22Z</time>
      </trkpt>
      <trkpt lat="43.9450417" lon="8.1053438">
        <ele>119.2000000</ele>
        <time>2010-03-07T11:29:30Z</time>
      </trkpt>
      <trkpt lat="43.9448014" lon="8.1053572">
        <ele>120.9000000</ele>
        <time>2010-03-07T11:29:41Z</time>
      </trkpt>
      <trkpt lat="43.9445915" lon="8.1054058">
        <ele>122.1000000</ele>
        <time>2010-03-07T11:29:51Z</time>
      </trkpt>
      <trkpt lat="43.9443932" lon="8.1054478">
        <ele>123.8000000</ele>
        <time>2010-03-07T11:30:01Z</time>
      </trkpt>
      <trkpt lat="43.9441681" lon="8.1055021">
        <ele>125.4000000</ele>
        <time>2010-03-07T11:30:12Z</time>
      </trkpt>
      <trkpt lat="43.9439850" lon="8.1055708">
        <ele>126.8000000</ele>
        <time>2010-03-07T11:30:21Z</time>
      </trkpt>
      <trkpt lat="43.9437904" lon="8.1056671">
        <ele>128.3000000</ele>
        <time>2010-03-07T11:30:31Z</time>
      </trkpt>
      <trkpt lat="43.9436074" lon="8.1057387">
        <ele>129.6000000</ele>
        <time>2010-03-07T11:30:40Z</time>
      </trkpt>
      <trkpt lat="43.9434242" lon="8.1057739">
        <ele>130.6000000</ele>
        <time>2010-03-07T11:30:49Z</time>
      </trkpt>
      <trkpt lat="43.9433251" lon="8.1057892">
        <ele>131.8000000</ele>
        <time>2010-03-07T11:30:54Z</time>
      </trkpt>
      <trkpt lat="43.9431724" lon="8.1057940">
        <ele>132.4000000</ele>
        <time>2010-03-07T11:31:01Z</time>
      </trkpt>
      <trkpt lat="43.9429779" lon="8.1057863">
        <ele>133.6000000</ele>
        <time>2010-03-07T11:31:10Z</time>
      </trkpt>
      <trkpt lat="43.9428139" lon="8.1057663">
        <ele>134.2000000</ele>
        <time>2010-03-07T11:31:17Z</time>
      </trkpt>
      <trkpt lat="43.9426117" lon="8.1058149">
        <ele>135.3000000</ele>
        <time>2010-03-07T11:31:26Z</time>
      </trkpt>
      <trkpt lat="43.9425354" lon="8.1059561">
        <ele>136.3000000</ele>
        <time>2010-03-07T11:31:32Z</time>
      </trkpt>
      <trkpt lat="43.9425354" lon="8.1061020">
        <ele>136.9000000</ele>
        <time>2010-03-07T11:31:37Z</time>
      </trkpt>
      <trkpt lat="43.9426346" lon="8.1063090">
        <ele>137.9000000</ele>
        <time>2010-03-07T11:31:45Z</time>
      </trkpt>
      <trkpt lat="43.9428062" lon="8.1064510">
        <ele>138.4000000</ele>
        <time>2010-03-07T11:31:52Z</time>
      </trkpt>
      <trkpt lat="43.9429817" lon="8.1065378">
        <ele>139.0000000</ele>
        <time>2010-03-07T11:31:58Z</time>
      </trkpt>
      <trkpt lat="43.9431915" lon="8.1064796">
        <ele>138.7000000</ele>
        <time>2010-03-07T11:32:05Z</time>
      </trkpt>
      <trkpt lat="43.9433251" lon="8.1064177">
        <ele>138.8000000</ele>
        <time>2010-03-07T11:32:10Z</time>
      </trkpt>
      <trkpt lat="43.9434967" lon="8.1063280">
        <ele>139.4000000</ele>
        <time>2010-03-07T11:32:16Z</time>
      </trkpt>
      <trkpt lat="43.9437408" lon="8.1062727">
        <ele>140.2000000</ele>
        <time>2010-03-07T11:32:24Z</time>
      </trkpt>
      <trkpt lat="43.9439773" lon="8.1063147">
        <ele>141.5000000</ele>
        <time>2010-03-07T11:32:33Z</time>
      </trkpt>
      <trkpt lat="43.9441605" lon="8.1063556">
        <ele>142.6000000</ele>
        <time>2010-03-07T11:32:42Z</time>
      </trkpt>
      <trkpt lat="43.9443283" lon="8.1064053">
        <ele>143.9000000</ele>
        <time>2010-03-07T11:32:51Z</time>
      </trkpt>
      <trkpt lat="43.9444923" lon="8.1064691">
        <ele>145.0000000</ele>
        <time>2010-03-07T11:33:00Z</time>
      </trkpt>
      <trkpt lat="43.9446602" lon="8.1065378">
        <ele>146.5000000</ele>
        <time>2010-03-07T11:33:09Z</time>
      </trkpt>
      <trkpt lat="43.9448014" lon="8.1066094">
        <ele>148.1000000</ele>
        <time>2010-03-07T11:33:17Z</time>
      </trkpt>
      <trkpt lat="43.9449463" lon="8.1066837">
        <ele>149.1000000</ele>
        <time>2010-03-07T11:33:25Z</time>
      </trkpt>
      <trkpt lat="43.9451332" lon="8.1067514">
        <ele>150.4000000</ele>
        <time>2010-03-07T11:33:35Z</time>
      </trkpt>
      <trkpt lat="43.9453163" lon="8.1068192">
        <ele>152.8000000</ele>
        <time>2010-03-07T11:33:45Z</time>
      </trkpt>
      <trkpt lat="43.9454765" lon="8.1068850">
        <ele>152.9000000</ele>
        <time>2010-03-07T11:33:54Z</time>
      </trkpt>
      <trkpt lat="43.9456177" lon="8.1069422">
        <ele>154.6000000</ele>
        <time>2010-03-07T11:34:02Z</time>
      </trkpt>
      <trkpt lat="43.9458427" lon="8.1070061">
        <ele>156.7000000</ele>
        <time>2010-03-07T11:34:14Z</time>
      </trkpt>
      <trkpt lat="43.9460220" lon="8.1069784">
        <ele>157.5000000</ele>
        <time>2010-03-07T11:34:23Z</time>
      </trkpt>
      <trkpt lat="43.9461899" lon="8.1068344">
        <ele>158.8000000</ele>
        <time>2010-03-07T11:34:32Z</time>
      </trkpt>
      <trkpt lat="43.9463272" lon="8.1066360">
        <ele>160.4000000</ele>
        <time>2010-03-07T11:34:41Z</time>
      </trkpt>
      <trkpt lat="43.9464264" lon="8.1063728">
        <ele>161.5000000</ele>
        <time>2010-03-07T11:34:51Z</time>
      </trkpt>
      <trkpt lat="43.9465638" lon="8.1061868">
        <ele>162.5000000</ele>
        <time>2010-03-07T11:35:00Z</time>
      </trkpt>
      <trkpt lat="43.9466858" lon="8.1061744">
        <ele>163.2000000</ele>
        <time>2010-03-07T11:35:06Z</time>
      </trkpt>
      <trkpt lat="43.9468842" lon="8.1061821">
        <ele>164.3000000</ele>
        <time>2010-03-07T11:35:15Z</time>
      </trkpt>
      <trkpt lat="43.9470825" lon="8.1061802">
        <ele>165.2000000</ele>
        <time>2010-03-07T11:35:24Z</time>
      </trkpt>
      <trkpt lat="43.9473267" lon="8.1061334">
        <ele>166.7000000</ele>
        <time>2010-03-07T11:35:35Z</time>
      </trkpt>
      <trkpt lat="43.9474563" lon="8.1060772">
        <ele>166.6000000</ele>
        <time>2010-03-07T11:35:41Z</time>
      </trkpt>
      <trkpt lat="43.9474792" lon="8.1060753">
        <ele>166.6000000</ele>
        <time>2010-03-07T11:35:42Z</time>
      </trkpt>
      <trkpt lat="43.9475288" lon="8.1061526">
        <ele>166.8000000</ele>
        <time>2010-03-07T11:35:47Z</time>
      </trkpt>
      <trkpt lat="43.9474678" lon="8.1061983">
        <ele>167.9000000</ele>
        <time>2010-03-07T11:35:51Z</time>
      </trkpt>
      <trkpt lat="43.9474449" lon="8.1062002">
        <ele>168.0000000</ele>
        <time>2010-03-07T11:35:52Z</time>
      </trkpt>
      <trkpt lat="43.9472618" lon="8.1062469">
        <ele>169.2000000</ele>
        <time>2010-03-07T11:36:00Z</time>
      </trkpt>
      <trkpt lat="43.9470100" lon="8.1063499">
        <ele>171.4000000</ele>
        <time>2010-03-07T11:36:11Z</time>
      </trkpt>
      <trkpt lat="43.9468956" lon="8.1064977">
        <ele>172.7000000</ele>
        <time>2010-03-07T11:36:18Z</time>
      </trkpt>
      <trkpt lat="43.9468383" lon="8.1067495">
        <ele>174.0000000</ele>
        <time>2010-03-07T11:36:26Z</time>
      </trkpt>
      <trkpt lat="43.9468766" lon="8.1070070">
        <ele>174.5000000</ele>
        <time>2010-03-07T11:36:34Z</time>
      </trkpt>
      <trkpt lat="43.9469833" lon="8.1073046">
        <ele>175.5000000</ele>
        <time>2010-03-07T11:36:45Z</time>
      </trkpt>
      <trkpt lat="43.9470825" lon="8.1075306">
        <ele>176.7000000</ele>
        <time>2010-03-07T11:36:54Z</time>
      </trkpt>
      <trkpt lat="43.9471664" lon="8.1077337">
        <ele>177.9000000</ele>
        <time>2010-03-07T11:37:02Z</time>
      </trkpt>
      <trkpt lat="43.9472694" lon="8.1079884">
        <ele>179.3000000</ele>
        <time>2010-03-07T11:37:12Z</time>
      </trkpt>
      <trkpt lat="43.9473724" lon="8.1081619">
        <ele>180.3000000</ele>
        <time>2010-03-07T11:37:20Z</time>
      </trkpt>
      <trkpt lat="43.9474716" lon="8.1081333">
        <ele>180.9000000</ele>
        <time>2010-03-07T11:37:25Z</time>
      </trkpt>
      <trkpt lat="43.9475097" lon="8.1080341">
        <ele>181.8000000</ele>
        <time>2010-03-07T11:37:29Z</time>
      </trkpt>
      <trkpt lat="43.9474602" lon="8.1079273">
        <ele>181.8000000</ele>
        <time>2010-03-07T11:37:33Z</time>
      </trkpt>
      <trkpt lat="43.9473457" lon="8.1076860">
        <ele>181.9000000</ele>
        <time>2010-03-07T11:37:42Z</time>
      </trkpt>
      <trkpt lat="43.9473076" lon="8.1074753">
        <ele>182.2000000</ele>
        <time>2010-03-07T11:37:49Z</time>
      </trkpt>
      <trkpt lat="43.9473038" lon="8.1072368">
        <ele>183.2000000</ele>
        <time>2010-03-07T11:37:57Z</time>
      </trkpt>
      <trkpt lat="43.9473304" lon="8.1070852">
        <ele>185.0000000</ele>
        <time>2010-03-07T11:38:02Z</time>
      </trkpt>
      <trkpt lat="43.9474335" lon="8.1069002">
        <ele>186.0000000</ele>
        <time>2010-03-07T11:38:10Z</time>
      </trkpt>
      <trkpt lat="43.9475822" lon="8.1067934">
        <ele>187.0000000</ele>
        <time>2010-03-07T11:38:18Z</time>
      </trkpt>
      <trkpt lat="43.9477768" lon="8.1067066">
        <ele>187.9000000</ele>
        <time>2010-03-07T11:38:27Z</time>
      </trkpt>
      <trkpt lat="43.9479713" lon="8.1066542">
        <ele>189.2000000</ele>
        <time>2010-03-07T11:38:36Z</time>
      </trkpt>
      <trkpt lat="43.9481506" lon="8.1066342">
        <ele>191.1000000</ele>
        <time>2010-03-07T11:38:44Z</time>
      </trkpt>
      <trkpt lat="43.9483795" lon="8.1065760">
        <ele>192.6000000</ele>
        <time>2010-03-07T11:38:54Z</time>
      </trkpt>
      <trkpt lat="43.9485779" lon="8.1064711">
        <ele>193.7000000</ele>
        <time>2010-03-07T11:39:02Z</time>
      </trkpt>
      <trkpt lat="43.9487648" lon="8.1063757">
        <ele>194.7000000</ele>
        <time>2010-03-07T11:39:10Z</time>
      </trkpt>
      <trkpt lat="43.9489326" lon="8.1063184">
        <ele>195.1000000</ele>
        <time>2010-03-07T11:39:17Z</time>
      </trkpt>
      <trkpt lat="43.9491539" lon="8.1062479">
        <ele>195.3000000</ele>
        <time>2010-03-07T11:39:26Z</time>
      </trkpt>
      <trkpt lat="43.9492951" lon="8.1061096">
        <ele>196.8000000</ele>
        <time>2010-03-07T11:39:33Z</time>
      </trkpt>
      <trkpt lat="43.9494171" lon="8.1059618">
        <ele>197.0000000</ele>
        <time>2010-03-07T11:39:40Z</time>
      </trkpt>
      <trkpt lat="43.9495163" lon="8.1059809">
        <ele>198.0000000</ele>
        <time>2010-03-07T11:39:45Z</time>
      </trkpt>
      <trkpt lat="43.9495620" lon="8.1061401">
        <ele>199.0000000</ele>
        <time>2010-03-07T11:39:51Z</time>
      </trkpt>
      <trkpt lat="43.9494972" lon="8.1063280">
        <ele>200.0000000</ele>
        <time>2010-03-07T11:39:57Z</time>
      </trkpt>
      <trkpt lat="43.9493790" lon="8.1064310">
        <ele>200.9000000</ele>
        <time>2010-03-07T11:40:03Z</time>
      </trkpt>
      <trkpt lat="43.9491958" lon="8.1065388">
        <ele>202.1000000</ele>
        <time>2010-03-07T11:40:12Z</time>
      </trkpt>
      <trkpt lat="43.9490280" lon="8.1066303">
        <ele>203.1000000</ele>
        <time>2010-03-07T11:40:20Z</time>
      </trkpt>
      <trkpt lat="43.9488564" lon="8.1067743">
        <ele>204.5000000</ele>
        <time>2010-03-07T11:40:29Z</time>
      </trkpt>
      <trkpt lat="43.9487000" lon="8.1069603">
        <ele>205.7000000</ele>
        <time>2010-03-07T11:40:38Z</time>
      </trkpt>
      <trkpt lat="43.9485512" lon="8.1071739">
        <ele>206.4000000</ele>
        <time>2010-03-07T11:40:47Z</time>
      </trkpt>
      <trkpt lat="43.9484787" lon="8.1073694">
        <ele>207.9000000</ele>
        <time>2010-03-07T11:40:54Z</time>
      </trkpt>
      <trkpt lat="43.9485244" lon="8.1075383">
        <ele>209.2000000</ele>
        <time>2010-03-07T11:41:00Z</time>
      </trkpt>
      <trkpt lat="43.9486351" lon="8.1076040">
        <ele>210.0000000</ele>
        <time>2010-03-07T11:41:06Z</time>
      </trkpt>
      <trkpt lat="43.9487495" lon="8.1075487">
        <ele>211.1000000</ele>
        <time>2010-03-07T11:41:12Z</time>
      </trkpt>
      <trkpt lat="43.9488030" lon="8.1074438">
        <ele>212.3000000</ele>
        <time>2010-03-07T11:41:17Z</time>
      </trkpt>
      <trkpt lat="43.9488945" lon="8.1072502">
        <ele>213.5000000</ele>
        <time>2010-03-07T11:41:25Z</time>
      </trkpt>
      <trkpt lat="43.9490280" lon="8.1071959">
        <ele>214.2000000</ele>
        <time>2010-03-07T11:41:32Z</time>
      </trkpt>
      <trkpt lat="43.9491577" lon="8.1071644">
        <ele>215.5000000</ele>
        <time>2010-03-07T11:41:39Z</time>
      </trkpt>
      <trkpt lat="43.9492226" lon="8.1071377">
        <ele>216.4000000</ele>
        <time>2010-03-07T11:41:43Z</time>
      </trkpt>
      <trkpt lat="43.9492798" lon="8.1072197">
        <ele>217.2000000</ele>
        <time>2010-03-07T11:41:48Z</time>
      </trkpt>
      <trkpt lat="43.9492912" lon="8.1072712">
        <ele>217.5000000</ele>
        <time>2010-03-07T11:41:50Z</time>
      </trkpt>
      <trkpt lat="43.9493294" lon="8.1073208">
        <ele>217.2000000</ele>
        <time>2010-03-07T11:41:53Z</time>
      </trkpt>
      <trkpt lat="43.9493904" lon="8.1073751">
        <ele>217.4000000</ele>
        <time>2010-03-07T11:41:57Z</time>
      </trkpt>
      <trkpt lat="43.9494934" lon="8.1074791">
        <ele>217.8000000</ele>
        <time>2010-03-07T11:42:03Z</time>
      </trkpt>
      <trkpt lat="43.9495430" lon="8.1074762">
        <ele>217.7000000</ele>
        <time>2010-03-07T11:42:05Z</time>
      </trkpt>
      <trkpt lat="43.9497604" lon="8.1074285">
        <ele>219.2000000</ele>
        <time>2010-03-07T11:42:15Z</time>
      </trkpt>
      <trkpt lat="43.9499397" lon="8.1073351">
        <ele>221.1000000</ele>
        <time>2010-03-07T11:42:24Z</time>
      </trkpt>
      <trkpt lat="43.9500733" lon="8.1073647">
        <ele>222.0000000</ele>
        <time>2010-03-07T11:42:30Z</time>
      </trkpt>
      <trkpt lat="43.9502449" lon="8.1074791">
        <ele>222.4000000</ele>
        <time>2010-03-07T11:42:38Z</time>
      </trkpt>
      <trkpt lat="43.9504356" lon="8.1075697">
        <ele>223.7000000</ele>
        <time>2010-03-07T11:42:46Z</time>
      </trkpt>
      <trkpt lat="43.9506187" lon="8.1076660">
        <ele>225.0000000</ele>
        <time>2010-03-07T11:42:52Z</time>
      </trkpt>
      <trkpt lat="43.9507408" lon="8.1077481">
        <ele>224.8000000</ele>
        <time>2010-03-07T11:42:56Z</time>
      </trkpt>
      <trkpt lat="43.9508514" lon="8.1079387">
        <ele>224.0000000</ele>
        <time>2010-03-07T11:43:02Z</time>
      </trkpt>
      <trkpt lat="43.9509201" lon="8.1081371">
        <ele>223.8000000</ele>
        <time>2010-03-07T11:43:07Z</time>
      </trkpt>
      <trkpt lat="43.9509353" lon="8.1081905">
        <ele>223.7000000</ele>
        <time>2010-03-07T11:43:08Z</time>
      </trkpt>
      <trkpt lat="43.9509964" lon="8.1085911">
        <ele>223.8000000</ele>
        <time>2010-03-07T11:43:15Z</time>
      </trkpt>
      <trkpt lat="43.9510841" lon="8.1087876">
        <ele>223.4000000</ele>
        <time>2010-03-07T11:43:19Z</time>
      </trkpt>
      <trkpt lat="43.9513244" lon="8.1091261">
        <ele>223.2000000</ele>
        <time>2010-03-07T11:43:28Z</time>
      </trkpt>
      <trkpt lat="43.9515190" lon="8.1092310">
        <ele>224.2000000</ele>
        <time>2010-03-07T11:43:35Z</time>
      </trkpt>
      <trkpt lat="43.9516831" lon="8.1093502">
        <ele>225.0000000</ele>
        <time>2010-03-07T11:43:42Z</time>
      </trkpt>
      <trkpt lat="43.9518509" lon="8.1095734">
        <ele>225.2000000</ele>
        <time>2010-03-07T11:43:50Z</time>
      </trkpt>
      <trkpt lat="43.9520035" lon="8.1099710">
        <ele>225.9000000</ele>
        <time>2010-03-07T11:44:00Z</time>
      </trkpt>
      <trkpt lat="43.9520111" lon="8.1101561">
        <ele>226.8000000</ele>
        <time>2010-03-07T11:44:05Z</time>
      </trkpt>
      <trkpt lat="43.9519272" lon="8.1102638">
        <ele>227.8000000</ele>
        <time>2010-03-07T11:44:10Z</time>
      </trkpt>
      <trkpt lat="43.9517479" lon="8.1103659">
        <ele>229.5000000</ele>
        <time>2010-03-07T11:44:19Z</time>
      </trkpt>
      <trkpt lat="43.9515838" lon="8.1104288">
        <ele>230.8000000</ele>
        <time>2010-03-07T11:44:27Z</time>
      </trkpt>
      <trkpt lat="43.9513779" lon="8.1105432">
        <ele>232.7000000</ele>
        <time>2010-03-07T11:44:38Z</time>
      </trkpt>
      <trkpt lat="43.9512176" lon="8.1106567">
        <ele>233.6000000</ele>
        <time>2010-03-07T11:44:46Z</time>
      </trkpt>
      <trkpt lat="43.9511337" lon="8.1108160">
        <ele>233.8000000</ele>
        <time>2010-03-07T11:44:52Z</time>
      </trkpt>
      <trkpt lat="43.9510994" lon="8.1110668">
        <ele>234.0000000</ele>
        <time>2010-03-07T11:44:59Z</time>
      </trkpt>
      <trkpt lat="43.9510956" lon="8.1113186">
        <ele>234.8000000</ele>
        <time>2010-03-07T11:45:06Z</time>
      </trkpt>
      <trkpt lat="43.9509812" lon="8.1115799">
        <ele>235.1000000</ele>
        <time>2010-03-07T11:45:14Z</time>
      </trkpt>
      <trkpt lat="43.9509163" lon="8.1117954">
        <ele>235.3000000</ele>
        <time>2010-03-07T11:45:20Z</time>
      </trkpt>
      <trkpt lat="43.9509316" lon="8.1120701">
        <ele>234.6000000</ele>
        <time>2010-03-07T11:45:26Z</time>
      </trkpt>
      <trkpt lat="43.9510269" lon="8.1123600">
        <ele>233.5000000</ele>
        <time>2010-03-07T11:45:32Z</time>
      </trkpt>
      <trkpt lat="43.9511528" lon="8.1125917">
        <ele>234.1000000</ele>
        <time>2010-03-07T11:45:38Z</time>
      </trkpt>
      <trkpt lat="43.9512596" lon="8.1127729">
        <ele>235.3000000</ele>
        <time>2010-03-07T11:45:45Z</time>
      </trkpt>
      <trkpt lat="43.9513588" lon="8.1128493">
        <ele>236.5000000</ele>
        <time>2010-03-07T11:45:51Z</time>
      </trkpt>
      <trkpt lat="43.9514809" lon="8.1129456">
        <ele>238.2000000</ele>
        <time>2010-03-07T11:45:59Z</time>
      </trkpt>
      <trkpt lat="43.9515572" lon="8.1130266">
        <ele>239.1000000</ele>
        <time>2010-03-07T11:46:05Z</time>
      </trkpt>
      <trkpt lat="43.9516067" lon="8.1131678">
        <ele>240.4000000</ele>
        <time>2010-03-07T11:46:12Z</time>
      </trkpt>
      <trkpt lat="43.9515533" lon="8.1133547">
        <ele>241.4000000</ele>
        <time>2010-03-07T11:46:20Z</time>
      </trkpt>
      <trkpt lat="43.9514694" lon="8.1136188">
        <ele>242.9000000</ele>
        <time>2010-03-07T11:46:31Z</time>
      </trkpt>
      <trkpt lat="43.9514694" lon="8.1137800">
        <ele>244.0000000</ele>
        <time>2010-03-07T11:46:38Z</time>
      </trkpt>
      <trkpt lat="43.9515496" lon="8.1139222">
        <ele>244.8000000</ele>
        <time>2010-03-07T11:46:45Z</time>
      </trkpt>
      <trkpt lat="43.9516602" lon="8.1140776">
        <ele>245.6000000</ele>
        <time>2010-03-07T11:46:53Z</time>
      </trkpt>
      <trkpt lat="43.9517402" lon="8.1141978">
        <ele>245.9000000</ele>
        <time>2010-03-07T11:46:59Z</time>
      </trkpt>
      <trkpt lat="43.9518356" lon="8.1143379">
        <ele>246.7000000</ele>
        <time>2010-03-07T11:47:06Z</time>
      </trkpt>
      <trkpt lat="43.9519424" lon="8.1145019">
        <ele>247.7000000</ele>
        <time>2010-03-07T11:47:14Z</time>
      </trkpt>
      <trkpt lat="43.9520874" lon="8.1147184">
        <ele>249.1000000</ele>
        <time>2010-03-07T11:47:25Z</time>
      </trkpt>
      <trkpt lat="43.9521866" lon="8.1148443">
        <ele>250.1000000</ele>
        <time>2010-03-07T11:47:32Z</time>
      </trkpt>
      <trkpt lat="43.9522476" lon="8.1149091">
        <ele>250.9000000</ele>
        <time>2010-03-07T11:47:36Z</time>
      </trkpt>
      <trkpt lat="43.9524384" lon="8.1150779">
        <ele>251.7000000</ele>
        <time>2010-03-07T11:47:47Z</time>
      </trkpt>
      <trkpt lat="43.9525909" lon="8.1152649">
        <ele>252.2000000</ele>
        <time>2010-03-07T11:47:56Z</time>
      </trkpt>
      <trkpt lat="43.9527168" lon="8.1154518">
        <ele>252.4000000</ele>
        <time>2010-03-07T11:48:04Z</time>
      </trkpt>
      <trkpt lat="43.9528236" lon="8.1156197">
        <ele>253.7000000</ele>
        <time>2010-03-07T11:48:12Z</time>
      </trkpt>
      <trkpt lat="43.9528656" lon="8.1158523">
        <ele>254.0000000</ele>
        <time>2010-03-07T11:48:19Z</time>
      </trkpt>
      <trkpt lat="43.9528695" lon="8.1161642">
        <ele>254.1000000</ele>
        <time>2010-03-07T11:48:28Z</time>
      </trkpt>
      <trkpt lat="43.9529686" lon="8.1163292">
        <ele>254.4000000</ele>
        <time>2010-03-07T11:48:34Z</time>
      </trkpt>
      <trkpt lat="43.9530716" lon="8.1165915">
        <ele>254.7000000</ele>
        <time>2010-03-07T11:48:42Z</time>
      </trkpt>
      <trkpt lat="43.9531326" lon="8.1168766">
        <ele>256.1000000</ele>
        <time>2010-03-07T11:48:50Z</time>
      </trkpt>
      <trkpt lat="43.9531517" lon="8.1170893">
        <ele>256.0000000</ele>
        <time>2010-03-07T11:48:56Z</time>
      </trkpt>
      <trkpt lat="43.9530601" lon="8.1171694">
        <ele>256.3000000</ele>
        <time>2010-03-07T11:49:00Z</time>
      </trkpt>
      <trkpt lat="43.9528961" lon="8.1172781">
        <ele>256.1000000</ele>
        <time>2010-03-07T11:49:07Z</time>
      </trkpt>
      <trkpt lat="43.9528503" lon="8.1173639">
        <ele>256.6000000</ele>
        <time>2010-03-07T11:49:11Z</time>
      </trkpt>
      <trkpt lat="43.9528542" lon="8.1175804">
        <ele>256.7000000</ele>
        <time>2010-03-07T11:49:17Z</time>
      </trkpt>
      <trkpt lat="43.9529114" lon="8.1178122">
        <ele>257.1000000</ele>
        <time>2010-03-07T11:49:23Z</time>
      </trkpt>
      <trkpt lat="43.9529571" lon="8.1180954">
        <ele>256.7000000</ele>
        <time>2010-03-07T11:49:30Z</time>
      </trkpt>
      <trkpt lat="43.9529610" lon="8.1183300">
        <ele>257.2000000</ele>
        <time>2010-03-07T11:49:37Z</time>
      </trkpt>
      <trkpt lat="43.9529457" lon="8.1185427">
        <ele>259.7000000</ele>
        <time>2010-03-07T11:49:45Z</time>
      </trkpt>
      <trkpt lat="43.9528770" lon="8.1187563">
        <ele>260.9000000</ele>
        <time>2010-03-07T11:49:53Z</time>
      </trkpt>
      <trkpt lat="43.9527931" lon="8.1188640">
        <ele>260.8000000</ele>
        <time>2010-03-07T11:49:58Z</time>
      </trkpt>
      <trkpt lat="43.9526787" lon="8.1190109">
        <ele>261.1000000</ele>
        <time>2010-03-07T11:50:05Z</time>
      </trkpt>
      <trkpt lat="43.9525604" lon="8.1190796">
        <ele>261.4000000</ele>
        <time>2010-03-07T11:50:11Z</time>
      </trkpt>
      <trkpt lat="43.9523735" lon="8.1190386">
        <ele>261.4000000</ele>
        <time>2010-03-07T11:50:19Z</time>
      </trkpt>
      <trkpt lat="43.9521828" lon="8.1190272">
        <ele>262.6000000</ele>
        <time>2010-03-07T11:50:28Z</time>
      </trkpt>
      <trkpt lat="43.9520493" lon="8.1190224">
        <ele>263.4000000</ele>
        <time>2010-03-07T11:50:35Z</time>
      </trkpt>
      <trkpt lat="43.9519539" lon="8.1190224">
        <ele>264.8000000</ele>
        <time>2010-03-07T11:50:41Z</time>
      </trkpt>
      <trkpt lat="43.9518547" lon="8.1191483">
        <ele>265.8000000</ele>
        <time>2010-03-07T11:50:49Z</time>
      </trkpt>
      <trkpt lat="43.9517708" lon="8.1193113">
        <ele>267.3000000</ele>
        <time>2010-03-07T11:50:57Z</time>
      </trkpt>
      <trkpt lat="43.9516869" lon="8.1194267">
        <ele>269.0000000</ele>
        <time>2010-03-07T11:51:04Z</time>
      </trkpt>
      <trkpt lat="43.9515838" lon="8.1195078">
        <ele>270.1000000</ele>
        <time>2010-03-07T11:51:11Z</time>
      </trkpt>
      <trkpt lat="43.9514579" lon="8.1195488">
        <ele>271.8000000</ele>
        <time>2010-03-07T11:51:18Z</time>
      </trkpt>
      <trkpt lat="43.9513398" lon="8.1196699">
        <ele>272.8000000</ele>
        <time>2010-03-07T11:51:26Z</time>
      </trkpt>
      <trkpt lat="43.9512673" lon="8.1198826">
        <ele>274.0000000</ele>
        <time>2010-03-07T11:51:35Z</time>
      </trkpt>
      <trkpt lat="43.9511871" lon="8.1200304">
        <ele>275.2000000</ele>
        <time>2010-03-07T11:51:42Z</time>
      </trkpt>
      <trkpt lat="43.9510383" lon="8.1201668">
        <ele>275.7000000</ele>
        <time>2010-03-07T11:51:50Z</time>
      </trkpt>
      <trkpt lat="43.9509277" lon="8.1201830">
        <ele>276.7000000</ele>
        <time>2010-03-07T11:51:56Z</time>
      </trkpt>
      <trkpt lat="43.9507904" lon="8.1201401">
        <ele>277.4000000</ele>
        <time>2010-03-07T11:52:03Z</time>
      </trkpt>
      <trkpt lat="43.9506302" lon="8.1200685">
        <ele>277.7000000</ele>
        <time>2010-03-07T11:52:11Z</time>
      </trkpt>
      <trkpt lat="43.9504586" lon="8.1199350">
        <ele>278.5000000</ele>
        <time>2010-03-07T11:52:20Z</time>
      </trkpt>
      <trkpt lat="43.9502945" lon="8.1197949">
        <ele>279.1000000</ele>
        <time>2010-03-07T11:52:28Z</time>
      </trkpt>
      <trkpt lat="43.9501648" lon="8.1196804">
        <ele>279.2000000</ele>
        <time>2010-03-07T11:52:34Z</time>
      </trkpt>
      <trkpt lat="43.9500007" lon="8.1195593">
        <ele>280.1000000</ele>
        <time>2010-03-07T11:52:42Z</time>
      </trkpt>
      <trkpt lat="43.9498558" lon="8.1196184">
        <ele>281.2000000</ele>
        <time>2010-03-07T11:52:49Z</time>
      </trkpt>
      <trkpt lat="43.9497261" lon="8.1198273">
        <ele>282.0000000</ele>
        <time>2010-03-07T11:52:58Z</time>
      </trkpt>
      <trkpt lat="43.9496345" lon="8.1200428">
        <ele>282.1000000</ele>
        <time>2010-03-07T11:53:05Z</time>
      </trkpt>
      <trkpt lat="43.9495544" lon="8.1202259">
        <ele>283.0000000</ele>
        <time>2010-03-07T11:53:12Z</time>
      </trkpt>
      <trkpt lat="43.9494362" lon="8.1203870">
        <ele>284.1000000</ele>
        <time>2010-03-07T11:53:20Z</time>
      </trkpt>
      <trkpt lat="43.9492760" lon="8.1205168">
        <ele>284.1000000</ele>
        <time>2010-03-07T11:53:28Z</time>
      </trkpt>
      <trkpt lat="43.9491387" lon="8.1205817">
        <ele>284.4000000</ele>
        <time>2010-03-07T11:53:34Z</time>
      </trkpt>
      <trkpt lat="43.9489250" lon="8.1206055">
        <ele>283.8000000</ele>
        <time>2010-03-07T11:53:42Z</time>
      </trkpt>
      <trkpt lat="43.9486695" lon="8.1206608">
        <ele>283.1000000</ele>
        <time>2010-03-07T11:53:50Z</time>
      </trkpt>
      <trkpt lat="43.9484558" lon="8.1206369">
        <ele>283.2000000</ele>
        <time>2010-03-07T11:53:57Z</time>
      </trkpt>
      <trkpt lat="43.9483414" lon="8.1205196">
        <ele>283.8000000</ele>
        <time>2010-03-07T11:54:03Z</time>
      </trkpt>
      <trkpt lat="43.9482155" lon="8.1203870">
        <ele>285.4000000</ele>
        <time>2010-03-07T11:54:10Z</time>
      </trkpt>
      <trkpt lat="43.9481163" lon="8.1202526">
        <ele>285.2000000</ele>
        <time>2010-03-07T11:54:16Z</time>
      </trkpt>
      <trkpt lat="43.9480171" lon="8.1200628">
        <ele>285.9000000</ele>
        <time>2010-03-07T11:54:23Z</time>
      </trkpt>
      <trkpt lat="43.9478836" lon="8.1198931">
        <ele>287.2000000</ele>
        <time>2010-03-07T11:54:31Z</time>
      </trkpt>
      <trkpt lat="43.9477768" lon="8.1197738">
        <ele>289.2000000</ele>
        <time>2010-03-07T11:54:38Z</time>
      </trkpt>
      <trkpt lat="43.9476929" lon="8.1196766">
        <ele>290.7000000</ele>
        <time>2010-03-07T11:54:44Z</time>
      </trkpt>
      <trkpt lat="43.9476166" lon="8.1196156">
        <ele>292.1000000</ele>
        <time>2010-03-07T11:54:49Z</time>
      </trkpt>
      <trkpt lat="43.9475288" lon="8.1195717">
        <ele>293.0000000</ele>
        <time>2010-03-07T11:54:54Z</time>
      </trkpt>
      <trkpt lat="43.9473648" lon="8.1195774">
        <ele>295.2000000</ele>
        <time>2010-03-07T11:55:03Z</time>
      </trkpt>
      <trkpt lat="43.9472733" lon="8.1197214">
        <ele>295.9000000</ele>
        <time>2010-03-07T11:55:10Z</time>
      </trkpt>
      <trkpt lat="43.9471779" lon="8.1199598">
        <ele>296.1000000</ele>
        <time>2010-03-07T11:55:19Z</time>
      </trkpt>
      <trkpt lat="43.9471016" lon="8.1202068">
        <ele>297.8000000</ele>
        <time>2010-03-07T11:55:28Z</time>
      </trkpt>
      <trkpt lat="43.9470291" lon="8.1203909">
        <ele>298.5000000</ele>
        <time>2010-03-07T11:55:36Z</time>
      </trkpt>
      <trkpt lat="43.9469947" lon="8.1204414">
        <ele>298.4000000</ele>
        <time>2010-03-07T11:55:39Z</time>
      </trkpt>
      <trkpt lat="43.9469528" lon="8.1205234">
        <ele>299.6000000</ele>
        <time>2010-03-07T11:55:44Z</time>
      </trkpt>
      <trkpt lat="43.9468689" lon="8.1206856">
        <ele>301.0000000</ele>
        <time>2010-03-07T11:55:53Z</time>
      </trkpt>
      <trkpt lat="43.9468078" lon="8.1208172">
        <ele>301.6000000</ele>
        <time>2010-03-07T11:55:59Z</time>
      </trkpt>
      <trkpt lat="43.9467392" lon="8.1209802">
        <ele>302.3000000</ele>
        <time>2010-03-07T11:56:06Z</time>
      </trkpt>
      <trkpt lat="43.9466477" lon="8.1212130">
        <ele>302.5000000</ele>
        <time>2010-03-07T11:56:15Z</time>
      </trkpt>
      <trkpt lat="43.9466285" lon="8.1212759">
        <ele>302.4000000</ele>
        <time>2010-03-07T11:56:19Z</time>
      </trkpt>
      <trkpt lat="43.9466285" lon="8.1212816">
        <ele>302.3000000</ele>
        <time>2010-03-07T11:56:20Z</time>
      </trkpt>
      <trkpt lat="43.9466591" lon="8.1213274">
        <ele>305.6000000</ele>
        <time>2010-03-07T11:56:28Z</time>
      </trkpt>
      <trkpt lat="43.9466629" lon="8.1213283">
        <ele>305.9000000</ele>
        <time>2010-03-07T11:56:29Z</time>
      </trkpt>
      <trkpt lat="43.9466973" lon="8.1213407">
        <ele>306.7000000</ele>
        <time>2010-03-07T11:56:37Z</time>
      </trkpt>
      <trkpt lat="43.9467239" lon="8.1213779">
        <ele>307.4000000</ele>
        <time>2010-03-07T11:56:45Z</time>
      </trkpt>
      <trkpt lat="43.9467278" lon="8.1213856">
        <ele>307.4000000</ele>
        <time>2010-03-07T11:56:46Z</time>
      </trkpt>
      <trkpt lat="43.9467316" lon="8.1214829">
        <ele>307.7000000</ele>
        <time>2010-03-07T11:56:52Z</time>
      </trkpt>
      <trkpt lat="43.9467354" lon="8.1215296">
        <ele>307.9000000</ele>
        <time>2010-03-07T11:56:55Z</time>
      </trkpt>
      <trkpt lat="43.9467507" lon="8.1216145">
        <ele>310.4000000</ele>
        <time>2010-03-07T11:57:02Z</time>
      </trkpt>
      <trkpt lat="43.9467544" lon="8.1217127">
        <ele>311.6000000</ele>
        <time>2010-03-07T11:57:11Z</time>
      </trkpt>
      <trkpt lat="43.9467621" lon="8.1218291">
        <ele>312.1000000</ele>
        <time>2010-03-07T11:57:17Z</time>
      </trkpt>
      <trkpt lat="43.9467583" lon="8.1218509">
        <ele>312.2000000</ele>
        <time>2010-03-07T11:57:18Z</time>
      </trkpt>
      <trkpt lat="43.9467430" lon="8.1220322">
        <ele>313.1000000</ele>
        <time>2010-03-07T11:57:26Z</time>
      </trkpt>
      <trkpt lat="43.9467163" lon="8.1221380">
        <ele>313.1000000</ele>
        <time>2010-03-07T11:57:31Z</time>
      </trkpt>
      <trkpt lat="43.9466896" lon="8.1223001">
        <ele>313.7000000</ele>
        <time>2010-03-07T11:57:38Z</time>
      </trkpt>
      <trkpt lat="43.9466629" lon="8.1223850">
        <ele>313.7000000</ele>
        <time>2010-03-07T11:57:42Z</time>
      </trkpt>
      <trkpt lat="43.9466324" lon="8.1224661">
        <ele>313.8000000</ele>
        <time>2010-03-07T11:57:46Z</time>
      </trkpt>
      <trkpt lat="43.9465599" lon="8.1226702">
        <ele>314.2000000</ele>
        <time>2010-03-07T11:57:53Z</time>
      </trkpt>
      <trkpt lat="43.9465141" lon="8.1227980">
        <ele>315.0000000</ele>
        <time>2010-03-07T11:57:57Z</time>
      </trkpt>
      <trkpt lat="43.9464302" lon="8.1229229">
        <ele>315.8000000</ele>
        <time>2010-03-07T11:58:02Z</time>
      </trkpt>
      <trkpt lat="43.9463310" lon="8.1230125">
        <ele>315.8000000</ele>
        <time>2010-03-07T11:58:07Z</time>
      </trkpt>
      <trkpt lat="43.9462547" lon="8.1230383">
        <ele>315.6000000</ele>
        <time>2010-03-07T11:58:10Z</time>
      </trkpt>
      <trkpt lat="43.9460716" lon="8.1230936">
        <ele>315.4000000</ele>
        <time>2010-03-07T11:58:17Z</time>
      </trkpt>
      <trkpt lat="43.9458504" lon="8.1230383">
        <ele>315.4000000</ele>
        <time>2010-03-07T11:58:25Z</time>
      </trkpt>
      <trkpt lat="43.9456597" lon="8.1229257">
        <ele>314.5000000</ele>
        <time>2010-03-07T11:58:31Z</time>
      </trkpt>
      <trkpt lat="43.9454918" lon="8.1228876">
        <ele>314.6000000</ele>
        <time>2010-03-07T11:58:36Z</time>
      </trkpt>
      <trkpt lat="43.9453201" lon="8.1229229">
        <ele>315.2000000</ele>
        <time>2010-03-07T11:58:43Z</time>
      </trkpt>
      <trkpt lat="43.9451676" lon="8.1229257">
        <ele>315.1000000</ele>
        <time>2010-03-07T11:58:49Z</time>
      </trkpt>
      <trkpt lat="43.9449921" lon="8.1228475">
        <ele>315.3000000</ele>
        <time>2010-03-07T11:58:55Z</time>
      </trkpt>
      <trkpt lat="43.9448243" lon="8.1226950">
        <ele>314.8000000</ele>
        <time>2010-03-07T11:59:02Z</time>
      </trkpt>
      <trkpt lat="43.9446984" lon="8.1225911">
        <ele>314.5000000</ele>
        <time>2010-03-07T11:59:07Z</time>
      </trkpt>
      <trkpt lat="43.9445191" lon="8.1225528">
        <ele>315.2000000</ele>
        <time>2010-03-07T11:59:14Z</time>
      </trkpt>
      <trkpt lat="43.9444771" lon="8.1225424">
        <ele>315.2000000</ele>
        <time>2010-03-07T11:59:16Z</time>
      </trkpt>
      <trkpt lat="43.9443664" lon="8.1223879">
        <ele>316.0000000</ele>
        <time>2010-03-07T11:59:23Z</time>
      </trkpt>
      <trkpt lat="43.9443016" lon="8.1222524">
        <ele>316.1000000</ele>
        <time>2010-03-07T11:59:28Z</time>
      </trkpt>
      <trkpt lat="43.9442368" lon="8.1220627">
        <ele>317.2000000</ele>
        <time>2010-03-07T11:59:35Z</time>
      </trkpt>
      <trkpt lat="43.9442177" lon="8.1219320">
        <ele>319.5000000</ele>
        <time>2010-03-07T11:59:42Z</time>
      </trkpt>
      <trkpt lat="43.9441719" lon="8.1217833">
        <ele>320.5000000</ele>
        <time>2010-03-07T11:59:50Z</time>
      </trkpt>
      <trkpt lat="43.9441376" lon="8.1216173">
        <ele>322.1000000</ele>
        <time>2010-03-07T11:59:57Z</time>
      </trkpt>
      <trkpt lat="43.9440384" lon="8.1215058">
        <ele>323.5000000</ele>
        <time>2010-03-07T12:00:04Z</time>
      </trkpt>
      <trkpt lat="43.9439277" lon="8.1214790">
        <ele>323.8000000</ele>
        <time>2010-03-07T12:00:10Z</time>
      </trkpt>
      <trkpt lat="43.9437523" lon="8.1215200">
        <ele>325.4000000</ele>
        <time>2010-03-07T12:00:19Z</time>
      </trkpt>
      <trkpt lat="43.9436531" lon="8.1216126">
        <ele>326.1000000</ele>
        <time>2010-03-07T12:00:25Z</time>
      </trkpt>
      <trkpt lat="43.9435234" lon="8.1217308">
        <ele>327.6000000</ele>
        <time>2010-03-07T12:00:33Z</time>
      </trkpt>
      <trkpt lat="43.9434051" lon="8.1218062">
        <ele>328.9000000</ele>
        <time>2010-03-07T12:00:41Z</time>
      </trkpt>
      <trkpt lat="43.9432869" lon="8.1218252">
        <ele>330.9000000</ele>
        <time>2010-03-07T12:00:50Z</time>
      </trkpt>
      <trkpt lat="43.9432106" lon="8.1218529">
        <ele>332.1000000</ele>
        <time>2010-03-07T12:00:57Z</time>
      </trkpt>
      <trkpt lat="43.9431877" lon="8.1218624">
        <ele>332.4000000</ele>
        <time>2010-03-07T12:01:03Z</time>
      </trkpt>
      <trkpt lat="43.9432029" lon="8.1218844">
        <ele>332.5000000</ele>
        <time>2010-03-07T12:01:15Z</time>
      </trkpt>
      <trkpt lat="43.9432564" lon="8.1219855">
        <ele>332.6000000</ele>
        <time>2010-03-07T12:01:22Z</time>
      </trkpt>
      <trkpt lat="43.9433441" lon="8.1220026">
        <ele>332.7000000</ele>
        <time>2010-03-07T12:01:28Z</time>
      </trkpt>
      <trkpt lat="43.9434852" lon="8.1220055">
        <ele>333.7000000</ele>
        <time>2010-03-07T12:01:37Z</time>
      </trkpt>
      <trkpt lat="43.9436150" lon="8.1219825">
        <ele>334.2000000</ele>
        <time>2010-03-07T12:01:45Z</time>
      </trkpt>
      <trkpt lat="43.9437599" lon="8.1219921">
        <ele>334.5000000</ele>
        <time>2010-03-07T12:01:54Z</time>
      </trkpt>
      <trkpt lat="43.9438401" lon="8.1220684">
        <ele>335.7000000</ele>
        <time>2010-03-07T12:02:01Z</time>
      </trkpt>
      <trkpt lat="43.9438515" lon="8.1221953">
        <ele>337.6000000</ele>
        <time>2010-03-07T12:02:08Z</time>
      </trkpt>
      <trkpt lat="43.9438019" lon="8.1222906">
        <ele>337.8000000</ele>
        <time>2010-03-07T12:02:15Z</time>
      </trkpt>
      <trkpt lat="43.9437790" lon="8.1222944">
        <ele>338.0000000</ele>
        <time>2010-03-07T12:02:17Z</time>
      </trkpt>
      <trkpt lat="43.9436989" lon="8.1222877">
        <ele>338.7000000</ele>
        <time>2010-03-07T12:02:23Z</time>
      </trkpt>
      <trkpt lat="43.9436264" lon="8.1222763">
        <ele>339.9000000</ele>
        <time>2010-03-07T12:02:28Z</time>
      </trkpt>
      <trkpt lat="43.9435654" lon="8.1222801">
        <ele>340.9000000</ele>
        <time>2010-03-07T12:02:32Z</time>
      </trkpt>
      <trkpt lat="43.9434051" lon="8.1223507">
        <ele>342.2000000</ele>
        <time>2010-03-07T12:02:43Z</time>
      </trkpt>
      <trkpt lat="43.9432793" lon="8.1224060">
        <ele>344.5000000</ele>
        <time>2010-03-07T12:02:52Z</time>
      </trkpt>
      <trkpt lat="43.9431992" lon="8.1224441">
        <ele>345.6000000</ele>
        <time>2010-03-07T12:02:58Z</time>
      </trkpt>
      <trkpt lat="43.9432068" lon="8.1225186">
        <ele>346.9000000</ele>
        <time>2010-03-07T12:03:03Z</time>
      </trkpt>
      <trkpt lat="43.9432869" lon="8.1225443">
        <ele>346.3000000</ele>
        <time>2010-03-07T12:03:08Z</time>
      </trkpt>
      <trkpt lat="43.9433441" lon="8.1226177">
        <ele>347.0000000</ele>
        <time>2010-03-07T12:03:14Z</time>
      </trkpt>
      <trkpt lat="43.9433861" lon="8.1226196">
        <ele>346.4000000</ele>
        <time>2010-03-07T12:04:21Z</time>
      </trkpt>
      <trkpt lat="43.9433861" lon="8.1226206">
        <ele>346.5000000</ele>
        <time>2010-03-07T12:04:24Z</time>
      </trkpt>
      <trkpt lat="43.9433899" lon="8.1226206">
        <ele>346.1000000</ele>
        <time>2010-03-07T12:04:27Z</time>
      </trkpt>
      <trkpt lat="43.9433861" lon="8.1226234">
        <ele>346.5000000</ele>
        <time>2010-03-07T12:04:41Z</time>
      </trkpt>
      <trkpt lat="43.9433861" lon="8.1226253">
        <ele>346.4000000</ele>
        <time>2010-03-07T12:04:57Z</time>
      </trkpt>
      <trkpt lat="43.9433822" lon="8.1226263">
        <ele>346.0000000</ele>
        <time>2010-03-07T12:05:00Z</time>
      </trkpt>
      <trkpt lat="43.9433822" lon="8.1226263">
        <ele>346.0000000</ele>
        <time>2010-03-07T12:05:02Z</time>
      </trkpt>
      <trkpt lat="43.9433822" lon="8.1226282">
        <ele>346.8000000</ele>
        <time>2010-03-07T12:05:07Z</time>
      </trkpt>
      <trkpt lat="43.9433822" lon="8.1226301">
        <ele>346.1000000</ele>
        <time>2010-03-07T12:05:23Z</time>
      </trkpt>
      <trkpt lat="43.9433822" lon="8.1226310">
        <ele>345.9000000</ele>
        <time>2010-03-07T12:05:28Z</time>
      </trkpt>
      <trkpt lat="43.9433822" lon="8.1226310">
        <ele>346.2000000</ele>
        <time>2010-03-07T12:05:31Z</time>
      </trkpt>
      <trkpt lat="43.9433785" lon="8.1226320">
        <ele>346.0000000</ele>
        <time>2010-03-07T12:05:43Z</time>
      </trkpt>
      <trkpt lat="43.9433746" lon="8.1226330">
        <ele>346.5000000</ele>
        <time>2010-03-07T12:05:55Z</time>
      </trkpt>
      <trkpt lat="43.9433746" lon="8.1226339">
        <ele>346.5000000</ele>
        <time>2010-03-07T12:05:59Z</time>
      </trkpt>
      <trkpt lat="43.9433746" lon="8.1226349">
        <ele>346.2000000</ele>
        <time>2010-03-07T12:06:05Z</time>
      </trkpt>
      <trkpt lat="43.9433708" lon="8.1226339">
        <ele>346.0000000</ele>
        <time>2010-03-07T12:06:19Z</time>
      </trkpt>
      <trkpt lat="43.9433708" lon="8.1226320">
        <ele>346.2000000</ele>
        <time>2010-03-07T12:06:31Z</time>
      </trkpt>
      <trkpt lat="43.9433746" lon="8.1226282">
        <ele>346.0000000</ele>
        <time>2010-03-07T12:06:37Z</time>
      </trkpt>
      <trkpt lat="43.9433708" lon="8.1226168">
        <ele>346.7000000</ele>
        <time>2010-03-07T12:06:43Z</time>
      </trkpt>
      <trkpt lat="43.9433593" lon="8.1226206">
        <ele>346.4000000</ele>
        <time>2010-03-07T12:06:52Z</time>
      </trkpt>
      <trkpt lat="43.9433556" lon="8.1226216">
        <ele>346.5000000</ele>
        <time>2010-03-07T12:06:57Z</time>
      </trkpt>
      <trkpt lat="43.9433556" lon="8.1226234">
        <ele>346.4000000</ele>
        <time>2010-03-07T12:07:00Z</time>
      </trkpt>
      <trkpt lat="43.9433556" lon="8.1226234">
        <ele>346.5000000</ele>
        <time>2010-03-07T12:07:01Z</time>
      </trkpt>
      <trkpt lat="43.9433517" lon="8.1226234">
        <ele>346.9000000</ele>
        <time>2010-03-07T12:07:06Z</time>
      </trkpt>
      <trkpt lat="43.9433517" lon="8.1226234">
        <ele>346.7000000</ele>
        <time>2010-03-07T12:07:09Z</time>
      </trkpt>
      <trkpt lat="43.9433556" lon="8.1226244">
        <ele>346.4000000</ele>
        <time>2010-03-07T12:07:20Z</time>
      </trkpt>
      <trkpt lat="43.9433556" lon="8.1226158">
        <ele>346.7000000</ele>
        <time>2010-03-07T12:07:37Z</time>
      </trkpt>
      <trkpt lat="43.9433556" lon="8.1226149">
        <ele>346.5000000</ele>
        <time>2010-03-07T12:07:40Z</time>
      </trkpt>
      <trkpt lat="43.9433251" lon="8.1226092">
        <ele>346.5000000</ele>
        <time>2010-03-07T12:07:45Z</time>
      </trkpt>
      <trkpt lat="43.9432983" lon="8.1226339">
        <ele>346.6000000</ele>
        <time>2010-03-07T12:07:50Z</time>
      </trkpt>
      <trkpt lat="43.9432946" lon="8.1226406">
        <ele>346.8000000</ele>
        <time>2010-03-07T12:07:56Z</time>
      </trkpt>
      <trkpt lat="43.9432946" lon="8.1226406">
        <ele>346.5000000</ele>
        <time>2010-03-07T12:07:59Z</time>
      </trkpt>
      <trkpt lat="43.9432793" lon="8.1226387">
        <ele>346.3000000</ele>
        <time>2010-03-07T12:08:06Z</time>
      </trkpt>
      <trkpt lat="43.9432258" lon="8.1226092">
        <ele>346.2000000</ele>
        <time>2010-03-07T12:08:14Z</time>
      </trkpt>
      <trkpt lat="43.9432106" lon="8.1225911">
        <ele>346.4000000</ele>
        <time>2010-03-07T12:08:33Z</time>
      </trkpt>
      <trkpt lat="43.9432144" lon="8.1225700">
        <ele>346.7000000</ele>
        <time>2010-03-07T12:09:04Z</time>
      </trkpt>
      <trkpt lat="43.9432144" lon="8.1225700">
        <ele>346.6000000</ele>
        <time>2010-03-07T12:09:13Z</time>
      </trkpt>
      <trkpt lat="43.9432144" lon="8.1225691">
        <ele>346.9000000</ele>
        <time>2010-03-07T12:09:16Z</time>
      </trkpt>
      <trkpt lat="43.9432144" lon="8.1225681">
        <ele>346.8000000</ele>
        <time>2010-03-07T12:09:17Z</time>
      </trkpt>
      <trkpt lat="43.9432144" lon="8.1225691">
        <ele>347.0000000</ele>
        <time>2010-03-07T12:09:27Z</time>
      </trkpt>
      <trkpt lat="43.9431801" lon="8.1225776">
        <ele>346.4000000</ele>
        <time>2010-03-07T12:10:00Z</time>
      </trkpt>
      <trkpt lat="43.9431801" lon="8.1225767">
        <ele>346.2000000</ele>
        <time>2010-03-07T12:10:02Z</time>
      </trkpt>
      <trkpt lat="43.9431610" lon="8.1225901">
        <ele>346.5000000</ele>
        <time>2010-03-07T12:10:09Z</time>
      </trkpt>
      <trkpt lat="43.9431648" lon="8.1225948">
        <ele>346.2000000</ele>
        <time>2010-03-07T12:10:12Z</time>
      </trkpt>
      <trkpt lat="43.9431687" lon="8.1226044">
        <ele>346.5000000</ele>
        <time>2010-03-07T12:10:22Z</time>
      </trkpt>
      <trkpt lat="43.9431687" lon="8.1226092">
        <ele>346.0000000</ele>
        <time>2010-03-07T12:10:29Z</time>
      </trkpt>
      <trkpt lat="43.9431687" lon="8.1226110">
        <ele>346.3000000</ele>
        <time>2010-03-07T12:10:33Z</time>
      </trkpt>
      <trkpt lat="43.9431687" lon="8.1226187">
        <ele>346.7000000</ele>
        <time>2010-03-07T12:10:45Z</time>
      </trkpt>
      <trkpt lat="43.9431687" lon="8.1226187">
        <ele>346.8000000</ele>
        <time>2010-03-07T12:10:47Z</time>
      </trkpt>
      <trkpt lat="43.9431687" lon="8.1226187">
        <ele>346.2000000</ele>
        <time>2010-03-07T12:10:54Z</time>
      </trkpt>
      <trkpt lat="43.9431724" lon="8.1226206">
        <ele>345.7000000</ele>
        <time>2010-03-07T12:11:22Z</time>
      </trkpt>
      <trkpt lat="43.9431687" lon="8.1226234">
        <ele>346.3000000</ele>
        <time>2010-03-07T12:11:34Z</time>
      </trkpt>
      <trkpt lat="43.9431648" lon="8.1226110">
        <ele>346.1000000</ele>
        <time>2010-03-07T12:11:47Z</time>
      </trkpt>
      <trkpt lat="43.9431648" lon="8.1226092">
        <ele>346.1000000</ele>
        <time>2010-03-07T12:11:51Z</time>
      </trkpt>
      <trkpt lat="43.9431648" lon="8.1226092">
        <ele>346.2000000</ele>
        <time>2010-03-07T12:11:57Z</time>
      </trkpt>
      <trkpt lat="43.9431648" lon="8.1226053">
        <ele>345.9000000</ele>
        <time>2010-03-07T12:12:04Z</time>
      </trkpt>
      <trkpt lat="43.9431572" lon="8.1225929">
        <ele>345.8000000</ele>
        <time>2010-03-07T12:12:23Z</time>
      </trkpt>
      <trkpt lat="43.9431572" lon="8.1225968">
        <ele>345.8000000</ele>
        <time>2010-03-07T12:12:30Z</time>
      </trkpt>
      <trkpt lat="43.9431572" lon="8.1226005">
        <ele>346.1000000</ele>
        <time>2010-03-07T12:12:37Z</time>
      </trkpt>
      <trkpt lat="43.9431572" lon="8.1225987">
        <ele>346.3000000</ele>
        <time>2010-03-07T12:12:39Z</time>
      </trkpt>
      <trkpt lat="43.9431572" lon="8.1225977">
        <ele>346.2000000</ele>
        <time>2010-03-07T12:12:40Z</time>
      </trkpt>
      <trkpt lat="43.9431534" lon="8.1225920">
        <ele>346.2000000</ele>
        <time>2010-03-07T12:12:49Z</time>
      </trkpt>
    </trkseg>
  </trk>

  <trk>
    <name>Trasfer_3</name>
    <extensions>
      <gpxx:TrackExtension xmlns:gpxx="http://www.garmin.com/xmlschemas/GpxExtensions/v3">
        <gpxx:DisplayColor>Blue</gpxx:DisplayColor>
      </gpxx:TrackExtension>
    </extensions>
    <trkseg>
      <trkpt lat="43.9204216" lon="8.1030579">
        <ele>-5.5000000</ele>
        <time>2010-03-07T12:41:15Z</time>
      </trkpt>
      <trkpt lat="43.9204216" lon="8.1030570">
        <ele>-5.5000000</ele>
        <time>2010-03-07T12:41:18Z</time>
      </trkpt>
      <trkpt lat="43.9204407" lon="8.1030607">
        <ele>-6.0000000</ele>
        <time>2010-03-07T12:41:30Z</time>
      </trkpt>
      <trkpt lat="43.9204445" lon="8.1030579">
        <ele>-6.2000000</ele>
        <time>2010-03-07T12:41:39Z</time>
      </trkpt>
      <trkpt lat="43.9204483" lon="8.1030559">
        <ele>-5.7000000</ele>
        <time>2010-03-07T12:41:47Z</time>
      </trkpt>
      <trkpt lat="43.9204636" lon="8.1030646">
        <ele>-5.5000000</ele>
        <time>2010-03-07T12:42:09Z</time>
      </trkpt>
      <trkpt lat="43.9205094" lon="8.1030474">
        <ele>-5.1000000</ele>
        <time>2010-03-07T12:42:16Z</time>
      </trkpt>
      <trkpt lat="43.9205170" lon="8.1030464">
        <ele>-4.7000000</ele>
        <time>2010-03-07T12:42:19Z</time>
      </trkpt>
      <trkpt lat="43.9205246" lon="8.1030455">
        <ele>-4.8000000</ele>
        <time>2010-03-07T12:42:40Z</time>
      </trkpt>
      <trkpt lat="43.9205284" lon="8.1030416">
        <ele>-4.4000000</ele>
        <time>2010-03-07T12:42:52Z</time>
      </trkpt>
      <trkpt lat="43.9206047" lon="8.1030169">
        <ele>-5.3000000</ele>
        <time>2010-03-07T12:43:05Z</time>
      </trkpt>
      <trkpt lat="43.9207573" lon="8.1029492">
        <ele>-5.1000000</ele>
        <time>2010-03-07T12:43:12Z</time>
      </trkpt>
      <trkpt lat="43.9209557" lon="8.1028729">
        <ele>-5.0000000</ele>
        <time>2010-03-07T12:43:21Z</time>
      </trkpt>
      <trkpt lat="43.9211616" lon="8.1027928">
        <ele>-4.8000000</ele>
        <time>2010-03-07T12:43:29Z</time>
      </trkpt>
      <trkpt lat="43.9214019" lon="8.1026764">
        <ele>-4.3000000</ele>
        <time>2010-03-07T12:43:39Z</time>
      </trkpt>
      <trkpt lat="43.9215546" lon="8.1026363">
        <ele>-4.0000000</ele>
        <time>2010-03-07T12:43:46Z</time>
      </trkpt>
      <trkpt lat="43.9216690" lon="8.1025677">
        <ele>-3.8000000</ele>
        <time>2010-03-07T12:43:52Z</time>
      </trkpt>
      <trkpt lat="43.9216537" lon="8.1024113">
        <ele>-4.0000000</ele>
        <time>2010-03-07T12:43:57Z</time>
      </trkpt>
      <trkpt lat="43.9215470" lon="8.1021109">
        <ele>-3.9000000</ele>
        <time>2010-03-07T12:44:06Z</time>
      </trkpt>
      <trkpt lat="43.9214325" lon="8.1017618">
        <ele>-4.1000000</ele>
        <time>2010-03-07T12:44:15Z</time>
      </trkpt>
      <trkpt lat="43.9213104" lon="8.1014071">
        <ele>-3.9000000</ele>
        <time>2010-03-07T12:44:24Z</time>
      </trkpt>
      <trkpt lat="43.9212150" lon="8.1011324">
        <ele>-3.0000000</ele>
        <time>2010-03-07T12:44:31Z</time>
      </trkpt>
      <trkpt lat="43.9210663" lon="8.1007318">
        <ele>-3.3000000</ele>
        <time>2010-03-07T12:44:41Z</time>
      </trkpt>
      <trkpt lat="43.9209098" lon="8.1003313">
        <ele>-3.3000000</ele>
        <time>2010-03-07T12:44:51Z</time>
      </trkpt>
      <trkpt lat="43.9207917" lon="8.0999613">
        <ele>-3.2000000</ele>
        <time>2010-03-07T12:45:00Z</time>
      </trkpt>
      <trkpt lat="43.9207039" lon="8.0996599">
        <ele>-3.3000000</ele>
        <time>2010-03-07T12:45:07Z</time>
      </trkpt>
      <trkpt lat="43.9206047" lon="8.0993223">
        <ele>-3.2000000</ele>
        <time>2010-03-07T12:45:15Z</time>
      </trkpt>
      <trkpt lat="43.9204445" lon="8.0988016">
        <ele>-3.3000000</ele>
        <time>2010-03-07T12:45:27Z</time>
      </trkpt>
      <trkpt lat="43.9203186" lon="8.0983886">
        <ele>-3.3000000</ele>
        <time>2010-03-07T12:45:36Z</time>
      </trkpt>
      <trkpt lat="43.9201927" lon="8.0979929">
        <ele>-3.3000000</ele>
        <time>2010-03-07T12:45:45Z</time>
      </trkpt>
      <trkpt lat="43.9200707" lon="8.0975961">
        <ele>-3.3000000</ele>
        <time>2010-03-07T12:45:54Z</time>
      </trkpt>
      <trkpt lat="43.9199219" lon="8.0971822">
        <ele>-1.1000000</ele>
        <time>2010-03-07T12:46:04Z</time>
      </trkpt>
      <trkpt lat="43.9197998" lon="8.0967750">
        <ele>-2.8000000</ele>
        <time>2010-03-07T12:46:14Z</time>
      </trkpt>
      <trkpt lat="43.9198761" lon="8.0966892">
        <ele>-2.1000000</ele>
        <time>2010-03-07T12:46:18Z</time>
      </trkpt>
      <trkpt lat="43.9199448" lon="8.0966587">
        <ele>-1.8000000</ele>
        <time>2010-03-07T12:46:21Z</time>
      </trkpt>
      <trkpt lat="43.9200630" lon="8.0965757">
        <ele>-0.7000000</ele>
        <time>2010-03-07T12:46:27Z</time>
      </trkpt>
      <trkpt lat="43.9202576" lon="8.0964813">
        <ele>1.5000000</ele>
        <time>2010-03-07T12:46:37Z</time>
      </trkpt>
      <trkpt lat="43.9203949" lon="8.0964241">
        <ele>3.1000000</ele>
        <time>2010-03-07T12:46:45Z</time>
      </trkpt>
      <trkpt lat="43.9205513" lon="8.0963583">
        <ele>5.2000000</ele>
        <time>2010-03-07T12:46:55Z</time>
      </trkpt>
      <trkpt lat="43.9206695" lon="8.0963115">
        <ele>4.5000000</ele>
        <time>2010-03-07T12:46:59Z</time>
      </trkpt>
      <trkpt lat="43.9209137" lon="8.0961962">
        <ele>4.5000000</ele>
        <time>2010-03-07T12:47:07Z</time>
      </trkpt>
      <trkpt lat="43.9210129" lon="8.0961228">
        <ele>4.7000000</ele>
        <time>2010-03-07T12:47:11Z</time>
      </trkpt>
      <trkpt lat="43.9209823" lon="8.0959473">
        <ele>5.0000000</ele>
        <time>2010-03-07T12:47:16Z</time>
      </trkpt>
      <trkpt lat="43.9209633" lon="8.0959139">
        <ele>4.9000000</ele>
        <time>2010-03-07T12:47:17Z</time>
      </trkpt>
      <trkpt lat="43.9208107" lon="8.0956126">
        <ele>4.5000000</ele>
        <time>2010-03-07T12:47:25Z</time>
      </trkpt>
      <trkpt lat="43.9206581" lon="8.0954246">
        <ele>4.1000000</ele>
        <time>2010-03-07T12:47:31Z</time>
      </trkpt>
      <trkpt lat="43.9205170" lon="8.0954743">
        <ele>3.3000000</ele>
        <time>2010-03-07T12:47:35Z</time>
      </trkpt>
      <trkpt lat="43.9203949" lon="8.0954656">
        <ele>2.1000000</ele>
        <time>2010-03-07T12:47:38Z</time>
      </trkpt>
      <trkpt lat="43.9203491" lon="8.0953798">
        <ele>2.1000000</ele>
        <time>2010-03-07T12:47:40Z</time>
      </trkpt>
      <trkpt lat="43.9202461" lon="8.0951147">
        <ele>2.2000000</ele>
        <time>2010-03-07T12:47:47Z</time>
      </trkpt>
      <trkpt lat="43.9201432" lon="8.0948419">
        <ele>2.2000000</ele>
        <time>2010-03-07T12:47:54Z</time>
      </trkpt>
      <trkpt lat="43.9200173" lon="8.0944977">
        <ele>1.3000000</ele>
        <time>2010-03-07T12:48:02Z</time>
      </trkpt>
      <trkpt lat="43.9199219" lon="8.0942116">
        <ele>0.6000000</ele>
        <time>2010-03-07T12:48:09Z</time>
      </trkpt>
      <trkpt lat="43.9198341" lon="8.0939570">
        <ele>0.7000000</ele>
        <time>2010-03-07T12:48:15Z</time>
      </trkpt>
      <trkpt lat="43.9196853" lon="8.0935030">
        <ele>1.0000000</ele>
        <time>2010-03-07T12:48:25Z</time>
      </trkpt>
      <trkpt lat="43.9195442" lon="8.0930967">
        <ele>1.2000000</ele>
        <time>2010-03-07T12:48:34Z</time>
      </trkpt>
      <trkpt lat="43.9194145" lon="8.0927315">
        <ele>0.9000000</ele>
        <time>2010-03-07T12:48:42Z</time>
      </trkpt>
      <trkpt lat="43.9193496" lon="8.0926056">
        <ele>0.7000000</ele>
        <time>2010-03-07T12:48:45Z</time>
      </trkpt>
      <trkpt lat="43.9191666" lon="8.0926009">
        <ele>0.5000000</ele>
        <time>2010-03-07T12:48:50Z</time>
      </trkpt>
      <trkpt lat="43.9189720" lon="8.0926428">
        <ele>-0.0000000</ele>
        <time>2010-03-07T12:48:55Z</time>
      </trkpt>
      <trkpt lat="43.9188385" lon="8.0925112">
        <ele>-0.9000000</ele>
        <time>2010-03-07T12:48:59Z</time>
      </trkpt>
      <trkpt lat="43.9186287" lon="8.0920410">
        <ele>-1.8000000</ele>
        <time>2010-03-07T12:49:07Z</time>
      </trkpt>
      <trkpt lat="43.9184189" lon="8.0915699">
        <ele>-2.5000000</ele>
        <time>2010-03-07T12:49:15Z</time>
      </trkpt>
      <trkpt lat="43.9182015" lon="8.0911274">
        <ele>-2.7000000</ele>
        <time>2010-03-07T12:49:23Z</time>
      </trkpt>
      <trkpt lat="43.9180451" lon="8.0908174">
        <ele>-1.6000000</ele>
        <time>2010-03-07T12:49:30Z</time>
      </trkpt>
      <trkpt lat="43.9178085" lon="8.0904112">
        <ele>-2.0000000</ele>
        <time>2010-03-07T12:49:39Z</time>
      </trkpt>
      <trkpt lat="43.9175644" lon="8.0900364">
        <ele>-1.8000000</ele>
        <time>2010-03-07T12:49:48Z</time>
      </trkpt>
      <trkpt lat="43.9173202" lon="8.0896644">
        <ele>-1.9000000</ele>
        <time>2010-03-07T12:49:57Z</time>
      </trkpt>
      <trkpt lat="43.9170609" lon="8.0892658">
        <ele>-2.7000000</ele>
        <time>2010-03-07T12:50:06Z</time>
      </trkpt>
      <trkpt lat="43.9167862" lon="8.0888424">
        <ele>-3.4000000</ele>
        <time>2010-03-07T12:50:15Z</time>
      </trkpt>
      <trkpt lat="43.9167176" lon="8.0887547">
        <ele>-3.5000000</ele>
        <time>2010-03-07T12:50:17Z</time>
      </trkpt>
      <trkpt lat="43.9164238" lon="8.0883436">
        <ele>-3.8000000</ele>
        <time>2010-03-07T12:50:26Z</time>
      </trkpt>
      <trkpt lat="43.9161873" lon="8.0879793">
        <ele>-3.4000000</ele>
        <time>2010-03-07T12:50:34Z</time>
      </trkpt>
      <trkpt lat="43.9160042" lon="8.0877266">
        <ele>-2.7000000</ele>
        <time>2010-03-07T12:50:41Z</time>
      </trkpt>
      <trkpt lat="43.9158173" lon="8.0875263">
        <ele>-2.6000000</ele>
        <time>2010-03-07T12:50:48Z</time>
      </trkpt>
      <trkpt lat="43.9154816" lon="8.0871029">
        <ele>-3.2000000</ele>
        <time>2010-03-07T12:50:59Z</time>
      </trkpt>
      <trkpt lat="43.9151916" lon="8.0867119">
        <ele>-2.9000000</ele>
        <time>2010-03-07T12:51:09Z</time>
      </trkpt>
      <trkpt lat="43.9149132" lon="8.0863571">
        <ele>-2.4000000</ele>
        <time>2010-03-07T12:51:19Z</time>
      </trkpt>
      <trkpt lat="43.9147034" lon="8.0860424">
        <ele>-2.4000000</ele>
        <time>2010-03-07T12:51:27Z</time>
      </trkpt>
      <trkpt lat="43.9144783" lon="8.0857181">
        <ele>-2.5000000</ele>
        <time>2010-03-07T12:51:35Z</time>
      </trkpt>
      <trkpt lat="43.9143867" lon="8.0855979">
        <ele>-2.6000000</ele>
        <time>2010-03-07T12:51:38Z</time>
      </trkpt>
      <trkpt lat="43.9140701" lon="8.0851412">
        <ele>-2.7000000</ele>
        <time>2010-03-07T12:51:49Z</time>
      </trkpt>
      <trkpt lat="43.9140129" lon="8.0850611">
        <ele>-2.6000000</ele>
        <time>2010-03-07T12:51:51Z</time>
      </trkpt>
      <trkpt lat="43.9137993" lon="8.0847749">
        <ele>-2.6000000</ele>
        <time>2010-03-07T12:51:58Z</time>
      </trkpt>
      <trkpt lat="43.9135094" lon="8.0843858">
        <ele>-2.5000000</ele>
        <time>2010-03-07T12:52:08Z</time>
      </trkpt>
      <trkpt lat="43.9131927" lon="8.0839386">
        <ele>-2.4000000</ele>
        <time>2010-03-07T12:52:19Z</time>
      </trkpt>
      <trkpt lat="43.9129829" lon="8.0835876">
        <ele>-2.1000000</ele>
        <time>2010-03-07T12:52:27Z</time>
      </trkpt>
      <trkpt lat="43.9127006" lon="8.0830412">
        <ele>-2.0000000</ele>
        <time>2010-03-07T12:52:39Z</time>
      </trkpt>
      <trkpt lat="43.9126167" lon="8.0828600">
        <ele>-2.0000000</ele>
        <time>2010-03-07T12:52:43Z</time>
      </trkpt>
      <trkpt lat="43.9126892" lon="8.0826997">
        <ele>-2.1000000</ele>
        <time>2010-03-07T12:52:47Z</time>
      </trkpt>
      <trkpt lat="43.9129219" lon="8.0824614">
        <ele>-1.6000000</ele>
        <time>2010-03-07T12:52:55Z</time>
      </trkpt>
      <trkpt lat="43.9131127" lon="8.0823564">
        <ele>-1.2000000</ele>
        <time>2010-03-07T12:53:01Z</time>
      </trkpt>
      <trkpt lat="43.9133415" lon="8.0822697">
        <ele>0.0000000</ele>
        <time>2010-03-07T12:53:09Z</time>
      </trkpt>
      <trkpt lat="43.9136276" lon="8.0821609">
        <ele>1.1000000</ele>
        <time>2010-03-07T12:53:19Z</time>
      </trkpt>
      <trkpt lat="43.9139481" lon="8.0820102">
        <ele>1.6000000</ele>
        <time>2010-03-07T12:53:30Z</time>
      </trkpt>
      <trkpt lat="43.9142189" lon="8.0818329">
        <ele>1.6000000</ele>
        <time>2010-03-07T12:53:39Z</time>
      </trkpt>
      <trkpt lat="43.9144821" lon="8.0816584">
        <ele>2.3000000</ele>
        <time>2010-03-07T12:53:48Z</time>
      </trkpt>
      <trkpt lat="43.9147683" lon="8.0814533">
        <ele>2.6000000</ele>
        <time>2010-03-07T12:53:58Z</time>
      </trkpt>
      <trkpt lat="43.9150962" lon="8.0812340">
        <ele>2.6000000</ele>
        <time>2010-03-07T12:54:09Z</time>
      </trkpt>
      <trkpt lat="43.9153633" lon="8.0810490">
        <ele>2.9000000</ele>
        <time>2010-03-07T12:54:18Z</time>
      </trkpt>
      <trkpt lat="43.9156189" lon="8.0808763">
        <ele>3.5000000</ele>
        <time>2010-03-07T12:54:27Z</time>
      </trkpt>
      <trkpt lat="43.9158401" lon="8.0807266">
        <ele>3.9000000</ele>
        <time>2010-03-07T12:54:35Z</time>
      </trkpt>
      <trkpt lat="43.9161186" lon="8.0805426">
        <ele>4.8000000</ele>
        <time>2010-03-07T12:54:45Z</time>
      </trkpt>
      <trkpt lat="43.9163246" lon="8.0803652">
        <ele>5.2000000</ele>
        <time>2010-03-07T12:54:53Z</time>
      </trkpt>
      <trkpt lat="43.9165420" lon="8.0801125">
        <ele>5.6000000</ele>
        <time>2010-03-07T12:55:02Z</time>
      </trkpt>
      <trkpt lat="43.9167252" lon="8.0799189">
        <ele>6.0000000</ele>
        <time>2010-03-07T12:55:09Z</time>
      </trkpt>
      <trkpt lat="43.9169311" lon="8.0797501">
        <ele>6.5000000</ele>
        <time>2010-03-07T12:55:17Z</time>
      </trkpt>
      <trkpt lat="43.9172020" lon="8.0795603">
        <ele>7.2000000</ele>
        <time>2010-03-07T12:55:27Z</time>
      </trkpt>
      <trkpt lat="43.9173927" lon="8.0793505">
        <ele>7.0000000</ele>
        <time>2010-03-07T12:55:34Z</time>
      </trkpt>
      <trkpt lat="43.9176178" lon="8.0790682">
        <ele>7.3000000</ele>
        <time>2010-03-07T12:55:43Z</time>
      </trkpt>
      <trkpt lat="43.9178428" lon="8.0788011">
        <ele>7.7000000</ele>
        <time>2010-03-07T12:55:52Z</time>
      </trkpt>
      <trkpt lat="43.9181519" lon="8.0784912">
        <ele>8.4000000</ele>
        <time>2010-03-07T12:56:04Z</time>
      </trkpt>
      <trkpt lat="43.9184037" lon="8.0783005">
        <ele>8.6000000</ele>
        <time>2010-03-07T12:56:13Z</time>
      </trkpt>
      <trkpt lat="43.9186249" lon="8.0781727">
        <ele>9.5000000</ele>
        <time>2010-03-07T12:56:21Z</time>
      </trkpt>
      <trkpt lat="43.9189339" lon="8.0780296">
        <ele>10.4000000</ele>
        <time>2010-03-07T12:56:31Z</time>
      </trkpt>
      <trkpt lat="43.9192314" lon="8.0779056">
        <ele>11.2000000</ele>
        <time>2010-03-07T12:56:41Z</time>
      </trkpt>
      <trkpt lat="43.9194718" lon="8.0777454">
        <ele>11.7000000</ele>
        <time>2010-03-07T12:56:50Z</time>
      </trkpt>
      <trkpt lat="43.9197082" lon="8.0775871">
        <ele>12.1000000</ele>
        <time>2010-03-07T12:56:59Z</time>
      </trkpt>
      <trkpt lat="43.9199028" lon="8.0774383">
        <ele>12.3000000</ele>
        <time>2010-03-07T12:57:06Z</time>
      </trkpt>
      <trkpt lat="43.9201012" lon="8.0773067">
        <ele>12.9000000</ele>
        <time>2010-03-07T12:57:13Z</time>
      </trkpt>
      <trkpt lat="43.9203453" lon="8.0771456">
        <ele>13.5000000</ele>
        <time>2010-03-07T12:57:22Z</time>
      </trkpt>
      <trkpt lat="43.9205589" lon="8.0769939">
        <ele>13.7000000</ele>
        <time>2010-03-07T12:57:30Z</time>
      </trkpt>
      <trkpt lat="43.9206963" lon="8.0769272">
        <ele>13.9000000</ele>
        <time>2010-03-07T12:57:35Z</time>
      </trkpt>
      <trkpt lat="43.9208832" lon="8.0768013">
        <ele>14.4000000</ele>
        <time>2010-03-07T12:57:42Z</time>
      </trkpt>
      <trkpt lat="43.9211311" lon="8.0766392">
        <ele>15.1000000</ele>
        <time>2010-03-07T12:57:51Z</time>
      </trkpt>
      <trkpt lat="43.9213714" lon="8.0764761">
        <ele>15.7000000</ele>
        <time>2010-03-07T12:58:00Z</time>
      </trkpt>
      <trkpt lat="43.9215927" lon="8.0763397">
        <ele>16.5000000</ele>
        <time>2010-03-07T12:58:08Z</time>
      </trkpt>
      <trkpt lat="43.9218750" lon="8.0762033">
        <ele>17.2000000</ele>
        <time>2010-03-07T12:58:18Z</time>
      </trkpt>
      <trkpt lat="43.9221306" lon="8.0760803">
        <ele>17.9000000</ele>
        <time>2010-03-07T12:58:27Z</time>
      </trkpt>
      <trkpt lat="43.9223328" lon="8.0759315">
        <ele>18.1000000</ele>
        <time>2010-03-07T12:58:34Z</time>
      </trkpt>
      <trkpt lat="43.9225388" lon="8.0757646">
        <ele>18.0000000</ele>
        <time>2010-03-07T12:58:41Z</time>
      </trkpt>
      <trkpt lat="43.9228249" lon="8.0756245">
        <ele>18.4000000</ele>
        <time>2010-03-07T12:58:50Z</time>
      </trkpt>
      <trkpt lat="43.9231377" lon="8.0755024">
        <ele>19.0000000</ele>
        <time>2010-03-07T12:59:00Z</time>
      </trkpt>
      <trkpt lat="43.9233475" lon="8.0754271">
        <ele>19.7000000</ele>
        <time>2010-03-07T12:59:07Z</time>
      </trkpt>
      <trkpt lat="43.9236603" lon="8.0752182">
        <ele>20.4000000</ele>
        <time>2010-03-07T12:59:18Z</time>
      </trkpt>
      <trkpt lat="43.9239311" lon="8.0750093">
        <ele>20.9000000</ele>
        <time>2010-03-07T12:59:28Z</time>
      </trkpt>
      <trkpt lat="43.9241448" lon="8.0747481">
        <ele>21.5000000</ele>
        <time>2010-03-07T12:59:37Z</time>
      </trkpt>
      <trkpt lat="43.9242897" lon="8.0744200">
        <ele>22.3000000</ele>
        <time>2010-03-07T12:59:46Z</time>
      </trkpt>
      <trkpt lat="43.9244308" lon="8.0739861">
        <ele>23.1000000</ele>
        <time>2010-03-07T12:59:57Z</time>
      </trkpt>
      <trkpt lat="43.9245377" lon="8.0735569">
        <ele>23.3000000</ele>
        <time>2010-03-07T13:00:07Z</time>
      </trkpt>
      <trkpt lat="43.9246521" lon="8.0731383">
        <ele>22.9000000</ele>
        <time>2010-03-07T13:00:16Z</time>
      </trkpt>
      <trkpt lat="43.9248504" lon="8.0727196">
        <ele>21.8000000</ele>
        <time>2010-03-07T13:00:25Z</time>
      </trkpt>
      <trkpt lat="43.9249954" lon="8.0725117">
        <ele>22.5000000</ele>
        <time>2010-03-07T13:00:31Z</time>
      </trkpt>
      <trkpt lat="43.9250793" lon="8.0724106">
        <ele>23.0000000</ele>
        <time>2010-03-07T13:00:35Z</time>
      </trkpt>
      <trkpt lat="43.9252625" lon="8.0722351">
        <ele>24.6000000</ele>
        <time>2010-03-07T13:00:44Z</time>
      </trkpt>
      <trkpt lat="43.9253349" lon="8.0721732">
        <ele>25.3000000</ele>
        <time>2010-03-07T13:00:48Z</time>
      </trkpt>
      <trkpt lat="43.9255333" lon="8.0720434">
        <ele>27.0000000</ele>
        <time>2010-03-07T13:00:58Z</time>
      </trkpt>
      <trkpt lat="43.9257087" lon="8.0719414">
        <ele>28.3000000</ele>
        <time>2010-03-07T13:01:06Z</time>
      </trkpt>
      <trkpt lat="43.9259376" lon="8.0718632">
        <ele>29.2000000</ele>
        <time>2010-03-07T13:01:16Z</time>
      </trkpt>
      <trkpt lat="43.9261017" lon="8.0718469">
        <ele>29.5000000</ele>
        <time>2010-03-07T13:01:22Z</time>
      </trkpt>
      <trkpt lat="43.9263764" lon="8.0718622">
        <ele>29.6000000</ele>
        <time>2010-03-07T13:01:32Z</time>
      </trkpt>
      <trkpt lat="43.9266090" lon="8.0718613">
        <ele>29.7000000</ele>
        <time>2010-03-07T13:01:40Z</time>
      </trkpt>
      <trkpt lat="43.9268265" lon="8.0717659">
        <ele>30.6000000</ele>
        <time>2010-03-07T13:01:48Z</time>
      </trkpt>
      <trkpt lat="43.9270401" lon="8.0716676">
        <ele>31.1000000</ele>
        <time>2010-03-07T13:01:56Z</time>
      </trkpt>
      <trkpt lat="43.9272881" lon="8.0716162">
        <ele>31.2000000</ele>
        <time>2010-03-07T13:02:04Z</time>
      </trkpt>
      <trkpt lat="43.9275665" lon="8.0715341">
        <ele>31.9000000</ele>
        <time>2010-03-07T13:02:13Z</time>
      </trkpt>
      <trkpt lat="43.9277305" lon="8.0713988">
        <ele>33.1000000</ele>
        <time>2010-03-07T13:02:20Z</time>
      </trkpt>
      <trkpt lat="43.9278908" lon="8.0711908">
        <ele>33.6000000</ele>
        <time>2010-03-07T13:02:28Z</time>
      </trkpt>
      <trkpt lat="43.9280205" lon="8.0709877">
        <ele>33.9000000</ele>
        <time>2010-03-07T13:02:35Z</time>
      </trkpt>
      <trkpt lat="43.9282341" lon="8.0707321">
        <ele>34.3000000</ele>
        <time>2010-03-07T13:02:45Z</time>
      </trkpt>
      <trkpt lat="43.9284477" lon="8.0705690">
        <ele>35.0000000</ele>
        <time>2010-03-07T13:02:54Z</time>
      </trkpt>
      <trkpt lat="43.9286346" lon="8.0704803">
        <ele>35.8000000</ele>
        <time>2010-03-07T13:03:02Z</time>
      </trkpt>
      <trkpt lat="43.9287986" lon="8.0704098">
        <ele>36.7000000</ele>
        <time>2010-03-07T13:03:09Z</time>
      </trkpt>
      <trkpt lat="43.9289513" lon="8.0703411">
        <ele>37.4000000</ele>
        <time>2010-03-07T13:03:16Z</time>
      </trkpt>
      <trkpt lat="43.9291611" lon="8.0702390">
        <ele>38.2000000</ele>
        <time>2010-03-07T13:03:24Z</time>
      </trkpt>
      <trkpt lat="43.9293556" lon="8.0701265">
        <ele>39.1000000</ele>
        <time>2010-03-07T13:03:32Z</time>
      </trkpt>
      <trkpt lat="43.9295578" lon="8.0699797">
        <ele>39.9000000</ele>
        <time>2010-03-07T13:03:41Z</time>
      </trkpt>
      <trkpt lat="43.9297142" lon="8.0698576">
        <ele>40.8000000</ele>
        <time>2010-03-07T13:03:48Z</time>
      </trkpt>
      <trkpt lat="43.9299087" lon="8.0696907">
        <ele>41.6000000</ele>
        <time>2010-03-07T13:03:57Z</time>
      </trkpt>
      <trkpt lat="43.9300843" lon="8.0695286">
        <ele>42.6000000</ele>
        <time>2010-03-07T13:04:06Z</time>
      </trkpt>
      <trkpt lat="43.9302254" lon="8.0694227">
        <ele>43.8000000</ele>
        <time>2010-03-07T13:04:14Z</time>
      </trkpt>
      <trkpt lat="43.9303932" lon="8.0693607">
        <ele>45.3000000</ele>
        <time>2010-03-07T13:04:23Z</time>
      </trkpt>
      <trkpt lat="43.9304085" lon="8.0694428">
        <ele>45.8000000</ele>
        <time>2010-03-07T13:04:27Z</time>
      </trkpt>
      <trkpt lat="43.9303475" lon="8.0697479">
        <ele>46.2000000</ele>
        <time>2010-03-07T13:04:37Z</time>
      </trkpt>
      <trkpt lat="43.9302635" lon="8.0699854">
        <ele>46.7000000</ele>
        <time>2010-03-07T13:04:45Z</time>
      </trkpt>
      <trkpt lat="43.9301300" lon="8.0701255">
        <ele>47.6000000</ele>
        <time>2010-03-07T13:04:52Z</time>
      </trkpt>
      <trkpt lat="43.9300118" lon="8.0702143">
        <ele>48.5000000</ele>
        <time>2010-03-07T13:04:58Z</time>
      </trkpt>
      <trkpt lat="43.9298897" lon="8.0703068">
        <ele>49.6000000</ele>
        <time>2010-03-07T13:05:05Z</time>
      </trkpt>
      <trkpt lat="43.9297828" lon="8.0703764">
        <ele>50.6000000</ele>
        <time>2010-03-07T13:05:11Z</time>
      </trkpt>
      <trkpt lat="43.9296493" lon="8.0704860">
        <ele>51.6000000</ele>
        <time>2010-03-07T13:05:19Z</time>
      </trkpt>
      <trkpt lat="43.9295807" lon="8.0705938">
        <ele>52.4000000</ele>
        <time>2010-03-07T13:05:24Z</time>
      </trkpt>
      <trkpt lat="43.9295311" lon="8.0708246">
        <ele>53.3000000</ele>
        <time>2010-03-07T13:05:32Z</time>
      </trkpt>
      <trkpt lat="43.9294739" lon="8.0711108">
        <ele>54.6000000</ele>
        <time>2010-03-07T13:05:42Z</time>
      </trkpt>
      <trkpt lat="43.9294243" lon="8.0713959">
        <ele>55.8000000</ele>
        <time>2010-03-07T13:05:52Z</time>
      </trkpt>
      <trkpt lat="43.9294205" lon="8.0716353">
        <ele>56.8000000</ele>
        <time>2010-03-07T13:06:00Z</time>
      </trkpt>
      <trkpt lat="43.9294243" lon="8.0718384">
        <ele>57.6000000</ele>
        <time>2010-03-07T13:06:07Z</time>
      </trkpt>
      <trkpt lat="43.9294052" lon="8.0720720">
        <ele>58.3000000</ele>
        <time>2010-03-07T13:06:15Z</time>
      </trkpt>
      <trkpt lat="43.9293251" lon="8.0722379">
        <ele>59.3000000</ele>
        <time>2010-03-07T13:06:22Z</time>
      </trkpt>
      <trkpt lat="43.9293556" lon="8.0723619">
        <ele>60.2000000</ele>
        <time>2010-03-07T13:06:27Z</time>
      </trkpt>
      <trkpt lat="43.9294663" lon="8.0723658">
        <ele>61.1000000</ele>
        <time>2010-03-07T13:06:33Z</time>
      </trkpt>
      <trkpt lat="43.9295693" lon="8.0722179">
        <ele>61.9000000</ele>
        <time>2010-03-07T13:06:40Z</time>
      </trkpt>
      <trkpt lat="43.9296036" lon="8.0720530">
        <ele>62.8000000</ele>
        <time>2010-03-07T13:06:46Z</time>
      </trkpt>
      <trkpt lat="43.9296532" lon="8.0718231">
        <ele>64.0000000</ele>
        <time>2010-03-07T13:06:54Z</time>
      </trkpt>
      <trkpt lat="43.9296989" lon="8.0716486">
        <ele>64.8000000</ele>
        <time>2010-03-07T13:07:00Z</time>
      </trkpt>
      <trkpt lat="43.9297828" lon="8.0713787">
        <ele>65.9000000</ele>
        <time>2010-03-07T13:07:10Z</time>
      </trkpt>
      <trkpt lat="43.9298706" lon="8.0712223">
        <ele>66.8000000</ele>
        <time>2010-03-07T13:07:17Z</time>
      </trkpt>
      <trkpt lat="43.9299279" lon="8.0712948">
        <ele>68.0000000</ele>
        <time>2010-03-07T13:07:22Z</time>
      </trkpt>
      <trkpt lat="43.9299279" lon="8.0713177">
        <ele>68.1000000</ele>
        <time>2010-03-07T13:07:23Z</time>
      </trkpt>
      <trkpt lat="43.9298859" lon="8.0715112">
        <ele>69.3000000</ele>
        <time>2010-03-07T13:07:31Z</time>
      </trkpt>
      <trkpt lat="43.9298362" lon="8.0717430">
        <ele>70.4000000</ele>
        <time>2010-03-07T13:07:40Z</time>
      </trkpt>
      <trkpt lat="43.9298515" lon="8.0719633">
        <ele>71.5000000</ele>
        <time>2010-03-07T13:07:48Z</time>
      </trkpt>
      <trkpt lat="43.9298973" lon="8.0721950">
        <ele>72.6000000</ele>
        <time>2010-03-07T13:07:57Z</time>
      </trkpt>
      <trkpt lat="43.9299507" lon="8.0724583">
        <ele>73.7000000</ele>
        <time>2010-03-07T13:08:07Z</time>
      </trkpt>
      <trkpt lat="43.9299698" lon="8.0727129">
        <ele>75.1000000</ele>
        <time>2010-03-07T13:08:17Z</time>
      </trkpt>
      <trkpt lat="43.9299240" lon="8.0728416">
        <ele>76.0000000</ele>
        <time>2010-03-07T13:08:23Z</time>
      </trkpt>
      <trkpt lat="43.9298401" lon="8.0729122">
        <ele>77.2000000</ele>
        <time>2010-03-07T13:08:30Z</time>
      </trkpt>
      <trkpt lat="43.9297943" lon="8.0729570">
        <ele>77.6000000</ele>
        <time>2010-03-07T13:08:33Z</time>
      </trkpt>
      <trkpt lat="43.9298172" lon="8.0731049">
        <ele>78.3000000</ele>
        <time>2010-03-07T13:08:39Z</time>
      </trkpt>
      <trkpt lat="43.9298706" lon="8.0731211">
        <ele>78.6000000</ele>
        <time>2010-03-07T13:08:42Z</time>
      </trkpt>
      <trkpt lat="43.9300804" lon="8.0730982">
        <ele>80.0000000</ele>
        <time>2010-03-07T13:08:53Z</time>
      </trkpt>
      <trkpt lat="43.9302139" lon="8.0730772">
        <ele>81.0000000</ele>
        <time>2010-03-07T13:09:00Z</time>
      </trkpt>
      <trkpt lat="43.9303436" lon="8.0730152">
        <ele>82.0000000</ele>
        <time>2010-03-07T13:09:07Z</time>
      </trkpt>
      <trkpt lat="43.9303971" lon="8.0728836">
        <ele>83.1000000</ele>
        <time>2010-03-07T13:09:13Z</time>
      </trkpt>
      <trkpt lat="43.9304085" lon="8.0726928">
        <ele>84.0000000</ele>
        <time>2010-03-07T13:09:20Z</time>
      </trkpt>
      <trkpt lat="43.9304314" lon="8.0724640">
        <ele>85.3000000</ele>
        <time>2010-03-07T13:09:29Z</time>
      </trkpt>
      <trkpt lat="43.9304581" lon="8.0722379">
        <ele>86.6000000</ele>
        <time>2010-03-07T13:09:38Z</time>
      </trkpt>
      <trkpt lat="43.9305229" lon="8.0720520">
        <ele>87.8000000</ele>
        <time>2010-03-07T13:09:46Z</time>
      </trkpt>
      <trkpt lat="43.9306259" lon="8.0719509">
        <ele>88.8000000</ele>
        <time>2010-03-07T13:09:53Z</time>
      </trkpt>
      <trkpt lat="43.9307442" lon="8.0719194">
        <ele>89.9000000</ele>
        <time>2010-03-07T13:10:00Z</time>
      </trkpt>
      <trkpt lat="43.9309387" lon="8.0719767">
        <ele>91.2000000</ele>
        <time>2010-03-07T13:10:10Z</time>
      </trkpt>
      <trkpt lat="43.9311371" lon="8.0720120">
        <ele>92.2000000</ele>
        <time>2010-03-07T13:10:20Z</time>
      </trkpt>
      <trkpt lat="43.9313317" lon="8.0720539">
        <ele>93.7000000</ele>
        <time>2010-03-07T13:10:30Z</time>
      </trkpt>
      <trkpt lat="43.9315452" lon="8.0720968">
        <ele>94.7000000</ele>
        <time>2010-03-07T13:10:41Z</time>
      </trkpt>
      <trkpt lat="43.9316864" lon="8.0721331">
        <ele>95.8000000</ele>
        <time>2010-03-07T13:10:48Z</time>
      </trkpt>
      <trkpt lat="43.9318848" lon="8.0722084">
        <ele>96.9000000</ele>
        <time>2010-03-07T13:10:58Z</time>
      </trkpt>
      <trkpt lat="43.9320030" lon="8.0723314">
        <ele>97.0000000</ele>
        <time>2010-03-07T13:11:05Z</time>
      </trkpt>
      <trkpt lat="43.9320183" lon="8.0724030">
        <ele>97.5000000</ele>
        <time>2010-03-07T13:11:08Z</time>
      </trkpt>
      <trkpt lat="43.9319458" lon="8.0724554">
        <ele>98.5000000</ele>
        <time>2010-03-07T13:11:13Z</time>
      </trkpt>
      <trkpt lat="43.9319305" lon="8.0724430">
        <ele>98.5000000</ele>
        <time>2010-03-07T13:11:14Z</time>
      </trkpt>
      <trkpt lat="43.9317894" lon="8.0722971">
        <ele>99.8000000</ele>
        <time>2010-03-07T13:11:23Z</time>
      </trkpt>
      <trkpt lat="43.9316445" lon="8.0722294">
        <ele>100.7000000</ele>
        <time>2010-03-07T13:11:30Z</time>
      </trkpt>
      <trkpt lat="43.9315147" lon="8.0722904">
        <ele>101.2000000</ele>
        <time>2010-03-07T13:11:36Z</time>
      </trkpt>
      <trkpt lat="43.9313698" lon="8.0724497">
        <ele>102.3000000</ele>
        <time>2010-03-07T13:11:45Z</time>
      </trkpt>
      <trkpt lat="43.9312783" lon="8.0725965">
        <ele>103.1000000</ele>
        <time>2010-03-07T13:11:52Z</time>
      </trkpt>
      <trkpt lat="43.9311561" lon="8.0727758">
        <ele>104.0000000</ele>
        <time>2010-03-07T13:12:01Z</time>
      </trkpt>
      <trkpt lat="43.9310722" lon="8.0729599">
        <ele>105.1000000</ele>
        <time>2010-03-07T13:12:09Z</time>
      </trkpt>
      <trkpt lat="43.9310875" lon="8.0731249">
        <ele>105.8000000</ele>
        <time>2010-03-07T13:12:15Z</time>
      </trkpt>
      <trkpt lat="43.9311600" lon="8.0732984">
        <ele>106.2000000</ele>
        <time>2010-03-07T13:12:22Z</time>
      </trkpt>
      <trkpt lat="43.9312630" lon="8.0735407">
        <ele>107.6000000</ele>
        <time>2010-03-07T13:12:32Z</time>
      </trkpt>
      <trkpt lat="43.9312973" lon="8.0737247">
        <ele>108.3000000</ele>
        <time>2010-03-07T13:12:39Z</time>
      </trkpt>
      <trkpt lat="43.9312820" lon="8.0739145">
        <ele>109.2000000</ele>
        <time>2010-03-07T13:12:46Z</time>
      </trkpt>
      <trkpt lat="43.9312019" lon="8.0740251">
        <ele>109.7000000</ele>
        <time>2010-03-07T13:12:52Z</time>
      </trkpt>
      <trkpt lat="43.9310494" lon="8.0741320">
        <ele>110.7000000</ele>
        <time>2010-03-07T13:13:01Z</time>
      </trkpt>
      <trkpt lat="43.9308891" lon="8.0742292">
        <ele>112.1000000</ele>
        <time>2010-03-07T13:13:10Z</time>
      </trkpt>
      <trkpt lat="43.9307137" lon="8.0743484">
        <ele>113.4000000</ele>
        <time>2010-03-07T13:13:20Z</time>
      </trkpt>
      <trkpt lat="43.9305916" lon="8.0744343">
        <ele>114.0000000</ele>
        <time>2010-03-07T13:13:27Z</time>
      </trkpt>
      <trkpt lat="43.9305267" lon="8.0745602">
        <ele>114.7000000</ele>
        <time>2010-03-07T13:13:33Z</time>
      </trkpt>
      <trkpt lat="43.9305764" lon="8.0746708">
        <ele>115.3000000</ele>
        <time>2010-03-07T13:13:38Z</time>
      </trkpt>
      <trkpt lat="43.9306183" lon="8.0746841">
        <ele>115.5000000</ele>
        <time>2010-03-07T13:13:40Z</time>
      </trkpt>
      <trkpt lat="43.9307251" lon="8.0746002">
        <ele>116.0000000</ele>
        <time>2010-03-07T13:13:46Z</time>
      </trkpt>
      <trkpt lat="43.9309006" lon="8.0745039">
        <ele>116.8000000</ele>
        <time>2010-03-07T13:13:55Z</time>
      </trkpt>
      <trkpt lat="43.9310722" lon="8.0744772">
        <ele>117.8000000</ele>
        <time>2010-03-07T13:14:04Z</time>
      </trkpt>
      <trkpt lat="43.9312478" lon="8.0744467">
        <ele>118.9000000</ele>
        <time>2010-03-07T13:14:13Z</time>
      </trkpt>
      <trkpt lat="43.9314041" lon="8.0744323">
        <ele>119.5000000</ele>
        <time>2010-03-07T13:14:21Z</time>
      </trkpt>
      <trkpt lat="43.9315300" lon="8.0743589">
        <ele>120.2000000</ele>
        <time>2010-03-07T13:14:28Z</time>
      </trkpt>
      <trkpt lat="43.9316216" lon="8.0742102">
        <ele>121.2000000</ele>
        <time>2010-03-07T13:14:35Z</time>
      </trkpt>
      <trkpt lat="43.9317016" lon="8.0740452">
        <ele>121.9000000</ele>
        <time>2010-03-07T13:14:42Z</time>
      </trkpt>
      <trkpt lat="43.9317818" lon="8.0738840">
        <ele>122.9000000</ele>
        <time>2010-03-07T13:14:49Z</time>
      </trkpt>
      <trkpt lat="43.9318771" lon="8.0737114">
        <ele>123.7000000</ele>
        <time>2010-03-07T13:14:57Z</time>
      </trkpt>
      <trkpt lat="43.9319687" lon="8.0736723">
        <ele>124.2000000</ele>
        <time>2010-03-07T13:15:02Z</time>
      </trkpt>
      <trkpt lat="43.9320755" lon="8.0737267">
        <ele>124.9000000</ele>
        <time>2010-03-07T13:15:08Z</time>
      </trkpt>
      <trkpt lat="43.9321976" lon="8.0738411">
        <ele>125.9000000</ele>
        <time>2010-03-07T13:15:16Z</time>
      </trkpt>
      <trkpt lat="43.9322967" lon="8.0739498">
        <ele>126.7000000</ele>
        <time>2010-03-07T13:15:23Z</time>
      </trkpt>
      <trkpt lat="43.9324379" lon="8.0740633">
        <ele>128.1000000</ele>
        <time>2010-03-07T13:15:32Z</time>
      </trkpt>
      <trkpt lat="43.9325714" lon="8.0741406">
        <ele>129.3000000</ele>
        <time>2010-03-07T13:15:40Z</time>
      </trkpt>
      <trkpt lat="43.9327583" lon="8.0741920">
        <ele>130.6000000</ele>
        <time>2010-03-07T13:15:50Z</time>
      </trkpt>
      <trkpt lat="43.9328956" lon="8.0741472">
        <ele>131.0000000</ele>
        <time>2010-03-07T13:15:57Z</time>
      </trkpt>
      <trkpt lat="43.9330635" lon="8.0740070">
        <ele>132.3000000</ele>
        <time>2010-03-07T13:16:07Z</time>
      </trkpt>
      <trkpt lat="43.9331856" lon="8.0738402">
        <ele>133.3000000</ele>
        <time>2010-03-07T13:16:16Z</time>
      </trkpt>
      <trkpt lat="43.9332847" lon="8.0736275">
        <ele>134.2000000</ele>
        <time>2010-03-07T13:16:25Z</time>
      </trkpt>
      <trkpt lat="43.9333725" lon="8.0735464">
        <ele>135.0000000</ele>
        <time>2010-03-07T13:16:31Z</time>
      </trkpt>
      <trkpt lat="43.9334145" lon="8.0736552">
        <ele>135.8000000</ele>
        <time>2010-03-07T13:16:37Z</time>
      </trkpt>
      <trkpt lat="43.9334068" lon="8.0736770">
        <ele>135.9000000</ele>
        <time>2010-03-07T13:16:38Z</time>
      </trkpt>
      <trkpt lat="43.9333229" lon="8.0738754">
        <ele>137.2000000</ele>
        <time>2010-03-07T13:16:46Z</time>
      </trkpt>
      <trkpt lat="43.9332313" lon="8.0740528">
        <ele>137.7000000</ele>
        <time>2010-03-07T13:16:53Z</time>
      </trkpt>
      <trkpt lat="43.9330711" lon="8.0742741">
        <ele>138.3000000</ele>
        <time>2010-03-07T13:17:03Z</time>
      </trkpt>
      <trkpt lat="43.9328842" lon="8.0743818">
        <ele>138.6000000</ele>
        <time>2010-03-07T13:17:11Z</time>
      </trkpt>
      <trkpt lat="43.9327011" lon="8.0744734">
        <ele>139.6000000</ele>
        <time>2010-03-07T13:17:20Z</time>
      </trkpt>
      <trkpt lat="43.9325180" lon="8.0745678">
        <ele>140.8000000</ele>
        <time>2010-03-07T13:17:30Z</time>
      </trkpt>
      <trkpt lat="43.9323692" lon="8.0747032">
        <ele>141.6000000</ele>
        <time>2010-03-07T13:17:39Z</time>
      </trkpt>
      <trkpt lat="43.9322739" lon="8.0748653">
        <ele>142.7000000</ele>
        <time>2010-03-07T13:17:46Z</time>
      </trkpt>
      <trkpt lat="43.9321671" lon="8.0750780">
        <ele>144.0000000</ele>
        <time>2010-03-07T13:17:55Z</time>
      </trkpt>
      <trkpt lat="43.9320450" lon="8.0753298">
        <ele>144.9000000</ele>
        <time>2010-03-07T13:18:06Z</time>
      </trkpt>
      <trkpt lat="43.9319611" lon="8.0755100">
        <ele>146.0000000</ele>
        <time>2010-03-07T13:18:14Z</time>
      </trkpt>
      <trkpt lat="43.9318275" lon="8.0756598">
        <ele>146.9000000</ele>
        <time>2010-03-07T13:18:23Z</time>
      </trkpt>
      <trkpt lat="43.9317016" lon="8.0757742">
        <ele>147.9000000</ele>
        <time>2010-03-07T13:18:31Z</time>
      </trkpt>
      <trkpt lat="43.9315491" lon="8.0759001">
        <ele>148.8000000</ele>
        <time>2010-03-07T13:18:40Z</time>
      </trkpt>
      <trkpt lat="43.9313888" lon="8.0759373">
        <ele>149.7000000</ele>
        <time>2010-03-07T13:18:48Z</time>
      </trkpt>
      <trkpt lat="43.9312668" lon="8.0759916">
        <ele>150.6000000</ele>
        <time>2010-03-07T13:18:55Z</time>
      </trkpt>
      <trkpt lat="43.9312554" lon="8.0760136">
        <ele>150.7000000</ele>
        <time>2010-03-07T13:18:56Z</time>
      </trkpt>
      <trkpt lat="43.9313240" lon="8.0761261">
        <ele>151.4000000</ele>
        <time>2010-03-07T13:19:02Z</time>
      </trkpt>
      <trkpt lat="43.9313431" lon="8.0761290">
        <ele>151.5000000</ele>
        <time>2010-03-07T13:19:03Z</time>
      </trkpt>
      <trkpt lat="43.9315033" lon="8.0760813">
        <ele>151.8000000</ele>
        <time>2010-03-07T13:19:11Z</time>
      </trkpt>
      <trkpt lat="43.9316826" lon="8.0759973">
        <ele>152.6000000</ele>
        <time>2010-03-07T13:19:20Z</time>
      </trkpt>
      <trkpt lat="43.9318314" lon="8.0759439">
        <ele>153.8000000</ele>
        <time>2010-03-07T13:19:28Z</time>
      </trkpt>
      <trkpt lat="43.9319839" lon="8.0759354">
        <ele>155.0000000</ele>
        <time>2010-03-07T13:19:36Z</time>
      </trkpt>
      <trkpt lat="43.9321213" lon="8.0758925">
        <ele>155.6000000</ele>
        <time>2010-03-07T13:19:43Z</time>
      </trkpt>
      <trkpt lat="43.9322815" lon="8.0757609">
        <ele>156.8000000</ele>
        <time>2010-03-07T13:19:52Z</time>
      </trkpt>
      <trkpt lat="43.9324264" lon="8.0756102">
        <ele>158.2000000</ele>
        <time>2010-03-07T13:20:01Z</time>
      </trkpt>
      <trkpt lat="43.9325523" lon="8.0754833">
        <ele>159.1000000</ele>
        <time>2010-03-07T13:20:09Z</time>
      </trkpt>
      <trkpt lat="43.9326821" lon="8.0753708">
        <ele>160.0000000</ele>
        <time>2010-03-07T13:20:17Z</time>
      </trkpt>
      <trkpt lat="43.9328614" lon="8.0752906">
        <ele>161.1000000</ele>
        <time>2010-03-07T13:20:27Z</time>
      </trkpt>
      <trkpt lat="43.9330597" lon="8.0752487">
        <ele>162.0000000</ele>
        <time>2010-03-07T13:20:37Z</time>
      </trkpt>
      <trkpt lat="43.9332161" lon="8.0751849">
        <ele>162.9000000</ele>
        <time>2010-03-07T13:20:45Z</time>
      </trkpt>
      <trkpt lat="43.9333496" lon="8.0750485">
        <ele>163.8000000</ele>
        <time>2010-03-07T13:20:53Z</time>
      </trkpt>
      <trkpt lat="43.9334488" lon="8.0748959">
        <ele>164.4000000</ele>
        <time>2010-03-07T13:21:00Z</time>
      </trkpt>
      <trkpt lat="43.9335289" lon="8.0747538">
        <ele>164.9000000</ele>
        <time>2010-03-07T13:21:06Z</time>
      </trkpt>
      <trkpt lat="43.9336586" lon="8.0745582">
        <ele>165.6000000</ele>
        <time>2010-03-07T13:21:15Z</time>
      </trkpt>
      <trkpt lat="43.9337311" lon="8.0745277">
        <ele>166.0000000</ele>
        <time>2010-03-07T13:21:19Z</time>
      </trkpt>
      <trkpt lat="43.9337654" lon="8.0746240">
        <ele>166.7000000</ele>
        <time>2010-03-07T13:21:24Z</time>
      </trkpt>
      <trkpt lat="43.9337463" lon="8.0746918">
        <ele>167.0000000</ele>
        <time>2010-03-07T13:21:27Z</time>
      </trkpt>
      <trkpt lat="43.9336891" lon="8.0748739">
        <ele>168.1000000</ele>
        <time>2010-03-07T13:21:36Z</time>
      </trkpt>
      <trkpt lat="43.9336319" lon="8.0750303">
        <ele>169.2000000</ele>
        <time>2010-03-07T13:21:44Z</time>
      </trkpt>
      <trkpt lat="43.9335975" lon="8.0751695">
        <ele>169.9000000</ele>
        <time>2010-03-07T13:21:50Z</time>
      </trkpt>
      <trkpt lat="43.9335441" lon="8.0754108">
        <ele>171.1000000</ele>
        <time>2010-03-07T13:21:59Z</time>
      </trkpt>
      <trkpt lat="43.9336090" lon="8.0754633">
        <ele>171.4000000</ele>
        <time>2010-03-07T13:22:04Z</time>
      </trkpt>
      <trkpt lat="43.9337387" lon="8.0754452">
        <ele>172.3000000</ele>
        <time>2010-03-07T13:22:12Z</time>
      </trkpt>
      <trkpt lat="43.9339256" lon="8.0754051">
        <ele>172.4000000</ele>
        <time>2010-03-07T13:22:21Z</time>
      </trkpt>
      <trkpt lat="43.9341011" lon="8.0753688">
        <ele>172.8000000</ele>
        <time>2010-03-07T13:22:29Z</time>
      </trkpt>
      <trkpt lat="43.9342575" lon="8.0753460">
        <ele>173.6000000</ele>
        <time>2010-03-07T13:22:36Z</time>
      </trkpt>
      <trkpt lat="43.9344482" lon="8.0752830">
        <ele>174.4000000</ele>
        <time>2010-03-07T13:22:45Z</time>
      </trkpt>
      <trkpt lat="43.9346085" lon="8.0752335">
        <ele>176.0000000</ele>
        <time>2010-03-07T13:22:54Z</time>
      </trkpt>
      <trkpt lat="43.9347344" lon="8.0751886">
        <ele>177.5000000</ele>
        <time>2010-03-07T13:23:02Z</time>
      </trkpt>
      <trkpt lat="43.9348831" lon="8.0751209">
        <ele>179.0000000</ele>
        <time>2010-03-07T13:23:12Z</time>
      </trkpt>
      <trkpt lat="43.9350013" lon="8.0750580">
        <ele>180.9000000</ele>
        <time>2010-03-07T13:23:21Z</time>
      </trkpt>
      <trkpt lat="43.9350891" lon="8.0749998">
        <ele>181.8000000</ele>
        <time>2010-03-07T13:23:27Z</time>
      </trkpt>
      <trkpt lat="43.9352188" lon="8.0749283">
        <ele>182.4000000</ele>
        <time>2010-03-07T13:23:34Z</time>
      </trkpt>
      <trkpt lat="43.9353561" lon="8.0748749">
        <ele>182.8000000</ele>
        <time>2010-03-07T13:23:41Z</time>
      </trkpt>
      <trkpt lat="43.9355354" lon="8.0748510">
        <ele>183.1000000</ele>
        <time>2010-03-07T13:23:49Z</time>
      </trkpt>
      <trkpt lat="43.9357415" lon="8.0748902">
        <ele>183.2000000</ele>
        <time>2010-03-07T13:23:58Z</time>
      </trkpt>
      <trkpt lat="43.9359436" lon="8.0749321">
        <ele>184.1000000</ele>
        <time>2010-03-07T13:24:07Z</time>
      </trkpt>
      <trkpt lat="43.9361038" lon="8.0749703">
        <ele>185.9000000</ele>
        <time>2010-03-07T13:24:16Z</time>
      </trkpt>
      <trkpt lat="43.9362678" lon="8.0750093">
        <ele>187.6000000</ele>
        <time>2010-03-07T13:24:26Z</time>
      </trkpt>
      <trkpt lat="43.9363861" lon="8.0750294">
        <ele>188.4000000</ele>
        <time>2010-03-07T13:24:34Z</time>
      </trkpt>
      <trkpt lat="43.9364853" lon="8.0750303">
        <ele>189.8000000</ele>
        <time>2010-03-07T13:24:41Z</time>
      </trkpt>
      <trkpt lat="43.9365959" lon="8.0750446">
        <ele>191.5000000</ele>
        <time>2010-03-07T13:24:50Z</time>
      </trkpt>
      <trkpt lat="43.9366989" lon="8.0750618">
        <ele>193.1000000</ele>
        <time>2010-03-07T13:24:59Z</time>
      </trkpt>
      <trkpt lat="43.9368057" lon="8.0750285">
        <ele>194.5000000</ele>
        <time>2010-03-07T13:25:07Z</time>
      </trkpt>
      <trkpt lat="43.9368477" lon="8.0749111">
        <ele>195.5000000</ele>
        <time>2010-03-07T13:25:14Z</time>
      </trkpt>
      <trkpt lat="43.9368667" lon="8.0747118">
        <ele>196.2000000</ele>
        <time>2010-03-07T13:25:22Z</time>
      </trkpt>
      <trkpt lat="43.9369355" lon="8.0744896">
        <ele>196.4000000</ele>
        <time>2010-03-07T13:25:30Z</time>
      </trkpt>
      <trkpt lat="43.9370422" lon="8.0741539">
        <ele>197.3000000</ele>
        <time>2010-03-07T13:25:42Z</time>
      </trkpt>
      <trkpt lat="43.9371109" lon="8.0739136">
        <ele>198.8000000</ele>
        <time>2010-03-07T13:25:52Z</time>
      </trkpt>
      <trkpt lat="43.9372024" lon="8.0737972">
        <ele>200.6000000</ele>
        <time>2010-03-07T13:26:01Z</time>
      </trkpt>
      <trkpt lat="43.9373017" lon="8.0737334">
        <ele>201.6000000</ele>
        <time>2010-03-07T13:26:08Z</time>
      </trkpt>
      <trkpt lat="43.9374198" lon="8.0737057">
        <ele>203.7000000</ele>
        <time>2010-03-07T13:26:17Z</time>
      </trkpt>
      <trkpt lat="43.9375267" lon="8.0736752">
        <ele>204.8000000</ele>
        <time>2010-03-07T13:26:25Z</time>
      </trkpt>
      <trkpt lat="43.9376679" lon="8.0736456">
        <ele>205.8000000</ele>
        <time>2010-03-07T13:26:35Z</time>
      </trkpt>
      <trkpt lat="43.9377670" lon="8.0736446">
        <ele>207.0000000</ele>
        <time>2010-03-07T13:26:42Z</time>
      </trkpt>
      <trkpt lat="43.9379082" lon="8.0736847">
        <ele>207.8000000</ele>
        <time>2010-03-07T13:26:50Z</time>
      </trkpt>
      <trkpt lat="43.9380570" lon="8.0737687">
        <ele>208.5000000</ele>
        <time>2010-03-07T13:26:58Z</time>
      </trkpt>
      <trkpt lat="43.9381866" lon="8.0739193">
        <ele>209.5000000</ele>
        <time>2010-03-07T13:27:07Z</time>
      </trkpt>
      <trkpt lat="43.9383049" lon="8.0740862">
        <ele>210.3000000</ele>
        <time>2010-03-07T13:27:16Z</time>
      </trkpt>
      <trkpt lat="43.9384117" lon="8.0742216">
        <ele>211.2000000</ele>
        <time>2010-03-07T13:27:24Z</time>
      </trkpt>
      <trkpt lat="43.9385033" lon="8.0742741">
        <ele>211.9000000</ele>
        <time>2010-03-07T13:27:30Z</time>
      </trkpt>
      <trkpt lat="43.9386177" lon="8.0743189">
        <ele>212.9000000</ele>
        <time>2010-03-07T13:27:38Z</time>
      </trkpt>
      <trkpt lat="43.9387436" lon="8.0743312">
        <ele>214.5000000</ele>
        <time>2010-03-07T13:27:46Z</time>
      </trkpt>
      <trkpt lat="43.9388504" lon="8.0743332">
        <ele>216.2000000</ele>
        <time>2010-03-07T13:27:53Z</time>
      </trkpt>
      <trkpt lat="43.9389572" lon="8.0743055">
        <ele>217.7000000</ele>
        <time>2010-03-07T13:28:00Z</time>
      </trkpt>
      <trkpt lat="43.9389801" lon="8.0742960">
        <ele>218.3000000</ele>
        <time>2010-03-07T13:28:03Z</time>
      </trkpt>
      <trkpt lat="43.9390907" lon="8.0742665">
        <ele>220.0000000</ele>
        <time>2010-03-07T13:28:13Z</time>
      </trkpt>
      <trkpt lat="43.9391937" lon="8.0742483">
        <ele>221.4000000</ele>
        <time>2010-03-07T13:28:22Z</time>
      </trkpt>
      <trkpt lat="43.9393006" lon="8.0742483">
        <ele>223.3000000</ele>
        <time>2010-03-07T13:28:32Z</time>
      </trkpt>
      <trkpt lat="43.9393959" lon="8.0742750">
        <ele>224.5000000</ele>
        <time>2010-03-07T13:28:41Z</time>
      </trkpt>
      <trkpt lat="43.9395065" lon="8.0743227">
        <ele>226.6000000</ele>
        <time>2010-03-07T13:28:53Z</time>
      </trkpt>
      <trkpt lat="43.9395638" lon="8.0743799">
        <ele>228.1000000</ele>
        <time>2010-03-07T13:29:01Z</time>
      </trkpt>
      <trkpt lat="43.9395867" lon="8.0744934">
        <ele>229.8000000</ele>
        <time>2010-03-07T13:29:10Z</time>
      </trkpt>
      <trkpt lat="43.9395294" lon="8.0745669">
        <ele>231.4000000</ele>
        <time>2010-03-07T13:29:19Z</time>
      </trkpt>
      <trkpt lat="43.9394416" lon="8.0745449">
        <ele>232.4000000</ele>
        <time>2010-03-07T13:29:27Z</time>
      </trkpt>
      <trkpt lat="43.9393463" lon="8.0745754">
        <ele>233.4000000</ele>
        <time>2010-03-07T13:29:35Z</time>
      </trkpt>
      <trkpt lat="43.9392395" lon="8.0746880">
        <ele>234.8000000</ele>
        <time>2010-03-07T13:29:46Z</time>
      </trkpt>
      <trkpt lat="43.9391823" lon="8.0748472">
        <ele>235.7000000</ele>
        <time>2010-03-07T13:29:56Z</time>
      </trkpt>
      <trkpt lat="43.9391747" lon="8.0748987">
        <ele>235.9000000</ele>
        <time>2010-03-07T13:30:01Z</time>
      </trkpt>
      <trkpt lat="43.9391289" lon="8.0750742">
        <ele>236.5000000</ele>
        <time>2010-03-07T13:30:09Z</time>
      </trkpt>
      <trkpt lat="43.9390564" lon="8.0753403">
        <ele>237.2000000</ele>
        <time>2010-03-07T13:30:19Z</time>
      </trkpt>
      <trkpt lat="43.9389801" lon="8.0755463">
        <ele>237.9000000</ele>
        <time>2010-03-07T13:30:27Z</time>
      </trkpt>
      <trkpt lat="43.9388619" lon="8.0757837">
        <ele>238.1000000</ele>
        <time>2010-03-07T13:30:36Z</time>
      </trkpt>
      <trkpt lat="43.9387550" lon="8.0759935">
        <ele>238.3000000</ele>
        <time>2010-03-07T13:30:44Z</time>
      </trkpt>
      <trkpt lat="43.9386368" lon="8.0761938">
        <ele>239.4000000</ele>
        <time>2010-03-07T13:30:53Z</time>
      </trkpt>
      <trkpt lat="43.9385528" lon="8.0763178">
        <ele>240.5000000</ele>
        <time>2010-03-07T13:31:01Z</time>
      </trkpt>
      <trkpt lat="43.9384575" lon="8.0764589">
        <ele>242.0000000</ele>
        <time>2010-03-07T13:31:10Z</time>
      </trkpt>
      <trkpt lat="43.9383850" lon="8.0765887">
        <ele>242.8000000</ele>
        <time>2010-03-07T13:31:18Z</time>
      </trkpt>
      <trkpt lat="43.9383698" lon="8.0767431">
        <ele>243.9000000</ele>
        <time>2010-03-07T13:31:25Z</time>
      </trkpt>
      <trkpt lat="43.9383850" lon="8.0767689">
        <ele>244.3000000</ele>
        <time>2010-03-07T13:31:32Z</time>
      </trkpt>
      <trkpt lat="43.9383735" lon="8.0767689">
        <ele>244.2000000</ele>
        <time>2010-03-07T13:31:56Z</time>
      </trkpt>
      <trkpt lat="43.9383659" lon="8.0767679">
        <ele>244.7000000</ele>
        <time>2010-03-07T13:32:08Z</time>
      </trkpt>
      <trkpt lat="43.9383698" lon="8.0767660">
        <ele>244.4000000</ele>
        <time>2010-03-07T13:32:25Z</time>
      </trkpt>
      <trkpt lat="43.9383735" lon="8.0767669">
        <ele>244.4000000</ele>
        <time>2010-03-07T13:32:27Z</time>
      </trkpt>
      <trkpt lat="43.9384460" lon="8.0767832">
        <ele>245.3000000</ele>
        <time>2010-03-07T13:32:33Z</time>
      </trkpt>
      <trkpt lat="43.9385643" lon="8.0767793">
        <ele>246.6000000</ele>
        <time>2010-03-07T13:32:41Z</time>
      </trkpt>
      <trkpt lat="43.9386864" lon="8.0767736">
        <ele>247.9000000</ele>
        <time>2010-03-07T13:32:49Z</time>
      </trkpt>
      <trkpt lat="43.9388123" lon="8.0767298">
        <ele>249.2000000</ele>
        <time>2010-03-07T13:32:58Z</time>
      </trkpt>
      <trkpt lat="43.9389076" lon="8.0766649">
        <ele>250.7000000</ele>
        <time>2010-03-07T13:33:05Z</time>
      </trkpt>
      <trkpt lat="43.9390220" lon="8.0765981">
        <ele>252.6000000</ele>
        <time>2010-03-07T13:33:14Z</time>
      </trkpt>
      <trkpt lat="43.9391289" lon="8.0765447">
        <ele>254.1000000</ele>
        <time>2010-03-07T13:33:22Z</time>
      </trkpt>
      <trkpt lat="43.9392433" lon="8.0764970">
        <ele>255.4000000</ele>
        <time>2010-03-07T13:33:30Z</time>
      </trkpt>
      <trkpt lat="43.9393311" lon="8.0764685">
        <ele>256.5000000</ele>
        <time>2010-03-07T13:33:37Z</time>
      </trkpt>
      <trkpt lat="43.9394340" lon="8.0764504">
        <ele>258.2000000</ele>
        <time>2010-03-07T13:33:45Z</time>
      </trkpt>
      <trkpt lat="43.9395294" lon="8.0764122">
        <ele>260.0000000</ele>
        <time>2010-03-07T13:33:53Z</time>
      </trkpt>
      <trkpt lat="43.9396248" lon="8.0763512">
        <ele>261.6000000</ele>
        <time>2010-03-07T13:34:01Z</time>
      </trkpt>
      <trkpt lat="43.9397163" lon="8.0762558">
        <ele>263.2000000</ele>
        <time>2010-03-07T13:34:10Z</time>
      </trkpt>
      <trkpt lat="43.9398117" lon="8.0761509">
        <ele>264.3000000</ele>
        <time>2010-03-07T13:34:19Z</time>
      </trkpt>
      <trkpt lat="43.9399605" lon="8.0760250">
        <ele>264.6000000</ele>
        <time>2010-03-07T13:34:28Z</time>
      </trkpt>
      <trkpt lat="43.9401474" lon="8.0759077">
        <ele>264.3000000</ele>
        <time>2010-03-07T13:34:37Z</time>
      </trkpt>
      <trkpt lat="43.9403152" lon="8.0758676">
        <ele>264.8000000</ele>
        <time>2010-03-07T13:34:45Z</time>
      </trkpt>
      <trkpt lat="43.9404259" lon="8.0759153">
        <ele>266.0000000</ele>
        <time>2010-03-07T13:34:52Z</time>
      </trkpt>
      <trkpt lat="43.9405709" lon="8.0759611">
        <ele>267.7000000</ele>
        <time>2010-03-07T13:35:02Z</time>
      </trkpt>
      <trkpt lat="43.9406395" lon="8.0759630">
        <ele>269.1000000</ele>
        <time>2010-03-07T13:35:07Z</time>
      </trkpt>
      <trkpt lat="43.9407539" lon="8.0759707">
        <ele>270.9000000</ele>
        <time>2010-03-07T13:35:16Z</time>
      </trkpt>
      <trkpt lat="43.9408874" lon="8.0759897">
        <ele>272.8000000</ele>
        <time>2010-03-07T13:35:27Z</time>
      </trkpt>
      <trkpt lat="43.9409942" lon="8.0760365">
        <ele>273.8000000</ele>
        <time>2010-03-07T13:35:35Z</time>
      </trkpt>
      <trkpt lat="43.9411011" lon="8.0760498">
        <ele>274.9000000</ele>
        <time>2010-03-07T13:35:43Z</time>
      </trkpt>
      <trkpt lat="43.9412155" lon="8.0760441">
        <ele>276.1000000</ele>
        <time>2010-03-07T13:35:51Z</time>
      </trkpt>
      <trkpt lat="43.9413185" lon="8.0760574">
        <ele>277.0000000</ele>
        <time>2010-03-07T13:35:58Z</time>
      </trkpt>
      <trkpt lat="43.9414482" lon="8.0760755">
        <ele>277.7000000</ele>
        <time>2010-03-07T13:36:06Z</time>
      </trkpt>
      <trkpt lat="43.9416466" lon="8.0761080">
        <ele>278.7000000</ele>
        <time>2010-03-07T13:36:18Z</time>
      </trkpt>
      <trkpt lat="43.9417991" lon="8.0761547">
        <ele>279.8000000</ele>
        <time>2010-03-07T13:36:28Z</time>
      </trkpt>
      <trkpt lat="43.9419022" lon="8.0762167">
        <ele>281.1000000</ele>
        <time>2010-03-07T13:36:36Z</time>
      </trkpt>
      <trkpt lat="43.9420052" lon="8.0762940">
        <ele>282.2000000</ele>
        <time>2010-03-07T13:36:44Z</time>
      </trkpt>
      <trkpt lat="43.9421043" lon="8.0763578">
        <ele>283.6000000</ele>
        <time>2010-03-07T13:36:52Z</time>
      </trkpt>
      <trkpt lat="43.9422035" lon="8.0763550">
        <ele>285.3000000</ele>
        <time>2010-03-07T13:36:59Z</time>
      </trkpt>
      <trkpt lat="43.9423218" lon="8.0762987">
        <ele>286.0000000</ele>
        <time>2010-03-07T13:37:07Z</time>
      </trkpt>
      <trkpt lat="43.9424439" lon="8.0762634">
        <ele>286.5000000</ele>
        <time>2010-03-07T13:37:15Z</time>
      </trkpt>
      <trkpt lat="43.9425697" lon="8.0762482">
        <ele>288.0000000</ele>
        <time>2010-03-07T13:37:23Z</time>
      </trkpt>
      <trkpt lat="43.9427032" lon="8.0762148">
        <ele>289.6000000</ele>
        <time>2010-03-07T13:37:32Z</time>
      </trkpt>
      <trkpt lat="43.9427986" lon="8.0761537">
        <ele>291.0000000</ele>
        <time>2010-03-07T13:37:39Z</time>
      </trkpt>
      <trkpt lat="43.9429321" lon="8.0760250">
        <ele>293.3000000</ele>
        <time>2010-03-07T13:37:50Z</time>
      </trkpt>
      <trkpt lat="43.9430084" lon="8.0759210">
        <ele>294.1000000</ele>
        <time>2010-03-07T13:37:57Z</time>
      </trkpt>
      <trkpt lat="43.9431419" lon="8.0758190">
        <ele>294.3000000</ele>
        <time>2010-03-07T13:38:06Z</time>
      </trkpt>
      <trkpt lat="43.9433212" lon="8.0757923">
        <ele>295.2000000</ele>
        <time>2010-03-07T13:38:16Z</time>
      </trkpt>
      <trkpt lat="43.9434815" lon="8.0757990">
        <ele>296.3000000</ele>
        <time>2010-03-07T13:38:25Z</time>
      </trkpt>
      <trkpt lat="43.9435691" lon="8.0758056">
        <ele>297.6000000</ele>
        <time>2010-03-07T13:38:32Z</time>
      </trkpt>
      <trkpt lat="43.9436150" lon="8.0757980">
        <ele>298.1000000</ele>
        <time>2010-03-07T13:38:37Z</time>
      </trkpt>
      <trkpt lat="43.9437065" lon="8.0757723">
        <ele>299.4000000</ele>
        <time>2010-03-07T13:38:45Z</time>
      </trkpt>
      <trkpt lat="43.9438133" lon="8.0757380">
        <ele>301.6000000</ele>
        <time>2010-03-07T13:38:55Z</time>
      </trkpt>
      <trkpt lat="43.9438667" lon="8.0757780">
        <ele>303.0000000</ele>
        <time>2010-03-07T13:39:02Z</time>
      </trkpt>
      <trkpt lat="43.9438706" lon="8.0757990">
        <ele>303.4000000</ele>
        <time>2010-03-07T13:39:04Z</time>
      </trkpt>
      <trkpt lat="43.9438095" lon="8.0758905">
        <ele>305.2000000</ele>
        <time>2010-03-07T13:39:13Z</time>
      </trkpt>
      <trkpt lat="43.9437294" lon="8.0759744">
        <ele>306.4000000</ele>
        <time>2010-03-07T13:39:22Z</time>
      </trkpt>
      <trkpt lat="43.9436798" lon="8.0760012">
        <ele>306.9000000</ele>
        <time>2010-03-07T13:39:29Z</time>
      </trkpt>
      <trkpt lat="43.9435730" lon="8.0760317">
        <ele>307.3000000</ele>
        <time>2010-03-07T13:39:36Z</time>
      </trkpt>
      <trkpt lat="43.9434662" lon="8.0761318">
        <ele>307.8000000</ele>
        <time>2010-03-07T13:39:43Z</time>
      </trkpt>
      <trkpt lat="43.9434319" lon="8.0763054">
        <ele>308.4000000</ele>
        <time>2010-03-07T13:39:50Z</time>
      </trkpt>
      <trkpt lat="43.9434891" lon="8.0764876">
        <ele>309.3000000</ele>
        <time>2010-03-07T13:39:58Z</time>
      </trkpt>
      <trkpt lat="43.9435615" lon="8.0766316">
        <ele>310.3000000</ele>
        <time>2010-03-07T13:40:05Z</time>
      </trkpt>
      <trkpt lat="43.9436798" lon="8.0768127">
        <ele>310.3000000</ele>
        <time>2010-03-07T13:40:13Z</time>
      </trkpt>
      <trkpt lat="43.9438133" lon="8.0770492">
        <ele>310.9000000</ele>
        <time>2010-03-07T13:40:22Z</time>
      </trkpt>
      <trkpt lat="43.9439354" lon="8.0773134">
        <ele>311.2000000</ele>
        <time>2010-03-07T13:40:31Z</time>
      </trkpt>
      <trkpt lat="43.9440651" lon="8.0775900">
        <ele>311.3000000</ele>
        <time>2010-03-07T13:40:41Z</time>
      </trkpt>
      <trkpt lat="43.9441605" lon="8.0776749">
        <ele>312.0000000</ele>
        <time>2010-03-07T13:40:46Z</time>
      </trkpt>
      <trkpt lat="43.9442710" lon="8.0776786">
        <ele>312.6000000</ele>
        <time>2010-03-07T13:40:52Z</time>
      </trkpt>
      <trkpt lat="43.9444275" lon="8.0777340">
        <ele>314.0000000</ele>
        <time>2010-03-07T13:41:01Z</time>
      </trkpt>
      <trkpt lat="43.9445648" lon="8.0778246">
        <ele>314.7000000</ele>
        <time>2010-03-07T13:41:09Z</time>
      </trkpt>
      <trkpt lat="43.9447136" lon="8.0779724">
        <ele>315.3000000</ele>
        <time>2010-03-07T13:41:18Z</time>
      </trkpt>
      <trkpt lat="43.9448319" lon="8.0781422">
        <ele>316.6000000</ele>
        <time>2010-03-07T13:41:27Z</time>
      </trkpt>
      <trkpt lat="43.9449082" lon="8.0782748">
        <ele>318.1000000</ele>
        <time>2010-03-07T13:41:35Z</time>
      </trkpt>
      <trkpt lat="43.9449692" lon="8.0783977">
        <ele>319.6000000</ele>
        <time>2010-03-07T13:41:43Z</time>
      </trkpt>
      <trkpt lat="43.9450188" lon="8.0785151">
        <ele>321.2000000</ele>
        <time>2010-03-07T13:41:50Z</time>
      </trkpt>
      <trkpt lat="43.9450760" lon="8.0786314">
        <ele>322.5000000</ele>
        <time>2010-03-07T13:41:57Z</time>
      </trkpt>
      <trkpt lat="43.9451561" lon="8.0787334">
        <ele>323.3000000</ele>
        <time>2010-03-07T13:42:04Z</time>
      </trkpt>
      <trkpt lat="43.9452705" lon="8.0788689">
        <ele>324.5000000</ele>
        <time>2010-03-07T13:42:13Z</time>
      </trkpt>
      <trkpt lat="43.9453811" lon="8.0790377">
        <ele>325.5000000</ele>
        <time>2010-03-07T13:42:22Z</time>
      </trkpt>
      <trkpt lat="43.9453850" lon="8.0791998">
        <ele>325.7000000</ele>
        <time>2010-03-07T13:42:28Z</time>
      </trkpt>
      <trkpt lat="43.9452858" lon="8.0793743">
        <ele>326.1000000</ele>
        <time>2010-03-07T13:42:36Z</time>
      </trkpt>
      <trkpt lat="43.9452286" lon="8.0794897">
        <ele>327.3000000</ele>
        <time>2010-03-07T13:42:43Z</time>
      </trkpt>
      <trkpt lat="43.9451408" lon="8.0796575">
        <ele>328.6000000</ele>
        <time>2010-03-07T13:42:53Z</time>
      </trkpt>
      <trkpt lat="43.9450951" lon="8.0797215">
        <ele>329.5000000</ele>
        <time>2010-03-07T13:42:58Z</time>
      </trkpt>
      <trkpt lat="43.9450683" lon="8.0797568">
        <ele>330.0000000</ele>
        <time>2010-03-07T13:43:01Z</time>
      </trkpt>
      <trkpt lat="43.9449921" lon="8.0798244">
        <ele>331.8000000</ele>
        <time>2010-03-07T13:43:09Z</time>
      </trkpt>
      <trkpt lat="43.9449082" lon="8.0798912">
        <ele>333.3000000</ele>
        <time>2010-03-07T13:43:16Z</time>
      </trkpt>
      <trkpt lat="43.9448051" lon="8.0799427">
        <ele>334.4000000</ele>
        <time>2010-03-07T13:43:23Z</time>
      </trkpt>
      <trkpt lat="43.9447441" lon="8.0800324">
        <ele>335.3000000</ele>
        <time>2010-03-07T13:43:29Z</time>
      </trkpt>
      <trkpt lat="43.9447670" lon="8.0801506">
        <ele>336.7000000</ele>
        <time>2010-03-07T13:43:37Z</time>
      </trkpt>
      <trkpt lat="43.9448319" lon="8.0801411">
        <ele>338.3000000</ele>
        <time>2010-03-07T13:43:45Z</time>
      </trkpt>
      <trkpt lat="43.9448929" lon="8.0801278">
        <ele>339.0000000</ele>
        <time>2010-03-07T13:43:50Z</time>
      </trkpt>
      <trkpt lat="43.9449196" lon="8.0801258">
        <ele>339.2000000</ele>
        <time>2010-03-07T13:43:52Z</time>
      </trkpt>
      <trkpt lat="43.9449653" lon="8.0801249">
        <ele>340.0000000</ele>
        <time>2010-03-07T13:43:56Z</time>
      </trkpt>
      <trkpt lat="43.9450569" lon="8.0801372">
        <ele>341.0000000</ele>
        <time>2010-03-07T13:44:02Z</time>
      </trkpt>
      <trkpt lat="43.9451828" lon="8.0801563">
        <ele>342.2000000</ele>
        <time>2010-03-07T13:44:11Z</time>
      </trkpt>
      <trkpt lat="43.9452705" lon="8.0801506">
        <ele>343.2000000</ele>
        <time>2010-03-07T13:44:18Z</time>
      </trkpt>
      <trkpt lat="43.9453583" lon="8.0801354">
        <ele>344.1000000</ele>
        <time>2010-03-07T13:44:25Z</time>
      </trkpt>
      <trkpt lat="43.9454345" lon="8.0801153">
        <ele>345.0000000</ele>
        <time>2010-03-07T13:44:31Z</time>
      </trkpt>
      <trkpt lat="43.9455376" lon="8.0800609">
        <ele>346.2000000</ele>
        <time>2010-03-07T13:44:39Z</time>
      </trkpt>
      <trkpt lat="43.9456521" lon="8.0800037">
        <ele>347.7000000</ele>
        <time>2010-03-07T13:44:47Z</time>
      </trkpt>
      <trkpt lat="43.9457588" lon="8.0799627">
        <ele>349.4000000</ele>
        <time>2010-03-07T13:44:55Z</time>
      </trkpt>
      <trkpt lat="43.9458504" lon="8.0799485">
        <ele>351.1000000</ele>
        <time>2010-03-07T13:45:03Z</time>
      </trkpt>
      <trkpt lat="43.9459305" lon="8.0799408">
        <ele>352.5000000</ele>
        <time>2010-03-07T13:45:09Z</time>
      </trkpt>
      <trkpt lat="43.9460144" lon="8.0799455">
        <ele>353.8000000</ele>
        <time>2010-03-07T13:45:15Z</time>
      </trkpt>
      <trkpt lat="43.9461174" lon="8.0799351">
        <ele>354.8000000</ele>
        <time>2010-03-07T13:45:22Z</time>
      </trkpt>
      <trkpt lat="43.9462128" lon="8.0799189">
        <ele>355.3000000</ele>
        <time>2010-03-07T13:45:28Z</time>
      </trkpt>
      <trkpt lat="43.9463081" lon="8.0798550">
        <ele>355.5000000</ele>
        <time>2010-03-07T13:45:34Z</time>
      </trkpt>
      <trkpt lat="43.9464111" lon="8.0797682">
        <ele>355.9000000</ele>
        <time>2010-03-07T13:45:41Z</time>
      </trkpt>
      <trkpt lat="43.9465294" lon="8.0796118">
        <ele>356.9000000</ele>
        <time>2010-03-07T13:45:50Z</time>
      </trkpt>
      <trkpt lat="43.9466171" lon="8.0794344">
        <ele>357.6000000</ele>
        <time>2010-03-07T13:45:58Z</time>
      </trkpt>
      <trkpt lat="43.9466362" lon="8.0792427">
        <ele>357.9000000</ele>
        <time>2010-03-07T13:46:05Z</time>
      </trkpt>
      <trkpt lat="43.9465828" lon="8.0790338">
        <ele>358.3000000</ele>
        <time>2010-03-07T13:46:13Z</time>
      </trkpt>
      <trkpt lat="43.9465065" lon="8.0788421">
        <ele>358.8000000</ele>
        <time>2010-03-07T13:46:21Z</time>
      </trkpt>
      <trkpt lat="43.9464150" lon="8.0786400">
        <ele>359.4000000</ele>
        <time>2010-03-07T13:46:30Z</time>
      </trkpt>
      <trkpt lat="43.9463234" lon="8.0784330">
        <ele>359.8000000</ele>
        <time>2010-03-07T13:46:39Z</time>
      </trkpt>
      <trkpt lat="43.9462395" lon="8.0782547">
        <ele>360.4000000</ele>
        <time>2010-03-07T13:46:47Z</time>
      </trkpt>
      <trkpt lat="43.9461174" lon="8.0781002">
        <ele>362.0000000</ele>
        <time>2010-03-07T13:46:56Z</time>
      </trkpt>
      <trkpt lat="43.9460640" lon="8.0780106">
        <ele>362.9000000</ele>
        <time>2010-03-07T13:47:01Z</time>
      </trkpt>
      <trkpt lat="43.9459495" lon="8.0778932">
        <ele>364.9000000</ele>
        <time>2010-03-07T13:47:10Z</time>
      </trkpt>
      <trkpt lat="43.9458618" lon="8.0777540">
        <ele>366.0000000</ele>
        <time>2010-03-07T13:47:19Z</time>
      </trkpt>
      <trkpt lat="43.9458007" lon="8.0776176">
        <ele>367.4000000</ele>
        <time>2010-03-07T13:47:27Z</time>
      </trkpt>
      <trkpt lat="43.9457207" lon="8.0774631">
        <ele>369.4000000</ele>
        <time>2010-03-07T13:47:36Z</time>
      </trkpt>
      <trkpt lat="43.9456749" lon="8.0772858">
        <ele>370.9000000</ele>
        <time>2010-03-07T13:47:45Z</time>
      </trkpt>
      <trkpt lat="43.9457245" lon="8.0771303">
        <ele>372.0000000</ele>
        <time>2010-03-07T13:47:53Z</time>
      </trkpt>
      <trkpt lat="43.9458275" lon="8.0770388">
        <ele>373.2000000</ele>
        <time>2010-03-07T13:48:01Z</time>
      </trkpt>
      <trkpt lat="43.9459495" lon="8.0770006">
        <ele>374.4000000</ele>
        <time>2010-03-07T13:48:09Z</time>
      </trkpt>
      <trkpt lat="43.9460869" lon="8.0770254">
        <ele>375.7000000</ele>
        <time>2010-03-07T13:48:18Z</time>
      </trkpt>
      <trkpt lat="43.9462509" lon="8.0770684">
        <ele>376.5000000</ele>
        <time>2010-03-07T13:48:28Z</time>
      </trkpt>
      <trkpt lat="43.9464150" lon="8.0770626">
        <ele>376.9000000</ele>
        <time>2010-03-07T13:48:36Z</time>
      </trkpt>
      <trkpt lat="43.9465675" lon="8.0770226">
        <ele>378.3000000</ele>
        <time>2010-03-07T13:48:43Z</time>
      </trkpt>
      <trkpt lat="43.9466934" lon="8.0769682">
        <ele>379.1000000</ele>
        <time>2010-03-07T13:48:49Z</time>
      </trkpt>
      <trkpt lat="43.9468651" lon="8.0769091">
        <ele>380.5000000</ele>
        <time>2010-03-07T13:48:57Z</time>
      </trkpt>
      <trkpt lat="43.9470139" lon="8.0768891">
        <ele>381.1000000</ele>
        <time>2010-03-07T13:49:04Z</time>
      </trkpt>
      <trkpt lat="43.9471245" lon="8.0769911">
        <ele>382.1000000</ele>
        <time>2010-03-07T13:49:10Z</time>
      </trkpt>
      <trkpt lat="43.9472465" lon="8.0771083">
        <ele>382.8000000</ele>
        <time>2010-03-07T13:49:16Z</time>
      </trkpt>
      <trkpt lat="43.9474411" lon="8.0771942">
        <ele>382.9000000</ele>
        <time>2010-03-07T13:49:23Z</time>
      </trkpt>
      <trkpt lat="43.9475670" lon="8.0771771">
        <ele>383.5000000</ele>
        <time>2010-03-07T13:49:28Z</time>
      </trkpt>
      <trkpt lat="43.9477005" lon="8.0771237">
        <ele>384.9000000</ele>
        <time>2010-03-07T13:49:34Z</time>
      </trkpt>
      <trkpt lat="43.9478340" lon="8.0770750">
        <ele>386.4000000</ele>
        <time>2010-03-07T13:49:41Z</time>
      </trkpt>
      <trkpt lat="43.9479523" lon="8.0770597">
        <ele>387.7000000</ele>
        <time>2010-03-07T13:49:48Z</time>
      </trkpt>
      <trkpt lat="43.9480706" lon="8.0770731">
        <ele>388.7000000</ele>
        <time>2010-03-07T13:49:56Z</time>
      </trkpt>
      <trkpt lat="43.9481735" lon="8.0770950">
        <ele>389.4000000</ele>
        <time>2010-03-07T13:50:03Z</time>
      </trkpt>
      <trkpt lat="43.9482994" lon="8.0770969">
        <ele>391.2000000</ele>
        <time>2010-03-07T13:50:11Z</time>
      </trkpt>
      <trkpt lat="43.9484368" lon="8.0770902">
        <ele>392.4000000</ele>
        <time>2010-03-07T13:50:20Z</time>
      </trkpt>
      <trkpt lat="43.9485626" lon="8.0770455">
        <ele>393.7000000</ele>
        <time>2010-03-07T13:50:29Z</time>
      </trkpt>
      <trkpt lat="43.9487000" lon="8.0769691">
        <ele>395.6000000</ele>
        <time>2010-03-07T13:50:38Z</time>
      </trkpt>
      <trkpt lat="43.9487953" lon="8.0769253">
        <ele>396.1000000</ele>
        <time>2010-03-07T13:50:44Z</time>
      </trkpt>
      <trkpt lat="43.9489326" lon="8.0769167">
        <ele>397.3000000</ele>
        <time>2010-03-07T13:50:52Z</time>
      </trkpt>
      <trkpt lat="43.9490433" lon="8.0769138">
        <ele>398.1000000</ele>
        <time>2010-03-07T13:51:00Z</time>
      </trkpt>
      <trkpt lat="43.9491653" lon="8.0768700">
        <ele>399.3000000</ele>
        <time>2010-03-07T13:51:08Z</time>
      </trkpt>
      <trkpt lat="43.9492912" lon="8.0768233">
        <ele>400.2000000</ele>
        <time>2010-03-07T13:51:15Z</time>
      </trkpt>
      <trkpt lat="43.9494286" lon="8.0767736">
        <ele>400.5000000</ele>
        <time>2010-03-07T13:51:22Z</time>
      </trkpt>
      <trkpt lat="43.9495278" lon="8.0767956">
        <ele>401.0000000</ele>
        <time>2010-03-07T13:51:27Z</time>
      </trkpt>
      <trkpt lat="43.9496918" lon="8.0768547">
        <ele>403.7000000</ele>
        <time>2010-03-07T13:51:36Z</time>
      </trkpt>
      <trkpt lat="43.9498101" lon="8.0768938">
        <ele>405.0000000</ele>
        <time>2010-03-07T13:51:45Z</time>
      </trkpt>
      <trkpt lat="43.9498291" lon="8.0769653">
        <ele>405.4000000</ele>
        <time>2010-03-07T13:51:50Z</time>
      </trkpt>
      <trkpt lat="43.9497604" lon="8.0770331">
        <ele>405.3000000</ele>
        <time>2010-03-07T13:51:56Z</time>
      </trkpt>
      <trkpt lat="43.9497376" lon="8.0770549">
        <ele>405.5000000</ele>
        <time>2010-03-07T13:52:01Z</time>
      </trkpt>
      <trkpt lat="43.9497833" lon="8.0770512">
        <ele>404.7000000</ele>
        <time>2010-03-07T13:52:33Z</time>
      </trkpt>
      <trkpt lat="43.9497872" lon="8.0770512">
        <ele>404.7000000</ele>
        <time>2010-03-07T13:52:34Z</time>
      </trkpt>
      <trkpt lat="43.9497948" lon="8.0770521">
        <ele>403.7000000</ele>
        <time>2010-03-07T13:53:07Z</time>
      </trkpt>
      <trkpt lat="43.9497948" lon="8.0770521">
        <ele>403.7000000</ele>
        <time>2010-03-07T13:53:10Z</time>
      </trkpt>
      <trkpt lat="43.9497948" lon="8.0770521">
        <ele>403.7000000</ele>
        <time>2010-03-07T13:53:11Z</time>
      </trkpt>
      <trkpt lat="43.9497948" lon="8.0770503">
        <ele>403.5000000</ele>
        <time>2010-03-07T13:53:32Z</time>
      </trkpt>
      <trkpt lat="43.9497910" lon="8.0770521">
        <ele>403.4000000</ele>
        <time>2010-03-07T13:53:51Z</time>
      </trkpt>
      <trkpt lat="43.9497910" lon="8.0770521">
        <ele>403.3000000</ele>
        <time>2010-03-07T13:54:15Z</time>
      </trkpt>
      <trkpt lat="43.9497872" lon="8.0770521">
        <ele>403.2000000</ele>
        <time>2010-03-07T13:54:22Z</time>
      </trkpt>
    </trkseg>
  </trk>

  <trk>
    <name>Trasfer_CO_1</name>
    <extensions>
      <gpxx:TrackExtension xmlns:gpxx="http://www.garmin.com/xmlschemas/GpxExtensions/v3">
        <gpxx:DisplayColor>Blue</gpxx:DisplayColor>
      </gpxx:TrackExtension>
    </extensions>
    <trkseg>
      <trkpt lat="43.9280967" lon="8.1153441">
        <ele>76.9000000</ele>
        <time>2010-03-07T10:45:02Z</time>
      </trkpt>
      <trkpt lat="43.9280357" lon="8.1153212">
        <ele>76.5000000</ele>
        <time>2010-03-07T10:45:13Z</time>
      </trkpt>
      <trkpt lat="43.9279098" lon="8.1153078">
        <ele>76.0000000</ele>
        <time>2010-03-07T10:45:19Z</time>
      </trkpt>
      <trkpt lat="43.9277687" lon="8.1153097">
        <ele>75.2000000</ele>
        <time>2010-03-07T10:45:24Z</time>
      </trkpt>
      <trkpt lat="43.9275894" lon="8.1153021">
        <ele>75.0000000</ele>
        <time>2010-03-07T10:45:29Z</time>
      </trkpt>
      <trkpt lat="43.9274025" lon="8.1152744">
        <ele>73.9000000</ele>
        <time>2010-03-07T10:45:33Z</time>
      </trkpt>
      <trkpt lat="43.9272957" lon="8.1152325">
        <ele>72.9000000</ele>
        <time>2010-03-07T10:45:35Z</time>
      </trkpt>
      <trkpt lat="43.9272118" lon="8.1150513">
        <ele>69.5000000</ele>
        <time>2010-03-07T10:45:39Z</time>
      </trkpt>
      <trkpt lat="43.9273109" lon="8.1148605">
        <ele>70.0000000</ele>
        <time>2010-03-07T10:45:43Z</time>
      </trkpt>
      <trkpt lat="43.9273834" lon="8.1147833">
        <ele>69.4000000</ele>
        <time>2010-03-07T10:45:45Z</time>
      </trkpt>
      <trkpt lat="43.9275207" lon="8.1146727">
        <ele>68.4000000</ele>
        <time>2010-03-07T10:45:48Z</time>
      </trkpt>
      <trkpt lat="43.9278488" lon="8.1145925">
        <ele>66.4000000</ele>
        <time>2010-03-07T10:45:54Z</time>
      </trkpt>
      <trkpt lat="43.9280815" lon="8.1145573">
        <ele>65.2000000</ele>
        <time>2010-03-07T10:45:58Z</time>
      </trkpt>
      <trkpt lat="43.9283867" lon="8.1142931">
        <ele>63.1000000</ele>
        <time>2010-03-07T10:46:04Z</time>
      </trkpt>
      <trkpt lat="43.9286690" lon="8.1140776">
        <ele>61.1000000</ele>
        <time>2010-03-07T10:46:09Z</time>
      </trkpt>
      <trkpt lat="43.9288903" lon="8.1139355">
        <ele>60.8000000</ele>
        <time>2010-03-07T10:46:13Z</time>
      </trkpt>
      <trkpt lat="43.9292679" lon="8.1138325">
        <ele>59.4000000</ele>
        <time>2010-03-07T10:46:19Z</time>
      </trkpt>
      <trkpt lat="43.9296455" lon="8.1137781">
        <ele>58.3000000</ele>
        <time>2010-03-07T10:46:25Z</time>
      </trkpt>
      <trkpt lat="43.9298134" lon="8.1135817">
        <ele>57.4000000</ele>
        <time>2010-03-07T10:46:29Z</time>
      </trkpt>
      <trkpt lat="43.9298057" lon="8.1134301">
        <ele>57.2000000</ele>
        <time>2010-03-07T10:46:31Z</time>
      </trkpt>
      <trkpt lat="43.9297562" lon="8.1131907">
        <ele>56.4000000</ele>
        <time>2010-03-07T10:46:34Z</time>
      </trkpt>
      <trkpt lat="43.9298172" lon="8.1128578">
        <ele>54.7000000</ele>
        <time>2010-03-07T10:46:38Z</time>
      </trkpt>
      <trkpt lat="43.9300690" lon="8.1125259">
        <ele>52.3000000</ele>
        <time>2010-03-07T10:46:43Z</time>
      </trkpt>
      <trkpt lat="43.9301377" lon="8.1124916">
        <ele>51.9000000</ele>
        <time>2010-03-07T10:46:44Z</time>
      </trkpt>
      <trkpt lat="43.9306603" lon="8.1123514">
        <ele>48.7000000</ele>
        <time>2010-03-07T10:46:51Z</time>
      </trkpt>
      <trkpt lat="43.9308204" lon="8.1122303">
        <ele>47.5000000</ele>
        <time>2010-03-07T10:46:54Z</time>
      </trkpt>
      <trkpt lat="43.9307785" lon="8.1120873">
        <ele>46.6000000</ele>
        <time>2010-03-07T10:46:56Z</time>
      </trkpt>
      <trkpt lat="43.9306145" lon="8.1119699">
        <ele>45.8000000</ele>
        <time>2010-03-07T10:46:59Z</time>
      </trkpt>
      <trkpt lat="43.9305535" lon="8.1119499">
        <ele>45.4000000</ele>
        <time>2010-03-07T10:47:00Z</time>
      </trkpt>
      <trkpt lat="43.9300728" lon="8.1119080">
        <ele>42.6000000</ele>
        <time>2010-03-07T10:47:07Z</time>
      </trkpt>
      <trkpt lat="43.9297600" lon="8.1119671">
        <ele>40.3000000</ele>
        <time>2010-03-07T10:47:11Z</time>
      </trkpt>
      <trkpt lat="43.9294739" lon="8.1121950">
        <ele>37.5000000</ele>
        <time>2010-03-07T10:47:15Z</time>
      </trkpt>
      <trkpt lat="43.9294052" lon="8.1122732">
        <ele>36.7000000</ele>
        <time>2010-03-07T10:47:16Z</time>
      </trkpt>
      <trkpt lat="43.9289856" lon="8.1124821">
        <ele>33.1000000</ele>
        <time>2010-03-07T10:47:21Z</time>
      </trkpt>
      <trkpt lat="43.9286080" lon="8.1125136">
        <ele>29.5000000</ele>
        <time>2010-03-07T10:47:25Z</time>
      </trkpt>
      <trkpt lat="43.9282150" lon="8.1126023">
        <ele>26.4000000</ele>
        <time>2010-03-07T10:47:29Z</time>
      </trkpt>
      <trkpt lat="43.9276390" lon="8.1127644">
        <ele>21.5000000</ele>
        <time>2010-03-07T10:47:35Z</time>
      </trkpt>
      <trkpt lat="43.9269410" lon="8.1129151">
        <ele>16.2000000</ele>
        <time>2010-03-07T10:47:42Z</time>
      </trkpt>
      <trkpt lat="43.9265365" lon="8.1128855">
        <ele>14.0000000</ele>
        <time>2010-03-07T10:47:46Z</time>
      </trkpt>
      <trkpt lat="43.9260864" lon="8.1128197">
        <ele>11.2000000</ele>
        <time>2010-03-07T10:47:51Z</time>
      </trkpt>
      <trkpt lat="43.9258537" lon="8.1128530">
        <ele>9.6000000</ele>
        <time>2010-03-07T10:47:54Z</time>
      </trkpt>
      <trkpt lat="43.9254150" lon="8.1131678">
        <ele>5.6000000</ele>
        <time>2010-03-07T10:48:00Z</time>
      </trkpt>
      <trkpt lat="43.9250031" lon="8.1131068">
        <ele>2.1000000</ele>
        <time>2010-03-07T10:48:05Z</time>
      </trkpt>
      <trkpt lat="43.9247970" lon="8.1129722">
        <ele>0.0000000</ele>
        <time>2010-03-07T10:48:08Z</time>
      </trkpt>
      <trkpt lat="43.9244613" lon="8.1127282">
        <ele>-2.3000000</ele>
        <time>2010-03-07T10:48:13Z</time>
      </trkpt>
      <trkpt lat="43.9243889" lon="8.1124077">
        <ele>-3.7000000</ele>
        <time>2010-03-07T10:48:17Z</time>
      </trkpt>
      <trkpt lat="43.9243546" lon="8.1116600">
        <ele>-5.1000000</ele>
        <time>2010-03-07T10:48:25Z</time>
      </trkpt>
      <trkpt lat="43.9242973" lon="8.1107912">
        <ele>-7.0000000</ele>
        <time>2010-03-07T10:48:34Z</time>
      </trkpt>
      <trkpt lat="43.9242325" lon="8.1098623">
        <ele>-8.7000000</ele>
        <time>2010-03-07T10:48:44Z</time>
      </trkpt>
      <trkpt lat="43.9241562" lon="8.1093083">
        <ele>-9.1000000</ele>
        <time>2010-03-07T10:48:51Z</time>
      </trkpt>
      <trkpt lat="43.9240837" lon="8.1091290">
        <ele>-9.4000000</ele>
        <time>2010-03-07T10:48:54Z</time>
      </trkpt>
      <trkpt lat="43.9239158" lon="8.1088934">
        <ele>-10.4000000</ele>
        <time>2010-03-07T10:48:58Z</time>
      </trkpt>
      <trkpt lat="43.9238663" lon="8.1088410">
        <ele>-10.5000000</ele>
        <time>2010-03-07T10:48:59Z</time>
      </trkpt>
      <trkpt lat="43.9236374" lon="8.1085711">
        <ele>-10.5000000</ele>
        <time>2010-03-07T10:49:03Z</time>
      </trkpt>
      <trkpt lat="43.9233666" lon="8.1083097">
        <ele>-10.4000000</ele>
        <time>2010-03-07T10:49:09Z</time>
      </trkpt>
      <trkpt lat="43.9233207" lon="8.1081810">
        <ele>-10.0000000</ele>
        <time>2010-03-07T10:49:11Z</time>
      </trkpt>
      <trkpt lat="43.9232292" lon="8.1076631">
        <ele>-9.2000000</ele>
        <time>2010-03-07T10:49:19Z</time>
      </trkpt>
      <trkpt lat="43.9231262" lon="8.1071119">
        <ele>-8.3000000</ele>
        <time>2010-03-07T10:49:28Z</time>
      </trkpt>
      <trkpt lat="43.9229698" lon="8.1066408">
        <ele>-5.8000000</ele>
        <time>2010-03-07T10:49:37Z</time>
      </trkpt>
      <trkpt lat="43.9228020" lon="8.1061144">
        <ele>-6.0000000</ele>
        <time>2010-03-07T10:49:47Z</time>
      </trkpt>
      <trkpt lat="43.9225998" lon="8.1054993">
        <ele>-6.3000000</ele>
        <time>2010-03-07T10:49:58Z</time>
      </trkpt>
      <trkpt lat="43.9224892" lon="8.1052523">
        <ele>-7.0000000</ele>
        <time>2010-03-07T10:50:04Z</time>
      </trkpt>
      <trkpt lat="43.9224281" lon="8.1051817">
        <ele>-7.4000000</ele>
        <time>2010-03-07T10:50:06Z</time>
      </trkpt>
      <trkpt lat="43.9222412" lon="8.1051597">
        <ele>-7.9000000</ele>
        <time>2010-03-07T10:50:10Z</time>
      </trkpt>
      <trkpt lat="43.9221535" lon="8.1052542">
        <ele>-7.9000000</ele>
        <time>2010-03-07T10:50:12Z</time>
      </trkpt>
      <trkpt lat="43.9218598" lon="8.1052570">
        <ele>-8.8000000</ele>
        <time>2010-03-07T10:50:18Z</time>
      </trkpt>
      <trkpt lat="43.9217873" lon="8.1053009">
        <ele>-8.5000000</ele>
        <time>2010-03-07T10:50:22Z</time>
      </trkpt>
      <trkpt lat="43.9216270" lon="8.1054459">
        <ele>-9.4000000</ele>
        <time>2010-03-07T10:50:28Z</time>
      </trkpt>
      <trkpt lat="43.9214897" lon="8.1054611">
        <ele>-9.9000000</ele>
        <time>2010-03-07T10:50:32Z</time>
      </trkpt>
      <trkpt lat="43.9213943" lon="8.1052904">
        <ele>-9.6000000</ele>
        <time>2010-03-07T10:50:37Z</time>
      </trkpt>
      <trkpt lat="43.9213753" lon="8.1051674">
        <ele>-9.5000000</ele>
        <time>2010-03-07T10:50:39Z</time>
      </trkpt>
      <trkpt lat="43.9211731" lon="8.1045752">
        <ele>-10.2000000</ele>
        <time>2010-03-07T10:50:50Z</time>
      </trkpt>
      <trkpt lat="43.9211655" lon="8.1044026">
        <ele>-9.9000000</ele>
        <time>2010-03-07T10:50:53Z</time>
      </trkpt>
      <trkpt lat="43.9210854" lon="8.1040011">
        <ele>-9.3000000</ele>
        <time>2010-03-07T10:51:00Z</time>
      </trkpt>
      <trkpt lat="43.9210320" lon="8.1036920">
        <ele>-9.2000000</ele>
        <time>2010-03-07T10:51:06Z</time>
      </trkpt>
      <trkpt lat="43.9208870" lon="8.1032543">
        <ele>-9.2000000</ele>
        <time>2010-03-07T10:51:14Z</time>
      </trkpt>
      <trkpt lat="43.9208069" lon="8.1029854">
        <ele>-9.2000000</ele>
        <time>2010-03-07T10:51:20Z</time>
      </trkpt>
      <trkpt lat="43.9207802" lon="8.1029472">
        <ele>-9.3000000</ele>
        <time>2010-03-07T10:51:22Z</time>
      </trkpt>
      <trkpt lat="43.9207612" lon="8.1029644">
        <ele>-9.5000000</ele>
        <time>2010-03-07T10:51:24Z</time>
      </trkpt>
      <trkpt lat="43.9207268" lon="8.1030426">
        <ele>-9.4000000</ele>
        <time>2010-03-07T10:51:29Z</time>
      </trkpt>
      <trkpt lat="43.9207344" lon="8.1029997">
        <ele>-9.3000000</ele>
        <time>2010-03-07T10:51:32Z</time>
      </trkpt>
      <trkpt lat="43.9207420" lon="8.1029453">
        <ele>-9.7000000</ele>
        <time>2010-03-07T10:51:35Z</time>
      </trkpt>
      <trkpt lat="43.9206200" lon="8.1029596">
        <ele>-9.9000000</ele>
        <time>2010-03-07T10:51:39Z</time>
      </trkpt>
      <trkpt lat="43.9205818" lon="8.1029768">
        <ele>-9.8000000</ele>
        <time>2010-03-07T10:51:40Z</time>
      </trkpt>
      <trkpt lat="43.9205246" lon="8.1029901">
        <ele>-9.4000000</ele>
        <time>2010-03-07T10:51:42Z</time>
      </trkpt>
      <trkpt lat="43.9204826" lon="8.1028786">
        <ele>-9.0000000</ele>
        <time>2010-03-07T10:51:47Z</time>
      </trkpt>
      <trkpt lat="43.9204521" lon="8.1028146">
        <ele>-9.0000000</ele>
        <time>2010-03-07T10:51:52Z</time>
      </trkpt>
      <trkpt lat="43.9204445" lon="8.1028080">
        <ele>-9.3000000</ele>
        <time>2010-03-07T10:51:58Z</time>
      </trkpt>
      <trkpt lat="43.9204025" lon="8.1028080">
        <ele>-8.7000000</ele>
        <time>2010-03-07T10:52:06Z</time>
      </trkpt>
      <trkpt lat="43.9204063" lon="8.1028023">
        <ele>-9.2000000</ele>
        <time>2010-03-07T10:52:15Z</time>
      </trkpt>
      <trkpt lat="43.9204063" lon="8.1028004">
        <ele>-9.3000000</ele>
        <time>2010-03-07T10:52:20Z</time>
      </trkpt>
      <trkpt lat="43.9203835" lon="8.1028004">
        <ele>-9.4000000</ele>
        <time>2010-03-07T10:52:28Z</time>
      </trkpt>
      <trkpt lat="43.9203796" lon="8.1027727">
        <ele>-9.0000000</ele>
        <time>2010-03-07T10:52:49Z</time>
      </trkpt>
      <trkpt lat="43.9203758" lon="8.1027718">
        <ele>-9.1000000</ele>
        <time>2010-03-07T10:53:01Z</time>
      </trkpt>
      <trkpt lat="43.9203758" lon="8.1027718">
        <ele>-9.0000000</ele>
        <time>2010-03-07T10:53:04Z</time>
      </trkpt>
      <trkpt lat="43.9203758" lon="8.1027718">
        <ele>-8.9000000</ele>
        <time>2010-03-07T10:53:05Z</time>
      </trkpt>
      <trkpt lat="43.9203758" lon="8.1027727">
        <ele>-9.1000000</ele>
        <time>2010-03-07T10:53:11Z</time>
      </trkpt>
      <trkpt lat="43.9203682" lon="8.1027708">
        <ele>-8.8000000</ele>
        <time>2010-03-07T10:53:42Z</time>
      </trkpt>
      <trkpt lat="43.9203567" lon="8.1027488">
        <ele>-8.9000000</ele>
        <time>2010-03-07T10:53:57Z</time>
      </trkpt>
      <trkpt lat="43.9203491" lon="8.1027622">
        <ele>-8.6000000</ele>
        <time>2010-03-07T10:54:15Z</time>
      </trkpt>
      <trkpt lat="43.9203491" lon="8.1027575">
        <ele>-8.6000000</ele>
        <time>2010-03-07T10:54:23Z</time>
      </trkpt>
      <trkpt lat="43.9203491" lon="8.1027603">
        <ele>-8.3000000</ele>
        <time>2010-03-07T10:54:27Z</time>
      </trkpt>
      <trkpt lat="43.9203949" lon="8.1028070">
        <ele>-8.1000000</ele>
        <time>2010-03-07T10:54:33Z</time>
      </trkpt>
      <trkpt lat="43.9204025" lon="8.1028089">
        <ele>-7.9000000</ele>
        <time>2010-03-07T10:54:34Z</time>
      </trkpt>
      <trkpt lat="43.9204636" lon="8.1028146">
        <ele>-8.1000000</ele>
        <time>2010-03-07T10:54:40Z</time>
      </trkpt>
      <trkpt lat="43.9205131" lon="8.1029043">
        <ele>-8.2000000</ele>
        <time>2010-03-07T10:54:46Z</time>
      </trkpt>
      <trkpt lat="43.9205933" lon="8.1029387">
        <ele>-8.0000000</ele>
        <time>2010-03-07T10:54:50Z</time>
      </trkpt>
      <trkpt lat="43.9207382" lon="8.1028834">
        <ele>-8.2000000</ele>
        <time>2010-03-07T10:54:56Z</time>
      </trkpt>
      <trkpt lat="43.9208069" lon="8.1028986">
        <ele>-8.1000000</ele>
        <time>2010-03-07T10:55:00Z</time>
      </trkpt>
      <trkpt lat="43.9209595" lon="8.1028318">
        <ele>-7.7000000</ele>
        <time>2010-03-07T10:55:08Z</time>
      </trkpt>
      <trkpt lat="43.9209557" lon="8.1028690">
        <ele>-7.7000000</ele>
        <time>2010-03-07T10:55:12Z</time>
      </trkpt>
      <trkpt lat="43.9208832" lon="8.1029015">
        <ele>-7.8000000</ele>
        <time>2010-03-07T10:55:18Z</time>
      </trkpt>
      <trkpt lat="43.9208756" lon="8.1029224">
        <ele>-7.7000000</ele>
        <time>2010-03-07T10:55:31Z</time>
      </trkpt>
      <trkpt lat="43.9208793" lon="8.1029311">
        <ele>-7.6000000</ele>
        <time>2010-03-07T10:55:52Z</time>
      </trkpt>
      <trkpt lat="43.9207497" lon="8.1029558">
        <ele>-7.7000000</ele>
        <time>2010-03-07T10:55:59Z</time>
      </trkpt>
      <trkpt lat="43.9206772" lon="8.1029596">
        <ele>-7.8000000</ele>
        <time>2010-03-07T10:56:02Z</time>
      </trkpt>
      <trkpt lat="43.9205856" lon="8.1029921">
        <ele>-8.0000000</ele>
        <time>2010-03-07T10:56:08Z</time>
      </trkpt>
      <trkpt lat="43.9205665" lon="8.1029997">
        <ele>-8.0000000</ele>
        <time>2010-03-07T10:56:09Z</time>
      </trkpt>
      <trkpt lat="43.9205246" lon="8.1029387">
        <ele>-7.8000000</ele>
        <time>2010-03-07T10:56:13Z</time>
      </trkpt>
      <trkpt lat="43.9204445" lon="8.1028757">
        <ele>-7.9000000</ele>
        <time>2010-03-07T10:56:18Z</time>
      </trkpt>
      <trkpt lat="43.9204063" lon="8.1029034">
        <ele>-7.9000000</ele>
        <time>2010-03-07T10:56:20Z</time>
      </trkpt>
      <trkpt lat="43.9203262" lon="8.1030140">
        <ele>-8.2000000</ele>
        <time>2010-03-07T10:56:27Z</time>
      </trkpt>
      <trkpt lat="43.9203186" lon="8.1030302">
        <ele>-8.3000000</ele>
        <time>2010-03-07T10:56:28Z</time>
      </trkpt>
      <trkpt lat="43.9203262" lon="8.1030769">
        <ele>-8.2000000</ele>
        <time>2010-03-07T10:56:32Z</time>
      </trkpt>
      <trkpt lat="43.9203262" lon="8.1030751">
        <ele>-8.3000000</ele>
        <time>2010-03-07T10:56:33Z</time>
      </trkpt>
      <trkpt lat="43.9203415" lon="8.1030502">
        <ele>-8.1000000</ele>
        <time>2010-03-07T10:56:41Z</time>
      </trkpt>
      <trkpt lat="43.9203415" lon="8.1030464">
        <ele>-8.0000000</ele>
        <time>2010-03-07T10:57:02Z</time>
      </trkpt>
      <trkpt lat="43.9203377" lon="8.1030350">
        <ele>-8.0000000</ele>
        <time>2010-03-07T10:57:12Z</time>
      </trkpt>
      <trkpt lat="43.9203415" lon="8.1030350">
        <ele>-8.1000000</ele>
        <time>2010-03-07T10:57:18Z</time>
      </trkpt>
      <trkpt lat="43.9203415" lon="8.1030340">
        <ele>-8.1000000</ele>
        <time>2010-03-07T10:57:21Z</time>
      </trkpt>
      <trkpt lat="43.9203415" lon="8.1030311">
        <ele>-7.9000000</ele>
        <time>2010-03-07T10:57:32Z</time>
      </trkpt>
      <trkpt lat="43.9203415" lon="8.1030302">
        <ele>-7.9000000</ele>
        <time>2010-03-07T10:57:34Z</time>
      </trkpt>
      <trkpt lat="43.9203377" lon="8.1030254">
        <ele>-7.9000000</ele>
        <time>2010-03-07T10:57:50Z</time>
      </trkpt>
      <trkpt lat="43.9203453" lon="8.1030207">
        <ele>-7.1000000</ele>
        <time>2010-03-07T11:00:04Z</time>
      </trkpt>
      <trkpt lat="43.9203453" lon="8.1030178">
        <ele>-7.1000000</ele>
        <time>2010-03-07T11:00:18Z</time>
      </trkpt>
      <trkpt lat="43.9203491" lon="8.1030169">
        <ele>-6.9000000</ele>
        <time>2010-03-07T11:00:36Z</time>
      </trkpt>
      <trkpt lat="43.9203491" lon="8.1030178">
        <ele>-7.0000000</ele>
        <time>2010-03-07T11:00:45Z</time>
      </trkpt>
      <trkpt lat="43.9203491" lon="8.1030178">
        <ele>-7.0000000</ele>
        <time>2010-03-07T11:00:57Z</time>
      </trkpt>
      <trkpt lat="43.9203491" lon="8.1030169">
        <ele>-6.5000000</ele>
        <time>2010-03-07T11:01:10Z</time>
      </trkpt>
      <trkpt lat="43.9203491" lon="8.1030178">
        <ele>-6.6000000</ele>
        <time>2010-03-07T11:01:13Z</time>
      </trkpt>
      <trkpt lat="43.9203758" lon="8.1030216">
        <ele>-6.5000000</ele>
        <time>2010-03-07T11:01:16Z</time>
      </trkpt>
      <trkpt lat="43.9204063" lon="8.1030274">
        <ele>-6.5000000</ele>
        <time>2010-03-07T11:01:21Z</time>
      </trkpt>
      <trkpt lat="43.9204292" lon="8.1030197">
        <ele>-6.7000000</ele>
        <time>2010-03-07T11:01:39Z</time>
      </trkpt>
      <trkpt lat="43.9204407" lon="8.1030187">
        <ele>-6.8000000</ele>
        <time>2010-03-07T11:01:52Z</time>
      </trkpt>
      <trkpt lat="43.9204407" lon="8.1030264">
        <ele>-6.7000000</ele>
        <time>2010-03-07T11:01:56Z</time>
      </trkpt>
      <trkpt lat="43.9204483" lon="8.1030398">
        <ele>-7.3000000</ele>
        <time>2010-03-07T11:02:09Z</time>
      </trkpt>
      <trkpt lat="43.9205017" lon="8.1030140">
        <ele>-6.4000000</ele>
        <time>2010-03-07T11:02:15Z</time>
      </trkpt>
      <trkpt lat="43.9205017" lon="8.1030130">
        <ele>-6.1000000</ele>
        <time>2010-03-07T11:02:18Z</time>
      </trkpt>
      <trkpt lat="43.9205017" lon="8.1030130">
        <ele>-6.0000000</ele>
        <time>2010-03-07T11:02:19Z</time>
      </trkpt>
      <trkpt lat="43.9205055" lon="8.1030226">
        <ele>-5.4000000</ele>
        <time>2010-03-07T11:02:34Z</time>
      </trkpt>
      <trkpt lat="43.9205017" lon="8.1030359">
        <ele>-5.7000000</ele>
        <time>2010-03-07T11:02:54Z</time>
      </trkpt>
      <trkpt lat="43.9205475" lon="8.1030159">
        <ele>-6.2000000</ele>
        <time>2010-03-07T11:03:06Z</time>
      </trkpt>
      <trkpt lat="43.9206238" lon="8.1029882">
        <ele>-6.5000000</ele>
        <time>2010-03-07T11:03:09Z</time>
      </trkpt>
    </trkseg>
  </trk>

  <trk>
    <name>Trasfer_CO_2</name>
    <extensions>
      <gpxx:TrackExtension xmlns:gpxx="http://www.garmin.com/xmlschemas/GpxExtensions/v3">
        <gpxx:DisplayColor>Blue</gpxx:DisplayColor>
      </gpxx:TrackExtension>
    </extensions>
    <trkseg>
      <trkpt lat="43.9321442" lon="8.1053734">
        <ele>10.1000000</ele>
        <time>2010-03-07T12:22:00Z</time>
      </trkpt>
      <trkpt lat="43.9320907" lon="8.1053610">
        <ele>9.3000000</ele>
        <time>2010-03-07T12:22:01Z</time>
      </trkpt>
      <trkpt lat="43.9319611" lon="8.1053438">
        <ele>8.0000000</ele>
        <time>2010-03-07T12:22:03Z</time>
      </trkpt>
      <trkpt lat="43.9316025" lon="8.1054058">
        <ele>6.3000000</ele>
        <time>2010-03-07T12:22:09Z</time>
      </trkpt>
      <trkpt lat="43.9311561" lon="8.1054496">
        <ele>5.6000000</ele>
        <time>2010-03-07T12:22:17Z</time>
      </trkpt>
      <trkpt lat="43.9307709" lon="8.1053543">
        <ele>5.1000000</ele>
        <time>2010-03-07T12:22:24Z</time>
      </trkpt>
      <trkpt lat="43.9304733" lon="8.1053457">
        <ele>4.2000000</ele>
        <time>2010-03-07T12:22:30Z</time>
      </trkpt>
      <trkpt lat="43.9302292" lon="8.1053791">
        <ele>3.6000000</ele>
        <time>2010-03-07T12:22:36Z</time>
      </trkpt>
      <trkpt lat="43.9300384" lon="8.1053991">
        <ele>3.3000000</ele>
        <time>2010-03-07T12:22:42Z</time>
      </trkpt>
      <trkpt lat="43.9300194" lon="8.1053973">
        <ele>3.3000000</ele>
        <time>2010-03-07T12:22:45Z</time>
      </trkpt>
      <trkpt lat="43.9300232" lon="8.1053906">
        <ele>4.1000000</ele>
        <time>2010-03-07T12:22:54Z</time>
      </trkpt>
      <trkpt lat="43.9300232" lon="8.1053896">
        <ele>3.6000000</ele>
        <time>2010-03-07T12:22:56Z</time>
      </trkpt>
      <trkpt lat="43.9300346" lon="8.1053867">
        <ele>3.6000000</ele>
        <time>2010-03-07T12:23:20Z</time>
      </trkpt>
      <trkpt lat="43.9300041" lon="8.1054115">
        <ele>3.8000000</ele>
        <time>2010-03-07T12:23:24Z</time>
      </trkpt>
      <trkpt lat="43.9298821" lon="8.1054287">
        <ele>3.0000000</ele>
        <time>2010-03-07T12:23:29Z</time>
      </trkpt>
      <trkpt lat="43.9296608" lon="8.1054602">
        <ele>3.9000000</ele>
        <time>2010-03-07T12:23:36Z</time>
      </trkpt>
      <trkpt lat="43.9294358" lon="8.1055060">
        <ele>3.2000000</ele>
        <time>2010-03-07T12:23:42Z</time>
      </trkpt>
      <trkpt lat="43.9290848" lon="8.1055584">
        <ele>2.9000000</ele>
        <time>2010-03-07T12:23:50Z</time>
      </trkpt>
      <trkpt lat="43.9287224" lon="8.1055803">
        <ele>2.6000000</ele>
        <time>2010-03-07T12:23:58Z</time>
      </trkpt>
      <trkpt lat="43.9283600" lon="8.1056729">
        <ele>1.6000000</ele>
        <time>2010-03-07T12:24:06Z</time>
      </trkpt>
      <trkpt lat="43.9278984" lon="8.1057511">
        <ele>0.4000000</ele>
        <time>2010-03-07T12:24:16Z</time>
      </trkpt>
      <trkpt lat="43.9275246" lon="8.1058340">
        <ele>-0.2000000</ele>
        <time>2010-03-07T12:24:24Z</time>
      </trkpt>
      <trkpt lat="43.9270401" lon="8.1059628">
        <ele>-1.1000000</ele>
        <time>2010-03-07T12:24:34Z</time>
      </trkpt>
      <trkpt lat="43.9266663" lon="8.1061268">
        <ele>-2.1000000</ele>
        <time>2010-03-07T12:24:42Z</time>
      </trkpt>
      <trkpt lat="43.9265060" lon="8.1062002">
        <ele>-1.4000000</ele>
        <time>2010-03-07T12:24:46Z</time>
      </trkpt>
      <trkpt lat="43.9262696" lon="8.1062031">
        <ele>-2.4000000</ele>
        <time>2010-03-07T12:24:51Z</time>
      </trkpt>
      <trkpt lat="43.9258156" lon="8.1061297">
        <ele>-2.9000000</ele>
        <time>2010-03-07T12:25:00Z</time>
      </trkpt>
      <trkpt lat="43.9252625" lon="8.1060438">
        <ele>-4.6000000</ele>
        <time>2010-03-07T12:25:10Z</time>
      </trkpt>
      <trkpt lat="43.9252090" lon="8.1060438">
        <ele>-4.7000000</ele>
        <time>2010-03-07T12:25:11Z</time>
      </trkpt>
      <trkpt lat="43.9249115" lon="8.1061744">
        <ele>-4.9000000</ele>
        <time>2010-03-07T12:25:17Z</time>
      </trkpt>
      <trkpt lat="43.9246711" lon="8.1064024">
        <ele>-5.3000000</ele>
        <time>2010-03-07T12:25:23Z</time>
      </trkpt>
      <trkpt lat="43.9245911" lon="8.1064748">
        <ele>-5.5000000</ele>
        <time>2010-03-07T12:25:25Z</time>
      </trkpt>
      <trkpt lat="43.9242287" lon="8.1066465">
        <ele>-6.2000000</ele>
        <time>2010-03-07T12:25:33Z</time>
      </trkpt>
      <trkpt lat="43.9239655" lon="8.1067495">
        <ele>-7.0000000</ele>
        <time>2010-03-07T12:25:40Z</time>
      </trkpt>
      <trkpt lat="43.9238357" lon="8.1068115">
        <ele>-7.3000000</ele>
        <time>2010-03-07T12:25:44Z</time>
      </trkpt>
      <trkpt lat="43.9238357" lon="8.1069260">
        <ele>-7.1000000</ele>
        <time>2010-03-07T12:25:48Z</time>
      </trkpt>
      <trkpt lat="43.9238663" lon="8.1070280">
        <ele>-7.0000000</ele>
        <time>2010-03-07T12:25:53Z</time>
      </trkpt>
      <trkpt lat="43.9238739" lon="8.1070614">
        <ele>-7.0000000</ele>
        <time>2010-03-07T12:25:58Z</time>
      </trkpt>
      <trkpt lat="43.9238625" lon="8.1070632">
        <ele>-6.7000000</ele>
        <time>2010-03-07T12:26:27Z</time>
      </trkpt>
      <trkpt lat="43.9238625" lon="8.1070643">
        <ele>-6.5000000</ele>
        <time>2010-03-07T12:26:28Z</time>
      </trkpt>
      <trkpt lat="43.9238816" lon="8.1070604">
        <ele>-6.8000000</ele>
        <time>2010-03-07T12:26:47Z</time>
      </trkpt>
      <trkpt lat="43.9239311" lon="8.1071062">
        <ele>-6.3000000</ele>
        <time>2010-03-07T12:26:51Z</time>
      </trkpt>
      <trkpt lat="43.9240609" lon="8.1073570">
        <ele>-7.5000000</ele>
        <time>2010-03-07T12:26:58Z</time>
      </trkpt>
      <trkpt lat="43.9241753" lon="8.1076651">
        <ele>-7.1000000</ele>
        <time>2010-03-07T12:27:05Z</time>
      </trkpt>
      <trkpt lat="43.9242668" lon="8.1081419">
        <ele>-7.5000000</ele>
        <time>2010-03-07T12:27:15Z</time>
      </trkpt>
      <trkpt lat="43.9243317" lon="8.1086206">
        <ele>-7.9000000</ele>
        <time>2010-03-07T12:27:25Z</time>
      </trkpt>
      <trkpt lat="43.9243469" lon="8.1091299">
        <ele>-8.8000000</ele>
        <time>2010-03-07T12:27:35Z</time>
      </trkpt>
      <trkpt lat="43.9243088" lon="8.1095142">
        <ele>-8.4000000</ele>
        <time>2010-03-07T12:27:42Z</time>
      </trkpt>
      <trkpt lat="43.9242210" lon="8.1095590">
        <ele>-8.8000000</ele>
        <time>2010-03-07T12:27:45Z</time>
      </trkpt>
      <trkpt lat="43.9241868" lon="8.1094637">
        <ele>-8.8000000</ele>
        <time>2010-03-07T12:27:47Z</time>
      </trkpt>
      <trkpt lat="43.9241562" lon="8.1092930">
        <ele>-8.9000000</ele>
        <time>2010-03-07T12:27:50Z</time>
      </trkpt>
      <trkpt lat="43.9240951" lon="8.1091233">
        <ele>-9.4000000</ele>
        <time>2010-03-07T12:27:53Z</time>
      </trkpt>
      <trkpt lat="43.9239044" lon="8.1088581">
        <ele>-10.1000000</ele>
        <time>2010-03-07T12:27:59Z</time>
      </trkpt>
      <trkpt lat="43.9238548" lon="8.1087647">
        <ele>-10.1000000</ele>
        <time>2010-03-07T12:28:01Z</time>
      </trkpt>
      <trkpt lat="43.9237518" lon="8.1084852">
        <ele>-10.3000000</ele>
        <time>2010-03-07T12:28:05Z</time>
      </trkpt>
      <trkpt lat="43.9236793" lon="8.1084805">
        <ele>-10.4000000</ele>
        <time>2010-03-07T12:28:06Z</time>
      </trkpt>
      <trkpt lat="43.9234200" lon="8.1082516">
        <ele>-9.8000000</ele>
        <time>2010-03-07T12:28:13Z</time>
      </trkpt>
      <trkpt lat="43.9233093" lon="8.1078339">
        <ele>-8.9000000</ele>
        <time>2010-03-07T12:28:22Z</time>
      </trkpt>
      <trkpt lat="43.9232063" lon="8.1073246">
        <ele>-8.1000000</ele>
        <time>2010-03-07T12:28:33Z</time>
      </trkpt>
      <trkpt lat="43.9230767" lon="8.1069135">
        <ele>-6.7000000</ele>
        <time>2010-03-07T12:28:43Z</time>
      </trkpt>
      <trkpt lat="43.9230118" lon="8.1067162">
        <ele>-5.0000000</ele>
        <time>2010-03-07T12:28:48Z</time>
      </trkpt>
      <trkpt lat="43.9228859" lon="8.1063547">
        <ele>-5.1000000</ele>
        <time>2010-03-07T12:28:57Z</time>
      </trkpt>
      <trkpt lat="43.9226723" lon="8.1057110">
        <ele>-4.9000000</ele>
        <time>2010-03-07T12:29:12Z</time>
      </trkpt>
      <trkpt lat="43.9225693" lon="8.1054430">
        <ele>-5.2000000</ele>
        <time>2010-03-07T12:29:18Z</time>
      </trkpt>
      <trkpt lat="43.9224739" lon="8.1051817">
        <ele>-6.1000000</ele>
        <time>2010-03-07T12:29:23Z</time>
      </trkpt>
      <trkpt lat="43.9223442" lon="8.1050692">
        <ele>-6.8000000</ele>
        <time>2010-03-07T12:29:27Z</time>
      </trkpt>
      <trkpt lat="43.9222565" lon="8.1051015">
        <ele>-6.8000000</ele>
        <time>2010-03-07T12:29:29Z</time>
      </trkpt>
      <trkpt lat="43.9221573" lon="8.1051636">
        <ele>-6.5000000</ele>
        <time>2010-03-07T12:29:31Z</time>
      </trkpt>
      <trkpt lat="43.9220543" lon="8.1052179">
        <ele>-7.0000000</ele>
        <time>2010-03-07T12:29:33Z</time>
      </trkpt>
      <trkpt lat="43.9218674" lon="8.1053209">
        <ele>-7.0000000</ele>
        <time>2010-03-07T12:29:37Z</time>
      </trkpt>
      <trkpt lat="43.9217796" lon="8.1053801">
        <ele>-7.4000000</ele>
        <time>2010-03-07T12:29:39Z</time>
      </trkpt>
      <trkpt lat="43.9216041" lon="8.1054897">
        <ele>-8.2000000</ele>
        <time>2010-03-07T12:29:43Z</time>
      </trkpt>
      <trkpt lat="43.9214707" lon="8.1054678">
        <ele>-8.4000000</ele>
        <time>2010-03-07T12:29:47Z</time>
      </trkpt>
      <trkpt lat="43.9214401" lon="8.1053744">
        <ele>-8.4000000</ele>
        <time>2010-03-07T12:29:49Z</time>
      </trkpt>
      <trkpt lat="43.9213409" lon="8.1049824">
        <ele>-8.0000000</ele>
        <time>2010-03-07T12:29:57Z</time>
      </trkpt>
      <trkpt lat="43.9212227" lon="8.1046057">
        <ele>-8.8000000</ele>
        <time>2010-03-07T12:30:05Z</time>
      </trkpt>
      <trkpt lat="43.9211464" lon="8.1043157">
        <ele>-8.8000000</ele>
        <time>2010-03-07T12:30:11Z</time>
      </trkpt>
      <trkpt lat="43.9210739" lon="8.1040068">
        <ele>-8.5000000</ele>
        <time>2010-03-07T12:30:18Z</time>
      </trkpt>
      <trkpt lat="43.9209747" lon="8.1036644">
        <ele>-8.8000000</ele>
        <time>2010-03-07T12:30:25Z</time>
      </trkpt>
      <trkpt lat="43.9208565" lon="8.1033526">
        <ele>-9.0000000</ele>
        <time>2010-03-07T12:30:32Z</time>
      </trkpt>
      <trkpt lat="43.9207993" lon="8.1031180">
        <ele>-8.5000000</ele>
        <time>2010-03-07T12:30:37Z</time>
      </trkpt>
      <trkpt lat="43.9207878" lon="8.1029463">
        <ele>-8.4000000</ele>
        <time>2010-03-07T12:30:41Z</time>
      </trkpt>
      <trkpt lat="43.9206886" lon="8.1029291">
        <ele>-8.5000000</ele>
        <time>2010-03-07T12:30:45Z</time>
      </trkpt>
      <trkpt lat="43.9205513" lon="8.1029844">
        <ele>-8.6000000</ele>
        <time>2010-03-07T12:30:50Z</time>
      </trkpt>
      <trkpt lat="43.9204826" lon="8.1028881">
        <ele>-8.6000000</ele>
        <time>2010-03-07T12:30:55Z</time>
      </trkpt>
      <trkpt lat="43.9204025" lon="8.1028729">
        <ele>-8.6000000</ele>
        <time>2010-03-07T12:30:59Z</time>
      </trkpt>
      <trkpt lat="43.9203453" lon="8.1029901">
        <ele>-8.6000000</ele>
        <time>2010-03-07T12:31:04Z</time>
      </trkpt>
      <trkpt lat="43.9203567" lon="8.1030388">
        <ele>-8.4000000</ele>
        <time>2010-03-07T12:31:08Z</time>
      </trkpt>
      <trkpt lat="43.9203644" lon="8.1030426">
        <ele>-8.4000000</ele>
        <time>2010-03-07T12:31:19Z</time>
      </trkpt>
      <trkpt lat="43.9203682" lon="8.1030416">
        <ele>-8.4000000</ele>
        <time>2010-03-07T12:31:29Z</time>
      </trkpt>
      <trkpt lat="43.9203682" lon="8.1030388">
        <ele>-8.6000000</ele>
        <time>2010-03-07T12:31:58Z</time>
      </trkpt>
      <trkpt lat="43.9203682" lon="8.1030388">
        <ele>-8.3000000</ele>
        <time>2010-03-07T12:32:08Z</time>
      </trkpt>
      <trkpt lat="43.9203758" lon="8.1030350">
        <ele>-8.0000000</ele>
        <time>2010-03-07T12:33:05Z</time>
      </trkpt>
      <trkpt lat="43.9203758" lon="8.1030350">
        <ele>-8.0000000</ele>
        <time>2010-03-07T12:33:06Z</time>
      </trkpt>
      <trkpt lat="43.9203720" lon="8.1030359">
        <ele>-7.8000000</ele>
        <time>2010-03-07T12:33:48Z</time>
      </trkpt>
      <trkpt lat="43.9203720" lon="8.1030359">
        <ele>-7.8000000</ele>
        <time>2010-03-07T12:33:52Z</time>
      </trkpt>
      <trkpt lat="43.9203720" lon="8.1030359">
        <ele>-7.7000000</ele>
        <time>2010-03-07T12:33:53Z</time>
      </trkpt>
      <trkpt lat="43.9203796" lon="8.1030331">
        <ele>-7.2000000</ele>
        <time>2010-03-07T12:34:49Z</time>
      </trkpt>
      <trkpt lat="43.9203796" lon="8.1030331">
        <ele>-7.3000000</ele>
        <time>2010-03-07T12:34:52Z</time>
      </trkpt>
      <trkpt lat="43.9203796" lon="8.1030331">
        <ele>-7.2000000</ele>
        <time>2010-03-07T12:34:58Z</time>
      </trkpt>
      <trkpt lat="43.9203796" lon="8.1030331">
        <ele>-7.4000000</ele>
        <time>2010-03-07T12:35:00Z</time>
      </trkpt>
      <trkpt lat="43.9203872" lon="8.1030321">
        <ele>-7.6000000</ele>
        <time>2010-03-07T12:35:37Z</time>
      </trkpt>
      <trkpt lat="43.9203872" lon="8.1030321">
        <ele>-7.5000000</ele>
        <time>2010-03-07T12:35:38Z</time>
      </trkpt>
      <trkpt lat="43.9203949" lon="8.1030331">
        <ele>-6.7000000</ele>
        <time>2010-03-07T12:36:00Z</time>
      </trkpt>
      <trkpt lat="43.9203758" lon="8.1030311">
        <ele>-7.1000000</ele>
        <time>2010-03-07T12:36:59Z</time>
      </trkpt>
      <trkpt lat="43.9203644" lon="8.1030140">
        <ele>-7.2000000</ele>
        <time>2010-03-07T12:37:05Z</time>
      </trkpt>
      <trkpt lat="43.9203567" lon="8.1030073">
        <ele>-7.1000000</ele>
        <time>2010-03-07T12:37:09Z</time>
      </trkpt>
      <trkpt lat="43.9203453" lon="8.1029987">
        <ele>-6.8000000</ele>
        <time>2010-03-07T12:37:14Z</time>
      </trkpt>
      <trkpt lat="43.9203530" lon="8.1030216">
        <ele>-6.5000000</ele>
        <time>2010-03-07T12:37:59Z</time>
      </trkpt>
      <trkpt lat="43.9203530" lon="8.1030226">
        <ele>-6.6000000</ele>
        <time>2010-03-07T12:38:00Z</time>
      </trkpt>
      <trkpt lat="43.9203606" lon="8.1030369">
        <ele>-6.9000000</ele>
        <time>2010-03-07T12:38:19Z</time>
      </trkpt>
      <trkpt lat="43.9203606" lon="8.1030416">
        <ele>-6.8000000</ele>
        <time>2010-03-07T12:38:27Z</time>
      </trkpt>
      <trkpt lat="43.9203682" lon="8.1030540">
        <ele>-6.3000000</ele>
        <time>2010-03-07T12:38:54Z</time>
      </trkpt>
      <trkpt lat="43.9203682" lon="8.1030426">
        <ele>-6.9000000</ele>
        <time>2010-03-07T12:39:06Z</time>
      </trkpt>
      <trkpt lat="43.9203377" lon="8.1030369">
        <ele>-6.8000000</ele>
        <time>2010-03-07T12:39:10Z</time>
      </trkpt>
      <trkpt lat="43.9203453" lon="8.1030779">
        <ele>-6.5000000</ele>
        <time>2010-03-07T12:39:16Z</time>
      </trkpt>
      <trkpt lat="43.9203644" lon="8.1030960">
        <ele>-6.4000000</ele>
        <time>2010-03-07T12:39:23Z</time>
      </trkpt>
      <trkpt lat="43.9203835" lon="8.1030836">
        <ele>-6.3000000</ele>
        <time>2010-03-07T12:40:01Z</time>
      </trkpt>
      <trkpt lat="43.9203987" lon="8.1030760">
        <ele>-5.9000000</ele>
        <time>2010-03-07T12:40:35Z</time>
      </trkpt>
      <trkpt lat="43.9204063" lon="8.1030722">
        <ele>-5.9000000</ele>
        <time>2010-03-07T12:40:39Z</time>
      </trkpt>
      <trkpt lat="43.9204102" lon="8.1030731">
        <ele>-5.6000000</ele>
        <time>2010-03-07T12:40:46Z</time>
      </trkpt>
      <trkpt lat="43.9204292" lon="8.1030636">
        <ele>-5.8000000</ele>
        <time>2010-03-07T12:41:04Z</time>
      </trkpt>
      <trkpt lat="43.9204216" lon="8.1030579">
        <ele>-5.5000000</ele>
        <time>2010-03-07T12:41:15Z</time>
      </trkpt>
      <trkpt lat="43.9204216" lon="8.1030570">
        <ele>-5.5000000</ele>
        <time>2010-03-07T12:41:18Z</time>
      </trkpt>
      <trkpt lat="43.9204407" lon="8.1030607">
        <ele>-6.0000000</ele>
        <time>2010-03-07T12:41:30Z</time>
      </trkpt>
      <trkpt lat="43.9204445" lon="8.1030579">
        <ele>-6.2000000</ele>
        <time>2010-03-07T12:41:39Z</time>
      </trkpt>
      <trkpt lat="43.9204483" lon="8.1030559">
        <ele>-5.7000000</ele>
        <time>2010-03-07T12:41:47Z</time>
      </trkpt>
      <trkpt lat="43.9204636" lon="8.1030646">
        <ele>-5.5000000</ele>
        <time>2010-03-07T12:42:09Z</time>
      </trkpt>
      <trkpt lat="43.9205094" lon="8.1030474">
        <ele>-5.1000000</ele>
        <time>2010-03-07T12:42:16Z</time>
      </trkpt>
      <trkpt lat="43.9205170" lon="8.1030464">
        <ele>-4.7000000</ele>
        <time>2010-03-07T12:42:19Z</time>
      </trkpt>
      <trkpt lat="43.9205246" lon="8.1030455">
        <ele>-4.8000000</ele>
        <time>2010-03-07T12:42:40Z</time>
      </trkpt>
      <trkpt lat="43.9205284" lon="8.1030416">
        <ele>-4.4000000</ele>
        <time>2010-03-07T12:42:52Z</time>
      </trkpt>
    </trkseg>
  </trk>

  <trk>
    <name>Trasfer_CO_3</name>
    <extensions>
      <gpxx:TrackExtension xmlns:gpxx="http://www.garmin.com/xmlschemas/GpxExtensions/v3">
        <gpxx:DisplayColor>Blue</gpxx:DisplayColor>
      </gpxx:TrackExtension>
    </extensions>
    <trkseg>
      <trkpt lat="43.9248009" lon="8.0953131">
        <ele>49.4000000</ele>
        <time>2010-03-07T14:08:21Z</time>
      </trkpt>
      <trkpt lat="43.9247513" lon="8.0953760">
        <ele>50.7000000</ele>
        <time>2010-03-07T14:08:23Z</time>
      </trkpt>
      <trkpt lat="43.9246979" lon="8.0956106">
        <ele>51.1000000</ele>
        <time>2010-03-07T14:08:29Z</time>
      </trkpt>
      <trkpt lat="43.9247131" lon="8.0957976">
        <ele>50.9000000</ele>
        <time>2010-03-07T14:08:34Z</time>
      </trkpt>
      <trkpt lat="43.9247246" lon="8.0958242">
        <ele>51.7000000</ele>
        <time>2010-03-07T14:08:38Z</time>
      </trkpt>
      <trkpt lat="43.9247360" lon="8.0958385">
        <ele>51.9000000</ele>
        <time>2010-03-07T14:08:40Z</time>
      </trkpt>
      <trkpt lat="43.9247742" lon="8.0958462">
        <ele>52.6000000</ele>
        <time>2010-03-07T14:08:48Z</time>
      </trkpt>
      <trkpt lat="43.9248047" lon="8.0958328">
        <ele>53.6000000</ele>
        <time>2010-03-07T14:08:56Z</time>
      </trkpt>
      <trkpt lat="43.9248390" lon="8.0958300">
        <ele>54.8000000</ele>
        <time>2010-03-07T14:09:04Z</time>
      </trkpt>
      <trkpt lat="43.9248581" lon="8.0958405">
        <ele>55.6000000</ele>
        <time>2010-03-07T14:09:10Z</time>
      </trkpt>
      <trkpt lat="43.9248733" lon="8.0958671">
        <ele>56.1000000</ele>
        <time>2010-03-07T14:09:16Z</time>
      </trkpt>
      <trkpt lat="43.9248963" lon="8.0958976">
        <ele>57.7000000</ele>
        <time>2010-03-07T14:09:24Z</time>
      </trkpt>
      <trkpt lat="43.9249153" lon="8.0959272">
        <ele>57.4000000</ele>
        <time>2010-03-07T14:09:42Z</time>
      </trkpt>
      <trkpt lat="43.9249458" lon="8.0959616">
        <ele>57.1000000</ele>
        <time>2010-03-07T14:09:50Z</time>
      </trkpt>
      <trkpt lat="43.9250068" lon="8.0961256">
        <ele>56.2000000</ele>
        <time>2010-03-07T14:09:55Z</time>
      </trkpt>
      <trkpt lat="43.9250641" lon="8.0962143">
        <ele>55.5000000</ele>
        <time>2010-03-07T14:09:57Z</time>
      </trkpt>
      <trkpt lat="43.9253540" lon="8.0965166">
        <ele>51.6000000</ele>
        <time>2010-03-07T14:10:03Z</time>
      </trkpt>
      <trkpt lat="43.9256363" lon="8.0967378">
        <ele>47.1000000</ele>
        <time>2010-03-07T14:10:07Z</time>
      </trkpt>
      <trkpt lat="43.9262047" lon="8.0969324">
        <ele>38.8000000</ele>
        <time>2010-03-07T14:10:14Z</time>
      </trkpt>
      <trkpt lat="43.9263725" lon="8.0969744">
        <ele>37.4000000</ele>
        <time>2010-03-07T14:10:16Z</time>
      </trkpt>
      <trkpt lat="43.9266663" lon="8.0971641">
        <ele>34.6000000</ele>
        <time>2010-03-07T14:10:20Z</time>
      </trkpt>
      <trkpt lat="43.9267158" lon="8.0973415">
        <ele>33.5000000</ele>
        <time>2010-03-07T14:10:22Z</time>
      </trkpt>
      <trkpt lat="43.9267235" lon="8.0974407">
        <ele>33.0000000</ele>
        <time>2010-03-07T14:10:23Z</time>
      </trkpt>
      <trkpt lat="43.9267387" lon="8.0976438">
        <ele>31.4000000</ele>
        <time>2010-03-07T14:10:25Z</time>
      </trkpt>
      <trkpt lat="43.9266739" lon="8.0978270">
        <ele>29.1000000</ele>
        <time>2010-03-07T14:10:28Z</time>
      </trkpt>
      <trkpt lat="43.9266167" lon="8.0978489">
        <ele>27.8000000</ele>
        <time>2010-03-07T14:10:29Z</time>
      </trkpt>
      <trkpt lat="43.9261742" lon="8.0980110">
        <ele>20.7000000</ele>
        <time>2010-03-07T14:10:34Z</time>
      </trkpt>
      <trkpt lat="43.9258995" lon="8.0981627">
        <ele>17.4000000</ele>
        <time>2010-03-07T14:10:37Z</time>
      </trkpt>
      <trkpt lat="43.9257087" lon="8.0984249">
        <ele>14.3000000</ele>
        <time>2010-03-07T14:10:41Z</time>
      </trkpt>
      <trkpt lat="43.9255982" lon="8.0985947">
        <ele>13.3000000</ele>
        <time>2010-03-07T14:10:44Z</time>
      </trkpt>
      <trkpt lat="43.9252014" lon="8.0987797">
        <ele>10.2000000</ele>
        <time>2010-03-07T14:10:51Z</time>
      </trkpt>
      <trkpt lat="43.9251366" lon="8.0988121">
        <ele>9.8000000</ele>
        <time>2010-03-07T14:10:52Z</time>
      </trkpt>
      <trkpt lat="43.9249458" lon="8.0988254">
        <ele>8.6000000</ele>
        <time>2010-03-07T14:10:55Z</time>
      </trkpt>
      <trkpt lat="43.9246864" lon="8.0988894">
        <ele>7.1000000</ele>
        <time>2010-03-07T14:10:59Z</time>
      </trkpt>
      <trkpt lat="43.9245338" lon="8.0990581">
        <ele>6.1000000</ele>
        <time>2010-03-07T14:11:03Z</time>
      </trkpt>
      <trkpt lat="43.9245147" lon="8.0991812">
        <ele>5.5000000</ele>
        <time>2010-03-07T14:11:05Z</time>
      </trkpt>
      <trkpt lat="43.9245262" lon="8.0995007">
        <ele>5.6000000</ele>
        <time>2010-03-07T14:11:11Z</time>
      </trkpt>
      <trkpt lat="43.9245911" lon="8.0998249">
        <ele>5.7000000</ele>
        <time>2010-03-07T14:11:18Z</time>
      </trkpt>
      <trkpt lat="43.9246864" lon="8.1001568">
        <ele>5.5000000</ele>
        <time>2010-03-07T14:11:25Z</time>
      </trkpt>
      <trkpt lat="43.9248085" lon="8.1005049">
        <ele>4.7000000</ele>
        <time>2010-03-07T14:11:33Z</time>
      </trkpt>
      <trkpt lat="43.9249229" lon="8.1007938">
        <ele>5.5000000</ele>
        <time>2010-03-07T14:11:40Z</time>
      </trkpt>
      <trkpt lat="43.9250565" lon="8.1010227">
        <ele>4.2000000</ele>
        <time>2010-03-07T14:11:46Z</time>
      </trkpt>
      <trkpt lat="43.9252205" lon="8.1013346">
        <ele>3.3000000</ele>
        <time>2010-03-07T14:11:54Z</time>
      </trkpt>
      <trkpt lat="43.9253502" lon="8.1016178">
        <ele>1.8000000</ele>
        <time>2010-03-07T14:12:01Z</time>
      </trkpt>
      <trkpt lat="43.9253616" lon="8.1016989">
        <ele>1.6000000</ele>
        <time>2010-03-07T14:12:03Z</time>
      </trkpt>
      <trkpt lat="43.9252777" lon="8.1017485">
        <ele>1.8000000</ele>
        <time>2010-03-07T14:12:07Z</time>
      </trkpt>
      <trkpt lat="43.9252434" lon="8.1017513">
        <ele>1.7000000</ele>
        <time>2010-03-07T14:12:08Z</time>
      </trkpt>
      <trkpt lat="43.9249878" lon="8.1018038">
        <ele>1.0000000</ele>
        <time>2010-03-07T14:12:15Z</time>
      </trkpt>
      <trkpt lat="43.9247322" lon="8.1019163">
        <ele>0.4000000</ele>
        <time>2010-03-07T14:12:22Z</time>
      </trkpt>
      <trkpt lat="43.9244347" lon="8.1020918">
        <ele>-1.7000000</ele>
        <time>2010-03-07T14:12:31Z</time>
      </trkpt>
      <trkpt lat="43.9240799" lon="8.1022787">
        <ele>-2.4000000</ele>
        <time>2010-03-07T14:12:41Z</time>
      </trkpt>
      <trkpt lat="43.9236908" lon="8.1024714">
        <ele>-3.3000000</ele>
        <time>2010-03-07T14:12:51Z</time>
      </trkpt>
      <trkpt lat="43.9232865" lon="8.1026793">
        <ele>-4.3000000</ele>
        <time>2010-03-07T14:13:01Z</time>
      </trkpt>
      <trkpt lat="43.9229355" lon="8.1028529">
        <ele>-5.6000000</ele>
        <time>2010-03-07T14:13:10Z</time>
      </trkpt>
      <trkpt lat="43.9225731" lon="8.1030731">
        <ele>-6.4000000</ele>
        <time>2010-03-07T14:13:18Z</time>
      </trkpt>
      <trkpt lat="43.9225388" lon="8.1030798">
        <ele>-6.6000000</ele>
        <time>2010-03-07T14:13:19Z</time>
      </trkpt>
      <trkpt lat="43.9223290" lon="8.1031523">
        <ele>-7.0000000</ele>
        <time>2010-03-07T14:13:24Z</time>
      </trkpt>
      <trkpt lat="43.9220848" lon="8.1032801">
        <ele>-7.0000000</ele>
        <time>2010-03-07T14:13:31Z</time>
      </trkpt>
      <trkpt lat="43.9219818" lon="8.1032906">
        <ele>-7.2000000</ele>
        <time>2010-03-07T14:13:36Z</time>
      </trkpt>
      <trkpt lat="43.9218750" lon="8.1031980">
        <ele>-6.7000000</ele>
        <time>2010-03-07T14:13:41Z</time>
      </trkpt>
      <trkpt lat="43.9217796" lon="8.1029377">
        <ele>-6.2000000</ele>
        <time>2010-03-07T14:13:47Z</time>
      </trkpt>
      <trkpt lat="43.9216232" lon="8.1026878">
        <ele>-5.5000000</ele>
        <time>2010-03-07T14:13:54Z</time>
      </trkpt>
      <trkpt lat="43.9214936" lon="8.1027041">
        <ele>-6.1000000</ele>
        <time>2010-03-07T14:13:58Z</time>
      </trkpt>
      <trkpt lat="43.9212532" lon="8.1027679">
        <ele>-5.8000000</ele>
        <time>2010-03-07T14:14:05Z</time>
      </trkpt>
      <trkpt lat="43.9209098" lon="8.1029082">
        <ele>-6.7000000</ele>
        <time>2010-03-07T14:14:15Z</time>
      </trkpt>
      <trkpt lat="43.9206848" lon="8.1029816">
        <ele>-7.4000000</ele>
        <time>2010-03-07T14:14:23Z</time>
      </trkpt>
      <trkpt lat="43.9205818" lon="8.1030502">
        <ele>-6.8000000</ele>
        <time>2010-03-07T14:14:29Z</time>
      </trkpt>
      <trkpt lat="43.9205170" lon="8.1030865">
        <ele>-5.9000000</ele>
        <time>2010-03-07T14:14:35Z</time>
      </trkpt>
      <trkpt lat="43.9204865" lon="8.1030989">
        <ele>-6.3000000</ele>
        <time>2010-03-07T14:14:40Z</time>
      </trkpt>
      <trkpt lat="43.9204483" lon="8.1031132">
        <ele>-6.8000000</ele>
        <time>2010-03-07T14:14:45Z</time>
      </trkpt>
      <trkpt lat="43.9204063" lon="8.1031370">
        <ele>-6.8000000</ele>
        <time>2010-03-07T14:14:52Z</time>
      </trkpt>
      <trkpt lat="43.9204140" lon="8.1031542">
        <ele>-6.4000000</ele>
        <time>2010-03-07T14:15:19Z</time>
      </trkpt>
      <trkpt lat="43.9204140" lon="8.1031513">
        <ele>-6.4000000</ele>
        <time>2010-03-07T14:15:23Z</time>
      </trkpt>
      <trkpt lat="43.9204216" lon="8.1031466">
        <ele>-6.5000000</ele>
        <time>2010-03-07T14:15:42Z</time>
      </trkpt>
      <trkpt lat="43.9204178" lon="8.1031456">
        <ele>-6.5000000</ele>
        <time>2010-03-07T14:15:49Z</time>
      </trkpt>
      <trkpt lat="43.9203872" lon="8.1031580">
        <ele>-6.7000000</ele>
        <time>2010-03-07T14:15:54Z</time>
      </trkpt>
      <trkpt lat="43.9203530" lon="8.1030941">
        <ele>-7.0000000</ele>
        <time>2010-03-07T14:16:01Z</time>
      </trkpt>
      <trkpt lat="43.9203567" lon="8.1030836">
        <ele>-6.9000000</ele>
        <time>2010-03-07T14:16:02Z</time>
      </trkpt>
      <trkpt lat="43.9204025" lon="8.1030416">
        <ele>-6.6000000</ele>
        <time>2010-03-07T14:16:08Z</time>
      </trkpt>
      <trkpt lat="43.9204521" lon="8.1030063">
        <ele>-6.8000000</ele>
        <time>2010-03-07T14:16:14Z</time>
      </trkpt>
      <trkpt lat="43.9204597" lon="8.1029834">
        <ele>-6.1000000</ele>
        <time>2010-03-07T14:16:19Z</time>
      </trkpt>
      <trkpt lat="43.9204597" lon="8.1029834">
        <ele>-6.0000000</ele>
        <time>2010-03-07T14:16:21Z</time>
      </trkpt>
    </trkseg>
  </trk>

</gpx>
